<?xml version="1.0" encoding="UTF-8"?>
<TrainingCenterDatabase xmlns="http://www.garmin.com/xmlschemas/TrainingCenterDatabase/v2" xmlns:xsi="http://www.w3.org/2001/XMLSchema-instance" xsi:schemaLocation="http://www.garmin.com/xmlschemas/TrainingCenterDatabase/v2 http://www.garmin.com/xmlschemas/TrainingCenterDatabasev2.xsd">
  <Activities>
    <Activity Sport="Other">
      <Id>2020-09-13T07:10:04.000Z</Id>
      <Lap StartTime="2020-09-13T07:10:04.000Z">
        <TotalTimeSeconds>12452</TotalTimeSeconds>
        <DistanceMeters>44510</DistanceMeters>
        <Track>
          <Trackpoint>
            <Time>2020-09-13T07:10:04.000Z</Time>
            <Position>
              <LatitudeDegrees>41.1543058790266513824462890625</LatitudeDegrees>
              <LongitudeDegrees>-4.48870251886546611785888671875</LongitudeDegrees>
            </Position>
            <AltitudeMeters>805.20001220703125</AltitudeMeters>
            <DistanceMeters>0</DistanceMeters>
          </Trackpoint>
          <Trackpoint>
            <Time>2020-09-13T07:10:09.000Z</Time>
            <Position>
              <LatitudeDegrees>41.154300011694431304931640625</LatitudeDegrees>
              <LongitudeDegrees>-4.48870520107448101043701171875</LongitudeDegrees>
            </Position>
            <AltitudeMeters>805.20001220703125</AltitudeMeters>
            <DistanceMeters>0.69830088641898</DistanceMeters>
          </Trackpoint>
          <Trackpoint>
            <Time>2020-09-13T07:10:11.000Z</Time>
            <Position>
              <LatitudeDegrees>41.15426623262465000152587890625</LatitudeDegrees>
              <LongitudeDegrees>-4.48867133818566799163818359375</LongitudeDegrees>
            </Position>
            <AltitudeMeters>805.4000244140625</AltitudeMeters>
            <DistanceMeters>5.40955633473</DistanceMeters>
          </Trackpoint>
          <Trackpoint>
            <Time>2020-09-13T07:10:12.000Z</Time>
            <Position>
              <LatitudeDegrees>41.154252402484416961669921875</LatitudeDegrees>
              <LongitudeDegrees>-4.48864501900970935821533203125</LongitudeDegrees>
            </Position>
            <AltitudeMeters>805.4000244140625</AltitudeMeters>
            <DistanceMeters>8.0989970259533</DistanceMeters>
          </Trackpoint>
          <Trackpoint>
            <Time>2020-09-13T07:10:19.000Z</Time>
            <Position>
              <LatitudeDegrees>41.154128350317478179931640625</LatitudeDegrees>
              <LongitudeDegrees>-4.48842239566147327423095703125</LongitudeDegrees>
            </Position>
            <AltitudeMeters>805.20001220703125</AltitudeMeters>
            <DistanceMeters>31.309065324379</DistanceMeters>
          </Trackpoint>
          <Trackpoint>
            <Time>2020-09-13T07:10:24.000Z</Time>
            <Position>
              <LatitudeDegrees>41.1540544219315052032470703125</LatitudeDegrees>
              <LongitudeDegrees>-4.488168843090534210205078125</LongitudeDegrees>
            </Position>
            <AltitudeMeters>804.5999755859375</AltitudeMeters>
            <DistanceMeters>54.095076500067</DistanceMeters>
          </Trackpoint>
          <Trackpoint>
            <Time>2020-09-13T07:10:25.000Z</Time>
            <Position>
              <LatitudeDegrees>41.15403807722032070159912109375</LatitudeDegrees>
              <LongitudeDegrees>-4.48810975067317485809326171875</LongitudeDegrees>
            </Position>
            <AltitudeMeters>804.5999755859375</AltitudeMeters>
            <DistanceMeters>59.370557103791</DistanceMeters>
          </Trackpoint>
          <Trackpoint>
            <Time>2020-09-13T07:10:27.000Z</Time>
            <Position>
              <LatitudeDegrees>41.15401142276823520660400390625</LatitudeDegrees>
              <LongitudeDegrees>-4.4879973493516445159912109375</LongitudeDegrees>
            </Position>
            <AltitudeMeters>804.4000244140625</AltitudeMeters>
            <DistanceMeters>69.246022945701</DistanceMeters>
          </Trackpoint>
          <Trackpoint>
            <Time>2020-09-13T07:10:28.000Z</Time>
            <Position>
              <LatitudeDegrees>41.154000945389270782470703125</LatitudeDegrees>
              <LongitudeDegrees>-4.4879540987312793731689453125</LongitudeDegrees>
            </Position>
            <AltitudeMeters>804.20001220703125</AltitudeMeters>
            <DistanceMeters>73.053026057408</DistanceMeters>
          </Trackpoint>
          <Trackpoint>
            <Time>2020-09-13T07:10:32.000Z</Time>
            <Position>
              <LatitudeDegrees>41.15395308472216129302978515625</LatitudeDegrees>
              <LongitudeDegrees>-4.48773105628788471221923828125</LongitudeDegrees>
            </Position>
            <AltitudeMeters>804</AltitudeMeters>
            <DistanceMeters>92.489183546909</DistanceMeters>
          </Trackpoint>
          <Trackpoint>
            <Time>2020-09-13T07:10:34.000Z</Time>
            <Position>
              <LatitudeDegrees>41.15392860956490039825439453125</LatitudeDegrees>
              <LongitudeDegrees>-4.487632401287555694580078125</LongitudeDegrees>
            </Position>
            <AltitudeMeters>804</AltitudeMeters>
            <DistanceMeters>101.19437748603</DistanceMeters>
          </Trackpoint>
          <Trackpoint>
            <Time>2020-09-13T07:10:35.000Z</Time>
            <Position>
              <LatitudeDegrees>41.15391620434820652008056640625</LatitudeDegrees>
              <LongitudeDegrees>-4.48758621700108051300048828125</LongitudeDegrees>
            </Position>
            <AltitudeMeters>804</AltitudeMeters>
            <DistanceMeters>105.30366488778</DistanceMeters>
          </Trackpoint>
          <Trackpoint>
            <Time>2020-09-13T07:10:36.000Z</Time>
            <Position>
              <LatitudeDegrees>41.153903044760227203369140625</LatitudeDegrees>
              <LongitudeDegrees>-4.4875410385429859161376953125</LongitudeDegrees>
            </Position>
            <AltitudeMeters>804</AltitudeMeters>
            <DistanceMeters>109.36209554923</DistanceMeters>
          </Trackpoint>
          <Trackpoint>
            <Time>2020-09-13T07:10:41.000Z</Time>
            <Position>
              <LatitudeDegrees>41.15384076721966266632080078125</LatitudeDegrees>
              <LongitudeDegrees>-4.487325958907604217529296875</LongitudeDegrees>
            </Position>
            <AltitudeMeters>804</AltitudeMeters>
            <DistanceMeters>128.67357211264</DistanceMeters>
          </Trackpoint>
          <Trackpoint>
            <Time>2020-09-13T07:10:50.000Z</Time>
            <Position>
              <LatitudeDegrees>41.15376750938594341278076171875</LatitudeDegrees>
              <LongitudeDegrees>-4.4869221188127994537353515625</LongitudeDegrees>
            </Position>
            <AltitudeMeters>804</AltitudeMeters>
            <DistanceMeters>163.48552952798</DistanceMeters>
          </Trackpoint>
          <Trackpoint>
            <Time>2020-09-13T07:10:59.000Z</Time>
            <Position>
              <LatitudeDegrees>41.153706572949886322021484375</LatitudeDegrees>
              <LongitudeDegrees>-4.48648206889629364013671875</LongitudeDegrees>
            </Position>
            <AltitudeMeters>804.5999755859375</AltitudeMeters>
            <DistanceMeters>200.98208846882</DistanceMeters>
          </Trackpoint>
          <Trackpoint>
            <Time>2020-09-13T07:11:01.000Z</Time>
            <Position>
              <LatitudeDegrees>41.15369676612317562103271484375</LatitudeDegrees>
              <LongitudeDegrees>-4.48637318797409534454345703125</LongitudeDegrees>
            </Position>
            <AltitudeMeters>804.79998779296875</AltitudeMeters>
            <DistanceMeters>210.17220843432</DistanceMeters>
          </Trackpoint>
          <Trackpoint>
            <Time>2020-09-13T07:11:04.000Z</Time>
            <Position>
              <LatitudeDegrees>41.15368067286908626556396484375</LatitudeDegrees>
              <LongitudeDegrees>-4.48621745221316814422607421875</LongitudeDegrees>
            </Position>
            <AltitudeMeters>805</AltitudeMeters>
            <DistanceMeters>223.34566694376</DistanceMeters>
          </Trackpoint>
          <Trackpoint>
            <Time>2020-09-13T07:11:10.000Z</Time>
            <Position>
              <LatitudeDegrees>41.15364228375256061553955078125</LatitudeDegrees>
              <LongitudeDegrees>-4.48591486550867557525634765625</LongitudeDegrees>
            </Position>
            <AltitudeMeters>804.79998779296875</AltitudeMeters>
            <DistanceMeters>249.06106171165</DistanceMeters>
          </Trackpoint>
          <Trackpoint>
            <Time>2020-09-13T07:11:11.000Z</Time>
            <Position>
              <LatitudeDegrees>41.1536349914968013763427734375</LatitudeDegrees>
              <LongitudeDegrees>-4.4858649931848049163818359375</LongitudeDegrees>
            </Position>
            <AltitudeMeters>804.5999755859375</AltitudeMeters>
            <DistanceMeters>253.31821609257</DistanceMeters>
          </Trackpoint>
          <Trackpoint>
            <Time>2020-09-13T07:11:13.000Z</Time>
            <Position>
              <LatitudeDegrees>41.153620742261409759521484375</LatitudeDegrees>
              <LongitudeDegrees>-4.48576457798480987548828125</LongitudeDegrees>
            </Position>
            <AltitudeMeters>804.5999755859375</AltitudeMeters>
            <DistanceMeters>261.88117240012</DistanceMeters>
          </Trackpoint>
          <Trackpoint>
            <Time>2020-09-13T07:11:24.000Z</Time>
            <Position>
              <LatitudeDegrees>41.15356232039630413055419921875</LatitudeDegrees>
              <LongitudeDegrees>-4.48526560328900814056396484375</LongitudeDegrees>
            </Position>
            <AltitudeMeters>804.4000244140625</AltitudeMeters>
            <DistanceMeters>304.20007964917</DistanceMeters>
          </Trackpoint>
          <Trackpoint>
            <Time>2020-09-13T07:11:29.000Z</Time>
            <Position>
              <LatitudeDegrees>41.15353449247777462005615234375</LatitudeDegrees>
              <LongitudeDegrees>-4.485038034617900848388671875</LongitudeDegrees>
            </Position>
            <AltitudeMeters>804.20001220703125</AltitudeMeters>
            <DistanceMeters>323.5211396665</DistanceMeters>
          </Trackpoint>
          <Trackpoint>
            <Time>2020-09-13T07:11:35.000Z</Time>
            <Position>
              <LatitudeDegrees>41.15349434316158294677734375</LatitudeDegrees>
              <LongitudeDegrees>-4.48476411402225494384765625</LongitudeDegrees>
            </Position>
            <AltitudeMeters>804.20001220703125</AltitudeMeters>
            <DistanceMeters>346.9079457788</DistanceMeters>
          </Trackpoint>
          <Trackpoint>
            <Time>2020-09-13T07:11:44.000Z</Time>
            <Position>
              <LatitudeDegrees>41.1533942632377147674560546875</LatitudeDegrees>
              <LongitudeDegrees>-4.48439061641693115234375</LongitudeDegrees>
            </Position>
            <AltitudeMeters>805.20001220703125</AltitudeMeters>
            <DistanceMeters>380.13184552635</DistanceMeters>
          </Trackpoint>
          <Trackpoint>
            <Time>2020-09-13T07:11:46.000Z</Time>
            <Position>
              <LatitudeDegrees>41.15336501039564609527587890625</LatitudeDegrees>
              <LongitudeDegrees>-4.48431140743196010589599609375</LongitudeDegrees>
            </Position>
            <AltitudeMeters>805.4000244140625</AltitudeMeters>
            <DistanceMeters>387.52563229577</DistanceMeters>
          </Trackpoint>
          <Trackpoint>
            <Time>2020-09-13T07:11:56.000Z</Time>
            <Position>
              <LatitudeDegrees>41.1532065086066722869873046875</LatitudeDegrees>
              <LongitudeDegrees>-4.48390773497521877288818359375</LongitudeDegrees>
            </Position>
            <AltitudeMeters>805.20001220703125</AltitudeMeters>
            <DistanceMeters>425.67894686999</DistanceMeters>
          </Trackpoint>
          <Trackpoint>
            <Time>2020-09-13T07:12:06.000Z</Time>
            <Position>
              <LatitudeDegrees>41.15305085666477680206298828125</LatitudeDegrees>
              <LongitudeDegrees>-4.48350003920495510101318359375</LongitudeDegrees>
            </Position>
            <AltitudeMeters>804.5999755859375</AltitudeMeters>
            <DistanceMeters>463.98709017161</DistanceMeters>
          </Trackpoint>
          <Trackpoint>
            <Time>2020-09-13T07:12:07.000Z</Time>
            <Position>
              <LatitudeDegrees>41.15303711034357547760009765625</LatitudeDegrees>
              <LongitudeDegrees>-4.48345997370779514312744140625</LongitudeDegrees>
            </Position>
            <AltitudeMeters>804.5999755859375</AltitudeMeters>
            <DistanceMeters>467.67726025949</DistanceMeters>
          </Trackpoint>
          <Trackpoint>
            <Time>2020-09-13T07:12:11.000Z</Time>
            <Position>
              <LatitudeDegrees>41.15298111923038959503173828125</LatitudeDegrees>
              <LongitudeDegrees>-4.483316056430339813232421875</LongitudeDegrees>
            </Position>
            <AltitudeMeters>804.4000244140625</AltitudeMeters>
            <DistanceMeters>481.25378118254</DistanceMeters>
          </Trackpoint>
          <Trackpoint>
            <Time>2020-09-13T07:12:12.000Z</Time>
            <Position>
              <LatitudeDegrees>41.15296653471887111663818359375</LatitudeDegrees>
              <LongitudeDegrees>-4.48327573947608470916748046875</LongitudeDegrees>
            </Position>
            <AltitudeMeters>804.20001220703125</AltitudeMeters>
            <DistanceMeters>485.00222071744</DistanceMeters>
          </Trackpoint>
          <Trackpoint>
            <Time>2020-09-13T07:12:13.000Z</Time>
            <Position>
              <LatitudeDegrees>41.15295178256928920745849609375</LatitudeDegrees>
              <LongitudeDegrees>-4.48323600925505161285400390625</LongitudeDegrees>
            </Position>
            <AltitudeMeters>804.20001220703125</AltitudeMeters>
            <DistanceMeters>488.714349036</DistanceMeters>
          </Trackpoint>
          <Trackpoint>
            <Time>2020-09-13T07:12:14.000Z</Time>
            <Position>
              <LatitudeDegrees>41.1529325880110263824462890625</LatitudeDegrees>
              <LongitudeDegrees>-4.48319091461598873138427734375</LongitudeDegrees>
            </Position>
            <AltitudeMeters>804</AltitudeMeters>
            <DistanceMeters>493.05656040983</DistanceMeters>
          </Trackpoint>
          <Trackpoint>
            <Time>2020-09-13T07:12:15.000Z</Time>
            <Position>
              <LatitudeDegrees>41.15292035043239593505859375</LatitudeDegrees>
              <LongitudeDegrees>-4.48316141031682491302490234375</LongitudeDegrees>
            </Position>
            <AltitudeMeters>804</AltitudeMeters>
            <DistanceMeters>495.88030924781</DistanceMeters>
          </Trackpoint>
          <Trackpoint>
            <Time>2020-09-13T07:12:16.000Z</Time>
            <Position>
              <LatitudeDegrees>41.1529054306447505950927734375</LatitudeDegrees>
              <LongitudeDegrees>-4.48312419466674327850341796875</LongitudeDegrees>
            </Position>
            <AltitudeMeters>804</AltitudeMeters>
            <DistanceMeters>499.41550737499</DistanceMeters>
          </Trackpoint>
          <Trackpoint>
            <Time>2020-09-13T07:12:17.000Z</Time>
            <Position>
              <LatitudeDegrees>41.15288824774324893951416015625</LatitudeDegrees>
              <LongitudeDegrees>-4.48307968676090240478515625</LongitudeDegrees>
            </Position>
            <AltitudeMeters>803.79998779296875</AltitudeMeters>
            <DistanceMeters>503.60746738911</DistanceMeters>
          </Trackpoint>
          <Trackpoint>
            <Time>2020-09-13T07:12:18.000Z</Time>
            <Position>
              <LatitudeDegrees>41.15287483669817447662353515625</LatitudeDegrees>
              <LongitudeDegrees>-4.4830429740250110626220703125</LongitudeDegrees>
            </Position>
            <AltitudeMeters>803.79998779296875</AltitudeMeters>
            <DistanceMeters>507.02710903626</DistanceMeters>
          </Trackpoint>
          <Trackpoint>
            <Time>2020-09-13T07:12:27.000Z</Time>
            <Position>
              <LatitudeDegrees>41.15275883115828037261962890625</LatitudeDegrees>
              <LongitudeDegrees>-4.48271499015390872955322265625</LongitudeDegrees>
            </Position>
            <AltitudeMeters>803.20001220703125</AltitudeMeters>
            <DistanceMeters>537.39554177854</DistanceMeters>
          </Trackpoint>
          <Trackpoint>
            <Time>2020-09-13T07:12:30.000Z</Time>
            <Position>
              <LatitudeDegrees>41.152728907763957977294921875</LatitudeDegrees>
              <LongitudeDegrees>-4.48261323384940624237060546875</LongitudeDegrees>
            </Position>
            <AltitudeMeters>803.20001220703125</AltitudeMeters>
            <DistanceMeters>546.55071351657</DistanceMeters>
          </Trackpoint>
          <Trackpoint>
            <Time>2020-09-13T07:12:36.000Z</Time>
            <Position>
              <LatitudeDegrees>41.1526469327509403228759765625</LatitudeDegrees>
              <LongitudeDegrees>-4.4823901914060115814208984375</LongitudeDegrees>
            </Position>
            <AltitudeMeters>803</AltitudeMeters>
            <DistanceMeters>567.35093040446</DistanceMeters>
          </Trackpoint>
          <Trackpoint>
            <Time>2020-09-13T07:12:37.000Z</Time>
            <Position>
              <LatitudeDegrees>41.1526241339743137359619140625</LatitudeDegrees>
              <LongitudeDegrees>-4.4823427498340606689453125</LongitudeDegrees>
            </Position>
            <AltitudeMeters>803</AltitudeMeters>
            <DistanceMeters>572.06888954315</DistanceMeters>
          </Trackpoint>
          <Trackpoint>
            <Time>2020-09-13T07:12:40.000Z</Time>
            <Position>
              <LatitudeDegrees>41.15256655029952526092529296875</LatitudeDegrees>
              <LongitudeDegrees>-4.482217021286487579345703125</LongitudeDegrees>
            </Position>
            <AltitudeMeters>803</AltitudeMeters>
            <DistanceMeters>584.40187813562</DistanceMeters>
          </Trackpoint>
          <Trackpoint>
            <Time>2020-09-13T07:12:49.000Z</Time>
            <Position>
              <LatitudeDegrees>41.15237058140337467193603515625</LatitudeDegrees>
              <LongitudeDegrees>-4.48186422698199748992919921875</LongitudeDegrees>
            </Position>
            <AltitudeMeters>803</AltitudeMeters>
            <DistanceMeters>621.14306970158</DistanceMeters>
          </Trackpoint>
          <Trackpoint>
            <Time>2020-09-13T07:12:55.000Z</Time>
            <Position>
              <LatitudeDegrees>41.15220294333994388580322265625</LatitudeDegrees>
              <LongitudeDegrees>-4.481651075184345245361328125</LongitudeDegrees>
            </Position>
            <AltitudeMeters>804.20001220703125</AltitudeMeters>
            <DistanceMeters>646.97426031676</DistanceMeters>
          </Trackpoint>
          <Trackpoint>
            <Time>2020-09-13T07:12:57.000Z</Time>
            <Position>
              <LatitudeDegrees>41.1521498858928680419921875</LatitudeDegrees>
              <LongitudeDegrees>-4.48159550316631793975830078125</LongitudeDegrees>
            </Position>
            <AltitudeMeters>804.79998779296875</AltitudeMeters>
            <DistanceMeters>654.49519103343</DistanceMeters>
          </Trackpoint>
          <Trackpoint>
            <Time>2020-09-13T07:12:59.000Z</Time>
            <Position>
              <LatitudeDegrees>41.15208425559103488922119140625</LatitudeDegrees>
              <LongitudeDegrees>-4.48152895085513591766357421875</LongitudeDegrees>
            </Position>
            <AltitudeMeters>805.20001220703125</AltitudeMeters>
            <DistanceMeters>663.68580227843</DistanceMeters>
          </Trackpoint>
          <Trackpoint>
            <Time>2020-09-13T07:13:10.000Z</Time>
            <Position>
              <LatitudeDegrees>41.1517540924251079559326171875</LatitudeDegrees>
              <LongitudeDegrees>-4.4812059961259365081787109375</LongitudeDegrees>
            </Position>
            <AltitudeMeters>804.5999755859375</AltitudeMeters>
            <DistanceMeters>709.32514575731</DistanceMeters>
          </Trackpoint>
          <Trackpoint>
            <Time>2020-09-13T07:13:11.000Z</Time>
            <Position>
              <LatitudeDegrees>41.15172416903078556060791015625</LatitudeDegrees>
              <LongitudeDegrees>-4.48117489926517009735107421875</LongitudeDegrees>
            </Position>
            <AltitudeMeters>804.4000244140625</AltitudeMeters>
            <DistanceMeters>713.55356760937</DistanceMeters>
          </Trackpoint>
          <Trackpoint>
            <Time>2020-09-13T07:13:20.000Z</Time>
            <Position>
              <LatitudeDegrees>41.15144454874098300933837890625</LatitudeDegrees>
              <LongitudeDegrees>-4.48090701363980770111083984375</LongitudeDegrees>
            </Position>
            <AltitudeMeters>803.5999755859375</AltitudeMeters>
            <DistanceMeters>751.92836228615</DistanceMeters>
          </Trackpoint>
          <Trackpoint>
            <Time>2020-09-13T07:13:22.000Z</Time>
            <Position>
              <LatitudeDegrees>41.15138419903814792633056640625</LatitudeDegrees>
              <LongitudeDegrees>-4.48084381408989429473876953125</LongitudeDegrees>
            </Position>
            <AltitudeMeters>803.4000244140625</AltitudeMeters>
            <DistanceMeters>760.4823502114</DistanceMeters>
          </Trackpoint>
          <Trackpoint>
            <Time>2020-09-13T07:13:24.000Z</Time>
            <Position>
              <LatitudeDegrees>41.15132502280175685882568359375</LatitudeDegrees>
              <LongitudeDegrees>-4.48078379966318607330322265625</LongitudeDegrees>
            </Position>
            <AltitudeMeters>803.20001220703125</AltitudeMeters>
            <DistanceMeters>768.76931173878</DistanceMeters>
          </Trackpoint>
          <Trackpoint>
            <Time>2020-09-13T07:13:25.000Z</Time>
            <Position>
              <LatitudeDegrees>41.15129568614065647125244140625</LatitudeDegrees>
              <LongitudeDegrees>-4.4807513616979122161865234375</LongitudeDegrees>
            </Position>
            <AltitudeMeters>803.20001220703125</AltitudeMeters>
            <DistanceMeters>773.01903559898</DistanceMeters>
          </Trackpoint>
          <Trackpoint>
            <Time>2020-09-13T07:13:26.000Z</Time>
            <Position>
              <LatitudeDegrees>41.15126836113631725311279296875</LatitudeDegrees>
              <LongitudeDegrees>-4.48071976192295551300048828125</LongitudeDegrees>
            </Position>
            <AltitudeMeters>803</AltitudeMeters>
            <DistanceMeters>777.05291682579</DistanceMeters>
          </Trackpoint>
          <Trackpoint>
            <Time>2020-09-13T07:13:31.000Z</Time>
            <Position>
              <LatitudeDegrees>41.15112838335335254669189453125</LatitudeDegrees>
              <LongitudeDegrees>-4.4805656187236309051513671875</LongitudeDegrees>
            </Position>
            <AltitudeMeters>802.79998779296875</AltitudeMeters>
            <DistanceMeters>797.29204545453</DistanceMeters>
          </Trackpoint>
          <Trackpoint>
            <Time>2020-09-13T07:13:32.000Z</Time>
            <Position>
              <LatitudeDegrees>41.15110239945352077484130859375</LatitudeDegrees>
              <LongitudeDegrees>-4.4805361144244670867919921875</LongitudeDegrees>
            </Position>
            <AltitudeMeters>802.79998779296875</AltitudeMeters>
            <DistanceMeters>801.09786239917</DistanceMeters>
          </Trackpoint>
          <Trackpoint>
            <Time>2020-09-13T07:13:34.000Z</Time>
            <Position>
              <LatitudeDegrees>41.15105194039642810821533203125</LatitudeDegrees>
              <LongitudeDegrees>-4.4804714061319828033447265625</LongitudeDegrees>
            </Position>
            <AltitudeMeters>802.79998779296875</AltitudeMeters>
            <DistanceMeters>808.90510365308</DistanceMeters>
          </Trackpoint>
          <Trackpoint>
            <Time>2020-09-13T07:13:44.000Z</Time>
            <Position>
              <LatitudeDegrees>41.1507945321500301361083984375</LatitudeDegrees>
              <LongitudeDegrees>-4.48013403452932834625244140625</LongitudeDegrees>
            </Position>
            <AltitudeMeters>803</AltitudeMeters>
            <DistanceMeters>849.15763917998</DistanceMeters>
          </Trackpoint>
          <Trackpoint>
            <Time>2020-09-13T07:13:58.000Z</Time>
            <Position>
              <LatitudeDegrees>41.15041860379278659820556640625</LatitudeDegrees>
              <LongitudeDegrees>-4.4796563498675823211669921875</LongitudeDegrees>
            </Position>
            <AltitudeMeters>804.5999755859375</AltitudeMeters>
            <DistanceMeters>907.06642304221</DistanceMeters>
          </Trackpoint>
          <Trackpoint>
            <Time>2020-09-13T07:14:08.000Z</Time>
            <Position>
              <LatitudeDegrees>41.150126494467258453369140625</LatitudeDegrees>
              <LongitudeDegrees>-4.47934764437377452850341796875</LongitudeDegrees>
            </Position>
            <AltitudeMeters>804.5999755859375</AltitudeMeters>
            <DistanceMeters>948.61668411263</DistanceMeters>
          </Trackpoint>
          <Trackpoint>
            <Time>2020-09-13T07:14:09.000Z</Time>
            <Position>
              <LatitudeDegrees>41.15009606815874576568603515625</LatitudeDegrees>
              <LongitudeDegrees>-4.479316212236881256103515625</LongitudeDegrees>
            </Position>
            <AltitudeMeters>804.5999755859375</AltitudeMeters>
            <DistanceMeters>952.90659038116</DistanceMeters>
          </Trackpoint>
          <Trackpoint>
            <Time>2020-09-13T07:14:22.000Z</Time>
            <Position>
              <LatitudeDegrees>41.1497146077454090118408203125</LatitudeDegrees>
              <LongitudeDegrees>-4.47891128249466419219970703125</LongitudeDegrees>
            </Position>
            <AltitudeMeters>805</AltitudeMeters>
            <DistanceMeters>1007.2603758048</DistanceMeters>
          </Trackpoint>
          <Trackpoint>
            <Time>2020-09-13T07:14:26.000Z</Time>
            <Position>
              <LatitudeDegrees>41.1496006138622760772705078125</LatitudeDegrees>
              <LongitudeDegrees>-4.478800557553768157958984375</LongitudeDegrees>
            </Position>
            <AltitudeMeters>805</AltitudeMeters>
            <DistanceMeters>1022.9797591201</DistanceMeters>
          </Trackpoint>
          <Trackpoint>
            <Time>2020-09-13T07:14:27.000Z</Time>
            <Position>
              <LatitudeDegrees>41.1495722830295562744140625</LatitudeDegrees>
              <LongitudeDegrees>-4.47877298109233379364013671875</LongitudeDegrees>
            </Position>
            <AltitudeMeters>805.20001220703125</AltitudeMeters>
            <DistanceMeters>1026.8885811093</DistanceMeters>
          </Trackpoint>
          <Trackpoint>
            <Time>2020-09-13T07:14:38.000Z</Time>
            <Position>
              <LatitudeDegrees>41.149257123470306396484375</LatitudeDegrees>
              <LongitudeDegrees>-4.47845396585762500762939453125</LongitudeDegrees>
            </Position>
            <AltitudeMeters>805.79998779296875</AltitudeMeters>
            <DistanceMeters>1070.9940817625</DistanceMeters>
          </Trackpoint>
          <Trackpoint>
            <Time>2020-09-13T07:14:40.000Z</Time>
            <Position>
              <LatitudeDegrees>41.14920549094676971435546875</LatitudeDegrees>
              <LongitudeDegrees>-4.47839520871639251708984375</LongitudeDegrees>
            </Position>
            <AltitudeMeters>806</AltitudeMeters>
            <DistanceMeters>1078.5616933281</DistanceMeters>
          </Trackpoint>
          <Trackpoint>
            <Time>2020-09-13T07:14:43.000Z</Time>
            <Position>
              <LatitudeDegrees>41.14911991171538829803466796875</LatitudeDegrees>
              <LongitudeDegrees>-4.4783060252666473388671875</LongitudeDegrees>
            </Position>
            <AltitudeMeters>806.4000244140625</AltitudeMeters>
            <DistanceMeters>1090.6693050245</DistanceMeters>
          </Trackpoint>
          <Trackpoint>
            <Time>2020-09-13T07:14:50.000Z</Time>
            <Position>
              <LatitudeDegrees>41.14895009435713291168212890625</LatitudeDegrees>
              <LongitudeDegrees>-4.47806152515113353729248046875</LongitudeDegrees>
            </Position>
            <AltitudeMeters>807.4000244140625</AltitudeMeters>
            <DistanceMeters>1118.5468133241</DistanceMeters>
          </Trackpoint>
          <Trackpoint>
            <Time>2020-09-13T07:14:54.000Z</Time>
            <Position>
              <LatitudeDegrees>41.14885856397449970245361328125</LatitudeDegrees>
              <LongitudeDegrees>-4.4779045321047306060791015625</LongitudeDegrees>
            </Position>
            <AltitudeMeters>808.20001220703125</AltitudeMeters>
            <DistanceMeters>1135.1876163165</DistanceMeters>
          </Trackpoint>
          <Trackpoint>
            <Time>2020-09-13T07:14:59.000Z</Time>
            <Position>
              <LatitudeDegrees>41.14874658174812793731689453125</LatitudeDegrees>
              <LongitudeDegrees>-4.4777161069214344024658203125</LongitudeDegrees>
            </Position>
            <AltitudeMeters>808.20001220703125</AltitudeMeters>
            <DistanceMeters>1155.3059185901</DistanceMeters>
          </Trackpoint>
          <Trackpoint>
            <Time>2020-09-13T07:15:00.000Z</Time>
            <Position>
              <LatitudeDegrees>41.14872512407600879669189453125</LatitudeDegrees>
              <LongitudeDegrees>-4.477680735290050506591796875</LongitudeDegrees>
            </Position>
            <AltitudeMeters>808.20001220703125</AltitudeMeters>
            <DistanceMeters>1159.1117355347</DistanceMeters>
          </Trackpoint>
          <Trackpoint>
            <Time>2020-09-13T07:15:05.000Z</Time>
            <Position>
              <LatitudeDegrees>41.148620434105396270751953125</LatitudeDegrees>
              <LongitudeDegrees>-4.477489627897739410400390625</LongitudeDegrees>
            </Position>
            <AltitudeMeters>808</AltitudeMeters>
            <DistanceMeters>1178.9188226801</DistanceMeters>
          </Trackpoint>
          <Trackpoint>
            <Time>2020-09-13T07:15:12.000Z</Time>
            <Position>
              <LatitudeDegrees>41.14848531782627105712890625</LatitudeDegrees>
              <LongitudeDegrees>-4.4772044755518436431884765625</LongitudeDegrees>
            </Position>
            <AltitudeMeters>806.79998779296875</AltitudeMeters>
            <DistanceMeters>1207.1558313703</DistanceMeters>
          </Trackpoint>
          <Trackpoint>
            <Time>2020-09-13T07:15:17.000Z</Time>
            <Position>
              <LatitudeDegrees>41.148397140204906463623046875</LatitudeDegrees>
              <LongitudeDegrees>-4.47697841562330722808837890625</LongitudeDegrees>
            </Position>
            <AltitudeMeters>805.4000244140625</AltitudeMeters>
            <DistanceMeters>1228.4930850397</DistanceMeters>
          </Trackpoint>
          <Trackpoint>
            <Time>2020-09-13T07:15:23.000Z</Time>
            <Position>
              <LatitudeDegrees>41.14831021986901760101318359375</LatitudeDegrees>
              <LongitudeDegrees>-4.47671212255954742431640625</LongitudeDegrees>
            </Position>
            <AltitudeMeters>805.4000244140625</AltitudeMeters>
            <DistanceMeters>1252.8178822432</DistanceMeters>
          </Trackpoint>
          <Trackpoint>
            <Time>2020-09-13T07:15:31.000Z</Time>
            <Position>
              <LatitudeDegrees>41.14819295704364776611328125</LatitudeDegrees>
              <LongitudeDegrees>-4.47636972181499004364013671875</LongitudeDegrees>
            </Position>
            <AltitudeMeters>806.4000244140625</AltitudeMeters>
            <DistanceMeters>1284.3435586606</DistanceMeters>
          </Trackpoint>
          <Trackpoint>
            <Time>2020-09-13T07:15:34.000Z</Time>
            <Position>
              <LatitudeDegrees>41.1481300927698612213134765625</LatitudeDegrees>
              <LongitudeDegrees>-4.47624717839062213897705078125</LongitudeDegrees>
            </Position>
            <AltitudeMeters>806.79998779296875</AltitudeMeters>
            <DistanceMeters>1296.7706406731</DistanceMeters>
          </Trackpoint>
          <Trackpoint>
            <Time>2020-09-13T07:15:35.000Z</Time>
            <Position>
              <LatitudeDegrees>41.14811274223029613494873046875</LatitudeDegrees>
              <LongitudeDegrees>-4.47621432133018970489501953125</LongitudeDegrees>
            </Position>
            <AltitudeMeters>806.79998779296875</AltitudeMeters>
            <DistanceMeters>1300.1343716053</DistanceMeters>
          </Trackpoint>
          <Trackpoint>
            <Time>2020-09-13T07:15:40.000Z</Time>
            <Position>
              <LatitudeDegrees>41.14800117909908294677734375</LatitudeDegrees>
              <LongitudeDegrees>-4.47602774016559123992919921875</LongitudeDegrees>
            </Position>
            <AltitudeMeters>807.20001220703125</AltitudeMeters>
            <DistanceMeters>1320.1021956056</DistanceMeters>
          </Trackpoint>
          <Trackpoint>
            <Time>2020-09-13T07:15:43.000Z</Time>
            <Position>
              <LatitudeDegrees>41.1479289270937442779541015625</LatitudeDegrees>
              <LongitudeDegrees>-4.47591793723404407501220703125</LongitudeDegrees>
            </Position>
            <AltitudeMeters>807.4000244140625</AltitudeMeters>
            <DistanceMeters>1332.3233847615</DistanceMeters>
          </Trackpoint>
          <Trackpoint>
            <Time>2020-09-13T07:15:49.000Z</Time>
            <Position>
              <LatitudeDegrees>41.14779724739491939544677734375</LatitudeDegrees>
              <LongitudeDegrees>-4.475714676082134246826171875</LongitudeDegrees>
            </Position>
            <AltitudeMeters>807.79998779296875</AltitudeMeters>
            <DistanceMeters>1354.7959470365</DistanceMeters>
          </Trackpoint>
          <Trackpoint>
            <Time>2020-09-13T07:15:52.000Z</Time>
            <Position>
              <LatitudeDegrees>41.1477237381041049957275390625</LatitudeDegrees>
              <LongitudeDegrees>-4.47559707798063755035400390625</LongitudeDegrees>
            </Position>
            <AltitudeMeters>807.5999755859375</AltitudeMeters>
            <DistanceMeters>1367.6051815564</DistanceMeters>
          </Trackpoint>
          <Trackpoint>
            <Time>2020-09-13T07:15:53.000Z</Time>
            <Position>
              <LatitudeDegrees>41.147705800831317901611328125</LatitudeDegrees>
              <LongitudeDegrees>-4.47556690312922000885009765625</LongitudeDegrees>
            </Position>
            <AltitudeMeters>807.4000244140625</AltitudeMeters>
            <DistanceMeters>1370.8276942268</DistanceMeters>
          </Trackpoint>
          <Trackpoint>
            <Time>2020-09-13T07:15:54.000Z</Time>
            <Position>
              <LatitudeDegrees>41.14767822436988353729248046875</LatitudeDegrees>
              <LongitudeDegrees>-4.47552348487079143524169921875</LongitudeDegrees>
            </Position>
            <AltitudeMeters>807.20001220703125</AltitudeMeters>
            <DistanceMeters>1375.5875746662</DistanceMeters>
          </Trackpoint>
          <Trackpoint>
            <Time>2020-09-13T07:15:56.000Z</Time>
            <Position>
              <LatitudeDegrees>41.1476365663111209869384765625</LatitudeDegrees>
              <LongitudeDegrees>-4.47544880211353302001953125</LongitudeDegrees>
            </Position>
            <AltitudeMeters>806.79998779296875</AltitudeMeters>
            <DistanceMeters>1383.377447175</DistanceMeters>
          </Trackpoint>
          <Trackpoint>
            <Time>2020-09-13T07:15:57.000Z</Time>
            <Position>
              <LatitudeDegrees>41.14761854521930217742919921875</LatitudeDegrees>
              <LongitudeDegrees>-4.47542038746178150177001953125</LongitudeDegrees>
            </Position>
            <AltitudeMeters>806.79998779296875</AltitudeMeters>
            <DistanceMeters>1386.4916568823</DistanceMeters>
          </Trackpoint>
          <Trackpoint>
            <Time>2020-09-13T07:15:59.000Z</Time>
            <Position>
              <LatitudeDegrees>41.1475661583244800567626953125</LatitudeDegrees>
              <LongitudeDegrees>-4.47534310631453990936279296875</LongitudeDegrees>
            </Position>
            <AltitudeMeters>806.4000244140625</AltitudeMeters>
            <DistanceMeters>1395.2072178537</DistanceMeters>
          </Trackpoint>
          <Trackpoint>
            <Time>2020-09-13T07:16:01.000Z</Time>
            <Position>
              <LatitudeDegrees>41.147516705095767974853515625</LatitudeDegrees>
              <LongitudeDegrees>-4.4752695970237255096435546875</LongitudeDegrees>
            </Position>
            <AltitudeMeters>806</AltitudeMeters>
            <DistanceMeters>1403.4685323837</DistanceMeters>
          </Trackpoint>
          <Trackpoint>
            <Time>2020-09-13T07:16:02.000Z</Time>
            <Position>
              <LatitudeDegrees>41.14749683998525142669677734375</LatitudeDegrees>
              <LongitudeDegrees>-4.47523850016295909881591796875</LongitudeDegrees>
            </Position>
            <AltitudeMeters>806</AltitudeMeters>
            <DistanceMeters>1406.8868534509</DistanceMeters>
          </Trackpoint>
          <Trackpoint>
            <Time>2020-09-13T07:16:08.000Z</Time>
            <Position>
              <LatitudeDegrees>41.14734403789043426513671875</LatitudeDegrees>
              <LongitudeDegrees>-4.475012607872486114501953125</LongitudeDegrees>
            </Position>
            <AltitudeMeters>805.5999755859375</AltitudeMeters>
            <DistanceMeters>1432.3364552738</DistanceMeters>
          </Trackpoint>
          <Trackpoint>
            <Time>2020-09-13T07:16:11.000Z</Time>
            <Position>
              <LatitudeDegrees>41.14727539010345935821533203125</LatitudeDegrees>
              <LongitudeDegrees>-4.4749048165977001190185546875</LongitudeDegrees>
            </Position>
            <AltitudeMeters>805.4000244140625</AltitudeMeters>
            <DistanceMeters>1444.1687122515</DistanceMeters>
          </Trackpoint>
          <Trackpoint>
            <Time>2020-09-13T07:16:20.000Z</Time>
            <Position>
              <LatitudeDegrees>41.1470790021121501922607421875</LatitudeDegrees>
              <LongitudeDegrees>-4.47458353824913501739501953125</LongitudeDegrees>
            </Position>
            <AltitudeMeters>805.5999755859375</AltitudeMeters>
            <DistanceMeters>1478.851119793</DistanceMeters>
          </Trackpoint>
          <Trackpoint>
            <Time>2020-09-13T07:16:25.000Z</Time>
            <Position>
              <LatitudeDegrees>41.14698571152985095977783203125</LatitudeDegrees>
              <LongitudeDegrees>-4.47439729236066341400146484375</LongitudeDegrees>
            </Position>
            <AltitudeMeters>805.79998779296875</AltitudeMeters>
            <DistanceMeters>1497.5990982308</DistanceMeters>
          </Trackpoint>
          <Trackpoint>
            <Time>2020-09-13T07:16:27.000Z</Time>
            <Position>
              <LatitudeDegrees>41.14694036543369293212890625</LatitudeDegrees>
              <LongitudeDegrees>-4.47431422770023345947265625</LongitudeDegrees>
            </Position>
            <AltitudeMeters>806</AltitudeMeters>
            <DistanceMeters>1506.1978345288</DistanceMeters>
          </Trackpoint>
          <Trackpoint>
            <Time>2020-09-13T07:16:28.000Z</Time>
            <Position>
              <LatitudeDegrees>41.14691220223903656005859375</LatitudeDegrees>
              <LongitudeDegrees>-4.474285058677196502685546875</LongitudeDegrees>
            </Position>
            <AltitudeMeters>806.20001220703125</AltitudeMeters>
            <DistanceMeters>1510.1730871971</DistanceMeters>
          </Trackpoint>
          <Trackpoint>
            <Time>2020-09-13T07:16:33.000Z</Time>
            <Position>
              <LatitudeDegrees>41.146763674914836883544921875</LatitudeDegrees>
              <LongitudeDegrees>-4.47413125075399875640869140625</LongitudeDegrees>
            </Position>
            <AltitudeMeters>806.5999755859375</AltitudeMeters>
            <DistanceMeters>1531.136548989</DistanceMeters>
          </Trackpoint>
          <Trackpoint>
            <Time>2020-09-13T07:16:40.000Z</Time>
            <Position>
              <LatitudeDegrees>41.1465526185929775238037109375</LatitudeDegrees>
              <LongitudeDegrees>-4.47391533292829990386962890625</LongitudeDegrees>
            </Position>
            <AltitudeMeters>806.79998779296875</AltitudeMeters>
            <DistanceMeters>1560.7899088979</DistanceMeters>
          </Trackpoint>
          <Trackpoint>
            <Time>2020-09-13T07:16:42.000Z</Time>
            <Position>
              <LatitudeDegrees>41.1464842222630977630615234375</LatitudeDegrees>
              <LongitudeDegrees>-4.47384827770292758941650390625</LongitudeDegrees>
            </Position>
            <AltitudeMeters>807</AltitudeMeters>
            <DistanceMeters>1570.2521077936</DistanceMeters>
          </Trackpoint>
          <Trackpoint>
            <Time>2020-09-13T07:16:44.000Z</Time>
            <Position>
              <LatitudeDegrees>41.14641465246677398681640625</LatitudeDegrees>
              <LongitudeDegrees>-4.47377854026854038238525390625</LongitudeDegrees>
            </Position>
            <AltitudeMeters>807</AltitudeMeters>
            <DistanceMeters>1579.9532137459</DistanceMeters>
          </Trackpoint>
          <Trackpoint>
            <Time>2020-09-13T07:16:53.000Z</Time>
            <Position>
              <LatitudeDegrees>41.1461256444454193115234375</LatitudeDegrees>
              <LongitudeDegrees>-4.47347930632531642913818359375</LongitudeDegrees>
            </Position>
            <AltitudeMeters>807.4000244140625</AltitudeMeters>
            <DistanceMeters>1620.7421510249</DistanceMeters>
          </Trackpoint>
          <Trackpoint>
            <Time>2020-09-13T07:17:00.000Z</Time>
            <Position>
              <LatitudeDegrees>41.145897991955280303955078125</LatitudeDegrees>
              <LongitudeDegrees>-4.47324511595070362091064453125</LongitudeDegrees>
            </Position>
            <AltitudeMeters>807.5999755859375</AltitudeMeters>
            <DistanceMeters>1652.7936348684</DistanceMeters>
          </Trackpoint>
          <Trackpoint>
            <Time>2020-09-13T07:17:06.000Z</Time>
            <Position>
              <LatitudeDegrees>41.1456902883946895599365234375</LatitudeDegrees>
              <LongitudeDegrees>-4.4730373285710811614990234375</LongitudeDegrees>
            </Position>
            <AltitudeMeters>807.20001220703125</AltitudeMeters>
            <DistanceMeters>1681.7373431978</DistanceMeters>
          </Trackpoint>
          <Trackpoint>
            <Time>2020-09-13T07:17:17.000Z</Time>
            <Position>
              <LatitudeDegrees>41.14533984102308750152587890625</LatitudeDegrees>
              <LongitudeDegrees>-4.47267598472535610198974609375</LongitudeDegrees>
            </Position>
            <AltitudeMeters>807.20001220703125</AltitudeMeters>
            <DistanceMeters>1731.120341331</DistanceMeters>
          </Trackpoint>
          <Trackpoint>
            <Time>2020-09-13T07:17:18.000Z</Time>
            <Position>
              <LatitudeDegrees>41.145311929285526275634765625</LatitudeDegrees>
              <LongitudeDegrees>-4.4726500846445560455322265625</LongitudeDegrees>
            </Position>
            <AltitudeMeters>807.20001220703125</AltitudeMeters>
            <DistanceMeters>1734.9118953262</DistanceMeters>
          </Trackpoint>
          <Trackpoint>
            <Time>2020-09-13T07:17:21.000Z</Time>
            <Position>
              <LatitudeDegrees>41.1452145315706729888916015625</LatitudeDegrees>
              <LongitudeDegrees>-4.472556374967098236083984375</LongitudeDegrees>
            </Position>
            <AltitudeMeters>807.4000244140625</AltitudeMeters>
            <DistanceMeters>1748.2992000282</DistanceMeters>
          </Trackpoint>
          <Trackpoint>
            <Time>2020-09-13T07:17:22.000Z</Time>
            <Position>
              <LatitudeDegrees>41.14518159069120883941650390625</LatitudeDegrees>
              <LongitudeDegrees>-4.47252376936376094818115234375</LongitudeDegrees>
            </Position>
            <AltitudeMeters>807.4000244140625</AltitudeMeters>
            <DistanceMeters>1752.8723452308</DistanceMeters>
          </Trackpoint>
          <Trackpoint>
            <Time>2020-09-13T07:17:23.000Z</Time>
            <Position>
              <LatitudeDegrees>41.14514864981174468994140625</LatitudeDegrees>
              <LongitudeDegrees>-4.47249191813170909881591796875</LongitudeDegrees>
            </Position>
            <AltitudeMeters>807.4000244140625</AltitudeMeters>
            <DistanceMeters>1757.4078180991</DistanceMeters>
          </Trackpoint>
          <Trackpoint>
            <Time>2020-09-13T07:17:24.000Z</Time>
            <Position>
              <LatitudeDegrees>41.14511688239872455596923828125</LatitudeDegrees>
              <LongitudeDegrees>-4.47245813906192779541015625</LongitudeDegrees>
            </Position>
            <AltitudeMeters>807.4000244140625</AltitudeMeters>
            <DistanceMeters>1761.9373140623</DistanceMeters>
          </Trackpoint>
          <Trackpoint>
            <Time>2020-09-13T07:17:30.000Z</Time>
            <Position>
              <LatitudeDegrees>41.1449221707880496978759765625</LatitudeDegrees>
              <LongitudeDegrees>-4.472261331975460052490234375</LongitudeDegrees>
            </Position>
            <AltitudeMeters>807.5999755859375</AltitudeMeters>
            <DistanceMeters>1789.1727064666</DistanceMeters>
          </Trackpoint>
          <Trackpoint>
            <Time>2020-09-13T07:17:33.000Z</Time>
            <Position>
              <LatitudeDegrees>41.144831143319606781005859375</LatitudeDegrees>
              <LongitudeDegrees>-4.47216250933706760406494140625</LongitudeDegrees>
            </Position>
            <AltitudeMeters>807.79998779296875</AltitudeMeters>
            <DistanceMeters>1802.2591651075</DistanceMeters>
          </Trackpoint>
          <Trackpoint>
            <Time>2020-09-13T07:17:34.000Z</Time>
            <Position>
              <LatitudeDegrees>41.14479996263980865478515625</LatitudeDegrees>
              <LongitudeDegrees>-4.47212948463857173919677734375</LongitudeDegrees>
            </Position>
            <AltitudeMeters>807.79998779296875</AltitudeMeters>
            <DistanceMeters>1806.6980418574</DistanceMeters>
          </Trackpoint>
          <Trackpoint>
            <Time>2020-09-13T07:17:35.000Z</Time>
            <Position>
              <LatitudeDegrees>41.1447615735232830047607421875</LatitudeDegrees>
              <LongitudeDegrees>-4.4720905087888240814208984375</LongitudeDegrees>
            </Position>
            <AltitudeMeters>808</AltitudeMeters>
            <DistanceMeters>1812.0769232398</DistanceMeters>
          </Trackpoint>
          <Trackpoint>
            <Time>2020-09-13T07:17:36.000Z</Time>
            <Position>
              <LatitudeDegrees>41.14472812972962856292724609375</LatitudeDegrees>
              <LongitudeDegrees>-4.47205907665193080902099609375</LongitudeDegrees>
            </Position>
            <AltitudeMeters>808</AltitudeMeters>
            <DistanceMeters>1816.6362253765</DistanceMeters>
          </Trackpoint>
          <Trackpoint>
            <Time>2020-09-13T07:17:37.000Z</Time>
            <Position>
              <LatitudeDegrees>41.1446941830217838287353515625</LatitudeDegrees>
              <LongitudeDegrees>-4.47202739305794239044189453125</LongitudeDegrees>
            </Position>
            <AltitudeMeters>808</AltitudeMeters>
            <DistanceMeters>1821.2545628004</DistanceMeters>
          </Trackpoint>
          <Trackpoint>
            <Time>2020-09-13T07:17:38.000Z</Time>
            <Position>
              <LatitudeDegrees>41.14466191269457340240478515625</LatitudeDegrees>
              <LongitudeDegrees>-4.4719932787120342254638671875</LongitudeDegrees>
            </Position>
            <AltitudeMeters>808.20001220703125</AltitudeMeters>
            <DistanceMeters>1825.8464282706</DistanceMeters>
          </Trackpoint>
          <Trackpoint>
            <Time>2020-09-13T07:17:41.000Z</Time>
            <Position>
              <LatitudeDegrees>41.14456401206552982330322265625</LatitudeDegrees>
              <LongitudeDegrees>-4.4718873314559459686279296875</LongitudeDegrees>
            </Position>
            <AltitudeMeters>808.20001220703125</AltitudeMeters>
            <DistanceMeters>1839.9033174267</DistanceMeters>
          </Trackpoint>
          <Trackpoint>
            <Time>2020-09-13T07:17:53.000Z</Time>
            <Position>
              <LatitudeDegrees>41.14417710341513156890869140625</LatitudeDegrees>
              <LongitudeDegrees>-4.47150100953876972198486328125</LongitudeDegrees>
            </Position>
            <AltitudeMeters>808</AltitudeMeters>
            <DistanceMeters>1893.7823750921</DistanceMeters>
          </Trackpoint>
          <Trackpoint>
            <Time>2020-09-13T07:18:00.000Z</Time>
            <Position>
              <LatitudeDegrees>41.143937297165393829345703125</LatitudeDegrees>
              <LongitudeDegrees>-4.47124519385397434234619140625</LongitudeDegrees>
            </Position>
            <AltitudeMeters>807.20001220703125</AltitudeMeters>
            <DistanceMeters>1928.0191696688</DistanceMeters>
          </Trackpoint>
          <Trackpoint>
            <Time>2020-09-13T07:18:04.000Z</Time>
            <Position>
              <LatitudeDegrees>41.1438026838004589080810546875</LatitudeDegrees>
              <LongitudeDegrees>-4.47111544199287891387939453125</LongitudeDegrees>
            </Position>
            <AltitudeMeters>807.5999755859375</AltitudeMeters>
            <DistanceMeters>1946.5330466712</DistanceMeters>
          </Trackpoint>
          <Trackpoint>
            <Time>2020-09-13T07:18:08.000Z</Time>
            <Position>
              <LatitudeDegrees>41.143664382398128509521484375</LatitudeDegrees>
              <LongitudeDegrees>-4.47097479365766048431396484375</LongitudeDegrees>
            </Position>
            <AltitudeMeters>808.20001220703125</AltitudeMeters>
            <DistanceMeters>1965.9217568491</DistanceMeters>
          </Trackpoint>
          <Trackpoint>
            <Time>2020-09-13T07:18:11.000Z</Time>
            <Position>
              <LatitudeDegrees>41.14356891252100467681884765625</LatitudeDegrees>
              <LongitudeDegrees>-4.470874629914760589599609375</LongitudeDegrees>
            </Position>
            <AltitudeMeters>808.4000244140625</AltitudeMeters>
            <DistanceMeters>1979.4643139406</DistanceMeters>
          </Trackpoint>
          <Trackpoint>
            <Time>2020-09-13T07:18:14.000Z</Time>
            <Position>
              <LatitudeDegrees>41.1434613727033138275146484375</LatitudeDegrees>
              <LongitudeDegrees>-4.47076507844030857086181640625</LongitudeDegrees>
            </Position>
            <AltitudeMeters>808.79998779296875</AltitudeMeters>
            <DistanceMeters>1994.5499357886</DistanceMeters>
          </Trackpoint>
          <Trackpoint>
            <Time>2020-09-13T07:18:27.000Z</Time>
            <Position>
              <LatitudeDegrees>41.14302224479615688323974609375</LatitudeDegrees>
              <LongitudeDegrees>-4.47032234631478786468505859375</LongitudeDegrees>
            </Position>
            <AltitudeMeters>810.20001220703125</AltitudeMeters>
            <DistanceMeters>2055.9168900899</DistanceMeters>
          </Trackpoint>
          <Trackpoint>
            <Time>2020-09-13T07:18:28.000Z</Time>
            <Position>
              <LatitudeDegrees>41.14298871718347072601318359375</LatitudeDegrees>
              <LongitudeDegrees>-4.47028932161629199981689453125</LongitudeDegrees>
            </Position>
            <AltitudeMeters>810.20001220703125</AltitudeMeters>
            <DistanceMeters>2060.5625205854</DistanceMeters>
          </Trackpoint>
          <Trackpoint>
            <Time>2020-09-13T07:18:37.000Z</Time>
            <Position>
              <LatitudeDegrees>41.14268998615443706512451171875</LatitudeDegrees>
              <LongitudeDegrees>-4.4699816219508647918701171875</LongitudeDegrees>
            </Position>
            <AltitudeMeters>810.5999755859375</AltitudeMeters>
            <DistanceMeters>2102.6420836743</DistanceMeters>
          </Trackpoint>
          <Trackpoint>
            <Time>2020-09-13T07:18:41.000Z</Time>
            <Position>
              <LatitudeDegrees>41.1425393633544445037841796875</LatitudeDegrees>
              <LongitudeDegrees>-4.46982932277023792266845703125</LongitudeDegrees>
            </Position>
            <AltitudeMeters>809.79998779296875</AltitudeMeters>
            <DistanceMeters>2123.7136013878</DistanceMeters>
          </Trackpoint>
          <Trackpoint>
            <Time>2020-09-13T07:18:54.000Z</Time>
            <Position>
              <LatitudeDegrees>41.1420942842960357666015625</LatitudeDegrees>
              <LongitudeDegrees>-4.469373933970928192138671875</LongitudeDegrees>
            </Position>
            <AltitudeMeters>808.4000244140625</AltitudeMeters>
            <DistanceMeters>2186.251576639</DistanceMeters>
          </Trackpoint>
          <Trackpoint>
            <Time>2020-09-13T07:18:56.000Z</Time>
            <Position>
              <LatitudeDegrees>41.1420394666492938995361328125</LatitudeDegrees>
              <LongitudeDegrees>-4.46931165643036365509033203125</LongitudeDegrees>
            </Position>
            <AltitudeMeters>808.5999755859375</AltitudeMeters>
            <DistanceMeters>2194.2811934299</DistanceMeters>
          </Trackpoint>
          <Trackpoint>
            <Time>2020-09-13T07:19:02.000Z</Time>
            <Position>
              <LatitudeDegrees>41.14183570258319377899169921875</LatitudeDegrees>
              <LongitudeDegrees>-4.46910529397428035736083984375</LongitudeDegrees>
            </Position>
            <AltitudeMeters>809</AltitudeMeters>
            <DistanceMeters>2222.8039330786</DistanceMeters>
          </Trackpoint>
          <Trackpoint>
            <Time>2020-09-13T07:19:07.000Z</Time>
            <Position>
              <LatitudeDegrees>41.1416758596897125244140625</LatitudeDegrees>
              <LongitudeDegrees>-4.46894042193889617919921875</LongitudeDegrees>
            </Position>
            <AltitudeMeters>808.5999755859375</AltitudeMeters>
            <DistanceMeters>2245.3314783544</DistanceMeters>
          </Trackpoint>
          <Trackpoint>
            <Time>2020-09-13T07:19:11.000Z</Time>
            <Position>
              <LatitudeDegrees>41.14154702983796596527099609375</LatitudeDegrees>
              <LongitudeDegrees>-4.46880723349750041961669921875</LongitudeDegrees>
            </Position>
            <AltitudeMeters>808.4000244140625</AltitudeMeters>
            <DistanceMeters>2263.5042039537</DistanceMeters>
          </Trackpoint>
          <Trackpoint>
            <Time>2020-09-13T07:19:12.000Z</Time>
            <Position>
              <LatitudeDegrees>41.141515262424945831298828125</LatitudeDegrees>
              <LongitudeDegrees>-4.4687732867896556854248046875</LongitudeDegrees>
            </Position>
            <AltitudeMeters>808.20001220703125</AltitudeMeters>
            <DistanceMeters>2268.0436570535</DistanceMeters>
          </Trackpoint>
          <Trackpoint>
            <Time>2020-09-13T07:19:14.000Z</Time>
            <Position>
              <LatitudeDegrees>41.1414478719234466552734375</LatitudeDegrees>
              <LongitudeDegrees>-4.46870598010718822479248046875</LongitudeDegrees>
            </Position>
            <AltitudeMeters>808</AltitudeMeters>
            <DistanceMeters>2277.4296799486</DistanceMeters>
          </Trackpoint>
          <Trackpoint>
            <Time>2020-09-13T07:19:16.000Z</Time>
            <Position>
              <LatitudeDegrees>41.1413809843361377716064453125</LatitudeDegrees>
              <LongitudeDegrees>-4.4686395116150379180908203125</LongitudeDegrees>
            </Position>
            <AltitudeMeters>808.20001220703125</AltitudeMeters>
            <DistanceMeters>2286.7282272518</DistanceMeters>
          </Trackpoint>
          <Trackpoint>
            <Time>2020-09-13T07:19:23.000Z</Time>
            <Position>
              <LatitudeDegrees>41.14115777425467967987060546875</LatitudeDegrees>
              <LongitudeDegrees>-4.468405656516551971435546875</LongitudeDegrees>
            </Position>
            <AltitudeMeters>809</AltitudeMeters>
            <DistanceMeters>2318.3738352838</DistanceMeters>
          </Trackpoint>
          <Trackpoint>
            <Time>2020-09-13T07:19:24.000Z</Time>
            <Position>
              <LatitudeDegrees>41.14112474955618381500244140625</LatitudeDegrees>
              <LongitudeDegrees>-4.46837204508483409881591796875</LongitudeDegrees>
            </Position>
            <AltitudeMeters>809.20001220703125</AltitudeMeters>
            <DistanceMeters>2323.0058393458</DistanceMeters>
          </Trackpoint>
          <Trackpoint>
            <Time>2020-09-13T07:19:26.000Z</Time>
            <Position>
              <LatitudeDegrees>41.14106188528239727020263671875</LatitudeDegrees>
              <LongitudeDegrees>-4.4683059118688106536865234375</LongitudeDegrees>
            </Position>
            <AltitudeMeters>809.4000244140625</AltitudeMeters>
            <DistanceMeters>2331.9327886914</DistanceMeters>
          </Trackpoint>
          <Trackpoint>
            <Time>2020-09-13T07:19:28.000Z</Time>
            <Position>
              <LatitudeDegrees>41.14099524915218353271484375</LatitudeDegrees>
              <LongitudeDegrees>-4.468239359557628631591796875</LongitudeDegrees>
            </Position>
            <AltitudeMeters>809.5999755859375</AltitudeMeters>
            <DistanceMeters>2341.2133527433</DistanceMeters>
          </Trackpoint>
          <Trackpoint>
            <Time>2020-09-13T07:19:29.000Z</Time>
            <Position>
              <LatitudeDegrees>41.1409622244536876678466796875</LatitudeDegrees>
              <LongitudeDegrees>-4.468206502497196197509765625</LongitudeDegrees>
            </Position>
            <AltitudeMeters>809.5999755859375</AltitudeMeters>
            <DistanceMeters>2345.8062013772</DistanceMeters>
          </Trackpoint>
          <Trackpoint>
            <Time>2020-09-13T07:19:30.000Z</Time>
            <Position>
              <LatitudeDegrees>41.14092685282230377197265625</LatitudeDegrees>
              <LongitudeDegrees>-4.46817389689385890960693359375</LongitudeDegrees>
            </Position>
            <AltitudeMeters>809.79998779296875</AltitudeMeters>
            <DistanceMeters>2350.5982243734</DistanceMeters>
          </Trackpoint>
          <Trackpoint>
            <Time>2020-09-13T07:19:32.000Z</Time>
            <Position>
              <LatitudeDegrees>41.14085569046437740325927734375</LatitudeDegrees>
              <LongitudeDegrees>-4.468109272420406341552734375</LongitudeDegrees>
            </Position>
            <AltitudeMeters>810</AltitudeMeters>
            <DistanceMeters>2360.1935700901</DistanceMeters>
          </Trackpoint>
          <Trackpoint>
            <Time>2020-09-13T07:19:33.000Z</Time>
            <Position>
              <LatitudeDegrees>41.14082149229943752288818359375</LatitudeDegrees>
              <LongitudeDegrees>-4.4680765829980373382568359375</LongitudeDegrees>
            </Position>
            <AltitudeMeters>810.20001220703125</AltitudeMeters>
            <DistanceMeters>2364.8836944187</DistanceMeters>
          </Trackpoint>
          <Trackpoint>
            <Time>2020-09-13T07:19:35.000Z</Time>
            <Position>
              <LatitudeDegrees>41.14075510762631893157958984375</LatitudeDegrees>
              <LongitudeDegrees>-4.46800759993493556976318359375</LongitudeDegrees>
            </Position>
            <AltitudeMeters>810.4000244140625</AltitudeMeters>
            <DistanceMeters>2374.2653869685</DistanceMeters>
          </Trackpoint>
          <Trackpoint>
            <Time>2020-09-13T07:19:36.000Z</Time>
            <Position>
              <LatitudeDegrees>41.14071453921496868133544921875</LatitudeDegrees>
              <LongitudeDegrees>-4.46796636097133159637451171875</LongitudeDegrees>
            </Position>
            <AltitudeMeters>810.5999755859375</AltitudeMeters>
            <DistanceMeters>2379.9511299867</DistanceMeters>
          </Trackpoint>
          <Trackpoint>
            <Time>2020-09-13T07:19:37.000Z</Time>
            <Position>
              <LatitudeDegrees>41.14068034105002880096435546875</LatitudeDegrees>
              <LongitudeDegrees>-4.467931576073169708251953125</LongitudeDegrees>
            </Position>
            <AltitudeMeters>810.5999755859375</AltitudeMeters>
            <DistanceMeters>2384.7459787462</DistanceMeters>
          </Trackpoint>
          <Trackpoint>
            <Time>2020-09-13T07:19:38.000Z</Time>
            <Position>
              <LatitudeDegrees>41.1406437121331691741943359375</LatitudeDegrees>
              <LongitudeDegrees>-4.4678975455462932586669921875</LongitudeDegrees>
            </Position>
            <AltitudeMeters>810.79998779296875</AltitudeMeters>
            <DistanceMeters>2389.7219680558</DistanceMeters>
          </Trackpoint>
          <Trackpoint>
            <Time>2020-09-13T07:19:41.000Z</Time>
            <Position>
              <LatitudeDegrees>41.14055193029344081878662109375</LatitudeDegrees>
              <LongitudeDegrees>-4.46779922582209110260009765625</LongitudeDegrees>
            </Position>
            <AltitudeMeters>811</AltitudeMeters>
            <DistanceMeters>2402.8476995964</DistanceMeters>
          </Trackpoint>
          <Trackpoint>
            <Time>2020-09-13T07:19:43.000Z</Time>
            <Position>
              <LatitudeDegrees>41.14047498442232608795166015625</LatitudeDegrees>
              <LongitudeDegrees>-4.46772881783545017242431640625</LongitudeDegrees>
            </Position>
            <AltitudeMeters>811</AltitudeMeters>
            <DistanceMeters>2413.2486762716</DistanceMeters>
          </Trackpoint>
          <Trackpoint>
            <Time>2020-09-13T07:19:44.000Z</Time>
            <Position>
              <LatitudeDegrees>41.14044128917157649993896484375</LatitudeDegrees>
              <LongitudeDegrees>-4.46769361384212970733642578125</LongitudeDegrees>
            </Position>
            <AltitudeMeters>811</AltitudeMeters>
            <DistanceMeters>2418.0208720756</DistanceMeters>
          </Trackpoint>
          <Trackpoint>
            <Time>2020-09-13T07:19:47.000Z</Time>
            <Position>
              <LatitudeDegrees>41.14034087397158145904541015625</LatitudeDegrees>
              <LongitudeDegrees>-4.467586912214756011962890625</LongitudeDegrees>
            </Position>
            <AltitudeMeters>811</AltitudeMeters>
            <DistanceMeters>2432.3355671358</DistanceMeters>
          </Trackpoint>
          <Trackpoint>
            <Time>2020-09-13T07:19:48.000Z</Time>
            <Position>
              <LatitudeDegrees>41.14030659198760986328125</LatitudeDegrees>
              <LongitudeDegrees>-4.467553384602069854736328125</LongitudeDegrees>
            </Position>
            <AltitudeMeters>811</AltitudeMeters>
            <DistanceMeters>2437.0754859318</DistanceMeters>
          </Trackpoint>
          <Trackpoint>
            <Time>2020-09-13T07:19:49.000Z</Time>
            <Position>
              <LatitudeDegrees>41.1402799375355243682861328125</LatitudeDegrees>
              <LongitudeDegrees>-4.4675253890454769134521484375</LongitudeDegrees>
            </Position>
            <AltitudeMeters>811</AltitudeMeters>
            <DistanceMeters>2440.8575014113</DistanceMeters>
          </Trackpoint>
          <Trackpoint>
            <Time>2020-09-13T07:19:51.000Z</Time>
            <Position>
              <LatitudeDegrees>41.14020424894988536834716796875</LatitudeDegrees>
              <LongitudeDegrees>-4.46744768880307674407958984375</LongitudeDegrees>
            </Position>
            <AltitudeMeters>811</AltitudeMeters>
            <DistanceMeters>2451.5055829206</DistanceMeters>
          </Trackpoint>
          <Trackpoint>
            <Time>2020-09-13T07:19:54.000Z</Time>
            <Position>
              <LatitudeDegrees>41.14009779877960681915283203125</LatitudeDegrees>
              <LongitudeDegrees>-4.46734316647052764892578125</LongitudeDegrees>
            </Position>
            <AltitudeMeters>811</AltitudeMeters>
            <DistanceMeters>2466.2411595355</DistanceMeters>
          </Trackpoint>
          <Trackpoint>
            <Time>2020-09-13T07:20:02.000Z</Time>
            <Position>
              <LatitudeDegrees>41.1398279853165149688720703125</LatitudeDegrees>
              <LongitudeDegrees>-4.46707318536937236785888671875</LongitudeDegrees>
            </Position>
            <AltitudeMeters>811</AltitudeMeters>
            <DistanceMeters>2503.8440120866</DistanceMeters>
          </Trackpoint>
          <Trackpoint>
            <Time>2020-09-13T07:20:03.000Z</Time>
            <Position>
              <LatitudeDegrees>41.13980091176927089691162109375</LatitudeDegrees>
              <LongitudeDegrees>-4.46704544126987457275390625</LongitudeDegrees>
            </Position>
            <AltitudeMeters>811</AltitudeMeters>
            <DistanceMeters>2507.6510151983</DistanceMeters>
          </Trackpoint>
          <Trackpoint>
            <Time>2020-09-13T07:20:07.000Z</Time>
            <Position>
              <LatitudeDegrees>41.13966193981468677520751953125</LatitudeDegrees>
              <LongitudeDegrees>-4.46691334247589111328125</LongitudeDegrees>
            </Position>
            <AltitudeMeters>811.20001220703125</AltitudeMeters>
            <DistanceMeters>2526.6736925424</DistanceMeters>
          </Trackpoint>
          <Trackpoint>
            <Time>2020-09-13T07:20:10.000Z</Time>
            <Position>
              <LatitudeDegrees>41.13955498673021793365478515625</LatitudeDegrees>
              <LongitudeDegrees>-4.46680814959108829498291015625</LongitudeDegrees>
            </Position>
            <AltitudeMeters>811.20001220703125</AltitudeMeters>
            <DistanceMeters>2541.4875008894</DistanceMeters>
          </Trackpoint>
          <Trackpoint>
            <Time>2020-09-13T07:20:12.000Z</Time>
            <Position>
              <LatitudeDegrees>41.13949078135192394256591796875</LatitudeDegrees>
              <LongitudeDegrees>-4.4667368195950984954833984375</LongitudeDegrees>
            </Position>
            <AltitudeMeters>811.4000244140625</AltitudeMeters>
            <DistanceMeters>2550.804965938</DistanceMeters>
          </Trackpoint>
          <Trackpoint>
            <Time>2020-09-13T07:20:15.000Z</Time>
            <Position>
              <LatitudeDegrees>41.1393921263515949249267578125</LatitudeDegrees>
              <LongitudeDegrees>-4.46663632057607173919677734375</LongitudeDegrees>
            </Position>
            <AltitudeMeters>811.4000244140625</AltitudeMeters>
            <DistanceMeters>2564.644653487</DistanceMeters>
          </Trackpoint>
          <Trackpoint>
            <Time>2020-09-13T07:20:19.000Z</Time>
            <Position>
              <LatitudeDegrees>41.1392606981098651885986328125</LatitudeDegrees>
              <LongitudeDegrees>-4.46649902500212192535400390625</LongitudeDegrees>
            </Position>
            <AltitudeMeters>811.5999755859375</AltitudeMeters>
            <DistanceMeters>2583.2572796503</DistanceMeters>
          </Trackpoint>
          <Trackpoint>
            <Time>2020-09-13T07:20:20.000Z</Time>
            <Position>
              <LatitudeDegrees>41.1392325349152088165283203125</LatitudeDegrees>
              <LongitudeDegrees>-4.46647153235971927642822265625</LongitudeDegrees>
            </Position>
            <AltitudeMeters>811.5999755859375</AltitudeMeters>
            <DistanceMeters>2587.1487367292</DistanceMeters>
          </Trackpoint>
          <Trackpoint>
            <Time>2020-09-13T07:20:33.000Z</Time>
            <Position>
              <LatitudeDegrees>41.13879776559770107269287109375</LatitudeDegrees>
              <LongitudeDegrees>-4.4660283811390399932861328125</LongitudeDegrees>
            </Position>
            <AltitudeMeters>813</AltitudeMeters>
            <DistanceMeters>2648.1530009612</DistanceMeters>
          </Trackpoint>
          <Trackpoint>
            <Time>2020-09-13T07:20:35.000Z</Time>
            <Position>
              <LatitudeDegrees>41.1387403495609760284423828125</LatitudeDegrees>
              <LongitudeDegrees>-4.4659687019884586334228515625</LongitudeDegrees>
            </Position>
            <AltitudeMeters>813.4000244140625</AltitudeMeters>
            <DistanceMeters>2656.2681933499</DistanceMeters>
          </Trackpoint>
          <Trackpoint>
            <Time>2020-09-13T07:20:47.000Z</Time>
            <Position>
              <LatitudeDegrees>41.13834547810256481170654296875</LatitudeDegrees>
              <LongitudeDegrees>-4.46556226350367069244384765625</LongitudeDegrees>
            </Position>
            <AltitudeMeters>815.79998779296875</AltitudeMeters>
            <DistanceMeters>2711.8767678501</DistanceMeters>
          </Trackpoint>
          <Trackpoint>
            <Time>2020-09-13T07:20:52.000Z</Time>
            <Position>
              <LatitudeDegrees>41.13819502294063568115234375</LatitudeDegrees>
              <LongitudeDegrees>-4.46540049277245998382568359375</LongitudeDegrees>
            </Position>
            <AltitudeMeters>816.5999755859375</AltitudeMeters>
            <DistanceMeters>2733.424586083</DistanceMeters>
          </Trackpoint>
          <Trackpoint>
            <Time>2020-09-13T07:21:06.000Z</Time>
            <Position>
              <LatitudeDegrees>41.13774315454065799713134765625</LatitudeDegrees>
              <LongitudeDegrees>-4.4649337045848369598388671875</LongitudeDegrees>
            </Position>
            <AltitudeMeters>819</AltitudeMeters>
            <DistanceMeters>2797.1466410885</DistanceMeters>
          </Trackpoint>
          <Trackpoint>
            <Time>2020-09-13T07:21:08.000Z</Time>
            <Position>
              <LatitudeDegrees>41.1376698128879070281982421875</LatitudeDegrees>
              <LongitudeDegrees>-4.46486438624560832977294921875</LongitudeDegrees>
            </Position>
            <AltitudeMeters>819</AltitudeMeters>
            <DistanceMeters>2807.1664409819</DistanceMeters>
          </Trackpoint>
          <Trackpoint>
            <Time>2020-09-13T07:21:19.000Z</Time>
            <Position>
              <LatitudeDegrees>41.1373137496411800384521484375</LatitudeDegrees>
              <LongitudeDegrees>-4.4645018689334392547607421875</LongitudeDegrees>
            </Position>
            <AltitudeMeters>818.20001220703125</AltitudeMeters>
            <DistanceMeters>2857.1065732712</DistanceMeters>
          </Trackpoint>
          <Trackpoint>
            <Time>2020-09-13T07:21:23.000Z</Time>
            <Position>
              <LatitudeDegrees>41.13717217929661273956298828125</LatitudeDegrees>
              <LongitudeDegrees>-4.46435929276049137115478515625</LongitudeDegrees>
            </Position>
            <AltitudeMeters>818.4000244140625</AltitudeMeters>
            <DistanceMeters>2876.8835480422</DistanceMeters>
          </Trackpoint>
          <Trackpoint>
            <Time>2020-09-13T07:21:33.000Z</Time>
            <Position>
              <LatitudeDegrees>41.1368326283991336822509765625</LatitudeDegrees>
              <LongitudeDegrees>-4.46402368135750293731689453125</LongitudeDegrees>
            </Position>
            <AltitudeMeters>819.5999755859375</AltitudeMeters>
            <DistanceMeters>2923.9976358627</DistanceMeters>
          </Trackpoint>
          <Trackpoint>
            <Time>2020-09-13T07:21:46.000Z</Time>
            <Position>
              <LatitudeDegrees>41.13639534451067447662353515625</LatitudeDegrees>
              <LongitudeDegrees>-4.46357055567204952239990234375</LongitudeDegrees>
            </Position>
            <AltitudeMeters>820.4000244140625</AltitudeMeters>
            <DistanceMeters>2985.7356811585</DistanceMeters>
          </Trackpoint>
          <Trackpoint>
            <Time>2020-09-13T07:21:47.000Z</Time>
            <Position>
              <LatitudeDegrees>41.13636097870767116546630859375</LatitudeDegrees>
              <LongitudeDegrees>-4.463534764945507049560546875</LongitudeDegrees>
            </Position>
            <AltitudeMeters>820.4000244140625</AltitudeMeters>
            <DistanceMeters>2990.5969268891</DistanceMeters>
          </Trackpoint>
          <Trackpoint>
            <Time>2020-09-13T07:21:59.000Z</Time>
            <Position>
              <LatitudeDegrees>41.135953031480312347412109375</LatitudeDegrees>
              <LongitudeDegrees>-4.4631329365074634552001953125</LongitudeDegrees>
            </Position>
            <AltitudeMeters>821.5999755859375</AltitudeMeters>
            <DistanceMeters>3047.1323117186</DistanceMeters>
          </Trackpoint>
          <Trackpoint>
            <Time>2020-09-13T07:22:03.000Z</Time>
            <Position>
              <LatitudeDegrees>41.13581590354442596435546875</LatitudeDegrees>
              <LongitudeDegrees>-4.462996982038021087646484375</LongitudeDegrees>
            </Position>
            <AltitudeMeters>821.79998779296875</AltitudeMeters>
            <DistanceMeters>3066.1803686148</DistanceMeters>
          </Trackpoint>
          <Trackpoint>
            <Time>2020-09-13T07:22:08.000Z</Time>
            <Position>
              <LatitudeDegrees>41.13565455190837383270263671875</LatitudeDegrees>
              <LongitudeDegrees>-4.46282523684203624725341796875</LongitudeDegrees>
            </Position>
            <AltitudeMeters>822</AltitudeMeters>
            <DistanceMeters>3089.1974395598</DistanceMeters>
          </Trackpoint>
          <Trackpoint>
            <Time>2020-09-13T07:22:14.000Z</Time>
            <Position>
              <LatitudeDegrees>41.13545137457549571990966796875</LatitudeDegrees>
              <LongitudeDegrees>-4.462615437805652618408203125</LongitudeDegrees>
            </Position>
            <AltitudeMeters>822.5999755859375</AltitudeMeters>
            <DistanceMeters>3117.8451177822</DistanceMeters>
          </Trackpoint>
          <Trackpoint>
            <Time>2020-09-13T07:22:17.000Z</Time>
            <Position>
              <LatitudeDegrees>41.13534559495747089385986328125</LatitudeDegrees>
              <LongitudeDegrees>-4.4625086523592472076416015625</LongitudeDegrees>
            </Position>
            <AltitudeMeters>823</AltitudeMeters>
            <DistanceMeters>3132.6351337315</DistanceMeters>
          </Trackpoint>
          <Trackpoint>
            <Time>2020-09-13T07:22:26.000Z</Time>
            <Position>
              <LatitudeDegrees>41.135033704340457916259765625</LatitudeDegrees>
              <LongitudeDegrees>-4.46219894103705883026123046875</LongitudeDegrees>
            </Position>
            <AltitudeMeters>823.79998779296875</AltitudeMeters>
            <DistanceMeters>3175.9838794759</DistanceMeters>
          </Trackpoint>
          <Trackpoint>
            <Time>2020-09-13T07:22:30.000Z</Time>
            <Position>
              <LatitudeDegrees>41.13489724695682525634765625</LatitudeDegrees>
              <LongitudeDegrees>-4.4620580412447452545166015625</LongitudeDegrees>
            </Position>
            <AltitudeMeters>824</AltitudeMeters>
            <DistanceMeters>3195.2239146563</DistanceMeters>
          </Trackpoint>
          <Trackpoint>
            <Time>2020-09-13T07:22:32.000Z</Time>
            <Position>
              <LatitudeDegrees>41.13482625223696231842041015625</LatitudeDegrees>
              <LongitudeDegrees>-4.46198788471519947052001953125</LongitudeDegrees>
            </Position>
            <AltitudeMeters>824</AltitudeMeters>
            <DistanceMeters>3205.0742025399</DistanceMeters>
          </Trackpoint>
          <Trackpoint>
            <Time>2020-09-13T07:22:36.000Z</Time>
            <Position>
              <LatitudeDegrees>41.13469281233847141265869140625</LatitudeDegrees>
              <LongitudeDegrees>-4.46184824220836162567138671875</LongitudeDegrees>
            </Position>
            <AltitudeMeters>823.5999755859375</AltitudeMeters>
            <DistanceMeters>3223.9847574586</DistanceMeters>
          </Trackpoint>
          <Trackpoint>
            <Time>2020-09-13T07:22:42.000Z</Time>
            <Position>
              <LatitudeDegrees>41.13448628224432468414306640625</LatitudeDegrees>
              <LongitudeDegrees>-4.4616399519145488739013671875</LongitudeDegrees>
            </Position>
            <AltitudeMeters>822.79998779296875</AltitudeMeters>
            <DistanceMeters>3252.8516148257</DistanceMeters>
          </Trackpoint>
          <Trackpoint>
            <Time>2020-09-13T07:22:43.000Z</Time>
            <Position>
              <LatitudeDegrees>41.134452335536479949951171875</LatitudeDegrees>
              <LongitudeDegrees>-4.461603574454784393310546875</LongitudeDegrees>
            </Position>
            <AltitudeMeters>822.79998779296875</AltitudeMeters>
            <DistanceMeters>3257.7082144253</DistanceMeters>
          </Trackpoint>
          <Trackpoint>
            <Time>2020-09-13T07:22:55.000Z</Time>
            <Position>
              <LatitudeDegrees>41.13404405303299427032470703125</LatitudeDegrees>
              <LongitudeDegrees>-4.46118255145847797393798828125</LongitudeDegrees>
            </Position>
            <AltitudeMeters>822.20001220703125</AltitudeMeters>
            <DistanceMeters>3315.2468703592</DistanceMeters>
          </Trackpoint>
          <Trackpoint>
            <Time>2020-09-13T07:23:02.000Z</Time>
            <Position>
              <LatitudeDegrees>41.13379678688943386077880859375</LatitudeDegrees>
              <LongitudeDegrees>-4.460936374962329864501953125</LongitudeDegrees>
            </Position>
            <AltitudeMeters>822.5999755859375</AltitudeMeters>
            <DistanceMeters>3349.6460159476</DistanceMeters>
          </Trackpoint>
          <Trackpoint>
            <Time>2020-09-13T07:23:12.000Z</Time>
            <Position>
              <LatitudeDegrees>41.1334473453462123870849609375</LatitudeDegrees>
              <LongitudeDegrees>-4.46057796478271484375</LongitudeDegrees>
            </Position>
            <AltitudeMeters>823.5999755859375</AltitudeMeters>
            <DistanceMeters>3398.793204249</DistanceMeters>
          </Trackpoint>
          <Trackpoint>
            <Time>2020-09-13T07:23:25.000Z</Time>
            <Position>
              <LatitudeDegrees>41.13299019634723663330078125</LatitudeDegrees>
              <LongitudeDegrees>-4.46011486463248729705810546875</LongitudeDegrees>
            </Position>
            <AltitudeMeters>824</AltitudeMeters>
            <DistanceMeters>3462.7938198345</DistanceMeters>
          </Trackpoint>
          <Trackpoint>
            <Time>2020-09-13T07:23:27.000Z</Time>
            <Position>
              <LatitudeDegrees>41.1329179443418979644775390625</LatitudeDegrees>
              <LongitudeDegrees>-4.46004210971295833587646484375</LongitudeDegrees>
            </Position>
            <AltitudeMeters>824</AltitudeMeters>
            <DistanceMeters>3472.8872495014</DistanceMeters>
          </Trackpoint>
          <Trackpoint>
            <Time>2020-09-13T07:23:28.000Z</Time>
            <Position>
              <LatitudeDegrees>41.1328800581395626068115234375</LatitudeDegrees>
              <LongitudeDegrees>-4.460006654262542724609375</LongitudeDegrees>
            </Position>
            <AltitudeMeters>824</AltitudeMeters>
            <DistanceMeters>3478.0467713161</DistanceMeters>
          </Trackpoint>
          <Trackpoint>
            <Time>2020-09-13T07:23:30.000Z</Time>
            <Position>
              <LatitudeDegrees>41.13280587829649448394775390625</LatitudeDegrees>
              <LongitudeDegrees>-4.45993197150528430938720703125</LongitudeDegrees>
            </Position>
            <AltitudeMeters>824</AltitudeMeters>
            <DistanceMeters>3488.408605561</DistanceMeters>
          </Trackpoint>
          <Trackpoint>
            <Time>2020-09-13T07:23:38.000Z</Time>
            <Position>
              <LatitudeDegrees>41.132513098418712615966796875</LatitudeDegrees>
              <LongitudeDegrees>-4.4596350006759166717529296875</LongitudeDegrees>
            </Position>
            <AltitudeMeters>822.4000244140625</AltitudeMeters>
            <DistanceMeters>3529.4172297329</DistanceMeters>
          </Trackpoint>
          <Trackpoint>
            <Time>2020-09-13T07:23:45.000Z</Time>
            <Position>
              <LatitudeDegrees>41.13226608373224735260009765625</LatitudeDegrees>
              <LongitudeDegrees>-4.459373652935028076171875</LongitudeDegrees>
            </Position>
            <AltitudeMeters>821.4000244140625</AltitudeMeters>
            <DistanceMeters>3564.5724908246</DistanceMeters>
          </Trackpoint>
          <Trackpoint>
            <Time>2020-09-13T07:23:51.000Z</Time>
            <Position>
              <LatitudeDegrees>41.1320552788674831390380859375</LatitudeDegrees>
              <LongitudeDegrees>-4.4591562263667583465576171875</LongitudeDegrees>
            </Position>
            <AltitudeMeters>823.20001220703125</AltitudeMeters>
            <DistanceMeters>3594.283501458</DistanceMeters>
          </Trackpoint>
          <Trackpoint>
            <Time>2020-09-13T07:24:02.000Z</Time>
            <Position>
              <LatitudeDegrees>41.13166208378970623016357421875</LatitudeDegrees>
              <LongitudeDegrees>-4.4587599299848079681396484375</LongitudeDegrees>
            </Position>
            <AltitudeMeters>824.79998779296875</AltitudeMeters>
            <DistanceMeters>3649.2286675517</DistanceMeters>
          </Trackpoint>
          <Trackpoint>
            <Time>2020-09-13T07:24:06.000Z</Time>
            <Position>
              <LatitudeDegrees>41.13151556812226772308349609375</LatitudeDegrees>
              <LongitudeDegrees>-4.45861659944057464599609375</LongitudeDegrees>
            </Position>
            <AltitudeMeters>825</AltitudeMeters>
            <DistanceMeters>3669.4849664125</DistanceMeters>
          </Trackpoint>
          <Trackpoint>
            <Time>2020-09-13T07:24:13.000Z</Time>
            <Position>
              <LatitudeDegrees>41.1312677152454853057861328125</LatitudeDegrees>
              <LongitudeDegrees>-4.45835717953741550445556640625</LongitudeDegrees>
            </Position>
            <AltitudeMeters>824.5999755859375</AltitudeMeters>
            <DistanceMeters>3704.6129895026</DistanceMeters>
          </Trackpoint>
          <Trackpoint>
            <Time>2020-09-13T07:24:14.000Z</Time>
            <Position>
              <LatitudeDegrees>41.13123293034732341766357421875</LatitudeDegrees>
              <LongitudeDegrees>-4.45831895805895328521728515625</LongitudeDegrees>
            </Position>
            <AltitudeMeters>824.5999755859375</AltitudeMeters>
            <DistanceMeters>3709.6377376294</DistanceMeters>
          </Trackpoint>
          <Trackpoint>
            <Time>2020-09-13T07:24:18.000Z</Time>
            <Position>
              <LatitudeDegrees>41.1310836486518383026123046875</LatitudeDegrees>
              <LongitudeDegrees>-4.45816934108734130859375</LongitudeDegrees>
            </Position>
            <AltitudeMeters>824.20001220703125</AltitudeMeters>
            <DistanceMeters>3730.4561801505</DistanceMeters>
          </Trackpoint>
          <Trackpoint>
            <Time>2020-09-13T07:24:24.000Z</Time>
            <Position>
              <LatitudeDegrees>41.13086915574967861175537109375</LatitudeDegrees>
              <LongitudeDegrees>-4.45794696919620037078857421875</LongitudeDegrees>
            </Position>
            <AltitudeMeters>823</AltitudeMeters>
            <DistanceMeters>3760.7460105703</DistanceMeters>
          </Trackpoint>
          <Trackpoint>
            <Time>2020-09-13T07:24:27.000Z</Time>
            <Position>
              <LatitudeDegrees>41.13075968809425830841064453125</LatitudeDegrees>
              <LongitudeDegrees>-4.45783984847366809844970703125</LongitudeDegrees>
            </Position>
            <AltitudeMeters>822.5999755859375</AltitudeMeters>
            <DistanceMeters>3775.8818303163</DistanceMeters>
          </Trackpoint>
          <Trackpoint>
            <Time>2020-09-13T07:24:28.000Z</Time>
            <Position>
              <LatitudeDegrees>41.130723394453525543212890625</LatitudeDegrees>
              <LongitudeDegrees>-4.45780296809971332550048828125</LongitudeDegrees>
            </Position>
            <AltitudeMeters>822.4000244140625</AltitudeMeters>
            <DistanceMeters>3780.9690888205</DistanceMeters>
          </Trackpoint>
          <Trackpoint>
            <Time>2020-09-13T07:24:30.000Z</Time>
            <Position>
              <LatitudeDegrees>41.13065172918140888214111328125</LatitudeDegrees>
              <LongitudeDegrees>-4.4577316381037235260009765625</LongitudeDegrees>
            </Position>
            <AltitudeMeters>822.4000244140625</AltitudeMeters>
            <DistanceMeters>3790.9382924668</DistanceMeters>
          </Trackpoint>
          <Trackpoint>
            <Time>2020-09-13T07:24:38.000Z</Time>
            <Position>
              <LatitudeDegrees>41.130368672311305999755859375</LatitudeDegrees>
              <LongitudeDegrees>-4.45744103752076625823974609375</LongitudeDegrees>
            </Position>
            <AltitudeMeters>824.4000244140625</AltitudeMeters>
            <DistanceMeters>3830.7638966296</DistanceMeters>
          </Trackpoint>
          <Trackpoint>
            <Time>2020-09-13T07:24:48.000Z</Time>
            <Position>
              <LatitudeDegrees>41.1300162971019744873046875</LatitudeDegrees>
              <LongitudeDegrees>-4.4570855610072612762451171875</LongitudeDegrees>
            </Position>
            <AltitudeMeters>825.79998779296875</AltitudeMeters>
            <DistanceMeters>3880.0216610941</DistanceMeters>
          </Trackpoint>
          <Trackpoint>
            <Time>2020-09-13T07:24:55.000Z</Time>
            <Position>
              <LatitudeDegrees>41.129765175282955169677734375</LatitudeDegrees>
              <LongitudeDegrees>-4.4568334333598613739013671875</LongitudeDegrees>
            </Position>
            <AltitudeMeters>826.4000244140625</AltitudeMeters>
            <DistanceMeters>3915.0644933942</DistanceMeters>
          </Trackpoint>
          <Trackpoint>
            <Time>2020-09-13T07:24:59.000Z</Time>
            <Position>
              <LatitudeDegrees>41.12962645478546619415283203125</LatitudeDegrees>
              <LongitudeDegrees>-4.4566832296550273895263671875</LongitudeDegrees>
            </Position>
            <AltitudeMeters>826.79998779296875</AltitudeMeters>
            <DistanceMeters>3934.9884026612</DistanceMeters>
          </Trackpoint>
          <Trackpoint>
            <Time>2020-09-13T07:25:01.000Z</Time>
            <Position>
              <LatitudeDegrees>41.1295469105243682861328125</LatitudeDegrees>
              <LongitudeDegrees>-4.45659823715686798095703125</LongitudeDegrees>
            </Position>
            <AltitudeMeters>827</AltitudeMeters>
            <DistanceMeters>3946.3531368586</DistanceMeters>
          </Trackpoint>
          <Trackpoint>
            <Time>2020-09-13T07:25:13.000Z</Time>
            <Position>
              <LatitudeDegrees>41.1291276477277278900146484375</LatitudeDegrees>
              <LongitudeDegrees>-4.45616195909678936004638671875</LongitudeDegrees>
            </Position>
            <AltitudeMeters>826.4000244140625</AltitudeMeters>
            <DistanceMeters>4005.6437148567</DistanceMeters>
          </Trackpoint>
          <Trackpoint>
            <Time>2020-09-13T07:25:25.000Z</Time>
            <Position>
              <LatitudeDegrees>41.1286995001137256622314453125</LatitudeDegrees>
              <LongitudeDegrees>-4.45572316646575927734375</LongitudeDegrees>
            </Position>
            <AltitudeMeters>825.79998779296875</AltitudeMeters>
            <DistanceMeters>4065.8444696696</DistanceMeters>
          </Trackpoint>
          <Trackpoint>
            <Time>2020-09-13T07:25:26.000Z</Time>
            <Position>
              <LatitudeDegrees>41.12865868024528026580810546875</LatitudeDegrees>
              <LongitudeDegrees>-4.45568100549280643463134765625</LongitudeDegrees>
            </Position>
            <AltitudeMeters>825.5999755859375</AltitudeMeters>
            <DistanceMeters>4071.6012379079</DistanceMeters>
          </Trackpoint>
          <Trackpoint>
            <Time>2020-09-13T07:25:37.000Z</Time>
            <Position>
              <LatitudeDegrees>41.12828032113611698150634765625</LatitudeDegrees>
              <LongitudeDegrees>-4.45529225282371044158935546875</LongitudeDegrees>
            </Position>
            <AltitudeMeters>826.79998779296875</AltitudeMeters>
            <DistanceMeters>4124.8521602027</DistanceMeters>
          </Trackpoint>
          <Trackpoint>
            <Time>2020-09-13T07:25:48.000Z</Time>
            <Position>
              <LatitudeDegrees>41.127883605659008026123046875</LatitudeDegrees>
              <LongitudeDegrees>-4.4548891671001911163330078125</LongitudeDegrees>
            </Position>
            <AltitudeMeters>827.5999755859375</AltitudeMeters>
            <DistanceMeters>4180.4550508883</DistanceMeters>
          </Trackpoint>
          <Trackpoint>
            <Time>2020-09-13T07:25:50.000Z</Time>
            <Position>
              <LatitudeDegrees>41.12781462259590625762939453125</LatitudeDegrees>
              <LongitudeDegrees>-4.45482169277966022491455078125</LongitudeDegrees>
            </Position>
            <AltitudeMeters>827.5999755859375</AltitudeMeters>
            <DistanceMeters>4189.9918705859</DistanceMeters>
          </Trackpoint>
          <Trackpoint>
            <Time>2020-09-13T07:25:57.000Z</Time>
            <Position>
              <LatitudeDegrees>41.12757272087037563323974609375</LatitudeDegrees>
              <LongitudeDegrees>-4.45457585155963897705078125</LongitudeDegrees>
            </Position>
            <AltitudeMeters>826.4000244140625</AltitudeMeters>
            <DistanceMeters>4223.8992345773</DistanceMeters>
          </Trackpoint>
          <Trackpoint>
            <Time>2020-09-13T07:26:01.000Z</Time>
            <Position>
              <LatitudeDegrees>41.127428300678730010986328125</LatitudeDegrees>
              <LongitudeDegrees>-4.45443235337734222412109375</LongitudeDegrees>
            </Position>
            <AltitudeMeters>825.5999755859375</AltitudeMeters>
            <DistanceMeters>4243.9766500599</DistanceMeters>
          </Trackpoint>
          <Trackpoint>
            <Time>2020-09-13T07:26:09.000Z</Time>
            <Position>
              <LatitudeDegrees>41.12714574672281742095947265625</LatitudeDegrees>
              <LongitudeDegrees>-4.45414829067885875701904296875</LongitudeDegrees>
            </Position>
            <AltitudeMeters>825.20001220703125</AltitudeMeters>
            <DistanceMeters>4283.4252139614</DistanceMeters>
          </Trackpoint>
          <Trackpoint>
            <Time>2020-09-13T07:26:21.000Z</Time>
            <Position>
              <LatitudeDegrees>41.12671340815722942352294921875</LatitudeDegrees>
              <LongitudeDegrees>-4.45370572619140148162841796875</LongitudeDegrees>
            </Position>
            <AltitudeMeters>826.20001220703125</AltitudeMeters>
            <DistanceMeters>4344.1891323402</DistanceMeters>
          </Trackpoint>
          <Trackpoint>
            <Time>2020-09-13T07:26:23.000Z</Time>
            <Position>
              <LatitudeDegrees>41.12664140760898590087890625</LatitudeDegrees>
              <LongitudeDegrees>-4.4536338932812213897705078125</LongitudeDegrees>
            </Position>
            <AltitudeMeters>826.5999755859375</AltitudeMeters>
            <DistanceMeters>4354.2134373369</DistanceMeters>
          </Trackpoint>
          <Trackpoint>
            <Time>2020-09-13T07:26:35.000Z</Time>
            <Position>
              <LatitudeDegrees>41.12621166743338108062744140625</LatitudeDegrees>
              <LongitudeDegrees>-4.45319174788892269134521484375</LongitudeDegrees>
            </Position>
            <AltitudeMeters>829.5999755859375</AltitudeMeters>
            <DistanceMeters>4414.7272518751</DistanceMeters>
          </Trackpoint>
          <Trackpoint>
            <Time>2020-09-13T07:26:44.000Z</Time>
            <Position>
              <LatitudeDegrees>41.125885359942913055419921875</LatitudeDegrees>
              <LongitudeDegrees>-4.45286703296005725860595703125</LongitudeDegrees>
            </Position>
            <AltitudeMeters>829.5999755859375</AltitudeMeters>
            <DistanceMeters>4460.1166105459</DistanceMeters>
          </Trackpoint>
          <Trackpoint>
            <Time>2020-09-13T07:26:48.000Z</Time>
            <Position>
              <LatitudeDegrees>41.125753931701183319091796875</LatitudeDegrees>
              <LongitudeDegrees>-4.45272588171064853668212890625</LongitudeDegrees>
            </Position>
            <AltitudeMeters>829.4000244140625</AltitudeMeters>
            <DistanceMeters>4478.9323799179</DistanceMeters>
          </Trackpoint>
          <Trackpoint>
            <Time>2020-09-13T07:26:56.000Z</Time>
            <Position>
              <LatitudeDegrees>41.12544924952089786529541015625</LatitudeDegrees>
              <LongitudeDegrees>-4.45241860114037990570068359375</LongitudeDegrees>
            </Position>
            <AltitudeMeters>828.5999755859375</AltitudeMeters>
            <DistanceMeters>4521.5201474575</DistanceMeters>
          </Trackpoint>
          <Trackpoint>
            <Time>2020-09-13T07:26:57.000Z</Time>
            <Position>
              <LatitudeDegrees>41.12541186623275279998779296875</LatitudeDegrees>
              <LongitudeDegrees>-4.45238222368061542510986328125</LongitudeDegrees>
            </Position>
            <AltitudeMeters>828.4000244140625</AltitudeMeters>
            <DistanceMeters>4526.6787941095</DistanceMeters>
          </Trackpoint>
          <Trackpoint>
            <Time>2020-09-13T07:26:58.000Z</Time>
            <Position>
              <LatitudeDegrees>41.125373728573322296142578125</LatitudeDegrees>
              <LongitudeDegrees>-4.45234769023954868316650390625</LongitudeDegrees>
            </Position>
            <AltitudeMeters>828.4000244140625</AltitudeMeters>
            <DistanceMeters>4531.8163921325</DistanceMeters>
          </Trackpoint>
          <Trackpoint>
            <Time>2020-09-13T07:27:02.000Z</Time>
            <Position>
              <LatitudeDegrees>41.1252635903656482696533203125</LatitudeDegrees>
              <LongitudeDegrees>-4.45223629474639892578125</LongitudeDegrees>
            </Position>
            <AltitudeMeters>828.20001220703125</AltitudeMeters>
            <DistanceMeters>4547.2274284556</DistanceMeters>
          </Trackpoint>
          <Trackpoint>
            <Time>2020-09-13T07:27:03.000Z</Time>
            <Position>
              <LatitudeDegrees>41.1252267099916934967041015625</LatitudeDegrees>
              <LongitudeDegrees>-4.45219681598246097564697265625</LongitudeDegrees>
            </Position>
            <AltitudeMeters>828.20001220703125</AltitudeMeters>
            <DistanceMeters>4552.5011970747</DistanceMeters>
          </Trackpoint>
          <Trackpoint>
            <Time>2020-09-13T07:27:05.000Z</Time>
            <Position>
              <LatitudeDegrees>41.1251529492437839508056640625</LatitudeDegrees>
              <LongitudeDegrees>-4.4521164335310459136962890625</LongitudeDegrees>
            </Position>
            <AltitudeMeters>828.20001220703125</AltitudeMeters>
            <DistanceMeters>4563.1229565848</DistanceMeters>
          </Trackpoint>
          <Trackpoint>
            <Time>2020-09-13T07:27:06.000Z</Time>
            <Position>
              <LatitudeDegrees>41.1251150630414485931396484375</LatitudeDegrees>
              <LongitudeDegrees>-4.45207628421485424041748046875</LongitudeDegrees>
            </Position>
            <AltitudeMeters>828.20001220703125</AltitudeMeters>
            <DistanceMeters>4568.5194365979</DistanceMeters>
          </Trackpoint>
          <Trackpoint>
            <Time>2020-09-13T07:27:07.000Z</Time>
            <Position>
              <LatitudeDegrees>41.1250781826674938201904296875</LatitudeDegrees>
              <LongitudeDegrees>-4.45203848183155059814453125</LongitudeDegrees>
            </Position>
            <AltitudeMeters>828</AltitudeMeters>
            <DistanceMeters>4573.7051446161</DistanceMeters>
          </Trackpoint>
          <Trackpoint>
            <Time>2020-09-13T07:27:12.000Z</Time>
            <Position>
              <LatitudeDegrees>41.12489663064479827880859375</LatitudeDegrees>
              <LongitudeDegrees>-4.451858438551425933837890625</LongitudeDegrees>
            </Position>
            <AltitudeMeters>828</AltitudeMeters>
            <DistanceMeters>4598.9277122006</DistanceMeters>
          </Trackpoint>
          <Trackpoint>
            <Time>2020-09-13T07:27:13.000Z</Time>
            <Position>
              <LatitudeDegrees>41.1248642764985561370849609375</LatitudeDegrees>
              <LongitudeDegrees>-4.45182549767196178436279296875</LongitudeDegrees>
            </Position>
            <AltitudeMeters>828</AltitudeMeters>
            <DistanceMeters>4603.4671653004</DistanceMeters>
          </Trackpoint>
          <Trackpoint>
            <Time>2020-09-13T07:27:15.000Z</Time>
            <Position>
              <LatitudeDegrees>41.12480300478637218475341796875</LatitudeDegrees>
              <LongitudeDegrees>-4.4517617113888263702392578125</LongitudeDegrees>
            </Position>
            <AltitudeMeters>828.20001220703125</AltitudeMeters>
            <DistanceMeters>4612.1338933947</DistanceMeters>
          </Trackpoint>
          <Trackpoint>
            <Time>2020-09-13T07:27:16.000Z</Time>
            <Position>
              <LatitudeDegrees>41.12477433867752552032470703125</LatitudeDegrees>
              <LongitudeDegrees>-4.45172944106161594390869140625</LongitudeDegrees>
            </Position>
            <AltitudeMeters>828.4000244140625</AltitudeMeters>
            <DistanceMeters>4616.3172279675</DistanceMeters>
          </Trackpoint>
          <Trackpoint>
            <Time>2020-09-13T07:27:19.000Z</Time>
            <Position>
              <LatitudeDegrees>41.12469814717769622802734375</LatitudeDegrees>
              <LongitudeDegrees>-4.45165366865694522857666015625</LongitudeDegrees>
            </Position>
            <AltitudeMeters>828.4000244140625</AltitudeMeters>
            <DistanceMeters>4626.9134523189</DistanceMeters>
          </Trackpoint>
          <Trackpoint>
            <Time>2020-09-13T07:27:20.000Z</Time>
            <Position>
              <LatitudeDegrees>41.12468264065682888031005859375</LatitudeDegrees>
              <LongitudeDegrees>-4.45163288153707981109619140625</LongitudeDegrees>
            </Position>
            <AltitudeMeters>828.5999755859375</AltitudeMeters>
            <DistanceMeters>4629.3658044371</DistanceMeters>
          </Trackpoint>
          <Trackpoint>
            <Time>2020-09-13T07:27:21.000Z</Time>
            <Position>
              <LatitudeDegrees>41.12467107363045215606689453125</LatitudeDegrees>
              <LongitudeDegrees>-4.4516175426542758941650390625</LongitudeDegrees>
            </Position>
            <AltitudeMeters>828.5999755859375</AltitudeMeters>
            <DistanceMeters>4631.1837725277</DistanceMeters>
          </Trackpoint>
          <Trackpoint>
            <Time>2020-09-13T07:32:36.000Z</Time>
            <Position>
              <LatitudeDegrees>41.1246828921139240264892578125</LatitudeDegrees>
              <LongitudeDegrees>-4.451635815203189849853515625</LongitudeDegrees>
            </Position>
            <AltitudeMeters>828.5999755859375</AltitudeMeters>
            <DistanceMeters>4633.2040681874</DistanceMeters>
          </Trackpoint>
          <Trackpoint>
            <Time>2020-09-13T07:32:37.000Z</Time>
            <Position>
              <LatitudeDegrees>41.1246828921139240264892578125</LatitudeDegrees>
              <LongitudeDegrees>-4.451635815203189849853515625</LongitudeDegrees>
            </Position>
            <AltitudeMeters>828.5999755859375</AltitudeMeters>
            <DistanceMeters>4633.2040681874</DistanceMeters>
          </Trackpoint>
          <Trackpoint>
            <Time>2020-09-13T07:32:38.000Z</Time>
            <Position>
              <LatitudeDegrees>41.1246828921139240264892578125</LatitudeDegrees>
              <LongitudeDegrees>-4.451635815203189849853515625</LongitudeDegrees>
            </Position>
            <AltitudeMeters>828.5999755859375</AltitudeMeters>
            <DistanceMeters>4633.2040681874</DistanceMeters>
          </Trackpoint>
          <Trackpoint>
            <Time>2020-09-13T07:32:44.000Z</Time>
            <Position>
              <LatitudeDegrees>41.124616675078868865966796875</LatitudeDegrees>
              <LongitudeDegrees>-4.45157487876713275909423828125</LongitudeDegrees>
            </Position>
            <AltitudeMeters>828.5999755859375</AltitudeMeters>
            <DistanceMeters>4642.1718918258</DistanceMeters>
          </Trackpoint>
          <Trackpoint>
            <Time>2020-09-13T07:32:46.000Z</Time>
            <Position>
              <LatitudeDegrees>41.124569736421108245849609375</LatitudeDegrees>
              <LongitudeDegrees>-4.45152626372873783111572265625</LongitudeDegrees>
            </Position>
            <AltitudeMeters>828.79998779296875</AltitudeMeters>
            <DistanceMeters>4648.7992813439</DistanceMeters>
          </Trackpoint>
          <Trackpoint>
            <Time>2020-09-13T07:32:51.000Z</Time>
            <Position>
              <LatitudeDegrees>41.12442917190492153167724609375</LatitudeDegrees>
              <LongitudeDegrees>-4.451383687555789947509765625</LongitudeDegrees>
            </Position>
            <AltitudeMeters>828.79998779296875</AltitudeMeters>
            <DistanceMeters>4668.4883946235</DistanceMeters>
          </Trackpoint>
          <Trackpoint>
            <Time>2020-09-13T07:32:59.000Z</Time>
            <Position>
              <LatitudeDegrees>41.1241917125880718231201171875</LatitudeDegrees>
              <LongitudeDegrees>-4.45114438422024250030517578125</LongitudeDegrees>
            </Position>
            <AltitudeMeters>827.5999755859375</AltitudeMeters>
            <DistanceMeters>4701.6709558748</DistanceMeters>
          </Trackpoint>
          <Trackpoint>
            <Time>2020-09-13T07:33:10.000Z</Time>
            <Position>
              <LatitudeDegrees>41.1238363198935985565185546875</LatitudeDegrees>
              <LongitudeDegrees>-4.45078454911708831787109375</LongitudeDegrees>
            </Position>
            <AltitudeMeters>827.20001220703125</AltitudeMeters>
            <DistanceMeters>4751.4189610703</DistanceMeters>
          </Trackpoint>
          <Trackpoint>
            <Time>2020-09-13T07:33:23.000Z</Time>
            <Position>
              <LatitudeDegrees>41.123384535312652587890625</LatitudeDegrees>
              <LongitudeDegrees>-4.4503136537969112396240234375</LongitudeDegrees>
            </Position>
            <AltitudeMeters>829.5999755859375</AltitudeMeters>
            <DistanceMeters>4815.3509683985</DistanceMeters>
          </Trackpoint>
          <Trackpoint>
            <Time>2020-09-13T07:33:30.000Z</Time>
            <Position>
              <LatitudeDegrees>41.12313148565590381622314453125</LatitudeDegrees>
              <LongitudeDegrees>-4.45005741901695728302001953125</LongitudeDegrees>
            </Position>
            <AltitudeMeters>831</AltitudeMeters>
            <DistanceMeters>4850.7741438985</DistanceMeters>
          </Trackpoint>
          <Trackpoint>
            <Time>2020-09-13T07:33:34.000Z</Time>
            <Position>
              <LatitudeDegrees>41.12298312596976757049560546875</LatitudeDegrees>
              <LongitudeDegrees>-4.4499015994369983673095703125</LongitudeDegrees>
            </Position>
            <AltitudeMeters>830.5999755859375</AltitudeMeters>
            <DistanceMeters>4871.8297995067</DistanceMeters>
          </Trackpoint>
          <Trackpoint>
            <Time>2020-09-13T07:33:35.000Z</Time>
            <Position>
              <LatitudeDegrees>41.12294490449130535125732421875</LatitudeDegrees>
              <LongitudeDegrees>-4.4498630426824092864990234375</LongitudeDegrees>
            </Position>
            <AltitudeMeters>830.4000244140625</AltitudeMeters>
            <DistanceMeters>4877.1733097496</DistanceMeters>
          </Trackpoint>
          <Trackpoint>
            <Time>2020-09-13T07:33:37.000Z</Time>
            <Position>
              <LatitudeDegrees>41.12286929972469806671142578125</LatitudeDegrees>
              <LongitudeDegrees>-4.44978835992515087127685546875</LongitudeDegrees>
            </Position>
            <AltitudeMeters>830.20001220703125</AltitudeMeters>
            <DistanceMeters>4887.6624685049</DistanceMeters>
          </Trackpoint>
          <Trackpoint>
            <Time>2020-09-13T07:33:39.000Z</Time>
            <Position>
              <LatitudeDegrees>41.1227932758629322052001953125</LatitudeDegrees>
              <LongitudeDegrees>-4.44971560500562191009521484375</LongitudeDegrees>
            </Position>
            <AltitudeMeters>829.79998779296875</AltitudeMeters>
            <DistanceMeters>4898.0937877479</DistanceMeters>
          </Trackpoint>
          <Trackpoint>
            <Time>2020-09-13T07:33:45.000Z</Time>
            <Position>
              <LatitudeDegrees>41.12256520427763462066650390625</LatitudeDegrees>
              <LongitudeDegrees>-4.44949365220963954925537109375</LongitudeDegrees>
            </Position>
            <AltitudeMeters>828.4000244140625</AltitudeMeters>
            <DistanceMeters>4929.5692980189</DistanceMeters>
          </Trackpoint>
          <Trackpoint>
            <Time>2020-09-13T07:33:46.000Z</Time>
            <Position>
              <LatitudeDegrees>41.1225260607898235321044921875</LatitudeDegrees>
              <LongitudeDegrees>-4.44945593364536762237548828125</LongitudeDegrees>
            </Position>
            <AltitudeMeters>828.20001220703125</AltitudeMeters>
            <DistanceMeters>4934.9532134515</DistanceMeters>
          </Trackpoint>
          <Trackpoint>
            <Time>2020-09-13T07:33:47.000Z</Time>
            <Position>
              <LatitudeDegrees>41.1224871687591075897216796875</LatitudeDegrees>
              <LongitudeDegrees>-4.44941670633852481842041015625</LongitudeDegrees>
            </Position>
            <AltitudeMeters>828.20001220703125</AltitudeMeters>
            <DistanceMeters>4940.3905354281</DistanceMeters>
          </Trackpoint>
          <Trackpoint>
            <Time>2020-09-13T07:33:48.000Z</Time>
            <Position>
              <LatitudeDegrees>41.12244685180485248565673828125</LatitudeDegrees>
              <LongitudeDegrees>-4.4493778981268405914306640625</LongitudeDegrees>
            </Position>
            <AltitudeMeters>828</AltitudeMeters>
            <DistanceMeters>4945.9331268854</DistanceMeters>
          </Trackpoint>
          <Trackpoint>
            <Time>2020-09-13T07:33:52.000Z</Time>
            <Position>
              <LatitudeDegrees>41.1222967319190502166748046875</LatitudeDegrees>
              <LongitudeDegrees>-4.44922090508043766021728515625</LongitudeDegrees>
            </Position>
            <AltitudeMeters>827.79998779296875</AltitudeMeters>
            <DistanceMeters>4967.2038332711</DistanceMeters>
          </Trackpoint>
          <Trackpoint>
            <Time>2020-09-13T07:33:54.000Z</Time>
            <Position>
              <LatitudeDegrees>41.12222137860953807830810546875</LatitudeDegrees>
              <LongitudeDegrees>-4.4491435401141643524169921875</LongitudeDegrees>
            </Position>
            <AltitudeMeters>827.79998779296875</AltitudeMeters>
            <DistanceMeters>4977.8068730111</DistanceMeters>
          </Trackpoint>
          <Trackpoint>
            <Time>2020-09-13T07:34:00.000Z</Time>
            <Position>
              <LatitudeDegrees>41.1220060475170612335205078125</LatitudeDegrees>
              <LongitudeDegrees>-4.44891463033854961395263671875</LongitudeDegrees>
            </Position>
            <AltitudeMeters>828.4000244140625</AltitudeMeters>
            <DistanceMeters>5008.5116793308</DistanceMeters>
          </Trackpoint>
          <Trackpoint>
            <Time>2020-09-13T07:34:02.000Z</Time>
            <Position>
              <LatitudeDegrees>41.12193572334945201873779296875</LatitudeDegrees>
              <LongitudeDegrees>-4.4488446414470672607421875</LongitudeDegrees>
            </Position>
            <AltitudeMeters>828.20001220703125</AltitudeMeters>
            <DistanceMeters>5018.2943553529</DistanceMeters>
          </Trackpoint>
          <Trackpoint>
            <Time>2020-09-13T07:34:03.000Z</Time>
            <Position>
              <LatitudeDegrees>41.12190286628901958465576171875</LatitudeDegrees>
              <LongitudeDegrees>-4.44880910217761993408203125</LongitudeDegrees>
            </Position>
            <AltitudeMeters>828.20001220703125</AltitudeMeters>
            <DistanceMeters>5023.0113574048</DistanceMeters>
          </Trackpoint>
          <Trackpoint>
            <Time>2020-09-13T07:34:04.000Z</Time>
            <Position>
              <LatitudeDegrees>41.12186900340020656585693359375</LatitudeDegrees>
              <LongitudeDegrees>-4.44877599366009235382080078125</LongitudeDegrees>
            </Position>
            <AltitudeMeters>828</AltitudeMeters>
            <DistanceMeters>5027.6928096933</DistanceMeters>
          </Trackpoint>
          <Trackpoint>
            <Time>2020-09-13T07:34:06.000Z</Time>
            <Position>
              <LatitudeDegrees>41.121797002851963043212890625</LatitudeDegrees>
              <LongitudeDegrees>-4.4487066753208637237548828125</LongitudeDegrees>
            </Position>
            <AltitudeMeters>827.79998779296875</AltitudeMeters>
            <DistanceMeters>5037.5924773467</DistanceMeters>
          </Trackpoint>
          <Trackpoint>
            <Time>2020-09-13T07:34:08.000Z</Time>
            <Position>
              <LatitudeDegrees>41.121725924313068389892578125</LatitudeDegrees>
              <LongitudeDegrees>-4.44863635115325450897216796875</LongitudeDegrees>
            </Position>
            <AltitudeMeters>827.79998779296875</AltitudeMeters>
            <DistanceMeters>5047.4597102019</DistanceMeters>
          </Trackpoint>
          <Trackpoint>
            <Time>2020-09-13T07:34:10.000Z</Time>
            <Position>
              <LatitudeDegrees>41.12165576778352260589599609375</LatitudeDegrees>
              <LongitudeDegrees>-4.44856627844274044036865234375</LongitudeDegrees>
            </Position>
            <AltitudeMeters>827.79998779296875</AltitudeMeters>
            <DistanceMeters>5057.2322271996</DistanceMeters>
          </Trackpoint>
          <Trackpoint>
            <Time>2020-09-13T07:34:11.000Z</Time>
            <Position>
              <LatitudeDegrees>41.12161989323794841766357421875</LatitudeDegrees>
              <LongitudeDegrees>-4.4485281407833099365234375</LongitudeDegrees>
            </Position>
            <AltitudeMeters>828</AltitudeMeters>
            <DistanceMeters>5062.3469247917</DistanceMeters>
          </Trackpoint>
          <Trackpoint>
            <Time>2020-09-13T07:34:12.000Z</Time>
            <Position>
              <LatitudeDegrees>41.1215835995972156524658203125</LatitudeDegrees>
              <LongitudeDegrees>-4.4484924338757991790771484375</LongitudeDegrees>
            </Position>
            <AltitudeMeters>828</AltitudeMeters>
            <DistanceMeters>5067.3752658743</DistanceMeters>
          </Trackpoint>
          <Trackpoint>
            <Time>2020-09-13T07:34:14.000Z</Time>
            <Position>
              <LatitudeDegrees>41.12150891683995723724365234375</LatitudeDegrees>
              <LongitudeDegrees>-4.448417834937572479248046875</LongitudeDegrees>
            </Position>
            <AltitudeMeters>828</AltitudeMeters>
            <DistanceMeters>5077.7779787947</DistanceMeters>
          </Trackpoint>
          <Trackpoint>
            <Time>2020-09-13T07:34:17.000Z</Time>
            <Position>
              <LatitudeDegrees>41.12139961682260036468505859375</LatitudeDegrees>
              <LongitudeDegrees>-4.44830392487347126007080078125</LongitudeDegrees>
            </Position>
            <AltitudeMeters>828.4000244140625</AltitudeMeters>
            <DistanceMeters>5093.2442881476</DistanceMeters>
          </Trackpoint>
          <Trackpoint>
            <Time>2020-09-13T07:34:20.000Z</Time>
            <Position>
              <LatitudeDegrees>41.121286042034626007080078125</LatitudeDegrees>
              <LongitudeDegrees>-4.4481930322945117950439453125</LongitudeDegrees>
            </Position>
            <AltitudeMeters>829.4000244140625</AltitudeMeters>
            <DistanceMeters>5108.9366488568</DistanceMeters>
          </Trackpoint>
          <Trackpoint>
            <Time>2020-09-13T07:34:24.000Z</Time>
            <Position>
              <LatitudeDegrees>41.12114095129072666168212890625</LatitudeDegrees>
              <LongitudeDegrees>-4.44804199039936065673828125</LongitudeDegrees>
            </Position>
            <AltitudeMeters>830.20001220703125</AltitudeMeters>
            <DistanceMeters>5129.458899351</DistanceMeters>
          </Trackpoint>
          <Trackpoint>
            <Time>2020-09-13T07:34:33.000Z</Time>
            <Position>
              <LatitudeDegrees>41.1208191700279712677001953125</LatitudeDegrees>
              <LongitudeDegrees>-4.44771216250956058502197265625</LongitudeDegrees>
            </Position>
            <AltitudeMeters>829.4000244140625</AltitudeMeters>
            <DistanceMeters>5174.7081821416</DistanceMeters>
          </Trackpoint>
          <Trackpoint>
            <Time>2020-09-13T07:34:36.000Z</Time>
            <Position>
              <LatitudeDegrees>41.12071095965802669525146484375</LatitudeDegrees>
              <LongitudeDegrees>-4.4476012699306011199951171875</LongitudeDegrees>
            </Position>
            <AltitudeMeters>829.20001220703125</AltitudeMeters>
            <DistanceMeters>5189.9237366786</DistanceMeters>
          </Trackpoint>
          <Trackpoint>
            <Time>2020-09-13T07:34:40.000Z</Time>
            <Position>
              <LatitudeDegrees>41.12056427635252475738525390625</LatitudeDegrees>
              <LongitudeDegrees>-4.44745098240673542022705078125</LongitudeDegrees>
            </Position>
            <AltitudeMeters>829</AltitudeMeters>
            <DistanceMeters>5210.5473799228</DistanceMeters>
          </Trackpoint>
          <Trackpoint>
            <Time>2020-09-13T07:34:42.000Z</Time>
            <Position>
              <LatitudeDegrees>41.12048883922398090362548828125</LatitudeDegrees>
              <LongitudeDegrees>-4.44737571291625499725341796875</LongitudeDegrees>
            </Position>
            <AltitudeMeters>829.20001220703125</AltitudeMeters>
            <DistanceMeters>5221.0507338593</DistanceMeters>
          </Trackpoint>
          <Trackpoint>
            <Time>2020-09-13T07:34:49.000Z</Time>
            <Position>
              <LatitudeDegrees>41.1202414892613887786865234375</LatitudeDegrees>
              <LongitudeDegrees>-4.44712040014564990997314453125</LongitudeDegrees>
            </Position>
            <AltitudeMeters>829.4000244140625</AltitudeMeters>
            <DistanceMeters>5255.9246317721</DistanceMeters>
          </Trackpoint>
          <Trackpoint>
            <Time>2020-09-13T07:35:00.000Z</Time>
            <Position>
              <LatitudeDegrees>41.1198810674250125885009765625</LatitudeDegrees>
              <LongitudeDegrees>-4.4467432983219623565673828125</LongitudeDegrees>
            </Position>
            <AltitudeMeters>829.79998779296875</AltitudeMeters>
            <DistanceMeters>5307.0032365559</DistanceMeters>
          </Trackpoint>
          <Trackpoint>
            <Time>2020-09-13T07:35:01.000Z</Time>
            <Position>
              <LatitudeDegrees>41.119847707450389862060546875</LatitudeDegrees>
              <LongitudeDegrees>-4.4467064179480075836181640625</LongitudeDegrees>
            </Position>
            <AltitudeMeters>829.79998779296875</AltitudeMeters>
            <DistanceMeters>5311.834669843</DistanceMeters>
          </Trackpoint>
          <Trackpoint>
            <Time>2020-09-13T07:35:03.000Z</Time>
            <Position>
              <LatitudeDegrees>41.119777299463748931884765625</LatitudeDegrees>
              <LongitudeDegrees>-4.44663919508457183837890625</LongitudeDegrees>
            </Position>
            <AltitudeMeters>829.5999755859375</AltitudeMeters>
            <DistanceMeters>5321.4877190413</DistanceMeters>
          </Trackpoint>
          <Trackpoint>
            <Time>2020-09-13T07:35:04.000Z</Time>
            <Position>
              <LatitudeDegrees>41.1197425983846187591552734375</LatitudeDegrees>
              <LongitudeDegrees>-4.44660508073866367340087890625</LongitudeDegrees>
            </Position>
            <AltitudeMeters>829.5999755859375</AltitudeMeters>
            <DistanceMeters>5326.2938542395</DistanceMeters>
          </Trackpoint>
          <Trackpoint>
            <Time>2020-09-13T07:35:10.000Z</Time>
            <Position>
              <LatitudeDegrees>41.119527854025363922119140625</LatitudeDegrees>
              <LongitudeDegrees>-4.44638840854167938232421875</LongitudeDegrees>
            </Position>
            <AltitudeMeters>829.20001220703125</AltitudeMeters>
            <DistanceMeters>5356.3161306398</DistanceMeters>
          </Trackpoint>
          <Trackpoint>
            <Time>2020-09-13T07:35:13.000Z</Time>
            <Position>
              <LatitudeDegrees>41.11941847018897533416748046875</LatitudeDegrees>
              <LongitudeDegrees>-4.4462809525430202484130859375</LongitudeDegrees>
            </Position>
            <AltitudeMeters>829.4000244140625</AltitudeMeters>
            <DistanceMeters>5371.4620892421</DistanceMeters>
          </Trackpoint>
          <Trackpoint>
            <Time>2020-09-13T07:35:15.000Z</Time>
            <Position>
              <LatitudeDegrees>41.11934890039265155792236328125</LatitudeDegrees>
              <LongitudeDegrees>-4.44620761089026927947998046875</LongitudeDegrees>
            </Position>
            <AltitudeMeters>829.5999755859375</AltitudeMeters>
            <DistanceMeters>5381.3503483272</DistanceMeters>
          </Trackpoint>
          <Trackpoint>
            <Time>2020-09-13T07:35:26.000Z</Time>
            <Position>
              <LatitudeDegrees>41.1189459823071956634521484375</LatitudeDegrees>
              <LongitudeDegrees>-4.44579974748194217681884765625</LongitudeDegrees>
            </Position>
            <AltitudeMeters>830</AltitudeMeters>
            <DistanceMeters>5437.747882724</DistanceMeters>
          </Trackpoint>
          <Trackpoint>
            <Time>2020-09-13T07:35:32.000Z</Time>
            <Position>
              <LatitudeDegrees>41.11871288157999515533447265625</LatitudeDegrees>
              <LongitudeDegrees>-4.4455777108669281005859375</LongitudeDegrees>
            </Position>
            <AltitudeMeters>830</AltitudeMeters>
            <DistanceMeters>5469.6811007345</DistanceMeters>
          </Trackpoint>
          <Trackpoint>
            <Time>2020-09-13T07:35:35.000Z</Time>
            <Position>
              <LatitudeDegrees>41.11860148608684539794921875</LatitudeDegrees>
              <LongitudeDegrees>-4.4454608671367168426513671875</LongitudeDegrees>
            </Position>
            <AltitudeMeters>830.4000244140625</AltitudeMeters>
            <DistanceMeters>5485.482989034</DistanceMeters>
          </Trackpoint>
          <Trackpoint>
            <Time>2020-09-13T07:35:46.000Z</Time>
            <Position>
              <LatitudeDegrees>41.1181966401636600494384765625</LatitudeDegrees>
              <LongitudeDegrees>-4.44504017941653728485107421875</LongitudeDegrees>
            </Position>
            <AltitudeMeters>831.79998779296875</AltitudeMeters>
            <DistanceMeters>5542.7080890517</DistanceMeters>
          </Trackpoint>
          <Trackpoint>
            <Time>2020-09-13T07:35:58.000Z</Time>
            <Position>
              <LatitudeDegrees>41.11775130964815616607666015625</LatitudeDegrees>
              <LongitudeDegrees>-4.44458839483559131622314453125</LongitudeDegrees>
            </Position>
            <AltitudeMeters>832.79998779296875</AltitudeMeters>
            <DistanceMeters>5605.0929641948</DistanceMeters>
          </Trackpoint>
          <Trackpoint>
            <Time>2020-09-13T07:36:03.000Z</Time>
            <Position>
              <LatitudeDegrees>41.11756606958806514739990234375</LatitudeDegrees>
              <LongitudeDegrees>-4.4443916715681552886962890625</LongitudeDegrees>
            </Position>
            <AltitudeMeters>833.20001220703125</AltitudeMeters>
            <DistanceMeters>5631.4970563385</DistanceMeters>
          </Trackpoint>
          <Trackpoint>
            <Time>2020-09-13T07:36:08.000Z</Time>
            <Position>
              <LatitudeDegrees>41.11737580038607120513916015625</LatitudeDegrees>
              <LongitudeDegrees>-4.44420031271874904632568359375</LongitudeDegrees>
            </Position>
            <AltitudeMeters>833.4000244140625</AltitudeMeters>
            <DistanceMeters>5658.0668383518</DistanceMeters>
          </Trackpoint>
          <Trackpoint>
            <Time>2020-09-13T07:36:14.000Z</Time>
            <Position>
              <LatitudeDegrees>41.11714362166821956634521484375</LatitudeDegrees>
              <LongitudeDegrees>-4.443972744047641754150390625</LongitudeDegrees>
            </Position>
            <AltitudeMeters>833</AltitudeMeters>
            <DistanceMeters>5690.1906469035</DistanceMeters>
          </Trackpoint>
          <Trackpoint>
            <Time>2020-09-13T07:36:18.000Z</Time>
            <Position>
              <LatitudeDegrees>41.116994507610797882080078125</LatitudeDegrees>
              <LongitudeDegrees>-4.4438193552196025848388671875</LongitudeDegrees>
            </Position>
            <AltitudeMeters>832</AltitudeMeters>
            <DistanceMeters>5711.1878955875</DistanceMeters>
          </Trackpoint>
          <Trackpoint>
            <Time>2020-09-13T07:36:26.000Z</Time>
            <Position>
              <LatitudeDegrees>41.1166986264288425445556640625</LatitudeDegrees>
              <LongitudeDegrees>-4.4435340352356433868408203125</LongitudeDegrees>
            </Position>
            <AltitudeMeters>829.79998779296875</AltitudeMeters>
            <DistanceMeters>5751.8931740736</DistanceMeters>
          </Trackpoint>
          <Trackpoint>
            <Time>2020-09-13T07:36:33.000Z</Time>
            <Position>
              <LatitudeDegrees>41.1164577305316925048828125</LatitudeDegrees>
              <LongitudeDegrees>-4.4432812370359897613525390625</LongitudeDegrees>
            </Position>
            <AltitudeMeters>828.20001220703125</AltitudeMeters>
            <DistanceMeters>5786.0726862075</DistanceMeters>
          </Trackpoint>
          <Trackpoint>
            <Time>2020-09-13T07:36:36.000Z</Time>
            <Position>
              <LatitudeDegrees>41.1163566447794437408447265625</LatitudeDegrees>
              <LongitudeDegrees>-4.4431729428470134735107421875</LongitudeDegrees>
            </Position>
            <AltitudeMeters>827.79998779296875</AltitudeMeters>
            <DistanceMeters>5800.531118684</DistanceMeters>
          </Trackpoint>
          <Trackpoint>
            <Time>2020-09-13T07:36:37.000Z</Time>
            <Position>
              <LatitudeDegrees>41.11632160842418670654296875</LatitudeDegrees>
              <LongitudeDegrees>-4.44313715212047100067138671875</LongitudeDegrees>
            </Position>
            <AltitudeMeters>827.79998779296875</AltitudeMeters>
            <DistanceMeters>5805.4514474277</DistanceMeters>
          </Trackpoint>
          <Trackpoint>
            <Time>2020-09-13T07:36:41.000Z</Time>
            <Position>
              <LatitudeDegrees>41.116181798279285430908203125</LatitudeDegrees>
              <LongitudeDegrees>-4.4429934024810791015625</LongitudeDegrees>
            </Position>
            <AltitudeMeters>827.20001220703125</AltitudeMeters>
            <DistanceMeters>5825.1348269604</DistanceMeters>
          </Trackpoint>
          <Trackpoint>
            <Time>2020-09-13T07:36:47.000Z</Time>
            <Position>
              <LatitudeDegrees>41.11598365008831024169921875</LatitudeDegrees>
              <LongitudeDegrees>-4.44278754293918609619140625</LongitudeDegrees>
            </Position>
            <AltitudeMeters>826</AltitudeMeters>
            <DistanceMeters>5853.1411198233</DistanceMeters>
          </Trackpoint>
          <Trackpoint>
            <Time>2020-09-13T07:36:48.000Z</Time>
            <Position>
              <LatitudeDegrees>41.1159482784569263458251953125</LatitudeDegrees>
              <LongitudeDegrees>-4.4427545182406902313232421875</LongitudeDegrees>
            </Position>
            <AltitudeMeters>825.79998779296875</AltitudeMeters>
            <DistanceMeters>5857.9538265543</DistanceMeters>
          </Trackpoint>
          <Trackpoint>
            <Time>2020-09-13T07:36:50.000Z</Time>
            <Position>
              <LatitudeDegrees>41.1158771999180316925048828125</LatitudeDegrees>
              <LongitudeDegrees>-4.44268486462533473968505859375</LongitudeDegrees>
            </Position>
            <AltitudeMeters>825.5999755859375</AltitudeMeters>
            <DistanceMeters>5867.7880585383</DistanceMeters>
          </Trackpoint>
          <Trackpoint>
            <Time>2020-09-13T07:36:54.000Z</Time>
            <Position>
              <LatitudeDegrees>41.115735881030559539794921875</LatitudeDegrees>
              <LongitudeDegrees>-4.44253809750080108642578125</LongitudeDegrees>
            </Position>
            <AltitudeMeters>825</AltitudeMeters>
            <DistanceMeters>5887.7595000619</DistanceMeters>
          </Trackpoint>
          <Trackpoint>
            <Time>2020-09-13T07:37:04.000Z</Time>
            <Position>
              <LatitudeDegrees>41.11537453718483448028564453125</LatitudeDegrees>
              <LongitudeDegrees>-4.4421718083322048187255859375</LongitudeDegrees>
            </Position>
            <AltitudeMeters>823.79998779296875</AltitudeMeters>
            <DistanceMeters>5938.3647721115</DistanceMeters>
          </Trackpoint>
          <Trackpoint>
            <Time>2020-09-13T07:37:08.000Z</Time>
            <Position>
              <LatitudeDegrees>41.1152338050305843353271484375</LatitudeDegrees>
              <LongitudeDegrees>-4.44203040562570095062255859375</LongitudeDegrees>
            </Position>
            <AltitudeMeters>823.5999755859375</AltitudeMeters>
            <DistanceMeters>5958.010266944</DistanceMeters>
          </Trackpoint>
          <Trackpoint>
            <Time>2020-09-13T07:37:15.000Z</Time>
            <Position>
              <LatitudeDegrees>41.11498008482158184051513671875</LatitudeDegrees>
              <LongitudeDegrees>-4.44177358411252498626708984375</LongitudeDegrees>
            </Position>
            <AltitudeMeters>824</AltitudeMeters>
            <DistanceMeters>5993.5242051515</DistanceMeters>
          </Trackpoint>
          <Trackpoint>
            <Time>2020-09-13T07:37:17.000Z</Time>
            <Position>
              <LatitudeDegrees>41.114908419549465179443359375</LatitudeDegrees>
              <LongitudeDegrees>-4.44169429130852222442626953125</LongitudeDegrees>
            </Position>
            <AltitudeMeters>823.79998779296875</AltitudeMeters>
            <DistanceMeters>6003.9082382224</DistanceMeters>
          </Trackpoint>
          <Trackpoint>
            <Time>2020-09-13T07:37:19.000Z</Time>
            <Position>
              <LatitudeDegrees>41.11483658663928508758544921875</LatitudeDegrees>
              <LongitudeDegrees>-4.44162371568381786346435546875</LongitudeDegrees>
            </Position>
            <AltitudeMeters>823.5999755859375</AltitudeMeters>
            <DistanceMeters>6013.8547711621</DistanceMeters>
          </Trackpoint>
          <Trackpoint>
            <Time>2020-09-13T07:37:32.000Z</Time>
            <Position>
              <LatitudeDegrees>41.11438547261059284210205078125</LatitudeDegrees>
              <LongitudeDegrees>-4.4411545805633068084716796875</LongitudeDegrees>
            </Position>
            <AltitudeMeters>823.4000244140625</AltitudeMeters>
            <DistanceMeters>6077.6404223916</DistanceMeters>
          </Trackpoint>
          <Trackpoint>
            <Time>2020-09-13T07:37:33.000Z</Time>
            <Position>
              <LatitudeDegrees>41.11434976570308208465576171875</LatitudeDegrees>
              <LongitudeDegrees>-4.44111920893192291259765625</LongitudeDegrees>
            </Position>
            <AltitudeMeters>823.5999755859375</AltitudeMeters>
            <DistanceMeters>6082.60005224</DistanceMeters>
          </Trackpoint>
          <Trackpoint>
            <Time>2020-09-13T07:37:37.000Z</Time>
            <Position>
              <LatitudeDegrees>41.114206351339817047119140625</LatitudeDegrees>
              <LongitudeDegrees>-4.44097210653126239776611328125</LongitudeDegrees>
            </Position>
            <AltitudeMeters>824.20001220703125</AltitudeMeters>
            <DistanceMeters>6102.7730397487</DistanceMeters>
          </Trackpoint>
          <Trackpoint>
            <Time>2020-09-13T07:37:45.000Z</Time>
            <Position>
              <LatitudeDegrees>41.11392128281295299530029296875</LatitudeDegrees>
              <LongitudeDegrees>-4.440695084631443023681640625</LongitudeDegrees>
            </Position>
            <AltitudeMeters>823</AltitudeMeters>
            <DistanceMeters>6142.0964214753</DistanceMeters>
          </Trackpoint>
          <Trackpoint>
            <Time>2020-09-13T07:37:49.000Z</Time>
            <Position>
              <LatitudeDegrees>41.11377946101129055023193359375</LatitudeDegrees>
              <LongitudeDegrees>-4.44054781459271907806396484375</LongitudeDegrees>
            </Position>
            <AltitudeMeters>823</AltitudeMeters>
            <DistanceMeters>6162.1382741936</DistanceMeters>
          </Trackpoint>
          <Trackpoint>
            <Time>2020-09-13T07:37:56.000Z</Time>
            <Position>
              <LatitudeDegrees>41.113516353070735931396484375</LatitudeDegrees>
              <LongitudeDegrees>-4.44027774967253208160400390625</LongitudeDegrees>
            </Position>
            <AltitudeMeters>823.20001220703125</AltitudeMeters>
            <DistanceMeters>6199.1577355814</DistanceMeters>
          </Trackpoint>
          <Trackpoint>
            <Time>2020-09-13T07:37:59.000Z</Time>
            <Position>
              <LatitudeDegrees>41.11340177245438098907470703125</LatitudeDegrees>
              <LongitudeDegrees>-4.44016241468489170074462890625</LongitudeDegrees>
            </Position>
            <AltitudeMeters>824</AltitudeMeters>
            <DistanceMeters>6215.1634617041</DistanceMeters>
          </Trackpoint>
          <Trackpoint>
            <Time>2020-09-13T07:38:03.000Z</Time>
            <Position>
              <LatitudeDegrees>41.11325324513018131256103515625</LatitudeDegrees>
              <LongitudeDegrees>-4.44001103751361370086669921875</LongitudeDegrees>
            </Position>
            <AltitudeMeters>824.79998779296875</AltitudeMeters>
            <DistanceMeters>6236.0066135224</DistanceMeters>
          </Trackpoint>
          <Trackpoint>
            <Time>2020-09-13T07:38:11.000Z</Time>
            <Position>
              <LatitudeDegrees>41.11295367591083049774169921875</LatitudeDegrees>
              <LongitudeDegrees>-4.439722113311290740966796875</LongitudeDegrees>
            </Position>
            <AltitudeMeters>825.4000244140625</AltitudeMeters>
            <DistanceMeters>6277.2222531579</DistanceMeters>
          </Trackpoint>
          <Trackpoint>
            <Time>2020-09-13T07:38:14.000Z</Time>
            <Position>
              <LatitudeDegrees>41.11284370534121990203857421875</LatitudeDegrees>
              <LongitudeDegrees>-4.4396096281707286834716796875</LongitudeDegrees>
            </Position>
            <AltitudeMeters>825.20001220703125</AltitudeMeters>
            <DistanceMeters>6292.6751280194</DistanceMeters>
          </Trackpoint>
          <Trackpoint>
            <Time>2020-09-13T07:38:16.000Z</Time>
            <Position>
              <LatitudeDegrees>41.1127715371549129486083984375</LatitudeDegrees>
              <LongitudeDegrees>-4.43953444249927997589111328125</LongitudeDegrees>
            </Position>
            <AltitudeMeters>824.79998779296875</AltitudeMeters>
            <DistanceMeters>6302.8864106371</DistanceMeters>
          </Trackpoint>
          <Trackpoint>
            <Time>2020-09-13T07:38:17.000Z</Time>
            <Position>
              <LatitudeDegrees>41.11273641698062419891357421875</LatitudeDegrees>
              <LongitudeDegrees>-4.4394966401159763336181640625</LongitudeDegrees>
            </Position>
            <AltitudeMeters>824.5999755859375</AltitudeMeters>
            <DistanceMeters>6307.9201363449</DistanceMeters>
          </Trackpoint>
          <Trackpoint>
            <Time>2020-09-13T07:38:19.000Z</Time>
            <Position>
              <LatitudeDegrees>41.11266450025141239166259765625</LatitudeDegrees>
              <LongitudeDegrees>-4.4394205324351787567138671875</LongitudeDegrees>
            </Position>
            <AltitudeMeters>824.20001220703125</AltitudeMeters>
            <DistanceMeters>6318.1574732647</DistanceMeters>
          </Trackpoint>
          <Trackpoint>
            <Time>2020-09-13T07:38:22.000Z</Time>
            <Position>
              <LatitudeDegrees>41.112550757825374603271484375</LatitudeDegrees>
              <LongitudeDegrees>-4.43931131623685359954833984375</LongitudeDegrees>
            </Position>
            <AltitudeMeters>823.5999755859375</AltitudeMeters>
            <DistanceMeters>6333.7829398782</DistanceMeters>
          </Trackpoint>
          <Trackpoint>
            <Time>2020-09-13T07:38:25.000Z</Time>
            <Position>
              <LatitudeDegrees>41.11244087107479572296142578125</LatitudeDegrees>
              <LongitudeDegrees>-4.43919983692467212677001953125</LongitudeDegrees>
            </Position>
            <AltitudeMeters>823.20001220703125</AltitudeMeters>
            <DistanceMeters>6349.1772676062</DistanceMeters>
          </Trackpoint>
          <Trackpoint>
            <Time>2020-09-13T07:38:29.000Z</Time>
            <Position>
              <LatitudeDegrees>41.11230256967246532440185546875</LatitudeDegrees>
              <LongitudeDegrees>-4.4390490464866161346435546875</LongitudeDegrees>
            </Position>
            <AltitudeMeters>823</AltitudeMeters>
            <DistanceMeters>6369.0982306723</DistanceMeters>
          </Trackpoint>
          <Trackpoint>
            <Time>2020-09-13T07:38:30.000Z</Time>
            <Position>
              <LatitudeDegrees>41.11226770095527172088623046875</LatitudeDegrees>
              <LongitudeDegrees>-4.43901157937943935394287109375</LongitudeDegrees>
            </Position>
            <AltitudeMeters>823</AltitudeMeters>
            <DistanceMeters>6374.0905258344</DistanceMeters>
          </Trackpoint>
          <Trackpoint>
            <Time>2020-09-13T07:38:32.000Z</Time>
            <Position>
              <LatitudeDegrees>41.11219712533056735992431640625</LatitudeDegrees>
              <LongitudeDegrees>-4.43893798626959323883056640625</LongitudeDegrees>
            </Position>
            <AltitudeMeters>823</AltitudeMeters>
            <DistanceMeters>6384.0800891273</DistanceMeters>
          </Trackpoint>
          <Trackpoint>
            <Time>2020-09-13T07:38:34.000Z</Time>
            <Position>
              <LatitudeDegrees>41.11212420277297496795654296875</LatitudeDegrees>
              <LongitudeDegrees>-4.4388653151690959930419921875</LongitudeDegrees>
            </Position>
            <AltitudeMeters>823.20001220703125</AltitudeMeters>
            <DistanceMeters>6394.2297251834</DistanceMeters>
          </Trackpoint>
          <Trackpoint>
            <Time>2020-09-13T07:38:36.000Z</Time>
            <Position>
              <LatitudeDegrees>41.11205287277698516845703125</LatitudeDegrees>
              <LongitudeDegrees>-4.43879029713571071624755859375</LongitudeDegrees>
            </Position>
            <AltitudeMeters>823.4000244140625</AltitudeMeters>
            <DistanceMeters>6404.358877594</DistanceMeters>
          </Trackpoint>
          <Trackpoint>
            <Time>2020-09-13T07:38:37.000Z</Time>
            <Position>
              <LatitudeDegrees>41.112017333507537841796875</LatitudeDegrees>
              <LongitudeDegrees>-4.43875408731400966644287109375</LongitudeDegrees>
            </Position>
            <AltitudeMeters>823.5999755859375</AltitudeMeters>
            <DistanceMeters>6409.3457433959</DistanceMeters>
          </Trackpoint>
          <Trackpoint>
            <Time>2020-09-13T07:38:39.000Z</Time>
            <Position>
              <LatitudeDegrees>41.111944578588008880615234375</LatitudeDegrees>
              <LongitudeDegrees>-4.4386812485754489898681640625</LongitudeDegrees>
            </Position>
            <AltitudeMeters>824.20001220703125</AltitudeMeters>
            <DistanceMeters>6419.4887045477</DistanceMeters>
          </Trackpoint>
          <Trackpoint>
            <Time>2020-09-13T07:38:48.000Z</Time>
            <Position>
              <LatitudeDegrees>41.11162665300071239471435546875</LatitudeDegrees>
              <LongitudeDegrees>-4.43834572099149227142333984375</LongitudeDegrees>
            </Position>
            <AltitudeMeters>826.20001220703125</AltitudeMeters>
            <DistanceMeters>6464.6974579261</DistanceMeters>
          </Trackpoint>
          <Trackpoint>
            <Time>2020-09-13T07:38:52.000Z</Time>
            <Position>
              <LatitudeDegrees>41.1114824004471302032470703125</LatitudeDegrees>
              <LongitudeDegrees>-4.43819786421954631805419921875</LongitudeDegrees>
            </Position>
            <AltitudeMeters>827</AltitudeMeters>
            <DistanceMeters>6484.9833802296</DistanceMeters>
          </Trackpoint>
          <Trackpoint>
            <Time>2020-09-13T07:38:53.000Z</Time>
            <Position>
              <LatitudeDegrees>41.11144677735865116119384765625</LatitudeDegrees>
              <LongitudeDegrees>-4.4381612353026866912841796875</LongitudeDegrees>
            </Position>
            <AltitudeMeters>827.20001220703125</AltitudeMeters>
            <DistanceMeters>6489.9991347065</DistanceMeters>
          </Trackpoint>
          <Trackpoint>
            <Time>2020-09-13T07:38:55.000Z</Time>
            <Position>
              <LatitudeDegrees>41.1113724298775196075439453125</LatitudeDegrees>
              <LongitudeDegrees>-4.43808621726930141448974609375</LongitudeDegrees>
            </Position>
            <AltitudeMeters>827.5999755859375</AltitudeMeters>
            <DistanceMeters>6500.3940322398</DistanceMeters>
          </Trackpoint>
          <Trackpoint>
            <Time>2020-09-13T07:38:57.000Z</Time>
            <Position>
              <LatitudeDegrees>41.11129925586283206939697265625</LatitudeDegrees>
              <LongitudeDegrees>-4.4380153901875019073486328125</LongitudeDegrees>
            </Position>
            <AltitudeMeters>827.79998779296875</AltitudeMeters>
            <DistanceMeters>6510.4744811497</DistanceMeters>
          </Trackpoint>
          <Trackpoint>
            <Time>2020-09-13T07:39:01.000Z</Time>
            <Position>
              <LatitudeDegrees>41.11115165054798126220703125</LatitudeDegrees>
              <LongitudeDegrees>-4.43786426447331905364990234375</LongitudeDegrees>
            </Position>
            <AltitudeMeters>827.79998779296875</AltitudeMeters>
            <DistanceMeters>6531.2234070145</DistanceMeters>
          </Trackpoint>
          <Trackpoint>
            <Time>2020-09-13T07:39:02.000Z</Time>
            <Position>
              <LatitudeDegrees>41.1111149378120899200439453125</LatitudeDegrees>
              <LongitudeDegrees>-4.43782746791839599609375</LongitudeDegrees>
            </Position>
            <AltitudeMeters>827.5999755859375</AltitudeMeters>
            <DistanceMeters>6536.3433984126</DistanceMeters>
          </Trackpoint>
          <Trackpoint>
            <Time>2020-09-13T07:39:14.000Z</Time>
            <Position>
              <LatitudeDegrees>41.11066776327788829803466796875</LatitudeDegrees>
              <LongitudeDegrees>-4.43737325258553028106689453125</LongitudeDegrees>
            </Position>
            <AltitudeMeters>828</AltitudeMeters>
            <DistanceMeters>6599.0175328928</DistanceMeters>
          </Trackpoint>
          <Trackpoint>
            <Time>2020-09-13T07:39:17.000Z</Time>
            <Position>
              <LatitudeDegrees>41.110561899840831756591796875</LatitudeDegrees>
              <LongitudeDegrees>-4.43725951015949249267578125</LongitudeDegrees>
            </Position>
            <AltitudeMeters>828.4000244140625</AltitudeMeters>
            <DistanceMeters>6614.1771979781</DistanceMeters>
          </Trackpoint>
          <Trackpoint>
            <Time>2020-09-13T07:39:28.000Z</Time>
            <Position>
              <LatitudeDegrees>41.11015127040445804595947265625</LatitudeDegrees>
              <LongitudeDegrees>-4.43685340695083141326904296875</LongitudeDegrees>
            </Position>
            <AltitudeMeters>829.5999755859375</AltitudeMeters>
            <DistanceMeters>6671.1740596579</DistanceMeters>
          </Trackpoint>
          <Trackpoint>
            <Time>2020-09-13T07:39:40.000Z</Time>
            <Position>
              <LatitudeDegrees>41.10969596542418003082275390625</LatitudeDegrees>
              <LongitudeDegrees>-4.43639676086604595184326171875</LongitudeDegrees>
            </Position>
            <AltitudeMeters>831.4000244140625</AltitudeMeters>
            <DistanceMeters>6734.6922925881</DistanceMeters>
          </Trackpoint>
          <Trackpoint>
            <Time>2020-09-13T07:39:42.000Z</Time>
            <Position>
              <LatitudeDegrees>41.10962052829563617706298828125</LatitudeDegrees>
              <LongitudeDegrees>-4.43632333539426326751708984375</LongitudeDegrees>
            </Position>
            <AltitudeMeters>831.5999755859375</AltitudeMeters>
            <DistanceMeters>6745.1045496819</DistanceMeters>
          </Trackpoint>
          <Trackpoint>
            <Time>2020-09-13T07:39:49.000Z</Time>
            <Position>
              <LatitudeDegrees>41.1093533970415592193603515625</LatitudeDegrees>
              <LongitudeDegrees>-4.43606450222432613372802734375</LongitudeDegrees>
            </Position>
            <AltitudeMeters>830.79998779296875</AltitudeMeters>
            <DistanceMeters>6781.9170697274</DistanceMeters>
          </Trackpoint>
          <Trackpoint>
            <Time>2020-09-13T07:39:53.000Z</Time>
            <Position>
              <LatitudeDegrees>41.10920260660350322723388671875</LatitudeDegrees>
              <LongitudeDegrees>-4.43591832183301448822021484375</LongitudeDegrees>
            </Position>
            <AltitudeMeters>830.4000244140625</AltitudeMeters>
            <DistanceMeters>6802.700782985</DistanceMeters>
          </Trackpoint>
          <Trackpoint>
            <Time>2020-09-13T07:40:01.000Z</Time>
            <Position>
              <LatitudeDegrees>41.10890622250735759735107421875</LatitudeDegrees>
              <LongitudeDegrees>-4.435612969100475311279296875</LongitudeDegrees>
            </Position>
            <AltitudeMeters>830.5999755859375</AltitudeMeters>
            <DistanceMeters>6844.4614292132</DistanceMeters>
          </Trackpoint>
          <Trackpoint>
            <Time>2020-09-13T07:40:05.000Z</Time>
            <Position>
              <LatitudeDegrees>41.1087555997073650360107421875</LatitudeDegrees>
              <LongitudeDegrees>-4.43545639514923095703125</LongitudeDegrees>
            </Position>
            <AltitudeMeters>830.5999755859375</AltitudeMeters>
            <DistanceMeters>6865.7558960699</DistanceMeters>
          </Trackpoint>
          <Trackpoint>
            <Time>2020-09-13T07:40:07.000Z</Time>
            <Position>
              <LatitudeDegrees>41.10868938267230987548828125</LatitudeDegrees>
              <LongitudeDegrees>-4.43538523279130458831787109375</LongitudeDegrees>
            </Position>
            <AltitudeMeters>830.4000244140625</AltitudeMeters>
            <DistanceMeters>6875.2385908993</DistanceMeters>
          </Trackpoint>
          <Trackpoint>
            <Time>2020-09-13T07:40:14.000Z</Time>
            <Position>
              <LatitudeDegrees>41.10841982066631317138671875</LatitudeDegrees>
              <LongitudeDegrees>-4.43510963581502437591552734375</LongitudeDegrees>
            </Position>
            <AltitudeMeters>829.20001220703125</AltitudeMeters>
            <DistanceMeters>6913.1113564762</DistanceMeters>
          </Trackpoint>
          <Trackpoint>
            <Time>2020-09-13T07:40:18.000Z</Time>
            <Position>
              <LatitudeDegrees>41.10827640630304813385009765625</LatitudeDegrees>
              <LongitudeDegrees>-4.43495121784508228302001953125</LongitudeDegrees>
            </Position>
            <AltitudeMeters>829.20001220703125</AltitudeMeters>
            <DistanceMeters>6933.8789878076</DistanceMeters>
          </Trackpoint>
          <Trackpoint>
            <Time>2020-09-13T07:40:19.000Z</Time>
            <Position>
              <LatitudeDegrees>41.10823986120522022247314453125</LatitudeDegrees>
              <LongitudeDegrees>-4.43491450510919094085693359375</LongitudeDegrees>
            </Position>
            <AltitudeMeters>829.4000244140625</AltitudeMeters>
            <DistanceMeters>6938.9804268508</DistanceMeters>
          </Trackpoint>
          <Trackpoint>
            <Time>2020-09-13T07:40:31.000Z</Time>
            <Position>
              <LatitudeDegrees>41.10778522677719593048095703125</LatitudeDegrees>
              <LongitudeDegrees>-4.4344517402350902557373046875</LongitudeDegrees>
            </Position>
            <AltitudeMeters>829.20001220703125</AltitudeMeters>
            <DistanceMeters>7002.750786786</DistanceMeters>
          </Trackpoint>
          <Trackpoint>
            <Time>2020-09-13T07:40:32.000Z</Time>
            <Position>
              <LatitudeDegrees>41.10774951986968517303466796875</LatitudeDegrees>
              <LongitudeDegrees>-4.4344118423759937286376953125</LongitudeDegrees>
            </Position>
            <AltitudeMeters>829</AltitudeMeters>
            <DistanceMeters>7007.9469323351</DistanceMeters>
          </Trackpoint>
          <Trackpoint>
            <Time>2020-09-13T07:40:44.000Z</Time>
            <Position>
              <LatitudeDegrees>41.10730343498289585113525390625</LatitudeDegrees>
              <LongitudeDegrees>-4.4339664280414581298828125</LongitudeDegrees>
            </Position>
            <AltitudeMeters>827.4000244140625</AltitudeMeters>
            <DistanceMeters>7070.0795810854</DistanceMeters>
          </Trackpoint>
          <Trackpoint>
            <Time>2020-09-13T07:40:56.000Z</Time>
            <Position>
              <LatitudeDegrees>41.1068529076874256134033203125</LatitudeDegrees>
              <LongitudeDegrees>-4.433499388396739959716796875</LongitudeDegrees>
            </Position>
            <AltitudeMeters>827.5999755859375</AltitudeMeters>
            <DistanceMeters>7133.7081804208</DistanceMeters>
          </Trackpoint>
          <Trackpoint>
            <Time>2020-09-13T07:41:08.000Z</Time>
            <Position>
              <LatitudeDegrees>41.10640439204871654510498046875</LatitudeDegrees>
              <LongitudeDegrees>-4.43303897045552730560302734375</LongitudeDegrees>
            </Position>
            <AltitudeMeters>826.5999755859375</AltitudeMeters>
            <DistanceMeters>7196.819369906</DistanceMeters>
          </Trackpoint>
          <Trackpoint>
            <Time>2020-09-13T07:41:10.000Z</Time>
            <Position>
              <LatitudeDegrees>41.10633037984371185302734375</LatitudeDegrees>
              <LongitudeDegrees>-4.432959258556365966796875</LongitudeDegrees>
            </Position>
            <AltitudeMeters>826.5999755859375</AltitudeMeters>
            <DistanceMeters>7207.4283695194</DistanceMeters>
          </Trackpoint>
          <Trackpoint>
            <Time>2020-09-13T07:41:18.000Z</Time>
            <Position>
              <LatitudeDegrees>41.1060583032667636871337890625</LatitudeDegrees>
              <LongitudeDegrees>-4.43267972208559513092041015625</LongitudeDegrees>
            </Position>
            <AltitudeMeters>827.20001220703125</AltitudeMeters>
            <DistanceMeters>7245.7248427989</DistanceMeters>
          </Trackpoint>
          <Trackpoint>
            <Time>2020-09-13T07:41:26.000Z</Time>
            <Position>
              <LatitudeDegrees>41.1057753302156925201416015625</LatitudeDegrees>
              <LongitudeDegrees>-4.43238954059779644012451171875</LongitudeDegrees>
            </Position>
            <AltitudeMeters>828.5999755859375</AltitudeMeters>
            <DistanceMeters>7285.526972404</DistanceMeters>
          </Trackpoint>
          <Trackpoint>
            <Time>2020-09-13T07:41:30.000Z</Time>
            <Position>
              <LatitudeDegrees>41.105627305805683135986328125</LatitudeDegrees>
              <LongitudeDegrees>-4.4322395883500576019287109375</LongitudeDegrees>
            </Position>
            <AltitudeMeters>829.4000244140625</AltitudeMeters>
            <DistanceMeters>7306.2536908309</DistanceMeters>
          </Trackpoint>
          <Trackpoint>
            <Time>2020-09-13T07:41:31.000Z</Time>
            <Position>
              <LatitudeDegrees>41.10559134744107723236083984375</LatitudeDegrees>
              <LongitudeDegrees>-4.43220145069062709808349609375</LongitudeDegrees>
            </Position>
            <AltitudeMeters>829.4000244140625</AltitudeMeters>
            <DistanceMeters>7311.3763270805</DistanceMeters>
          </Trackpoint>
          <Trackpoint>
            <Time>2020-09-13T07:41:37.000Z</Time>
            <Position>
              <LatitudeDegrees>41.105377189815044403076171875</LatitudeDegrees>
              <LongitudeDegrees>-4.4319800846278667449951171875</LongitudeDegrees>
            </Position>
            <AltitudeMeters>830</AltitudeMeters>
            <DistanceMeters>7341.5894429007</DistanceMeters>
          </Trackpoint>
          <Trackpoint>
            <Time>2020-09-13T07:41:38.000Z</Time>
            <Position>
              <LatitudeDegrees>41.10534022562205791473388671875</LatitudeDegrees>
              <LongitudeDegrees>-4.4319438748061656951904296875</LongitudeDegrees>
            </Position>
            <AltitudeMeters>830</AltitudeMeters>
            <DistanceMeters>7346.703257659</DistanceMeters>
          </Trackpoint>
          <Trackpoint>
            <Time>2020-09-13T07:41:39.000Z</Time>
            <Position>
              <LatitudeDegrees>41.10530351288616657257080078125</LatitudeDegrees>
              <LongitudeDegrees>-4.4319083355367183685302734375</LongitudeDegrees>
            </Position>
            <AltitudeMeters>830</AltitudeMeters>
            <DistanceMeters>7351.7620358358</DistanceMeters>
          </Trackpoint>
          <Trackpoint>
            <Time>2020-09-13T07:41:41.000Z</Time>
            <Position>
              <LatitudeDegrees>41.1052300035953521728515625</LatitudeDegrees>
              <LongitudeDegrees>-4.431834407150745391845703125</LongitudeDegrees>
            </Position>
            <AltitudeMeters>829.79998779296875</AltitudeMeters>
            <DistanceMeters>7362.0275602794</DistanceMeters>
          </Trackpoint>
          <Trackpoint>
            <Time>2020-09-13T07:41:49.000Z</Time>
            <Position>
              <LatitudeDegrees>41.1049455218017101287841796875</LatitudeDegrees>
              <LongitudeDegrees>-4.43155420012772083282470703125</LongitudeDegrees>
            </Position>
            <AltitudeMeters>829.20001220703125</AltitudeMeters>
            <DistanceMeters>7401.458837869</DistanceMeters>
          </Trackpoint>
          <Trackpoint>
            <Time>2020-09-13T07:41:51.000Z</Time>
            <Position>
              <LatitudeDegrees>41.10487285070121288299560546875</LatitudeDegrees>
              <LongitudeDegrees>-4.4314808584749698638916015625</LongitudeDegrees>
            </Position>
            <AltitudeMeters>829</AltitudeMeters>
            <DistanceMeters>7411.620477704</DistanceMeters>
          </Trackpoint>
          <Trackpoint>
            <Time>2020-09-13T07:41:55.000Z</Time>
            <Position>
              <LatitudeDegrees>41.1047269217669963836669921875</LatitudeDegrees>
              <LongitudeDegrees>-4.431330822408199310302734375</LongitudeDegrees>
            </Position>
            <AltitudeMeters>828.4000244140625</AltitudeMeters>
            <DistanceMeters>7432.1664752121</DistanceMeters>
          </Trackpoint>
          <Trackpoint>
            <Time>2020-09-13T07:41:58.000Z</Time>
            <Position>
              <LatitudeDegrees>41.10461720265448093414306640625</LatitudeDegrees>
              <LongitudeDegrees>-4.43121942691504955291748046875</LongitudeDegrees>
            </Position>
            <AltitudeMeters>828</AltitudeMeters>
            <DistanceMeters>7447.5420207733</DistanceMeters>
          </Trackpoint>
          <Trackpoint>
            <Time>2020-09-13T07:42:01.000Z</Time>
            <Position>
              <LatitudeDegrees>41.10450739972293376922607421875</LatitudeDegrees>
              <LongitudeDegrees>-4.4311133958399295806884765625</LongitudeDegrees>
            </Position>
            <AltitudeMeters>828</AltitudeMeters>
            <DistanceMeters>7462.6557500856</DistanceMeters>
          </Trackpoint>
          <Trackpoint>
            <Time>2020-09-13T07:42:03.000Z</Time>
            <Position>
              <LatitudeDegrees>41.10443430952727794647216796875</LatitudeDegrees>
              <LongitudeDegrees>-4.43104122765362262725830078125</LongitudeDegrees>
            </Position>
            <AltitudeMeters>827.79998779296875</AltitudeMeters>
            <DistanceMeters>7472.7955947783</DistanceMeters>
          </Trackpoint>
          <Trackpoint>
            <Time>2020-09-13T07:42:05.000Z</Time>
            <Position>
              <LatitudeDegrees>41.104360632598400115966796875</LatitudeDegrees>
              <LongitudeDegrees>-4.4309650361537933349609375</LongitudeDegrees>
            </Position>
            <AltitudeMeters>827.79998779296875</AltitudeMeters>
            <DistanceMeters>7483.192229572</DistanceMeters>
          </Trackpoint>
          <Trackpoint>
            <Time>2020-09-13T07:42:16.000Z</Time>
            <Position>
              <LatitudeDegrees>41.10396743752062320709228515625</LatitudeDegrees>
              <LongitudeDegrees>-4.43055507726967334747314453125</LongitudeDegrees>
            </Position>
            <AltitudeMeters>828.5999755859375</AltitudeMeters>
            <DistanceMeters>7538.8463348189</DistanceMeters>
          </Trackpoint>
          <Trackpoint>
            <Time>2020-09-13T07:42:17.000Z</Time>
            <Position>
              <LatitudeDegrees>41.10393826849758625030517578125</LatitudeDegrees>
              <LongitudeDegrees>-4.4305263273417949676513671875</LongitudeDegrees>
            </Position>
            <AltitudeMeters>828.79998779296875</AltitudeMeters>
            <DistanceMeters>7542.8913933495</DistanceMeters>
          </Trackpoint>
          <Trackpoint>
            <Time>2020-09-13T07:42:28.000Z</Time>
            <Position>
              <LatitudeDegrees>41.103530488908290863037109375</LatitudeDegrees>
              <LongitudeDegrees>-4.43011838011443614959716796875</LongitudeDegrees>
            </Position>
            <AltitudeMeters>828.5999755859375</AltitudeMeters>
            <DistanceMeters>7599.7291264852</DistanceMeters>
          </Trackpoint>
          <Trackpoint>
            <Time>2020-09-13T07:42:31.000Z</Time>
            <Position>
              <LatitudeDegrees>41.1034263856709003448486328125</LatitudeDegrees>
              <LongitudeDegrees>-4.43000589497387409210205078125</LongitudeDegrees>
            </Position>
            <AltitudeMeters>828.20001220703125</AltitudeMeters>
            <DistanceMeters>7614.6706986891</DistanceMeters>
          </Trackpoint>
          <Trackpoint>
            <Time>2020-09-13T07:42:44.000Z</Time>
            <Position>
              <LatitudeDegrees>41.10296814702451229095458984375</LatitudeDegrees>
              <LongitudeDegrees>-4.42953064106404781341552734375</LongitudeDegrees>
            </Position>
            <AltitudeMeters>829.20001220703125</AltitudeMeters>
            <DistanceMeters>7679.4011220666</DistanceMeters>
          </Trackpoint>
          <Trackpoint>
            <Time>2020-09-13T07:42:50.000Z</Time>
            <Position>
              <LatitudeDegrees>41.1027497984468936920166015625</LatitudeDegrees>
              <LongitudeDegrees>-4.42931069992482662200927734375</LongitudeDegrees>
            </Position>
            <AltitudeMeters>828.79998779296875</AltitudeMeters>
            <DistanceMeters>7709.9113574034</DistanceMeters>
          </Trackpoint>
          <Trackpoint>
            <Time>2020-09-13T07:42:54.000Z</Time>
            <Position>
              <LatitudeDegrees>41.10260722227394580841064453125</LatitudeDegrees>
              <LongitudeDegrees>-4.429170303046703338623046875</LongitudeDegrees>
            </Position>
            <AltitudeMeters>828.4000244140625</AltitudeMeters>
            <DistanceMeters>7729.6718879021</DistanceMeters>
          </Trackpoint>
          <Trackpoint>
            <Time>2020-09-13T07:42:58.000Z</Time>
            <Position>
              <LatitudeDegrees>41.1024661548435688018798828125</LatitudeDegrees>
              <LongitudeDegrees>-4.42902781069278717041015625</LongitudeDegrees>
            </Position>
            <AltitudeMeters>828.20001220703125</AltitudeMeters>
            <DistanceMeters>7749.4038367677</DistanceMeters>
          </Trackpoint>
          <Trackpoint>
            <Time>2020-09-13T07:43:02.000Z</Time>
            <Position>
              <LatitudeDegrees>41.1023224890232086181640625</LatitudeDegrees>
              <LongitudeDegrees>-4.4288807921111583709716796875</LongitudeDegrees>
            </Position>
            <AltitudeMeters>827.79998779296875</AltitudeMeters>
            <DistanceMeters>7769.5960632818</DistanceMeters>
          </Trackpoint>
          <Trackpoint>
            <Time>2020-09-13T07:43:05.000Z</Time>
            <Position>
              <LatitudeDegrees>41.10221721231937408447265625</LatitudeDegrees>
              <LongitudeDegrees>-4.42877895198762416839599609375</LongitudeDegrees>
            </Position>
            <AltitudeMeters>827.4000244140625</AltitudeMeters>
            <DistanceMeters>7784.0962805188</DistanceMeters>
          </Trackpoint>
          <Trackpoint>
            <Time>2020-09-13T07:43:09.000Z</Time>
            <Position>
              <LatitudeDegrees>41.1020742170512676239013671875</LatitudeDegrees>
              <LongitudeDegrees>-4.42864433862268924713134765625</LongitudeDegrees>
            </Position>
            <AltitudeMeters>827.4000244140625</AltitudeMeters>
            <DistanceMeters>7803.6096409012</DistanceMeters>
          </Trackpoint>
          <Trackpoint>
            <Time>2020-09-13T07:43:16.000Z</Time>
            <Position>
              <LatitudeDegrees>41.10183642245829105377197265625</LatitudeDegrees>
              <LongitudeDegrees>-4.428388774394989013671875</LongitudeDegrees>
            </Position>
            <AltitudeMeters>828</AltitudeMeters>
            <DistanceMeters>7837.6674062328</DistanceMeters>
          </Trackpoint>
          <Trackpoint>
            <Time>2020-09-13T07:43:19.000Z</Time>
            <Position>
              <LatitudeDegrees>41.10173315741121768951416015625</LatitudeDegrees>
              <LongitudeDegrees>-4.4282843358814716339111328125</LongitudeDegrees>
            </Position>
            <AltitudeMeters>828.20001220703125</AltitudeMeters>
            <DistanceMeters>7852.118342114</DistanceMeters>
          </Trackpoint>
          <Trackpoint>
            <Time>2020-09-13T07:43:29.000Z</Time>
            <Position>
              <LatitudeDegrees>41.1013597436249256134033203125</LatitudeDegrees>
              <LongitudeDegrees>-4.42792718298733234405517578125</LongitudeDegrees>
            </Position>
            <AltitudeMeters>827.4000244140625</AltitudeMeters>
            <DistanceMeters>7903.3498164151</DistanceMeters>
          </Trackpoint>
          <Trackpoint>
            <Time>2020-09-13T07:43:38.000Z</Time>
            <Position>
              <LatitudeDegrees>41.1010009981691837310791015625</LatitudeDegrees>
              <LongitudeDegrees>-4.42765158601105213165283203125</LongitudeDegrees>
            </Position>
            <AltitudeMeters>827.79998779296875</AltitudeMeters>
            <DistanceMeters>7949.4868275866</DistanceMeters>
          </Trackpoint>
          <Trackpoint>
            <Time>2020-09-13T07:43:50.000Z</Time>
            <Position>
              <LatitudeDegrees>41.10053806565701961517333984375</LatitudeDegrees>
              <LongitudeDegrees>-4.4272909127175807952880859375</LongitudeDegrees>
            </Position>
            <AltitudeMeters>827.79998779296875</AltitudeMeters>
            <DistanceMeters>8009.2358141161</DistanceMeters>
          </Trackpoint>
          <Trackpoint>
            <Time>2020-09-13T07:43:54.000Z</Time>
            <Position>
              <LatitudeDegrees>41.1004876904189586639404296875</LatitudeDegrees>
              <LongitudeDegrees>-4.4271651841700077056884765625</LongitudeDegrees>
            </Position>
            <AltitudeMeters>827.4000244140625</AltitudeMeters>
            <DistanceMeters>8021.1785967664</DistanceMeters>
          </Trackpoint>
          <Trackpoint>
            <Time>2020-09-13T07:44:02.000Z</Time>
            <Position>
              <LatitudeDegrees>41.100508309900760650634765625</LatitudeDegrees>
              <LongitudeDegrees>-4.42687290720641613006591796875</LongitudeDegrees>
            </Position>
            <AltitudeMeters>828.20001220703125</AltitudeMeters>
            <DistanceMeters>8045.7998699226</DistanceMeters>
          </Trackpoint>
          <Trackpoint>
            <Time>2020-09-13T07:44:07.000Z</Time>
            <Position>
              <LatitudeDegrees>41.1004221439361572265625</LatitudeDegrees>
              <LongitudeDegrees>-4.42675053142011165618896484375</LongitudeDegrees>
            </Position>
            <AltitudeMeters>829.20001220703125</AltitudeMeters>
            <DistanceMeters>8059.8471198476</DistanceMeters>
          </Trackpoint>
          <Trackpoint>
            <Time>2020-09-13T07:44:16.000Z</Time>
            <Position>
              <LatitudeDegrees>41.100213266909122467041015625</LatitudeDegrees>
              <LongitudeDegrees>-4.42650460638105869293212890625</LongitudeDegrees>
            </Position>
            <AltitudeMeters>831.5999755859375</AltitudeMeters>
            <DistanceMeters>8090.9266669346</DistanceMeters>
          </Trackpoint>
          <Trackpoint>
            <Time>2020-09-13T07:44:23.000Z</Time>
            <Position>
              <LatitudeDegrees>41.100082509219646453857421875</LatitudeDegrees>
              <LongitudeDegrees>-4.42627846263349056243896484375</LongitudeDegrees>
            </Position>
            <AltitudeMeters>832.4000244140625</AltitudeMeters>
            <DistanceMeters>8114.8339605606</DistanceMeters>
          </Trackpoint>
          <Trackpoint>
            <Time>2020-09-13T07:44:31.000Z</Time>
            <Position>
              <LatitudeDegrees>41.09987019561231136322021484375</LatitudeDegrees>
              <LongitudeDegrees>-4.42600755952298641204833984375</LongitudeDegrees>
            </Position>
            <AltitudeMeters>833.5999755859375</AltitudeMeters>
            <DistanceMeters>8147.616386611</DistanceMeters>
          </Trackpoint>
          <Trackpoint>
            <Time>2020-09-13T07:44:43.000Z</Time>
            <Position>
              <LatitudeDegrees>41.09947406686842441558837890625</LatitudeDegrees>
              <LongitudeDegrees>-4.42567697726190090179443359375</LongitudeDegrees>
            </Position>
            <AltitudeMeters>834</AltitudeMeters>
            <DistanceMeters>8199.7002158149</DistanceMeters>
          </Trackpoint>
          <Trackpoint>
            <Time>2020-09-13T07:44:48.000Z</Time>
            <Position>
              <LatitudeDegrees>41.0992967896163463592529296875</LatitudeDegrees>
              <LongitudeDegrees>-4.42553632892668247222900390625</LongitudeDegrees>
            </Position>
            <AltitudeMeters>832.79998779296875</AltitudeMeters>
            <DistanceMeters>8222.689022306</DistanceMeters>
          </Trackpoint>
          <Trackpoint>
            <Time>2020-09-13T07:44:53.000Z</Time>
            <Position>
              <LatitudeDegrees>41.0991118848323822021484375</LatitudeDegrees>
              <LongitudeDegrees>-4.42538662813603878021240234375</LongitudeDegrees>
            </Position>
            <AltitudeMeters>831.4000244140625</AltitudeMeters>
            <DistanceMeters>8246.7973577989</DistanceMeters>
          </Trackpoint>
          <Trackpoint>
            <Time>2020-09-13T07:45:01.000Z</Time>
            <Position>
              <LatitudeDegrees>41.09882966615259647369384765625</LatitudeDegrees>
              <LongitudeDegrees>-4.42516149021685123443603515625</LongitudeDegrees>
            </Position>
            <AltitudeMeters>830</AltitudeMeters>
            <DistanceMeters>8283.4478692735</DistanceMeters>
          </Trackpoint>
          <Trackpoint>
            <Time>2020-09-13T07:45:10.000Z</Time>
            <Position>
              <LatitudeDegrees>41.09851651825010776519775390625</LatitudeDegrees>
              <LongitudeDegrees>-4.424895532429218292236328125</LongitudeDegrees>
            </Position>
            <AltitudeMeters>830</AltitudeMeters>
            <DistanceMeters>8324.8291393891</DistanceMeters>
          </Trackpoint>
          <Trackpoint>
            <Time>2020-09-13T07:45:12.000Z</Time>
            <Position>
              <LatitudeDegrees>41.0984448529779911041259765625</LatitudeDegrees>
              <LongitudeDegrees>-4.42484130151569843292236328125</LongitudeDegrees>
            </Position>
            <AltitudeMeters>830.5999755859375</AltitudeMeters>
            <DistanceMeters>8334.0113953078</DistanceMeters>
          </Trackpoint>
          <Trackpoint>
            <Time>2020-09-13T07:45:16.000Z</Time>
            <Position>
              <LatitudeDegrees>41.09830613248050212860107421875</LatitudeDegrees>
              <LongitudeDegrees>-4.42473233677446842193603515625</LongitudeDegrees>
            </Position>
            <AltitudeMeters>831.79998779296875</AltitudeMeters>
            <DistanceMeters>8351.9535865125</DistanceMeters>
          </Trackpoint>
          <Trackpoint>
            <Time>2020-09-13T07:45:21.000Z</Time>
            <Position>
              <LatitudeDegrees>41.09813296236097812652587890625</LatitudeDegrees>
              <LongitudeDegrees>-4.4245775230228900909423828125</LongitudeDegrees>
            </Position>
            <AltitudeMeters>833.4000244140625</AltitudeMeters>
            <DistanceMeters>8375.1937872919</DistanceMeters>
          </Trackpoint>
          <Trackpoint>
            <Time>2020-09-13T07:45:22.000Z</Time>
            <Position>
              <LatitudeDegrees>41.09810161404311656951904296875</LatitudeDegrees>
              <LongitudeDegrees>-4.42453938536345958709716796875</LongitudeDegrees>
            </Position>
            <AltitudeMeters>833.5999755859375</AltitudeMeters>
            <DistanceMeters>8379.9279873019</DistanceMeters>
          </Trackpoint>
          <Trackpoint>
            <Time>2020-09-13T07:45:28.000Z</Time>
            <Position>
              <LatitudeDegrees>41.09795342199504375457763671875</LatitudeDegrees>
              <LongitudeDegrees>-4.42430636845529079437255859375</LongitudeDegrees>
            </Position>
            <AltitudeMeters>833.4000244140625</AltitudeMeters>
            <DistanceMeters>8405.5023580045</DistanceMeters>
          </Trackpoint>
          <Trackpoint>
            <Time>2020-09-13T07:45:29.000Z</Time>
            <Position>
              <LatitudeDegrees>41.09791788272559642791748046875</LatitudeDegrees>
              <LongitudeDegrees>-4.424262531101703643798828125</LongitudeDegrees>
            </Position>
            <AltitudeMeters>833.20001220703125</AltitudeMeters>
            <DistanceMeters>8410.9030197153</DistanceMeters>
          </Trackpoint>
          <Trackpoint>
            <Time>2020-09-13T07:45:34.000Z</Time>
            <Position>
              <LatitudeDegrees>41.097764074802398681640625</LatitudeDegrees>
              <LongitudeDegrees>-4.4241051189601421356201171875</LongitudeDegrees>
            </Position>
            <AltitudeMeters>832.4000244140625</AltitudeMeters>
            <DistanceMeters>8432.5223804075</DistanceMeters>
          </Trackpoint>
          <Trackpoint>
            <Time>2020-09-13T07:45:43.000Z</Time>
            <Position>
              <LatitudeDegrees>41.097527705132961273193359375</LatitudeDegrees>
              <LongitudeDegrees>-4.4238687492907047271728515625</LongitudeDegrees>
            </Position>
            <AltitudeMeters>833</AltitudeMeters>
            <DistanceMeters>8465.4645940042</DistanceMeters>
          </Trackpoint>
          <Trackpoint>
            <Time>2020-09-13T07:45:52.000Z</Time>
            <Position>
              <LatitudeDegrees>41.09725378453731536865234375</LatitudeDegrees>
              <LongitudeDegrees>-4.4235897995531558990478515625</LongitudeDegrees>
            </Position>
            <AltitudeMeters>834.20001220703125</AltitudeMeters>
            <DistanceMeters>8503.8957047493</DistanceMeters>
          </Trackpoint>
          <Trackpoint>
            <Time>2020-09-13T07:45:58.000Z</Time>
            <Position>
              <LatitudeDegrees>41.09710098244249820709228515625</LatitudeDegrees>
              <LongitudeDegrees>-4.42340682260692119598388671875</LongitudeDegrees>
            </Position>
            <AltitudeMeters>834.4000244140625</AltitudeMeters>
            <DistanceMeters>8526.8040421533</DistanceMeters>
          </Trackpoint>
          <Trackpoint>
            <Time>2020-09-13T07:46:01.000Z</Time>
            <Position>
              <LatitudeDegrees>41.0970494337379932403564453125</LatitudeDegrees>
              <LongitudeDegrees>-4.42331210710108280181884765625</LongitudeDegrees>
            </Position>
            <AltitudeMeters>834.79998779296875</AltitudeMeters>
            <DistanceMeters>8536.6033193157</DistanceMeters>
          </Trackpoint>
          <Trackpoint>
            <Time>2020-09-13T07:46:10.000Z</Time>
            <Position>
              <LatitudeDegrees>41.096926890313625335693359375</LatitudeDegrees>
              <LongitudeDegrees>-4.4230443052947521209716796875</LongitudeDegrees>
            </Position>
            <AltitudeMeters>835.5999755859375</AltitudeMeters>
            <DistanceMeters>8562.882630309</DistanceMeters>
          </Trackpoint>
          <Trackpoint>
            <Time>2020-09-13T07:46:20.000Z</Time>
            <Position>
              <LatitudeDegrees>41.09674374572932720184326171875</LatitudeDegrees>
              <LongitudeDegrees>-4.42275571636855602264404296875</LongitudeDegrees>
            </Position>
            <AltitudeMeters>837</AltitudeMeters>
            <DistanceMeters>8594.5285236898</DistanceMeters>
          </Trackpoint>
          <Trackpoint>
            <Time>2020-09-13T07:46:26.000Z</Time>
            <Position>
              <LatitudeDegrees>41.09654258005321025848388671875</LatitudeDegrees>
              <LongitudeDegrees>-4.42269201390445232391357421875</LongitudeDegrees>
            </Position>
            <AltitudeMeters>837.20001220703125</AltitudeMeters>
            <DistanceMeters>8617.5473600109</DistanceMeters>
          </Trackpoint>
          <Trackpoint>
            <Time>2020-09-13T07:46:31.000Z</Time>
            <Position>
              <LatitudeDegrees>41.09635700471699237823486328125</LatitudeDegrees>
              <LongitudeDegrees>-4.4225967116653919219970703125</LongitudeDegrees>
            </Position>
            <AltitudeMeters>837.79998779296875</AltitudeMeters>
            <DistanceMeters>8639.6949050766</DistanceMeters>
          </Trackpoint>
          <Trackpoint>
            <Time>2020-09-13T07:46:39.000Z</Time>
            <Position>
              <LatitudeDegrees>41.09609733335673809051513671875</LatitudeDegrees>
              <LongitudeDegrees>-4.42235740832984447479248046875</LongitudeDegrees>
            </Position>
            <AltitudeMeters>838.20001220703125</AltitudeMeters>
            <DistanceMeters>8674.8831575491</DistanceMeters>
          </Trackpoint>
          <Trackpoint>
            <Time>2020-09-13T07:46:52.000Z</Time>
            <Position>
              <LatitudeDegrees>41.09568142332136631011962890625</LatitudeDegrees>
              <LongitudeDegrees>-4.421922303736209869384765625</LongitudeDegrees>
            </Position>
            <AltitudeMeters>833.79998779296875</AltitudeMeters>
            <DistanceMeters>8733.8310556147</DistanceMeters>
          </Trackpoint>
          <Trackpoint>
            <Time>2020-09-13T07:46:59.000Z</Time>
            <Position>
              <LatitudeDegrees>41.0954568721354007720947265625</LatitudeDegrees>
              <LongitudeDegrees>-4.4216861017048358917236328125</LongitudeDegrees>
            </Position>
            <AltitudeMeters>834.20001220703125</AltitudeMeters>
            <DistanceMeters>8765.7240935823</DistanceMeters>
          </Trackpoint>
          <Trackpoint>
            <Time>2020-09-13T07:47:02.000Z</Time>
            <Position>
              <LatitudeDegrees>41.095361150801181793212890625</LatitudeDegrees>
              <LongitudeDegrees>-4.4215898774564266204833984375</LongitudeDegrees>
            </Position>
            <AltitudeMeters>834.79998779296875</AltitudeMeters>
            <DistanceMeters>8779.0901338473</DistanceMeters>
          </Trackpoint>
          <Trackpoint>
            <Time>2020-09-13T07:47:05.000Z</Time>
            <Position>
              <LatitudeDegrees>41.09526165761053562164306640625</LatitudeDegrees>
              <LongitudeDegrees>-4.42149457521736621856689453125</LongitudeDegrees>
            </Position>
            <AltitudeMeters>835.20001220703125</AltitudeMeters>
            <DistanceMeters>8792.7482200668</DistanceMeters>
          </Trackpoint>
          <Trackpoint>
            <Time>2020-09-13T07:47:08.000Z</Time>
            <Position>
              <LatitudeDegrees>41.0951598174870014190673828125</LatitudeDegrees>
              <LongitudeDegrees>-4.4213900528848171234130859375</LongitudeDegrees>
            </Position>
            <AltitudeMeters>835.20001220703125</AltitudeMeters>
            <DistanceMeters>8807.0783620205</DistanceMeters>
          </Trackpoint>
          <Trackpoint>
            <Time>2020-09-13T07:47:14.000Z</Time>
            <Position>
              <LatitudeDegrees>41.09494213946163654327392578125</LatitudeDegrees>
              <LongitudeDegrees>-4.42117555998265743255615234375</LongitudeDegrees>
            </Position>
            <AltitudeMeters>835.20001220703125</AltitudeMeters>
            <DistanceMeters>8837.2558902389</DistanceMeters>
          </Trackpoint>
          <Trackpoint>
            <Time>2020-09-13T07:47:18.000Z</Time>
            <Position>
              <LatitudeDegrees>41.0947983898222446441650390625</LatitudeDegrees>
              <LongitudeDegrees>-4.42102317698299884796142578125</LongitudeDegrees>
            </Position>
            <AltitudeMeters>835.20001220703125</AltitudeMeters>
            <DistanceMeters>8857.7345330214</DistanceMeters>
          </Trackpoint>
          <Trackpoint>
            <Time>2020-09-13T07:47:20.000Z</Time>
            <Position>
              <LatitudeDegrees>41.09473493881523609161376953125</LatitudeDegrees>
              <LongitudeDegrees>-4.4209417887032032012939453125</LongitudeDegrees>
            </Position>
            <AltitudeMeters>835</AltitudeMeters>
            <DistanceMeters>8867.5568207756</DistanceMeters>
          </Trackpoint>
          <Trackpoint>
            <Time>2020-09-13T07:47:23.000Z</Time>
            <Position>
              <LatitudeDegrees>41.09468615613877773284912109375</LatitudeDegrees>
              <LongitudeDegrees>-4.42081145010888576507568359375</LongitudeDegrees>
            </Position>
            <AltitudeMeters>835</AltitudeMeters>
            <DistanceMeters>8879.7639630079</DistanceMeters>
          </Trackpoint>
          <Trackpoint>
            <Time>2020-09-13T07:47:27.000Z</Time>
            <Position>
              <LatitudeDegrees>41.09473577700555324554443359375</LatitudeDegrees>
              <LongitudeDegrees>-4.42063107155263423919677734375</LongitudeDegrees>
            </Position>
            <AltitudeMeters>835</AltitudeMeters>
            <DistanceMeters>8895.8703603729</DistanceMeters>
          </Trackpoint>
          <Trackpoint>
            <Time>2020-09-13T07:47:29.000Z</Time>
            <Position>
              <LatitudeDegrees>41.09477701596915721893310546875</LatitudeDegrees>
              <LongitudeDegrees>-4.42054876126348972320556640625</LongitudeDegrees>
            </Position>
            <AltitudeMeters>835</AltitudeMeters>
            <DistanceMeters>8904.1611348779</DistanceMeters>
          </Trackpoint>
          <Trackpoint>
            <Time>2020-09-13T07:47:33.000Z</Time>
            <Position>
              <LatitudeDegrees>41.09487927518784999847412109375</LatitudeDegrees>
              <LongitudeDegrees>-4.42038170993328094482421875</LongitudeDegrees>
            </Position>
            <AltitudeMeters>835.4000244140625</AltitudeMeters>
            <DistanceMeters>8922.2132095151</DistanceMeters>
          </Trackpoint>
          <Trackpoint>
            <Time>2020-09-13T07:47:34.000Z</Time>
            <Position>
              <LatitudeDegrees>41.09489880502223968505859375</LatitudeDegrees>
              <LongitudeDegrees>-4.42034860141575336456298828125</LongitudeDegrees>
            </Position>
            <AltitudeMeters>835.4000244140625</AltitudeMeters>
            <DistanceMeters>8925.7381754989</DistanceMeters>
          </Trackpoint>
          <Trackpoint>
            <Time>2020-09-13T07:47:38.000Z</Time>
            <Position>
              <LatitudeDegrees>41.0950081050395965576171875</LatitudeDegrees>
              <LongitudeDegrees>-4.42017945460975170135498046875</LongitudeDegrees>
            </Position>
            <AltitudeMeters>836</AltitudeMeters>
            <DistanceMeters>8944.4272995247</DistanceMeters>
          </Trackpoint>
          <Trackpoint>
            <Time>2020-09-13T07:47:44.000Z</Time>
            <Position>
              <LatitudeDegrees>41.09511715359985828399658203125</LatitudeDegrees>
              <LongitudeDegrees>-4.4199654646217823028564453125</LongitudeDegrees>
            </Position>
            <AltitudeMeters>836.5999755859375</AltitudeMeters>
            <DistanceMeters>8966.0950574723</DistanceMeters>
          </Trackpoint>
          <Trackpoint>
            <Time>2020-09-13T07:47:48.000Z</Time>
            <Position>
              <LatitudeDegrees>41.0951199196279048919677734375</LatitudeDegrees>
              <LongitudeDegrees>-4.41985926590859889984130859375</LongitudeDegrees>
            </Position>
            <AltitudeMeters>836.79998779296875</AltitudeMeters>
            <DistanceMeters>8975.0083404003</DistanceMeters>
          </Trackpoint>
          <Trackpoint>
            <Time>2020-09-13T07:48:26.000Z</Time>
            <Position>
              <LatitudeDegrees>41.095123104751110076904296875</LatitudeDegrees>
              <LongitudeDegrees>-4.41986395977437496185302734375</LongitudeDegrees>
            </Position>
            <AltitudeMeters>836.79998779296875</AltitudeMeters>
            <DistanceMeters>8975.5374267541</DistanceMeters>
          </Trackpoint>
          <Trackpoint>
            <Time>2020-09-13T07:48:27.000Z</Time>
            <Position>
              <LatitudeDegrees>41.09512285329401493072509765625</LatitudeDegrees>
              <LongitudeDegrees>-4.41986404359340667724609375</LongitudeDegrees>
            </Position>
            <AltitudeMeters>836.79998779296875</AltitudeMeters>
            <DistanceMeters>8975.6324534684</DistanceMeters>
          </Trackpoint>
          <Trackpoint>
            <Time>2020-09-13T07:48:29.000Z</Time>
            <Position>
              <LatitudeDegrees>41.09512251801788806915283203125</LatitudeDegrees>
              <LongitudeDegrees>-4.41986404359340667724609375</LongitudeDegrees>
            </Position>
            <AltitudeMeters>836.79998779296875</AltitudeMeters>
            <DistanceMeters>8975.6324534684</DistanceMeters>
          </Trackpoint>
          <Trackpoint>
            <Time>2020-09-13T07:48:34.000Z</Time>
            <Position>
              <LatitudeDegrees>41.09512419439852237701416015625</LatitudeDegrees>
              <LongitudeDegrees>-4.41977326758205890655517578125</LongitudeDegrees>
            </Position>
            <AltitudeMeters>837</AltitudeMeters>
            <DistanceMeters>8983.2488312871</DistanceMeters>
          </Trackpoint>
          <Trackpoint>
            <Time>2020-09-13T07:48:36.000Z</Time>
            <Position>
              <LatitudeDegrees>41.0951420478522777557373046875</LatitudeDegrees>
              <LongitudeDegrees>-4.41971878521144390106201171875</LongitudeDegrees>
            </Position>
            <AltitudeMeters>837</AltitudeMeters>
            <DistanceMeters>8988.2311681027</DistanceMeters>
          </Trackpoint>
          <Trackpoint>
            <Time>2020-09-13T07:48:40.000Z</Time>
            <Position>
              <LatitudeDegrees>41.09520399011671543121337890625</LatitudeDegrees>
              <LongitudeDegrees>-4.41960764117538928985595703125</LongitudeDegrees>
            </Position>
            <AltitudeMeters>837.4000244140625</AltitudeMeters>
            <DistanceMeters>8999.8259849662</DistanceMeters>
          </Trackpoint>
          <Trackpoint>
            <Time>2020-09-13T07:48:45.000Z</Time>
            <Position>
              <LatitudeDegrees>41.095282696187496185302734375</LatitudeDegrees>
              <LongitudeDegrees>-4.41948208026587963104248046875</LongitudeDegrees>
            </Position>
            <AltitudeMeters>837.79998779296875</AltitudeMeters>
            <DistanceMeters>9013.5250013052</DistanceMeters>
          </Trackpoint>
          <Trackpoint>
            <Time>2020-09-13T07:48:49.000Z</Time>
            <Position>
              <LatitudeDegrees>41.09536726959049701690673828125</LatitudeDegrees>
              <LongitudeDegrees>-4.41937076859176158905029296875</LongitudeDegrees>
            </Position>
            <AltitudeMeters>838.20001220703125</AltitudeMeters>
            <DistanceMeters>9026.7831862511</DistanceMeters>
          </Trackpoint>
          <Trackpoint>
            <Time>2020-09-13T07:48:57.000Z</Time>
            <Position>
              <LatitudeDegrees>41.09554127790033817291259765625</LatitudeDegrees>
              <LongitudeDegrees>-4.4191118516027927398681640625</LongitudeDegrees>
            </Position>
            <AltitudeMeters>838.79998779296875</AltitudeMeters>
            <DistanceMeters>9055.8821599126</DistanceMeters>
          </Trackpoint>
          <Trackpoint>
            <Time>2020-09-13T07:49:03.000Z</Time>
            <Position>
              <LatitudeDegrees>41.0956727899610996246337890625</LatitudeDegrees>
              <LongitudeDegrees>-4.418890736997127532958984375</LongitudeDegrees>
            </Position>
            <AltitudeMeters>839</AltitudeMeters>
            <DistanceMeters>9079.5092487253</DistanceMeters>
          </Trackpoint>
          <Trackpoint>
            <Time>2020-09-13T07:49:07.000Z</Time>
            <Position>
              <LatitudeDegrees>41.09577312134206295013427734375</LatitudeDegrees>
              <LongitudeDegrees>-4.41873122937977313995361328125</LongitudeDegrees>
            </Position>
            <AltitudeMeters>838.79998779296875</AltitudeMeters>
            <DistanceMeters>9096.9362258287</DistanceMeters>
          </Trackpoint>
          <Trackpoint>
            <Time>2020-09-13T07:49:14.000Z</Time>
            <Position>
              <LatitudeDegrees>41.0959468781948089599609375</LatitudeDegrees>
              <LongitudeDegrees>-4.4184429757297039031982421875</LongitudeDegrees>
            </Position>
            <AltitudeMeters>838.79998779296875</AltitudeMeters>
            <DistanceMeters>9127.8977318506</DistanceMeters>
          </Trackpoint>
          <Trackpoint>
            <Time>2020-09-13T07:49:16.000Z</Time>
            <Position>
              <LatitudeDegrees>41.0959946550428867340087890625</LatitudeDegrees>
              <LongitudeDegrees>-4.4183618389070034027099609375</LongitudeDegrees>
            </Position>
            <AltitudeMeters>838.79998779296875</AltitudeMeters>
            <DistanceMeters>9136.5347140494</DistanceMeters>
          </Trackpoint>
          <Trackpoint>
            <Time>2020-09-13T07:49:18.000Z</Time>
            <Position>
              <LatitudeDegrees>41.09603782184422016143798828125</LatitudeDegrees>
              <LongitudeDegrees>-4.41828229464590549468994140625</LongitudeDegrees>
            </Position>
            <AltitudeMeters>839</AltitudeMeters>
            <DistanceMeters>9144.7571335435</DistanceMeters>
          </Trackpoint>
          <Trackpoint>
            <Time>2020-09-13T07:49:20.000Z</Time>
            <Position>
              <LatitudeDegrees>41.09608023427426815032958984375</LatitudeDegrees>
              <LongitudeDegrees>-4.41820920445024967193603515625</LongitudeDegrees>
            </Position>
            <AltitudeMeters>839</AltitudeMeters>
            <DistanceMeters>9152.4946658906</DistanceMeters>
          </Trackpoint>
          <Trackpoint>
            <Time>2020-09-13T07:49:22.000Z</Time>
            <Position>
              <LatitudeDegrees>41.09612231142818927764892578125</LatitudeDegrees>
              <LongitudeDegrees>-4.41813544370234012603759765625</LongitudeDegrees>
            </Position>
            <AltitudeMeters>839</AltitudeMeters>
            <DistanceMeters>9160.2543404797</DistanceMeters>
          </Trackpoint>
          <Trackpoint>
            <Time>2020-09-13T07:49:24.000Z</Time>
            <Position>
              <LatitudeDegrees>41.0961669869720935821533203125</LatitudeDegrees>
              <LongitudeDegrees>-4.418053887784481048583984375</LongitudeDegrees>
            </Position>
            <AltitudeMeters>839</AltitudeMeters>
            <DistanceMeters>9168.7111841838</DistanceMeters>
          </Trackpoint>
          <Trackpoint>
            <Time>2020-09-13T07:49:26.000Z</Time>
            <Position>
              <LatitudeDegrees>41.09621518291532993316650390625</LatitudeDegrees>
              <LongitudeDegrees>-4.41796579398214817047119140625</LongitudeDegrees>
            </Position>
            <AltitudeMeters>839</AltitudeMeters>
            <DistanceMeters>9177.8421587105</DistanceMeters>
          </Trackpoint>
          <Trackpoint>
            <Time>2020-09-13T07:49:29.000Z</Time>
            <Position>
              <LatitudeDegrees>41.09628693200647830963134765625</LatitudeDegrees>
              <LongitudeDegrees>-4.41783956252038478851318359375</LongitudeDegrees>
            </Position>
            <AltitudeMeters>839.20001220703125</AltitudeMeters>
            <DistanceMeters>9191.1044295936</DistanceMeters>
          </Trackpoint>
          <Trackpoint>
            <Time>2020-09-13T07:49:30.000Z</Time>
            <Position>
              <LatitudeDegrees>41.0963111557066440582275390625</LatitudeDegrees>
              <LongitudeDegrees>-4.4177979044616222381591796875</LongitudeDegrees>
            </Position>
            <AltitudeMeters>839.20001220703125</AltitudeMeters>
            <DistanceMeters>9195.5188270571</DistanceMeters>
          </Trackpoint>
          <Trackpoint>
            <Time>2020-09-13T07:49:32.000Z</Time>
            <Position>
              <LatitudeDegrees>41.0963591001927852630615234375</LatitudeDegrees>
              <LongitudeDegrees>-4.41771517507731914520263671875</LongitudeDegrees>
            </Position>
            <AltitudeMeters>839.20001220703125</AltitudeMeters>
            <DistanceMeters>9204.2726392954</DistanceMeters>
          </Trackpoint>
          <Trackpoint>
            <Time>2020-09-13T07:49:33.000Z</Time>
            <Position>
              <LatitudeDegrees>41.09638298861682415008544921875</LatitudeDegrees>
              <LongitudeDegrees>-4.41767427138984203338623046875</LongitudeDegrees>
            </Position>
            <AltitudeMeters>839.20001220703125</AltitudeMeters>
            <DistanceMeters>9208.6127705679</DistanceMeters>
          </Trackpoint>
          <Trackpoint>
            <Time>2020-09-13T07:49:40.000Z</Time>
            <Position>
              <LatitudeDegrees>41.0965495370328426361083984375</LatitudeDegrees>
              <LongitudeDegrees>-4.41737872548401355743408203125</LongitudeDegrees>
            </Position>
            <AltitudeMeters>839.5999755859375</AltitudeMeters>
            <DistanceMeters>9239.5669843572</DistanceMeters>
          </Trackpoint>
          <Trackpoint>
            <Time>2020-09-13T07:49:41.000Z</Time>
            <Position>
              <LatitudeDegrees>41.096572838723659515380859375</LatitudeDegrees>
              <LongitudeDegrees>-4.4173389114439487457275390625</LongitudeDegrees>
            </Position>
            <AltitudeMeters>839.5999755859375</AltitudeMeters>
            <DistanceMeters>9243.7943382911</DistanceMeters>
          </Trackpoint>
          <Trackpoint>
            <Time>2020-09-13T07:49:42.000Z</Time>
            <Position>
              <LatitudeDegrees>41.09659731388092041015625</LatitudeDegrees>
              <LongitudeDegrees>-4.41729976795613765716552734375</LongitudeDegrees>
            </Position>
            <AltitudeMeters>839.5999755859375</AltitudeMeters>
            <DistanceMeters>9248.0610271843</DistanceMeters>
          </Trackpoint>
          <Trackpoint>
            <Time>2020-09-13T07:49:43.000Z</Time>
            <Position>
              <LatitudeDegrees>41.09662069939076900482177734375</LatitudeDegrees>
              <LongitudeDegrees>-4.4172587804496288299560546875</LongitudeDegrees>
            </Position>
            <AltitudeMeters>839.5999755859375</AltitudeMeters>
            <DistanceMeters>9252.3740258482</DistanceMeters>
          </Trackpoint>
          <Trackpoint>
            <Time>2020-09-13T07:49:44.000Z</Time>
            <Position>
              <LatitudeDegrees>41.09664819203317165374755859375</LatitudeDegrees>
              <LongitudeDegrees>-4.41721661947667598724365234375</LongitudeDegrees>
            </Position>
            <AltitudeMeters>839.79998779296875</AltitudeMeters>
            <DistanceMeters>9257.0506533881</DistanceMeters>
          </Trackpoint>
          <Trackpoint>
            <Time>2020-09-13T07:49:50.000Z</Time>
            <Position>
              <LatitudeDegrees>41.0968157462775707244873046875</LatitudeDegrees>
              <LongitudeDegrees>-4.416952170431613922119140625</LongitudeDegrees>
            </Position>
            <AltitudeMeters>840</AltitudeMeters>
            <DistanceMeters>9286.0299064718</DistanceMeters>
          </Trackpoint>
          <Trackpoint>
            <Time>2020-09-13T07:49:55.000Z</Time>
            <Position>
              <LatitudeDegrees>41.09693770296871662139892578125</LatitudeDegrees>
              <LongitudeDegrees>-4.41673868335783481597900390625</LongitudeDegrees>
            </Position>
            <AltitudeMeters>840.20001220703125</AltitudeMeters>
            <DistanceMeters>9308.500057657</DistanceMeters>
          </Trackpoint>
          <Trackpoint>
            <Time>2020-09-13T07:49:57.000Z</Time>
            <Position>
              <LatitudeDegrees>41.096988581120967864990234375</LatitudeDegrees>
              <LongitudeDegrees>-4.41665486432611942291259765625</LongitudeDegrees>
            </Position>
            <AltitudeMeters>840.4000244140625</AltitudeMeters>
            <DistanceMeters>9317.5280956489</DistanceMeters>
          </Trackpoint>
          <Trackpoint>
            <Time>2020-09-13T07:49:58.000Z</Time>
            <Position>
              <LatitudeDegrees>41.09701104462146759033203125</LatitudeDegrees>
              <LongitudeDegrees>-4.4166113622486591339111328125</LongitudeDegrees>
            </Position>
            <AltitudeMeters>840.4000244140625</AltitudeMeters>
            <DistanceMeters>9321.9506679296</DistanceMeters>
          </Trackpoint>
          <Trackpoint>
            <Time>2020-09-13T07:49:59.000Z</Time>
            <Position>
              <LatitudeDegrees>41.0970336757600307464599609375</LatitudeDegrees>
              <LongitudeDegrees>-4.41656886599957942962646484375</LongitudeDegrees>
            </Position>
            <AltitudeMeters>840.4000244140625</AltitudeMeters>
            <DistanceMeters>9326.3156949967</DistanceMeters>
          </Trackpoint>
          <Trackpoint>
            <Time>2020-09-13T07:50:03.000Z</Time>
            <Position>
              <LatitudeDegrees>41.097137443721294403076171875</LatitudeDegrees>
              <LongitudeDegrees>-4.41639904864132404327392578125</LongitudeDegrees>
            </Position>
            <AltitudeMeters>840.79998779296875</AltitudeMeters>
            <DistanceMeters>9344.6536350875</DistanceMeters>
          </Trackpoint>
          <Trackpoint>
            <Time>2020-09-13T07:50:09.000Z</Time>
            <Position>
              <LatitudeDegrees>41.09729669988155364990234375</LatitudeDegrees>
              <LongitudeDegrees>-4.41612663678824901580810546875</LongitudeDegrees>
            </Position>
            <AltitudeMeters>841</AltitudeMeters>
            <DistanceMeters>9373.5719052536</DistanceMeters>
          </Trackpoint>
          <Trackpoint>
            <Time>2020-09-13T07:50:10.000Z</Time>
            <Position>
              <LatitudeDegrees>41.0973230190575122833251953125</LatitudeDegrees>
              <LongitudeDegrees>-4.41608170978724956512451171875</LongitudeDegrees>
            </Position>
            <AltitudeMeters>841</AltitudeMeters>
            <DistanceMeters>9378.3459929093</DistanceMeters>
          </Trackpoint>
          <Trackpoint>
            <Time>2020-09-13T07:50:13.000Z</Time>
            <Position>
              <LatitudeDegrees>41.097404323518276214599609375</LatitudeDegrees>
              <LongitudeDegrees>-4.41594776697456836700439453125</LongitudeDegrees>
            </Position>
            <AltitudeMeters>840.79998779296875</AltitudeMeters>
            <DistanceMeters>9392.771912004</DistanceMeters>
          </Trackpoint>
          <Trackpoint>
            <Time>2020-09-13T07:50:14.000Z</Time>
            <Position>
              <LatitudeDegrees>41.09743106178939342498779296875</LatitudeDegrees>
              <LongitudeDegrees>-4.41590334288775920867919921875</LongitudeDegrees>
            </Position>
            <AltitudeMeters>840.79998779296875</AltitudeMeters>
            <DistanceMeters>9397.5393748942</DistanceMeters>
          </Trackpoint>
          <Trackpoint>
            <Time>2020-09-13T07:50:23.000Z</Time>
            <Position>
              <LatitudeDegrees>41.09764463268220424652099609375</LatitudeDegrees>
              <LongitudeDegrees>-4.41552515141665935516357421875</LongitudeDegrees>
            </Position>
            <AltitudeMeters>840.5999755859375</AltitudeMeters>
            <DistanceMeters>9437.1788436307</DistanceMeters>
          </Trackpoint>
          <Trackpoint>
            <Time>2020-09-13T07:50:30.000Z</Time>
            <Position>
              <LatitudeDegrees>41.09783205203711986541748046875</LatitudeDegrees>
              <LongitudeDegrees>-4.41525223664939403533935546875</LongitudeDegrees>
            </Position>
            <AltitudeMeters>840.20001220703125</AltitudeMeters>
            <DistanceMeters>9468.1488064911</DistanceMeters>
          </Trackpoint>
          <Trackpoint>
            <Time>2020-09-13T07:50:32.000Z</Time>
            <Position>
              <LatitudeDegrees>41.097895167768001556396484375</LatitudeDegrees>
              <LongitudeDegrees>-4.4151827506721019744873046875</LongitudeDegrees>
            </Position>
            <AltitudeMeters>840</AltitudeMeters>
            <DistanceMeters>9477.2773083082</DistanceMeters>
          </Trackpoint>
          <Trackpoint>
            <Time>2020-09-13T07:50:40.000Z</Time>
            <Position>
              <LatitudeDegrees>41.09821074642241001129150390625</LatitudeDegrees>
              <LongitudeDegrees>-4.41496767103672027587890625</LongitudeDegrees>
            </Position>
            <AltitudeMeters>839</AltitudeMeters>
            <DistanceMeters>9516.7638525895</DistanceMeters>
          </Trackpoint>
          <Trackpoint>
            <Time>2020-09-13T07:50:44.000Z</Time>
            <Position>
              <LatitudeDegrees>41.09839246608316898345947265625</LatitudeDegrees>
              <LongitudeDegrees>-4.4148753024637699127197265625</LongitudeDegrees>
            </Position>
            <AltitudeMeters>838.5999755859375</AltitudeMeters>
            <DistanceMeters>9538.4228569817</DistanceMeters>
          </Trackpoint>
          <Trackpoint>
            <Time>2020-09-13T07:50:46.000Z</Time>
            <Position>
              <LatitudeDegrees>41.098488606512546539306640625</LatitudeDegrees>
              <LongitudeDegrees>-4.4148263521492481231689453125</LongitudeDegrees>
            </Position>
            <AltitudeMeters>838.4000244140625</AltitudeMeters>
            <DistanceMeters>9549.8837248352</DistanceMeters>
          </Trackpoint>
          <Trackpoint>
            <Time>2020-09-13T07:50:47.000Z</Time>
            <Position>
              <LatitudeDegrees>41.09853730536997318267822265625</LatitudeDegrees>
              <LongitudeDegrees>-4.4148008711636066436767578125</LongitudeDegrees>
            </Position>
            <AltitudeMeters>838.20001220703125</AltitudeMeters>
            <DistanceMeters>9555.7091027007</DistanceMeters>
          </Trackpoint>
          <Trackpoint>
            <Time>2020-09-13T07:50:51.000Z</Time>
            <Position>
              <LatitudeDegrees>41.09873712994158267974853515625</LatitudeDegrees>
              <LongitudeDegrees>-4.41469215787947177886962890625</LongitudeDegrees>
            </Position>
            <AltitudeMeters>837.5999755859375</AltitudeMeters>
            <DistanceMeters>9579.746729485</DistanceMeters>
          </Trackpoint>
          <Trackpoint>
            <Time>2020-09-13T07:50:53.000Z</Time>
            <Position>
              <LatitudeDegrees>41.098830588161945343017578125</LatitudeDegrees>
              <LongitudeDegrees>-4.41463801078498363494873046875</LongitudeDegrees>
            </Position>
            <AltitudeMeters>837.20001220703125</AltitudeMeters>
            <DistanceMeters>9591.0975501911</DistanceMeters>
          </Trackpoint>
          <Trackpoint>
            <Time>2020-09-13T07:51:02.000Z</Time>
            <Position>
              <LatitudeDegrees>41.09920232556760311126708984375</LatitudeDegrees>
              <LongitudeDegrees>-4.4143573008477687835693359375</LongitudeDegrees>
            </Position>
            <AltitudeMeters>837.79998779296875</AltitudeMeters>
            <DistanceMeters>9638.7026146784</DistanceMeters>
          </Trackpoint>
          <Trackpoint>
            <Time>2020-09-13T07:51:04.000Z</Time>
            <Position>
              <LatitudeDegrees>41.09928698278963565826416015625</LatitudeDegrees>
              <LongitudeDegrees>-4.41426484845578670501708984375</LongitudeDegrees>
            </Position>
            <AltitudeMeters>838</AltitudeMeters>
            <DistanceMeters>9650.9056876782</DistanceMeters>
          </Trackpoint>
          <Trackpoint>
            <Time>2020-09-13T07:51:06.000Z</Time>
            <Position>
              <LatitudeDegrees>41.09935688786208629608154296875</LatitudeDegrees>
              <LongitudeDegrees>-4.414184801280498504638671875</LongitudeDegrees>
            </Position>
            <AltitudeMeters>838.20001220703125</AltitudeMeters>
            <DistanceMeters>9661.1826412194</DistanceMeters>
          </Trackpoint>
          <Trackpoint>
            <Time>2020-09-13T07:51:08.000Z</Time>
            <Position>
              <LatitudeDegrees>41.09942964278161525726318359375</LatitudeDegrees>
              <LongitudeDegrees>-4.41409553401172161102294921875</LongitudeDegrees>
            </Position>
            <AltitudeMeters>838.4000244140625</AltitudeMeters>
            <DistanceMeters>9672.2114729663</DistanceMeters>
          </Trackpoint>
          <Trackpoint>
            <Time>2020-09-13T07:51:10.000Z</Time>
            <Position>
              <LatitudeDegrees>41.0995019786059856414794921875</LatitudeDegrees>
              <LongitudeDegrees>-4.41400475800037384033203125</LongitudeDegrees>
            </Position>
            <AltitudeMeters>838.4000244140625</AltitudeMeters>
            <DistanceMeters>9683.2925820933</DistanceMeters>
          </Trackpoint>
          <Trackpoint>
            <Time>2020-09-13T07:51:14.000Z</Time>
            <Position>
              <LatitudeDegrees>41.09963701106607913970947265625</LatitudeDegrees>
              <LongitudeDegrees>-4.4138329289853572845458984375</LongitudeDegrees>
            </Position>
            <AltitudeMeters>838.79998779296875</AltitudeMeters>
            <DistanceMeters>9704.1153616996</DistanceMeters>
          </Trackpoint>
          <Trackpoint>
            <Time>2020-09-13T07:51:20.000Z</Time>
            <Position>
              <LatitudeDegrees>41.09980297274887561798095703125</LatitudeDegrees>
              <LongitudeDegrees>-4.4136354513466358184814453125</LongitudeDegrees>
            </Position>
            <AltitudeMeters>839</AltitudeMeters>
            <DistanceMeters>9728.92588872</DistanceMeters>
          </Trackpoint>
          <Trackpoint>
            <Time>2020-09-13T07:51:28.000Z</Time>
            <Position>
              <LatitudeDegrees>41.0999787412583827972412109375</LatitudeDegrees>
              <LongitudeDegrees>-4.41341995261609554290771484375</LongitudeDegrees>
            </Position>
            <AltitudeMeters>839</AltitudeMeters>
            <DistanceMeters>9755.5608444285</DistanceMeters>
          </Trackpoint>
          <Trackpoint>
            <Time>2020-09-13T07:51:30.000Z</Time>
            <Position>
              <LatitudeDegrees>41.1000156216323375701904296875</LatitudeDegrees>
              <LongitudeDegrees>-4.41336446441709995269775390625</LongitudeDegrees>
            </Position>
            <AltitudeMeters>839</AltitudeMeters>
            <DistanceMeters>9761.7667509725</DistanceMeters>
          </Trackpoint>
          <Trackpoint>
            <Time>2020-09-13T07:51:38.000Z</Time>
            <Position>
              <LatitudeDegrees>41.10019843094050884246826171875</LatitudeDegrees>
              <LongitudeDegrees>-4.41314670257270336151123046875</LongitudeDegrees>
            </Position>
            <AltitudeMeters>838.79998779296875</AltitudeMeters>
            <DistanceMeters>9789.1086961967</DistanceMeters>
          </Trackpoint>
          <Trackpoint>
            <Time>2020-09-13T07:51:49.000Z</Time>
            <Position>
              <LatitudeDegrees>41.1005071364343166351318359375</LatitudeDegrees>
              <LongitudeDegrees>-4.4127607159316539764404296875</LongitudeDegrees>
            </Position>
            <AltitudeMeters>839</AltitudeMeters>
            <DistanceMeters>9836.317084185</DistanceMeters>
          </Trackpoint>
          <Trackpoint>
            <Time>2020-09-13T07:51:57.000Z</Time>
            <Position>
              <LatitudeDegrees>41.100771166384220123291015625</LatitudeDegrees>
              <LongitudeDegrees>-4.412428624927997589111328125</LongitudeDegrees>
            </Position>
            <AltitudeMeters>841</AltitudeMeters>
            <DistanceMeters>9876.8066056484</DistanceMeters>
          </Trackpoint>
          <Trackpoint>
            <Time>2020-09-13T07:52:08.000Z</Time>
            <Position>
              <LatitudeDegrees>41.1010972224175930023193359375</LatitudeDegrees>
              <LongitudeDegrees>-4.411992095410823822021484375</LongitudeDegrees>
            </Position>
            <AltitudeMeters>843.79998779296875</AltitudeMeters>
            <DistanceMeters>9928.3574377167</DistanceMeters>
          </Trackpoint>
          <Trackpoint>
            <Time>2020-09-13T07:52:09.000Z</Time>
            <Position>
              <LatitudeDegrees>41.10112898983061313629150390625</LatitudeDegrees>
              <LongitudeDegrees>-4.41195731051266193389892578125</LongitudeDegrees>
            </Position>
            <AltitudeMeters>843.79998779296875</AltitudeMeters>
            <DistanceMeters>9932.941430287</DistanceMeters>
          </Trackpoint>
          <Trackpoint>
            <Time>2020-09-13T07:52:10.000Z</Time>
            <Position>
              <LatitudeDegrees>41.1011558957397937774658203125</LatitudeDegrees>
              <LongitudeDegrees>-4.411921016871929168701171875</LongitudeDegrees>
            </Position>
            <AltitudeMeters>843.79998779296875</AltitudeMeters>
            <DistanceMeters>9937.2102350687</DistanceMeters>
          </Trackpoint>
          <Trackpoint>
            <Time>2020-09-13T07:52:18.000Z</Time>
            <Position>
              <LatitudeDegrees>41.10139511525630950927734375</LatitudeDegrees>
              <LongitudeDegrees>-4.4116170890629291534423828125</LongitudeDegrees>
            </Position>
            <AltitudeMeters>844</AltitudeMeters>
            <DistanceMeters>9974.070802374</DistanceMeters>
          </Trackpoint>
          <Trackpoint>
            <Time>2020-09-13T07:52:19.000Z</Time>
            <Position>
              <LatitudeDegrees>41.10142327845096588134765625</LatitudeDegrees>
              <LongitudeDegrees>-4.41158004105091094970703125</LongitudeDegrees>
            </Position>
            <AltitudeMeters>844</AltitudeMeters>
            <DistanceMeters>9978.4841769207</DistanceMeters>
          </Trackpoint>
          <Trackpoint>
            <Time>2020-09-13T07:52:26.000Z</Time>
            <Position>
              <LatitudeDegrees>41.10162637196481227874755859375</LatitudeDegrees>
              <LongitudeDegrees>-4.411332271993160247802734375</LongitudeDegrees>
            </Position>
            <AltitudeMeters>843.20001220703125</AltitudeMeters>
            <DistanceMeters>10009.189424377</DistanceMeters>
          </Trackpoint>
          <Trackpoint>
            <Time>2020-09-13T07:52:30.000Z</Time>
            <Position>
              <LatitudeDegrees>41.10173667781054973602294921875</LatitudeDegrees>
              <LongitudeDegrees>-4.4111896120011806488037109375</LongitudeDegrees>
            </Position>
            <AltitudeMeters>842.79998779296875</AltitudeMeters>
            <DistanceMeters>10026.332991626</DistanceMeters>
          </Trackpoint>
          <Trackpoint>
            <Time>2020-09-13T07:52:41.000Z</Time>
            <Position>
              <LatitudeDegrees>41.1020678468048572540283203125</LatitudeDegrees>
              <LongitudeDegrees>-4.41079373471438884735107421875</LongitudeDegrees>
            </Position>
            <AltitudeMeters>842.5999755859375</AltitudeMeters>
            <DistanceMeters>10075.941851459</DistanceMeters>
          </Trackpoint>
          <Trackpoint>
            <Time>2020-09-13T07:52:42.000Z</Time>
            <Position>
              <LatitudeDegrees>41.1020976863801479339599609375</LatitudeDegrees>
              <LongitudeDegrees>-4.4107571057975292205810546875</LongitudeDegrees>
            </Position>
            <AltitudeMeters>842.5999755859375</AltitudeMeters>
            <DistanceMeters>10080.46536262</DistanceMeters>
          </Trackpoint>
          <Trackpoint>
            <Time>2020-09-13T07:52:48.000Z</Time>
            <Position>
              <LatitudeDegrees>41.10228150151669979095458984375</LatitudeDegrees>
              <LongitudeDegrees>-4.4105418585240840911865234375</LongitudeDegrees>
            </Position>
            <AltitudeMeters>842.5999755859375</AltitudeMeters>
            <DistanceMeters>10107.750443201</DistanceMeters>
          </Trackpoint>
          <Trackpoint>
            <Time>2020-09-13T07:52:56.000Z</Time>
            <Position>
              <LatitudeDegrees>41.102541424334049224853515625</LatitudeDegrees>
              <LongitudeDegrees>-4.41021622158586978912353515625</LongitudeDegrees>
            </Position>
            <AltitudeMeters>842</AltitudeMeters>
            <DistanceMeters>10147.535440117</DistanceMeters>
          </Trackpoint>
          <Trackpoint>
            <Time>2020-09-13T07:53:08.000Z</Time>
            <Position>
              <LatitudeDegrees>41.10293361358344554901123046875</LatitudeDegrees>
              <LongitudeDegrees>-4.4097241200506687164306640625</LongitudeDegrees>
            </Position>
            <AltitudeMeters>840.5999755859375</AltitudeMeters>
            <DistanceMeters>10207.609161416</DistanceMeters>
          </Trackpoint>
          <Trackpoint>
            <Time>2020-09-13T07:53:09.000Z</Time>
            <Position>
              <LatitudeDegrees>41.10296848230063915252685546875</LatitudeDegrees>
              <LongitudeDegrees>-4.40968497656285762786865234375</LongitudeDegrees>
            </Position>
            <AltitudeMeters>840.4000244140625</AltitudeMeters>
            <DistanceMeters>10212.692868605</DistanceMeters>
          </Trackpoint>
          <Trackpoint>
            <Time>2020-09-13T07:53:21.000Z</Time>
            <Position>
              <LatitudeDegrees>41.10335354693233966827392578125</LatitudeDegrees>
              <LongitudeDegrees>-4.40921424888074398040771484375</LongitudeDegrees>
            </Position>
            <AltitudeMeters>840.5999755859375</AltitudeMeters>
            <DistanceMeters>10270.963541197</DistanceMeters>
          </Trackpoint>
          <Trackpoint>
            <Time>2020-09-13T07:53:22.000Z</Time>
            <Position>
              <LatitudeDegrees>41.103384308516979217529296875</LatitudeDegrees>
              <LongitudeDegrees>-4.40917502157390117645263671875</LongitudeDegrees>
            </Position>
            <AltitudeMeters>840.79998779296875</AltitudeMeters>
            <DistanceMeters>10275.711074325</DistanceMeters>
          </Trackpoint>
          <Trackpoint>
            <Time>2020-09-13T07:53:34.000Z</Time>
            <Position>
              <LatitudeDegrees>41.1037549562752246856689453125</LatitudeDegrees>
              <LongitudeDegrees>-4.40871988423168659210205078125</LongitudeDegrees>
            </Position>
            <AltitudeMeters>841.79998779296875</AltitudeMeters>
            <DistanceMeters>10331.915740965</DistanceMeters>
          </Trackpoint>
          <Trackpoint>
            <Time>2020-09-13T07:53:48.000Z</Time>
            <Position>
              <LatitudeDegrees>41.104174554347991943359375</LatitudeDegrees>
              <LongitudeDegrees>-4.4081875495612621307373046875</LongitudeDegrees>
            </Position>
            <AltitudeMeters>842.5999755859375</AltitudeMeters>
            <DistanceMeters>10396.524892545</DistanceMeters>
          </Trackpoint>
          <Trackpoint>
            <Time>2020-09-13T07:53:53.000Z</Time>
            <Position>
              <LatitudeDegrees>41.104327104985713958740234375</LatitudeDegrees>
              <LongitudeDegrees>-4.40799417905509471893310546875</LongitudeDegrees>
            </Position>
            <AltitudeMeters>842.5999755859375</AltitudeMeters>
            <DistanceMeters>10420.004376503</DistanceMeters>
          </Trackpoint>
          <Trackpoint>
            <Time>2020-09-13T07:54:03.000Z</Time>
            <Position>
              <LatitudeDegrees>41.10460328869521617889404296875</LatitudeDegrees>
              <LongitudeDegrees>-4.4076420553028583526611328125</LongitudeDegrees>
            </Position>
            <AltitudeMeters>842.79998779296875</AltitudeMeters>
            <DistanceMeters>10462.631246458</DistanceMeters>
          </Trackpoint>
          <Trackpoint>
            <Time>2020-09-13T07:54:18.000Z</Time>
            <Position>
              <LatitudeDegrees>41.10501416958868503570556640625</LatitudeDegrees>
              <LongitudeDegrees>-4.407128579914569854736328125</LongitudeDegrees>
            </Position>
            <AltitudeMeters>844.5999755859375</AltitudeMeters>
            <DistanceMeters>10525.447498605</DistanceMeters>
          </Trackpoint>
          <Trackpoint>
            <Time>2020-09-13T07:54:20.000Z</Time>
            <Position>
              <LatitudeDegrees>41.1050665564835071563720703125</LatitudeDegrees>
              <LongitudeDegrees>-4.40706294961273670196533203125</LongitudeDegrees>
            </Position>
            <AltitudeMeters>844.79998779296875</AltitudeMeters>
            <DistanceMeters>10533.465861548</DistanceMeters>
          </Trackpoint>
          <Trackpoint>
            <Time>2020-09-13T07:54:30.000Z</Time>
            <Position>
              <LatitudeDegrees>41.105318181216716766357421875</LatitudeDegrees>
              <LongitudeDegrees>-4.4067472033202648162841796875</LongitudeDegrees>
            </Position>
            <AltitudeMeters>846.20001220703125</AltitudeMeters>
            <DistanceMeters>10572.009006154</DistanceMeters>
          </Trackpoint>
          <Trackpoint>
            <Time>2020-09-13T07:54:40.000Z</Time>
            <Position>
              <LatitudeDegrees>41.10554323531687259674072265625</LatitudeDegrees>
              <LongitudeDegrees>-4.40647923387587070465087890625</LongitudeDegrees>
            </Position>
            <AltitudeMeters>847.4000244140625</AltitudeMeters>
            <DistanceMeters>10605.661882217</DistanceMeters>
          </Trackpoint>
          <Trackpoint>
            <Time>2020-09-13T07:54:44.000Z</Time>
            <Position>
              <LatitudeDegrees>41.1056143976747989654541015625</LatitudeDegrees>
              <LongitudeDegrees>-4.40638300962746143341064453125</LongitudeDegrees>
            </Position>
            <AltitudeMeters>847.79998779296875</AltitudeMeters>
            <DistanceMeters>10616.969661948</DistanceMeters>
          </Trackpoint>
          <Trackpoint>
            <Time>2020-09-13T07:54:46.000Z</Time>
            <Position>
              <LatitudeDegrees>41.105650104582309722900390625</LatitudeDegrees>
              <LongitudeDegrees>-4.4063401781022548675537109375</LongitudeDegrees>
            </Position>
            <AltitudeMeters>847.79998779296875</AltitudeMeters>
            <DistanceMeters>10622.325831555</DistanceMeters>
          </Trackpoint>
          <Trackpoint>
            <Time>2020-09-13T07:54:48.000Z</Time>
            <Position>
              <LatitudeDegrees>41.10568463802337646484375</LatitudeDegrees>
              <LongitudeDegrees>-4.406303465366363525390625</LongitudeDegrees>
            </Position>
            <AltitudeMeters>848</AltitudeMeters>
            <DistanceMeters>10627.250746309</DistanceMeters>
          </Trackpoint>
          <Trackpoint>
            <Time>2020-09-13T07:54:51.000Z</Time>
            <Position>
              <LatitudeDegrees>41.10574104823172092437744140625</LatitudeDegrees>
              <LongitudeDegrees>-4.406226016581058502197265625</LongitudeDegrees>
            </Position>
            <AltitudeMeters>848</AltitudeMeters>
            <DistanceMeters>10636.284783662</DistanceMeters>
          </Trackpoint>
          <Trackpoint>
            <Time>2020-09-13T07:54:54.000Z</Time>
            <Position>
              <LatitudeDegrees>41.1057977937161922454833984375</LatitudeDegrees>
              <LongitudeDegrees>-4.40614446066319942474365234375</LongitudeDegrees>
            </Position>
            <AltitudeMeters>848.20001220703125</AltitudeMeters>
            <DistanceMeters>10645.595462147</DistanceMeters>
          </Trackpoint>
          <Trackpoint>
            <Time>2020-09-13T07:54:56.000Z</Time>
            <Position>
              <LatitudeDegrees>41.10583744011819362640380859375</LatitudeDegrees>
              <LongitudeDegrees>-4.4060846976935863494873046875</LongitudeDegrees>
            </Position>
            <AltitudeMeters>848.20001220703125</AltitudeMeters>
            <DistanceMeters>10652.273075305</DistanceMeters>
          </Trackpoint>
          <Trackpoint>
            <Time>2020-09-13T07:54:59.000Z</Time>
            <Position>
              <LatitudeDegrees>41.10588991083204746246337890625</LatitudeDegrees>
              <LongitudeDegrees>-4.405994005501270294189453125</LongitudeDegrees>
            </Position>
            <AltitudeMeters>848</AltitudeMeters>
            <DistanceMeters>10661.862772824</DistanceMeters>
          </Trackpoint>
          <Trackpoint>
            <Time>2020-09-13T07:55:03.000Z</Time>
            <Position>
              <LatitudeDegrees>41.1059734784066677093505859375</LatitudeDegrees>
              <LongitudeDegrees>-4.40586366690695285797119140625</LongitudeDegrees>
            </Position>
            <AltitudeMeters>847.79998779296875</AltitudeMeters>
            <DistanceMeters>10676.215582093</DistanceMeters>
          </Trackpoint>
          <Trackpoint>
            <Time>2020-09-13T07:55:07.000Z</Time>
            <Position>
              <LatitudeDegrees>41.1060707084834575653076171875</LatitudeDegrees>
              <LongitudeDegrees>-4.4057175703346729278564453125</LongitudeDegrees>
            </Position>
            <AltitudeMeters>847.5999755859375</AltitudeMeters>
            <DistanceMeters>10692.562939136</DistanceMeters>
          </Trackpoint>
          <Trackpoint>
            <Time>2020-09-13T07:55:13.000Z</Time>
            <Position>
              <LatitudeDegrees>41.10625385306775569915771484375</LatitudeDegrees>
              <LongitudeDegrees>-4.40547457896173000335693359375</LongitudeDegrees>
            </Position>
            <AltitudeMeters>847.4000244140625</AltitudeMeters>
            <DistanceMeters>10721.386595273</DistanceMeters>
          </Trackpoint>
          <Trackpoint>
            <Time>2020-09-13T07:55:16.000Z</Time>
            <Position>
              <LatitudeDegrees>41.106355190277099609375</LatitudeDegrees>
              <LongitudeDegrees>-4.40534465946257114410400390625</LongitudeDegrees>
            </Position>
            <AltitudeMeters>847.20001220703125</AltitudeMeters>
            <DistanceMeters>10737.069170382</DistanceMeters>
          </Trackpoint>
          <Trackpoint>
            <Time>2020-09-13T07:55:27.000Z</Time>
            <Position>
              <LatitudeDegrees>41.10671930015087127685546875</LatitudeDegrees>
              <LongitudeDegrees>-4.404881894588470458984375</LongitudeDegrees>
            </Position>
            <AltitudeMeters>848.5999755859375</AltitudeMeters>
            <DistanceMeters>10793.18113768</DistanceMeters>
          </Trackpoint>
          <Trackpoint>
            <Time>2020-09-13T07:55:36.000Z</Time>
            <Position>
              <LatitudeDegrees>41.10700939781963825225830078125</LatitudeDegrees>
              <LongitudeDegrees>-4.40454184077680110931396484375</LongitudeDegrees>
            </Position>
            <AltitudeMeters>849.79998779296875</AltitudeMeters>
            <DistanceMeters>10836.260636871</DistanceMeters>
          </Trackpoint>
          <Trackpoint>
            <Time>2020-09-13T07:55:42.000Z</Time>
            <Position>
              <LatitudeDegrees>41.10718675889074802398681640625</LatitudeDegrees>
              <LongitudeDegrees>-4.40432743169367313385009765625</LongitudeDegrees>
            </Position>
            <AltitudeMeters>849.79998779296875</AltitudeMeters>
            <DistanceMeters>10862.963143609</DistanceMeters>
          </Trackpoint>
          <Trackpoint>
            <Time>2020-09-13T07:55:46.000Z</Time>
            <Position>
              <LatitudeDegrees>41.1072981543838977813720703125</LatitudeDegrees>
              <LongitudeDegrees>-4.4041856937110424041748046875</LongitudeDegrees>
            </Position>
            <AltitudeMeters>849.79998779296875</AltitudeMeters>
            <DistanceMeters>10880.139074368</DistanceMeters>
          </Trackpoint>
          <Trackpoint>
            <Time>2020-09-13T07:55:52.000Z</Time>
            <Position>
              <LatitudeDegrees>41.10746570862829685211181640625</LatitudeDegrees>
              <LongitudeDegrees>-4.403987042605876922607421875</LongitudeDegrees>
            </Position>
            <AltitudeMeters>850.20001220703125</AltitudeMeters>
            <DistanceMeters>10905.145548803</DistanceMeters>
          </Trackpoint>
          <Trackpoint>
            <Time>2020-09-13T07:55:56.000Z</Time>
            <Position>
              <LatitudeDegrees>41.107569895684719085693359375</LatitudeDegrees>
              <LongitudeDegrees>-4.4038453884422779083251953125</LongitudeDegrees>
            </Position>
            <AltitudeMeters>850.4000244140625</AltitudeMeters>
            <DistanceMeters>10921.746147374</DistanceMeters>
          </Trackpoint>
          <Trackpoint>
            <Time>2020-09-13T07:56:06.000Z</Time>
            <Position>
              <LatitudeDegrees>41.1078527010977268218994140625</LatitudeDegrees>
              <LongitudeDegrees>-4.40350650809705257415771484375</LongitudeDegrees>
            </Position>
            <AltitudeMeters>851.20001220703125</AltitudeMeters>
            <DistanceMeters>10964.154473737</DistanceMeters>
          </Trackpoint>
          <Trackpoint>
            <Time>2020-09-13T07:56:09.000Z</Time>
            <Position>
              <LatitudeDegrees>41.10793744213879108428955078125</LatitudeDegrees>
              <LongitudeDegrees>-4.40340458415448665618896484375</LongitudeDegrees>
            </Position>
            <AltitudeMeters>851.4000244140625</AltitudeMeters>
            <DistanceMeters>10976.883088412</DistanceMeters>
          </Trackpoint>
          <Trackpoint>
            <Time>2020-09-13T07:56:17.000Z</Time>
            <Position>
              <LatitudeDegrees>41.10814229585230350494384765625</LatitudeDegrees>
              <LongitudeDegrees>-4.40316000021994113922119140625</LongitudeDegrees>
            </Position>
            <AltitudeMeters>851.79998779296875</AltitudeMeters>
            <DistanceMeters>11007.552141586</DistanceMeters>
          </Trackpoint>
          <Trackpoint>
            <Time>2020-09-13T07:56:19.000Z</Time>
            <Position>
              <LatitudeDegrees>41.10818789340555667877197265625</LatitudeDegrees>
              <LongitudeDegrees>-4.40311289392411708831787109375</LongitudeDegrees>
            </Position>
            <AltitudeMeters>851.5999755859375</AltitudeMeters>
            <DistanceMeters>11013.983140739</DistanceMeters>
          </Trackpoint>
          <Trackpoint>
            <Time>2020-09-13T07:56:24.000Z</Time>
            <Position>
              <LatitudeDegrees>41.108300127089023590087890625</LatitudeDegrees>
              <LongitudeDegrees>-4.402974508702754974365234375</LongitudeDegrees>
            </Position>
            <AltitudeMeters>851.20001220703125</AltitudeMeters>
            <DistanceMeters>11031.034015825</DistanceMeters>
          </Trackpoint>
          <Trackpoint>
            <Time>2020-09-13T07:56:27.000Z</Time>
            <Position>
              <LatitudeDegrees>41.10837095417082309722900390625</LatitudeDegrees>
              <LongitudeDegrees>-4.4028844870626926422119140625</LongitudeDegrees>
            </Position>
            <AltitudeMeters>851</AltitudeMeters>
            <DistanceMeters>11041.949272515</DistanceMeters>
          </Trackpoint>
          <Trackpoint>
            <Time>2020-09-13T07:56:38.000Z</Time>
            <Position>
              <LatitudeDegrees>41.1086204834282398223876953125</LatitudeDegrees>
              <LongitudeDegrees>-4.4025706686079502105712890625</LongitudeDegrees>
            </Position>
            <AltitudeMeters>851.4000244140625</AltitudeMeters>
            <DistanceMeters>11080.211068384</DistanceMeters>
          </Trackpoint>
          <Trackpoint>
            <Time>2020-09-13T07:56:48.000Z</Time>
            <Position>
              <LatitudeDegrees>41.10881770960986614227294921875</LatitudeDegrees>
              <LongitudeDegrees>-4.40233446657657623291015625</LongitudeDegrees>
            </Position>
            <AltitudeMeters>851.79998779296875</AltitudeMeters>
            <DistanceMeters>11109.778581314</DistanceMeters>
          </Trackpoint>
          <Trackpoint>
            <Time>2020-09-13T07:56:55.000Z</Time>
            <Position>
              <LatitudeDegrees>41.10887386836111545562744140625</LatitudeDegrees>
              <LongitudeDegrees>-4.40223656594753265380859375</LongitudeDegrees>
            </Position>
            <AltitudeMeters>852</AltitudeMeters>
            <DistanceMeters>11120.097624944</DistanceMeters>
          </Trackpoint>
          <Trackpoint>
            <Time>2020-09-13T07:56:56.000Z</Time>
            <Position>
              <LatitudeDegrees>41.1088779754936695098876953125</LatitudeDegrees>
              <LongitudeDegrees>-4.402233548462390899658203125</LongitudeDegrees>
            </Position>
            <AltitudeMeters>852</AltitudeMeters>
            <DistanceMeters>11120.618107694</DistanceMeters>
          </Trackpoint>
          <Trackpoint>
            <Time>2020-09-13T07:57:11.000Z</Time>
            <Position>
              <LatitudeDegrees>41.10888342373073101043701171875</LatitudeDegrees>
              <LongitudeDegrees>-4.402237571775913238525390625</LongitudeDegrees>
            </Position>
            <AltitudeMeters>852</AltitudeMeters>
            <DistanceMeters>11121.31640858</DistanceMeters>
          </Trackpoint>
          <Trackpoint>
            <Time>2020-09-13T07:57:13.000Z</Time>
            <Position>
              <LatitudeDegrees>41.10888543538749217987060546875</LatitudeDegrees>
              <LongitudeDegrees>-4.40223396755754947662353515625</LongitudeDegrees>
            </Position>
            <AltitudeMeters>852</AltitudeMeters>
            <DistanceMeters>11121.696515438</DistanceMeters>
          </Trackpoint>
          <Trackpoint>
            <Time>2020-09-13T07:57:19.000Z</Time>
            <Position>
              <LatitudeDegrees>41.10901066102087497711181640625</LatitudeDegrees>
              <LongitudeDegrees>-4.40209306776523590087890625</LongitudeDegrees>
            </Position>
            <AltitudeMeters>852.20001220703125</AltitudeMeters>
            <DistanceMeters>11139.968845515</DistanceMeters>
          </Trackpoint>
          <Trackpoint>
            <Time>2020-09-13T07:57:28.000Z</Time>
            <Position>
              <LatitudeDegrees>41.10924300737679004669189453125</LatitudeDegrees>
              <LongitudeDegrees>-4.40181638114154338836669921875</LongitudeDegrees>
            </Position>
            <AltitudeMeters>852.79998779296875</AltitudeMeters>
            <DistanceMeters>11174.713294558</DistanceMeters>
          </Trackpoint>
          <Trackpoint>
            <Time>2020-09-13T07:57:33.000Z</Time>
            <Position>
              <LatitudeDegrees>41.109402179718017578125</LatitudeDegrees>
              <LongitudeDegrees>-4.40163902007043361663818359375</LongitudeDegrees>
            </Position>
            <AltitudeMeters>853.20001220703125</AltitudeMeters>
            <DistanceMeters>11197.845420268</DistanceMeters>
          </Trackpoint>
          <Trackpoint>
            <Time>2020-09-13T07:57:38.000Z</Time>
            <Position>
              <LatitudeDegrees>41.10953670926392078399658203125</LatitudeDegrees>
              <LongitudeDegrees>-4.40147942863404750823974609375</LongitudeDegrees>
            </Position>
            <AltitudeMeters>853.4000244140625</AltitudeMeters>
            <DistanceMeters>11217.92823218</DistanceMeters>
          </Trackpoint>
          <Trackpoint>
            <Time>2020-09-13T07:57:49.000Z</Time>
            <Position>
              <LatitudeDegrees>41.109855473041534423828125</LatitudeDegrees>
              <LongitudeDegrees>-4.401098974049091339111328125</LongitudeDegrees>
            </Position>
            <AltitudeMeters>854.4000244140625</AltitudeMeters>
            <DistanceMeters>11265.642999216</DistanceMeters>
          </Trackpoint>
          <Trackpoint>
            <Time>2020-09-13T07:57:57.000Z</Time>
            <Position>
              <LatitudeDegrees>41.1100671999156475067138671875</LatitudeDegrees>
              <LongitudeDegrees>-4.40083955414593219757080078125</LongitudeDegrees>
            </Position>
            <AltitudeMeters>855.4000244140625</AltitudeMeters>
            <DistanceMeters>11297.715184016</DistanceMeters>
          </Trackpoint>
          <Trackpoint>
            <Time>2020-09-13T07:58:00.000Z</Time>
            <Position>
              <LatitudeDegrees>41.110151521861553192138671875</LatitudeDegrees>
              <LongitudeDegrees>-4.4007400609552860260009765625</LongitudeDegrees>
            </Position>
            <AltitudeMeters>856</AltitudeMeters>
            <DistanceMeters>11310.273100046</DistanceMeters>
          </Trackpoint>
          <Trackpoint>
            <Time>2020-09-13T07:58:12.000Z</Time>
            <Position>
              <LatitudeDegrees>41.110508926212787628173828125</LatitudeDegrees>
              <LongitudeDegrees>-4.400333873927593231201171875</LongitudeDegrees>
            </Position>
            <AltitudeMeters>857.79998779296875</AltitudeMeters>
            <DistanceMeters>11362.643942299</DistanceMeters>
          </Trackpoint>
          <Trackpoint>
            <Time>2020-09-13T07:58:17.000Z</Time>
            <Position>
              <LatitudeDegrees>41.1106693558394908905029296875</LatitudeDegrees>
              <LongitudeDegrees>-4.40017654560506343841552734375</LongitudeDegrees>
            </Position>
            <AltitudeMeters>858.4000244140625</AltitudeMeters>
            <DistanceMeters>11384.845851741</DistanceMeters>
          </Trackpoint>
          <Trackpoint>
            <Time>2020-09-13T07:58:23.000Z</Time>
            <Position>
              <LatitudeDegrees>41.1108685098588466644287109375</LatitudeDegrees>
              <LongitudeDegrees>-4.39999717287719249725341796875</LongitudeDegrees>
            </Position>
            <AltitudeMeters>858.79998779296875</AltitudeMeters>
            <DistanceMeters>11411.633948255</DistanceMeters>
          </Trackpoint>
          <Trackpoint>
            <Time>2020-09-13T07:58:27.000Z</Time>
            <Position>
              <LatitudeDegrees>41.11101175658404827117919921875</LatitudeDegrees>
              <LongitudeDegrees>-4.39987865276634693145751953125</LongitudeDegrees>
            </Position>
            <AltitudeMeters>859</AltitudeMeters>
            <DistanceMeters>11430.421861609</DistanceMeters>
          </Trackpoint>
          <Trackpoint>
            <Time>2020-09-13T07:58:39.000Z</Time>
            <Position>
              <LatitudeDegrees>41.11144476570188999176025390625</LatitudeDegrees>
              <LongitudeDegrees>-4.39949392341077327728271484375</LongitudeDegrees>
            </Position>
            <AltitudeMeters>860</AltitudeMeters>
            <DistanceMeters>11488.418682511</DistanceMeters>
          </Trackpoint>
          <Trackpoint>
            <Time>2020-09-13T07:58:47.000Z</Time>
            <Position>
              <LatitudeDegrees>41.1117549799382686614990234375</LatitudeDegrees>
              <LongitudeDegrees>-4.39924565143883228302001953125</LongitudeDegrees>
            </Position>
            <AltitudeMeters>858.4000244140625</AltitudeMeters>
            <DistanceMeters>11528.737566692</DistanceMeters>
          </Trackpoint>
          <Trackpoint>
            <Time>2020-09-13T07:58:50.000Z</Time>
            <Position>
              <LatitudeDegrees>41.111862100660800933837890625</LatitudeDegrees>
              <LongitudeDegrees>-4.3991505168378353118896484375</LongitudeDegrees>
            </Position>
            <AltitudeMeters>858</AltitudeMeters>
            <DistanceMeters>11543.083453637</DistanceMeters>
          </Trackpoint>
          <Trackpoint>
            <Time>2020-09-13T07:58:59.000Z</Time>
            <Position>
              <LatitudeDegrees>41.1122384481132030487060546875</LatitudeDegrees>
              <LongitudeDegrees>-4.39880643971264362335205078125</LongitudeDegrees>
            </Position>
            <AltitudeMeters>856.20001220703125</AltitudeMeters>
            <DistanceMeters>11593.947517784</DistanceMeters>
          </Trackpoint>
          <Trackpoint>
            <Time>2020-09-13T07:59:00.000Z</Time>
            <Position>
              <LatitudeDegrees>41.11227943561971187591552734375</LatitudeDegrees>
              <LongitudeDegrees>-4.39876318909227848052978515625</LongitudeDegrees>
            </Position>
            <AltitudeMeters>856</AltitudeMeters>
            <DistanceMeters>11599.775995079</DistanceMeters>
          </Trackpoint>
          <Trackpoint>
            <Time>2020-09-13T07:59:07.000Z</Time>
            <Position>
              <LatitudeDegrees>41.11255402676761150360107421875</LatitudeDegrees>
              <LongitudeDegrees>-4.3984283320605754852294921875</LongitudeDegrees>
            </Position>
            <AltitudeMeters>856.20001220703125</AltitudeMeters>
            <DistanceMeters>11641.279721686</DistanceMeters>
          </Trackpoint>
          <Trackpoint>
            <Time>2020-09-13T07:59:08.000Z</Time>
            <Position>
              <LatitudeDegrees>41.11258721910417079925537109375</LatitudeDegrees>
              <LongitudeDegrees>-4.39838089048862457275390625</LongitudeDegrees>
            </Position>
            <AltitudeMeters>856.20001220703125</AltitudeMeters>
            <DistanceMeters>11646.708733522</DistanceMeters>
          </Trackpoint>
          <Trackpoint>
            <Time>2020-09-13T07:59:13.000Z</Time>
            <Position>
              <LatitudeDegrees>41.11273524351418018341064453125</LatitudeDegrees>
              <LongitudeDegrees>-4.398143179714679718017578125</LongitudeDegrees>
            </Position>
            <AltitudeMeters>856.79998779296875</AltitudeMeters>
            <DistanceMeters>11672.569795984</DistanceMeters>
          </Trackpoint>
          <Trackpoint>
            <Time>2020-09-13T07:59:18.000Z</Time>
            <Position>
              <LatitudeDegrees>41.11287337727844715118408203125</LatitudeDegrees>
              <LongitudeDegrees>-4.39792633987963199615478515625</LongitudeDegrees>
            </Position>
            <AltitudeMeters>857.4000244140625</AltitudeMeters>
            <DistanceMeters>11696.38190551</DistanceMeters>
          </Trackpoint>
          <Trackpoint>
            <Time>2020-09-13T07:59:30.000Z</Time>
            <Position>
              <LatitudeDegrees>41.11322759650647640228271484375</LatitudeDegrees>
              <LongitudeDegrees>-4.39733156003057956695556640625</LongitudeDegrees>
            </Position>
            <AltitudeMeters>857.79998779296875</AltitudeMeters>
            <DistanceMeters>11759.95854145</DistanceMeters>
          </Trackpoint>
          <Trackpoint>
            <Time>2020-09-13T07:59:42.000Z</Time>
            <Position>
              <LatitudeDegrees>41.11351844854652881622314453125</LatitudeDegrees>
              <LongitudeDegrees>-4.39669151790440082550048828125</LongitudeDegrees>
            </Position>
            <AltitudeMeters>857.79998779296875</AltitudeMeters>
            <DistanceMeters>11822.636998175</DistanceMeters>
          </Trackpoint>
          <Trackpoint>
            <Time>2020-09-13T07:59:52.000Z</Time>
            <Position>
              <LatitudeDegrees>41.113721542060375213623046875</LatitudeDegrees>
              <LongitudeDegrees>-4.39611434005200862884521484375</LongitudeDegrees>
            </Position>
            <AltitudeMeters>857.5999755859375</AltitudeMeters>
            <DistanceMeters>11876.055198784</DistanceMeters>
          </Trackpoint>
          <Trackpoint>
            <Time>2020-09-13T08:00:01.000Z</Time>
            <Position>
              <LatitudeDegrees>41.1139222048223018646240234375</LatitudeDegrees>
              <LongitudeDegrees>-4.3955473043024539947509765625</LongitudeDegrees>
            </Position>
            <AltitudeMeters>857.79998779296875</AltitudeMeters>
            <DistanceMeters>11928.588386794</DistanceMeters>
          </Trackpoint>
          <Trackpoint>
            <Time>2020-09-13T08:00:02.000Z</Time>
            <Position>
              <LatitudeDegrees>41.11393419094383716583251953125</LatitudeDegrees>
              <LongitudeDegrees>-4.3954775668680667877197265625</LongitudeDegrees>
            </Position>
            <AltitudeMeters>857.79998779296875</AltitudeMeters>
            <DistanceMeters>11934.586371835</DistanceMeters>
          </Trackpoint>
          <Trackpoint>
            <Time>2020-09-13T08:00:08.000Z</Time>
            <Position>
              <LatitudeDegrees>41.1139766871929168701171875</LatitudeDegrees>
              <LongitudeDegrees>-4.395100213587284088134765625</LongitudeDegrees>
            </Position>
            <AltitudeMeters>857.5999755859375</AltitudeMeters>
            <DistanceMeters>11966.580894268</DistanceMeters>
          </Trackpoint>
          <Trackpoint>
            <Time>2020-09-13T08:00:11.000Z</Time>
            <Position>
              <LatitudeDegrees>41.1140003241598606109619140625</LatitudeDegrees>
              <LongitudeDegrees>-4.39492084085941314697265625</LongitudeDegrees>
            </Position>
            <AltitudeMeters>857.20001220703125</AltitudeMeters>
            <DistanceMeters>11981.850359674</DistanceMeters>
          </Trackpoint>
          <Trackpoint>
            <Time>2020-09-13T08:00:18.000Z</Time>
            <Position>
              <LatitudeDegrees>41.1140720732510089874267578125</LatitudeDegrees>
              <LongitudeDegrees>-4.39457374624907970428466796875</LongitudeDegrees>
            </Position>
            <AltitudeMeters>856.5999755859375</AltitudeMeters>
            <DistanceMeters>12012.03147846</DistanceMeters>
          </Trackpoint>
          <Trackpoint>
            <Time>2020-09-13T08:00:28.000Z</Time>
            <Position>
              <LatitudeDegrees>41.1141880787909030914306640625</LatitudeDegrees>
              <LongitudeDegrees>-4.3940915353596210479736328125</LongitudeDegrees>
            </Position>
            <AltitudeMeters>856.20001220703125</AltitudeMeters>
            <DistanceMeters>12054.478647068</DistanceMeters>
          </Trackpoint>
          <Trackpoint>
            <Time>2020-09-13T08:00:29.000Z</Time>
            <Position>
              <LatitudeDegrees>41.1142028309404850006103515625</LatitudeDegrees>
              <LongitudeDegrees>-4.394035376608371734619140625</LongitudeDegrees>
            </Position>
            <AltitudeMeters>856.4000244140625</AltitudeMeters>
            <DistanceMeters>12059.46551287</DistanceMeters>
          </Trackpoint>
          <Trackpoint>
            <Time>2020-09-13T08:00:34.000Z</Time>
            <Position>
              <LatitudeDegrees>41.1142497695982456207275390625</LatitudeDegrees>
              <LongitudeDegrees>-4.393803365528583526611328125</LongitudeDegrees>
            </Position>
            <AltitudeMeters>856.79998779296875</AltitudeMeters>
            <DistanceMeters>12079.610279818</DistanceMeters>
          </Trackpoint>
          <Trackpoint>
            <Time>2020-09-13T08:00:35.000Z</Time>
            <Position>
              <LatitudeDegrees>41.114257313311100006103515625</LatitudeDegrees>
              <LongitudeDegrees>-4.39375617541372776031494140625</LongitudeDegrees>
            </Position>
            <AltitudeMeters>857</AltitudeMeters>
            <DistanceMeters>12083.656454381</DistanceMeters>
          </Trackpoint>
          <Trackpoint>
            <Time>2020-09-13T08:00:40.000Z</Time>
            <Position>
              <LatitudeDegrees>41.1142963729798793792724609375</LatitudeDegrees>
              <LongitudeDegrees>-4.39353506080806255340576171875</LongitudeDegrees>
            </Position>
            <AltitudeMeters>857.4000244140625</AltitudeMeters>
            <DistanceMeters>12102.700718354</DistanceMeters>
          </Trackpoint>
          <Trackpoint>
            <Time>2020-09-13T08:00:41.000Z</Time>
            <Position>
              <LatitudeDegrees>41.11430282704532146453857421875</LatitudeDegrees>
              <LongitudeDegrees>-4.3934991024434566497802734375</LongitudeDegrees>
            </Position>
            <AltitudeMeters>857.4000244140625</AltitudeMeters>
            <DistanceMeters>12105.800395972</DistanceMeters>
          </Trackpoint>
          <Trackpoint>
            <Time>2020-09-13T08:00:56.000Z</Time>
            <Position>
              <LatitudeDegrees>41.1143838800489902496337890625</LatitudeDegrees>
              <LongitudeDegrees>-4.3928151391446590423583984375</LongitudeDegrees>
            </Position>
            <AltitudeMeters>859.5999755859375</AltitudeMeters>
            <DistanceMeters>12163.859152208</DistanceMeters>
          </Trackpoint>
          <Trackpoint>
            <Time>2020-09-13T08:01:08.000Z</Time>
            <Position>
              <LatitudeDegrees>41.1144568026065826416015625</LatitudeDegrees>
              <LongitudeDegrees>-4.392228238284587860107421875</LongitudeDegrees>
            </Position>
            <AltitudeMeters>860.79998779296875</AltitudeMeters>
            <DistanceMeters>12213.738221079</DistanceMeters>
          </Trackpoint>
          <Trackpoint>
            <Time>2020-09-13T08:01:21.000Z</Time>
            <Position>
              <LatitudeDegrees>41.114555709064006805419921875</LatitudeDegrees>
              <LongitudeDegrees>-4.39164745621383190155029296875</LongitudeDegrees>
            </Position>
            <AltitudeMeters>860.5999755859375</AltitudeMeters>
            <DistanceMeters>12263.668136105</DistanceMeters>
          </Trackpoint>
          <Trackpoint>
            <Time>2020-09-13T08:01:28.000Z</Time>
            <Position>
              <LatitudeDegrees>41.1145977862179279327392578125</LatitudeDegrees>
              <LongitudeDegrees>-4.39132626168429851531982421875</LongitudeDegrees>
            </Position>
            <AltitudeMeters>861.20001220703125</AltitudeMeters>
            <DistanceMeters>12291.00595271</DistanceMeters>
          </Trackpoint>
          <Trackpoint>
            <Time>2020-09-13T08:01:30.000Z</Time>
            <Position>
              <LatitudeDegrees>41.114608682692050933837890625</LatitudeDegrees>
              <LongitudeDegrees>-4.391247890889644622802734375</LongitudeDegrees>
            </Position>
            <AltitudeMeters>861.20001220703125</AltitudeMeters>
            <DistanceMeters>12297.688972842</DistanceMeters>
          </Trackpoint>
          <Trackpoint>
            <Time>2020-09-13T08:01:31.000Z</Time>
            <Position>
              <LatitudeDegrees>41.114614717662334442138671875</LatitudeDegrees>
              <LongitudeDegrees>-4.3912044726312160491943359375</LongitudeDegrees>
            </Position>
            <AltitudeMeters>861.20001220703125</AltitudeMeters>
            <DistanceMeters>12301.391358025</DistanceMeters>
          </Trackpoint>
          <Trackpoint>
            <Time>2020-09-13T08:01:33.000Z</Time>
            <Position>
              <LatitudeDegrees>41.114634834229946136474609375</LatitudeDegrees>
              <LongitudeDegrees>-4.39111168496310710906982421875</LongitudeDegrees>
            </Position>
            <AltitudeMeters>861.4000244140625</AltitudeMeters>
            <DistanceMeters>12309.488169433</DistanceMeters>
          </Trackpoint>
          <Trackpoint>
            <Time>2020-09-13T08:01:35.000Z</Time>
            <Position>
              <LatitudeDegrees>41.114652268588542938232421875</LatitudeDegrees>
              <LongitudeDegrees>-4.3910307995975017547607421875</LongitudeDegrees>
            </Position>
            <AltitudeMeters>861.79998779296875</AltitudeMeters>
            <DistanceMeters>12316.543223038</DistanceMeters>
          </Trackpoint>
          <Trackpoint>
            <Time>2020-09-13T08:01:38.000Z</Time>
            <Position>
              <LatitudeDegrees>41.1146802641451358795166015625</LatitudeDegrees>
              <LongitudeDegrees>-4.39090481959283351898193359375</LongitudeDegrees>
            </Position>
            <AltitudeMeters>862.5999755859375</AltitudeMeters>
            <DistanceMeters>12327.556897124</DistanceMeters>
          </Trackpoint>
          <Trackpoint>
            <Time>2020-09-13T08:01:40.000Z</Time>
            <Position>
              <LatitudeDegrees>41.1146993748843669891357421875</LatitudeDegrees>
              <LongitudeDegrees>-4.3908303044736385345458984375</LongitudeDegrees>
            </Position>
            <AltitudeMeters>863</AltitudeMeters>
            <DistanceMeters>12334.156979605</DistanceMeters>
          </Trackpoint>
          <Trackpoint>
            <Time>2020-09-13T08:01:49.000Z</Time>
            <Position>
              <LatitudeDegrees>41.11480037681758403778076171875</LatitudeDegrees>
              <LongitudeDegrees>-4.39048756845295429229736328125</LongitudeDegrees>
            </Position>
            <AltitudeMeters>864.79998779296875</AltitudeMeters>
            <DistanceMeters>12365.017261719</DistanceMeters>
          </Trackpoint>
          <Trackpoint>
            <Time>2020-09-13T08:01:51.000Z</Time>
            <Position>
              <LatitudeDegrees>41.11481931991875171661376953125</LatitudeDegrees>
              <LongitudeDegrees>-4.3904172442853450775146484375</LongitudeDegrees>
            </Position>
            <AltitudeMeters>865.20001220703125</AltitudeMeters>
            <DistanceMeters>12371.280380118</DistanceMeters>
          </Trackpoint>
          <Trackpoint>
            <Time>2020-09-13T08:02:03.000Z</Time>
            <Position>
              <LatitudeDegrees>41.11498494632542133331298828125</LatitudeDegrees>
              <LongitudeDegrees>-4.3899143300950527191162109375</LongitudeDegrees>
            </Position>
            <AltitudeMeters>865.20001220703125</AltitudeMeters>
            <DistanceMeters>12417.304909144</DistanceMeters>
          </Trackpoint>
          <Trackpoint>
            <Time>2020-09-13T08:02:13.000Z</Time>
            <Position>
              <LatitudeDegrees>41.1151117645204067230224609375</LatitudeDegrees>
              <LongitudeDegrees>-4.38950680196285247802734375</LongitudeDegrees>
            </Position>
            <AltitudeMeters>865</AltitudeMeters>
            <DistanceMeters>12454.278117315</DistanceMeters>
          </Trackpoint>
          <Trackpoint>
            <Time>2020-09-13T08:02:26.000Z</Time>
            <Position>
              <LatitudeDegrees>41.1152710206806659698486328125</LatitudeDegrees>
              <LongitudeDegrees>-4.3889540992677211761474609375</LongitudeDegrees>
            </Position>
            <AltitudeMeters>865</AltitudeMeters>
            <DistanceMeters>12503.898443428</DistanceMeters>
          </Trackpoint>
          <Trackpoint>
            <Time>2020-09-13T08:02:30.000Z</Time>
            <Position>
              <LatitudeDegrees>41.11532323993742465972900390625</LatitudeDegrees>
              <LongitudeDegrees>-4.38878017477691173553466796875</LongitudeDegrees>
            </Position>
            <AltitudeMeters>864.79998779296875</AltitudeMeters>
            <DistanceMeters>12519.597995541</DistanceMeters>
          </Trackpoint>
          <Trackpoint>
            <Time>2020-09-13T08:02:31.000Z</Time>
            <Position>
              <LatitudeDegrees>41.1153333820402622222900390625</LatitudeDegrees>
              <LongitudeDegrees>-4.388735331594944000244140625</LongitudeDegrees>
            </Position>
            <AltitudeMeters>864.79998779296875</AltitudeMeters>
            <DistanceMeters>12523.522955466</DistanceMeters>
          </Trackpoint>
          <Trackpoint>
            <Time>2020-09-13T08:02:32.000Z</Time>
            <Position>
              <LatitudeDegrees>41.11534520052373409271240234375</LatitudeDegrees>
              <LongitudeDegrees>-4.3886912427842617034912109375</LongitudeDegrees>
            </Position>
            <AltitudeMeters>864.79998779296875</AltitudeMeters>
            <DistanceMeters>12527.447915391</DistanceMeters>
          </Trackpoint>
          <Trackpoint>
            <Time>2020-09-13T08:02:39.000Z</Time>
            <Position>
              <LatitudeDegrees>41.1154172010719776153564453125</LatitudeDegrees>
              <LongitudeDegrees>-4.3883935175836086273193359375</LongitudeDegrees>
            </Position>
            <AltitudeMeters>865.20001220703125</AltitudeMeters>
            <DistanceMeters>12553.66771287</DistanceMeters>
          </Trackpoint>
          <Trackpoint>
            <Time>2020-09-13T08:02:40.000Z</Time>
            <Position>
              <LatitudeDegrees>41.1154296062886714935302734375</LatitudeDegrees>
              <LongitudeDegrees>-4.3883405439555644989013671875</LongitudeDegrees>
            </Position>
            <AltitudeMeters>865.4000244140625</AltitudeMeters>
            <DistanceMeters>12558.319171045</DistanceMeters>
          </Trackpoint>
          <Trackpoint>
            <Time>2020-09-13T08:02:54.000Z</Time>
            <Position>
              <LatitudeDegrees>41.11558777280151844024658203125</LatitudeDegrees>
              <LongitudeDegrees>-4.3877561576664447784423828125</LongitudeDegrees>
            </Position>
            <AltitudeMeters>866.4000244140625</AltitudeMeters>
            <DistanceMeters>12610.388087794</DistanceMeters>
          </Trackpoint>
          <Trackpoint>
            <Time>2020-09-13T08:03:06.000Z</Time>
            <Position>
              <LatitudeDegrees>41.11578248441219329833984375</LatitudeDegrees>
              <LongitudeDegrees>-4.38725508749485015869140625</LongitudeDegrees>
            </Position>
            <AltitudeMeters>866.79998779296875</AltitudeMeters>
            <DistanceMeters>12657.664140829</DistanceMeters>
          </Trackpoint>
          <Trackpoint>
            <Time>2020-09-13T08:03:18.000Z</Time>
            <Position>
              <LatitudeDegrees>41.11591382883489131927490234375</LatitudeDegrees>
              <LongitudeDegrees>-4.386764578521251678466796875</LongitudeDegrees>
            </Position>
            <AltitudeMeters>867.79998779296875</AltitudeMeters>
            <DistanceMeters>12701.315549289</DistanceMeters>
          </Trackpoint>
          <Trackpoint>
            <Time>2020-09-13T08:03:27.000Z</Time>
            <Position>
              <LatitudeDegrees>41.1160012520849704742431640625</LatitudeDegrees>
              <LongitudeDegrees>-4.38645034097135066986083984375</LongitudeDegrees>
            </Position>
            <AltitudeMeters>868.79998779296875</AltitudeMeters>
            <DistanceMeters>12729.40426302</DistanceMeters>
          </Trackpoint>
          <Trackpoint>
            <Time>2020-09-13T08:03:41.000Z</Time>
            <Position>
              <LatitudeDegrees>41.11609160900115966796875</LatitudeDegrees>
              <LongitudeDegrees>-4.38589529134333133697509765625</LongitudeDegrees>
            </Position>
            <AltitudeMeters>871.4000244140625</AltitudeMeters>
            <DistanceMeters>12777.020802206</DistanceMeters>
          </Trackpoint>
          <Trackpoint>
            <Time>2020-09-13T08:03:53.000Z</Time>
            <Position>
              <LatitudeDegrees>41.11613142304122447967529296875</LatitudeDegrees>
              <LongitudeDegrees>-4.385437555611133575439453125</LongitudeDegrees>
            </Position>
            <AltitudeMeters>873.79998779296875</AltitudeMeters>
            <DistanceMeters>12815.658014548</DistanceMeters>
          </Trackpoint>
          <Trackpoint>
            <Time>2020-09-13T08:03:56.000Z</Time>
            <Position>
              <LatitudeDegrees>41.11613309942185878753662109375</LatitudeDegrees>
              <LongitudeDegrees>-4.38533035106956958770751953125</LongitudeDegrees>
            </Position>
            <AltitudeMeters>874.4000244140625</AltitudeMeters>
            <DistanceMeters>12824.649470181</DistanceMeters>
          </Trackpoint>
          <Trackpoint>
            <Time>2020-09-13T08:04:02.000Z</Time>
            <Position>
              <LatitudeDegrees>41.1161439120769500732421875</LatitudeDegrees>
              <LongitudeDegrees>-4.38511108048260211944580078125</LongitudeDegrees>
            </Position>
            <AltitudeMeters>874.4000244140625</AltitudeMeters>
            <DistanceMeters>12843.075098639</DistanceMeters>
          </Trackpoint>
          <Trackpoint>
            <Time>2020-09-13T08:04:04.000Z</Time>
            <Position>
              <LatitudeDegrees>41.1161474324762821197509765625</LatitudeDegrees>
              <LongitudeDegrees>-4.38504452817142009735107421875</LongitudeDegrees>
            </Position>
            <AltitudeMeters>874.4000244140625</AltitudeMeters>
            <DistanceMeters>12848.669582079</DistanceMeters>
          </Trackpoint>
          <Trackpoint>
            <Time>2020-09-13T08:04:13.000Z</Time>
            <Position>
              <LatitudeDegrees>41.11615506000816822052001953125</LatitudeDegrees>
              <LongitudeDegrees>-4.38471729867160320281982421875</LongitudeDegrees>
            </Position>
            <AltitudeMeters>874.4000244140625</AltitudeMeters>
            <DistanceMeters>12876.121614057</DistanceMeters>
          </Trackpoint>
          <Trackpoint>
            <Time>2020-09-13T08:04:16.000Z</Time>
            <Position>
              <LatitudeDegrees>41.11615438945591449737548828125</LatitudeDegrees>
              <LongitudeDegrees>-4.38460162840783596038818359375</LongitudeDegrees>
            </Position>
            <AltitudeMeters>874.79998779296875</AltitudeMeters>
            <DistanceMeters>12885.820858171</DistanceMeters>
          </Trackpoint>
          <Trackpoint>
            <Time>2020-09-13T08:04:17.000Z</Time>
            <Position>
              <LatitudeDegrees>41.1161548085510730743408203125</LatitudeDegrees>
              <LongitudeDegrees>-4.38456424511969089508056640625</LongitudeDegrees>
            </Position>
            <AltitudeMeters>874.79998779296875</AltitudeMeters>
            <DistanceMeters>12888.955299616</DistanceMeters>
          </Trackpoint>
          <Trackpoint>
            <Time>2020-09-13T08:04:18.000Z</Time>
            <Position>
              <LatitudeDegrees>41.11615455709397792816162109375</LatitudeDegrees>
              <LongitudeDegrees>-4.38452803529798984527587890625</LongitudeDegrees>
            </Position>
            <AltitudeMeters>875</AltitudeMeters>
            <DistanceMeters>12891.991696831</DistanceMeters>
          </Trackpoint>
          <Trackpoint>
            <Time>2020-09-13T08:04:21.000Z</Time>
            <Position>
              <LatitudeDegrees>41.116157658398151397705078125</LatitudeDegrees>
              <LongitudeDegrees>-4.38441865146160125732421875</LongitudeDegrees>
            </Position>
            <AltitudeMeters>875.5999755859375</AltitudeMeters>
            <DistanceMeters>12901.170510111</DistanceMeters>
          </Trackpoint>
          <Trackpoint>
            <Time>2020-09-13T08:04:25.000Z</Time>
            <Position>
              <LatitudeDegrees>41.1161626875400543212890625</LatitudeDegrees>
              <LongitudeDegrees>-4.38427356071770191192626953125</LongitudeDegrees>
            </Position>
            <AltitudeMeters>876.5999755859375</AltitudeMeters>
            <DistanceMeters>12913.350251316</DistanceMeters>
          </Trackpoint>
          <Trackpoint>
            <Time>2020-09-13T08:04:30.000Z</Time>
            <Position>
              <LatitudeDegrees>41.116165034472942352294921875</LatitudeDegrees>
              <LongitudeDegrees>-4.3841013126075267791748046875</LongitudeDegrees>
            </Position>
            <AltitudeMeters>878.20001220703125</AltitudeMeters>
            <DistanceMeters>12927.796187306</DistanceMeters>
          </Trackpoint>
          <Trackpoint>
            <Time>2020-09-13T08:04:37.000Z</Time>
            <Position>
              <LatitudeDegrees>41.11616277135908603668212890625</LatitudeDegrees>
              <LongitudeDegrees>-4.38385195098817348480224609375</LongitudeDegrees>
            </Position>
            <AltitudeMeters>879.79998779296875</AltitudeMeters>
            <DistanceMeters>12948.7072471</DistanceMeters>
          </Trackpoint>
          <Trackpoint>
            <Time>2020-09-13T08:04:49.000Z</Time>
            <Position>
              <LatitudeDegrees>41.11615707166492938995361328125</LatitudeDegrees>
              <LongitudeDegrees>-4.38345037400722503662109375</LongitudeDegrees>
            </Position>
            <AltitudeMeters>880.20001220703125</AltitudeMeters>
            <DistanceMeters>12982.386409237</DistanceMeters>
          </Trackpoint>
          <Trackpoint>
            <Time>2020-09-13T08:05:00.000Z</Time>
            <Position>
              <LatitudeDegrees>41.116139553487300872802734375</LatitudeDegrees>
              <LongitudeDegrees>-4.3830961547791957855224609375</LongitudeDegrees>
            </Position>
            <AltitudeMeters>880.79998779296875</AltitudeMeters>
            <DistanceMeters>13012.152532106</DistanceMeters>
          </Trackpoint>
          <Trackpoint>
            <Time>2020-09-13T08:05:09.000Z</Time>
            <Position>
              <LatitudeDegrees>41.11610971391201019287109375</LatitudeDegrees>
              <LongitudeDegrees>-4.3827944062650203704833984375</LongitudeDegrees>
            </Position>
            <AltitudeMeters>881.5999755859375</AltitudeMeters>
            <DistanceMeters>13037.671761188</DistanceMeters>
          </Trackpoint>
          <Trackpoint>
            <Time>2020-09-13T08:05:10.000Z</Time>
            <Position>
              <LatitudeDegrees>41.1161061935126781463623046875</LatitudeDegrees>
              <LongitudeDegrees>-4.3827605433762073516845703125</LongitudeDegrees>
            </Position>
            <AltitudeMeters>881.79998779296875</AltitudeMeters>
            <DistanceMeters>13040.538356654</DistanceMeters>
          </Trackpoint>
          <Trackpoint>
            <Time>2020-09-13T08:05:19.000Z</Time>
            <Position>
              <LatitudeDegrees>41.1160860769450664520263671875</LatitudeDegrees>
              <LongitudeDegrees>-4.38246390782296657562255859375</LongitudeDegrees>
            </Position>
            <AltitudeMeters>882.5999755859375</AltitudeMeters>
            <DistanceMeters>13065.512490873</DistanceMeters>
          </Trackpoint>
          <Trackpoint>
            <Time>2020-09-13T08:05:23.000Z</Time>
            <Position>
              <LatitudeDegrees>41.11606855876743793487548828125</LatitudeDegrees>
              <LongitudeDegrees>-4.38232845626771450042724609375</LongitudeDegrees>
            </Position>
            <AltitudeMeters>883</AltitudeMeters>
            <DistanceMeters>13077.036610547</DistanceMeters>
          </Trackpoint>
          <Trackpoint>
            <Time>2020-09-13T08:05:34.000Z</Time>
            <Position>
              <LatitudeDegrees>41.1160569079220294952392578125</LatitudeDegrees>
              <LongitudeDegrees>-4.38200089149177074432373046875</LongitudeDegrees>
            </Position>
            <AltitudeMeters>884.20001220703125</AltitudeMeters>
            <DistanceMeters>13104.534327197</DistanceMeters>
          </Trackpoint>
          <Trackpoint>
            <Time>2020-09-13T08:05:44.000Z</Time>
            <Position>
              <LatitudeDegrees>41.1160696484148502349853515625</LatitudeDegrees>
              <LongitudeDegrees>-4.381709955632686614990234375</LongitudeDegrees>
            </Position>
            <AltitudeMeters>884.20001220703125</AltitudeMeters>
            <DistanceMeters>13128.971163229</DistanceMeters>
          </Trackpoint>
          <Trackpoint>
            <Time>2020-09-13T08:05:46.000Z</Time>
            <Position>
              <LatitudeDegrees>41.11608029343187808990478515625</LatitudeDegrees>
              <LongitudeDegrees>-4.38159554265439510345458984375</LongitudeDegrees>
            </Position>
            <AltitudeMeters>884.20001220703125</AltitudeMeters>
            <DistanceMeters>13138.637767133</DistanceMeters>
          </Trackpoint>
          <Trackpoint>
            <Time>2020-09-13T08:05:55.000Z</Time>
            <Position>
              <LatitudeDegrees>41.116126812994480133056640625</LatitudeDegrees>
              <LongitudeDegrees>-4.3812296725809574127197265625</LongitudeDegrees>
            </Position>
            <AltitudeMeters>884.5999755859375</AltitudeMeters>
            <DistanceMeters>13169.750854328</DistanceMeters>
          </Trackpoint>
          <Trackpoint>
            <Time>2020-09-13T08:05:57.000Z</Time>
            <Position>
              <LatitudeDegrees>41.116138882935047149658203125</LatitudeDegrees>
              <LongitudeDegrees>-4.38114677555859088897705078125</LongitudeDegrees>
            </Position>
            <AltitudeMeters>884.79998779296875</AltitudeMeters>
            <DistanceMeters>13176.830185106</DistanceMeters>
          </Trackpoint>
          <Trackpoint>
            <Time>2020-09-13T08:05:58.000Z</Time>
            <Position>
              <LatitudeDegrees>41.1161450855433940887451171875</LatitudeDegrees>
              <LongitudeDegrees>-4.38110888935625553131103515625</LongitudeDegrees>
            </Position>
            <AltitudeMeters>885</AltitudeMeters>
            <DistanceMeters>13180.080598839</DistanceMeters>
          </Trackpoint>
          <Trackpoint>
            <Time>2020-09-13T08:06:00.000Z</Time>
            <Position>
              <LatitudeDegrees>41.1161554791033267974853515625</LatitudeDegrees>
              <LongitudeDegrees>-4.38103965483605861663818359375</LongitudeDegrees>
            </Position>
            <AltitudeMeters>885</AltitudeMeters>
            <DistanceMeters>13185.999016409</DistanceMeters>
          </Trackpoint>
          <Trackpoint>
            <Time>2020-09-13T08:06:01.000Z</Time>
            <Position>
              <LatitudeDegrees>41.116157658398151397705078125</LatitudeDegrees>
              <LongitudeDegrees>-4.3810114078223705291748046875</LongitudeDegrees>
            </Position>
            <AltitudeMeters>885.20001220703125</AltitudeMeters>
            <DistanceMeters>13188.380379045</DistanceMeters>
          </Trackpoint>
          <Trackpoint>
            <Time>2020-09-13T08:06:03.000Z</Time>
            <Position>
              <LatitudeDegrees>41.11616428010165691375732421875</LatitudeDegrees>
              <LongitudeDegrees>-4.3809785507619380950927734375</LongitudeDegrees>
            </Position>
            <AltitudeMeters>885.20001220703125</AltitudeMeters>
            <DistanceMeters>13191.234346276</DistanceMeters>
          </Trackpoint>
          <Trackpoint>
            <Time>2020-09-13T08:07:50.000Z</Time>
            <Position>
              <LatitudeDegrees>41.11616335809230804443359375</LatitudeDegrees>
              <LongitudeDegrees>-4.38100696541368961334228515625</LongitudeDegrees>
            </Position>
            <AltitudeMeters>885.20001220703125</AltitudeMeters>
            <DistanceMeters>13193.619497877</DistanceMeters>
          </Trackpoint>
          <Trackpoint>
            <Time>2020-09-13T08:07:53.000Z</Time>
            <Position>
              <LatitudeDegrees>41.1161641962826251983642578125</LatitudeDegrees>
              <LongitudeDegrees>-4.3810067139565944671630859375</LongitudeDegrees>
            </Position>
            <AltitudeMeters>885.20001220703125</AltitudeMeters>
            <DistanceMeters>13193.619497877</DistanceMeters>
          </Trackpoint>
          <Trackpoint>
            <Time>2020-09-13T08:07:56.000Z</Time>
            <Position>
              <LatitudeDegrees>41.11616847105324268341064453125</LatitudeDegrees>
              <LongitudeDegrees>-4.380933456122875213623046875</LongitudeDegrees>
            </Position>
            <AltitudeMeters>885.4000244140625</AltitudeMeters>
            <DistanceMeters>13199.78086472</DistanceMeters>
          </Trackpoint>
          <Trackpoint>
            <Time>2020-09-13T08:07:57.000Z</Time>
            <Position>
              <LatitudeDegrees>41.1161745898425579071044921875</LatitudeDegrees>
              <LongitudeDegrees>-4.3808954022824764251708984375</LongitudeDegrees>
            </Position>
            <AltitudeMeters>885.4000244140625</AltitudeMeters>
            <DistanceMeters>13203.043756095</DistanceMeters>
          </Trackpoint>
          <Trackpoint>
            <Time>2020-09-13T08:07:59.000Z</Time>
            <Position>
              <LatitudeDegrees>41.11618540249764919281005859375</LatitudeDegrees>
              <LongitudeDegrees>-4.3808209709823131561279296875</LongitudeDegrees>
            </Position>
            <AltitudeMeters>885.5999755859375</AltitudeMeters>
            <DistanceMeters>13209.399899738</DistanceMeters>
          </Trackpoint>
          <Trackpoint>
            <Time>2020-09-13T08:08:04.000Z</Time>
            <Position>
              <LatitudeDegrees>41.116201244294643402099609375</LatitudeDegrees>
              <LongitudeDegrees>-4.38061620108783245086669921875</LongitudeDegrees>
            </Position>
            <AltitudeMeters>886.20001220703125</AltitudeMeters>
            <DistanceMeters>13226.660528698</DistanceMeters>
          </Trackpoint>
          <Trackpoint>
            <Time>2020-09-13T08:08:06.000Z</Time>
            <Position>
              <LatitudeDegrees>41.1161970533430576324462890625</LatitudeDegrees>
              <LongitudeDegrees>-4.3805359862744808197021484375</LongitudeDegrees>
            </Position>
            <AltitudeMeters>886.4000244140625</AltitudeMeters>
            <DistanceMeters>13233.402739376</DistanceMeters>
          </Trackpoint>
          <Trackpoint>
            <Time>2020-09-13T08:08:07.000Z</Time>
            <Position>
              <LatitudeDegrees>41.1161910183727741241455078125</LatitudeDegrees>
              <LongitudeDegrees>-4.38050086610019207000732421875</LongitudeDegrees>
            </Position>
            <AltitudeMeters>886.5999755859375</AltitudeMeters>
            <DistanceMeters>13236.422735602</DistanceMeters>
          </Trackpoint>
          <Trackpoint>
            <Time>2020-09-13T08:08:11.000Z</Time>
            <Position>
              <LatitudeDegrees>41.11616662703454494476318359375</LatitudeDegrees>
              <LongitudeDegrees>-4.38035367988049983978271484375</LongitudeDegrees>
            </Position>
            <AltitudeMeters>887.20001220703125</AltitudeMeters>
            <DistanceMeters>13249.059502271</DistanceMeters>
          </Trackpoint>
          <Trackpoint>
            <Time>2020-09-13T08:08:14.000Z</Time>
            <Position>
              <LatitudeDegrees>41.11615665256977081298828125</LatitudeDegrees>
              <LongitudeDegrees>-4.38025209121406078338623046875</LongitudeDegrees>
            </Position>
            <AltitudeMeters>887.4000244140625</AltitudeMeters>
            <DistanceMeters>13257.650358734</DistanceMeters>
          </Trackpoint>
          <Trackpoint>
            <Time>2020-09-13T08:08:20.000Z</Time>
            <Position>
              <LatitudeDegrees>41.116146929562091827392578125</LatitudeDegrees>
              <LongitudeDegrees>-4.38000566326081752777099609375</LongitudeDegrees>
            </Position>
            <AltitudeMeters>888.20001220703125</AltitudeMeters>
            <DistanceMeters>13278.342193948</DistanceMeters>
          </Trackpoint>
          <Trackpoint>
            <Time>2020-09-13T08:08:23.000Z</Time>
            <Position>
              <LatitudeDegrees>41.1161310039460659027099609375</LatitudeDegrees>
              <LongitudeDegrees>-4.379894770681858062744140625</LongitudeDegrees>
            </Position>
            <AltitudeMeters>888.5999755859375</AltitudeMeters>
            <DistanceMeters>13287.807732416</DistanceMeters>
          </Trackpoint>
          <Trackpoint>
            <Time>2020-09-13T08:08:27.000Z</Time>
            <Position>
              <LatitudeDegrees>41.11611331813037395477294921875</LatitudeDegrees>
              <LongitudeDegrees>-4.37973878346383571624755859375</LongitudeDegrees>
            </Position>
            <AltitudeMeters>889.4000244140625</AltitudeMeters>
            <DistanceMeters>13301.03489126</DistanceMeters>
          </Trackpoint>
          <Trackpoint>
            <Time>2020-09-13T08:08:28.000Z</Time>
            <Position>
              <LatitudeDegrees>41.11610342748463153839111328125</LatitudeDegrees>
              <LongitudeDegrees>-4.3797034956514835357666015625</LongitudeDegrees>
            </Position>
            <AltitudeMeters>889.5999755859375</AltitudeMeters>
            <DistanceMeters>13304.192295953</DistanceMeters>
          </Trackpoint>
          <Trackpoint>
            <Time>2020-09-13T08:08:29.000Z</Time>
            <Position>
              <LatitudeDegrees>41.11609135754406452178955078125</LatitudeDegrees>
              <LongitudeDegrees>-4.37967407517135143280029296875</LongitudeDegrees>
            </Position>
            <AltitudeMeters>890</AltitudeMeters>
            <DistanceMeters>13307.001617368</DistanceMeters>
          </Trackpoint>
          <Trackpoint>
            <Time>2020-09-13T08:08:34.000Z</Time>
            <Position>
              <LatitudeDegrees>41.11603318713605403900146484375</LatitudeDegrees>
              <LongitudeDegrees>-4.37954348511993885040283203125</LongitudeDegrees>
            </Position>
            <AltitudeMeters>891.4000244140625</AltitudeMeters>
            <DistanceMeters>13319.723135753</DistanceMeters>
          </Trackpoint>
          <Trackpoint>
            <Time>2020-09-13T08:08:36.000Z</Time>
            <Position>
              <LatitudeDegrees>41.1160133220255374908447265625</LatitudeDegrees>
              <LongitudeDegrees>-4.37950325198471546173095703125</LongitudeDegrees>
            </Position>
            <AltitudeMeters>892</AltitudeMeters>
            <DistanceMeters>13323.75701698</DistanceMeters>
          </Trackpoint>
          <Trackpoint>
            <Time>2020-09-13T08:08:37.000Z</Time>
            <Position>
              <LatitudeDegrees>41.11599697731435298919677734375</LatitudeDegrees>
              <LongitudeDegrees>-4.37947542406618595123291015625</LongitudeDegrees>
            </Position>
            <AltitudeMeters>892.20001220703125</AltitudeMeters>
            <DistanceMeters>13326.71660718</DistanceMeters>
          </Trackpoint>
          <Trackpoint>
            <Time>2020-09-13T08:08:41.000Z</Time>
            <Position>
              <LatitudeDegrees>41.11596277914941310882568359375</LatitudeDegrees>
              <LongitudeDegrees>-4.37936612404882907867431640625</LongitudeDegrees>
            </Position>
            <AltitudeMeters>892.79998779296875</AltitudeMeters>
            <DistanceMeters>13336.640872582</DistanceMeters>
          </Trackpoint>
          <Trackpoint>
            <Time>2020-09-13T08:08:42.000Z</Time>
            <Position>
              <LatitudeDegrees>41.11594869755208492279052734375</LatitudeDegrees>
              <LongitudeDegrees>-4.3793393857777118682861328125</LongitudeDegrees>
            </Position>
            <AltitudeMeters>893</AltitudeMeters>
            <DistanceMeters>13339.376915961</DistanceMeters>
          </Trackpoint>
          <Trackpoint>
            <Time>2020-09-13T08:08:51.000Z</Time>
            <Position>
              <LatitudeDegrees>41.1158651299774646759033203125</LatitudeDegrees>
              <LongitudeDegrees>-4.37906152568757534027099609375</LongitudeDegrees>
            </Position>
            <AltitudeMeters>894.20001220703125</AltitudeMeters>
            <DistanceMeters>13364.464328502</DistanceMeters>
          </Trackpoint>
          <Trackpoint>
            <Time>2020-09-13T08:08:53.000Z</Time>
            <Position>
              <LatitudeDegrees>41.1158617772161960601806640625</LatitudeDegrees>
              <LongitudeDegrees>-4.37899732030928134918212890625</LongitudeDegrees>
            </Position>
            <AltitudeMeters>894.20001220703125</AltitudeMeters>
            <DistanceMeters>13369.860808515</DistanceMeters>
          </Trackpoint>
          <Trackpoint>
            <Time>2020-09-13T08:08:57.000Z</Time>
            <Position>
              <LatitudeDegrees>41.1158430017530918121337890625</LatitudeDegrees>
              <LongitudeDegrees>-4.37886086292564868927001953125</LongitudeDegrees>
            </Position>
            <AltitudeMeters>894.4000244140625</AltitudeMeters>
            <DistanceMeters>13381.492171517</DistanceMeters>
          </Trackpoint>
          <Trackpoint>
            <Time>2020-09-13T08:08:59.000Z</Time>
            <Position>
              <LatitudeDegrees>41.1158300936222076416015625</LatitudeDegrees>
              <LongitudeDegrees>-4.37879129312932491302490234375</LongitudeDegrees>
            </Position>
            <AltitudeMeters>894.5999755859375</AltitudeMeters>
            <DistanceMeters>13387.500685944</DistanceMeters>
          </Trackpoint>
          <Trackpoint>
            <Time>2020-09-13T08:09:05.000Z</Time>
            <Position>
              <LatitudeDegrees>41.1157943867146968841552734375</LatitudeDegrees>
              <LongitudeDegrees>-4.3785987608134746551513671875</LongitudeDegrees>
            </Position>
            <AltitudeMeters>895</AltitudeMeters>
            <DistanceMeters>13404.127102581</DistanceMeters>
          </Trackpoint>
          <Trackpoint>
            <Time>2020-09-13T08:09:07.000Z</Time>
            <Position>
              <LatitudeDegrees>41.11577535979449748992919921875</LatitudeDegrees>
              <LongitudeDegrees>-4.378530867397785186767578125</LongitudeDegrees>
            </Position>
            <AltitudeMeters>895.20001220703125</AltitudeMeters>
            <DistanceMeters>13410.201383802</DistanceMeters>
          </Trackpoint>
          <Trackpoint>
            <Time>2020-09-13T08:09:10.000Z</Time>
            <Position>
              <LatitudeDegrees>41.11574904061853885650634765625</LatitudeDegrees>
              <LongitudeDegrees>-4.3784445337951183319091796875</LongitudeDegrees>
            </Position>
            <AltitudeMeters>895.4000244140625</AltitudeMeters>
            <DistanceMeters>13418.01093797</DistanceMeters>
          </Trackpoint>
          <Trackpoint>
            <Time>2020-09-13T08:09:14.000Z</Time>
            <Position>
              <LatitudeDegrees>41.11569707281887531280517578125</LatitudeDegrees>
              <LongitudeDegrees>-4.37833137810230255126953125</LongitudeDegrees>
            </Position>
            <AltitudeMeters>896.20001220703125</AltitudeMeters>
            <DistanceMeters>13429.123376738</DistanceMeters>
          </Trackpoint>
          <Trackpoint>
            <Time>2020-09-13T08:09:17.000Z</Time>
            <Position>
              <LatitudeDegrees>41.11565650440752506256103515625</LatitudeDegrees>
              <LongitudeDegrees>-4.37824948690831661224365234375</LongitudeDegrees>
            </Position>
            <AltitudeMeters>896.79998779296875</AltitudeMeters>
            <DistanceMeters>13437.341951541</DistanceMeters>
          </Trackpoint>
          <Trackpoint>
            <Time>2020-09-13T08:09:22.000Z</Time>
            <Position>
              <LatitudeDegrees>41.1155898682773113250732421875</LatitudeDegrees>
              <LongitudeDegrees>-4.3781038932502269744873046875</LongitudeDegrees>
            </Position>
            <AltitudeMeters>897.79998779296875</AltitudeMeters>
            <DistanceMeters>13451.626650957</DistanceMeters>
          </Trackpoint>
          <Trackpoint>
            <Time>2020-09-13T08:09:28.000Z</Time>
            <Position>
              <LatitudeDegrees>41.11550998874008655548095703125</LatitudeDegrees>
              <LongitudeDegrees>-4.37791571952402591705322265625</LongitudeDegrees>
            </Position>
            <AltitudeMeters>898.5999755859375</AltitudeMeters>
            <DistanceMeters>13469.738154399</DistanceMeters>
          </Trackpoint>
          <Trackpoint>
            <Time>2020-09-13T08:09:36.000Z</Time>
            <Position>
              <LatitudeDegrees>41.11546958796679973602294921875</LatitudeDegrees>
              <LongitudeDegrees>-4.37768504954874515533447265625</LongitudeDegrees>
            </Position>
            <AltitudeMeters>899</AltitudeMeters>
            <DistanceMeters>13489.596691567</DistanceMeters>
          </Trackpoint>
          <Trackpoint>
            <Time>2020-09-13T08:09:45.000Z</Time>
            <Position>
              <LatitudeDegrees>41.11544896848499774932861328125</LatitudeDegrees>
              <LongitudeDegrees>-4.37739570625126361846923828125</LongitudeDegrees>
            </Position>
            <AltitudeMeters>898.4000244140625</AltitudeMeters>
            <DistanceMeters>13513.967292459</DistanceMeters>
          </Trackpoint>
          <Trackpoint>
            <Time>2020-09-13T08:09:49.000Z</Time>
            <Position>
              <LatitudeDegrees>41.11543555743992328643798828125</LatitudeDegrees>
              <LongitudeDegrees>-4.37726997770369052886962890625</LongitudeDegrees>
            </Position>
            <AltitudeMeters>898.4000244140625</AltitudeMeters>
            <DistanceMeters>13524.615373969</DistanceMeters>
          </Trackpoint>
          <Trackpoint>
            <Time>2020-09-13T08:09:56.000Z</Time>
            <Position>
              <LatitudeDegrees>41.11545232124626636505126953125</LatitudeDegrees>
              <LongitudeDegrees>-4.3770621903240680694580078125</LongitudeDegrees>
            </Position>
            <AltitudeMeters>897.5999755859375</AltitudeMeters>
            <DistanceMeters>13542.138722664</DistanceMeters>
          </Trackpoint>
          <Trackpoint>
            <Time>2020-09-13T08:09:57.000Z</Time>
            <Position>
              <LatitudeDegrees>41.1154678277671337127685546875</LatitudeDegrees>
              <LongitudeDegrees>-4.37701935879886150360107421875</LongitudeDegrees>
            </Position>
            <AltitudeMeters>897.4000244140625</AltitudeMeters>
            <DistanceMeters>13546.124184301</DistanceMeters>
          </Trackpoint>
          <Trackpoint>
            <Time>2020-09-13T08:10:03.000Z</Time>
            <Position>
              <LatitudeDegrees>41.1156197078526020050048828125</LatitudeDegrees>
              <LongitudeDegrees>-4.37677511014044284820556640625</LongitudeDegrees>
            </Position>
            <AltitudeMeters>896.5999755859375</AltitudeMeters>
            <DistanceMeters>13572.680368329</DistanceMeters>
          </Trackpoint>
          <Trackpoint>
            <Time>2020-09-13T08:10:10.000Z</Time>
            <Position>
              <LatitudeDegrees>41.11586068756878376007080078125</LatitudeDegrees>
              <LongitudeDegrees>-4.37644804827868938446044921875</LongitudeDegrees>
            </Position>
            <AltitudeMeters>896.4000244140625</AltitudeMeters>
            <DistanceMeters>13611.040923946</DistanceMeters>
          </Trackpoint>
          <Trackpoint>
            <Time>2020-09-13T08:10:17.000Z</Time>
            <Position>
              <LatitudeDegrees>41.11617903225123882293701171875</LatitudeDegrees>
              <LongitudeDegrees>-4.37605074606835842132568359375</LongitudeDegrees>
            </Position>
            <AltitudeMeters>895.5999755859375</AltitudeMeters>
            <DistanceMeters>13659.67557408</DistanceMeters>
          </Trackpoint>
          <Trackpoint>
            <Time>2020-09-13T08:10:22.000Z</Time>
            <Position>
              <LatitudeDegrees>41.11643535085022449493408203125</LatitudeDegrees>
              <LongitudeDegrees>-4.37572837807238101959228515625</LongitudeDegrees>
            </Position>
            <AltitudeMeters>894.5999755859375</AltitudeMeters>
            <DistanceMeters>13698.976674772</DistanceMeters>
          </Trackpoint>
          <Trackpoint>
            <Time>2020-09-13T08:10:25.000Z</Time>
            <Position>
              <LatitudeDegrees>41.1165977083146572113037109375</LatitudeDegrees>
              <LongitudeDegrees>-4.375528134405612945556640625</LongitudeDegrees>
            </Position>
            <AltitudeMeters>893.79998779296875</AltitudeMeters>
            <DistanceMeters>13723.644116291</DistanceMeters>
          </Trackpoint>
          <Trackpoint>
            <Time>2020-09-13T08:10:28.000Z</Time>
            <Position>
              <LatitudeDegrees>41.1167769134044647216796875</LatitudeDegrees>
              <LongitudeDegrees>-4.37533560208976268768310546875</LongitudeDegrees>
            </Position>
            <AltitudeMeters>893</AltitudeMeters>
            <DistanceMeters>13749.304848437</DistanceMeters>
          </Trackpoint>
          <Trackpoint>
            <Time>2020-09-13T08:10:33.000Z</Time>
            <Position>
              <LatitudeDegrees>41.117091737687587738037109375</LatitudeDegrees>
              <LongitudeDegrees>-4.3750344403088092803955078125</LongitudeDegrees>
            </Position>
            <AltitudeMeters>891</AltitudeMeters>
            <DistanceMeters>13792.4967638</DistanceMeters>
          </Trackpoint>
          <Trackpoint>
            <Time>2020-09-13T08:10:35.000Z</Time>
            <Position>
              <LatitudeDegrees>41.11721185036003589630126953125</LatitudeDegrees>
              <LongitudeDegrees>-4.37491466291248798370361328125</LongitudeDegrees>
            </Position>
            <AltitudeMeters>890.4000244140625</AltitudeMeters>
            <DistanceMeters>13809.217685631</DistanceMeters>
          </Trackpoint>
          <Trackpoint>
            <Time>2020-09-13T08:10:37.000Z</Time>
            <Position>
              <LatitudeDegrees>41.1173309572041034698486328125</LatitudeDegrees>
              <LongitudeDegrees>-4.37479446642100811004638671875</LongitudeDegrees>
            </Position>
            <AltitudeMeters>889.5999755859375</AltitudeMeters>
            <DistanceMeters>13825.870693697</DistanceMeters>
          </Trackpoint>
          <Trackpoint>
            <Time>2020-09-13T08:10:40.000Z</Time>
            <Position>
              <LatitudeDegrees>41.1174905486404895782470703125</LatitudeDegrees>
              <LongitudeDegrees>-4.3746091425418853759765625</LongitudeDegrees>
            </Position>
            <AltitudeMeters>888.5999755859375</AltitudeMeters>
            <DistanceMeters>13849.471779168</DistanceMeters>
          </Trackpoint>
          <Trackpoint>
            <Time>2020-09-13T08:10:47.000Z</Time>
            <Position>
              <LatitudeDegrees>41.11781802959740161895751953125</LatitudeDegrees>
              <LongitudeDegrees>-4.37407697550952434539794921875</LongitudeDegrees>
            </Position>
            <AltitudeMeters>887.5999755859375</AltitudeMeters>
            <DistanceMeters>13907.088694591</DistanceMeters>
          </Trackpoint>
          <Trackpoint>
            <Time>2020-09-13T08:10:55.000Z</Time>
            <Position>
              <LatitudeDegrees>41.1181242205202579498291015625</LatitudeDegrees>
              <LongitudeDegrees>-4.37342234887182712554931640625</LongitudeDegrees>
            </Position>
            <AltitudeMeters>886.5999755859375</AltitudeMeters>
            <DistanceMeters>13971.698265464</DistanceMeters>
          </Trackpoint>
          <Trackpoint>
            <Time>2020-09-13T08:10:56.000Z</Time>
            <Position>
              <LatitudeDegrees>41.1181582510471343994140625</LatitudeDegrees>
              <LongitudeDegrees>-4.373344480991363525390625</LongitudeDegrees>
            </Position>
            <AltitudeMeters>886.5999755859375</AltitudeMeters>
            <DistanceMeters>13979.246760835</DistanceMeters>
          </Trackpoint>
          <Trackpoint>
            <Time>2020-09-13T08:11:01.000Z</Time>
            <Position>
              <LatitudeDegrees>41.1183344386518001556396484375</LatitudeDegrees>
              <LongitudeDegrees>-4.37296704389154911041259765625</LongitudeDegrees>
            </Position>
            <AltitudeMeters>885.5999755859375</AltitudeMeters>
            <DistanceMeters>14016.47783461</DistanceMeters>
          </Trackpoint>
          <Trackpoint>
            <Time>2020-09-13T08:11:09.000Z</Time>
            <Position>
              <LatitudeDegrees>41.1186224408447742462158203125</LatitudeDegrees>
              <LongitudeDegrees>-4.3723609484732151031494140625</LongitudeDegrees>
            </Position>
            <AltitudeMeters>884.79998779296875</AltitudeMeters>
            <DistanceMeters>14076.563504889</DistanceMeters>
          </Trackpoint>
          <Trackpoint>
            <Time>2020-09-13T08:11:15.000Z</Time>
            <Position>
              <LatitudeDegrees>41.1188232712447643280029296875</LatitudeDegrees>
              <LongitudeDegrees>-4.37195870094001293182373046875</LongitudeDegrees>
            </Position>
            <AltitudeMeters>884.4000244140625</AltitudeMeters>
            <DistanceMeters>14117.026254795</DistanceMeters>
          </Trackpoint>
          <Trackpoint>
            <Time>2020-09-13T08:11:24.000Z</Time>
            <Position>
              <LatitudeDegrees>41.11910347826778888702392578125</LatitudeDegrees>
              <LongitudeDegrees>-4.37136107124388217926025390625</LongitudeDegrees>
            </Position>
            <AltitudeMeters>884.5999755859375</AltitudeMeters>
            <DistanceMeters>14176.049396456</DistanceMeters>
          </Trackpoint>
          <Trackpoint>
            <Time>2020-09-13T08:11:29.000Z</Time>
            <Position>
              <LatitudeDegrees>41.11926290206611156463623046875</LatitudeDegrees>
              <LongitudeDegrees>-4.3710176646709442138671875</LongitudeDegrees>
            </Position>
            <AltitudeMeters>884.4000244140625</AltitudeMeters>
            <DistanceMeters>14209.871832414</DistanceMeters>
          </Trackpoint>
          <Trackpoint>
            <Time>2020-09-13T08:11:33.000Z</Time>
            <Position>
              <LatitudeDegrees>41.11937270499765872955322265625</LatitudeDegrees>
              <LongitudeDegrees>-4.37072061002254486083984375</LongitudeDegrees>
            </Position>
            <AltitudeMeters>883.4000244140625</AltitudeMeters>
            <DistanceMeters>14237.616215743</DistanceMeters>
          </Trackpoint>
          <Trackpoint>
            <Time>2020-09-13T08:11:34.000Z</Time>
            <Position>
              <LatitudeDegrees>41.11939282156527042388916015625</LatitudeDegrees>
              <LongitudeDegrees>-4.37064508907496929168701171875</LongitudeDegrees>
            </Position>
            <AltitudeMeters>883.4000244140625</AltitudeMeters>
            <DistanceMeters>14244.332930856</DistanceMeters>
          </Trackpoint>
          <Trackpoint>
            <Time>2020-09-13T08:11:44.000Z</Time>
            <Position>
              <LatitudeDegrees>41.11960857175290584564208984375</LatitudeDegrees>
              <LongitudeDegrees>-4.36991368420422077178955078125</LongitudeDegrees>
            </Position>
            <AltitudeMeters>882.20001220703125</AltitudeMeters>
            <DistanceMeters>14310.193711069</DistanceMeters>
          </Trackpoint>
          <Trackpoint>
            <Time>2020-09-13T08:11:46.000Z</Time>
            <Position>
              <LatitudeDegrees>41.11965157091617584228515625</LatitudeDegrees>
              <LongitudeDegrees>-4.3697528354823589324951171875</LongitudeDegrees>
            </Position>
            <AltitudeMeters>881.79998779296875</AltitudeMeters>
            <DistanceMeters>14324.504620675</DistanceMeters>
          </Trackpoint>
          <Trackpoint>
            <Time>2020-09-13T08:11:52.000Z</Time>
            <Position>
              <LatitudeDegrees>41.11976430751383304595947265625</LatitudeDegrees>
              <LongitudeDegrees>-4.36932460404932498931884765625</LongitudeDegrees>
            </Position>
            <AltitudeMeters>881.4000244140625</AltitudeMeters>
            <DistanceMeters>14362.540242756</DistanceMeters>
          </Trackpoint>
          <Trackpoint>
            <Time>2020-09-13T08:11:56.000Z</Time>
            <Position>
              <LatitudeDegrees>41.1198223941028118133544921875</LatitudeDegrees>
              <LongitudeDegrees>-4.369061328470706939697265625</LongitudeDegrees>
            </Position>
            <AltitudeMeters>881.79998779296875</AltitudeMeters>
            <DistanceMeters>14385.542596965</DistanceMeters>
          </Trackpoint>
          <Trackpoint>
            <Time>2020-09-13T08:11:57.000Z</Time>
            <Position>
              <LatitudeDegrees>41.11984225921332836151123046875</LatitudeDegrees>
              <LongitudeDegrees>-4.36898346059024333953857421875</LongitudeDegrees>
            </Position>
            <AltitudeMeters>882</AltitudeMeters>
            <DistanceMeters>14392.436455995</DistanceMeters>
          </Trackpoint>
          <Trackpoint>
            <Time>2020-09-13T08:11:58.000Z</Time>
            <Position>
              <LatitudeDegrees>41.1198560893535614013671875</LatitudeDegrees>
              <LongitudeDegrees>-4.368931241333484649658203125</LongitudeDegrees>
            </Position>
            <AltitudeMeters>882</AltitudeMeters>
            <DistanceMeters>14397.078197306</DistanceMeters>
          </Trackpoint>
          <Trackpoint>
            <Time>2020-09-13T08:11:59.000Z</Time>
            <Position>
              <LatitudeDegrees>41.1198721826076507568359375</LatitudeDegrees>
              <LongitudeDegrees>-4.36886728741228580474853515625</LongitudeDegrees>
            </Position>
            <AltitudeMeters>882</AltitudeMeters>
            <DistanceMeters>14402.731288543</DistanceMeters>
          </Trackpoint>
          <Trackpoint>
            <Time>2020-09-13T08:12:06.000Z</Time>
            <Position>
              <LatitudeDegrees>41.11998056061565876007080078125</LatitudeDegrees>
              <LongitudeDegrees>-4.36842329800128936767578125</LongitudeDegrees>
            </Position>
            <AltitudeMeters>882.5999755859375</AltitudeMeters>
            <DistanceMeters>14441.864300234</DistanceMeters>
          </Trackpoint>
          <Trackpoint>
            <Time>2020-09-13T08:12:08.000Z</Time>
            <Position>
              <LatitudeDegrees>41.1200047843158245086669921875</LatitudeDegrees>
              <LongitudeDegrees>-4.3682930432260036468505859375</LongitudeDegrees>
            </Position>
            <AltitudeMeters>882.79998779296875</AltitudeMeters>
            <DistanceMeters>14453.11363316</DistanceMeters>
          </Trackpoint>
          <Trackpoint>
            <Time>2020-09-13T08:12:19.000Z</Time>
            <Position>
              <LatitudeDegrees>41.1201355420053005218505859375</LatitudeDegrees>
              <LongitudeDegrees>-4.36757613904774188995361328125</LongitudeDegrees>
            </Position>
            <AltitudeMeters>883.79998779296875</AltitudeMeters>
            <DistanceMeters>14514.960914436</DistanceMeters>
          </Trackpoint>
          <Trackpoint>
            <Time>2020-09-13T08:12:27.000Z</Time>
            <Position>
              <LatitudeDegrees>41.120216511189937591552734375</LatitudeDegrees>
              <LongitudeDegrees>-4.3671048246324062347412109375</LongitudeDegrees>
            </Position>
            <AltitudeMeters>883.5999755859375</AltitudeMeters>
            <DistanceMeters>14555.493790575</DistanceMeters>
          </Trackpoint>
          <Trackpoint>
            <Time>2020-09-13T08:12:31.000Z</Time>
            <Position>
              <LatitudeDegrees>41.12025238573551177978515625</LatitudeDegrees>
              <LongitudeDegrees>-4.36687725596129894256591796875</LongitudeDegrees>
            </Position>
            <AltitudeMeters>883.20001220703125</AltitudeMeters>
            <DistanceMeters>14574.988168409</DistanceMeters>
          </Trackpoint>
          <Trackpoint>
            <Time>2020-09-13T08:12:36.000Z</Time>
            <Position>
              <LatitudeDegrees>41.1203165911138057708740234375</LatitudeDegrees>
              <LongitudeDegrees>-4.3666092865169048309326171875</LongitudeDegrees>
            </Position>
            <AltitudeMeters>882.4000244140625</AltitudeMeters>
            <DistanceMeters>14598.565519954</DistanceMeters>
          </Trackpoint>
          <Trackpoint>
            <Time>2020-09-13T08:12:37.000Z</Time>
            <Position>
              <LatitudeDegrees>41.1203310079872608184814453125</LatitudeDegrees>
              <LongitudeDegrees>-4.3665606714785099029541015625</LongitudeDegrees>
            </Position>
            <AltitudeMeters>882.4000244140625</AltitudeMeters>
            <DistanceMeters>14602.946035043</DistanceMeters>
          </Trackpoint>
          <Trackpoint>
            <Time>2020-09-13T08:16:57.000Z</Time>
            <Position>
              <LatitudeDegrees>41.12033528275787830352783203125</LatitudeDegrees>
              <LongitudeDegrees>-4.366443157196044921875</LongitudeDegrees>
            </Position>
            <AltitudeMeters>882</AltitudeMeters>
            <DistanceMeters>14612.810522042</DistanceMeters>
          </Trackpoint>
          <Trackpoint>
            <Time>2020-09-13T08:16:58.000Z</Time>
            <Position>
              <LatitudeDegrees>41.120337545871734619140625</LatitudeDegrees>
              <LongitudeDegrees>-4.366442821919918060302734375</LongitudeDegrees>
            </Position>
            <AltitudeMeters>882</AltitudeMeters>
            <DistanceMeters>14613.079298179</DistanceMeters>
          </Trackpoint>
          <Trackpoint>
            <Time>2020-09-13T08:17:01.000Z</Time>
            <Position>
              <LatitudeDegrees>41.12034215591847896575927734375</LatitudeDegrees>
              <LongitudeDegrees>-4.366437457501888275146484375</LongitudeDegrees>
            </Position>
            <AltitudeMeters>882</AltitudeMeters>
            <DistanceMeters>14613.757924658</DistanceMeters>
          </Trackpoint>
          <Trackpoint>
            <Time>2020-09-13T08:17:04.000Z</Time>
            <Position>
              <LatitudeDegrees>41.12037719227373600006103515625</LatitudeDegrees>
              <LongitudeDegrees>-4.36634550802409648895263671875</LongitudeDegrees>
            </Position>
            <AltitudeMeters>881.79998779296875</AltitudeMeters>
            <DistanceMeters>14622.397520244</DistanceMeters>
          </Trackpoint>
          <Trackpoint>
            <Time>2020-09-13T08:17:09.000Z</Time>
            <Position>
              <LatitudeDegrees>41.1204751767218112945556640625</LatitudeDegrees>
              <LongitudeDegrees>-4.366114921867847442626953125</LongitudeDegrees>
            </Position>
            <AltitudeMeters>881.20001220703125</AltitudeMeters>
            <DistanceMeters>14644.59515866</DistanceMeters>
          </Trackpoint>
          <Trackpoint>
            <Time>2020-09-13T08:17:15.000Z</Time>
            <Position>
              <LatitudeDegrees>41.120635606348514556884765625</LatitudeDegrees>
              <LongitudeDegrees>-4.36581660993397235870361328125</LongitudeDegrees>
            </Position>
            <AltitudeMeters>882.20001220703125</AltitudeMeters>
            <DistanceMeters>14675.327450397</DistanceMeters>
          </Trackpoint>
          <Trackpoint>
            <Time>2020-09-13T08:17:16.000Z</Time>
            <Position>
              <LatitudeDegrees>41.12066133879125118255615234375</LatitudeDegrees>
              <LongitudeDegrees>-4.36577193439006805419921875</LongitudeDegrees>
            </Position>
            <AltitudeMeters>882.4000244140625</AltitudeMeters>
            <DistanceMeters>14680.043495168</DistanceMeters>
          </Trackpoint>
          <Trackpoint>
            <Time>2020-09-13T08:17:17.000Z</Time>
            <Position>
              <LatitudeDegrees>41.12068413756787776947021484375</LatitudeDegrees>
              <LongitudeDegrees>-4.3657285161316394805908203125</LongitudeDegrees>
            </Position>
            <AltitudeMeters>882.4000244140625</AltitudeMeters>
            <DistanceMeters>14684.482371918</DistanceMeters>
          </Trackpoint>
          <Trackpoint>
            <Time>2020-09-13T08:17:18.000Z</Time>
            <Position>
              <LatitudeDegrees>41.12070710398256778717041015625</LatitudeDegrees>
              <LongitudeDegrees>-4.36568736098706722259521484375</LongitudeDegrees>
            </Position>
            <AltitudeMeters>882.5999755859375</AltitudeMeters>
            <DistanceMeters>14688.778588422</DistanceMeters>
          </Trackpoint>
          <Trackpoint>
            <Time>2020-09-13T08:17:19.000Z</Time>
            <Position>
              <LatitudeDegrees>41.1207283101975917816162109375</LatitudeDegrees>
              <LongitudeDegrees>-4.3656440265476703643798828125</LongitudeDegrees>
            </Position>
            <AltitudeMeters>882.79998779296875</AltitudeMeters>
            <DistanceMeters>14693.1124734</DistanceMeters>
          </Trackpoint>
          <Trackpoint>
            <Time>2020-09-13T08:17:20.000Z</Time>
            <Position>
              <LatitudeDegrees>41.1207547970116138458251953125</LatitudeDegrees>
              <LongitudeDegrees>-4.3656058050692081451416015625</LongitudeDegrees>
            </Position>
            <AltitudeMeters>883</AltitudeMeters>
            <DistanceMeters>14697.467144517</DistanceMeters>
          </Trackpoint>
          <Trackpoint>
            <Time>2020-09-13T08:17:22.000Z</Time>
            <Position>
              <LatitudeDegrees>41.12081254832446575164794921875</LatitudeDegrees>
              <LongitudeDegrees>-4.365544617176055908203125</LongitudeDegrees>
            </Position>
            <AltitudeMeters>883.20001220703125</AltitudeMeters>
            <DistanceMeters>14705.691211185</DistanceMeters>
          </Trackpoint>
          <Trackpoint>
            <Time>2020-09-13T08:17:23.000Z</Time>
            <Position>
              <LatitudeDegrees>41.12084372900426387786865234375</LatitudeDegrees>
              <LongitudeDegrees>-4.36551687307655811309814453125</LongitudeDegrees>
            </Position>
            <AltitudeMeters>883.20001220703125</AltitudeMeters>
            <DistanceMeters>14709.869145814</DistanceMeters>
          </Trackpoint>
          <Trackpoint>
            <Time>2020-09-13T08:17:24.000Z</Time>
            <Position>
              <LatitudeDegrees>41.120874993503093719482421875</LatitudeDegrees>
              <LongitudeDegrees>-4.3654861114919185638427734375</LongitudeDegrees>
            </Position>
            <AltitudeMeters>883.4000244140625</AltitudeMeters>
            <DistanceMeters>14714.200946693</DistanceMeters>
          </Trackpoint>
          <Trackpoint>
            <Time>2020-09-13T08:17:25.000Z</Time>
            <Position>
              <LatitudeDegrees>41.120900474488735198974609375</LatitudeDegrees>
              <LongitudeDegrees>-4.36545568518340587615966796875</LongitudeDegrees>
            </Position>
            <AltitudeMeters>883.4000244140625</AltitudeMeters>
            <DistanceMeters>14718.01505906</DistanceMeters>
          </Trackpoint>
          <Trackpoint>
            <Time>2020-09-13T08:17:28.000Z</Time>
            <Position>
              <LatitudeDegrees>41.12094598822295665740966796875</LatitudeDegrees>
              <LongitudeDegrees>-4.36536801047623157501220703125</LongitudeDegrees>
            </Position>
            <AltitudeMeters>883.79998779296875</AltitudeMeters>
            <DistanceMeters>14726.942514168</DistanceMeters>
          </Trackpoint>
          <Trackpoint>
            <Time>2020-09-13T08:17:30.000Z</Time>
            <Position>
              <LatitudeDegrees>41.12096183001995086669921875</LatitudeDegrees>
              <LongitudeDegrees>-4.3653260171413421630859375</LongitudeDegrees>
            </Position>
            <AltitudeMeters>884</AltitudeMeters>
            <DistanceMeters>14730.881253983</DistanceMeters>
          </Trackpoint>
          <Trackpoint>
            <Time>2020-09-13T08:17:33.000Z</Time>
            <Position>
              <LatitudeDegrees>41.12097649835050106048583984375</LatitudeDegrees>
              <LongitudeDegrees>-4.365265667438507080078125</LongitudeDegrees>
            </Position>
            <AltitudeMeters>884.20001220703125</AltitudeMeters>
            <DistanceMeters>14736.197656833</DistanceMeters>
          </Trackpoint>
          <Trackpoint>
            <Time>2020-09-13T08:17:39.000Z</Time>
            <Position>
              <LatitudeDegrees>41.12097063101828098297119140625</LatitudeDegrees>
              <LongitudeDegrees>-4.36510481871664524078369140625</LongitudeDegrees>
            </Position>
            <AltitudeMeters>885</AltitudeMeters>
            <DistanceMeters>14749.7001471</DistanceMeters>
          </Trackpoint>
          <Trackpoint>
            <Time>2020-09-13T08:17:45.000Z</Time>
            <Position>
              <LatitudeDegrees>41.12097716890275478363037109375</LatitudeDegrees>
              <LongitudeDegrees>-4.36487347818911075592041015625</LongitudeDegrees>
            </Position>
            <AltitudeMeters>886</AltitudeMeters>
            <DistanceMeters>14769.110734663</DistanceMeters>
          </Trackpoint>
          <Trackpoint>
            <Time>2020-09-13T08:17:50.000Z</Time>
            <Position>
              <LatitudeDegrees>41.12096048891544342041015625</LatitudeDegrees>
              <LongitudeDegrees>-4.36467180959880352020263671875</LongitudeDegrees>
            </Position>
            <AltitudeMeters>887</AltitudeMeters>
            <DistanceMeters>14786.121578253</DistanceMeters>
          </Trackpoint>
          <Trackpoint>
            <Time>2020-09-13T08:17:51.000Z</Time>
            <Position>
              <LatitudeDegrees>41.12095118500292301177978515625</LatitudeDegrees>
              <LongitudeDegrees>-4.364631660282611846923828125</LongitudeDegrees>
            </Position>
            <AltitudeMeters>887.20001220703125</AltitudeMeters>
            <DistanceMeters>14789.643981557</DistanceMeters>
          </Trackpoint>
          <Trackpoint>
            <Time>2020-09-13T08:17:52.000Z</Time>
            <Position>
              <LatitudeDegrees>41.1209412105381488800048828125</LatitudeDegrees>
              <LongitudeDegrees>-4.36459000222384929656982421875</LongitudeDegrees>
            </Position>
            <AltitudeMeters>887.4000244140625</AltitudeMeters>
            <DistanceMeters>14793.309599342</DistanceMeters>
          </Trackpoint>
          <Trackpoint>
            <Time>2020-09-13T08:17:53.000Z</Time>
            <Position>
              <LatitudeDegrees>41.12092972733080387115478515625</LatitudeDegrees>
              <LongitudeDegrees>-4.36454842798411846160888671875</LongitudeDegrees>
            </Position>
            <AltitudeMeters>887.5999755859375</AltitudeMeters>
            <DistanceMeters>14797.021727661</DistanceMeters>
          </Trackpoint>
          <Trackpoint>
            <Time>2020-09-13T08:17:57.000Z</Time>
            <Position>
              <LatitudeDegrees>41.12086585722863674163818359375</LatitudeDegrees>
              <LongitudeDegrees>-4.3644021637737751007080078125</LongitudeDegrees>
            </Position>
            <AltitudeMeters>888</AltitudeMeters>
            <DistanceMeters>14811.196643215</DistanceMeters>
          </Trackpoint>
          <Trackpoint>
            <Time>2020-09-13T08:18:00.000Z</Time>
            <Position>
              <LatitudeDegrees>41.12084624357521533966064453125</LatitudeDegrees>
              <LongitudeDegrees>-4.3643079511821269989013671875</LongitudeDegrees>
            </Position>
            <AltitudeMeters>887.79998779296875</AltitudeMeters>
            <DistanceMeters>14819.392111999</DistanceMeters>
          </Trackpoint>
          <Trackpoint>
            <Time>2020-09-13T08:18:04.000Z</Time>
            <Position>
              <LatitudeDegrees>41.12093031406402587890625</LatitudeDegrees>
              <LongitudeDegrees>-4.36416386626660823822021484375</LongitudeDegrees>
            </Position>
            <AltitudeMeters>887.5999755859375</AltitudeMeters>
            <DistanceMeters>14834.673104989</DistanceMeters>
          </Trackpoint>
          <Trackpoint>
            <Time>2020-09-13T08:18:05.000Z</Time>
            <Position>
              <LatitudeDegrees>41.12093903124332427978515625</LatitudeDegrees>
              <LongitudeDegrees>-4.3641171790659427642822265625</LongitudeDegrees>
            </Position>
            <AltitudeMeters>887.5999755859375</AltitudeMeters>
            <DistanceMeters>14838.705866781</DistanceMeters>
          </Trackpoint>
          <Trackpoint>
            <Time>2020-09-13T08:18:06.000Z</Time>
            <Position>
              <LatitudeDegrees>41.12094565294682979583740234375</LatitudeDegrees>
              <LongitudeDegrees>-4.3640702404081821441650390625</LongitudeDegrees>
            </Position>
            <AltitudeMeters>887.5999755859375</AltitudeMeters>
            <DistanceMeters>14842.710541021</DistanceMeters>
          </Trackpoint>
          <Trackpoint>
            <Time>2020-09-13T08:18:07.000Z</Time>
            <Position>
              <LatitudeDegrees>41.1209462396800518035888671875</LatitudeDegrees>
              <LongitudeDegrees>-4.364026151597499847412109375</LongitudeDegrees>
            </Position>
            <AltitudeMeters>887.79998779296875</AltitudeMeters>
            <DistanceMeters>14846.408045008</DistanceMeters>
          </Trackpoint>
          <Trackpoint>
            <Time>2020-09-13T08:18:09.000Z</Time>
            <Position>
              <LatitudeDegrees>41.1209368519484996795654296875</LatitudeDegrees>
              <LongitudeDegrees>-4.36393839307129383087158203125</LongitudeDegrees>
            </Position>
            <AltitudeMeters>887.79998779296875</AltitudeMeters>
            <DistanceMeters>14853.840203349</DistanceMeters>
          </Trackpoint>
          <Trackpoint>
            <Time>2020-09-13T08:18:17.000Z</Time>
            <Position>
              <LatitudeDegrees>41.12089075148105621337890625</LatitudeDegrees>
              <LongitudeDegrees>-4.3635753728449344635009765625</LongitudeDegrees>
            </Position>
            <AltitudeMeters>888.4000244140625</AltitudeMeters>
            <DistanceMeters>14884.707653615</DistanceMeters>
          </Trackpoint>
          <Trackpoint>
            <Time>2020-09-13T08:18:18.000Z</Time>
            <Position>
              <LatitudeDegrees>41.12088161520659923553466796875</LatitudeDegrees>
              <LongitudeDegrees>-4.3635351397097110748291015625</LongitudeDegrees>
            </Position>
            <AltitudeMeters>888.4000244140625</AltitudeMeters>
            <DistanceMeters>14888.230056919</DistanceMeters>
          </Trackpoint>
          <Trackpoint>
            <Time>2020-09-13T08:18:27.000Z</Time>
            <Position>
              <LatitudeDegrees>41.120830066502094268798828125</LatitudeDegrees>
              <LongitudeDegrees>-4.363155774772167205810546875</LongitudeDegrees>
            </Position>
            <AltitudeMeters>888.20001220703125</AltitudeMeters>
            <DistanceMeters>14920.551714423</DistanceMeters>
          </Trackpoint>
          <Trackpoint>
            <Time>2020-09-13T08:18:30.000Z</Time>
            <Position>
              <LatitudeDegrees>41.12081640399992465972900390625</LatitudeDegrees>
              <LongitudeDegrees>-4.36303063295781612396240234375</LongitudeDegrees>
            </Position>
            <AltitudeMeters>888</AltitudeMeters>
            <DistanceMeters>14931.153902479</DistanceMeters>
          </Trackpoint>
          <Trackpoint>
            <Time>2020-09-13T08:18:35.000Z</Time>
            <Position>
              <LatitudeDegrees>41.12080869264900684356689453125</LatitudeDegrees>
              <LongitudeDegrees>-4.36283617280423641204833984375</LongitudeDegrees>
            </Position>
            <AltitudeMeters>887.79998779296875</AltitudeMeters>
            <DistanceMeters>14947.48136146</DistanceMeters>
          </Trackpoint>
          <Trackpoint>
            <Time>2020-09-13T08:18:42.000Z</Time>
            <Position>
              <LatitudeDegrees>41.1208054237067699432373046875</LatitudeDegrees>
              <LongitudeDegrees>-4.3625008128583431243896484375</LongitudeDegrees>
            </Position>
            <AltitudeMeters>888</AltitudeMeters>
            <DistanceMeters>14975.602526345</DistanceMeters>
          </Trackpoint>
          <Trackpoint>
            <Time>2020-09-13T08:18:43.000Z</Time>
            <Position>
              <LatitudeDegrees>41.120797879993915557861328125</LatitudeDegrees>
              <LongitudeDegrees>-4.3624525330960750579833984375</LongitudeDegrees>
            </Position>
            <AltitudeMeters>888</AltitudeMeters>
            <DistanceMeters>14979.737007535</DistanceMeters>
          </Trackpoint>
          <Trackpoint>
            <Time>2020-09-13T08:18:49.000Z</Time>
            <Position>
              <LatitudeDegrees>41.1206954531371593475341796875</LatitudeDegrees>
              <LongitudeDegrees>-4.36216595582664012908935546875</LongitudeDegrees>
            </Position>
            <AltitudeMeters>888</AltitudeMeters>
            <DistanceMeters>15006.332946097</DistanceMeters>
          </Trackpoint>
          <Trackpoint>
            <Time>2020-09-13T08:18:50.000Z</Time>
            <Position>
              <LatitudeDegrees>41.12068195827305316925048828125</LatitudeDegrees>
              <LongitudeDegrees>-4.36211784370243549346923828125</LongitudeDegrees>
            </Position>
            <AltitudeMeters>888</AltitudeMeters>
            <DistanceMeters>15010.63756186</DistanceMeters>
          </Trackpoint>
          <Trackpoint>
            <Time>2020-09-13T08:18:51.000Z</Time>
            <Position>
              <LatitudeDegrees>41.12066821195185184478759765625</LatitudeDegrees>
              <LongitudeDegrees>-4.36206939630210399627685546875</LongitudeDegrees>
            </Position>
            <AltitudeMeters>888</AltitudeMeters>
            <DistanceMeters>15014.977693132</DistanceMeters>
          </Trackpoint>
          <Trackpoint>
            <Time>2020-09-13T08:18:55.000Z</Time>
            <Position>
              <LatitudeDegrees>41.120614148676395416259765625</LatitudeDegrees>
              <LongitudeDegrees>-4.361875355243682861328125</LongitudeDegrees>
            </Position>
            <AltitudeMeters>888</AltitudeMeters>
            <DistanceMeters>15032.324689051</DistanceMeters>
          </Trackpoint>
          <Trackpoint>
            <Time>2020-09-13T08:18:56.000Z</Time>
            <Position>
              <LatitudeDegrees>41.1206009052693843841552734375</LatitudeDegrees>
              <LongitudeDegrees>-4.36182414181530475616455078125</LongitudeDegrees>
            </Position>
            <AltitudeMeters>888</AltitudeMeters>
            <DistanceMeters>15036.86314742</DistanceMeters>
          </Trackpoint>
          <Trackpoint>
            <Time>2020-09-13T08:18:57.000Z</Time>
            <Position>
              <LatitudeDegrees>41.12058238126337528228759765625</LatitudeDegrees>
              <LongitudeDegrees>-4.3617615289986133575439453125</LongitudeDegrees>
            </Position>
            <AltitudeMeters>888</AltitudeMeters>
            <DistanceMeters>15042.502644671</DistanceMeters>
          </Trackpoint>
          <Trackpoint>
            <Time>2020-09-13T08:18:58.000Z</Time>
            <Position>
              <LatitudeDegrees>41.1205668747425079345703125</LatitudeDegrees>
              <LongitudeDegrees>-4.3617075495421886444091796875</LongitudeDegrees>
            </Position>
            <AltitudeMeters>888</AltitudeMeters>
            <DistanceMeters>15047.346211394</DistanceMeters>
          </Trackpoint>
          <Trackpoint>
            <Time>2020-09-13T08:19:00.000Z</Time>
            <Position>
              <LatitudeDegrees>41.12053426913917064666748046875</LatitudeDegrees>
              <LongitudeDegrees>-4.3615972436964511871337890625</LongitudeDegrees>
            </Position>
            <AltitudeMeters>888</AltitudeMeters>
            <DistanceMeters>15057.28184402</DistanceMeters>
          </Trackpoint>
          <Trackpoint>
            <Time>2020-09-13T08:19:04.000Z</Time>
            <Position>
              <LatitudeDegrees>41.12047006376087665557861328125</LatitudeDegrees>
              <LongitudeDegrees>-4.3613670766353607177734375</LongitudeDegrees>
            </Position>
            <AltitudeMeters>888</AltitudeMeters>
            <DistanceMeters>15077.861216829</DistanceMeters>
          </Trackpoint>
          <Trackpoint>
            <Time>2020-09-13T08:19:05.000Z</Time>
            <Position>
              <LatitudeDegrees>41.120453886687755584716796875</LatitudeDegrees>
              <LongitudeDegrees>-4.36130915768444538116455078125</LongitudeDegrees>
            </Position>
            <AltitudeMeters>888</AltitudeMeters>
            <DistanceMeters>15083.040826575</DistanceMeters>
          </Trackpoint>
          <Trackpoint>
            <Time>2020-09-13T08:19:06.000Z</Time>
            <Position>
              <LatitudeDegrees>41.120439134538173675537109375</LatitudeDegrees>
              <LongitudeDegrees>-4.36125417239964008331298828125</LongitudeDegrees>
            </Position>
            <AltitudeMeters>888</AltitudeMeters>
            <DistanceMeters>15087.93631663</DistanceMeters>
          </Trackpoint>
          <Trackpoint>
            <Time>2020-09-13T08:19:07.000Z</Time>
            <Position>
              <LatitudeDegrees>41.12042899243533611297607421875</LatitudeDegrees>
              <LongitudeDegrees>-4.36119818128645420074462890625</LongitudeDegrees>
            </Position>
            <AltitudeMeters>888.20001220703125</AltitudeMeters>
            <DistanceMeters>15092.764945564</DistanceMeters>
          </Trackpoint>
          <Trackpoint>
            <Time>2020-09-13T08:19:08.000Z</Time>
            <Position>
              <LatitudeDegrees>41.12041868269443511962890625</LatitudeDegrees>
              <LongitudeDegrees>-4.36114185489714145660400390625</LongitudeDegrees>
            </Position>
            <AltitudeMeters>888.20001220703125</AltitudeMeters>
            <DistanceMeters>15097.625262424</DistanceMeters>
          </Trackpoint>
          <Trackpoint>
            <Time>2020-09-13T08:19:10.000Z</Time>
            <Position>
              <LatitudeDegrees>41.12040116451680660247802734375</LatitudeDegrees>
              <LongitudeDegrees>-4.36103171668946743011474609375</LongitudeDegrees>
            </Position>
            <AltitudeMeters>888.4000244140625</AltitudeMeters>
            <DistanceMeters>15107.063572872</DistanceMeters>
          </Trackpoint>
          <Trackpoint>
            <Time>2020-09-13T08:19:11.000Z</Time>
            <Position>
              <LatitudeDegrees>41.12039387226104736328125</LatitudeDegrees>
              <LongitudeDegrees>-4.3609776534140110015869140625</LongitudeDegrees>
            </Position>
            <AltitudeMeters>888.4000244140625</AltitudeMeters>
            <DistanceMeters>15111.668203095</DistanceMeters>
          </Trackpoint>
          <Trackpoint>
            <Time>2020-09-13T08:19:12.000Z</Time>
            <Position>
              <LatitudeDegrees>41.12038725055754184722900390625</LatitudeDegrees>
              <LongitudeDegrees>-4.36092275194823741912841796875</LongitudeDegrees>
            </Position>
            <AltitudeMeters>888.5999755859375</AltitudeMeters>
            <DistanceMeters>15116.331294781</DistanceMeters>
          </Trackpoint>
          <Trackpoint>
            <Time>2020-09-13T08:19:13.000Z</Time>
            <Position>
              <LatitudeDegrees>41.12038121558725833892822265625</LatitudeDegrees>
              <LongitudeDegrees>-4.3608670122921466827392578125</LongitudeDegrees>
            </Position>
            <AltitudeMeters>888.5999755859375</AltitudeMeters>
            <DistanceMeters>15121.054036445</DistanceMeters>
          </Trackpoint>
          <Trackpoint>
            <Time>2020-09-13T08:19:15.000Z</Time>
            <Position>
              <LatitudeDegrees>41.12037149257957935333251953125</LatitudeDegrees>
              <LongitudeDegrees>-4.3607550300657749176025390625</LongitudeDegrees>
            </Position>
            <AltitudeMeters>888.79998779296875</AltitudeMeters>
            <DistanceMeters>15130.505731862</DistanceMeters>
          </Trackpoint>
          <Trackpoint>
            <Time>2020-09-13T08:19:18.000Z</Time>
            <Position>
              <LatitudeDegrees>41.12036545760929584503173828125</LatitudeDegrees>
              <LongitudeDegrees>-4.360588900744915008544921875</LongitudeDegrees>
            </Position>
            <AltitudeMeters>889</AltitudeMeters>
            <DistanceMeters>15144.451691364</DistanceMeters>
          </Trackpoint>
          <Trackpoint>
            <Time>2020-09-13T08:19:19.000Z</Time>
            <Position>
              <LatitudeDegrees>41.120364703238010406494140625</LatitudeDegrees>
              <LongitudeDegrees>-4.36053500510752201080322265625</LongitudeDegrees>
            </Position>
            <AltitudeMeters>889</AltitudeMeters>
            <DistanceMeters>15148.973205831</DistanceMeters>
          </Trackpoint>
          <Trackpoint>
            <Time>2020-09-13T08:19:24.000Z</Time>
            <Position>
              <LatitudeDegrees>41.120357997715473175048828125</LatitudeDegrees>
              <LongitudeDegrees>-4.36026535928249359130859375</LongitudeDegrees>
            </Position>
            <AltitudeMeters>888.4000244140625</AltitudeMeters>
            <DistanceMeters>15171.594354606</DistanceMeters>
          </Trackpoint>
          <Trackpoint>
            <Time>2020-09-13T08:19:29.000Z</Time>
            <Position>
              <LatitudeDegrees>41.12036495469510555267333984375</LatitudeDegrees>
              <LongitudeDegrees>-4.3599989823997020721435546875</LongitudeDegrees>
            </Position>
            <AltitudeMeters>888.79998779296875</AltitudeMeters>
            <DistanceMeters>15193.942811558</DistanceMeters>
          </Trackpoint>
          <Trackpoint>
            <Time>2020-09-13T08:19:30.000Z</Time>
            <Position>
              <LatitudeDegrees>41.12036847509443759918212890625</LatitudeDegrees>
              <LongitudeDegrees>-4.35995019972324371337890625</LongitudeDegrees>
            </Position>
            <AltitudeMeters>888.79998779296875</AltitudeMeters>
            <DistanceMeters>15198.05209896</DistanceMeters>
          </Trackpoint>
          <Trackpoint>
            <Time>2020-09-13T08:19:31.000Z</Time>
            <Position>
              <LatitudeDegrees>41.120373420417308807373046875</LatitudeDegrees>
              <LongitudeDegrees>-4.35990217141807079315185546875</LongitudeDegrees>
            </Position>
            <AltitudeMeters>889</AltitudeMeters>
            <DistanceMeters>15202.116088356</DistanceMeters>
          </Trackpoint>
          <Trackpoint>
            <Time>2020-09-13T08:19:34.000Z</Time>
            <Position>
              <LatitudeDegrees>41.12040183506906032562255859375</LatitudeDegrees>
              <LongitudeDegrees>-4.3597512133419513702392578125</LongitudeDegrees>
            </Position>
            <AltitudeMeters>889.20001220703125</AltitudeMeters>
            <DistanceMeters>15215.162809821</DistanceMeters>
          </Trackpoint>
          <Trackpoint>
            <Time>2020-09-13T08:19:35.000Z</Time>
            <Position>
              <LatitudeDegrees>41.12041206099092960357666015625</LatitudeDegrees>
              <LongitudeDegrees>-4.3597019277513027191162109375</LongitudeDegrees>
            </Position>
            <AltitudeMeters>889.20001220703125</AltitudeMeters>
            <DistanceMeters>15219.448504104</DistanceMeters>
          </Trackpoint>
          <Trackpoint>
            <Time>2020-09-13T08:19:37.000Z</Time>
            <Position>
              <LatitudeDegrees>41.1204369552433490753173828125</LatitudeDegrees>
              <LongitudeDegrees>-4.35960126109421253204345703125</LongitudeDegrees>
            </Position>
            <AltitudeMeters>889.4000244140625</AltitudeMeters>
            <DistanceMeters>15228.331341937</DistanceMeters>
          </Trackpoint>
          <Trackpoint>
            <Time>2020-09-13T08:19:41.000Z</Time>
            <Position>
              <LatitudeDegrees>41.12048515118658542633056640625</LatitudeDegrees>
              <LongitudeDegrees>-4.3593941442668437957763671875</LongitudeDegrees>
            </Position>
            <AltitudeMeters>889.5999755859375</AltitudeMeters>
            <DistanceMeters>15246.507048708</DistanceMeters>
          </Trackpoint>
          <Trackpoint>
            <Time>2020-09-13T08:19:42.000Z</Time>
            <Position>
              <LatitudeDegrees>41.12049772404134273529052734375</LatitudeDegrees>
              <LongitudeDegrees>-4.35934259556233882904052734375</LongitudeDegrees>
            </Position>
            <AltitudeMeters>889.5999755859375</AltitudeMeters>
            <DistanceMeters>15251.050478552</DistanceMeters>
          </Trackpoint>
          <Trackpoint>
            <Time>2020-09-13T08:19:43.000Z</Time>
            <Position>
              <LatitudeDegrees>41.12050912342965602874755859375</LatitudeDegrees>
              <LongitudeDegrees>-4.35929146595299243927001953125</LongitudeDegrees>
            </Position>
            <AltitudeMeters>889.79998779296875</AltitudeMeters>
            <DistanceMeters>15255.521785883</DistanceMeters>
          </Trackpoint>
          <Trackpoint>
            <Time>2020-09-13T08:19:47.000Z</Time>
            <Position>
              <LatitudeDegrees>41.1205532960593700408935546875</LatitudeDegrees>
              <LongitudeDegrees>-4.35909013263881206512451171875</LongitudeDegrees>
            </Position>
            <AltitudeMeters>890.20001220703125</AltitudeMeters>
            <DistanceMeters>15273.10403935</DistanceMeters>
          </Trackpoint>
          <Trackpoint>
            <Time>2020-09-13T08:19:48.000Z</Time>
            <Position>
              <LatitudeDegrees>41.12056494690477848052978515625</LatitudeDegrees>
              <LongitudeDegrees>-4.35904151760041713714599609375</LongitudeDegrees>
            </Position>
            <AltitudeMeters>890.4000244140625</AltitudeMeters>
            <DistanceMeters>15277.381297219</DistanceMeters>
          </Trackpoint>
          <Trackpoint>
            <Time>2020-09-13T08:19:51.000Z</Time>
            <Position>
              <LatitudeDegrees>41.1205985583364963531494140625</LatitudeDegrees>
              <LongitudeDegrees>-4.3588979355990886688232421875</LongitudeDegrees>
            </Position>
            <AltitudeMeters>890.5999755859375</AltitudeMeters>
            <DistanceMeters>15289.988015484</DistanceMeters>
          </Trackpoint>
          <Trackpoint>
            <Time>2020-09-13T08:19:59.000Z</Time>
            <Position>
              <LatitudeDegrees>41.12068396992981433868408203125</LatitudeDegrees>
              <LongitudeDegrees>-4.3585163913667201995849609375</LongitudeDegrees>
            </Position>
            <AltitudeMeters>891.4000244140625</AltitudeMeters>
            <DistanceMeters>15323.361879194</DistanceMeters>
          </Trackpoint>
          <Trackpoint>
            <Time>2020-09-13T08:20:02.000Z</Time>
            <Position>
              <LatitudeDegrees>41.12072152085602283477783203125</LatitudeDegrees>
              <LongitudeDegrees>-4.358377419412136077880859375</LongitudeDegrees>
            </Position>
            <AltitudeMeters>891.5999755859375</AltitudeMeters>
            <DistanceMeters>15335.74090974</DistanceMeters>
          </Trackpoint>
          <Trackpoint>
            <Time>2020-09-13T08:20:15.000Z</Time>
            <Position>
              <LatitudeDegrees>41.12084708176553249359130859375</LatitudeDegrees>
              <LongitudeDegrees>-4.3577405624091625213623046875</LongitudeDegrees>
            </Position>
            <AltitudeMeters>892.79998779296875</AltitudeMeters>
            <DistanceMeters>15390.937608478</DistanceMeters>
          </Trackpoint>
          <Trackpoint>
            <Time>2020-09-13T08:20:24.000Z</Time>
            <Position>
              <LatitudeDegrees>41.12084448337554931640625</LatitudeDegrees>
              <LongitudeDegrees>-4.35730763711035251617431640625</LongitudeDegrees>
            </Position>
            <AltitudeMeters>893.4000244140625</AltitudeMeters>
            <DistanceMeters>15427.238062128</DistanceMeters>
          </Trackpoint>
          <Trackpoint>
            <Time>2020-09-13T08:20:34.000Z</Time>
            <Position>
              <LatitudeDegrees>41.1208067648112773895263671875</LatitudeDegrees>
              <LongitudeDegrees>-4.356862641870975494384765625</LongitudeDegrees>
            </Position>
            <AltitudeMeters>893.20001220703125</AltitudeMeters>
            <DistanceMeters>15464.784799327</DistanceMeters>
          </Trackpoint>
          <Trackpoint>
            <Time>2020-09-13T08:20:45.000Z</Time>
            <Position>
              <LatitudeDegrees>41.12077181227505207061767578125</LatitudeDegrees>
              <LongitudeDegrees>-4.356455616652965545654296875</LongitudeDegrees>
            </Position>
            <AltitudeMeters>894.5999755859375</AltitudeMeters>
            <DistanceMeters>15499.133506258</DistanceMeters>
          </Trackpoint>
          <Trackpoint>
            <Time>2020-09-13T08:20:47.000Z</Time>
            <Position>
              <LatitudeDegrees>41.12076477147638797760009765625</LatitudeDegrees>
              <LongitudeDegrees>-4.35638462193310260772705078125</LongitudeDegrees>
            </Position>
            <AltitudeMeters>895</AltitudeMeters>
            <DistanceMeters>15505.137510353</DistanceMeters>
          </Trackpoint>
          <Trackpoint>
            <Time>2020-09-13T08:20:50.000Z</Time>
            <Position>
              <LatitudeDegrees>41.1207578144967555999755859375</LatitudeDegrees>
              <LongitudeDegrees>-4.356270544230937957763671875</LongitudeDegrees>
            </Position>
            <AltitudeMeters>895.5999755859375</AltitudeMeters>
            <DistanceMeters>15514.733797112</DistanceMeters>
          </Trackpoint>
          <Trackpoint>
            <Time>2020-09-13T08:20:53.000Z</Time>
            <Position>
              <LatitudeDegrees>41.1207477562129497528076171875</LatitudeDegrees>
              <LongitudeDegrees>-4.3561580590903759002685546875</LongitudeDegrees>
            </Position>
            <AltitudeMeters>896</AltitudeMeters>
            <DistanceMeters>15524.231716025</DistanceMeters>
          </Trackpoint>
          <Trackpoint>
            <Time>2020-09-13T08:20:56.000Z</Time>
            <Position>
              <LatitudeDegrees>41.12073493190109729766845703125</LatitudeDegrees>
              <LongitudeDegrees>-4.35604766942560672760009765625</LongitudeDegrees>
            </Position>
            <AltitudeMeters>896.20001220703125</AltitudeMeters>
            <DistanceMeters>15533.596549309</DistanceMeters>
          </Trackpoint>
          <Trackpoint>
            <Time>2020-09-13T08:20:59.000Z</Time>
            <Position>
              <LatitudeDegrees>41.12072135321795940399169921875</LatitudeDegrees>
              <LongitudeDegrees>-4.3559414707124233245849609375</LongitudeDegrees>
            </Position>
            <AltitudeMeters>896.20001220703125</AltitudeMeters>
            <DistanceMeters>15542.628087412</DistanceMeters>
          </Trackpoint>
          <Trackpoint>
            <Time>2020-09-13T08:21:07.000Z</Time>
            <Position>
              <LatitudeDegrees>41.1206991411745548248291015625</LatitudeDegrees>
              <LongitudeDegrees>-4.355657659471035003662109375</LongitudeDegrees>
            </Position>
            <AltitudeMeters>896.5999755859375</AltitudeMeters>
            <DistanceMeters>15566.55274949</DistanceMeters>
          </Trackpoint>
          <Trackpoint>
            <Time>2020-09-13T08:21:18.000Z</Time>
            <Position>
              <LatitudeDegrees>41.12066770903766155242919921875</LatitudeDegrees>
              <LongitudeDegrees>-4.3552414141595363616943359375</LongitudeDegrees>
            </Position>
            <AltitudeMeters>896.79998779296875</AltitudeMeters>
            <DistanceMeters>15601.628421474</DistanceMeters>
          </Trackpoint>
          <Trackpoint>
            <Time>2020-09-13T08:21:30.000Z</Time>
            <Position>
              <LatitudeDegrees>41.12068958580493927001953125</LatitudeDegrees>
              <LongitudeDegrees>-4.35478535480797290802001953125</LongitudeDegrees>
            </Position>
            <AltitudeMeters>895.20001220703125</AltitudeMeters>
            <DistanceMeters>15639.944696326</DistanceMeters>
          </Trackpoint>
          <Trackpoint>
            <Time>2020-09-13T08:21:37.000Z</Time>
            <Position>
              <LatitudeDegrees>41.12074314616620540618896484375</LatitudeDegrees>
              <LongitudeDegrees>-4.3545115180313587188720703125</LongitudeDegrees>
            </Position>
            <AltitudeMeters>894.20001220703125</AltitudeMeters>
            <DistanceMeters>15663.666379311</DistanceMeters>
          </Trackpoint>
          <Trackpoint>
            <Time>2020-09-13T08:21:45.000Z</Time>
            <Position>
              <LatitudeDegrees>41.12081891857087612152099609375</LatitudeDegrees>
              <LongitudeDegrees>-4.35418202541768550872802734375</LongitudeDegrees>
            </Position>
            <AltitudeMeters>894.79998779296875</AltitudeMeters>
            <DistanceMeters>15692.551999669</DistanceMeters>
          </Trackpoint>
          <Trackpoint>
            <Time>2020-09-13T08:21:55.000Z</Time>
            <Position>
              <LatitudeDegrees>41.12090726383030414581298828125</LatitudeDegrees>
              <LongitudeDegrees>-4.35376075096428394317626953125</LongitudeDegrees>
            </Position>
            <AltitudeMeters>896.79998779296875</AltitudeMeters>
            <DistanceMeters>15729.217537448</DistanceMeters>
          </Trackpoint>
          <Trackpoint>
            <Time>2020-09-13T08:22:05.000Z</Time>
            <Position>
              <LatitudeDegrees>41.120992340147495269775390625</LatitudeDegrees>
              <LongitudeDegrees>-4.35339295305311679840087890625</LongitudeDegrees>
            </Position>
            <AltitudeMeters>898.4000244140625</AltitudeMeters>
            <DistanceMeters>15761.477112614</DistanceMeters>
          </Trackpoint>
          <Trackpoint>
            <Time>2020-09-13T08:22:06.000Z</Time>
            <Position>
              <LatitudeDegrees>41.12099711783230304718017578125</LatitudeDegrees>
              <LongitudeDegrees>-4.35336269438266754150390625</LongitudeDegrees>
            </Position>
            <AltitudeMeters>898.4000244140625</AltitudeMeters>
            <DistanceMeters>15764.072577317</DistanceMeters>
          </Trackpoint>
          <Trackpoint>
            <Time>2020-09-13T08:22:10.000Z</Time>
            <Position>
              <LatitudeDegrees>41.12103567458689212799072265625</LatitudeDegrees>
              <LongitudeDegrees>-4.353225566446781158447265625</LongitudeDegrees>
            </Position>
            <AltitudeMeters>899</AltitudeMeters>
            <DistanceMeters>15776.345379568</DistanceMeters>
          </Trackpoint>
          <Trackpoint>
            <Time>2020-09-13T08:22:13.000Z</Time>
            <Position>
              <LatitudeDegrees>41.12106400541961193084716796875</LatitudeDegrees>
              <LongitudeDegrees>-4.35308684594929218292236328125</LongitudeDegrees>
            </Position>
            <AltitudeMeters>898.79998779296875</AltitudeMeters>
            <DistanceMeters>15788.396175781</DistanceMeters>
          </Trackpoint>
          <Trackpoint>
            <Time>2020-09-13T08:22:14.000Z</Time>
            <Position>
              <LatitudeDegrees>41.1210743151605129241943359375</LatitudeDegrees>
              <LongitudeDegrees>-4.35303789563477039337158203125</LongitudeDegrees>
            </Position>
            <AltitudeMeters>898.79998779296875</AltitudeMeters>
            <DistanceMeters>15792.656510704</DistanceMeters>
          </Trackpoint>
          <Trackpoint>
            <Time>2020-09-13T08:22:21.000Z</Time>
            <Position>
              <LatitudeDegrees>41.12115151248872280120849609375</LatitudeDegrees>
              <LongitudeDegrees>-4.352677725255489349365234375</LongitudeDegrees>
            </Position>
            <AltitudeMeters>898.5999755859375</AltitudeMeters>
            <DistanceMeters>15824.05388934</DistanceMeters>
          </Trackpoint>
          <Trackpoint>
            <Time>2020-09-13T08:22:26.000Z</Time>
            <Position>
              <LatitudeDegrees>41.12121622078120708465576171875</LatitudeDegrees>
              <LongitudeDegrees>-4.352421574294567108154296875</LongitudeDegrees>
            </Position>
            <AltitudeMeters>898.20001220703125</AltitudeMeters>
            <DistanceMeters>15846.706950594</DistanceMeters>
          </Trackpoint>
          <Trackpoint>
            <Time>2020-09-13T08:22:33.000Z</Time>
            <Position>
              <LatitudeDegrees>41.1212768219411373138427734375</LatitudeDegrees>
              <LongitudeDegrees>-4.35209124349057674407958984375</LongitudeDegrees>
            </Position>
            <AltitudeMeters>897.79998779296875</AltitudeMeters>
            <DistanceMeters>15875.213381082</DistanceMeters>
          </Trackpoint>
          <Trackpoint>
            <Time>2020-09-13T08:22:37.000Z</Time>
            <Position>
              <LatitudeDegrees>41.12129014916718006134033203125</LatitudeDegrees>
              <LongitudeDegrees>-4.351931400597095489501953125</LongitudeDegrees>
            </Position>
            <AltitudeMeters>897.79998779296875</AltitudeMeters>
            <DistanceMeters>15888.697132753</DistanceMeters>
          </Trackpoint>
          <Trackpoint>
            <Time>2020-09-13T08:22:41.000Z</Time>
            <Position>
              <LatitudeDegrees>41.12129299901425838470458984375</LatitudeDegrees>
              <LongitudeDegrees>-4.35176870785653591156005859375</LongitudeDegrees>
            </Position>
            <AltitudeMeters>898.5999755859375</AltitudeMeters>
            <DistanceMeters>15902.341989518</DistanceMeters>
          </Trackpoint>
          <Trackpoint>
            <Time>2020-09-13T08:22:49.000Z</Time>
            <Position>
              <LatitudeDegrees>41.121273301541805267333984375</LatitudeDegrees>
              <LongitudeDegrees>-4.35140711255371570587158203125</LongitudeDegrees>
            </Position>
            <AltitudeMeters>900.4000244140625</AltitudeMeters>
            <DistanceMeters>15932.739548666</DistanceMeters>
          </Trackpoint>
          <Trackpoint>
            <Time>2020-09-13T08:22:50.000Z</Time>
            <Position>
              <LatitudeDegrees>41.12127237953245639801025390625</LatitudeDegrees>
              <LongitudeDegrees>-4.35136000625789165496826171875</LongitudeDegrees>
            </Position>
            <AltitudeMeters>900.5999755859375</AltitudeMeters>
            <DistanceMeters>15936.689735003</DistanceMeters>
          </Trackpoint>
          <Trackpoint>
            <Time>2020-09-13T08:22:52.000Z</Time>
            <Position>
              <LatitudeDegrees>41.12126701511442661285400390625</LatitudeDegrees>
              <LongitudeDegrees>-4.35126562602818012237548828125</LongitudeDegrees>
            </Position>
            <AltitudeMeters>901</AltitudeMeters>
            <DistanceMeters>15944.62603031</DistanceMeters>
          </Trackpoint>
          <Trackpoint>
            <Time>2020-09-13T08:22:59.000Z</Time>
            <Position>
              <LatitudeDegrees>41.12125955522060394287109375</LatitudeDegrees>
              <LongitudeDegrees>-4.35089715756475925445556640625</LongitudeDegrees>
            </Position>
            <AltitudeMeters>903.20001220703125</AltitudeMeters>
            <DistanceMeters>15975.531780033</DistanceMeters>
          </Trackpoint>
          <Trackpoint>
            <Time>2020-09-13T08:23:07.000Z</Time>
            <Position>
              <LatitudeDegrees>41.12125494517385959625244140625</LatitudeDegrees>
              <LongitudeDegrees>-4.35050320811569690704345703125</LongitudeDegrees>
            </Position>
            <AltitudeMeters>905.5999755859375</AltitudeMeters>
            <DistanceMeters>16008.566789167</DistanceMeters>
          </Trackpoint>
          <Trackpoint>
            <Time>2020-09-13T08:23:15.000Z</Time>
            <Position>
              <LatitudeDegrees>41.1212543584406375885009765625</LatitudeDegrees>
              <LongitudeDegrees>-4.35023725032806396484375</LongitudeDegrees>
            </Position>
            <AltitudeMeters>907</AltitudeMeters>
            <DistanceMeters>16030.866301485</DistanceMeters>
          </Trackpoint>
          <Trackpoint>
            <Time>2020-09-13T08:23:24.000Z</Time>
            <Position>
              <LatitudeDegrees>41.12124471925199031829833984375</LatitudeDegrees>
              <LongitudeDegrees>-4.34995536692440509796142578125</LongitudeDegrees>
            </Position>
            <AltitudeMeters>907.5999755859375</AltitudeMeters>
            <DistanceMeters>16054.525472616</DistanceMeters>
          </Trackpoint>
          <Trackpoint>
            <Time>2020-09-13T08:23:26.000Z</Time>
            <Position>
              <LatitudeDegrees>41.12124371342360973358154296875</LatitudeDegrees>
              <LongitudeDegrees>-4.34989535249769687652587890625</LongitudeDegrees>
            </Position>
            <AltitudeMeters>907.79998779296875</AltitudeMeters>
            <DistanceMeters>16059.558301286</DistanceMeters>
          </Trackpoint>
          <Trackpoint>
            <Time>2020-09-13T08:23:37.000Z</Time>
            <Position>
              <LatitudeDegrees>41.12123382277786731719970703125</LatitudeDegrees>
              <LongitudeDegrees>-4.34949939139187335968017578125</LongitudeDegrees>
            </Position>
            <AltitudeMeters>908.20001220703125</AltitudeMeters>
            <DistanceMeters>16092.776356936</DistanceMeters>
          </Trackpoint>
          <Trackpoint>
            <Time>2020-09-13T08:23:39.000Z</Time>
            <Position>
              <LatitudeDegrees>41.1212292127311229705810546875</LatitudeDegrees>
              <LongitudeDegrees>-4.3494270555675029754638671875</LongitudeDegrees>
            </Position>
            <AltitudeMeters>908.20001220703125</AltitudeMeters>
            <DistanceMeters>16098.863261211</DistanceMeters>
          </Trackpoint>
          <Trackpoint>
            <Time>2020-09-13T08:23:45.000Z</Time>
            <Position>
              <LatitudeDegrees>41.121218986809253692626953125</LatitudeDegrees>
              <LongitudeDegrees>-4.34922127984464168548583984375</LongitudeDegrees>
            </Position>
            <AltitudeMeters>908</AltitudeMeters>
            <DistanceMeters>16116.154467966</DistanceMeters>
          </Trackpoint>
          <Trackpoint>
            <Time>2020-09-13T08:23:50.000Z</Time>
            <Position>
              <LatitudeDegrees>41.1212211661040782928466796875</LatitudeDegrees>
              <LongitudeDegrees>-4.34904023073613643646240234375</LongitudeDegrees>
            </Position>
            <AltitudeMeters>907.79998779296875</AltitudeMeters>
            <DistanceMeters>16131.336751434</DistanceMeters>
          </Trackpoint>
          <Trackpoint>
            <Time>2020-09-13T08:23:51.000Z</Time>
            <Position>
              <LatitudeDegrees>41.12121940590441226959228515625</LatitudeDegrees>
              <LongitudeDegrees>-4.3490046076476573944091796875</LongitudeDegrees>
            </Position>
            <AltitudeMeters>907.5999755859375</AltitudeMeters>
            <DistanceMeters>16134.329715823</DistanceMeters>
          </Trackpoint>
          <Trackpoint>
            <Time>2020-09-13T08:23:56.000Z</Time>
            <Position>
              <LatitudeDegrees>41.121206581592559814453125</LatitudeDegrees>
              <LongitudeDegrees>-4.3488641269505023956298828125</LongitudeDegrees>
            </Position>
            <AltitudeMeters>907.4000244140625</AltitudeMeters>
            <DistanceMeters>16146.19398283</DistanceMeters>
          </Trackpoint>
          <Trackpoint>
            <Time>2020-09-13T08:24:44.000Z</Time>
            <Position>
              <LatitudeDegrees>41.12119794823229312896728515625</LatitudeDegrees>
              <LongitudeDegrees>-4.34887343086302280426025390625</LongitudeDegrees>
            </Position>
            <AltitudeMeters>907.4000244140625</AltitudeMeters>
            <DistanceMeters>16147.4329796</DistanceMeters>
          </Trackpoint>
          <Trackpoint>
            <Time>2020-09-13T08:24:47.000Z</Time>
            <Position>
              <LatitudeDegrees>41.12119794823229312896728515625</LatitudeDegrees>
              <LongitudeDegrees>-4.34887343086302280426025390625</LongitudeDegrees>
            </Position>
            <AltitudeMeters>907.4000244140625</AltitudeMeters>
            <DistanceMeters>16147.528006314</DistanceMeters>
          </Trackpoint>
          <Trackpoint>
            <Time>2020-09-13T08:24:51.000Z</Time>
            <Position>
              <LatitudeDegrees>41.12119208090007305145263671875</LatitudeDegrees>
              <LongitudeDegrees>-4.3487712554633617401123046875</LongitudeDegrees>
            </Position>
            <AltitudeMeters>907.5999755859375</AltitudeMeters>
            <DistanceMeters>16156.11991384</DistanceMeters>
          </Trackpoint>
          <Trackpoint>
            <Time>2020-09-13T08:24:55.000Z</Time>
            <Position>
              <LatitudeDegrees>41.12118688412010669708251953125</LatitudeDegrees>
              <LongitudeDegrees>-4.34861124493181705474853515625</LongitudeDegrees>
            </Position>
            <AltitudeMeters>907.5999755859375</AltitudeMeters>
            <DistanceMeters>16169.548637777</DistanceMeters>
          </Trackpoint>
          <Trackpoint>
            <Time>2020-09-13T08:24:59.000Z</Time>
            <Position>
              <LatitudeDegrees>41.12118420191109180450439453125</LatitudeDegrees>
              <LongitudeDegrees>-4.34844478033483028411865234375</LongitudeDegrees>
            </Position>
            <AltitudeMeters>907.20001220703125</AltitudeMeters>
            <DistanceMeters>16183.509158537</DistanceMeters>
          </Trackpoint>
          <Trackpoint>
            <Time>2020-09-13T08:25:03.000Z</Time>
            <Position>
              <LatitudeDegrees>41.121181435883045196533203125</LatitudeDegrees>
              <LongitudeDegrees>-4.34824830852448940277099609375</LongitudeDegrees>
            </Position>
            <AltitudeMeters>906.79998779296875</AltitudeMeters>
            <DistanceMeters>16199.985541275</DistanceMeters>
          </Trackpoint>
          <Trackpoint>
            <Time>2020-09-13T08:25:09.000Z</Time>
            <Position>
              <LatitudeDegrees>41.1212087608873844146728515625</LatitudeDegrees>
              <LongitudeDegrees>-4.34793926775455474853515625</LongitudeDegrees>
            </Position>
            <AltitudeMeters>906.20001220703125</AltitudeMeters>
            <DistanceMeters>16226.07517719</DistanceMeters>
          </Trackpoint>
          <Trackpoint>
            <Time>2020-09-13T08:25:10.000Z</Time>
            <Position>
              <LatitudeDegrees>41.1212171427905559539794921875</LatitudeDegrees>
              <LongitudeDegrees>-4.34788537211716175079345703125</LongitudeDegrees>
            </Position>
            <AltitudeMeters>906</AltitudeMeters>
            <DistanceMeters>16230.689602426</DistanceMeters>
          </Trackpoint>
          <Trackpoint>
            <Time>2020-09-13T08:25:16.000Z</Time>
            <Position>
              <LatitudeDegrees>41.12129132263362407684326171875</LatitudeDegrees>
              <LongitudeDegrees>-4.347559399902820587158203125</LongitudeDegrees>
            </Position>
            <AltitudeMeters>906</AltitudeMeters>
            <DistanceMeters>16259.240979291</DistanceMeters>
          </Trackpoint>
          <Trackpoint>
            <Time>2020-09-13T08:25:17.000Z</Time>
            <Position>
              <LatitudeDegrees>41.121305488049983978271484375</LatitudeDegrees>
              <LongitudeDegrees>-4.34750483371317386627197265625</LongitudeDegrees>
            </Position>
            <AltitudeMeters>906</AltitudeMeters>
            <DistanceMeters>16264.079882909</DistanceMeters>
          </Trackpoint>
          <Trackpoint>
            <Time>2020-09-13T08:25:28.000Z</Time>
            <Position>
              <LatitudeDegrees>41.12146063707768917083740234375</LatitudeDegrees>
              <LongitudeDegrees>-4.34689714573323726654052734375</LongitudeDegrees>
            </Position>
            <AltitudeMeters>906</AltitudeMeters>
            <DistanceMeters>16317.878600753</DistanceMeters>
          </Trackpoint>
          <Trackpoint>
            <Time>2020-09-13T08:25:29.000Z</Time>
            <Position>
              <LatitudeDegrees>41.12147589214146137237548828125</LatitudeDegrees>
              <LongitudeDegrees>-4.34684283100068569183349609375</LongitudeDegrees>
            </Position>
            <AltitudeMeters>906.20001220703125</AltitudeMeters>
            <DistanceMeters>16322.738917613</DistanceMeters>
          </Trackpoint>
          <Trackpoint>
            <Time>2020-09-13T08:25:41.000Z</Time>
            <Position>
              <LatitudeDegrees>41.121630705893039703369140625</LatitudeDegrees>
              <LongitudeDegrees>-4.34623204171657562255859375</LongitudeDegrees>
            </Position>
            <AltitudeMeters>906.5999755859375</AltitudeMeters>
            <DistanceMeters>16376.772113481</DistanceMeters>
          </Trackpoint>
          <Trackpoint>
            <Time>2020-09-13T08:25:44.000Z</Time>
            <Position>
              <LatitudeDegrees>41.121668927371501922607421875</LatitudeDegrees>
              <LongitudeDegrees>-4.34607991017401218414306640625</LongitudeDegrees>
            </Position>
            <AltitudeMeters>906.4000244140625</AltitudeMeters>
            <DistanceMeters>16390.218309618</DistanceMeters>
          </Trackpoint>
          <Trackpoint>
            <Time>2020-09-13T08:25:55.000Z</Time>
            <Position>
              <LatitudeDegrees>41.12182189710438251495361328125</LatitudeDegrees>
              <LongitudeDegrees>-4.34547741897404193878173828125</LongitudeDegrees>
            </Position>
            <AltitudeMeters>903.4000244140625</AltitudeMeters>
            <DistanceMeters>16443.526433078</DistanceMeters>
          </Trackpoint>
          <Trackpoint>
            <Time>2020-09-13T08:25:58.000Z</Time>
            <Position>
              <LatitudeDegrees>41.12187705002725124359130859375</LatitudeDegrees>
              <LongitudeDegrees>-4.345299638807773590087890625</LongitudeDegrees>
            </Position>
            <AltitudeMeters>902.4000244140625</AltitudeMeters>
            <DistanceMeters>16459.646840638</DistanceMeters>
          </Trackpoint>
          <Trackpoint>
            <Time>2020-09-13T08:26:07.000Z</Time>
            <Position>
              <LatitudeDegrees>41.12204301171004772186279296875</LatitudeDegrees>
              <LongitudeDegrees>-4.34468616731464862823486328125</LongitudeDegrees>
            </Position>
            <AltitudeMeters>901.5999755859375</AltitudeMeters>
            <DistanceMeters>16514.299677398</DistanceMeters>
          </Trackpoint>
          <Trackpoint>
            <Time>2020-09-13T08:26:08.000Z</Time>
            <Position>
              <LatitudeDegrees>41.122061870992183685302734375</LatitudeDegrees>
              <LongitudeDegrees>-4.34461425058543682098388671875</LongitudeDegrees>
            </Position>
            <AltitudeMeters>901.5999755859375</AltitudeMeters>
            <DistanceMeters>16520.68417151</DistanceMeters>
          </Trackpoint>
          <Trackpoint>
            <Time>2020-09-13T08:26:12.000Z</Time>
            <Position>
              <LatitudeDegrees>41.1221287585794925689697265625</LatitudeDegrees>
              <LongitudeDegrees>-4.3443238176405429840087890625</LongitudeDegrees>
            </Position>
            <AltitudeMeters>901.79998779296875</AltitudeMeters>
            <DistanceMeters>16546.148139566</DistanceMeters>
          </Trackpoint>
          <Trackpoint>
            <Time>2020-09-13T08:26:17.000Z</Time>
            <Position>
              <LatitudeDegrees>41.12217410467565059661865234375</LatitudeDegrees>
              <LongitudeDegrees>-4.34398024342954158782958984375</LongitudeDegrees>
            </Position>
            <AltitudeMeters>902</AltitudeMeters>
            <DistanceMeters>16575.393836354</DistanceMeters>
          </Trackpoint>
          <Trackpoint>
            <Time>2020-09-13T08:26:19.000Z</Time>
            <Position>
              <LatitudeDegrees>41.1221881024539470672607421875</LatitudeDegrees>
              <LongitudeDegrees>-4.34383741579949855804443359375</LongitudeDegrees>
            </Position>
            <AltitudeMeters>902.20001220703125</AltitudeMeters>
            <DistanceMeters>16587.470083062</DistanceMeters>
          </Trackpoint>
          <Trackpoint>
            <Time>2020-09-13T08:26:20.000Z</Time>
            <Position>
              <LatitudeDegrees>41.12219162285327911376953125</LatitudeDegrees>
              <LongitudeDegrees>-4.34376566670835018157958984375</LongitudeDegrees>
            </Position>
            <AltitudeMeters>902.20001220703125</AltitudeMeters>
            <DistanceMeters>16593.4996011</DistanceMeters>
          </Trackpoint>
          <Trackpoint>
            <Time>2020-09-13T08:26:21.000Z</Time>
            <Position>
              <LatitudeDegrees>41.12219254486262798309326171875</LatitudeDegrees>
              <LongitudeDegrees>-4.34369659982621669769287109375</LongitudeDegrees>
            </Position>
            <AltitudeMeters>902.4000244140625</AltitudeMeters>
            <DistanceMeters>16599.291555346</DistanceMeters>
          </Trackpoint>
          <Trackpoint>
            <Time>2020-09-13T08:26:26.000Z</Time>
            <Position>
              <LatitudeDegrees>41.1222095601260662078857421875</LatitudeDegrees>
              <LongitudeDegrees>-4.34335403144359588623046875</LongitudeDegrees>
            </Position>
            <AltitudeMeters>902.4000244140625</AltitudeMeters>
            <DistanceMeters>16628.076494538</DistanceMeters>
          </Trackpoint>
          <Trackpoint>
            <Time>2020-09-13T08:26:27.000Z</Time>
            <Position>
              <LatitudeDegrees>41.122214756906032562255859375</LatitudeDegrees>
              <LongitudeDegrees>-4.3432841263711452484130859375</LongitudeDegrees>
            </Position>
            <AltitudeMeters>902.4000244140625</AltitudeMeters>
            <DistanceMeters>16633.965851346</DistanceMeters>
          </Trackpoint>
          <Trackpoint>
            <Time>2020-09-13T08:26:28.000Z</Time>
            <Position>
              <LatitudeDegrees>41.122218780219554901123046875</LatitudeDegrees>
              <LongitudeDegrees>-4.34321346692740917205810546875</LongitudeDegrees>
            </Position>
            <AltitudeMeters>902.4000244140625</AltitudeMeters>
            <DistanceMeters>16639.907111214</DistanceMeters>
          </Trackpoint>
          <Trackpoint>
            <Time>2020-09-13T08:26:29.000Z</Time>
            <Position>
              <LatitudeDegrees>41.12222246825695037841796875</LatitudeDegrees>
              <LongitudeDegrees>-4.34314079582691192626953125</LongitudeDegrees>
            </Position>
            <AltitudeMeters>902.20001220703125</AltitudeMeters>
            <DistanceMeters>16646.013270862</DistanceMeters>
          </Trackpoint>
          <Trackpoint>
            <Time>2020-09-13T08:26:31.000Z</Time>
            <Position>
              <LatitudeDegrees>41.122234202921390533447265625</LatitudeDegrees>
              <LongitudeDegrees>-4.3429924361407756805419921875</LongitudeDegrees>
            </Position>
            <AltitudeMeters>902.20001220703125</AltitudeMeters>
            <DistanceMeters>16658.520750396</DistanceMeters>
          </Trackpoint>
          <Trackpoint>
            <Time>2020-09-13T08:26:33.000Z</Time>
            <Position>
              <LatitudeDegrees>41.122240908443927764892578125</LatitudeDegrees>
              <LongitudeDegrees>-4.34284047223627567291259765625</LongitudeDegrees>
            </Position>
            <AltitudeMeters>902.20001220703125</AltitudeMeters>
            <DistanceMeters>16671.284079862</DistanceMeters>
          </Trackpoint>
          <Trackpoint>
            <Time>2020-09-13T08:26:35.000Z</Time>
            <Position>
              <LatitudeDegrees>41.12224434502422809600830078125</LatitudeDegrees>
              <LongitudeDegrees>-4.34269445948302745819091796875</LongitudeDegrees>
            </Position>
            <AltitudeMeters>902.4000244140625</AltitudeMeters>
            <DistanceMeters>16683.531840061</DistanceMeters>
          </Trackpoint>
          <Trackpoint>
            <Time>2020-09-13T08:26:36.000Z</Time>
            <Position>
              <LatitudeDegrees>41.12224769778549671173095703125</LatitudeDegrees>
              <LongitudeDegrees>-4.3426239676773548126220703125</LongitudeDegrees>
            </Position>
            <AltitudeMeters>902.4000244140625</AltitudeMeters>
            <DistanceMeters>16689.452545826</DistanceMeters>
          </Trackpoint>
          <Trackpoint>
            <Time>2020-09-13T08:26:39.000Z</Time>
            <Position>
              <LatitudeDegrees>41.12225725315511226654052734375</LatitudeDegrees>
              <LongitudeDegrees>-4.34241232462227344512939453125</LongitudeDegrees>
            </Position>
            <AltitudeMeters>902.5999755859375</AltitudeMeters>
            <DistanceMeters>16707.229400307</DistanceMeters>
          </Trackpoint>
          <Trackpoint>
            <Time>2020-09-13T08:26:42.000Z</Time>
            <Position>
              <LatitudeDegrees>41.12226613797247409820556640625</LatitudeDegrees>
              <LongitudeDegrees>-4.342206381261348724365234375</LongitudeDegrees>
            </Position>
            <AltitudeMeters>902.79998779296875</AltitudeMeters>
            <DistanceMeters>16724.524523382</DistanceMeters>
          </Trackpoint>
          <Trackpoint>
            <Time>2020-09-13T08:26:45.000Z</Time>
            <Position>
              <LatitudeDegrees>41.1222781240940093994140625</LatitudeDegrees>
              <LongitudeDegrees>-4.34200999327003955841064453125</LongitudeDegrees>
            </Position>
            <AltitudeMeters>903</AltitudeMeters>
            <DistanceMeters>16741.044419577</DistanceMeters>
          </Trackpoint>
          <Trackpoint>
            <Time>2020-09-13T08:26:47.000Z</Time>
            <Position>
              <LatitudeDegrees>41.1222823150455951690673828125</LatitudeDegrees>
              <LongitudeDegrees>-4.34188954532146453857421875</LongitudeDegrees>
            </Position>
            <AltitudeMeters>902.79998779296875</AltitudeMeters>
            <DistanceMeters>16751.1539401</DistanceMeters>
          </Trackpoint>
          <Trackpoint>
            <Time>2020-09-13T08:26:48.000Z</Time>
            <Position>
              <LatitudeDegrees>41.12228424288332462310791015625</LatitudeDegrees>
              <LongitudeDegrees>-4.34182927943766117095947265625</LongitudeDegrees>
            </Position>
            <AltitudeMeters>902.5999755859375</AltitudeMeters>
            <DistanceMeters>16756.212718277</DistanceMeters>
          </Trackpoint>
          <Trackpoint>
            <Time>2020-09-13T08:26:50.000Z</Time>
            <Position>
              <LatitudeDegrees>41.1222915351390838623046875</LatitudeDegrees>
              <LongitudeDegrees>-4.3417026288807392120361328125</LongitudeDegrees>
            </Position>
            <AltitudeMeters>902.4000244140625</AltitudeMeters>
            <DistanceMeters>16766.862495745</DistanceMeters>
          </Trackpoint>
          <Trackpoint>
            <Time>2020-09-13T08:26:52.000Z</Time>
            <Position>
              <LatitudeDegrees>41.12230067141354084014892578125</LatitudeDegrees>
              <LongitudeDegrees>-4.341573379933834075927734375</LongitudeDegrees>
            </Position>
            <AltitudeMeters>902</AltitudeMeters>
            <DistanceMeters>16777.747099686</DistanceMeters>
          </Trackpoint>
          <Trackpoint>
            <Time>2020-09-13T08:26:54.000Z</Time>
            <Position>
              <LatitudeDegrees>41.12231207080185413360595703125</LatitudeDegrees>
              <LongitudeDegrees>-4.341445304453372955322265625</LongitudeDegrees>
            </Position>
            <AltitudeMeters>901.5999755859375</AltitudeMeters>
            <DistanceMeters>16788.560120994</DistanceMeters>
          </Trackpoint>
          <Trackpoint>
            <Time>2020-09-13T08:26:55.000Z</Time>
            <Position>
              <LatitudeDegrees>41.12231902778148651123046875</LatitudeDegrees>
              <LongitudeDegrees>-4.34138034470379352569580078125</LongitudeDegrees>
            </Position>
            <AltitudeMeters>901.4000244140625</AltitudeMeters>
            <DistanceMeters>16794.061010573</DistanceMeters>
          </Trackpoint>
          <Trackpoint>
            <Time>2020-09-13T08:26:57.000Z</Time>
            <Position>
              <LatitudeDegrees>41.1223352886736392974853515625</LatitudeDegrees>
              <LongitudeDegrees>-4.3412496708333492279052734375</LongitudeDegrees>
            </Position>
            <AltitudeMeters>901.20001220703125</AltitudeMeters>
            <DistanceMeters>16805.16532027</DistanceMeters>
          </Trackpoint>
          <Trackpoint>
            <Time>2020-09-13T08:26:58.000Z</Time>
            <Position>
              <LatitudeDegrees>41.12234509550034999847412109375</LatitudeDegrees>
              <LongitudeDegrees>-4.34118504635989665985107421875</LongitudeDegrees>
            </Position>
            <AltitudeMeters>901</AltitudeMeters>
            <DistanceMeters>16810.691595555</DistanceMeters>
          </Trackpoint>
          <Trackpoint>
            <Time>2020-09-13T08:27:00.000Z</Time>
            <Position>
              <LatitudeDegrees>41.12236621789634227752685546875</LatitudeDegrees>
              <LongitudeDegrees>-4.341061748564243316650390625</LongitudeDegrees>
            </Position>
            <AltitudeMeters>900.5999755859375</AltitudeMeters>
            <DistanceMeters>16821.293357744</DistanceMeters>
          </Trackpoint>
          <Trackpoint>
            <Time>2020-09-13T08:27:02.000Z</Time>
            <Position>
              <LatitudeDegrees>41.12240091897547245025634765625</LatitudeDegrees>
              <LongitudeDegrees>-4.34093928895890712738037109375</LongitudeDegrees>
            </Position>
            <AltitudeMeters>900.4000244140625</AltitudeMeters>
            <DistanceMeters>16832.263491233</DistanceMeters>
          </Trackpoint>
          <Trackpoint>
            <Time>2020-09-13T08:27:04.000Z</Time>
            <Position>
              <LatitudeDegrees>41.122445426881313323974609375</LatitudeDegrees>
              <LongitudeDegrees>-4.3408141471445560455322265625</LongitudeDegrees>
            </Position>
            <AltitudeMeters>900.20001220703125</AltitudeMeters>
            <DistanceMeters>16843.866871765</DistanceMeters>
          </Trackpoint>
          <Trackpoint>
            <Time>2020-09-13T08:27:05.000Z</Time>
            <Position>
              <LatitudeDegrees>41.12247099168598651885986328125</LatitudeDegrees>
              <LongitudeDegrees>-4.3407524563372135162353515625</LongitudeDegrees>
            </Position>
            <AltitudeMeters>900</AltitudeMeters>
            <DistanceMeters>16849.770012031</DistanceMeters>
          </Trackpoint>
          <Trackpoint>
            <Time>2020-09-13T08:27:07.000Z</Time>
            <Position>
              <LatitudeDegrees>41.1225222051143646240234375</LatitudeDegrees>
              <LongitudeDegrees>-4.34063485823571681976318359375</LongitudeDegrees>
            </Position>
            <AltitudeMeters>899.79998779296875</AltitudeMeters>
            <DistanceMeters>16861.158954828</DistanceMeters>
          </Trackpoint>
          <Trackpoint>
            <Time>2020-09-13T08:27:09.000Z</Time>
            <Position>
              <LatitudeDegrees>41.1225843988358974456787109375</LatitudeDegrees>
              <LongitudeDegrees>-4.3405170924961566925048828125</LongitudeDegrees>
            </Position>
            <AltitudeMeters>899.5999755859375</AltitudeMeters>
            <DistanceMeters>16873.217990903</DistanceMeters>
          </Trackpoint>
          <Trackpoint>
            <Time>2020-09-13T08:27:12.000Z</Time>
            <Position>
              <LatitudeDegrees>41.12266511656343936920166015625</LatitudeDegrees>
              <LongitudeDegrees>-4.3403184413909912109375</LongitudeDegrees>
            </Position>
            <AltitudeMeters>899</AltitudeMeters>
            <DistanceMeters>16892.14215011</DistanceMeters>
          </Trackpoint>
          <Trackpoint>
            <Time>2020-09-13T08:27:13.000Z</Time>
            <Position>
              <LatitudeDegrees>41.1226873286068439483642578125</LatitudeDegrees>
              <LongitudeDegrees>-4.34024778194725513458251953125</LongitudeDegrees>
            </Position>
            <AltitudeMeters>899</AltitudeMeters>
            <DistanceMeters>16898.56190625</DistanceMeters>
          </Trackpoint>
          <Trackpoint>
            <Time>2020-09-13T08:27:17.000Z</Time>
            <Position>
              <LatitudeDegrees>41.1227386258542537689208984375</LatitudeDegrees>
              <LongitudeDegrees>-4.3399638868868350982666015625</LongitudeDegrees>
            </Position>
            <AltitudeMeters>898.79998779296875</AltitudeMeters>
            <DistanceMeters>16923.039909891</DistanceMeters>
          </Trackpoint>
          <Trackpoint>
            <Time>2020-09-13T08:27:23.000Z</Time>
            <Position>
              <LatitudeDegrees>41.12276620231568813323974609375</LatitudeDegrees>
              <LongitudeDegrees>-4.3395575322210788726806640625</LongitudeDegrees>
            </Position>
            <AltitudeMeters>898.79998779296875</AltitudeMeters>
            <DistanceMeters>16957.248471196</DistanceMeters>
          </Trackpoint>
          <Trackpoint>
            <Time>2020-09-13T08:27:26.000Z</Time>
            <Position>
              <LatitudeDegrees>41.12277894280850887298583984375</LatitudeDegrees>
              <LongitudeDegrees>-4.33937229216098785400390625</LongitudeDegrees>
            </Position>
            <AltitudeMeters>898.79998779296875</AltitudeMeters>
            <DistanceMeters>16972.844436671</DistanceMeters>
          </Trackpoint>
          <Trackpoint>
            <Time>2020-09-13T08:27:35.000Z</Time>
            <Position>
              <LatitudeDegrees>41.12279989756643772125244140625</LatitudeDegrees>
              <LongitudeDegrees>-4.33883727528154850006103515625</LongitudeDegrees>
            </Position>
            <AltitudeMeters>898.79998779296875</AltitudeMeters>
            <DistanceMeters>17017.762932311</DistanceMeters>
          </Trackpoint>
          <Trackpoint>
            <Time>2020-09-13T08:27:36.000Z</Time>
            <Position>
              <LatitudeDegrees>41.122798807919025421142578125</LatitudeDegrees>
              <LongitudeDegrees>-4.3387830443680286407470703125</LongitudeDegrees>
            </Position>
            <AltitudeMeters>899</AltitudeMeters>
            <DistanceMeters>17022.310335422</DistanceMeters>
          </Trackpoint>
          <Trackpoint>
            <Time>2020-09-13T08:27:44.000Z</Time>
            <Position>
              <LatitudeDegrees>41.122827641665935516357421875</LatitudeDegrees>
              <LongitudeDegrees>-4.3384051881730556488037109375</LongitudeDegrees>
            </Position>
            <AltitudeMeters>898.79998779296875</AltitudeMeters>
            <DistanceMeters>17054.15321883</DistanceMeters>
          </Trackpoint>
          <Trackpoint>
            <Time>2020-09-13T08:27:53.000Z</Time>
            <Position>
              <LatitudeDegrees>41.1228874884545803070068359375</LatitudeDegrees>
              <LongitudeDegrees>-4.33792348019778728485107421875</LongitudeDegrees>
            </Position>
            <AltitudeMeters>898</AltitudeMeters>
            <DistanceMeters>17095.087017024</DistanceMeters>
          </Trackpoint>
          <Trackpoint>
            <Time>2020-09-13T08:27:57.000Z</Time>
            <Position>
              <LatitudeDegrees>41.12294373102486133575439453125</LatitudeDegrees>
              <LongitudeDegrees>-4.33757496066391468048095703125</LongitudeDegrees>
            </Position>
            <AltitudeMeters>897</AltitudeMeters>
            <DistanceMeters>17124.971370126</DistanceMeters>
          </Trackpoint>
          <Trackpoint>
            <Time>2020-09-13T08:28:04.000Z</Time>
            <Position>
              <LatitudeDegrees>41.123099885880947113037109375</LatitudeDegrees>
              <LongitudeDegrees>-4.33697196654975414276123046875</LongitudeDegrees>
            </Position>
            <AltitudeMeters>895</AltitudeMeters>
            <DistanceMeters>17178.432659815</DistanceMeters>
          </Trackpoint>
          <Trackpoint>
            <Time>2020-09-13T08:28:11.000Z</Time>
            <Position>
              <LatitudeDegrees>41.123252101242542266845703125</LatitudeDegrees>
              <LongitudeDegrees>-4.336455054581165313720703125</LongitudeDegrees>
            </Position>
            <AltitudeMeters>894.5999755859375</AltitudeMeters>
            <DistanceMeters>17224.96606879</DistanceMeters>
          </Trackpoint>
          <Trackpoint>
            <Time>2020-09-13T08:28:15.000Z</Time>
            <Position>
              <LatitudeDegrees>41.1233253590762615203857421875</LatitudeDegrees>
              <LongitudeDegrees>-4.336187839508056640625</LongitudeDegrees>
            </Position>
            <AltitudeMeters>894.4000244140625</AltitudeMeters>
            <DistanceMeters>17248.807739285</DistanceMeters>
          </Trackpoint>
          <Trackpoint>
            <Time>2020-09-13T08:28:18.000Z</Time>
            <Position>
              <LatitudeDegrees>41.123368442058563232421875</LatitudeDegrees>
              <LongitudeDegrees>-4.33597653172910213470458984375</LongitudeDegrees>
            </Position>
            <AltitudeMeters>894.5999755859375</AltitudeMeters>
            <DistanceMeters>17267.16167624</DistanceMeters>
          </Trackpoint>
          <Trackpoint>
            <Time>2020-09-13T08:28:24.000Z</Time>
            <Position>
              <LatitudeDegrees>41.12338964827358722686767578125</LatitudeDegrees>
              <LongitudeDegrees>-4.33557872660458087921142578125</LongitudeDegrees>
            </Position>
            <AltitudeMeters>895.4000244140625</AltitudeMeters>
            <DistanceMeters>17300.598389065</DistanceMeters>
          </Trackpoint>
          <Trackpoint>
            <Time>2020-09-13T08:28:25.000Z</Time>
            <Position>
              <LatitudeDegrees>41.1233850382268428802490234375</LatitudeDegrees>
              <LongitudeDegrees>-4.33552977629005908966064453125</LongitudeDegrees>
            </Position>
            <AltitudeMeters>895.4000244140625</AltitudeMeters>
            <DistanceMeters>17304.735053767</DistanceMeters>
          </Trackpoint>
          <Trackpoint>
            <Time>2020-09-13T08:28:30.000Z</Time>
            <Position>
              <LatitudeDegrees>41.12335930578410625457763671875</LatitudeDegrees>
              <LongitudeDegrees>-4.335321150720119476318359375</LongitudeDegrees>
            </Position>
            <AltitudeMeters>895.79998779296875</AltitudeMeters>
            <DistanceMeters>17322.460019766</DistanceMeters>
          </Trackpoint>
          <Trackpoint>
            <Time>2020-09-13T08:28:40.000Z</Time>
            <Position>
              <LatitudeDegrees>41.12333835102617740631103515625</LatitudeDegrees>
              <LongitudeDegrees>-4.33484329842031002044677734375</LongitudeDegrees>
            </Position>
            <AltitudeMeters>896.5999755859375</AltitudeMeters>
            <DistanceMeters>17362.592581292</DistanceMeters>
          </Trackpoint>
          <Trackpoint>
            <Time>2020-09-13T08:28:44.000Z</Time>
            <Position>
              <LatitudeDegrees>41.1233350820839405059814453125</LatitudeDegrees>
              <LongitudeDegrees>-4.3346832878887653350830078125</LongitudeDegrees>
            </Position>
            <AltitudeMeters>897.4000244140625</AltitudeMeters>
            <DistanceMeters>17376.013233466</DistanceMeters>
          </Trackpoint>
          <Trackpoint>
            <Time>2020-09-13T08:28:46.000Z</Time>
            <Position>
              <LatitudeDegrees>41.1233287118375301361083984375</LatitudeDegrees>
              <LongitudeDegrees>-4.3346051685512065887451171875</LongitudeDegrees>
            </Position>
            <AltitudeMeters>898</AltitudeMeters>
            <DistanceMeters>17382.601676185</DistanceMeters>
          </Trackpoint>
          <Trackpoint>
            <Time>2020-09-13T08:28:50.000Z</Time>
            <Position>
              <LatitudeDegrees>41.12331907264888286590576171875</LatitudeDegrees>
              <LongitudeDegrees>-4.33444499038159847259521484375</LongitudeDegrees>
            </Position>
            <AltitudeMeters>898.79998779296875</AltitudeMeters>
            <DistanceMeters>17396.074373265</DistanceMeters>
          </Trackpoint>
          <Trackpoint>
            <Time>2020-09-13T08:28:56.000Z</Time>
            <Position>
              <LatitudeDegrees>41.123299039900302886962890625</LatitudeDegrees>
              <LongitudeDegrees>-4.334187246859073638916015625</LongitudeDegrees>
            </Position>
            <AltitudeMeters>899.20001220703125</AltitudeMeters>
            <DistanceMeters>17417.799359007</DistanceMeters>
          </Trackpoint>
          <Trackpoint>
            <Time>2020-09-13T08:29:06.000Z</Time>
            <Position>
              <LatitudeDegrees>41.12327364273369312286376953125</LatitudeDegrees>
              <LongitudeDegrees>-4.33371610008180141448974609375</LongitudeDegrees>
            </Position>
            <AltitudeMeters>898.79998779296875</AltitudeMeters>
            <DistanceMeters>17457.402818168</DistanceMeters>
          </Trackpoint>
          <Trackpoint>
            <Time>2020-09-13T08:29:18.000Z</Time>
            <Position>
              <LatitudeDegrees>41.12325117923319339752197265625</LatitudeDegrees>
              <LongitudeDegrees>-4.3332100845873355865478515625</LongitudeDegrees>
            </Position>
            <AltitudeMeters>899.5999755859375</AltitudeMeters>
            <DistanceMeters>17499.902500291</DistanceMeters>
          </Trackpoint>
          <Trackpoint>
            <Time>2020-09-13T08:29:29.000Z</Time>
            <Position>
              <LatitudeDegrees>41.12322418950498104095458984375</LatitudeDegrees>
              <LongitudeDegrees>-4.332783780992031097412109375</LongitudeDegrees>
            </Position>
            <AltitudeMeters>901</AltitudeMeters>
            <DistanceMeters>17535.771151525</DistanceMeters>
          </Trackpoint>
          <Trackpoint>
            <Time>2020-09-13T08:29:40.000Z</Time>
            <Position>
              <LatitudeDegrees>41.12318865023553371429443359375</LatitudeDegrees>
              <LongitudeDegrees>-4.3323353491723537445068359375</LongitudeDegrees>
            </Position>
            <AltitudeMeters>902.20001220703125</AltitudeMeters>
            <DistanceMeters>17573.576738935</DistanceMeters>
          </Trackpoint>
          <Trackpoint>
            <Time>2020-09-13T08:29:46.000Z</Time>
            <Position>
              <LatitudeDegrees>41.12317021004855632781982421875</LatitudeDegrees>
              <LongitudeDegrees>-4.33203519321978092193603515625</LongitudeDegrees>
            </Position>
            <AltitudeMeters>902.5999755859375</AltitudeMeters>
            <DistanceMeters>17598.826322241</DistanceMeters>
          </Trackpoint>
          <Trackpoint>
            <Time>2020-09-13T08:29:51.000Z</Time>
            <Position>
              <LatitudeDegrees>41.123178340494632720947265625</LatitudeDegrees>
              <LongitudeDegrees>-4.33183838613331317901611328125</LongitudeDegrees>
            </Position>
            <AltitudeMeters>903</AltitudeMeters>
            <DistanceMeters>17615.352230142</DistanceMeters>
          </Trackpoint>
          <Trackpoint>
            <Time>2020-09-13T08:29:53.000Z</Time>
            <Position>
              <LatitudeDegrees>41.12319099716842174530029296875</LatitudeDegrees>
              <LongitudeDegrees>-4.3317613564431667327880859375</LongitudeDegrees>
            </Position>
            <AltitudeMeters>903.20001220703125</AltitudeMeters>
            <DistanceMeters>17621.962565982</DistanceMeters>
          </Trackpoint>
          <Trackpoint>
            <Time>2020-09-13T08:29:59.000Z</Time>
            <Position>
              <LatitudeDegrees>41.123205833137035369873046875</LatitudeDegrees>
              <LongitudeDegrees>-4.33146120049059391021728515625</LongitudeDegrees>
            </Position>
            <AltitudeMeters>903.4000244140625</AltitudeMeters>
            <DistanceMeters>17647.182806356</DistanceMeters>
          </Trackpoint>
          <Trackpoint>
            <Time>2020-09-13T08:30:00.000Z</Time>
            <Position>
              <LatitudeDegrees>41.123205833137035369873046875</LatitudeDegrees>
              <LongitudeDegrees>-4.331405460834503173828125</LongitudeDegrees>
            </Position>
            <AltitudeMeters>903.5999755859375</AltitudeMeters>
            <DistanceMeters>17651.856536657</DistanceMeters>
          </Trackpoint>
          <Trackpoint>
            <Time>2020-09-13T08:30:08.000Z</Time>
            <Position>
              <LatitudeDegrees>41.1232348345220088958740234375</LatitudeDegrees>
              <LongitudeDegrees>-4.3310173787176609039306640625</LongitudeDegrees>
            </Position>
            <AltitudeMeters>904.20001220703125</AltitudeMeters>
            <DistanceMeters>17684.554288732</DistanceMeters>
          </Trackpoint>
          <Trackpoint>
            <Time>2020-09-13T08:30:16.000Z</Time>
            <Position>
              <LatitudeDegrees>41.1232629977166652679443359375</LatitudeDegrees>
              <LongitudeDegrees>-4.33067858219146728515625</LongitudeDegrees>
            </Position>
            <AltitudeMeters>905.79998779296875</AltitudeMeters>
            <DistanceMeters>17713.132536298</DistanceMeters>
          </Trackpoint>
          <Trackpoint>
            <Time>2020-09-13T08:30:18.000Z</Time>
            <Position>
              <LatitudeDegrees>41.12326987087726593017578125</LatitudeDegrees>
              <LongitudeDegrees>-4.33060322888195514678955078125</LongitudeDegrees>
            </Position>
            <AltitudeMeters>906.20001220703125</AltitudeMeters>
            <DistanceMeters>17719.49648891</DistanceMeters>
          </Trackpoint>
          <Trackpoint>
            <Time>2020-09-13T08:30:27.000Z</Time>
            <Position>
              <LatitudeDegrees>41.1232982017099857330322265625</LatitudeDegrees>
              <LongitudeDegrees>-4.3302549608051776885986328125</LongitudeDegrees>
            </Position>
            <AltitudeMeters>907.79998779296875</AltitudeMeters>
            <DistanceMeters>17748.866047335</DistanceMeters>
          </Trackpoint>
          <Trackpoint>
            <Time>2020-09-13T08:30:29.000Z</Time>
            <Position>
              <LatitudeDegrees>41.1233045719563961029052734375</LatitudeDegrees>
              <LongitudeDegrees>-4.33017105795443058013916015625</LongitudeDegrees>
            </Position>
            <AltitudeMeters>908.4000244140625</AltitudeMeters>
            <DistanceMeters>17755.936443589</DistanceMeters>
          </Trackpoint>
          <Trackpoint>
            <Time>2020-09-13T08:30:41.000Z</Time>
            <Position>
              <LatitudeDegrees>41.12332217395305633544921875</LatitudeDegrees>
              <LongitudeDegrees>-4.3297413177788257598876953125</LongitudeDegrees>
            </Position>
            <AltitudeMeters>909.5999755859375</AltitudeMeters>
            <DistanceMeters>17792.020578366</DistanceMeters>
          </Trackpoint>
          <Trackpoint>
            <Time>2020-09-13T08:30:51.000Z</Time>
            <Position>
              <LatitudeDegrees>41.12333692610263824462890625</LatitudeDegrees>
              <LongitudeDegrees>-4.32938919402658939361572265625</LongitudeDegrees>
            </Position>
            <AltitudeMeters>910.4000244140625</AltitudeMeters>
            <DistanceMeters>17821.589312892</DistanceMeters>
          </Trackpoint>
          <Trackpoint>
            <Time>2020-09-13T08:31:05.000Z</Time>
            <Position>
              <LatitudeDegrees>41.12332058139145374298095703125</LatitudeDegrees>
              <LongitudeDegrees>-4.32885442860424518585205078125</LongitudeDegrees>
            </Position>
            <AltitudeMeters>911</AltitudeMeters>
            <DistanceMeters>17866.462654045</DistanceMeters>
          </Trackpoint>
          <Trackpoint>
            <Time>2020-09-13T08:31:14.000Z</Time>
            <Position>
              <LatitudeDegrees>41.1233079247176647186279296875</LatitudeDegrees>
              <LongitudeDegrees>-4.32851395569741725921630859375</LongitudeDegrees>
            </Position>
            <AltitudeMeters>910.5999755859375</AltitudeMeters>
            <DistanceMeters>17895.043745264</DistanceMeters>
          </Trackpoint>
          <Trackpoint>
            <Time>2020-09-13T08:31:15.000Z</Time>
            <Position>
              <LatitudeDegrees>41.1233075894415378570556640625</LatitudeDegrees>
              <LongitudeDegrees>-4.32847389020025730133056640625</LongitudeDegrees>
            </Position>
            <AltitudeMeters>910.20001220703125</AltitudeMeters>
            <DistanceMeters>17898.403446971</DistanceMeters>
          </Trackpoint>
          <Trackpoint>
            <Time>2020-09-13T08:31:23.000Z</Time>
            <Position>
              <LatitudeDegrees>41.1232821084558963775634765625</LatitudeDegrees>
              <LongitudeDegrees>-4.32815990410745143890380859375</LongitudeDegrees>
            </Position>
            <AltitudeMeters>908</AltitudeMeters>
            <DistanceMeters>17924.881307061</DistanceMeters>
          </Trackpoint>
          <Trackpoint>
            <Time>2020-09-13T08:31:26.000Z</Time>
            <Position>
              <LatitudeDegrees>41.12326190806925296783447265625</LatitudeDegrees>
              <LongitudeDegrees>-4.328033924102783203125</LongitudeDegrees>
            </Position>
            <AltitudeMeters>907</AltitudeMeters>
            <DistanceMeters>17935.680122144</DistanceMeters>
          </Trackpoint>
          <Trackpoint>
            <Time>2020-09-13T08:31:32.000Z</Time>
            <Position>
              <LatitudeDegrees>41.12325134687125682830810546875</LatitudeDegrees>
              <LongitudeDegrees>-4.327725470066070556640625</LongitudeDegrees>
            </Position>
            <AltitudeMeters>905</AltitudeMeters>
            <DistanceMeters>17961.568580454</DistanceMeters>
          </Trackpoint>
          <Trackpoint>
            <Time>2020-09-13T08:31:34.000Z</Time>
            <Position>
              <LatitudeDegrees>41.1232489161193370819091796875</LatitudeDegrees>
              <LongitudeDegrees>-4.3276166729629039764404296875</LongitudeDegrees>
            </Position>
            <AltitudeMeters>904.5999755859375</AltitudeMeters>
            <DistanceMeters>17970.694608891</DistanceMeters>
          </Trackpoint>
          <Trackpoint>
            <Time>2020-09-13T08:31:40.000Z</Time>
            <Position>
              <LatitudeDegrees>41.12323575653135776519775390625</LatitudeDegrees>
              <LongitudeDegrees>-4.3272780440747737884521484375</LongitudeDegrees>
            </Position>
            <AltitudeMeters>904.20001220703125</AltitudeMeters>
            <DistanceMeters>17999.123959254</DistanceMeters>
          </Trackpoint>
          <Trackpoint>
            <Time>2020-09-13T08:31:44.000Z</Time>
            <Position>
              <LatitudeDegrees>41.1232356727123260498046875</LatitudeDegrees>
              <LongitudeDegrees>-4.32705290615558624267578125</LongitudeDegrees>
            </Position>
            <AltitudeMeters>904</AltitudeMeters>
            <DistanceMeters>18018.000340962</DistanceMeters>
          </Trackpoint>
          <Trackpoint>
            <Time>2020-09-13T08:31:55.000Z</Time>
            <Position>
              <LatitudeDegrees>41.12325469963252544403076171875</LatitudeDegrees>
              <LongitudeDegrees>-4.32641060091555118560791015625</LongitudeDegrees>
            </Position>
            <AltitudeMeters>903</AltitudeMeters>
            <DistanceMeters>18071.894983081</DistanceMeters>
          </Trackpoint>
          <Trackpoint>
            <Time>2020-09-13T08:32:01.000Z</Time>
            <Position>
              <LatitudeDegrees>41.1233005486428737640380859375</LatitudeDegrees>
              <LongitudeDegrees>-4.326069541275501251220703125</LongitudeDegrees>
            </Position>
            <AltitudeMeters>902.4000244140625</AltitudeMeters>
            <DistanceMeters>18100.942397472</DistanceMeters>
          </Trackpoint>
          <Trackpoint>
            <Time>2020-09-13T08:32:03.000Z</Time>
            <Position>
              <LatitudeDegrees>41.1233149655163288116455078125</LatitudeDegrees>
              <LongitudeDegrees>-4.3259592354297637939453125</LongitudeDegrees>
            </Position>
            <AltitudeMeters>902</AltitudeMeters>
            <DistanceMeters>18110.329382395</DistanceMeters>
          </Trackpoint>
          <Trackpoint>
            <Time>2020-09-13T08:32:04.000Z</Time>
            <Position>
              <LatitudeDegrees>41.12332141958177089691162109375</LatitudeDegrees>
              <LongitudeDegrees>-4.32590383104979991912841796875</LongitudeDegrees>
            </Position>
            <AltitudeMeters>902</AltitudeMeters>
            <DistanceMeters>18115.031044562</DistanceMeters>
          </Trackpoint>
          <Trackpoint>
            <Time>2020-09-13T08:32:06.000Z</Time>
            <Position>
              <LatitudeDegrees>41.1233354173600673675537109375</LatitudeDegrees>
              <LongitudeDegrees>-4.325798638164997100830078125</LongitudeDegrees>
            </Position>
            <AltitudeMeters>901.79998779296875</AltitudeMeters>
            <DistanceMeters>18123.987784992</DistanceMeters>
          </Trackpoint>
          <Trackpoint>
            <Time>2020-09-13T08:32:10.000Z</Time>
            <Position>
              <LatitudeDegrees>41.12336835823953151702880859375</LatitudeDegrees>
              <LongitudeDegrees>-4.325595460832118988037109375</LongitudeDegrees>
            </Position>
            <AltitudeMeters>901.5999755859375</AltitudeMeters>
            <DistanceMeters>18141.412689306</DistanceMeters>
          </Trackpoint>
          <Trackpoint>
            <Time>2020-09-13T08:32:14.000Z</Time>
            <Position>
              <LatitudeDegrees>41.1234078370034694671630859375</LatitudeDegrees>
              <LongitudeDegrees>-4.32536269538104534149169921875</LongitudeDegrees>
            </Position>
            <AltitudeMeters>901.4000244140625</AltitudeMeters>
            <DistanceMeters>18161.417110509</DistanceMeters>
          </Trackpoint>
          <Trackpoint>
            <Time>2020-09-13T08:32:16.000Z</Time>
            <Position>
              <LatitudeDegrees>41.12342971377074718475341796875</LatitudeDegrees>
              <LongitudeDegrees>-4.325261525809764862060546875</LongitudeDegrees>
            </Position>
            <AltitudeMeters>901.4000244140625</AltitudeMeters>
            <DistanceMeters>18170.242324916</DistanceMeters>
          </Trackpoint>
          <Trackpoint>
            <Time>2020-09-13T08:32:21.000Z</Time>
            <Position>
              <LatitudeDegrees>41.1234789155423641204833984375</LatitudeDegrees>
              <LongitudeDegrees>-4.32500210590660572052001953125</LongitudeDegrees>
            </Position>
            <AltitudeMeters>901.4000244140625</AltitudeMeters>
            <DistanceMeters>18192.671850521</DistanceMeters>
          </Trackpoint>
          <Trackpoint>
            <Time>2020-09-13T08:32:25.000Z</Time>
            <Position>
              <LatitudeDegrees>41.12349861301481723785400390625</LatitudeDegrees>
              <LongitudeDegrees>-4.324751906096935272216796875</LongitudeDegrees>
            </Position>
            <AltitudeMeters>901.20001220703125</AltitudeMeters>
            <DistanceMeters>18213.763500194</DistanceMeters>
          </Trackpoint>
          <Trackpoint>
            <Time>2020-09-13T08:32:27.000Z</Time>
            <Position>
              <LatitudeDegrees>41.12348377704620361328125</LatitudeDegrees>
              <LongitudeDegrees>-4.3246370740234851837158203125</LongitudeDegrees>
            </Position>
            <AltitudeMeters>901.20001220703125</AltitudeMeters>
            <DistanceMeters>18223.532320382</DistanceMeters>
          </Trackpoint>
          <Trackpoint>
            <Time>2020-09-13T08:32:30.000Z</Time>
            <Position>
              <LatitudeDegrees>41.12344019114971160888671875</LatitudeDegrees>
              <LongitudeDegrees>-4.32448728941380977630615234375</LongitudeDegrees>
            </Position>
            <AltitudeMeters>900.79998779296875</AltitudeMeters>
            <DistanceMeters>18236.995295327</DistanceMeters>
          </Trackpoint>
          <Trackpoint>
            <Time>2020-09-13T08:32:34.000Z</Time>
            <Position>
              <LatitudeDegrees>41.12336416728794574737548828125</LatitudeDegrees>
              <LongitudeDegrees>-4.32430523447692394256591796875</LongitudeDegrees>
            </Position>
            <AltitudeMeters>900.5999755859375</AltitudeMeters>
            <DistanceMeters>18254.447902827</DistanceMeters>
          </Trackpoint>
          <Trackpoint>
            <Time>2020-09-13T08:32:38.000Z</Time>
            <Position>
              <LatitudeDegrees>41.1232894845306873321533203125</LatitudeDegrees>
              <LongitudeDegrees>-4.32411412708461284637451171875</LongitudeDegrees>
            </Position>
            <AltitudeMeters>900.20001220703125</AltitudeMeters>
            <DistanceMeters>18272.498976989</DistanceMeters>
          </Trackpoint>
          <Trackpoint>
            <Time>2020-09-13T08:32:41.000Z</Time>
            <Position>
              <LatitudeDegrees>41.12325117923319339752197265625</LatitudeDegrees>
              <LongitudeDegrees>-4.32397398166358470916748046875</LongitudeDegrees>
            </Position>
            <AltitudeMeters>900</AltitudeMeters>
            <DistanceMeters>18284.999234698</DistanceMeters>
          </Trackpoint>
          <Trackpoint>
            <Time>2020-09-13T08:32:45.000Z</Time>
            <Position>
              <LatitudeDegrees>41.123228631913661956787109375</LatitudeDegrees>
              <LongitudeDegrees>-4.32378823868930339813232421875</LongitudeDegrees>
            </Position>
            <AltitudeMeters>899.5999755859375</AltitudeMeters>
            <DistanceMeters>18300.773669283</DistanceMeters>
          </Trackpoint>
          <Trackpoint>
            <Time>2020-09-13T08:32:53.000Z</Time>
            <Position>
              <LatitudeDegrees>41.12318781204521656036376953125</LatitudeDegrees>
              <LongitudeDegrees>-4.32339378632605075836181640625</LongitudeDegrees>
            </Position>
            <AltitudeMeters>899.5999755859375</AltitudeMeters>
            <DistanceMeters>18334.156595969</DistanceMeters>
          </Trackpoint>
          <Trackpoint>
            <Time>2020-09-13T08:32:55.000Z</Time>
            <Position>
              <LatitudeDegrees>41.123168282210826873779296875</LatitudeDegrees>
              <LongitudeDegrees>-4.3232993222773075103759765625</LongitudeDegrees>
            </Position>
            <AltitudeMeters>899.5999755859375</AltitudeMeters>
            <DistanceMeters>18342.369675235</DistanceMeters>
          </Trackpoint>
          <Trackpoint>
            <Time>2020-09-13T08:32:59.000Z</Time>
            <Position>
              <LatitudeDegrees>41.12311656586825847625732421875</LatitudeDegrees>
              <LongitudeDegrees>-4.32312573306262493133544921875</LongitudeDegrees>
            </Position>
            <AltitudeMeters>899.5999755859375</AltitudeMeters>
            <DistanceMeters>18358.020549128</DistanceMeters>
          </Trackpoint>
          <Trackpoint>
            <Time>2020-09-13T08:33:00.000Z</Time>
            <Position>
              <LatitudeDegrees>41.123101897537708282470703125</LatitudeDegrees>
              <LongitudeDegrees>-4.32308214716613292694091796875</LongitudeDegrees>
            </Position>
            <AltitudeMeters>899.5999755859375</AltitudeMeters>
            <DistanceMeters>18362.022967848</DistanceMeters>
          </Trackpoint>
          <Trackpoint>
            <Time>2020-09-13T08:33:02.000Z</Time>
            <Position>
              <LatitudeDegrees>41.1230735667049884796142578125</LatitudeDegrees>
              <LongitudeDegrees>-4.322999417781829833984375</LongitudeDegrees>
            </Position>
            <AltitudeMeters>899.5999755859375</AltitudeMeters>
            <DistanceMeters>18369.642901676</DistanceMeters>
          </Trackpoint>
          <Trackpoint>
            <Time>2020-09-13T08:33:03.000Z</Time>
            <Position>
              <LatitudeDegrees>41.1230581440031528472900390625</LatitudeDegrees>
              <LongitudeDegrees>-4.3229620344936847686767578125</LongitudeDegrees>
            </Position>
            <AltitudeMeters>899.5999755859375</AltitudeMeters>
            <DistanceMeters>18373.2162094</DistanceMeters>
          </Trackpoint>
          <Trackpoint>
            <Time>2020-09-13T08:33:05.000Z</Time>
            <Position>
              <LatitudeDegrees>41.123032160103321075439453125</LatitudeDegrees>
              <LongitudeDegrees>-4.3229010142385959625244140625</LongitudeDegrees>
            </Position>
            <AltitudeMeters>899.4000244140625</AltitudeMeters>
            <DistanceMeters>18379.094055304</DistanceMeters>
          </Trackpoint>
          <Trackpoint>
            <Time>2020-09-13T08:33:06.000Z</Time>
            <Position>
              <LatitudeDegrees>41.1230182461440563201904296875</LatitudeDegrees>
              <LongitudeDegrees>-4.32287259958684444427490234375</LongitudeDegrees>
            </Position>
            <AltitudeMeters>899.4000244140625</AltitudeMeters>
            <DistanceMeters>18381.935338173</DistanceMeters>
          </Trackpoint>
          <Trackpoint>
            <Time>2020-09-13T08:33:07.000Z</Time>
            <Position>
              <LatitudeDegrees>41.123003996908664703369140625</LatitudeDegrees>
              <LongitudeDegrees>-4.32284276001155376434326171875</LongitudeDegrees>
            </Position>
            <AltitudeMeters>899.20001220703125</AltitudeMeters>
            <DistanceMeters>18384.897977926</DistanceMeters>
          </Trackpoint>
          <Trackpoint>
            <Time>2020-09-13T08:33:08.000Z</Time>
            <Position>
              <LatitudeDegrees>41.1229937709867954254150390625</LatitudeDegrees>
              <LongitudeDegrees>-4.32281945832073688507080078125</LongitudeDegrees>
            </Position>
            <AltitudeMeters>899.20001220703125</AltitudeMeters>
            <DistanceMeters>18387.160731413</DistanceMeters>
          </Trackpoint>
          <Trackpoint>
            <Time>2020-09-13T08:33:09.000Z</Time>
            <Position>
              <LatitudeDegrees>41.12298010848462581634521484375</LatitudeDegrees>
              <LongitudeDegrees>-4.3227808177471160888671875</LongitudeDegrees>
            </Position>
            <AltitudeMeters>899</AltitudeMeters>
            <DistanceMeters>18390.739089751</DistanceMeters>
          </Trackpoint>
          <Trackpoint>
            <Time>2020-09-13T08:33:11.000Z</Time>
            <Position>
              <LatitudeDegrees>41.122963093221187591552734375</LatitudeDegrees>
              <LongitudeDegrees>-4.32270906865596771240234375</LongitudeDegrees>
            </Position>
            <AltitudeMeters>898.5999755859375</AltitudeMeters>
            <DistanceMeters>18397.045313396</DistanceMeters>
          </Trackpoint>
          <Trackpoint>
            <Time>2020-09-13T08:33:14.000Z</Time>
            <Position>
              <LatitudeDegrees>41.1229444853961467742919921875</LatitudeDegrees>
              <LongitudeDegrees>-4.32257772423326969146728515625</LongitudeDegrees>
            </Position>
            <AltitudeMeters>898</AltitudeMeters>
            <DistanceMeters>18408.251215548</DistanceMeters>
          </Trackpoint>
          <Trackpoint>
            <Time>2020-09-13T08:33:15.000Z</Time>
            <Position>
              <LatitudeDegrees>41.12294624559581279754638671875</LatitudeDegrees>
              <LongitudeDegrees>-4.322527684271335601806640625</LongitudeDegrees>
            </Position>
            <AltitudeMeters>897.79998779296875</AltitudeMeters>
            <DistanceMeters>18412.451783292</DistanceMeters>
          </Trackpoint>
          <Trackpoint>
            <Time>2020-09-13T08:33:20.000Z</Time>
            <Position>
              <LatitudeDegrees>41.12298010848462581634521484375</LatitudeDegrees>
              <LongitudeDegrees>-4.322307072579860687255859375</LongitudeDegrees>
            </Position>
            <AltitudeMeters>897.4000244140625</AltitudeMeters>
            <DistanceMeters>18431.328643374</DistanceMeters>
          </Trackpoint>
          <Trackpoint>
            <Time>2020-09-13T08:33:22.000Z</Time>
            <Position>
              <LatitudeDegrees>41.12300273962318897247314453125</LatitudeDegrees>
              <LongitudeDegrees>-4.32221747003495693206787109375</LongitudeDegrees>
            </Position>
            <AltitudeMeters>897.20001220703125</AltitudeMeters>
            <DistanceMeters>18439.251842944</DistanceMeters>
          </Trackpoint>
          <Trackpoint>
            <Time>2020-09-13T08:33:30.000Z</Time>
            <Position>
              <LatitudeDegrees>41.1230480857193470001220703125</LatitudeDegrees>
              <LongitudeDegrees>-4.3218715488910675048828125</LongitudeDegrees>
            </Position>
            <AltitudeMeters>896.5999755859375</AltitudeMeters>
            <DistanceMeters>18468.691112922</DistanceMeters>
          </Trackpoint>
          <Trackpoint>
            <Time>2020-09-13T08:33:35.000Z</Time>
            <Position>
              <LatitudeDegrees>41.12313307821750640869140625</LatitudeDegrees>
              <LongitudeDegrees>-4.32161699049174785614013671875</LongitudeDegrees>
            </Position>
            <AltitudeMeters>896</AltitudeMeters>
            <DistanceMeters>18492.036567806</DistanceMeters>
          </Trackpoint>
          <Trackpoint>
            <Time>2020-09-13T08:33:37.000Z</Time>
            <Position>
              <LatitudeDegrees>41.12317138351500034332275390625</LatitudeDegrees>
              <LongitudeDegrees>-4.321511127054691314697265625</LongitudeDegrees>
            </Position>
            <AltitudeMeters>896</AltitudeMeters>
            <DistanceMeters>18501.883646604</DistanceMeters>
          </Trackpoint>
          <Trackpoint>
            <Time>2020-09-13T08:33:40.000Z</Time>
            <Position>
              <LatitudeDegrees>41.12324279733002185821533203125</LatitudeDegrees>
              <LongitudeDegrees>-4.32140459306538105010986328125</LongitudeDegrees>
            </Position>
            <AltitudeMeters>896.20001220703125</AltitudeMeters>
            <DistanceMeters>18513.840409137</DistanceMeters>
          </Trackpoint>
          <Trackpoint>
            <Time>2020-09-13T08:33:44.000Z</Time>
            <Position>
              <LatitudeDegrees>41.123356036841869354248046875</LatitudeDegrees>
              <LongitudeDegrees>-4.3212450854480266571044921875</LongitudeDegrees>
            </Position>
            <AltitudeMeters>896.79998779296875</AltitudeMeters>
            <DistanceMeters>18532.217209698</DistanceMeters>
          </Trackpoint>
          <Trackpoint>
            <Time>2020-09-13T08:33:48.000Z</Time>
            <Position>
              <LatitudeDegrees>41.1234604753553867340087890625</LatitudeDegrees>
              <LongitudeDegrees>-4.32106261141598224639892578125</LongitudeDegrees>
            </Position>
            <AltitudeMeters>896.20001220703125</AltitudeMeters>
            <DistanceMeters>18551.43164894</DistanceMeters>
          </Trackpoint>
          <Trackpoint>
            <Time>2020-09-13T08:33:49.000Z</Time>
            <Position>
              <LatitudeDegrees>41.12348201684653759002685546875</LatitudeDegrees>
              <LongitudeDegrees>-4.32101164944469928741455078125</LongitudeDegrees>
            </Position>
            <AltitudeMeters>895.5999755859375</AltitudeMeters>
            <DistanceMeters>18556.330826748</DistanceMeters>
          </Trackpoint>
          <Trackpoint>
            <Time>2020-09-13T08:33:54.000Z</Time>
            <Position>
              <LatitudeDegrees>41.1235560290515422821044921875</LatitudeDegrees>
              <LongitudeDegrees>-4.32072062976658344268798828125</LongitudeDegrees>
            </Position>
            <AltitudeMeters>891.79998779296875</AltitudeMeters>
            <DistanceMeters>18582.083767637</DistanceMeters>
          </Trackpoint>
          <Trackpoint>
            <Time>2020-09-13T08:33:59.000Z</Time>
            <Position>
              <LatitudeDegrees>41.1236272752285003662109375</LatitudeDegrees>
              <LongitudeDegrees>-4.32041854597628116607666015625</LongitudeDegrees>
            </Position>
            <AltitudeMeters>889.5999755859375</AltitudeMeters>
            <DistanceMeters>18608.623795008</DistanceMeters>
          </Trackpoint>
          <Trackpoint>
            <Time>2020-09-13T08:34:01.000Z</Time>
            <Position>
              <LatitudeDegrees>41.12365954555571079254150390625</LatitudeDegrees>
              <LongitudeDegrees>-4.3202999420464038848876953125</LongitudeDegrees>
            </Position>
            <AltitudeMeters>889</AltitudeMeters>
            <DistanceMeters>18619.1961309</DistanceMeters>
          </Trackpoint>
          <Trackpoint>
            <Time>2020-09-13T08:34:03.000Z</Time>
            <Position>
              <LatitudeDegrees>41.12369843758642673492431640625</LatitudeDegrees>
              <LongitudeDegrees>-4.3201871216297149658203125</LongitudeDegrees>
            </Position>
            <AltitudeMeters>888.4000244140625</AltitudeMeters>
            <DistanceMeters>18629.598843821</DistanceMeters>
          </Trackpoint>
          <Trackpoint>
            <Time>2020-09-13T08:34:05.000Z</Time>
            <Position>
              <LatitudeDegrees>41.12374118529260158538818359375</LatitudeDegrees>
              <LongitudeDegrees>-4.32007153518497943878173828125</LongitudeDegrees>
            </Position>
            <AltitudeMeters>887.5999755859375</AltitudeMeters>
            <DistanceMeters>18640.395149982</DistanceMeters>
          </Trackpoint>
          <Trackpoint>
            <Time>2020-09-13T08:34:10.000Z</Time>
            <Position>
              <LatitudeDegrees>41.12385283224284648895263671875</LatitudeDegrees>
              <LongitudeDegrees>-4.31976391933858394622802734375</LongitudeDegrees>
            </Position>
            <AltitudeMeters>885.79998779296875</AltitudeMeters>
            <DistanceMeters>18669.02390927</DistanceMeters>
          </Trackpoint>
          <Trackpoint>
            <Time>2020-09-13T08:34:13.000Z</Time>
            <Position>
              <LatitudeDegrees>41.123906560242176055908203125</LatitudeDegrees>
              <LongitudeDegrees>-4.31957683525979518890380859375</LongitudeDegrees>
            </Position>
            <AltitudeMeters>884.5999755859375</AltitudeMeters>
            <DistanceMeters>18685.810587486</DistanceMeters>
          </Trackpoint>
          <Trackpoint>
            <Time>2020-09-13T08:34:20.000Z</Time>
            <Position>
              <LatitudeDegrees>41.12400789745151996612548828125</LatitudeDegrees>
              <LongitudeDegrees>-4.31920886971056461334228515625</LongitudeDegrees>
            </Position>
            <AltitudeMeters>883</AltitudeMeters>
            <DistanceMeters>18718.658918712</DistanceMeters>
          </Trackpoint>
          <Trackpoint>
            <Time>2020-09-13T08:34:30.000Z</Time>
            <Position>
              <LatitudeDegrees>41.1241752840578556060791015625</LatitudeDegrees>
              <LongitudeDegrees>-4.3187127448618412017822265625</LongitudeDegrees>
            </Position>
            <AltitudeMeters>881</AltitudeMeters>
            <DistanceMeters>18764.236885163</DistanceMeters>
          </Trackpoint>
          <Trackpoint>
            <Time>2020-09-13T08:34:32.000Z</Time>
            <Position>
              <LatitudeDegrees>41.12420537509024143218994140625</LatitudeDegrees>
              <LongitudeDegrees>-4.31860386393964290618896484375</LongitudeDegrees>
            </Position>
            <AltitudeMeters>880.5999755859375</AltitudeMeters>
            <DistanceMeters>18773.961234011</DistanceMeters>
          </Trackpoint>
          <Trackpoint>
            <Time>2020-09-13T08:34:36.000Z</Time>
            <Position>
              <LatitudeDegrees>41.124250888824462890625</LatitudeDegrees>
              <LongitudeDegrees>-4.31838861666619777679443359375</LongitudeDegrees>
            </Position>
            <AltitudeMeters>879.79998779296875</AltitudeMeters>
            <DistanceMeters>18792.705599681</DistanceMeters>
          </Trackpoint>
          <Trackpoint>
            <Time>2020-09-13T08:34:37.000Z</Time>
            <Position>
              <LatitudeDegrees>41.1242671497166156768798828125</LatitudeDegrees>
              <LongitudeDegrees>-4.31833731941878795623779296875</LongitudeDegrees>
            </Position>
            <AltitudeMeters>879.79998779296875</AltitudeMeters>
            <DistanceMeters>18797.371595213</DistanceMeters>
          </Trackpoint>
          <Trackpoint>
            <Time>2020-09-13T08:34:41.000Z</Time>
            <Position>
              <LatitudeDegrees>41.12433739006519317626953125</LatitudeDegrees>
              <LongitudeDegrees>-4.31814973242580890655517578125</LongitudeDegrees>
            </Position>
            <AltitudeMeters>879.4000244140625</AltitudeMeters>
            <DistanceMeters>18814.935349694</DistanceMeters>
          </Trackpoint>
          <Trackpoint>
            <Time>2020-09-13T08:34:42.000Z</Time>
            <Position>
              <LatitudeDegrees>41.124344430863857269287109375</LatitudeDegrees>
              <LongitudeDegrees>-4.31809508241713047027587890625</LongitudeDegrees>
            </Position>
            <AltitudeMeters>879.20001220703125</AltitudeMeters>
            <DistanceMeters>18819.584866122</DistanceMeters>
          </Trackpoint>
          <Trackpoint>
            <Time>2020-09-13T08:34:44.000Z</Time>
            <Position>
              <LatitudeDegrees>41.1243353784084320068359375</LatitudeDegrees>
              <LongitudeDegrees>-4.3179858662188053131103515625</LongitudeDegrees>
            </Position>
            <AltitudeMeters>879</AltitudeMeters>
            <DistanceMeters>18828.797557829</DistanceMeters>
          </Trackpoint>
          <Trackpoint>
            <Time>2020-09-13T08:34:45.000Z</Time>
            <Position>
              <LatitudeDegrees>41.124320961534976959228515625</LatitudeDegrees>
              <LongitudeDegrees>-4.31793146766722202301025390625</LongitudeDegrees>
            </Position>
            <AltitudeMeters>878.79998779296875</AltitudeMeters>
            <DistanceMeters>18833.633661425</DistanceMeters>
          </Trackpoint>
          <Trackpoint>
            <Time>2020-09-13T08:34:53.000Z</Time>
            <Position>
              <LatitudeDegrees>41.1242175288498401641845703125</LatitudeDegrees>
              <LongitudeDegrees>-4.31750047020614147186279296875</LongitudeDegrees>
            </Position>
            <AltitudeMeters>878.20001220703125</AltitudeMeters>
            <DistanceMeters>18871.558964801</DistanceMeters>
          </Trackpoint>
          <Trackpoint>
            <Time>2020-09-13T08:35:02.000Z</Time>
            <Position>
              <LatitudeDegrees>41.12412423826754093170166015625</LatitudeDegrees>
              <LongitudeDegrees>-4.31706997565925121307373046875</LongitudeDegrees>
            </Position>
            <AltitudeMeters>873.5999755859375</AltitudeMeters>
            <DistanceMeters>18909.116523044</DistanceMeters>
          </Trackpoint>
          <Trackpoint>
            <Time>2020-09-13T08:35:07.000Z</Time>
            <Position>
              <LatitudeDegrees>41.12405399791896343231201171875</LatitudeDegrees>
              <LongitudeDegrees>-4.316876940429210662841796875</LongitudeDegrees>
            </Position>
            <AltitudeMeters>871.79998779296875</AltitudeMeters>
            <DistanceMeters>18927.09039338</DistanceMeters>
          </Trackpoint>
          <Trackpoint>
            <Time>2020-09-13T08:35:09.000Z</Time>
            <Position>
              <LatitudeDegrees>41.12403119914233684539794921875</LatitudeDegrees>
              <LongitudeDegrees>-4.31677526794373989105224609375</LongitudeDegrees>
            </Position>
            <AltitudeMeters>871.20001220703125</AltitudeMeters>
            <DistanceMeters>18935.984406515</DistanceMeters>
          </Trackpoint>
          <Trackpoint>
            <Time>2020-09-13T08:35:11.000Z</Time>
            <Position>
              <LatitudeDegrees>41.1239893734455108642578125</LatitudeDegrees>
              <LongitudeDegrees>-4.316657669842243194580078125</LongitudeDegrees>
            </Position>
            <AltitudeMeters>870.4000244140625</AltitudeMeters>
            <DistanceMeters>18946.888075001</DistanceMeters>
          </Trackpoint>
          <Trackpoint>
            <Time>2020-09-13T08:35:12.000Z</Time>
            <Position>
              <LatitudeDegrees>41.12397822551429271697998046875</LatitudeDegrees>
              <LongitudeDegrees>-4.31661617942154407501220703125</LongitudeDegrees>
            </Position>
            <AltitudeMeters>870.20001220703125</AltitudeMeters>
            <DistanceMeters>18950.580691341</DistanceMeters>
          </Trackpoint>
          <Trackpoint>
            <Time>2020-09-13T08:35:17.000Z</Time>
            <Position>
              <LatitudeDegrees>41.123946122825145721435546875</LatitudeDegrees>
              <LongitudeDegrees>-4.31635349057614803314208984375</LongitudeDegrees>
            </Position>
            <AltitudeMeters>868.79998779296875</AltitudeMeters>
            <DistanceMeters>18972.893158136</DistanceMeters>
          </Trackpoint>
          <Trackpoint>
            <Time>2020-09-13T08:35:26.000Z</Time>
            <Position>
              <LatitudeDegrees>41.12385802902281284332275390625</LatitudeDegrees>
              <LongitudeDegrees>-4.31587689556181430816650390625</LongitudeDegrees>
            </Position>
            <AltitudeMeters>868.79998779296875</AltitudeMeters>
            <DistanceMeters>19014.037421051</DistanceMeters>
          </Trackpoint>
          <Trackpoint>
            <Time>2020-09-13T08:35:33.000Z</Time>
            <Position>
              <LatitudeDegrees>41.1237877048552036285400390625</LatitudeDegrees>
              <LongitudeDegrees>-4.3154890649020671844482421875</LongitudeDegrees>
            </Position>
            <AltitudeMeters>869.4000244140625</AltitudeMeters>
            <DistanceMeters>19047.483044824</DistanceMeters>
          </Trackpoint>
          <Trackpoint>
            <Time>2020-09-13T08:35:37.000Z</Time>
            <Position>
              <LatitudeDegrees>41.12373900599777698516845703125</LatitudeDegrees>
              <LongitudeDegrees>-4.315276332199573516845703125</LongitudeDegrees>
            </Position>
            <AltitudeMeters>869</AltitudeMeters>
            <DistanceMeters>19066.124273371</DistanceMeters>
          </Trackpoint>
          <Trackpoint>
            <Time>2020-09-13T08:35:41.000Z</Time>
            <Position>
              <LatitudeDegrees>41.1237042210996150970458984375</LatitudeDegrees>
              <LongitudeDegrees>-4.31507281959056854248046875</LongitudeDegrees>
            </Position>
            <AltitudeMeters>868</AltitudeMeters>
            <DistanceMeters>19083.621063122</DistanceMeters>
          </Trackpoint>
          <Trackpoint>
            <Time>2020-09-13T08:35:50.000Z</Time>
            <Position>
              <LatitudeDegrees>41.12361009232699871063232421875</LatitudeDegrees>
              <LongitudeDegrees>-4.31463268585503101348876953125</LongitudeDegrees>
            </Position>
            <AltitudeMeters>865.5999755859375</AltitudeMeters>
            <DistanceMeters>19121.981501039</DistanceMeters>
          </Trackpoint>
          <Trackpoint>
            <Time>2020-09-13T08:35:57.000Z</Time>
            <Position>
              <LatitudeDegrees>41.12345226109027862548828125</LatitudeDegrees>
              <LongitudeDegrees>-4.314296655356884002685546875</LongitudeDegrees>
            </Position>
            <AltitudeMeters>864.20001220703125</AltitudeMeters>
            <DistanceMeters>19155.183242137</DistanceMeters>
          </Trackpoint>
          <Trackpoint>
            <Time>2020-09-13T08:35:58.000Z</Time>
            <Position>
              <LatitudeDegrees>41.12342921085655689239501953125</LatitudeDegrees>
              <LongitudeDegrees>-4.31425449438393115997314453125</LongitudeDegrees>
            </Position>
            <AltitudeMeters>864</AltitudeMeters>
            <DistanceMeters>19159.551371202</DistanceMeters>
          </Trackpoint>
          <Trackpoint>
            <Time>2020-09-13T08:36:01.000Z</Time>
            <Position>
              <LatitudeDegrees>41.1233679391443729400634765625</LatitudeDegrees>
              <LongitudeDegrees>-4.31412591598927974700927734375</LongitudeDegrees>
            </Position>
            <AltitudeMeters>863.4000244140625</AltitudeMeters>
            <DistanceMeters>19172.307977631</DistanceMeters>
          </Trackpoint>
          <Trackpoint>
            <Time>2020-09-13T08:36:05.000Z</Time>
            <Position>
              <LatitudeDegrees>41.12331689335405826568603515625</LatitudeDegrees>
              <LongitudeDegrees>-4.31393547914922237396240234375</LongitudeDegrees>
            </Position>
            <AltitudeMeters>861.79998779296875</AltitudeMeters>
            <DistanceMeters>19189.25579966</DistanceMeters>
          </Trackpoint>
          <Trackpoint>
            <Time>2020-09-13T08:36:10.000Z</Time>
            <Position>
              <LatitudeDegrees>41.12326375208795070648193359375</LatitudeDegrees>
              <LongitudeDegrees>-4.31371889077126979827880859375</LongitudeDegrees>
            </Position>
            <AltitudeMeters>859.79998779296875</AltitudeMeters>
            <DistanceMeters>19208.354514483</DistanceMeters>
          </Trackpoint>
          <Trackpoint>
            <Time>2020-09-13T08:36:13.000Z</Time>
            <Position>
              <LatitudeDegrees>41.12320306710898876190185546875</LatitudeDegrees>
              <LongitudeDegrees>-4.31360724382102489471435546875</LongitudeDegrees>
            </Position>
            <AltitudeMeters>859</AltitudeMeters>
            <DistanceMeters>19219.897815918</DistanceMeters>
          </Trackpoint>
          <Trackpoint>
            <Time>2020-09-13T08:36:18.000Z</Time>
            <Position>
              <LatitudeDegrees>41.12307683564722537994384765625</LatitudeDegrees>
              <LongitudeDegrees>-4.3134338222444057464599609375</LongitudeDegrees>
            </Position>
            <AltitudeMeters>857.20001220703125</AltitudeMeters>
            <DistanceMeters>19240.116856962</DistanceMeters>
          </Trackpoint>
          <Trackpoint>
            <Time>2020-09-13T08:36:23.000Z</Time>
            <Position>
              <LatitudeDegrees>41.1229381151497364044189453125</LatitudeDegrees>
              <LongitudeDegrees>-4.31324883364140987396240234375</LongitudeDegrees>
            </Position>
            <AltitudeMeters>855.5999755859375</AltitudeMeters>
            <DistanceMeters>19262.001903332</DistanceMeters>
          </Trackpoint>
          <Trackpoint>
            <Time>2020-09-13T08:36:33.000Z</Time>
            <Position>
              <LatitudeDegrees>41.12268925644457340240478515625</LatitudeDegrees>
              <LongitudeDegrees>-4.312927722930908203125</LongitudeDegrees>
            </Position>
            <AltitudeMeters>853.5999755859375</AltitudeMeters>
            <DistanceMeters>19300.629181531</DistanceMeters>
          </Trackpoint>
          <Trackpoint>
            <Time>2020-09-13T08:36:38.000Z</Time>
            <Position>
              <LatitudeDegrees>41.12254659645259380340576171875</LatitudeDegrees>
              <LongitudeDegrees>-4.3128216080367565155029296875</LongitudeDegrees>
            </Position>
            <AltitudeMeters>853.4000244140625</AltitudeMeters>
            <DistanceMeters>19318.830208546</DistanceMeters>
          </Trackpoint>
          <Trackpoint>
            <Time>2020-09-13T08:36:40.000Z</Time>
            <Position>
              <LatitudeDegrees>41.12248792313039302825927734375</LatitudeDegrees>
              <LongitudeDegrees>-4.312805347144603729248046875</LongitudeDegrees>
            </Position>
            <AltitudeMeters>853.4000244140625</AltitudeMeters>
            <DistanceMeters>19325.501056822</DistanceMeters>
          </Trackpoint>
          <Trackpoint>
            <Time>2020-09-13T08:36:44.000Z</Time>
            <Position>
              <LatitudeDegrees>41.12239840440452098846435546875</LatitudeDegrees>
              <LongitudeDegrees>-4.31272613815963268280029296875</LongitudeDegrees>
            </Position>
            <AltitudeMeters>853.20001220703125</AltitudeMeters>
            <DistanceMeters>19337.475176989</DistanceMeters>
          </Trackpoint>
          <Trackpoint>
            <Time>2020-09-13T08:36:50.000Z</Time>
            <Position>
              <LatitudeDegrees>41.122316680848598480224609375</LatitudeDegrees>
              <LongitudeDegrees>-4.31256587617099285125732421875</LongitudeDegrees>
            </Position>
            <AltitudeMeters>853.4000244140625</AltitudeMeters>
            <DistanceMeters>19353.701666719</DistanceMeters>
          </Trackpoint>
          <Trackpoint>
            <Time>2020-09-13T08:36:56.000Z</Time>
            <Position>
              <LatitudeDegrees>41.122287847101688385009765625</LatitudeDegrees>
              <LongitudeDegrees>-4.31243997998535633087158203125</LongitudeDegrees>
            </Position>
            <AltitudeMeters>853.4000244140625</AltitudeMeters>
            <DistanceMeters>19364.734591556</DistanceMeters>
          </Trackpoint>
          <Trackpoint>
            <Time>2020-09-13T08:39:20.000Z</Time>
            <Position>
              <LatitudeDegrees>41.1237793229520320892333984375</LatitudeDegrees>
              <LongitudeDegrees>-4.31154697202146053314208984375</LongitudeDegrees>
            </Position>
            <AltitudeMeters>841.4000244140625</AltitudeMeters>
            <DistanceMeters>19546.842771456</DistanceMeters>
          </Trackpoint>
          <Trackpoint>
            <Time>2020-09-13T08:39:21.000Z</Time>
            <Position>
              <LatitudeDegrees>41.12378158606588840484619140625</LatitudeDegrees>
              <LongitudeDegrees>-4.31154361926019191741943359375</LongitudeDegrees>
            </Position>
            <AltitudeMeters>841.4000244140625</AltitudeMeters>
            <DistanceMeters>19547.234576636</DistanceMeters>
          </Trackpoint>
          <Trackpoint>
            <Time>2020-09-13T08:39:23.000Z</Time>
            <Position>
              <LatitudeDegrees>41.12380187027156352996826171875</LatitudeDegrees>
              <LongitudeDegrees>-4.31153096258640289306640625</LongitudeDegrees>
            </Position>
            <AltitudeMeters>841.20001220703125</AltitudeMeters>
            <DistanceMeters>19549.730724217</DistanceMeters>
          </Trackpoint>
          <Trackpoint>
            <Time>2020-09-13T08:39:26.000Z</Time>
            <Position>
              <LatitudeDegrees>41.12387227825820446014404296875</LatitudeDegrees>
              <LongitudeDegrees>-4.31149349547922611236572265625</LongitudeDegrees>
            </Position>
            <AltitudeMeters>840.79998779296875</AltitudeMeters>
            <DistanceMeters>19558.173675328</DistanceMeters>
          </Trackpoint>
          <Trackpoint>
            <Time>2020-09-13T08:39:30.000Z</Time>
            <Position>
              <LatitudeDegrees>41.123950481414794921875</LatitudeDegrees>
              <LongitudeDegrees>-4.31138746440410614013671875</LongitudeDegrees>
            </Position>
            <AltitudeMeters>839.79998779296875</AltitudeMeters>
            <DistanceMeters>19570.615281751</DistanceMeters>
          </Trackpoint>
          <Trackpoint>
            <Time>2020-09-13T08:39:42.000Z</Time>
            <Position>
              <LatitudeDegrees>41.12414569593966007232666015625</LatitudeDegrees>
              <LongitudeDegrees>-4.3110228516161441802978515625</LongitudeDegrees>
            </Position>
            <AltitudeMeters>836.5999755859375</AltitudeMeters>
            <DistanceMeters>19608.120148205</DistanceMeters>
          </Trackpoint>
          <Trackpoint>
            <Time>2020-09-13T08:39:49.000Z</Time>
            <Position>
              <LatitudeDegrees>41.1242520622909069061279296875</LatitudeDegrees>
              <LongitudeDegrees>-4.310859404504299163818359375</LongitudeDegrees>
            </Position>
            <AltitudeMeters>835</AltitudeMeters>
            <DistanceMeters>19626.229657207</DistanceMeters>
          </Trackpoint>
          <Trackpoint>
            <Time>2020-09-13T08:39:56.000Z</Time>
            <Position>
              <LatitudeDegrees>41.12440855242311954498291015625</LatitudeDegrees>
              <LongitudeDegrees>-4.31070777587592601776123046875</LongitudeDegrees>
            </Position>
            <AltitudeMeters>833.5999755859375</AltitudeMeters>
            <DistanceMeters>19647.793394276</DistanceMeters>
          </Trackpoint>
          <Trackpoint>
            <Time>2020-09-13T08:40:02.000Z</Time>
            <Position>
              <LatitudeDegrees>41.1246232129633426666259765625</LatitudeDegrees>
              <LongitudeDegrees>-4.3106858991086483001708984375</LongitudeDegrees>
            </Position>
            <AltitudeMeters>834.5999755859375</AltitudeMeters>
            <DistanceMeters>19671.755958849</DistanceMeters>
          </Trackpoint>
          <Trackpoint>
            <Time>2020-09-13T08:40:04.000Z</Time>
            <Position>
              <LatitudeDegrees>41.12471130676567554473876953125</LatitudeDegrees>
              <LongitudeDegrees>-4.31066326797008514404296875</LongitudeDegrees>
            </Position>
            <AltitudeMeters>834.79998779296875</AltitudeMeters>
            <DistanceMeters>19681.743262009</DistanceMeters>
          </Trackpoint>
          <Trackpoint>
            <Time>2020-09-13T08:40:06.000Z</Time>
            <Position>
              <LatitudeDegrees>41.1248039267957210540771484375</LatitudeDegrees>
              <LongitudeDegrees>-4.310620687901973724365234375</LongitudeDegrees>
            </Position>
            <AltitudeMeters>834.5999755859375</AltitudeMeters>
            <DistanceMeters>19692.652726135</DistanceMeters>
          </Trackpoint>
          <Trackpoint>
            <Time>2020-09-13T08:40:08.000Z</Time>
            <Position>
              <LatitudeDegrees>41.12489101476967334747314453125</LatitudeDegrees>
              <LongitudeDegrees>-4.31056729517877101898193359375</LongitudeDegrees>
            </Position>
            <AltitudeMeters>833.5999755859375</AltitudeMeters>
            <DistanceMeters>19703.329602318</DistanceMeters>
          </Trackpoint>
          <Trackpoint>
            <Time>2020-09-13T08:40:09.000Z</Time>
            <Position>
              <LatitudeDegrees>41.12492420710623264312744140625</LatitudeDegrees>
              <LongitudeDegrees>-4.3105403892695903778076171875</LongitudeDegrees>
            </Position>
            <AltitudeMeters>833.20001220703125</AltitudeMeters>
            <DistanceMeters>19707.658275166</DistanceMeters>
          </Trackpoint>
          <Trackpoint>
            <Time>2020-09-13T08:40:10.000Z</Time>
            <Position>
              <LatitudeDegrees>41.12497382797300815582275390625</LatitudeDegrees>
              <LongitudeDegrees>-4.31049973703920841217041015625</LongitudeDegrees>
            </Position>
            <AltitudeMeters>832.5999755859375</AltitudeMeters>
            <DistanceMeters>19714.147980593</DistanceMeters>
          </Trackpoint>
          <Trackpoint>
            <Time>2020-09-13T08:40:11.000Z</Time>
            <Position>
              <LatitudeDegrees>41.1250174976885318756103515625</LatitudeDegrees>
              <LongitudeDegrees>-4.3104694783687591552734375</LongitudeDegrees>
            </Position>
            <AltitudeMeters>832.20001220703125</AltitudeMeters>
            <DistanceMeters>19719.630783205</DistanceMeters>
          </Trackpoint>
          <Trackpoint>
            <Time>2020-09-13T08:40:13.000Z</Time>
            <Position>
              <LatitudeDegrees>41.125098131597042083740234375</LatitudeDegrees>
              <LongitudeDegrees>-4.310405440628528594970703125</LongitudeDegrees>
            </Position>
            <AltitudeMeters>831.20001220703125</AltitudeMeters>
            <DistanceMeters>19730.088903777</DistanceMeters>
          </Trackpoint>
          <Trackpoint>
            <Time>2020-09-13T08:40:15.000Z</Time>
            <Position>
              <LatitudeDegrees>41.12517021596431732177734375</LatitudeDegrees>
              <LongitudeDegrees>-4.31034249253571033477783203125</LongitudeDegrees>
            </Position>
            <AltitudeMeters>830.20001220703125</AltitudeMeters>
            <DistanceMeters>19739.692715562</DistanceMeters>
          </Trackpoint>
          <Trackpoint>
            <Time>2020-09-13T08:40:17.000Z</Time>
            <Position>
              <LatitudeDegrees>41.12522310577332973480224609375</LatitudeDegrees>
              <LongitudeDegrees>-4.31027459912002086639404296875</LongitudeDegrees>
            </Position>
            <AltitudeMeters>829.5999755859375</AltitudeMeters>
            <DistanceMeters>19747.881019269</DistanceMeters>
          </Trackpoint>
          <Trackpoint>
            <Time>2020-09-13T08:40:20.000Z</Time>
            <Position>
              <LatitudeDegrees>41.125279851257801055908203125</LatitudeDegrees>
              <LongitudeDegrees>-4.3101583421230316162109375</LongitudeDegrees>
            </Position>
            <AltitudeMeters>829.79998779296875</AltitudeMeters>
            <DistanceMeters>19759.495289884</DistanceMeters>
          </Trackpoint>
          <Trackpoint>
            <Time>2020-09-13T08:40:23.000Z</Time>
            <Position>
              <LatitudeDegrees>41.12532637082040309906005859375</LatitudeDegrees>
              <LongitudeDegrees>-4.31003705598413944244384765625</LongitudeDegrees>
            </Position>
            <AltitudeMeters>830</AltitudeMeters>
            <DistanceMeters>19770.906411753</DistanceMeters>
          </Trackpoint>
          <Trackpoint>
            <Time>2020-09-13T08:40:26.000Z</Time>
            <Position>
              <LatitudeDegrees>41.12534246407449245452880859375</LatitudeDegrees>
              <LongitudeDegrees>-4.3099231459200382232666015625</LongitudeDegrees>
            </Position>
            <AltitudeMeters>830.20001220703125</AltitudeMeters>
            <DistanceMeters>19780.623328924</DistanceMeters>
          </Trackpoint>
          <Trackpoint>
            <Time>2020-09-13T08:40:31.000Z</Time>
            <Position>
              <LatitudeDegrees>41.1253760755062103271484375</LatitudeDegrees>
              <LongitudeDegrees>-4.309817366302013397216796875</LongitudeDegrees>
            </Position>
            <AltitudeMeters>830.4000244140625</AltitudeMeters>
            <DistanceMeters>19790.247804191</DistanceMeters>
          </Trackpoint>
          <Trackpoint>
            <Time>2020-09-13T08:40:39.000Z</Time>
            <Position>
              <LatitudeDegrees>41.1254691146314144134521484375</LatitudeDegrees>
              <LongitudeDegrees>-4.30963170714676380157470703125</LongitudeDegrees>
            </Position>
            <AltitudeMeters>830.79998779296875</AltitudeMeters>
            <DistanceMeters>19808.943208408</DistanceMeters>
          </Trackpoint>
          <Trackpoint>
            <Time>2020-09-13T08:40:45.000Z</Time>
            <Position>
              <LatitudeDegrees>41.1255593039095401763916015625</LatitudeDegrees>
              <LongitudeDegrees>-4.3094395101070404052734375</LongitudeDegrees>
            </Position>
            <AltitudeMeters>830.79998779296875</AltitudeMeters>
            <DistanceMeters>19827.928109545</DistanceMeters>
          </Trackpoint>
          <Trackpoint>
            <Time>2020-09-13T08:40:49.000Z</Time>
            <Position>
              <LatitudeDegrees>41.1255874671041965484619140625</LatitudeDegrees>
              <LongitudeDegrees>-4.3093873746693134307861328125</LongitudeDegrees>
            </Position>
            <AltitudeMeters>830.5999755859375</AltitudeMeters>
            <DistanceMeters>19833.306990927</DistanceMeters>
          </Trackpoint>
          <Trackpoint>
            <Time>2020-09-13T08:41:39.000Z</Time>
            <Position>
              <LatitudeDegrees>41.12558855675160884857177734375</LatitudeDegrees>
              <LongitudeDegrees>-4.30938812904059886932373046875</LongitudeDegrees>
            </Position>
            <AltitudeMeters>830.5999755859375</AltitudeMeters>
            <DistanceMeters>19833.441378995</DistanceMeters>
          </Trackpoint>
          <Trackpoint>
            <Time>2020-09-13T08:41:40.000Z</Time>
            <Position>
              <LatitudeDegrees>41.12558939494192600250244140625</LatitudeDegrees>
              <LongitudeDegrees>-4.3093883804976940155029296875</LongitudeDegrees>
            </Position>
            <AltitudeMeters>830.5999755859375</AltitudeMeters>
            <DistanceMeters>19833.441378995</DistanceMeters>
          </Trackpoint>
          <Trackpoint>
            <Time>2020-09-13T08:41:45.000Z</Time>
            <Position>
              <LatitudeDegrees>41.12560247071087360382080078125</LatitudeDegrees>
              <LongitudeDegrees>-4.30936507880687713623046875</LongitudeDegrees>
            </Position>
            <AltitudeMeters>830.5999755859375</AltitudeMeters>
            <DistanceMeters>19835.878957774</DistanceMeters>
          </Trackpoint>
          <Trackpoint>
            <Time>2020-09-13T08:41:50.000Z</Time>
            <Position>
              <LatitudeDegrees>41.12568913958966732025146484375</LatitudeDegrees>
              <LongitudeDegrees>-4.3092941679060459136962890625</LongitudeDegrees>
            </Position>
            <AltitudeMeters>830.4000244140625</AltitudeMeters>
            <DistanceMeters>19847.210669341</DistanceMeters>
          </Trackpoint>
          <Trackpoint>
            <Time>2020-09-13T08:41:51.000Z</Time>
            <Position>
              <LatitudeDegrees>41.1257006227970123291015625</LatitudeDegrees>
              <LongitudeDegrees>-4.30927732028067111968994140625</LongitudeDegrees>
            </Position>
            <AltitudeMeters>830.4000244140625</AltitudeMeters>
            <DistanceMeters>19849.115949039</DistanceMeters>
          </Trackpoint>
          <Trackpoint>
            <Time>2020-09-13T08:41:53.000Z</Time>
            <Position>
              <LatitudeDegrees>41.125702969729900360107421875</LatitudeDegrees>
              <LongitudeDegrees>-4.30924572050571441650390625</LongitudeDegrees>
            </Position>
            <AltitudeMeters>830.20001220703125</AltitudeMeters>
            <DistanceMeters>19851.780088691</DistanceMeters>
          </Trackpoint>
          <Trackpoint>
            <Time>2020-09-13T08:41:54.000Z</Time>
            <Position>
              <LatitudeDegrees>41.12569727003574371337890625</LatitudeDegrees>
              <LongitudeDegrees>-4.3092338182032108306884765625</LongitudeDegrees>
            </Position>
            <AltitudeMeters>830.20001220703125</AltitudeMeters>
            <DistanceMeters>19852.963161744</DistanceMeters>
          </Trackpoint>
          <Trackpoint>
            <Time>2020-09-13T08:41:59.000Z</Time>
            <Position>
              <LatitudeDegrees>41.12566969357430934906005859375</LatitudeDegrees>
              <LongitudeDegrees>-4.309154860675334930419921875</LongitudeDegrees>
            </Position>
            <AltitudeMeters>829.79998779296875</AltitudeMeters>
            <DistanceMeters>19860.260446225</DistanceMeters>
          </Trackpoint>
          <Trackpoint>
            <Time>2020-09-13T08:42:01.000Z</Time>
            <Position>
              <LatitudeDegrees>41.125666759908199310302734375</LatitudeDegrees>
              <LongitudeDegrees>-4.3091080896556377410888671875</LongitudeDegrees>
            </Position>
            <AltitudeMeters>829.79998779296875</AltitudeMeters>
            <DistanceMeters>19864.196892741</DistanceMeters>
          </Trackpoint>
          <Trackpoint>
            <Time>2020-09-13T08:42:06.000Z</Time>
            <Position>
              <LatitudeDegrees>41.125670112669467926025390625</LatitudeDegrees>
              <LongitudeDegrees>-4.3090899847447872161865234375</LongitudeDegrees>
            </Position>
            <AltitudeMeters>829.5999755859375</AltitudeMeters>
            <DistanceMeters>19865.758340992</DistanceMeters>
          </Trackpoint>
          <Trackpoint>
            <Time>2020-09-13T08:42:14.000Z</Time>
            <Position>
              <LatitudeDegrees>41.12570053897798061370849609375</LatitudeDegrees>
              <LongitudeDegrees>-4.309048242866992950439453125</LongitudeDegrees>
            </Position>
            <AltitudeMeters>829.4000244140625</AltitudeMeters>
            <DistanceMeters>19870.628865689</DistanceMeters>
          </Trackpoint>
          <Trackpoint>
            <Time>2020-09-13T08:42:15.000Z</Time>
            <Position>
              <LatitudeDegrees>41.125710010528564453125</LatitudeDegrees>
              <LongitudeDegrees>-4.3090467341244220733642578125</LongitudeDegrees>
            </Position>
            <AltitudeMeters>829.4000244140625</AltitudeMeters>
            <DistanceMeters>19871.695537912</DistanceMeters>
          </Trackpoint>
          <Trackpoint>
            <Time>2020-09-13T08:42:21.000Z</Time>
            <Position>
              <LatitudeDegrees>41.12574127502739429473876953125</LatitudeDegrees>
              <LongitudeDegrees>-4.3090306408703327178955078125</LongitudeDegrees>
            </Position>
            <AltitudeMeters>829.4000244140625</AltitudeMeters>
            <DistanceMeters>19875.427076184</DistanceMeters>
          </Trackpoint>
          <Trackpoint>
            <Time>2020-09-13T08:42:29.000Z</Time>
            <Position>
              <LatitudeDegrees>41.12579424865543842315673828125</LatitudeDegrees>
              <LongitudeDegrees>-4.30900122039020061492919921875</LongitudeDegrees>
            </Position>
            <AltitudeMeters>829.4000244140625</AltitudeMeters>
            <DistanceMeters>19881.818638265</DistanceMeters>
          </Trackpoint>
          <Trackpoint>
            <Time>2020-09-13T08:42:33.000Z</Time>
            <Position>
              <LatitudeDegrees>41.125814281404018402099609375</LatitudeDegrees>
              <LongitudeDegrees>-4.30896920152008533477783203125</LongitudeDegrees>
            </Position>
            <AltitudeMeters>829.20001220703125</AltitudeMeters>
            <DistanceMeters>19885.308849308</DistanceMeters>
          </Trackpoint>
          <Trackpoint>
            <Time>2020-09-13T08:42:36.000Z</Time>
            <Position>
              <LatitudeDegrees>41.125825010240077972412109375</LatitudeDegrees>
              <LongitudeDegrees>-4.3089521862566471099853515625</LongitudeDegrees>
            </Position>
            <AltitudeMeters>829.20001220703125</AltitudeMeters>
            <DistanceMeters>19887.168558768</DistanceMeters>
          </Trackpoint>
          <Trackpoint>
            <Time>2020-09-13T08:42:37.000Z</Time>
            <Position>
              <LatitudeDegrees>41.1258292011916637420654296875</LatitudeDegrees>
              <LongitudeDegrees>-4.30894606746733188629150390625</LongitudeDegrees>
            </Position>
            <AltitudeMeters>829.20001220703125</AltitudeMeters>
            <DistanceMeters>19887.853806151</DistanceMeters>
          </Trackpoint>
          <Trackpoint>
            <Time>2020-09-13T08:42:38.000Z</Time>
            <Position>
              <LatitudeDegrees>41.125832386314868927001953125</LatitudeDegrees>
              <LongitudeDegrees>-4.30893986485898494720458984375</LongitudeDegrees>
            </Position>
            <AltitudeMeters>829.20001220703125</AltitudeMeters>
            <DistanceMeters>19888.476937988</DistanceMeters>
          </Trackpoint>
          <Trackpoint>
            <Time>2020-09-13T08:42:39.000Z</Time>
            <Position>
              <LatitudeDegrees>41.12583833746612071990966796875</LatitudeDegrees>
              <LongitudeDegrees>-4.308933578431606292724609375</LongitudeDegrees>
            </Position>
            <AltitudeMeters>829</AltitudeMeters>
            <DistanceMeters>19889.3215539</DistanceMeters>
          </Trackpoint>
          <Trackpoint>
            <Time>2020-09-13T08:42:42.000Z</Time>
            <Position>
              <LatitudeDegrees>41.12585443072021007537841796875</LatitudeDegrees>
              <LongitudeDegrees>-4.30893148295581340789794921875</LongitudeDegrees>
            </Position>
            <AltitudeMeters>829</AltitudeMeters>
            <DistanceMeters>19891.119543713</DistanceMeters>
          </Trackpoint>
          <Trackpoint>
            <Time>2020-09-13T08:42:46.000Z</Time>
            <Position>
              <LatitudeDegrees>41.1258848570287227630615234375</LatitudeDegrees>
              <LongitudeDegrees>-4.30894556455314159393310546875</LongitudeDegrees>
            </Position>
            <AltitudeMeters>829.20001220703125</AltitudeMeters>
            <DistanceMeters>19894.705464635</DistanceMeters>
          </Trackpoint>
          <Trackpoint>
            <Time>2020-09-13T08:42:48.000Z</Time>
            <Position>
              <LatitudeDegrees>41.125905811786651611328125</LatitudeDegrees>
              <LongitudeDegrees>-4.30893483571708202362060546875</LongitudeDegrees>
            </Position>
            <AltitudeMeters>829</AltitudeMeters>
            <DistanceMeters>19897.205227203</DistanceMeters>
          </Trackpoint>
          <Trackpoint>
            <Time>2020-09-13T08:42:55.000Z</Time>
            <Position>
              <LatitudeDegrees>41.12595786340534687042236328125</LatitudeDegrees>
              <LongitudeDegrees>-4.30892712436616420745849609375</LongitudeDegrees>
            </Position>
            <AltitudeMeters>829</AltitudeMeters>
            <DistanceMeters>19903.035253596</DistanceMeters>
          </Trackpoint>
          <Trackpoint>
            <Time>2020-09-13T08:42:56.000Z</Time>
            <Position>
              <LatitudeDegrees>41.12595618702471256256103515625</LatitudeDegrees>
              <LongitudeDegrees>-4.3089330755174160003662109375</LongitudeDegrees>
            </Position>
            <AltitudeMeters>829</AltitudeMeters>
            <DistanceMeters>19903.572805869</DistanceMeters>
          </Trackpoint>
          <Trackpoint>
            <Time>2020-09-13T08:42:57.000Z</Time>
            <Position>
              <LatitudeDegrees>41.12595350481569766998291015625</LatitudeDegrees>
              <LongitudeDegrees>-4.30893952958285808563232421875</LongitudeDegrees>
            </Position>
            <AltitudeMeters>829</AltitudeMeters>
            <DistanceMeters>19904.188649364</DistanceMeters>
          </Trackpoint>
          <Trackpoint>
            <Time>2020-09-13T08:43:02.000Z</Time>
            <Position>
              <LatitudeDegrees>41.125964820384979248046875</LatitudeDegrees>
              <LongitudeDegrees>-4.30894338525831699371337890625</LongitudeDegrees>
            </Position>
            <AltitudeMeters>829.20001220703125</AltitudeMeters>
            <DistanceMeters>19905.484640961</DistanceMeters>
          </Trackpoint>
          <Trackpoint>
            <Time>2020-09-13T08:43:06.000Z</Time>
            <Position>
              <LatitudeDegrees>41.12599977292120456695556640625</LatitudeDegrees>
              <LongitudeDegrees>-4.30893349461257457733154296875</LongitudeDegrees>
            </Position>
            <AltitudeMeters>829</AltitudeMeters>
            <DistanceMeters>19909.462164553</DistanceMeters>
          </Trackpoint>
          <Trackpoint>
            <Time>2020-09-13T08:43:09.000Z</Time>
            <Position>
              <LatitudeDegrees>41.1260709352791309356689453125</LatitudeDegrees>
              <LongitudeDegrees>-4.3089084327220916748046875</LongitudeDegrees>
            </Position>
            <AltitudeMeters>829</AltitudeMeters>
            <DistanceMeters>19917.656531425</DistanceMeters>
          </Trackpoint>
          <Trackpoint>
            <Time>2020-09-13T08:43:13.000Z</Time>
            <Position>
              <LatitudeDegrees>41.12615534104406833648681640625</LatitudeDegrees>
              <LongitudeDegrees>-4.3088301457464694976806640625</LongitudeDegrees>
            </Position>
            <AltitudeMeters>828.79998779296875</AltitudeMeters>
            <DistanceMeters>19929.116611347</DistanceMeters>
          </Trackpoint>
          <Trackpoint>
            <Time>2020-09-13T08:43:15.000Z</Time>
            <Position>
              <LatitudeDegrees>41.1261906288564205169677734375</LatitudeDegrees>
              <LongitudeDegrees>-4.30879837833344936370849609375</LongitudeDegrees>
            </Position>
            <AltitudeMeters>828.5999755859375</AltitudeMeters>
            <DistanceMeters>19933.860338837</DistanceMeters>
          </Trackpoint>
          <Trackpoint>
            <Time>2020-09-13T08:43:17.000Z</Time>
            <Position>
              <LatitudeDegrees>41.12623396329581737518310546875</LatitudeDegrees>
              <LongitudeDegrees>-4.308767616748809814453125</LongitudeDegrees>
            </Position>
            <AltitudeMeters>828.4000244140625</AltitudeMeters>
            <DistanceMeters>19939.329124185</DistanceMeters>
          </Trackpoint>
          <Trackpoint>
            <Time>2020-09-13T08:43:20.000Z</Time>
            <Position>
              <LatitudeDegrees>41.12630671821534633636474609375</LatitudeDegrees>
              <LongitudeDegrees>-4.30870701558887958526611328125</LongitudeDegrees>
            </Position>
            <AltitudeMeters>828.20001220703125</AltitudeMeters>
            <DistanceMeters>19948.88958619</DistanceMeters>
          </Trackpoint>
          <Trackpoint>
            <Time>2020-09-13T08:43:23.000Z</Time>
            <Position>
              <LatitudeDegrees>41.12637880258262157440185546875</LatitudeDegrees>
              <LongitudeDegrees>-4.308653958141803741455078125</LongitudeDegrees>
            </Position>
            <AltitudeMeters>828</AltitudeMeters>
            <DistanceMeters>19958.063479173</DistanceMeters>
          </Trackpoint>
          <Trackpoint>
            <Time>2020-09-13T08:43:27.000Z</Time>
            <Position>
              <LatitudeDegrees>41.12644317559897899627685546875</LatitudeDegrees>
              <LongitudeDegrees>-4.30859503336250782012939453125</LongitudeDegrees>
            </Position>
            <AltitudeMeters>828</AltitudeMeters>
            <DistanceMeters>19966.766598224</DistanceMeters>
          </Trackpoint>
          <Trackpoint>
            <Time>2020-09-13T08:43:28.000Z</Time>
            <Position>
              <LatitudeDegrees>41.1264628730714321136474609375</LatitudeDegrees>
              <LongitudeDegrees>-4.3085874058306217193603515625</LongitudeDegrees>
            </Position>
            <AltitudeMeters>828.4000244140625</AltitudeMeters>
            <DistanceMeters>19969.047239369</DistanceMeters>
          </Trackpoint>
          <Trackpoint>
            <Time>2020-09-13T08:43:31.000Z</Time>
            <Position>
              <LatitudeDegrees>41.126533113420009613037109375</LatitudeDegrees>
              <LongitudeDegrees>-4.30854071862995624542236328125</LongitudeDegrees>
            </Position>
            <AltitudeMeters>829.4000244140625</AltitudeMeters>
            <DistanceMeters>19977.790729929</DistanceMeters>
          </Trackpoint>
          <Trackpoint>
            <Time>2020-09-13T08:43:33.000Z</Time>
            <Position>
              <LatitudeDegrees>41.12658047117292881011962890625</LatitudeDegrees>
              <LongitudeDegrees>-4.30851942859590053558349609375</LongitudeDegrees>
            </Position>
            <AltitudeMeters>830.20001220703125</AltitudeMeters>
            <DistanceMeters>19983.356083664</DistanceMeters>
          </Trackpoint>
          <Trackpoint>
            <Time>2020-09-13T08:43:37.000Z</Time>
            <Position>
              <LatitudeDegrees>41.1266523040831089019775390625</LatitudeDegrees>
              <LongitudeDegrees>-4.308497048914432525634765625</LongitudeDegrees>
            </Position>
            <AltitudeMeters>831</AltitudeMeters>
            <DistanceMeters>19991.568063382</DistanceMeters>
          </Trackpoint>
          <Trackpoint>
            <Time>2020-09-13T08:43:38.000Z</Time>
            <Position>
              <LatitudeDegrees>41.12666764296591281890869140625</LatitudeDegrees>
              <LongitudeDegrees>-4.3085055984556674957275390625</LongitudeDegrees>
            </Position>
            <AltitudeMeters>831.20001220703125</AltitudeMeters>
            <DistanceMeters>19993.418036077</DistanceMeters>
          </Trackpoint>
          <Trackpoint>
            <Time>2020-09-13T08:43:39.000Z</Time>
            <Position>
              <LatitudeDegrees>41.12668172456324100494384765625</LatitudeDegrees>
              <LongitudeDegrees>-4.3085221946239471435546875</LongitudeDegrees>
            </Position>
            <AltitudeMeters>831.4000244140625</AltitudeMeters>
            <DistanceMeters>19995.512938736</DistanceMeters>
          </Trackpoint>
          <Trackpoint>
            <Time>2020-09-13T08:43:41.000Z</Time>
            <Position>
              <LatitudeDegrees>41.12669371068477630615234375</LatitudeDegrees>
              <LongitudeDegrees>-4.30854708887636661529541015625</LongitudeDegrees>
            </Position>
            <AltitudeMeters>831.4000244140625</AltitudeMeters>
            <DistanceMeters>19997.989109552</DistanceMeters>
          </Trackpoint>
          <Trackpoint>
            <Time>2020-09-13T08:43:43.000Z</Time>
            <Position>
              <LatitudeDegrees>41.12669681198894977569580078125</LatitudeDegrees>
              <LongitudeDegrees>-4.3085532076656818389892578125</LongitudeDegrees>
            </Position>
            <AltitudeMeters>831.4000244140625</AltitudeMeters>
            <DistanceMeters>19998.604953047</DistanceMeters>
          </Trackpoint>
          <Trackpoint>
            <Time>2020-09-13T08:43:46.000Z</Time>
            <Position>
              <LatitudeDegrees>41.12671424634754657745361328125</LatitudeDegrees>
              <LongitudeDegrees>-4.30858346633613109588623046875</LongitudeDegrees>
            </Position>
            <AltitudeMeters>831.4000244140625</AltitudeMeters>
            <DistanceMeters>20001.800734087</DistanceMeters>
          </Trackpoint>
          <Trackpoint>
            <Time>2020-09-13T08:43:50.000Z</Time>
            <Position>
              <LatitudeDegrees>41.12673394381999969482421875</LatitudeDegrees>
              <LongitudeDegrees>-4.3086383678019046783447265625</LongitudeDegrees>
            </Position>
            <AltitudeMeters>831.5999755859375</AltitudeMeters>
            <DistanceMeters>20006.899517283</DistanceMeters>
          </Trackpoint>
          <Trackpoint>
            <Time>2020-09-13T08:43:53.000Z</Time>
            <Position>
              <LatitudeDegrees>41.1267441697418689727783203125</LatitudeDegrees>
              <LongitudeDegrees>-4.30869050323963165283203125</LongitudeDegrees>
            </Position>
            <AltitudeMeters>831.79998779296875</AltitudeMeters>
            <DistanceMeters>20011.416036152</DistanceMeters>
          </Trackpoint>
          <Trackpoint>
            <Time>2020-09-13T08:43:55.000Z</Time>
            <Position>
              <LatitudeDegrees>41.12675137817859649658203125</LatitudeDegrees>
              <LongitudeDegrees>-4.30871137417852878570556640625</LongitudeDegrees>
            </Position>
            <AltitudeMeters>832</AltitudeMeters>
            <DistanceMeters>20013.340180466</DistanceMeters>
          </Trackpoint>
          <Trackpoint>
            <Time>2020-09-13T08:43:58.000Z</Time>
            <Position>
              <LatitudeDegrees>41.12674559466540813446044921875</LatitudeDegrees>
              <LongitudeDegrees>-4.30874238722026348114013671875</LongitudeDegrees>
            </Position>
            <AltitudeMeters>832</AltitudeMeters>
            <DistanceMeters>20016.017843756</DistanceMeters>
          </Trackpoint>
          <Trackpoint>
            <Time>2020-09-13T08:43:59.000Z</Time>
            <Position>
              <LatitudeDegrees>41.12674710340797901153564453125</LatitudeDegrees>
              <LongitudeDegrees>-4.30875563062727451324462890625</LongitudeDegrees>
            </Position>
            <AltitudeMeters>832</AltitudeMeters>
            <DistanceMeters>20017.142215004</DistanceMeters>
          </Trackpoint>
          <Trackpoint>
            <Time>2020-09-13T08:44:03.000Z</Time>
            <Position>
              <LatitudeDegrees>41.12675900571048259735107421875</LatitudeDegrees>
              <LongitudeDegrees>-4.30880852043628692626953125</LongitudeDegrees>
            </Position>
            <AltitudeMeters>832.20001220703125</AltitudeMeters>
            <DistanceMeters>20021.77031843</DistanceMeters>
          </Trackpoint>
          <Trackpoint>
            <Time>2020-09-13T08:44:06.000Z</Time>
            <Position>
              <LatitudeDegrees>41.1267545633018016815185546875</LatitudeDegrees>
              <LongitudeDegrees>-4.308814890682697296142578125</LongitudeDegrees>
            </Position>
            <AltitudeMeters>832.20001220703125</AltitudeMeters>
            <DistanceMeters>20022.506392194</DistanceMeters>
          </Trackpoint>
          <Trackpoint>
            <Time>2020-09-13T08:44:13.000Z</Time>
            <Position>
              <LatitudeDegrees>41.126755066215991973876953125</LatitudeDegrees>
              <LongitudeDegrees>-4.30881916545331478118896484375</LongitudeDegrees>
            </Position>
            <AltitudeMeters>832.20001220703125</AltitudeMeters>
            <DistanceMeters>20022.861949602</DistanceMeters>
          </Trackpoint>
          <Trackpoint>
            <Time>2020-09-13T08:44:14.000Z</Time>
            <Position>
              <LatitudeDegrees>41.12675330601632595062255859375</LatitudeDegrees>
              <LongitudeDegrees>-4.30882059037685394287109375</LongitudeDegrees>
            </Position>
            <AltitudeMeters>832.20001220703125</AltitudeMeters>
            <DistanceMeters>20023.094716564</DistanceMeters>
          </Trackpoint>
          <Trackpoint>
            <Time>2020-09-13T08:44:15.000Z</Time>
            <Position>
              <LatitudeDegrees>41.126751713454723358154296875</LatitudeDegrees>
              <LongitudeDegrees>-4.30881933309137821197509765625</LongitudeDegrees>
            </Position>
            <AltitudeMeters>832.20001220703125</AltitudeMeters>
            <DistanceMeters>20023.307202757</DistanceMeters>
          </Trackpoint>
          <Trackpoint>
            <Time>2020-09-13T08:44:32.000Z</Time>
            <Position>
              <LatitudeDegrees>41.12675699405372142791748046875</LatitudeDegrees>
              <LongitudeDegrees>-4.30882050655782222747802734375</LongitudeDegrees>
            </Position>
            <AltitudeMeters>832.20001220703125</AltitudeMeters>
            <DistanceMeters>20023.900644398</DistanceMeters>
          </Trackpoint>
          <Trackpoint>
            <Time>2020-09-13T08:44:36.000Z</Time>
            <Position>
              <LatitudeDegrees>41.12675950862467288970947265625</LatitudeDegrees>
              <LongitudeDegrees>-4.3088224343955516815185546875</LongitudeDegrees>
            </Position>
            <AltitudeMeters>832.4000244140625</AltitudeMeters>
            <DistanceMeters>20024.229826593</DistanceMeters>
          </Trackpoint>
          <Trackpoint>
            <Time>2020-09-13T08:44:38.000Z</Time>
            <Position>
              <LatitudeDegrees>41.12676302902400493621826171875</LatitudeDegrees>
              <LongitudeDegrees>-4.3088224343955516815185546875</LongitudeDegrees>
            </Position>
            <AltitudeMeters>832.4000244140625</AltitudeMeters>
            <DistanceMeters>20024.632990798</DistanceMeters>
          </Trackpoint>
          <Trackpoint>
            <Time>2020-09-13T08:44:39.000Z</Time>
            <Position>
              <LatitudeDegrees>41.1267666332423686981201171875</LatitudeDegrees>
              <LongitudeDegrees>-4.3088227696716785430908203125</LongitudeDegrees>
            </Position>
            <AltitudeMeters>832.4000244140625</AltitudeMeters>
            <DistanceMeters>20025.036155003</DistanceMeters>
          </Trackpoint>
          <Trackpoint>
            <Time>2020-09-13T08:44:44.000Z</Time>
            <Position>
              <LatitudeDegrees>41.12677493132650852203369140625</LatitudeDegrees>
              <LongitudeDegrees>-4.30882318876683712005615234375</LongitudeDegrees>
            </Position>
            <AltitudeMeters>832.4000244140625</AltitudeMeters>
            <DistanceMeters>20025.962360845</DistanceMeters>
          </Trackpoint>
          <Trackpoint>
            <Time>2020-09-13T08:44:45.000Z</Time>
            <Position>
              <LatitudeDegrees>41.12677660770714282989501953125</LatitudeDegrees>
              <LongitudeDegrees>-4.30882318876683712005615234375</LongitudeDegrees>
            </Position>
            <AltitudeMeters>832.5999755859375</AltitudeMeters>
            <DistanceMeters>20026.152414274</DistanceMeters>
          </Trackpoint>
          <Trackpoint>
            <Time>2020-09-13T08:44:55.000Z</Time>
            <Position>
              <LatitudeDegrees>41.12677979283034801483154296875</LatitudeDegrees>
              <LongitudeDegrees>-4.308820255100727081298828125</LongitudeDegrees>
            </Position>
            <AltitudeMeters>832.5999755859375</AltitudeMeters>
            <DistanceMeters>20026.57738666</DistanceMeters>
          </Trackpoint>
          <Trackpoint>
            <Time>2020-09-13T08:45:02.000Z</Time>
            <Position>
              <LatitudeDegrees>41.1267790384590625762939453125</LatitudeDegrees>
              <LongitudeDegrees>-4.3088160641491413116455078125</LongitudeDegrees>
            </Position>
            <AltitudeMeters>832.5999755859375</AltitudeMeters>
            <DistanceMeters>20026.932944067</DistanceMeters>
          </Trackpoint>
          <Trackpoint>
            <Time>2020-09-13T08:45:18.000Z</Time>
            <Position>
              <LatitudeDegrees>41.12676118500530719757080078125</LatitudeDegrees>
              <LongitudeDegrees>-4.30880826897919178009033203125</LongitudeDegrees>
            </Position>
            <AltitudeMeters>832.20001220703125</AltitudeMeters>
            <DistanceMeters>20029.025690367</DistanceMeters>
          </Trackpoint>
          <Trackpoint>
            <Time>2020-09-13T08:45:22.000Z</Time>
            <Position>
              <LatitudeDegrees>41.12676118500530719757080078125</LatitudeDegrees>
              <LongitudeDegrees>-4.30880642496049404144287109375</LongitudeDegrees>
            </Position>
            <AltitudeMeters>832.20001220703125</AltitudeMeters>
            <DistanceMeters>20029.160078435</DistanceMeters>
          </Trackpoint>
          <Trackpoint>
            <Time>2020-09-13T08:45:24.000Z</Time>
            <Position>
              <LatitudeDegrees>41.1267627775669097900390625</LatitudeDegrees>
              <LongitudeDegrees>-4.3088063411414623260498046875</LongitudeDegrees>
            </Position>
            <AltitudeMeters>832.4000244140625</AltitudeMeters>
            <DistanceMeters>20029.350131864</DistanceMeters>
          </Trackpoint>
          <Trackpoint>
            <Time>2020-09-13T08:45:27.000Z</Time>
            <Position>
              <LatitudeDegrees>41.1267673037946224212646484375</LatitudeDegrees>
              <LongitudeDegrees>-4.3088063411414623260498046875</LongitudeDegrees>
            </Position>
            <AltitudeMeters>832.4000244140625</AltitudeMeters>
            <DistanceMeters>20029.852965972</DistanceMeters>
          </Trackpoint>
          <Trackpoint>
            <Time>2020-09-13T08:45:30.000Z</Time>
            <Position>
              <LatitudeDegrees>41.126769147813320159912109375</LatitudeDegrees>
              <LongitudeDegrees>-4.3088063411414623260498046875</LongitudeDegrees>
            </Position>
            <AltitudeMeters>832.4000244140625</AltitudeMeters>
            <DistanceMeters>20030.043019401</DistanceMeters>
          </Trackpoint>
          <Trackpoint>
            <Time>2020-09-13T08:45:34.000Z</Time>
            <Position>
              <LatitudeDegrees>41.12677409313619136810302734375</LatitudeDegrees>
              <LongitudeDegrees>-4.30880877189338207244873046875</LongitudeDegrees>
            </Position>
            <AltitudeMeters>832.4000244140625</AltitudeMeters>
            <DistanceMeters>20030.62880341</DistanceMeters>
          </Trackpoint>
          <Trackpoint>
            <Time>2020-09-13T08:45:37.000Z</Time>
            <Position>
              <LatitudeDegrees>41.1267787031829357147216796875</LatitudeDegrees>
              <LongitudeDegrees>-4.30882050655782222747802734375</LongitudeDegrees>
            </Position>
            <AltitudeMeters>832.5999755859375</AltitudeMeters>
            <DistanceMeters>20031.73699581</DistanceMeters>
          </Trackpoint>
          <Trackpoint>
            <Time>2020-09-13T08:45:40.000Z</Time>
            <Position>
              <LatitudeDegrees>41.126781888306140899658203125</LatitudeDegrees>
              <LongitudeDegrees>-4.30882235057651996612548828125</LongitudeDegrees>
            </Position>
            <AltitudeMeters>832.5999755859375</AltitudeMeters>
            <DistanceMeters>20032.117102668</DistanceMeters>
          </Trackpoint>
          <Trackpoint>
            <Time>2020-09-13T08:45:44.000Z</Time>
            <Position>
              <LatitudeDegrees>41.12678356468677520751953125</LatitudeDegrees>
              <LongitudeDegrees>-4.3088224343955516815185546875</LongitudeDegrees>
            </Position>
            <AltitudeMeters>832.5999755859375</AltitudeMeters>
            <DistanceMeters>20032.307156096</DistanceMeters>
          </Trackpoint>
          <Trackpoint>
            <Time>2020-09-13T08:45:47.000Z</Time>
            <Position>
              <LatitudeDegrees>41.1267847381532192230224609375</LatitudeDegrees>
              <LongitudeDegrees>-4.3088224343955516815185546875</LongitudeDegrees>
            </Position>
            <AltitudeMeters>832.5999755859375</AltitudeMeters>
            <DistanceMeters>20032.441544165</DistanceMeters>
          </Trackpoint>
          <Trackpoint>
            <Time>2020-09-13T08:45:50.000Z</Time>
            <Position>
              <LatitudeDegrees>41.126785576343536376953125</LatitudeDegrees>
              <LongitudeDegrees>-4.3088224343955516815185546875</LongitudeDegrees>
            </Position>
            <AltitudeMeters>832.5999755859375</AltitudeMeters>
            <DistanceMeters>20032.441544165</DistanceMeters>
          </Trackpoint>
          <Trackpoint>
            <Time>2020-09-13T08:45:55.000Z</Time>
            <Position>
              <LatitudeDegrees>41.12679219804704189300537109375</LatitudeDegrees>
              <LongitudeDegrees>-4.3088210932910442352294921875</LongitudeDegrees>
            </Position>
            <AltitudeMeters>832.5999755859375</AltitudeMeters>
            <DistanceMeters>20033.177617929</DistanceMeters>
          </Trackpoint>
          <Trackpoint>
            <Time>2020-09-13T08:45:58.000Z</Time>
            <Position>
              <LatitudeDegrees>41.1267954669892787933349609375</LatitudeDegrees>
              <LongitudeDegrees>-4.30881924927234649658203125</LongitudeDegrees>
            </Position>
            <AltitudeMeters>832.79998779296875</AltitudeMeters>
            <DistanceMeters>20033.56942311</DistanceMeters>
          </Trackpoint>
          <Trackpoint>
            <Time>2020-09-13T08:46:10.000Z</Time>
            <Position>
              <LatitudeDegrees>41.12680309452116489410400390625</LatitudeDegrees>
              <LongitudeDegrees>-4.308794103562831878662109375</LongitudeDegrees>
            </Position>
            <AltitudeMeters>832.79998779296875</AltitudeMeters>
            <DistanceMeters>20035.842131566</DistanceMeters>
          </Trackpoint>
          <Trackpoint>
            <Time>2020-09-13T08:46:16.000Z</Time>
            <Position>
              <LatitudeDegrees>41.12680728547275066375732421875</LatitudeDegrees>
              <LongitudeDegrees>-4.3087771721184253692626953125</LongitudeDegrees>
            </Position>
            <AltitudeMeters>832.79998779296875</AltitudeMeters>
            <DistanceMeters>20037.33861376</DistanceMeters>
          </Trackpoint>
          <Trackpoint>
            <Time>2020-09-13T08:46:22.000Z</Time>
            <Position>
              <LatitudeDegrees>41.12680770456790924072265625</LatitudeDegrees>
              <LongitudeDegrees>-4.308774657547473907470703125</LongitudeDegrees>
            </Position>
            <AltitudeMeters>832.79998779296875</AltitudeMeters>
            <DistanceMeters>20037.551099953</DistanceMeters>
          </Trackpoint>
          <Trackpoint>
            <Time>2020-09-13T08:46:32.000Z</Time>
            <Position>
              <LatitudeDegrees>41.1268083751201629638671875</LatitudeDegrees>
              <LongitudeDegrees>-4.3087743222713470458984375</LongitudeDegrees>
            </Position>
            <AltitudeMeters>832.79998779296875</AltitudeMeters>
            <DistanceMeters>20037.646126667</DistanceMeters>
          </Trackpoint>
          <Trackpoint>
            <Time>2020-09-13T08:46:33.000Z</Time>
            <Position>
              <LatitudeDegrees>41.12680845893919467926025390625</LatitudeDegrees>
              <LongitudeDegrees>-4.30877440609037876129150390625</LongitudeDegrees>
            </Position>
            <AltitudeMeters>832.79998779296875</AltitudeMeters>
            <DistanceMeters>20037.646126667</DistanceMeters>
          </Trackpoint>
          <Trackpoint>
            <Time>2020-09-13T08:46:35.000Z</Time>
            <Position>
              <LatitudeDegrees>41.12680845893919467926025390625</LatitudeDegrees>
              <LongitudeDegrees>-4.30877457372844219207763671875</LongitudeDegrees>
            </Position>
            <AltitudeMeters>832.79998779296875</AltitudeMeters>
            <DistanceMeters>20037.646126667</DistanceMeters>
          </Trackpoint>
          <Trackpoint>
            <Time>2020-09-13T08:46:36.000Z</Time>
            <Position>
              <LatitudeDegrees>41.12680845893919467926025390625</LatitudeDegrees>
              <LongitudeDegrees>-4.30877474136650562286376953125</LongitudeDegrees>
            </Position>
            <AltitudeMeters>832.79998779296875</AltitudeMeters>
            <DistanceMeters>20037.646126667</DistanceMeters>
          </Trackpoint>
          <Trackpoint>
            <Time>2020-09-13T08:46:42.000Z</Time>
            <Position>
              <LatitudeDegrees>41.12680745311081409454345703125</LatitudeDegrees>
              <LongitudeDegrees>-4.3087808601558208465576171875</LongitudeDegrees>
            </Position>
            <AltitudeMeters>832.79998779296875</AltitudeMeters>
            <DistanceMeters>20038.166609418</DistanceMeters>
          </Trackpoint>
          <Trackpoint>
            <Time>2020-09-13T08:46:44.000Z</Time>
            <Position>
              <LatitudeDegrees>41.12680560909211635589599609375</LatitudeDegrees>
              <LongitudeDegrees>-4.30878211744129657745361328125</LongitudeDegrees>
            </Position>
            <AltitudeMeters>832.79998779296875</AltitudeMeters>
            <DistanceMeters>20038.39937638</DistanceMeters>
          </Trackpoint>
          <Trackpoint>
            <Time>2020-09-13T08:46:54.000Z</Time>
            <Position>
              <LatitudeDegrees>41.1268015019595623016357421875</LatitudeDegrees>
              <LongitudeDegrees>-4.30879066698253154754638671875</LongitudeDegrees>
            </Position>
            <AltitudeMeters>832.79998779296875</AltitudeMeters>
            <DistanceMeters>20039.249321152</DistanceMeters>
          </Trackpoint>
          <Trackpoint>
            <Time>2020-09-13T08:46:58.000Z</Time>
            <Position>
              <LatitudeDegrees>41.12679387442767620086669921875</LatitudeDegrees>
              <LongitudeDegrees>-4.3087919242680072784423828125</LongitudeDegrees>
            </Position>
            <AltitudeMeters>832.5999755859375</AltitudeMeters>
            <DistanceMeters>20040.099265924</DistanceMeters>
          </Trackpoint>
          <Trackpoint>
            <Time>2020-09-13T08:47:03.000Z</Time>
            <Position>
              <LatitudeDegrees>41.12678985111415386199951171875</LatitudeDegrees>
              <LongitudeDegrees>-4.30880240164697170257568359375</LongitudeDegrees>
            </Position>
            <AltitudeMeters>832.5999755859375</AltitudeMeters>
            <DistanceMeters>20041.086812508</DistanceMeters>
          </Trackpoint>
          <Trackpoint>
            <Time>2020-09-13T08:47:04.000Z</Time>
            <Position>
              <LatitudeDegrees>41.12679370678961277008056640625</LatitudeDegrees>
              <LongitudeDegrees>-4.30882302112877368927001953125</LongitudeDegrees>
            </Position>
            <AltitudeMeters>832.79998779296875</AltitudeMeters>
            <DistanceMeters>20042.869671703</DistanceMeters>
          </Trackpoint>
          <Trackpoint>
            <Time>2020-09-13T08:47:06.000Z</Time>
            <Position>
              <LatitudeDegrees>41.1267961375415325164794921875</LatitudeDegrees>
              <LongitudeDegrees>-4.30885604582726955413818359375</LongitudeDegrees>
            </Position>
            <AltitudeMeters>832.79998779296875</AltitudeMeters>
            <DistanceMeters>20045.653159729</DistanceMeters>
          </Trackpoint>
          <Trackpoint>
            <Time>2020-09-13T08:47:07.000Z</Time>
            <Position>
              <LatitudeDegrees>41.126802675426006317138671875</LatitudeDegrees>
              <LongitudeDegrees>-4.30887280963361263275146484375</LongitudeDegrees>
            </Position>
            <AltitudeMeters>833</AltitudeMeters>
            <DistanceMeters>20047.237571686</DistanceMeters>
          </Trackpoint>
          <Trackpoint>
            <Time>2020-09-13T08:47:09.000Z</Time>
            <Position>
              <LatitudeDegrees>41.126816086471080780029296875</LatitudeDegrees>
              <LongitudeDegrees>-4.3089092709124088287353515625</LongitudeDegrees>
            </Position>
            <AltitudeMeters>833.20001220703125</AltitudeMeters>
            <DistanceMeters>20050.640005815</DistanceMeters>
          </Trackpoint>
          <Trackpoint>
            <Time>2020-09-13T08:47:11.000Z</Time>
            <Position>
              <LatitudeDegrees>41.12682220526039600372314453125</LatitudeDegrees>
              <LongitudeDegrees>-4.30894858203828334808349609375</LongitudeDegrees>
            </Position>
            <AltitudeMeters>833.4000244140625</AltitudeMeters>
            <DistanceMeters>20054.00507875</DistanceMeters>
          </Trackpoint>
          <Trackpoint>
            <Time>2020-09-13T08:47:16.000Z</Time>
            <Position>
              <LatitudeDegrees>41.12682220526039600372314453125</LatitudeDegrees>
              <LongitudeDegrees>-4.3090306408703327178955078125</LongitudeDegrees>
            </Position>
            <AltitudeMeters>833.5999755859375</AltitudeMeters>
            <DistanceMeters>20060.884514094</DistanceMeters>
          </Trackpoint>
          <Trackpoint>
            <Time>2020-09-13T08:47:23.000Z</Time>
            <Position>
              <LatitudeDegrees>41.12684793770313262939453125</LatitudeDegrees>
              <LongitudeDegrees>-4.3091015517711639404296875</LongitudeDegrees>
            </Position>
            <AltitudeMeters>834.4000244140625</AltitudeMeters>
            <DistanceMeters>20067.483228257</DistanceMeters>
          </Trackpoint>
          <Trackpoint>
            <Time>2020-09-13T08:47:31.000Z</Time>
            <Position>
              <LatitudeDegrees>41.12688037566840648651123046875</LatitudeDegrees>
              <LongitudeDegrees>-4.30917958728969097137451171875</LongitudeDegrees>
            </Position>
            <AltitudeMeters>836</AltitudeMeters>
            <DistanceMeters>20074.955978269</DistanceMeters>
          </Trackpoint>
          <Trackpoint>
            <Time>2020-09-13T08:47:35.000Z</Time>
            <Position>
              <LatitudeDegrees>41.12689554691314697265625</LatitudeDegrees>
              <LongitudeDegrees>-4.30920280516147613525390625</LongitudeDegrees>
            </Position>
            <AltitudeMeters>836.79998779296875</AltitudeMeters>
            <DistanceMeters>20077.535739176</DistanceMeters>
          </Trackpoint>
          <Trackpoint>
            <Time>2020-09-13T08:47:36.000Z</Time>
            <Position>
              <LatitudeDegrees>41.12689730711281299591064453125</LatitudeDegrees>
              <LongitudeDegrees>-4.30920473299920558929443359375</LongitudeDegrees>
            </Position>
            <AltitudeMeters>836.79998779296875</AltitudeMeters>
            <DistanceMeters>20077.804515312</DistanceMeters>
          </Trackpoint>
          <Trackpoint>
            <Time>2020-09-13T08:47:37.000Z</Time>
            <Position>
              <LatitudeDegrees>41.12689848057925701141357421875</LatitudeDegrees>
              <LongitudeDegrees>-4.309205152094364166259765625</LongitudeDegrees>
            </Position>
            <AltitudeMeters>836.79998779296875</AltitudeMeters>
            <DistanceMeters>20077.938903381</DistanceMeters>
          </Trackpoint>
          <Trackpoint>
            <Time>2020-09-13T08:47:39.000Z</Time>
            <Position>
              <LatitudeDegrees>41.12690065987408161163330078125</LatitudeDegrees>
              <LongitudeDegrees>-4.30920523591339588165283203125</LongitudeDegrees>
            </Position>
            <AltitudeMeters>836.79998779296875</AltitudeMeters>
            <DistanceMeters>20078.190320435</DistanceMeters>
          </Trackpoint>
          <Trackpoint>
            <Time>2020-09-13T08:47:41.000Z</Time>
            <Position>
              <LatitudeDegrees>41.126903258264064788818359375</LatitudeDegrees>
              <LongitudeDegrees>-4.3092053197324275970458984375</LongitudeDegrees>
            </Position>
            <AltitudeMeters>837</AltitudeMeters>
            <DistanceMeters>20078.490821291</DistanceMeters>
          </Trackpoint>
          <Trackpoint>
            <Time>2020-09-13T08:47:43.000Z</Time>
            <Position>
              <LatitudeDegrees>41.12691356800496578216552734375</LatitudeDegrees>
              <LongitudeDegrees>-4.30920691229403018951416015625</LongitudeDegrees>
            </Position>
            <AltitudeMeters>837.20001220703125</AltitudeMeters>
            <DistanceMeters>20079.646871166</DistanceMeters>
          </Trackpoint>
          <Trackpoint>
            <Time>2020-09-13T08:47:47.000Z</Time>
            <Position>
              <LatitudeDegrees>41.1269144900143146514892578125</LatitudeDegrees>
              <LongitudeDegrees>-4.30920992977917194366455078125</LongitudeDegrees>
            </Position>
            <AltitudeMeters>837.20001220703125</AltitudeMeters>
            <DistanceMeters>20079.915647302</DistanceMeters>
          </Trackpoint>
          <Trackpoint>
            <Time>2020-09-13T08:48:02.000Z</Time>
            <Position>
              <LatitudeDegrees>41.1269151605665683746337890625</LatitudeDegrees>
              <LongitudeDegrees>-4.30920624174177646636962890625</LongitudeDegrees>
            </Position>
            <AltitudeMeters>837.20001220703125</AltitudeMeters>
            <DistanceMeters>20080.244829497</DistanceMeters>
          </Trackpoint>
          <Trackpoint>
            <Time>2020-09-13T08:48:12.000Z</Time>
            <Position>
              <LatitudeDegrees>41.12691775895655155181884765625</LatitudeDegrees>
              <LongitudeDegrees>-4.30919869802892208099365234375</LongitudeDegrees>
            </Position>
            <AltitudeMeters>837.20001220703125</AltitudeMeters>
            <DistanceMeters>20080.93663442</DistanceMeters>
          </Trackpoint>
          <Trackpoint>
            <Time>2020-09-13T08:48:31.000Z</Time>
            <Position>
              <LatitudeDegrees>41.12691658549010753631591796875</LatitudeDegrees>
              <LongitudeDegrees>-4.309193752706050872802734375</LongitudeDegrees>
            </Position>
            <AltitudeMeters>837</AltitudeMeters>
            <DistanceMeters>20081.372101532</DistanceMeters>
          </Trackpoint>
          <Trackpoint>
            <Time>2020-09-13T08:48:33.000Z</Time>
            <Position>
              <LatitudeDegrees>41.1269161663949489593505859375</LatitudeDegrees>
              <LongitudeDegrees>-4.309193752706050872802734375</LongitudeDegrees>
            </Position>
            <AltitudeMeters>837</AltitudeMeters>
            <DistanceMeters>20081.372101532</DistanceMeters>
          </Trackpoint>
          <Trackpoint>
            <Time>2020-09-13T08:48:40.000Z</Time>
            <Position>
              <LatitudeDegrees>41.1269121430814266204833984375</LatitudeDegrees>
              <LongitudeDegrees>-4.309174977242946624755859375</LongitudeDegrees>
            </Position>
            <AltitudeMeters>836.79998779296875</AltitudeMeters>
            <DistanceMeters>20083.009762273</DistanceMeters>
          </Trackpoint>
          <Trackpoint>
            <Time>2020-09-13T08:48:41.000Z</Time>
            <Position>
              <LatitudeDegrees>41.126911304891109466552734375</LatitudeDegrees>
              <LongitudeDegrees>-4.30916852317750453948974609375</LongitudeDegrees>
            </Position>
            <AltitudeMeters>836.5999755859375</AltitudeMeters>
            <DistanceMeters>20083.555649187</DistanceMeters>
          </Trackpoint>
          <Trackpoint>
            <Time>2020-09-13T08:48:43.000Z</Time>
            <Position>
              <LatitudeDegrees>41.1269104667007923126220703125</LatitudeDegrees>
              <LongitudeDegrees>-4.30916433222591876983642578125</LongitudeDegrees>
            </Position>
            <AltitudeMeters>836.5999755859375</AltitudeMeters>
            <DistanceMeters>20083.911206595</DistanceMeters>
          </Trackpoint>
          <Trackpoint>
            <Time>2020-09-13T08:48:55.000Z</Time>
            <Position>
              <LatitudeDegrees>41.126909963786602020263671875</LatitudeDegrees>
              <LongitudeDegrees>-4.30915595032274723052978515625</LongitudeDegrees>
            </Position>
            <AltitudeMeters>836.4000244140625</AltitudeMeters>
            <DistanceMeters>20084.609507481</DistanceMeters>
          </Trackpoint>
          <Trackpoint>
            <Time>2020-09-13T08:48:56.000Z</Time>
            <Position>
              <LatitudeDegrees>41.126909963786602020263671875</LatitudeDegrees>
              <LongitudeDegrees>-4.30915527977049350738525390625</LongitudeDegrees>
            </Position>
            <AltitudeMeters>836.4000244140625</AltitudeMeters>
            <DistanceMeters>20084.743895549</DistanceMeters>
          </Trackpoint>
          <Trackpoint>
            <Time>2020-09-13T08:49:04.000Z</Time>
            <Position>
              <LatitudeDegrees>41.1269148252904415130615234375</LatitudeDegrees>
              <LongitudeDegrees>-4.30914840660989284515380859375</LongitudeDegrees>
            </Position>
            <AltitudeMeters>836.4000244140625</AltitudeMeters>
            <DistanceMeters>20085.538946083</DistanceMeters>
          </Trackpoint>
          <Trackpoint>
            <Time>2020-09-13T08:49:09.000Z</Time>
            <Position>
              <LatitudeDegrees>41.12691809423267841339111328125</LatitudeDegrees>
              <LongitudeDegrees>-4.30914220400154590606689453125</LongitudeDegrees>
            </Position>
            <AltitudeMeters>836.4000244140625</AltitudeMeters>
            <DistanceMeters>20086.169281996</DistanceMeters>
          </Trackpoint>
          <Trackpoint>
            <Time>2020-09-13T08:49:27.000Z</Time>
            <Position>
              <LatitudeDegrees>41.1269228719174861907958984375</LatitudeDegrees>
              <LongitudeDegrees>-4.3091453053057193756103515625</LongitudeDegrees>
            </Position>
            <AltitudeMeters>836.5999755859375</AltitudeMeters>
            <DistanceMeters>20086.770283708</DistanceMeters>
          </Trackpoint>
          <Trackpoint>
            <Time>2020-09-13T08:49:38.000Z</Time>
            <Position>
              <LatitudeDegrees>41.12692630849778652191162109375</LatitudeDegrees>
              <LongitudeDegrees>-4.30915645323693752288818359375</LongitudeDegrees>
            </Position>
            <AltitudeMeters>836.79998779296875</AltitudeMeters>
            <DistanceMeters>20087.780431538</DistanceMeters>
          </Trackpoint>
          <Trackpoint>
            <Time>2020-09-13T08:49:49.000Z</Time>
            <Position>
              <LatitudeDegrees>41.12692773342132568359375</LatitudeDegrees>
              <LongitudeDegrees>-4.3091513402760028839111328125</LongitudeDegrees>
            </Position>
            <AltitudeMeters>836.79998779296875</AltitudeMeters>
            <DistanceMeters>20088.23616365</DistanceMeters>
          </Trackpoint>
          <Trackpoint>
            <Time>2020-09-13T08:56:13.000Z</Time>
            <Position>
              <LatitudeDegrees>41.12692530266940593719482421875</LatitudeDegrees>
              <LongitudeDegrees>-4.30919341742992401123046875</LongitudeDegrees>
            </Position>
            <AltitudeMeters>837.20001220703125</AltitudeMeters>
            <DistanceMeters>20091.773915189</DistanceMeters>
          </Trackpoint>
          <Trackpoint>
            <Time>2020-09-13T08:56:14.000Z</Time>
            <Position>
              <LatitudeDegrees>41.12692530266940593719482421875</LatitudeDegrees>
              <LongitudeDegrees>-4.30919341742992401123046875</LongitudeDegrees>
            </Position>
            <AltitudeMeters>837.20001220703125</AltitudeMeters>
            <DistanceMeters>20091.773915189</DistanceMeters>
          </Trackpoint>
          <Trackpoint>
            <Time>2020-09-13T08:56:19.000Z</Time>
            <Position>
              <LatitudeDegrees>41.1269265599548816680908203125</LatitudeDegrees>
              <LongitudeDegrees>-4.3092009611427783966064453125</LongitudeDegrees>
            </Position>
            <AltitudeMeters>837.4000244140625</AltitudeMeters>
            <DistanceMeters>20092.418417723</DistanceMeters>
          </Trackpoint>
          <Trackpoint>
            <Time>2020-09-13T08:56:23.000Z</Time>
            <Position>
              <LatitudeDegrees>41.12691675312817096710205078125</LatitudeDegrees>
              <LongitudeDegrees>-4.30927966721355915069580078125</LongitudeDegrees>
            </Position>
            <AltitudeMeters>838</AltitudeMeters>
            <DistanceMeters>20099.10684046</DistanceMeters>
          </Trackpoint>
          <Trackpoint>
            <Time>2020-09-13T08:56:32.000Z</Time>
            <Position>
              <LatitudeDegrees>41.12688356079161167144775390625</LatitudeDegrees>
              <LongitudeDegrees>-4.30942987091839313507080078125</LongitudeDegrees>
            </Position>
            <AltitudeMeters>839.20001220703125</AltitudeMeters>
            <DistanceMeters>20112.230163893</DistanceMeters>
          </Trackpoint>
          <Trackpoint>
            <Time>2020-09-13T08:56:42.000Z</Time>
            <Position>
              <LatitudeDegrees>41.12688154913485050201416015625</LatitudeDegrees>
              <LongitudeDegrees>-4.30957001633942127227783203125</LongitudeDegrees>
            </Position>
            <AltitudeMeters>839.4000244140625</AltitudeMeters>
            <DistanceMeters>20123.982014349</DistanceMeters>
          </Trackpoint>
          <Trackpoint>
            <Time>2020-09-13T08:56:44.000Z</Time>
            <Position>
              <LatitudeDegrees>41.1268913559615612030029296875</LatitudeDegrees>
              <LongitudeDegrees>-4.30959348566830158233642578125</LongitudeDegrees>
            </Position>
            <AltitudeMeters>839.4000244140625</AltitudeMeters>
            <DistanceMeters>20126.234768877</DistanceMeters>
          </Trackpoint>
          <Trackpoint>
            <Time>2020-09-13T08:56:46.000Z</Time>
            <Position>
              <LatitudeDegrees>41.1268994025886058807373046875</LatitudeDegrees>
              <LongitudeDegrees>-4.309613518416881561279296875</LongitudeDegrees>
            </Position>
            <AltitudeMeters>839.5999755859375</AltitudeMeters>
            <DistanceMeters>20128.137677349</DistanceMeters>
          </Trackpoint>
          <Trackpoint>
            <Time>2020-09-13T08:56:47.000Z</Time>
            <Position>
              <LatitudeDegrees>41.12690367735922336578369140625</LatitudeDegrees>
              <LongitudeDegrees>-4.30962382815778255462646484375</LongitudeDegrees>
            </Position>
            <AltitudeMeters>839.5999755859375</AltitudeMeters>
            <DistanceMeters>20129.125223933</DistanceMeters>
          </Trackpoint>
          <Trackpoint>
            <Time>2020-09-13T08:56:48.000Z</Time>
            <Position>
              <LatitudeDegrees>41.1269091255962848663330078125</LatitudeDegrees>
              <LongitudeDegrees>-4.309638999402523040771484375</LongitudeDegrees>
            </Position>
            <AltitudeMeters>839.79998779296875</AltitudeMeters>
            <DistanceMeters>20130.534697884</DistanceMeters>
          </Trackpoint>
          <Trackpoint>
            <Time>2020-09-13T08:56:49.000Z</Time>
            <Position>
              <LatitudeDegrees>41.12691440619528293609619140625</LatitudeDegrees>
              <LongitudeDegrees>-4.3096539191901683807373046875</LongitudeDegrees>
            </Position>
            <AltitudeMeters>839.79998779296875</AltitudeMeters>
            <DistanceMeters>20131.911765803</DistanceMeters>
          </Trackpoint>
          <Trackpoint>
            <Time>2020-09-13T08:56:50.000Z</Time>
            <Position>
              <LatitudeDegrees>41.12692111171782016754150390625</LatitudeDegrees>
              <LongitudeDegrees>-4.30966607294976711273193359375</LongitudeDegrees>
            </Position>
            <AltitudeMeters>840</AltitudeMeters>
            <DistanceMeters>20133.17601401</DistanceMeters>
          </Trackpoint>
          <Trackpoint>
            <Time>2020-09-13T08:56:54.000Z</Time>
            <Position>
              <LatitudeDegrees>41.1269399709999561309814453125</LatitudeDegrees>
              <LongitudeDegrees>-4.30971988476812839508056640625</LongitudeDegrees>
            </Position>
            <AltitudeMeters>840.20001220703125</AltitudeMeters>
            <DistanceMeters>20138.15200332</DistanceMeters>
          </Trackpoint>
          <Trackpoint>
            <Time>2020-09-13T08:56:57.000Z</Time>
            <Position>
              <LatitudeDegrees>41.126952879130840301513671875</LatitudeDegrees>
              <LongitudeDegrees>-4.309761039912700653076171875</LongitudeDegrees>
            </Position>
            <AltitudeMeters>840.4000244140625</AltitudeMeters>
            <DistanceMeters>20141.889586531</DistanceMeters>
          </Trackpoint>
          <Trackpoint>
            <Time>2020-09-13T08:56:58.000Z</Time>
            <Position>
              <LatitudeDegrees>41.1269580759108066558837890625</LatitudeDegrees>
              <LongitudeDegrees>-4.30977411568164825439453125</LongitudeDegrees>
            </Position>
            <AltitudeMeters>840.4000244140625</AltitudeMeters>
            <DistanceMeters>20143.124933818</DistanceMeters>
          </Trackpoint>
          <Trackpoint>
            <Time>2020-09-13T08:56:59.000Z</Time>
            <Position>
              <LatitudeDegrees>41.12696436233818531036376953125</LatitudeDegrees>
              <LongitudeDegrees>-4.309789203107357025146484375</LongitudeDegrees>
            </Position>
            <AltitudeMeters>840.5999755859375</AltitudeMeters>
            <DistanceMeters>20144.566085296</DistanceMeters>
          </Trackpoint>
          <Trackpoint>
            <Time>2020-09-13T08:57:00.000Z</Time>
            <Position>
              <LatitudeDegrees>41.12697006203234195709228515625</LatitudeDegrees>
              <LongitudeDegrees>-4.3098011054098606109619140625</LongitudeDegrees>
            </Position>
            <AltitudeMeters>840.5999755859375</AltitudeMeters>
            <DistanceMeters>20145.745335809</DistanceMeters>
          </Trackpoint>
          <Trackpoint>
            <Time>2020-09-13T08:57:02.000Z</Time>
            <Position>
              <LatitudeDegrees>41.12698338925838470458984375</LatitudeDegrees>
              <LongitudeDegrees>-4.309824407100677490234375</LongitudeDegrees>
            </Position>
            <AltitudeMeters>840.79998779296875</AltitudeMeters>
            <DistanceMeters>20148.201367377</DistanceMeters>
          </Trackpoint>
          <Trackpoint>
            <Time>2020-09-13T08:57:04.000Z</Time>
            <Position>
              <LatitudeDegrees>41.1269996501505374908447265625</LatitudeDegrees>
              <LongitudeDegrees>-4.309845529496669769287109375</LongitudeDegrees>
            </Position>
            <AltitudeMeters>841</AltitudeMeters>
            <DistanceMeters>20150.733432596</DistanceMeters>
          </Trackpoint>
          <Trackpoint>
            <Time>2020-09-13T08:57:09.000Z</Time>
            <Position>
              <LatitudeDegrees>41.1270328424870967864990234375</LatitudeDegrees>
              <LongitudeDegrees>-4.30990646593272686004638671875</LongitudeDegrees>
            </Position>
            <AltitudeMeters>841.4000244140625</AltitudeMeters>
            <DistanceMeters>20157.038224148</DistanceMeters>
          </Trackpoint>
          <Trackpoint>
            <Time>2020-09-13T08:57:12.000Z</Time>
            <Position>
              <LatitudeDegrees>41.1270506121218204498291015625</LatitudeDegrees>
              <LongitudeDegrees>-4.30994636379182338714599609375</LongitudeDegrees>
            </Position>
            <AltitudeMeters>841.4000244140625</AltitudeMeters>
            <DistanceMeters>20160.923875678</DistanceMeters>
          </Trackpoint>
          <Trackpoint>
            <Time>2020-09-13T08:57:13.000Z</Time>
            <Position>
              <LatitudeDegrees>41.1270578205585479736328125</LatitudeDegrees>
              <LongitudeDegrees>-4.30996052920818328857421875</LongitudeDegrees>
            </Position>
            <AltitudeMeters>841.5999755859375</AltitudeMeters>
            <DistanceMeters>20162.358747599</DistanceMeters>
          </Trackpoint>
          <Trackpoint>
            <Time>2020-09-13T08:57:15.000Z</Time>
            <Position>
              <LatitudeDegrees>41.1270724050700664520263671875</LatitudeDegrees>
              <LongitudeDegrees>-4.30998676456511020660400390625</LongitudeDegrees>
            </Position>
            <AltitudeMeters>841.5999755859375</AltitudeMeters>
            <DistanceMeters>20165.093140273</DistanceMeters>
          </Trackpoint>
          <Trackpoint>
            <Time>2020-09-13T08:57:24.000Z</Time>
            <Position>
              <LatitudeDegrees>41.127135939896106719970703125</LatitudeDegrees>
              <LongitudeDegrees>-4.31008868850767612457275390625</LongitudeDegrees>
            </Position>
            <AltitudeMeters>842.4000244140625</AltitudeMeters>
            <DistanceMeters>20176.184838135</DistanceMeters>
          </Trackpoint>
          <Trackpoint>
            <Time>2020-09-13T08:57:25.000Z</Time>
            <Position>
              <LatitudeDegrees>41.127141974866390228271484375</LatitudeDegrees>
              <LongitudeDegrees>-4.31010193191468715667724609375</LongitudeDegrees>
            </Position>
            <AltitudeMeters>842.4000244140625</AltitudeMeters>
            <DistanceMeters>20177.48430891</DistanceMeters>
          </Trackpoint>
          <Trackpoint>
            <Time>2020-09-13T08:57:31.000Z</Time>
            <Position>
              <LatitudeDegrees>41.12716083414852619171142578125</LatitudeDegrees>
              <LongitudeDegrees>-4.3101635389029979705810546875</LongitudeDegrees>
            </Position>
            <AltitudeMeters>842.5999755859375</AltitudeMeters>
            <DistanceMeters>20183.059389459</DistanceMeters>
          </Trackpoint>
          <Trackpoint>
            <Time>2020-09-13T08:57:38.000Z</Time>
            <Position>
              <LatitudeDegrees>41.12716586329042911529541015625</LatitudeDegrees>
              <LongitudeDegrees>-4.3101974017918109893798828125</LongitudeDegrees>
            </Position>
            <AltitudeMeters>842.4000244140625</AltitudeMeters>
            <DistanceMeters>20185.954197041</DistanceMeters>
          </Trackpoint>
          <Trackpoint>
            <Time>2020-09-13T08:57:46.000Z</Time>
            <Position>
              <LatitudeDegrees>41.12719721160829067230224609375</LatitudeDegrees>
              <LongitudeDegrees>-4.31029253639280796051025390625</LongitudeDegrees>
            </Position>
            <AltitudeMeters>842.5999755859375</AltitudeMeters>
            <DistanceMeters>20194.660428239</DistanceMeters>
          </Trackpoint>
          <Trackpoint>
            <Time>2020-09-13T08:57:55.000Z</Time>
            <Position>
              <LatitudeDegrees>41.12722872756421566009521484375</LatitudeDegrees>
              <LongitudeDegrees>-4.31039529852569103240966796875</LongitudeDegrees>
            </Position>
            <AltitudeMeters>842.5999755859375</AltitudeMeters>
            <DistanceMeters>20203.962859242</DistanceMeters>
          </Trackpoint>
          <Trackpoint>
            <Time>2020-09-13T08:57:59.000Z</Time>
            <Position>
              <LatitudeDegrees>41.12724834121763706207275390625</LatitudeDegrees>
              <LongitudeDegrees>-4.3104461766779422760009765625</LongitudeDegrees>
            </Position>
            <AltitudeMeters>842.20001220703125</AltitudeMeters>
            <DistanceMeters>20208.753939947</DistanceMeters>
          </Trackpoint>
          <Trackpoint>
            <Time>2020-09-13T08:58:05.000Z</Time>
            <Position>
              <LatitudeDegrees>41.12729427404701709747314453125</LatitudeDegrees>
              <LongitudeDegrees>-4.31051432155072689056396484375</LongitudeDegrees>
            </Position>
            <AltitudeMeters>841.4000244140625</AltitudeMeters>
            <DistanceMeters>20216.421129631</DistanceMeters>
          </Trackpoint>
          <Trackpoint>
            <Time>2020-09-13T08:58:15.000Z</Time>
            <Position>
              <LatitudeDegrees>41.12736350856721401214599609375</LatitudeDegrees>
              <LongitudeDegrees>-4.31059327907860279083251953125</LongitudeDegrees>
            </Position>
            <AltitudeMeters>840</AltitudeMeters>
            <DistanceMeters>20226.580103185</DistanceMeters>
          </Trackpoint>
          <Trackpoint>
            <Time>2020-09-13T08:58:23.000Z</Time>
            <Position>
              <LatitudeDegrees>41.127424947917461395263671875</LatitudeDegrees>
              <LongitudeDegrees>-4.31064105592668056488037109375</LongitudeDegrees>
            </Position>
            <AltitudeMeters>839.20001220703125</AltitudeMeters>
            <DistanceMeters>20234.504442375</DistanceMeters>
          </Trackpoint>
          <Trackpoint>
            <Time>2020-09-13T08:58:27.000Z</Time>
            <Position>
              <LatitudeDegrees>41.1274628341197967529296875</LatitudeDegrees>
              <LongitudeDegrees>-4.310644157230854034423828125</LongitudeDegrees>
            </Position>
            <AltitudeMeters>839</AltitudeMeters>
            <DistanceMeters>20238.728590934</DistanceMeters>
          </Trackpoint>
          <Trackpoint>
            <Time>2020-09-13T08:58:35.000Z</Time>
            <Position>
              <LatitudeDegrees>41.12753994762897491455078125</LatitudeDegrees>
              <LongitudeDegrees>-4.31062194518744945526123046875</LongitudeDegrees>
            </Position>
            <AltitudeMeters>838.79998779296875</AltitudeMeters>
            <DistanceMeters>20247.511239338</DistanceMeters>
          </Trackpoint>
          <Trackpoint>
            <Time>2020-09-13T08:58:40.000Z</Time>
            <Position>
              <LatitudeDegrees>41.12759065814316272735595703125</LatitudeDegrees>
              <LongitudeDegrees>-4.3105930276215076446533203125</LongitudeDegrees>
            </Position>
            <AltitudeMeters>839</AltitudeMeters>
            <DistanceMeters>20253.654993853</DistanceMeters>
          </Trackpoint>
          <Trackpoint>
            <Time>2020-09-13T08:58:49.000Z</Time>
            <Position>
              <LatitudeDegrees>41.1276648379862308502197265625</LatitudeDegrees>
              <LongitudeDegrees>-4.31056293658912181854248046875</LongitudeDegrees>
            </Position>
            <AltitudeMeters>839</AltitudeMeters>
            <DistanceMeters>20262.287792987</DistanceMeters>
          </Trackpoint>
          <Trackpoint>
            <Time>2020-09-13T08:58:59.000Z</Time>
            <Position>
              <LatitudeDegrees>41.12775527872145175933837890625</LatitudeDegrees>
              <LongitudeDegrees>-4.31050158105790615081787109375</LongitudeDegrees>
            </Position>
            <AltitudeMeters>839.20001220703125</AltitudeMeters>
            <DistanceMeters>20273.591978573</DistanceMeters>
          </Trackpoint>
          <Trackpoint>
            <Time>2020-09-13T08:59:09.000Z</Time>
            <Position>
              <LatitudeDegrees>41.127830632030963897705078125</LatitudeDegrees>
              <LongitudeDegrees>-4.310398399829864501953125</LongitudeDegrees>
            </Position>
            <AltitudeMeters>840.20001220703125</AltitudeMeters>
            <DistanceMeters>20285.640526573</DistanceMeters>
          </Trackpoint>
          <Trackpoint>
            <Time>2020-09-13T08:59:20.000Z</Time>
            <Position>
              <LatitudeDegrees>41.12791403196752071380615234375</LatitudeDegrees>
              <LongitudeDegrees>-4.310260601341724395751953125</LongitudeDegrees>
            </Position>
            <AltitudeMeters>841.4000244140625</AltitudeMeters>
            <DistanceMeters>20300.460429382</DistanceMeters>
          </Trackpoint>
          <Trackpoint>
            <Time>2020-09-13T08:59:25.000Z</Time>
            <Position>
              <LatitudeDegrees>41.1279474757611751556396484375</LatitudeDegrees>
              <LongitudeDegrees>-4.3101943843066692352294921875</LongitudeDegrees>
            </Position>
            <AltitudeMeters>842</AltitudeMeters>
            <DistanceMeters>20307.144125079</DistanceMeters>
          </Trackpoint>
          <Trackpoint>
            <Time>2020-09-13T08:59:30.000Z</Time>
            <Position>
              <LatitudeDegrees>41.1279742978513240814208984375</LatitudeDegrees>
              <LongitudeDegrees>-4.31013344787061214447021484375</LongitudeDegrees>
            </Position>
            <AltitudeMeters>842.5999755859375</AltitudeMeters>
            <DistanceMeters>20313.060253568</DistanceMeters>
          </Trackpoint>
          <Trackpoint>
            <Time>2020-09-13T08:59:34.000Z</Time>
            <Position>
              <LatitudeDegrees>41.12798863090574741363525390625</LatitudeDegrees>
              <LongitudeDegrees>-4.310081899166107177734375</LongitudeDegrees>
            </Position>
            <AltitudeMeters>843.20001220703125</AltitudeMeters>
            <DistanceMeters>20317.665864229</DistanceMeters>
          </Trackpoint>
          <Trackpoint>
            <Time>2020-09-13T08:59:45.000Z</Time>
            <Position>
              <LatitudeDegrees>41.12801847048103809356689453125</LatitudeDegrees>
              <LongitudeDegrees>-4.3100046180188655853271484375</LongitudeDegrees>
            </Position>
            <AltitudeMeters>844</AltitudeMeters>
            <DistanceMeters>20324.945803697</DistanceMeters>
          </Trackpoint>
          <Trackpoint>
            <Time>2020-09-13T08:59:52.000Z</Time>
            <Position>
              <LatitudeDegrees>41.12804998643696308135986328125</LatitudeDegrees>
              <LongitudeDegrees>-4.30990160442888736724853515625</LongitudeDegrees>
            </Position>
            <AltitudeMeters>845</AltitudeMeters>
            <DistanceMeters>20334.267144563</DistanceMeters>
          </Trackpoint>
          <Trackpoint>
            <Time>2020-09-13T08:59:56.000Z</Time>
            <Position>
              <LatitudeDegrees>41.12807429395616054534912109375</LatitudeDegrees>
              <LongitudeDegrees>-4.3098185397684574127197265625</LongitudeDegrees>
            </Position>
            <AltitudeMeters>846</AltitudeMeters>
            <DistanceMeters>20341.738686076</DistanceMeters>
          </Trackpoint>
          <Trackpoint>
            <Time>2020-09-13T08:59:57.000Z</Time>
            <Position>
              <LatitudeDegrees>41.12807999365031719207763671875</LatitudeDegrees>
              <LongitudeDegrees>-4.30979582481086254119873046875</LongitudeDegrees>
            </Position>
            <AltitudeMeters>846.20001220703125</AltitudeMeters>
            <DistanceMeters>20343.750022509</DistanceMeters>
          </Trackpoint>
          <Trackpoint>
            <Time>2020-09-13T09:00:00.000Z</Time>
            <Position>
              <LatitudeDegrees>41.1281011998653411865234375</LatitudeDegrees>
              <LongitudeDegrees>-4.30972809903323650360107421875</LongitudeDegrees>
            </Position>
            <AltitudeMeters>846.79998779296875</AltitudeMeters>
            <DistanceMeters>20349.898184835</DistanceMeters>
          </Trackpoint>
          <Trackpoint>
            <Time>2020-09-13T09:00:04.000Z</Time>
            <Position>
              <LatitudeDegrees>41.12814067862927913665771484375</LatitudeDegrees>
              <LongitudeDegrees>-4.30964402854442596435546875</LongitudeDegrees>
            </Position>
            <AltitudeMeters>847.4000244140625</AltitudeMeters>
            <DistanceMeters>20358.204193746</DistanceMeters>
          </Trackpoint>
          <Trackpoint>
            <Time>2020-09-13T09:00:05.000Z</Time>
            <Position>
              <LatitudeDegrees>41.128148138523101806640625</LatitudeDegrees>
              <LongitudeDegrees>-4.30961980484426021575927734375</LongitudeDegrees>
            </Position>
            <AltitudeMeters>847.5999755859375</AltitudeMeters>
            <DistanceMeters>20360.400112875</DistanceMeters>
          </Trackpoint>
          <Trackpoint>
            <Time>2020-09-13T09:00:10.000Z</Time>
            <Position>
              <LatitudeDegrees>41.1282031238079071044921875</LatitudeDegrees>
              <LongitudeDegrees>-4.3095067329704761505126953125</LongitudeDegrees>
            </Position>
            <AltitudeMeters>848.4000244140625</AltitudeMeters>
            <DistanceMeters>20371.683910014</DistanceMeters>
          </Trackpoint>
          <Trackpoint>
            <Time>2020-09-13T09:00:19.000Z</Time>
            <Position>
              <LatitudeDegrees>41.12827562727034091949462890625</LatitudeDegrees>
              <LongitudeDegrees>-4.30931805633008480072021484375</LongitudeDegrees>
            </Position>
            <AltitudeMeters>848.5999755859375</AltitudeMeters>
            <DistanceMeters>20389.441451212</DistanceMeters>
          </Trackpoint>
          <Trackpoint>
            <Time>2020-09-13T09:00:20.000Z</Time>
            <Position>
              <LatitudeDegrees>41.12828291952610015869140625</LatitudeDegrees>
              <LongitudeDegrees>-4.30929894559085369110107421875</LongitudeDegrees>
            </Position>
            <AltitudeMeters>848.5999755859375</AltitudeMeters>
            <DistanceMeters>20391.23692811</DistanceMeters>
          </Trackpoint>
          <Trackpoint>
            <Time>2020-09-13T09:00:28.000Z</Time>
            <Position>
              <LatitudeDegrees>41.1283286847174167633056640625</LatitudeDegrees>
              <LongitudeDegrees>-4.30916734971106052398681640625</LongitudeDegrees>
            </Position>
            <AltitudeMeters>849</AltitudeMeters>
            <DistanceMeters>20403.388463405</DistanceMeters>
          </Trackpoint>
          <Trackpoint>
            <Time>2020-09-13T09:00:33.000Z</Time>
            <Position>
              <LatitudeDegrees>41.1283598653972148895263671875</LatitudeDegrees>
              <LongitudeDegrees>-4.30907648988068103790283203125</LongitudeDegrees>
            </Position>
            <AltitudeMeters>849.4000244140625</AltitudeMeters>
            <DistanceMeters>20411.759448604</DistanceMeters>
          </Trackpoint>
          <Trackpoint>
            <Time>2020-09-13T09:00:40.000Z</Time>
            <Position>
              <LatitudeDegrees>41.12841325812041759490966796875</LatitudeDegrees>
              <LongitudeDegrees>-4.3089592270553112030029296875</LongitudeDegrees>
            </Position>
            <AltitudeMeters>849.4000244140625</AltitudeMeters>
            <DistanceMeters>20423.247073996</DistanceMeters>
          </Trackpoint>
          <Trackpoint>
            <Time>2020-09-13T09:00:42.000Z</Time>
            <Position>
              <LatitudeDegrees>41.1284215562045574188232421875</LatitudeDegrees>
              <LongitudeDegrees>-4.30892863310873508453369140625</LongitudeDegrees>
            </Position>
            <AltitudeMeters>849.5999755859375</AltitudeMeters>
            <DistanceMeters>20425.971541437</DistanceMeters>
          </Trackpoint>
          <Trackpoint>
            <Time>2020-09-13T09:00:47.000Z</Time>
            <Position>
              <LatitudeDegrees>41.12843723036348819732666015625</LatitudeDegrees>
              <LongitudeDegrees>-4.30888722650706768035888671875</LongitudeDegrees>
            </Position>
            <AltitudeMeters>849.5999755859375</AltitudeMeters>
            <DistanceMeters>20429.854868318</DistanceMeters>
          </Trackpoint>
          <Trackpoint>
            <Time>2020-09-13T09:00:49.000Z</Time>
            <Position>
              <LatitudeDegrees>41.1284507252275943756103515625</LatitudeDegrees>
              <LongitudeDegrees>-4.3088546209037303924560546875</LongitudeDegrees>
            </Position>
            <AltitudeMeters>849.79998779296875</AltitudeMeters>
            <DistanceMeters>20432.973424447</DistanceMeters>
          </Trackpoint>
          <Trackpoint>
            <Time>2020-09-13T09:00:52.000Z</Time>
            <Position>
              <LatitudeDegrees>41.12847159616649150848388671875</LatitudeDegrees>
              <LongitudeDegrees>-4.3088063411414623260498046875</LongitudeDegrees>
            </Position>
            <AltitudeMeters>849.79998779296875</AltitudeMeters>
            <DistanceMeters>20437.640387526</DistanceMeters>
          </Trackpoint>
          <Trackpoint>
            <Time>2020-09-13T09:01:00.000Z</Time>
            <Position>
              <LatitudeDegrees>41.12850897945463657379150390625</LatitudeDegrees>
              <LongitudeDegrees>-4.308680780231952667236328125</LongitudeDegrees>
            </Position>
            <AltitudeMeters>850.4000244140625</AltitudeMeters>
            <DistanceMeters>20448.959341744</DistanceMeters>
          </Trackpoint>
          <Trackpoint>
            <Time>2020-09-13T09:01:08.000Z</Time>
            <Position>
              <LatitudeDegrees>41.12854418344795703887939453125</LatitudeDegrees>
              <LongitudeDegrees>-4.3085518665611743927001953125</LongitudeDegrees>
            </Position>
            <AltitudeMeters>850.4000244140625</AltitudeMeters>
            <DistanceMeters>20460.455217907</DistanceMeters>
          </Trackpoint>
          <Trackpoint>
            <Time>2020-09-13T09:01:12.000Z</Time>
            <Position>
              <LatitudeDegrees>41.12856614403426647186279296875</LatitudeDegrees>
              <LongitudeDegrees>-4.30848657153546810150146484375</LongitudeDegrees>
            </Position>
            <AltitudeMeters>850.4000244140625</AltitudeMeters>
            <DistanceMeters>20466.450191155</DistanceMeters>
          </Trackpoint>
          <Trackpoint>
            <Time>2020-09-13T09:01:19.000Z</Time>
            <Position>
              <LatitudeDegrees>41.12860344350337982177734375</LatitudeDegrees>
              <LongitudeDegrees>-4.30836302228271961212158203125</LongitudeDegrees>
            </Position>
            <AltitudeMeters>850.20001220703125</AltitudeMeters>
            <DistanceMeters>20477.608852548</DistanceMeters>
          </Trackpoint>
          <Trackpoint>
            <Time>2020-09-13T09:01:20.000Z</Time>
            <Position>
              <LatitudeDegrees>41.1286076344549655914306640625</LatitudeDegrees>
              <LongitudeDegrees>-4.30834290571510791778564453125</LongitudeDegrees>
            </Position>
            <AltitudeMeters>850.20001220703125</AltitudeMeters>
            <DistanceMeters>20479.355897435</DistanceMeters>
          </Trackpoint>
          <Trackpoint>
            <Time>2020-09-13T09:01:22.000Z</Time>
            <Position>
              <LatitudeDegrees>41.12861677072942256927490234375</LatitudeDegrees>
              <LongitudeDegrees>-4.30830535478889942169189453125</LongitudeDegrees>
            </Position>
            <AltitudeMeters>850.20001220703125</AltitudeMeters>
            <DistanceMeters>20482.664137549</DistanceMeters>
          </Trackpoint>
          <Trackpoint>
            <Time>2020-09-13T09:01:23.000Z</Time>
            <Position>
              <LatitudeDegrees>41.1286210455000400543212890625</LatitudeDegrees>
              <LongitudeDegrees>-4.30828657932579517364501953125</LongitudeDegrees>
            </Position>
            <AltitudeMeters>850.20001220703125</AltitudeMeters>
            <DistanceMeters>20484.310048523</DistanceMeters>
          </Trackpoint>
          <Trackpoint>
            <Time>2020-09-13T09:01:25.000Z</Time>
            <Position>
              <LatitudeDegrees>41.12863118760287761688232421875</LatitudeDegrees>
              <LongitudeDegrees>-4.30825221352279186248779296875</LongitudeDegrees>
            </Position>
            <AltitudeMeters>850.20001220703125</AltitudeMeters>
            <DistanceMeters>20487.403894193</DistanceMeters>
          </Trackpoint>
          <Trackpoint>
            <Time>2020-09-13T09:01:26.000Z</Time>
            <Position>
              <LatitudeDegrees>41.1286357976496219635009765625</LatitudeDegrees>
              <LongitudeDegrees>-4.308234192430973052978515625</LongitudeDegrees>
            </Position>
            <AltitudeMeters>850.20001220703125</AltitudeMeters>
            <DistanceMeters>20488.999664088</DistanceMeters>
          </Trackpoint>
          <Trackpoint>
            <Time>2020-09-13T09:01:28.000Z</Time>
            <Position>
              <LatitudeDegrees>41.12864769995212554931640625</LatitudeDegrees>
              <LongitudeDegrees>-4.30819697678089141845703125</LongitudeDegrees>
            </Position>
            <AltitudeMeters>850.20001220703125</AltitudeMeters>
            <DistanceMeters>20492.387469743</DistanceMeters>
          </Trackpoint>
          <Trackpoint>
            <Time>2020-09-13T09:01:32.000Z</Time>
            <Position>
              <LatitudeDegrees>41.12866102717816829681396484375</LatitudeDegrees>
              <LongitudeDegrees>-4.3081210367381572723388671875</LongitudeDegrees>
            </Position>
            <AltitudeMeters>850.20001220703125</AltitudeMeters>
            <DistanceMeters>20498.922931592</DistanceMeters>
          </Trackpoint>
          <Trackpoint>
            <Time>2020-09-13T09:01:36.000Z</Time>
            <Position>
              <LatitudeDegrees>41.12866739742457866668701171875</LatitudeDegrees>
              <LongitudeDegrees>-4.30806211195886135101318359375</LongitudeDegrees>
            </Position>
            <AltitudeMeters>850.20001220703125</AltitudeMeters>
            <DistanceMeters>20503.913417624</DistanceMeters>
          </Trackpoint>
          <Trackpoint>
            <Time>2020-09-13T09:01:40.000Z</Time>
            <Position>
              <LatitudeDegrees>41.12867075018584728240966796875</LatitudeDegrees>
              <LongitudeDegrees>-4.308016262948513031005859375</LongitudeDegrees>
            </Position>
            <AltitudeMeters>850.4000244140625</AltitudeMeters>
            <DistanceMeters>20507.775759697</DistanceMeters>
          </Trackpoint>
          <Trackpoint>
            <Time>2020-09-13T09:01:47.000Z</Time>
            <Position>
              <LatitudeDegrees>41.128666140139102935791015625</LatitudeDegrees>
              <LongitudeDegrees>-4.3079750239849090576171875</LongitudeDegrees>
            </Position>
            <AltitudeMeters>850.5999755859375</AltitudeMeters>
            <DistanceMeters>20511.271141425</DistanceMeters>
          </Trackpoint>
          <Trackpoint>
            <Time>2020-09-13T09:01:55.000Z</Time>
            <Position>
              <LatitudeDegrees>41.12866102717816829681396484375</LatitudeDegrees>
              <LongitudeDegrees>-4.30788491852581501007080078125</LongitudeDegrees>
            </Position>
            <AltitudeMeters>850.79998779296875</AltitudeMeters>
            <DistanceMeters>20518.845909126</DistanceMeters>
          </Trackpoint>
          <Trackpoint>
            <Time>2020-09-13T09:02:01.000Z</Time>
            <Position>
              <LatitudeDegrees>41.12865884788334369659423828125</LatitudeDegrees>
              <LongitudeDegrees>-4.30784250609576702117919921875</LongitudeDegrees>
            </Position>
            <AltitudeMeters>851</AltitudeMeters>
            <DistanceMeters>20522.409094145</DistanceMeters>
          </Trackpoint>
          <Trackpoint>
            <Time>2020-09-13T09:02:02.000Z</Time>
            <Position>
              <LatitudeDegrees>41.128659434616565704345703125</LatitudeDegrees>
              <LongitudeDegrees>-4.30784015916287899017333984375</LongitudeDegrees>
            </Position>
            <AltitudeMeters>851</AltitudeMeters>
            <DistanceMeters>20522.621580338</DistanceMeters>
          </Trackpoint>
          <Trackpoint>
            <Time>2020-09-13T09:02:04.000Z</Time>
            <Position>
              <LatitudeDegrees>41.12865717150270938873291015625</LatitudeDegrees>
              <LongitudeDegrees>-4.3078363873064517974853515625</LongitudeDegrees>
            </Position>
            <AltitudeMeters>851</AltitudeMeters>
            <DistanceMeters>20523.024744543</DistanceMeters>
          </Trackpoint>
          <Trackpoint>
            <Time>2020-09-13T09:02:08.000Z</Time>
            <Position>
              <LatitudeDegrees>41.12863806076347827911376953125</LatitudeDegrees>
              <LongitudeDegrees>-4.30782423354685306549072265625</LongitudeDegrees>
            </Position>
            <AltitudeMeters>851.20001220703125</AltitudeMeters>
            <DistanceMeters>20525.383245569</DistanceMeters>
          </Trackpoint>
          <Trackpoint>
            <Time>2020-09-13T09:02:13.000Z</Time>
            <Position>
              <LatitudeDegrees>41.12863521091639995574951171875</LatitudeDegrees>
              <LongitudeDegrees>-4.30777226574718952178955078125</LongitudeDegrees>
            </Position>
            <AltitudeMeters>851.5999755859375</AltitudeMeters>
            <DistanceMeters>20529.751374634</DistanceMeters>
          </Trackpoint>
          <Trackpoint>
            <Time>2020-09-13T09:02:21.000Z</Time>
            <Position>
              <LatitudeDegrees>41.128587685525417327880859375</LatitudeDegrees>
              <LongitudeDegrees>-4.30766983889043331146240234375</LongitudeDegrees>
            </Position>
            <AltitudeMeters>853</AltitudeMeters>
            <DistanceMeters>20539.837196918</DistanceMeters>
          </Trackpoint>
          <Trackpoint>
            <Time>2020-09-13T09:02:26.000Z</Time>
            <Position>
              <LatitudeDegrees>41.12855524756014347076416015625</LatitudeDegrees>
              <LongitudeDegrees>-4.3076020292937755584716796875</LongitudeDegrees>
            </Position>
            <AltitudeMeters>854</AltitudeMeters>
            <DistanceMeters>20546.571366792</DistanceMeters>
          </Trackpoint>
          <Trackpoint>
            <Time>2020-09-13T09:02:27.000Z</Time>
            <Position>
              <LatitudeDegrees>41.1285491287708282470703125</LatitudeDegrees>
              <LongitudeDegrees>-4.30758769623935222625732421875</LongitudeDegrees>
            </Position>
            <AltitudeMeters>854.20001220703125</AltitudeMeters>
            <DistanceMeters>20547.954976638</DistanceMeters>
          </Trackpoint>
          <Trackpoint>
            <Time>2020-09-13T09:02:28.000Z</Time>
            <Position>
              <LatitudeDegrees>41.12854334525763988494873046875</LatitudeDegrees>
              <LongitudeDegrees>-4.30757294408977031707763671875</LongitudeDegrees>
            </Position>
            <AltitudeMeters>854.4000244140625</AltitudeMeters>
            <DistanceMeters>20549.351578411</DistanceMeters>
          </Trackpoint>
          <Trackpoint>
            <Time>2020-09-13T09:02:30.000Z</Time>
            <Position>
              <LatitudeDegrees>41.12853446044027805328369140625</LatitudeDegrees>
              <LongitudeDegrees>-4.30754779838025569915771484375</LongitudeDegrees>
            </Position>
            <AltitudeMeters>854.5999755859375</AltitudeMeters>
            <DistanceMeters>20551.68118695</DistanceMeters>
          </Trackpoint>
          <Trackpoint>
            <Time>2020-09-13T09:02:32.000Z</Time>
            <Position>
              <LatitudeDegrees>41.12852565944194793701171875</LatitudeDegrees>
              <LongitudeDegrees>-4.307520724833011627197265625</LongitudeDegrees>
            </Position>
            <AltitudeMeters>855</AltitudeMeters>
            <DistanceMeters>20554.151881523</DistanceMeters>
          </Trackpoint>
          <Trackpoint>
            <Time>2020-09-13T09:02:34.000Z</Time>
            <Position>
              <LatitudeDegrees>41.12851300276815891265869140625</LatitudeDegrees>
              <LongitudeDegrees>-4.3074930645525455474853515625</LongitudeDegrees>
            </Position>
            <AltitudeMeters>855.4000244140625</AltitudeMeters>
            <DistanceMeters>20556.864723631</DistanceMeters>
          </Trackpoint>
          <Trackpoint>
            <Time>2020-09-13T09:02:36.000Z</Time>
            <Position>
              <LatitudeDegrees>41.1285035312175750732421875</LatitudeDegrees>
              <LongitudeDegrees>-4.30746247060596942901611328125</LongitudeDegrees>
            </Position>
            <AltitudeMeters>855.5999755859375</AltitudeMeters>
            <DistanceMeters>20559.636833848</DistanceMeters>
          </Trackpoint>
          <Trackpoint>
            <Time>2020-09-13T09:02:37.000Z</Time>
            <Position>
              <LatitudeDegrees>41.12849892117083072662353515625</LatitudeDegrees>
              <LongitudeDegrees>-4.307450316846370697021484375</LongitudeDegrees>
            </Position>
            <AltitudeMeters>855.79998779296875</AltitudeMeters>
            <DistanceMeters>20560.77715442</DistanceMeters>
          </Trackpoint>
          <Trackpoint>
            <Time>2020-09-13T09:02:39.000Z</Time>
            <Position>
              <LatitudeDegrees>41.12849238328635692596435546875</LatitudeDegrees>
              <LongitudeDegrees>-4.307422824203968048095703125</LongitudeDegrees>
            </Position>
            <AltitudeMeters>856.20001220703125</AltitudeMeters>
            <DistanceMeters>20563.192403762</DistanceMeters>
          </Trackpoint>
          <Trackpoint>
            <Time>2020-09-13T09:02:41.000Z</Time>
            <Position>
              <LatitudeDegrees>41.12848266027867794036865234375</LatitudeDegrees>
              <LongitudeDegrees>-4.30738787166774272918701171875</LongitudeDegrees>
            </Position>
            <AltitudeMeters>856.5999755859375</AltitudeMeters>
            <DistanceMeters>20566.316745715</DistanceMeters>
          </Trackpoint>
          <Trackpoint>
            <Time>2020-09-13T09:02:44.000Z</Time>
            <Position>
              <LatitudeDegrees>41.128483079373836517333984375</LatitudeDegrees>
              <LongitudeDegrees>-4.30734059773385524749755859375</LongitudeDegrees>
            </Position>
            <AltitudeMeters>857</AltitudeMeters>
            <DistanceMeters>20570.281763128</DistanceMeters>
          </Trackpoint>
          <Trackpoint>
            <Time>2020-09-13T09:02:46.000Z</Time>
            <Position>
              <LatitudeDegrees>41.12848182208836078643798828125</LatitudeDegrees>
              <LongitudeDegrees>-4.30732131935656070709228515625</LongitudeDegrees>
            </Position>
            <AltitudeMeters>857.20001220703125</AltitudeMeters>
            <DistanceMeters>20571.905580335</DistanceMeters>
          </Trackpoint>
          <Trackpoint>
            <Time>2020-09-13T09:02:47.000Z</Time>
            <Position>
              <LatitudeDegrees>41.12848064862191677093505859375</LatitudeDegrees>
              <LongitudeDegrees>-4.30730891413986682891845703125</LongitudeDegrees>
            </Position>
            <AltitudeMeters>857.20001220703125</AltitudeMeters>
            <DistanceMeters>20572.955184702</DistanceMeters>
          </Trackpoint>
          <Trackpoint>
            <Time>2020-09-13T09:02:48.000Z</Time>
            <Position>
              <LatitudeDegrees>41.12847863696515560150146484375</LatitudeDegrees>
              <LongitudeDegrees>-4.30729550309479236602783203125</LongitudeDegrees>
            </Position>
            <AltitudeMeters>857.4000244140625</AltitudeMeters>
            <DistanceMeters>20574.10339686</DistanceMeters>
          </Trackpoint>
          <Trackpoint>
            <Time>2020-09-13T09:02:49.000Z</Time>
            <Position>
              <LatitudeDegrees>41.1284765414893627166748046875</LatitudeDegrees>
              <LongitudeDegrees>-4.307282678782939910888671875</LongitudeDegrees>
            </Position>
            <AltitudeMeters>857.5999755859375</AltitudeMeters>
            <DistanceMeters>20575.203410607</DistanceMeters>
          </Trackpoint>
          <Trackpoint>
            <Time>2020-09-13T09:02:50.000Z</Time>
            <Position>
              <LatitudeDegrees>41.1284765414893627166748046875</LatitudeDegrees>
              <LongitudeDegrees>-4.30727035738527774810791015625</LongitudeDegrees>
            </Position>
            <AltitudeMeters>857.5999755859375</AltitudeMeters>
            <DistanceMeters>20576.235664946</DistanceMeters>
          </Trackpoint>
          <Trackpoint>
            <Time>2020-09-13T09:02:51.000Z</Time>
            <Position>
              <LatitudeDegrees>41.12847595475614070892333984375</LatitudeDegrees>
              <LongitudeDegrees>-4.30725476704537868499755859375</LongitudeDegrees>
            </Position>
            <AltitudeMeters>857.79998779296875</AltitudeMeters>
            <DistanceMeters>20577.54551781</DistanceMeters>
          </Trackpoint>
          <Trackpoint>
            <Time>2020-09-13T09:02:54.000Z</Time>
            <Position>
              <LatitudeDegrees>41.12847193144261837005615234375</LatitudeDegrees>
              <LongitudeDegrees>-4.3072050623595714569091796875</LongitudeDegrees>
            </Position>
            <AltitudeMeters>858.20001220703125</AltitudeMeters>
            <DistanceMeters>20581.736400614</DistanceMeters>
          </Trackpoint>
          <Trackpoint>
            <Time>2020-09-13T09:02:55.000Z</Time>
            <Position>
              <LatitudeDegrees>41.1284711770713329315185546875</LatitudeDegrees>
              <LongitudeDegrees>-4.3071889691054821014404296875</LongitudeDegrees>
            </Position>
            <AltitudeMeters>858.4000244140625</AltitudeMeters>
            <DistanceMeters>20583.086983985</DistanceMeters>
          </Trackpoint>
          <Trackpoint>
            <Time>2020-09-13T09:02:59.000Z</Time>
            <Position>
              <LatitudeDegrees>41.12846790812909603118896484375</LatitudeDegrees>
              <LongitudeDegrees>-4.30712820030748844146728515625</LongitudeDegrees>
            </Position>
            <AltitudeMeters>859</AltitudeMeters>
            <DistanceMeters>20588.195498537</DistanceMeters>
          </Trackpoint>
          <Trackpoint>
            <Time>2020-09-13T09:03:01.000Z</Time>
            <Position>
              <LatitudeDegrees>41.1284617893397808074951171875</LatitudeDegrees>
              <LongitudeDegrees>-4.3070987798273563385009765625</LongitudeDegrees>
            </Position>
            <AltitudeMeters>859.4000244140625</AltitudeMeters>
            <DistanceMeters>20590.754171127</DistanceMeters>
          </Trackpoint>
          <Trackpoint>
            <Time>2020-09-13T09:03:05.000Z</Time>
            <Position>
              <LatitudeDegrees>41.12845784984529018402099609375</LatitudeDegrees>
              <LongitudeDegrees>-4.30704857222735881805419921875</LongitudeDegrees>
            </Position>
            <AltitudeMeters>859.79998779296875</AltitudeMeters>
            <DistanceMeters>20594.986861957</DistanceMeters>
          </Trackpoint>
          <Trackpoint>
            <Time>2020-09-13T09:03:07.000Z</Time>
            <Position>
              <LatitudeDegrees>41.12845650874078273773193359375</LatitudeDegrees>
              <LongitudeDegrees>-4.30702225305140018463134765625</LongitudeDegrees>
            </Position>
            <AltitudeMeters>860</AltitudeMeters>
            <DistanceMeters>20597.199168769</DistanceMeters>
          </Trackpoint>
          <Trackpoint>
            <Time>2020-09-13T09:03:09.000Z</Time>
            <Position>
              <LatitudeDegrees>41.1284524016082286834716796875</LatitudeDegrees>
              <LongitudeDegrees>-4.3069985322654247283935546875</LongitudeDegrees>
            </Position>
            <AltitudeMeters>860.4000244140625</AltitudeMeters>
            <DistanceMeters>20599.241690573</DistanceMeters>
          </Trackpoint>
          <Trackpoint>
            <Time>2020-09-13T09:03:17.000Z</Time>
            <Position>
              <LatitudeDegrees>41.12843991257250308990478515625</LatitudeDegrees>
              <LongitudeDegrees>-4.30691010318696498870849609375</LongitudeDegrees>
            </Position>
            <AltitudeMeters>861</AltitudeMeters>
            <DistanceMeters>20606.784800785</DistanceMeters>
          </Trackpoint>
          <Trackpoint>
            <Time>2020-09-13T09:03:21.000Z</Time>
            <Position>
              <LatitudeDegrees>41.12842750735580921173095703125</LatitudeDegrees>
              <LongitudeDegrees>-4.30686836130917072296142578125</LongitudeDegrees>
            </Position>
            <AltitudeMeters>861.4000244140625</AltitudeMeters>
            <DistanceMeters>20610.547666696</DistanceMeters>
          </Trackpoint>
          <Trackpoint>
            <Time>2020-09-13T09:03:25.000Z</Time>
            <Position>
              <LatitudeDegrees>41.12840772606432437896728515625</LatitudeDegrees>
              <LongitudeDegrees>-4.3068205006420612335205078125</LongitudeDegrees>
            </Position>
            <AltitudeMeters>862</AltitudeMeters>
            <DistanceMeters>20615.12475937</DistanceMeters>
          </Trackpoint>
          <Trackpoint>
            <Time>2020-09-13T09:03:27.000Z</Time>
            <Position>
              <LatitudeDegrees>41.12839959561824798583984375</LatitudeDegrees>
              <LongitudeDegrees>-4.3067960254848003387451171875</LongitudeDegrees>
            </Position>
            <AltitudeMeters>862.20001220703125</AltitudeMeters>
            <DistanceMeters>20617.365456249</DistanceMeters>
          </Trackpoint>
          <Trackpoint>
            <Time>2020-09-13T09:03:28.000Z</Time>
            <Position>
              <LatitudeDegrees>41.1283947341144084930419921875</LatitudeDegrees>
              <LongitudeDegrees>-4.30678211152553558349609375</LongitudeDegrees>
            </Position>
            <AltitudeMeters>862.4000244140625</AltitudeMeters>
            <DistanceMeters>20618.654461317</DistanceMeters>
          </Trackpoint>
          <Trackpoint>
            <Time>2020-09-13T09:03:29.000Z</Time>
            <Position>
              <LatitudeDegrees>41.12839029170572757720947265625</LatitudeDegrees>
              <LongitudeDegrees>-4.30677272379398345947265625</LongitudeDegrees>
            </Position>
            <AltitudeMeters>862.4000244140625</AltitudeMeters>
            <DistanceMeters>20619.590365914</DistanceMeters>
          </Trackpoint>
          <Trackpoint>
            <Time>2020-09-13T09:03:30.000Z</Time>
            <Position>
              <LatitudeDegrees>41.1283843405544757843017578125</LatitudeDegrees>
              <LongitudeDegrees>-4.306760318577289581298828125</LongitudeDegrees>
            </Position>
            <AltitudeMeters>862.5999755859375</AltitudeMeters>
            <DistanceMeters>20620.825713201</DistanceMeters>
          </Trackpoint>
          <Trackpoint>
            <Time>2020-09-13T09:03:31.000Z</Time>
            <Position>
              <LatitudeDegrees>41.12837822176516056060791015625</LatitudeDegrees>
              <LongitudeDegrees>-4.30674917064607143402099609375</LongitudeDegrees>
            </Position>
            <AltitudeMeters>862.79998779296875</AltitudeMeters>
            <DistanceMeters>20621.981763076</DistanceMeters>
          </Trackpoint>
          <Trackpoint>
            <Time>2020-09-13T09:03:32.000Z</Time>
            <Position>
              <LatitudeDegrees>41.12837151624262332916259765625</LatitudeDegrees>
              <LongitudeDegrees>-4.30673659779131412506103515625</LongitudeDegrees>
            </Position>
            <AltitudeMeters>863</AltitudeMeters>
            <DistanceMeters>20623.270768144</DistanceMeters>
          </Trackpoint>
          <Trackpoint>
            <Time>2020-09-13T09:03:33.000Z</Time>
            <Position>
              <LatitudeDegrees>41.128365062177181243896484375</LatitudeDegrees>
              <LongitudeDegrees>-4.30672444403171539306640625</LongitudeDegrees>
            </Position>
            <AltitudeMeters>863.20001220703125</AltitudeMeters>
            <DistanceMeters>20624.51703182</DistanceMeters>
          </Trackpoint>
          <Trackpoint>
            <Time>2020-09-13T09:03:34.000Z</Time>
            <Position>
              <LatitudeDegrees>41.12835609354078769683837890625</LatitudeDegrees>
              <LongitudeDegrees>-4.30671161971986293792724609375</LongitudeDegrees>
            </Position>
            <AltitudeMeters>863.4000244140625</AltitudeMeters>
            <DistanceMeters>20625.983032568</DistanceMeters>
          </Trackpoint>
          <Trackpoint>
            <Time>2020-09-13T09:03:35.000Z</Time>
            <Position>
              <LatitudeDegrees>41.12835131585597991943359375</LatitudeDegrees>
              <LongitudeDegrees>-4.3067038245499134063720703125</LongitudeDegrees>
            </Position>
            <AltitudeMeters>863.4000244140625</AltitudeMeters>
            <DistanceMeters>20626.822285785</DistanceMeters>
          </Trackpoint>
          <Trackpoint>
            <Time>2020-09-13T09:03:37.000Z</Time>
            <Position>
              <LatitudeDegrees>41.128338910639286041259765625</LatitudeDegrees>
              <LongitudeDegrees>-4.30667926557362079620361328125</LongitudeDegrees>
            </Position>
            <AltitudeMeters>863.79998779296875</AltitudeMeters>
            <DistanceMeters>20629.300279325</DistanceMeters>
          </Trackpoint>
          <Trackpoint>
            <Time>2020-09-13T09:03:40.000Z</Time>
            <Position>
              <LatitudeDegrees>41.12832005135715007781982421875</LatitudeDegrees>
              <LongitudeDegrees>-4.3066464923322200775146484375</LongitudeDegrees>
            </Position>
            <AltitudeMeters>864.20001220703125</AltitudeMeters>
            <DistanceMeters>20632.757998401</DistanceMeters>
          </Trackpoint>
          <Trackpoint>
            <Time>2020-09-13T09:03:42.000Z</Time>
            <Position>
              <LatitudeDegrees>41.12830697558820247650146484375</LatitudeDegrees>
              <LongitudeDegrees>-4.306626208126544952392578125</LongitudeDegrees>
            </Position>
            <AltitudeMeters>864.4000244140625</AltitudeMeters>
            <DistanceMeters>20634.994661619</DistanceMeters>
          </Trackpoint>
          <Trackpoint>
            <Time>2020-09-13T09:03:55.000Z</Time>
            <Position>
              <LatitudeDegrees>41.1282110027968883514404296875</LatitudeDegrees>
              <LongitudeDegrees>-4.3064439855515956878662109375</LongitudeDegrees>
            </Position>
            <AltitudeMeters>866.79998779296875</AltitudeMeters>
            <DistanceMeters>20653.635647957</DistanceMeters>
          </Trackpoint>
          <Trackpoint>
            <Time>2020-09-13T09:04:12.000Z</Time>
            <Position>
              <LatitudeDegrees>41.12811905331909656524658203125</LatitudeDegrees>
              <LongitudeDegrees>-4.30620300583541393280029296875</LongitudeDegrees>
            </Position>
            <AltitudeMeters>869.4000244140625</AltitudeMeters>
            <DistanceMeters>20676.28292841</DistanceMeters>
          </Trackpoint>
          <Trackpoint>
            <Time>2020-09-13T09:04:22.000Z</Time>
            <Position>
              <LatitudeDegrees>41.1280936561524868011474609375</LatitudeDegrees>
              <LongitudeDegrees>-4.30613301694393157958984375</LongitudeDegrees>
            </Position>
            <AltitudeMeters>870</AltitudeMeters>
            <DistanceMeters>20682.796245471</DistanceMeters>
          </Trackpoint>
          <Trackpoint>
            <Time>2020-09-13T09:04:33.000Z</Time>
            <Position>
              <LatitudeDegrees>41.12806431949138641357421875</LatitudeDegrees>
              <LongitudeDegrees>-4.3060667999088764190673828125</LongitudeDegrees>
            </Position>
            <AltitudeMeters>869.79998779296875</AltitudeMeters>
            <DistanceMeters>20689.237066163</DistanceMeters>
          </Trackpoint>
          <Trackpoint>
            <Time>2020-09-13T09:04:41.000Z</Time>
            <Position>
              <LatitudeDegrees>41.1280634813010692596435546875</LatitudeDegrees>
              <LongitudeDegrees>-4.30599496699869632720947265625</LongitudeDegrees>
            </Position>
            <AltitudeMeters>869.4000244140625</AltitudeMeters>
            <DistanceMeters>20695.260590642</DistanceMeters>
          </Trackpoint>
          <Trackpoint>
            <Time>2020-09-13T09:04:48.000Z</Time>
            <Position>
              <LatitudeDegrees>41.12803456373512744903564453125</LatitudeDegrees>
              <LongitudeDegrees>-4.30590569972991943359375</LongitudeDegrees>
            </Position>
            <AltitudeMeters>869.20001220703125</AltitudeMeters>
            <DistanceMeters>20703.407988505</DistanceMeters>
          </Trackpoint>
          <Trackpoint>
            <Time>2020-09-13T09:04:55.000Z</Time>
            <Position>
              <LatitudeDegrees>41.12796516157686710357666015625</LatitudeDegrees>
              <LongitudeDegrees>-4.30572574026882648468017578125</LongitudeDegrees>
            </Position>
            <AltitudeMeters>868.5999755859375</AltitudeMeters>
            <DistanceMeters>20720.357941665</DistanceMeters>
          </Trackpoint>
          <Trackpoint>
            <Time>2020-09-13T09:04:56.000Z</Time>
            <Position>
              <LatitudeDegrees>41.12794890068471431732177734375</LatitudeDegrees>
              <LongitudeDegrees>-4.3056964874267578125</LongitudeDegrees>
            </Position>
            <AltitudeMeters>868.4000244140625</AltitudeMeters>
            <DistanceMeters>20723.404729906</DistanceMeters>
          </Trackpoint>
          <Trackpoint>
            <Time>2020-09-13T09:05:01.000Z</Time>
            <Position>
              <LatitudeDegrees>41.12784546799957752227783203125</LatitudeDegrees>
              <LongitudeDegrees>-4.30553111247718334197998046875</LongitudeDegrees>
            </Position>
            <AltitudeMeters>868.20001220703125</AltitudeMeters>
            <DistanceMeters>20741.425763984</DistanceMeters>
          </Trackpoint>
          <Trackpoint>
            <Time>2020-09-13T09:05:09.000Z</Time>
            <Position>
              <LatitudeDegrees>41.12764966674149036407470703125</LatitudeDegrees>
              <LongitudeDegrees>-4.305281750857830047607421875</LongitudeDegrees>
            </Position>
            <AltitudeMeters>870.5999755859375</AltitudeMeters>
            <DistanceMeters>20771.625128225</DistanceMeters>
          </Trackpoint>
          <Trackpoint>
            <Time>2020-09-13T09:05:10.000Z</Time>
            <Position>
              <LatitudeDegrees>41.12761949189007282257080078125</LatitudeDegrees>
              <LongitudeDegrees>-4.3052390031516551971435546875</LongitudeDegrees>
            </Position>
            <AltitudeMeters>871.20001220703125</AltitudeMeters>
            <DistanceMeters>20776.536272102</DistanceMeters>
          </Trackpoint>
          <Trackpoint>
            <Time>2020-09-13T09:05:17.000Z</Time>
            <Position>
              <LatitudeDegrees>41.1274596489965915679931640625</LatitudeDegrees>
              <LongitudeDegrees>-4.30502803064882755279541015625</LongitudeDegrees>
            </Position>
            <AltitudeMeters>873.5999755859375</AltitudeMeters>
            <DistanceMeters>20801.623324695</DistanceMeters>
          </Trackpoint>
          <Trackpoint>
            <Time>2020-09-13T09:05:20.000Z</Time>
            <Position>
              <LatitudeDegrees>41.127391755580902099609375</LatitudeDegrees>
              <LongitudeDegrees>-4.30494211614131927490234375</LongitudeDegrees>
            </Position>
            <AltitudeMeters>873.5999755859375</AltitudeMeters>
            <DistanceMeters>20812.062432058</DistanceMeters>
          </Trackpoint>
          <Trackpoint>
            <Time>2020-09-13T09:05:28.000Z</Time>
            <Position>
              <LatitudeDegrees>41.12725303508341312408447265625</LatitudeDegrees>
              <LongitudeDegrees>-4.30470205843448638916015625</LongitudeDegrees>
            </Position>
            <AltitudeMeters>873.4000244140625</AltitudeMeters>
            <DistanceMeters>20837.428691677</DistanceMeters>
          </Trackpoint>
          <Trackpoint>
            <Time>2020-09-13T09:05:37.000Z</Time>
            <Position>
              <LatitudeDegrees>41.12720106728374958038330078125</LatitudeDegrees>
              <LongitudeDegrees>-4.304373152554035186767578125</LongitudeDegrees>
            </Position>
            <AltitudeMeters>874</AltitudeMeters>
            <DistanceMeters>20865.603751929</DistanceMeters>
          </Trackpoint>
          <Trackpoint>
            <Time>2020-09-13T09:05:44.000Z</Time>
            <Position>
              <LatitudeDegrees>41.1271283961832523345947265625</LatitudeDegrees>
              <LongitudeDegrees>-4.30414709262549877166748046875</LongitudeDegrees>
            </Position>
            <AltitudeMeters>876.20001220703125</AltitudeMeters>
            <DistanceMeters>20886.209873703</DistanceMeters>
          </Trackpoint>
          <Trackpoint>
            <Time>2020-09-13T09:05:51.000Z</Time>
            <Position>
              <LatitudeDegrees>41.12710350193083286285400390625</LatitudeDegrees>
              <LongitudeDegrees>-4.30394207127392292022705078125</LongitudeDegrees>
            </Position>
            <AltitudeMeters>877.79998779296875</AltitudeMeters>
            <DistanceMeters>20903.620002249</DistanceMeters>
          </Trackpoint>
          <Trackpoint>
            <Time>2020-09-13T09:05:52.000Z</Time>
            <Position>
              <LatitudeDegrees>41.1270975507795810699462890625</LatitudeDegrees>
              <LongitudeDegrees>-4.30390519089996814727783203125</LongitudeDegrees>
            </Position>
            <AltitudeMeters>878</AltitudeMeters>
            <DistanceMeters>20906.781693983</DistanceMeters>
          </Trackpoint>
          <Trackpoint>
            <Time>2020-09-13T09:05:59.000Z</Time>
            <Position>
              <LatitudeDegrees>41.12706041894853115081787109375</LatitudeDegrees>
              <LongitudeDegrees>-4.30369044654071331024169921875</LongitudeDegrees>
            </Position>
            <AltitudeMeters>879.4000244140625</AltitudeMeters>
            <DistanceMeters>20925.253821597</DistanceMeters>
          </Trackpoint>
          <Trackpoint>
            <Time>2020-09-13T09:06:06.000Z</Time>
            <Position>
              <LatitudeDegrees>41.1269932799041271209716796875</LatitudeDegrees>
              <LongitudeDegrees>-4.3034945614635944366455078125</LongitudeDegrees>
            </Position>
            <AltitudeMeters>880.5999755859375</AltitudeMeters>
            <DistanceMeters>20943.296889961</DistanceMeters>
          </Trackpoint>
          <Trackpoint>
            <Time>2020-09-13T09:06:16.000Z</Time>
            <Position>
              <LatitudeDegrees>41.12691524438560009002685546875</LatitudeDegrees>
              <LongitudeDegrees>-4.3031703494489192962646484375</LongitudeDegrees>
            </Position>
            <AltitudeMeters>882</AltitudeMeters>
            <DistanceMeters>20971.832448712</DistanceMeters>
          </Trackpoint>
          <Trackpoint>
            <Time>2020-09-13T09:06:28.000Z</Time>
            <Position>
              <LatitudeDegrees>41.12694642506539821624755859375</LatitudeDegrees>
              <LongitudeDegrees>-4.30278427898883819580078125</LongitudeDegrees>
            </Position>
            <AltitudeMeters>882.4000244140625</AltitudeMeters>
            <DistanceMeters>21004.385583138</DistanceMeters>
          </Trackpoint>
          <Trackpoint>
            <Time>2020-09-13T09:06:36.000Z</Time>
            <Position>
              <LatitudeDegrees>41.12695631571114063262939453125</LatitudeDegrees>
              <LongitudeDegrees>-4.3025998771190643310546875</LongitudeDegrees>
            </Position>
            <AltitudeMeters>883</AltitudeMeters>
            <DistanceMeters>21019.884553864</DistanceMeters>
          </Trackpoint>
          <Trackpoint>
            <Time>2020-09-13T09:06:42.000Z</Time>
            <Position>
              <LatitudeDegrees>41.12695681862533092498779296875</LatitudeDegrees>
              <LongitudeDegrees>-4.30255620740354061126708984375</LongitudeDegrees>
            </Position>
            <AltitudeMeters>883.20001220703125</AltitudeMeters>
            <DistanceMeters>21023.547707368</DistanceMeters>
          </Trackpoint>
          <Trackpoint>
            <Time>2020-09-13T09:06:50.000Z</Time>
            <Position>
              <LatitudeDegrees>41.12697073258459568023681640625</LatitudeDegrees>
              <LongitudeDegrees>-4.30242209695279598236083984375</LongitudeDegrees>
            </Position>
            <AltitudeMeters>883.79998779296875</AltitudeMeters>
            <DistanceMeters>21034.897732502</DistanceMeters>
          </Trackpoint>
          <Trackpoint>
            <Time>2020-09-13T09:07:03.000Z</Time>
            <Position>
              <LatitudeDegrees>41.127003170549869537353515625</LatitudeDegrees>
              <LongitudeDegrees>-4.3022201769053936004638671875</LongitudeDegrees>
            </Position>
            <AltitudeMeters>884.4000244140625</AltitudeMeters>
            <DistanceMeters>21052.207207838</DistanceMeters>
          </Trackpoint>
          <Trackpoint>
            <Time>2020-09-13T09:07:11.000Z</Time>
            <Position>
              <LatitudeDegrees>41.12702672369778156280517578125</LatitudeDegrees>
              <LongitudeDegrees>-4.3020595796406269073486328125</LongitudeDegrees>
            </Position>
            <AltitudeMeters>885.4000244140625</AltitudeMeters>
            <DistanceMeters>21065.92401041</DistanceMeters>
          </Trackpoint>
          <Trackpoint>
            <Time>2020-09-13T09:07:17.000Z</Time>
            <Position>
              <LatitudeDegrees>41.12705647945404052734375</LatitudeDegrees>
              <LongitudeDegrees>-4.30180636234581470489501953125</LongitudeDegrees>
            </Position>
            <AltitudeMeters>886.79998779296875</AltitudeMeters>
            <DistanceMeters>21087.41013682</DistanceMeters>
          </Trackpoint>
          <Trackpoint>
            <Time>2020-09-13T09:07:21.000Z</Time>
            <Position>
              <LatitudeDegrees>41.12706695683300495147705078125</LatitudeDegrees>
              <LongitudeDegrees>-4.30163620971143245697021484375</LongitudeDegrees>
            </Position>
            <AltitudeMeters>887.79998779296875</AltitudeMeters>
            <DistanceMeters>21101.723254729</DistanceMeters>
          </Trackpoint>
          <Trackpoint>
            <Time>2020-09-13T09:07:27.000Z</Time>
            <Position>
              <LatitudeDegrees>41.1270801164209842681884765625</LatitudeDegrees>
              <LongitudeDegrees>-4.30142682977020740509033203125</LongitudeDegrees>
            </Position>
            <AltitudeMeters>889</AltitudeMeters>
            <DistanceMeters>21119.338347314</DistanceMeters>
          </Trackpoint>
          <Trackpoint>
            <Time>2020-09-13T09:07:36.000Z</Time>
            <Position>
              <LatitudeDegrees>41.127099059522151947021484375</LatitudeDegrees>
              <LongitudeDegrees>-4.30118300020694732666015625</LongitudeDegrees>
            </Position>
            <AltitudeMeters>891</AltitudeMeters>
            <DistanceMeters>21139.889178813</DistanceMeters>
          </Trackpoint>
          <Trackpoint>
            <Time>2020-09-13T09:07:49.000Z</Time>
            <Position>
              <LatitudeDegrees>41.1271180026233196258544921875</LatitudeDegrees>
              <LongitudeDegrees>-4.30085384286940097808837890625</LongitudeDegrees>
            </Position>
            <AltitudeMeters>892.5999755859375</AltitudeMeters>
            <DistanceMeters>21167.56594388</DistanceMeters>
          </Trackpoint>
          <Trackpoint>
            <Time>2020-09-13T09:07:56.000Z</Time>
            <Position>
              <LatitudeDegrees>41.12708589993417263031005859375</LatitudeDegrees>
              <LongitudeDegrees>-4.30068410933017730712890625</LongitudeDegrees>
            </Position>
            <AltitudeMeters>893.79998779296875</AltitudeMeters>
            <DistanceMeters>21182.237957796</DistanceMeters>
          </Trackpoint>
          <Trackpoint>
            <Time>2020-09-13T09:08:06.000Z</Time>
            <Position>
              <LatitudeDegrees>41.127045415341854095458984375</LatitudeDegrees>
              <LongitudeDegrees>-4.300451762974262237548828125</LongitudeDegrees>
            </Position>
            <AltitudeMeters>894.79998779296875</AltitudeMeters>
            <DistanceMeters>21202.23176819</DistanceMeters>
          </Trackpoint>
          <Trackpoint>
            <Time>2020-09-13T09:08:16.000Z</Time>
            <Position>
              <LatitudeDegrees>41.12703435122966766357421875</LatitudeDegrees>
              <LongitudeDegrees>-4.3001925945281982421875</LongitudeDegrees>
            </Position>
            <AltitudeMeters>895</AltitudeMeters>
            <DistanceMeters>21223.994753038</DistanceMeters>
          </Trackpoint>
          <Trackpoint>
            <Time>2020-09-13T09:08:27.000Z</Time>
            <Position>
              <LatitudeDegrees>41.12705186940729618072509765625</LatitudeDegrees>
              <LongitudeDegrees>-4.29993300698697566986083984375</LongitudeDegrees>
            </Position>
            <AltitudeMeters>895.79998779296875</AltitudeMeters>
            <DistanceMeters>21245.845112343</DistanceMeters>
          </Trackpoint>
          <Trackpoint>
            <Time>2020-09-13T09:08:37.000Z</Time>
            <Position>
              <LatitudeDegrees>41.12709143199026584625244140625</LatitudeDegrees>
              <LongitudeDegrees>-4.2997106350958347320556640625</LongitudeDegrees>
            </Position>
            <AltitudeMeters>896.5999755859375</AltitudeMeters>
            <DistanceMeters>21265.001423223</DistanceMeters>
          </Trackpoint>
          <Trackpoint>
            <Time>2020-09-13T09:08:46.000Z</Time>
            <Position>
              <LatitudeDegrees>41.12712822854518890380859375</LatitudeDegrees>
              <LongitudeDegrees>-4.29940796457231044769287109375</LongitudeDegrees>
            </Position>
            <AltitudeMeters>896.20001220703125</AltitudeMeters>
            <DistanceMeters>21290.705402936</DistanceMeters>
          </Trackpoint>
          <Trackpoint>
            <Time>2020-09-13T09:08:51.000Z</Time>
            <Position>
              <LatitudeDegrees>41.127155721187591552734375</LatitudeDegrees>
              <LongitudeDegrees>-4.29915525019168853759765625</LongitudeDegrees>
            </Position>
            <AltitudeMeters>897</AltitudeMeters>
            <DistanceMeters>21312.11237188</DistanceMeters>
          </Trackpoint>
          <Trackpoint>
            <Time>2020-09-13T09:08:59.000Z</Time>
            <Position>
              <LatitudeDegrees>41.1271758377552032470703125</LatitudeDegrees>
              <LongitudeDegrees>-4.298778735101222991943359375</LongitudeDegrees>
            </Position>
            <AltitudeMeters>898</AltitudeMeters>
            <DistanceMeters>21343.758122587</DistanceMeters>
          </Trackpoint>
          <Trackpoint>
            <Time>2020-09-13T09:09:06.000Z</Time>
            <Position>
              <LatitudeDegrees>41.12717927433550357818603515625</LatitudeDegrees>
              <LongitudeDegrees>-4.298513196408748626708984375</LongitudeDegrees>
            </Position>
            <AltitudeMeters>899.20001220703125</AltitudeMeters>
            <DistanceMeters>21366.023999101</DistanceMeters>
          </Trackpoint>
          <Trackpoint>
            <Time>2020-09-13T09:09:12.000Z</Time>
            <Position>
              <LatitudeDegrees>41.127223782241344451904296875</LatitudeDegrees>
              <LongitudeDegrees>-4.2982139624655246734619140625</LongitudeDegrees>
            </Position>
            <AltitudeMeters>900.79998779296875</AltitudeMeters>
            <DistanceMeters>21391.595544921</DistanceMeters>
          </Trackpoint>
          <Trackpoint>
            <Time>2020-09-13T09:09:19.000Z</Time>
            <Position>
              <LatitudeDegrees>41.12733081914484500885009765625</LatitudeDegrees>
              <LongitudeDegrees>-4.2978562228381633758544921875</LongitudeDegrees>
            </Position>
            <AltitudeMeters>902.4000244140625</AltitudeMeters>
            <DistanceMeters>21423.86715437</DistanceMeters>
          </Trackpoint>
          <Trackpoint>
            <Time>2020-09-13T09:09:21.000Z</Time>
            <Position>
              <LatitudeDegrees>41.1273448169231414794921875</LatitudeDegrees>
              <LongitudeDegrees>-4.29776594974100589752197265625</LongitudeDegrees>
            </Position>
            <AltitudeMeters>902.5999755859375</AltitudeMeters>
            <DistanceMeters>21431.594176141</DistanceMeters>
          </Trackpoint>
          <Trackpoint>
            <Time>2020-09-13T09:09:25.000Z</Time>
            <Position>
              <LatitudeDegrees>41.12734858877956867218017578125</LatitudeDegrees>
              <LongitudeDegrees>-4.2975799553096294403076171875</LongitudeDegrees>
            </Position>
            <AltitudeMeters>902.79998779296875</AltitudeMeters>
            <DistanceMeters>21447.193325795</DistanceMeters>
          </Trackpoint>
          <Trackpoint>
            <Time>2020-09-13T09:09:30.000Z</Time>
            <Position>
              <LatitudeDegrees>41.12732805311679840087890625</LatitudeDegrees>
              <LongitudeDegrees>-4.29741273634135723114013671875</LongitudeDegrees>
            </Position>
            <AltitudeMeters>903.20001220703125</AltitudeMeters>
            <DistanceMeters>21461.39783311</DistanceMeters>
          </Trackpoint>
          <Trackpoint>
            <Time>2020-09-13T09:09:37.000Z</Time>
            <Position>
              <LatitudeDegrees>41.12733266316354274749755859375</LatitudeDegrees>
              <LongitudeDegrees>-4.29721743799746036529541015625</LongitudeDegrees>
            </Position>
            <AltitudeMeters>903.4000244140625</AltitudeMeters>
            <DistanceMeters>21477.778851137</DistanceMeters>
          </Trackpoint>
          <Trackpoint>
            <Time>2020-09-13T09:09:47.000Z</Time>
            <Position>
              <LatitudeDegrees>41.1273392848670482635498046875</LatitudeDegrees>
              <LongitudeDegrees>-4.29695583879947662353515625</LongitudeDegrees>
            </Position>
            <AltitudeMeters>903.5999755859375</AltitudeMeters>
            <DistanceMeters>21499.723233484</DistanceMeters>
          </Trackpoint>
          <Trackpoint>
            <Time>2020-09-13T09:09:54.000Z</Time>
            <Position>
              <LatitudeDegrees>41.1273389495909214019775390625</LatitudeDegrees>
              <LongitudeDegrees>-4.29679499007761478424072265625</LongitudeDegrees>
            </Position>
            <AltitudeMeters>904.20001220703125</AltitudeMeters>
            <DistanceMeters>21513.208659303</DistanceMeters>
          </Trackpoint>
          <Trackpoint>
            <Time>2020-09-13T09:10:06.000Z</Time>
            <Position>
              <LatitudeDegrees>41.12732939422130584716796875</LatitudeDegrees>
              <LongitudeDegrees>-4.2964430339634418487548828125</LongitudeDegrees>
            </Position>
            <AltitudeMeters>905.20001220703125</AltitudeMeters>
            <DistanceMeters>21542.735066641</DistanceMeters>
          </Trackpoint>
          <Trackpoint>
            <Time>2020-09-13T09:10:18.000Z</Time>
            <Position>
              <LatitudeDegrees>41.1273013986647129058837890625</LatitudeDegrees>
              <LongitudeDegrees>-4.29611303843557834625244140625</LongitudeDegrees>
            </Position>
            <AltitudeMeters>906</AltitudeMeters>
            <DistanceMeters>21570.576110116</DistanceMeters>
          </Trackpoint>
          <Trackpoint>
            <Time>2020-09-13T09:10:26.000Z</Time>
            <Position>
              <LatitudeDegrees>41.12731740809977054595947265625</LatitudeDegrees>
              <LongitudeDegrees>-4.2958566360175609588623046875</LongitudeDegrees>
            </Position>
            <AltitudeMeters>906.5999755859375</AltitudeMeters>
            <DistanceMeters>21592.146127703</DistanceMeters>
          </Trackpoint>
          <Trackpoint>
            <Time>2020-09-13T09:10:34.000Z</Time>
            <Position>
              <LatitudeDegrees>41.1273027397692203521728515625</LatitudeDegrees>
              <LongitudeDegrees>-4.29554189555346965789794921875</LongitudeDegrees>
            </Position>
            <AltitudeMeters>907.4000244140625</AltitudeMeters>
            <DistanceMeters>21618.584055706</DistanceMeters>
          </Trackpoint>
          <Trackpoint>
            <Time>2020-09-13T09:10:43.000Z</Time>
            <Position>
              <LatitudeDegrees>41.127265356481075286865234375</LatitudeDegrees>
              <LongitudeDegrees>-4.29527543485164642333984375</LongitudeDegrees>
            </Position>
            <AltitudeMeters>908</AltitudeMeters>
            <DistanceMeters>21641.30796143</DistanceMeters>
          </Trackpoint>
          <Trackpoint>
            <Time>2020-09-13T09:10:51.000Z</Time>
            <Position>
              <LatitudeDegrees>41.12724582664668560028076171875</LatitudeDegrees>
              <LongitudeDegrees>-4.2949617840349674224853515625</LongitudeDegrees>
            </Position>
            <AltitudeMeters>908</AltitudeMeters>
            <DistanceMeters>21667.693579362</DistanceMeters>
          </Trackpoint>
          <Trackpoint>
            <Time>2020-09-13T09:11:00.000Z</Time>
            <Position>
              <LatitudeDegrees>41.127223111689090728759765625</LatitudeDegrees>
              <LongitudeDegrees>-4.29464939050376415252685546875</LongitudeDegrees>
            </Position>
            <AltitudeMeters>908</AltitudeMeters>
            <DistanceMeters>21694.005857123</DistanceMeters>
          </Trackpoint>
          <Trackpoint>
            <Time>2020-09-13T09:11:08.000Z</Time>
            <Position>
              <LatitudeDegrees>41.12719587050378322601318359375</LatitudeDegrees>
              <LongitudeDegrees>-4.2944149486720561981201171875</LongitudeDegrees>
            </Position>
            <AltitudeMeters>907.5999755859375</AltitudeMeters>
            <DistanceMeters>21713.893475086</DistanceMeters>
          </Trackpoint>
          <Trackpoint>
            <Time>2020-09-13T09:11:16.000Z</Time>
            <Position>
              <LatitudeDegrees>41.127109788358211517333984375</LatitudeDegrees>
              <LongitudeDegrees>-4.2942335642874240875244140625</LongitudeDegrees>
            </Position>
            <AltitudeMeters>907</AltitudeMeters>
            <DistanceMeters>21731.866843015</DistanceMeters>
          </Trackpoint>
          <Trackpoint>
            <Time>2020-09-13T09:11:24.000Z</Time>
            <Position>
              <LatitudeDegrees>41.12700006924569606781005859375</LatitudeDegrees>
              <LongitudeDegrees>-4.2940329015254974365234375</LongitudeDegrees>
            </Position>
            <AltitudeMeters>906.20001220703125</AltitudeMeters>
            <DistanceMeters>21752.655334987</DistanceMeters>
          </Trackpoint>
          <Trackpoint>
            <Time>2020-09-13T09:11:29.000Z</Time>
            <Position>
              <LatitudeDegrees>41.1270605027675628662109375</LatitudeDegrees>
              <LongitudeDegrees>-4.29382142610847949981689453125</LongitudeDegrees>
            </Position>
            <AltitudeMeters>906.20001220703125</AltitudeMeters>
            <DistanceMeters>21771.618105725</DistanceMeters>
          </Trackpoint>
          <Trackpoint>
            <Time>2020-09-13T09:11:36.000Z</Time>
            <Position>
              <LatitudeDegrees>41.12712646834552288055419921875</LatitudeDegrees>
              <LongitudeDegrees>-4.2935090325772762298583984375</LongitudeDegrees>
            </Position>
            <AltitudeMeters>906.20001220703125</AltitudeMeters>
            <DistanceMeters>21798.818330415</DistanceMeters>
          </Trackpoint>
          <Trackpoint>
            <Time>2020-09-13T09:11:42.000Z</Time>
            <Position>
              <LatitudeDegrees>41.12713736481964588165283203125</LatitudeDegrees>
              <LongitudeDegrees>-4.293274842202663421630859375</LongitudeDegrees>
            </Position>
            <AltitudeMeters>906</AltitudeMeters>
            <DistanceMeters>21818.490007922</DistanceMeters>
          </Trackpoint>
          <Trackpoint>
            <Time>2020-09-13T09:11:44.000Z</Time>
            <Position>
              <LatitudeDegrees>41.12712160684168338775634765625</LatitudeDegrees>
              <LongitudeDegrees>-4.29320720024406909942626953125</LongitudeDegrees>
            </Position>
            <AltitudeMeters>905.79998779296875</AltitudeMeters>
            <DistanceMeters>21824.425945783</DistanceMeters>
          </Trackpoint>
          <Trackpoint>
            <Time>2020-09-13T09:11:49.000Z</Time>
            <Position>
              <LatitudeDegrees>41.12703510560095310211181640625</LatitudeDegrees>
              <LongitudeDegrees>-4.2931023426353931427001953125</LongitudeDegrees>
            </Position>
            <AltitudeMeters>905.20001220703125</AltitudeMeters>
            <DistanceMeters>21837.463666403</DistanceMeters>
          </Trackpoint>
          <Trackpoint>
            <Time>2020-09-13T09:11:53.000Z</Time>
            <Position>
              <LatitudeDegrees>41.1269406415522098541259765625</LatitudeDegrees>
              <LongitudeDegrees>-4.29307392798364162445068359375</LongitudeDegrees>
            </Position>
            <AltitudeMeters>904.79998779296875</AltitudeMeters>
            <DistanceMeters>21848.244487982</DistanceMeters>
          </Trackpoint>
          <Trackpoint>
            <Time>2020-09-13T09:11:57.000Z</Time>
            <Position>
              <LatitudeDegrees>41.12684785388410091400146484375</LatitudeDegrees>
              <LongitudeDegrees>-4.29305548779666423797607421875</LongitudeDegrees>
            </Position>
            <AltitudeMeters>904.5999755859375</AltitudeMeters>
            <DistanceMeters>21858.686622489</DistanceMeters>
          </Trackpoint>
          <Trackpoint>
            <Time>2020-09-13T09:12:03.000Z</Time>
            <Position>
              <LatitudeDegrees>41.126759760081768035888671875</LatitudeDegrees>
              <LongitudeDegrees>-4.2930084653198719024658203125</LongitudeDegrees>
            </Position>
            <AltitudeMeters>904.5999755859375</AltitudeMeters>
            <DistanceMeters>21869.254686903</DistanceMeters>
          </Trackpoint>
          <Trackpoint>
            <Time>2020-09-13T09:12:04.000Z</Time>
            <Position>
              <LatitudeDegrees>41.1267605982720851898193359375</LatitudeDegrees>
              <LongitudeDegrees>-4.29300787858664989471435546875</LongitudeDegrees>
            </Position>
            <AltitudeMeters>904.5999755859375</AltitudeMeters>
            <DistanceMeters>21869.254686903</DistanceMeters>
          </Trackpoint>
          <Trackpoint>
            <Time>2020-09-13T09:22:45.000Z</Time>
            <Position>
              <LatitudeDegrees>41.12676654942333698272705078125</LatitudeDegrees>
              <LongitudeDegrees>-4.29303855635225772857666015625</LongitudeDegrees>
            </Position>
            <AltitudeMeters>904.5999755859375</AltitudeMeters>
            <DistanceMeters>21871.910339309</DistanceMeters>
          </Trackpoint>
          <Trackpoint>
            <Time>2020-09-13T09:22:48.000Z</Time>
            <Position>
              <LatitudeDegrees>41.12676923163235187530517578125</LatitudeDegrees>
              <LongitudeDegrees>-4.2930386401712894439697265625</LongitudeDegrees>
            </Position>
            <AltitudeMeters>904.5999755859375</AltitudeMeters>
            <DistanceMeters>21872.195419452</DistanceMeters>
          </Trackpoint>
          <Trackpoint>
            <Time>2020-09-13T09:22:54.000Z</Time>
            <Position>
              <LatitudeDegrees>41.12683410756289958953857421875</LatitudeDegrees>
              <LongitudeDegrees>-4.29297669790685176849365234375</LongitudeDegrees>
            </Position>
            <AltitudeMeters>904.79998779296875</AltitudeMeters>
            <DistanceMeters>21881.090447828</DistanceMeters>
          </Trackpoint>
          <Trackpoint>
            <Time>2020-09-13T09:22:59.000Z</Time>
            <Position>
              <LatitudeDegrees>41.12692044116556644439697265625</LatitudeDegrees>
              <LongitudeDegrees>-4.2928592674434185028076171875</LongitudeDegrees>
            </Position>
            <AltitudeMeters>905</AltitudeMeters>
            <DistanceMeters>21894.848005833</DistanceMeters>
          </Trackpoint>
          <Trackpoint>
            <Time>2020-09-13T09:23:01.000Z</Time>
            <Position>
              <LatitudeDegrees>41.12693804316222667694091796875</LatitudeDegrees>
              <LongitudeDegrees>-4.292802773416042327880859375</LongitudeDegrees>
            </Position>
            <AltitudeMeters>905.20001220703125</AltitudeMeters>
            <DistanceMeters>21899.974166429</DistanceMeters>
          </Trackpoint>
          <Trackpoint>
            <Time>2020-09-13T09:23:08.000Z</Time>
            <Position>
              <LatitudeDegrees>41.12699705176055431365966796875</LatitudeDegrees>
              <LongitudeDegrees>-4.2925605364143848419189453125</LongitudeDegrees>
            </Position>
            <AltitudeMeters>904.79998779296875</AltitudeMeters>
            <DistanceMeters>21921.318613406</DistanceMeters>
          </Trackpoint>
          <Trackpoint>
            <Time>2020-09-13T09:23:15.000Z</Time>
            <Position>
              <LatitudeDegrees>41.12704667262732982635498046875</LatitudeDegrees>
              <LongitudeDegrees>-4.2923176288604736328125</LongitudeDegrees>
            </Position>
            <AltitudeMeters>904.4000244140625</AltitudeMeters>
            <DistanceMeters>21942.419252001</DistanceMeters>
          </Trackpoint>
          <Trackpoint>
            <Time>2020-09-13T09:23:16.000Z</Time>
            <Position>
              <LatitudeDegrees>41.12706528045237064361572265625</LatitudeDegrees>
              <LongitudeDegrees>-4.29228602908551692962646484375</LongitudeDegrees>
            </Position>
            <AltitudeMeters>904.20001220703125</AltitudeMeters>
            <DistanceMeters>21945.781640395</DistanceMeters>
          </Trackpoint>
          <Trackpoint>
            <Time>2020-09-13T09:23:17.000Z</Time>
            <Position>
              <LatitudeDegrees>41.12708665430545806884765625</LatitudeDegrees>
              <LongitudeDegrees>-4.292254932224750518798828125</LongitudeDegrees>
            </Position>
            <AltitudeMeters>904.20001220703125</AltitudeMeters>
            <DistanceMeters>21949.311726157</DistanceMeters>
          </Trackpoint>
          <Trackpoint>
            <Time>2020-09-13T09:23:25.000Z</Time>
            <Position>
              <LatitudeDegrees>41.127274744212627410888671875</LatitudeDegrees>
              <LongitudeDegrees>-4.2920002900063991546630859375</LongitudeDegrees>
            </Position>
            <AltitudeMeters>904</AltitudeMeters>
            <DistanceMeters>21979.212240843</DistanceMeters>
          </Trackpoint>
          <Trackpoint>
            <Time>2020-09-13T09:23:29.000Z</Time>
            <Position>
              <LatitudeDegrees>41.1273796856403350830078125</LatitudeDegrees>
              <LongitudeDegrees>-4.29187313653528690338134765625</LongitudeDegrees>
            </Position>
            <AltitudeMeters>903.79998779296875</AltitudeMeters>
            <DistanceMeters>21995.026125156</DistanceMeters>
          </Trackpoint>
          <Trackpoint>
            <Time>2020-09-13T09:23:35.000Z</Time>
            <Position>
              <LatitudeDegrees>41.12754288129508495330810546875</LatitudeDegrees>
              <LongitudeDegrees>-4.29166157729923725128173828125</LongitudeDegrees>
            </Position>
            <AltitudeMeters>903.20001220703125</AltitudeMeters>
            <DistanceMeters>22020.413557207</DistanceMeters>
          </Trackpoint>
          <Trackpoint>
            <Time>2020-09-13T09:23:37.000Z</Time>
            <Position>
              <LatitudeDegrees>41.1276014707982540130615234375</LatitudeDegrees>
              <LongitudeDegrees>-4.29158731363713741302490234375</LongitudeDegrees>
            </Position>
            <AltitudeMeters>903</AltitudeMeters>
            <DistanceMeters>22029.4295845</DistanceMeters>
          </Trackpoint>
          <Trackpoint>
            <Time>2020-09-13T09:23:38.000Z</Time>
            <Position>
              <LatitudeDegrees>41.12763122655451297760009765625</LatitudeDegrees>
              <LongitudeDegrees>-4.2915483377873897552490234375</LongitudeDegrees>
            </Position>
            <AltitudeMeters>903</AltitudeMeters>
            <DistanceMeters>22034.081042676</DistanceMeters>
          </Trackpoint>
          <Trackpoint>
            <Time>2020-09-13T09:23:39.000Z</Time>
            <Position>
              <LatitudeDegrees>41.127660982310771942138671875</LatitudeDegrees>
              <LongitudeDegrees>-4.291510619223117828369140625</LongitudeDegrees>
            </Position>
            <AltitudeMeters>903</AltitudeMeters>
            <DistanceMeters>22038.66010781</DistanceMeters>
          </Trackpoint>
          <Trackpoint>
            <Time>2020-09-13T09:23:40.000Z</Time>
            <Position>
              <LatitudeDegrees>41.1276856251060962677001953125</LatitudeDegrees>
              <LongitudeDegrees>-4.2914812825620174407958984375</LongitudeDegrees>
            </Position>
            <AltitudeMeters>902.79998779296875</AltitudeMeters>
            <DistanceMeters>22042.344155163</DistanceMeters>
          </Trackpoint>
          <Trackpoint>
            <Time>2020-09-13T09:23:41.000Z</Time>
            <Position>
              <LatitudeDegrees>41.12772091291844844818115234375</LatitudeDegrees>
              <LongitudeDegrees>-4.2914363555610179901123046875</LongitudeDegrees>
            </Position>
            <AltitudeMeters>902.79998779296875</AltitudeMeters>
            <DistanceMeters>22047.786457133</DistanceMeters>
          </Trackpoint>
          <Trackpoint>
            <Time>2020-09-13T09:23:42.000Z</Time>
            <Position>
              <LatitudeDegrees>41.12774991430342197418212890625</LatitudeDegrees>
              <LongitudeDegrees>-4.291399307548999786376953125</LongitudeDegrees>
            </Position>
            <AltitudeMeters>902.5999755859375</AltitudeMeters>
            <DistanceMeters>22052.265835422</DistanceMeters>
          </Trackpoint>
          <Trackpoint>
            <Time>2020-09-13T09:23:43.000Z</Time>
            <Position>
              <LatitudeDegrees>41.12777941860258579254150390625</LatitudeDegrees>
              <LongitudeDegrees>-4.29136075079441070556640625</LongitudeDegrees>
            </Position>
            <AltitudeMeters>902.5999755859375</AltitudeMeters>
            <DistanceMeters>22056.874386149</DistanceMeters>
          </Trackpoint>
          <Trackpoint>
            <Time>2020-09-13T09:23:45.000Z</Time>
            <Position>
              <LatitudeDegrees>41.12783842720091342926025390625</LatitudeDegrees>
              <LongitudeDegrees>-4.29128321819007396697998046875</LongitudeDegrees>
            </Position>
            <AltitudeMeters>902.4000244140625</AltitudeMeters>
            <DistanceMeters>22066.1149707</DistanceMeters>
          </Trackpoint>
          <Trackpoint>
            <Time>2020-09-13T09:23:48.000Z</Time>
            <Position>
              <LatitudeDegrees>41.1279270239174365997314453125</LatitudeDegrees>
              <LongitudeDegrees>-4.29116201587021350860595703125</LongitudeDegrees>
            </Position>
            <AltitudeMeters>902</AltitudeMeters>
            <DistanceMeters>22080.274270019</DistanceMeters>
          </Trackpoint>
          <Trackpoint>
            <Time>2020-09-13T09:23:50.000Z</Time>
            <Position>
              <LatitudeDegrees>41.1279823444783687591552734375</LatitudeDegrees>
              <LongitudeDegrees>-4.29108406417071819305419921875</LongitudeDegrees>
            </Position>
            <AltitudeMeters>901.79998779296875</AltitudeMeters>
            <DistanceMeters>22089.253163185</DistanceMeters>
          </Trackpoint>
          <Trackpoint>
            <Time>2020-09-13T09:23:56.000Z</Time>
            <Position>
              <LatitudeDegrees>41.12816481851041316986083984375</LatitudeDegrees>
              <LongitudeDegrees>-4.2908462695777416229248046875</LongitudeDegrees>
            </Position>
            <AltitudeMeters>901.4000244140625</AltitudeMeters>
            <DistanceMeters>22117.712355311</DistanceMeters>
          </Trackpoint>
          <Trackpoint>
            <Time>2020-09-13T09:24:03.000Z</Time>
            <Position>
              <LatitudeDegrees>41.128391213715076446533203125</LatitudeDegrees>
              <LongitudeDegrees>-4.29054812528192996978759765625</LongitudeDegrees>
            </Position>
            <AltitudeMeters>901</AltitudeMeters>
            <DistanceMeters>22153.205055747</DistanceMeters>
          </Trackpoint>
          <Trackpoint>
            <Time>2020-09-13T09:24:16.000Z</Time>
            <Position>
              <LatitudeDegrees>41.12880469299852848052978515625</LatitudeDegrees>
              <LongitudeDegrees>-4.29000464268028736114501953125</LongitudeDegrees>
            </Position>
            <AltitudeMeters>900.4000244140625</AltitudeMeters>
            <DistanceMeters>22217.966023035</DistanceMeters>
          </Trackpoint>
          <Trackpoint>
            <Time>2020-09-13T09:24:29.000Z</Time>
            <Position>
              <LatitudeDegrees>41.1291876621544361114501953125</LatitudeDegrees>
              <LongitudeDegrees>-4.28948882035911083221435546875</LongitudeDegrees>
            </Position>
            <AltitudeMeters>900.5999755859375</AltitudeMeters>
            <DistanceMeters>22278.686680741</DistanceMeters>
          </Trackpoint>
          <Trackpoint>
            <Time>2020-09-13T09:24:32.000Z</Time>
            <Position>
              <LatitudeDegrees>41.12927106209099292755126953125</LatitudeDegrees>
              <LongitudeDegrees>-4.28937030024826526641845703125</LongitudeDegrees>
            </Position>
            <AltitudeMeters>901.20001220703125</AltitudeMeters>
            <DistanceMeters>22292.28446899</DistanceMeters>
          </Trackpoint>
          <Trackpoint>
            <Time>2020-09-13T09:24:36.000Z</Time>
            <Position>
              <LatitudeDegrees>41.1293861456215381622314453125</LatitudeDegrees>
              <LongitudeDegrees>-4.28920961916446685791015625</LongitudeDegrees>
            </Position>
            <AltitudeMeters>902.20001220703125</AltitudeMeters>
            <DistanceMeters>22310.873307179</DistanceMeters>
          </Trackpoint>
          <Trackpoint>
            <Time>2020-09-13T09:24:37.000Z</Time>
            <Position>
              <LatitudeDegrees>41.12941506318747997283935546875</LatitudeDegrees>
              <LongitudeDegrees>-4.2891702242195606231689453125</LongitudeDegrees>
            </Position>
            <AltitudeMeters>902.5999755859375</AltitudeMeters>
            <DistanceMeters>22315.484796095</DistanceMeters>
          </Trackpoint>
          <Trackpoint>
            <Time>2020-09-13T09:24:38.000Z</Time>
            <Position>
              <LatitudeDegrees>41.1294444836676120758056640625</LatitudeDegrees>
              <LongitudeDegrees>-4.28913208656013011932373046875</LongitudeDegrees>
            </Position>
            <AltitudeMeters>902.79998779296875</AltitudeMeters>
            <DistanceMeters>22320.061888769</DistanceMeters>
          </Trackpoint>
          <Trackpoint>
            <Time>2020-09-13T09:24:40.000Z</Time>
            <Position>
              <LatitudeDegrees>41.12950072623789310455322265625</LatitudeDegrees>
              <LongitudeDegrees>-4.2890545539557933807373046875</LongitudeDegrees>
            </Position>
            <AltitudeMeters>903.4000244140625</AltitudeMeters>
            <DistanceMeters>22329.085924971</DistanceMeters>
          </Trackpoint>
          <Trackpoint>
            <Time>2020-09-13T09:24:43.000Z</Time>
            <Position>
              <LatitudeDegrees>41.12958152778446674346923828125</LatitudeDegrees>
              <LongitudeDegrees>-4.28894600830972194671630859375</LongitudeDegrees>
            </Position>
            <AltitudeMeters>904</AltitudeMeters>
            <DistanceMeters>22341.880346638</DistanceMeters>
          </Trackpoint>
          <Trackpoint>
            <Time>2020-09-13T09:24:47.000Z</Time>
            <Position>
              <LatitudeDegrees>41.12968278117477893829345703125</LatitudeDegrees>
              <LongitudeDegrees>-4.28881592117249965667724609375</LongitudeDegrees>
            </Position>
            <AltitudeMeters>904.79998779296875</AltitudeMeters>
            <DistanceMeters>22357.562921746</DistanceMeters>
          </Trackpoint>
          <Trackpoint>
            <Time>2020-09-13T09:24:52.000Z</Time>
            <Position>
              <LatitudeDegrees>41.12980951555073261260986328125</LatitudeDegrees>
              <LongitudeDegrees>-4.28865331225097179412841796875</LongitudeDegrees>
            </Position>
            <AltitudeMeters>906</AltitudeMeters>
            <DistanceMeters>22377.179437175</DistanceMeters>
          </Trackpoint>
          <Trackpoint>
            <Time>2020-09-13T09:24:55.000Z</Time>
            <Position>
              <LatitudeDegrees>41.1298768222332000732421875</LatitudeDegrees>
              <LongitudeDegrees>-4.2885680682957172393798828125</LongitudeDegrees>
            </Position>
            <AltitudeMeters>906.20001220703125</AltitudeMeters>
            <DistanceMeters>22387.533425177</DistanceMeters>
          </Trackpoint>
          <Trackpoint>
            <Time>2020-09-13T09:24:57.000Z</Time>
            <Position>
              <LatitudeDegrees>41.1299292929470539093017578125</LatitudeDegrees>
              <LongitudeDegrees>-4.2884983308613300323486328125</LongitudeDegrees>
            </Position>
            <AltitudeMeters>906.20001220703125</AltitudeMeters>
            <DistanceMeters>22395.796925529</DistanceMeters>
          </Trackpoint>
          <Trackpoint>
            <Time>2020-09-13T09:25:03.000Z</Time>
            <Position>
              <LatitudeDegrees>41.13008536398410797119140625</LatitudeDegrees>
              <LongitudeDegrees>-4.2882928065955638885498046875</LongitudeDegrees>
            </Position>
            <AltitudeMeters>906.4000244140625</AltitudeMeters>
            <DistanceMeters>22420.263674958</DistanceMeters>
          </Trackpoint>
          <Trackpoint>
            <Time>2020-09-13T09:25:04.000Z</Time>
            <Position>
              <LatitudeDegrees>41.13011218607425689697265625</LatitudeDegrees>
              <LongitudeDegrees>-4.2882559262216091156005859375</LongitudeDegrees>
            </Position>
            <AltitudeMeters>906.5999755859375</AltitudeMeters>
            <DistanceMeters>22424.561992816</DistanceMeters>
          </Trackpoint>
          <Trackpoint>
            <Time>2020-09-13T09:25:07.000Z</Time>
            <Position>
              <LatitudeDegrees>41.13019173033535480499267578125</LatitudeDegrees>
              <LongitudeDegrees>-4.2881499789655208587646484375</LongitudeDegrees>
            </Position>
            <AltitudeMeters>906.79998779296875</AltitudeMeters>
            <DistanceMeters>22437.102639184</DistanceMeters>
          </Trackpoint>
          <Trackpoint>
            <Time>2020-09-13T09:25:17.000Z</Time>
            <Position>
              <LatitudeDegrees>41.13046129234135150909423828125</LatitudeDegrees>
              <LongitudeDegrees>-4.2877821810543537139892578125</LongitudeDegrees>
            </Position>
            <AltitudeMeters>907.4000244140625</AltitudeMeters>
            <DistanceMeters>22480.124875631</DistanceMeters>
          </Trackpoint>
          <Trackpoint>
            <Time>2020-09-13T09:25:19.000Z</Time>
            <Position>
              <LatitudeDegrees>41.13050940446555614471435546875</LatitudeDegrees>
              <LongitudeDegrees>-4.287710599601268768310546875</LongitudeDegrees>
            </Position>
            <AltitudeMeters>907.20001220703125</AltitudeMeters>
            <DistanceMeters>22488.167976255</DistanceMeters>
          </Trackpoint>
          <Trackpoint>
            <Time>2020-09-13T09:25:26.000Z</Time>
            <Position>
              <LatitudeDegrees>41.13070989958941936492919921875</LatitudeDegrees>
              <LongitudeDegrees>-4.2874561250209808349609375</LongitudeDegrees>
            </Position>
            <AltitudeMeters>906</AltitudeMeters>
            <DistanceMeters>22519.040399362</DistanceMeters>
          </Trackpoint>
          <Trackpoint>
            <Time>2020-09-13T09:25:34.000Z</Time>
            <Position>
              <LatitudeDegrees>41.1309431679546833038330078125</LatitudeDegrees>
              <LongitudeDegrees>-4.2871532030403614044189453125</LongitudeDegrees>
            </Position>
            <AltitudeMeters>904.5999755859375</AltitudeMeters>
            <DistanceMeters>22555.35838631</DistanceMeters>
          </Trackpoint>
          <Trackpoint>
            <Time>2020-09-13T09:25:35.000Z</Time>
            <Position>
              <LatitudeDegrees>41.13097309134900569915771484375</LatitudeDegrees>
              <LongitudeDegrees>-4.287116490304470062255859375</LongitudeDegrees>
            </Position>
            <AltitudeMeters>904.4000244140625</AltitudeMeters>
            <DistanceMeters>22559.891867752</DistanceMeters>
          </Trackpoint>
          <Trackpoint>
            <Time>2020-09-13T09:25:37.000Z</Time>
            <Position>
              <LatitudeDegrees>41.13103687763214111328125</LatitudeDegrees>
              <LongitudeDegrees>-4.28704163990914821624755859375</LongitudeDegrees>
            </Position>
            <AltitudeMeters>904.20001220703125</AltitudeMeters>
            <DistanceMeters>22569.366464837</DistanceMeters>
          </Trackpoint>
          <Trackpoint>
            <Time>2020-09-13T09:25:44.000Z</Time>
            <Position>
              <LatitudeDegrees>41.13125807605683803558349609375</LatitudeDegrees>
              <LongitudeDegrees>-4.2867404781281948089599609375</LongitudeDegrees>
            </Position>
            <AltitudeMeters>904</AltitudeMeters>
            <DistanceMeters>22604.630723619</DistanceMeters>
          </Trackpoint>
          <Trackpoint>
            <Time>2020-09-13T09:25:45.000Z</Time>
            <Position>
              <LatitudeDegrees>41.13128623925149440765380859375</LatitudeDegrees>
              <LongitudeDegrees>-4.28670401684939861297607421875</LongitudeDegrees>
            </Position>
            <AltitudeMeters>904</AltitudeMeters>
            <DistanceMeters>22609.008145487</DistanceMeters>
          </Trackpoint>
          <Trackpoint>
            <Time>2020-09-13T09:25:55.000Z</Time>
            <Position>
              <LatitudeDegrees>41.13160592503845691680908203125</LatitudeDegrees>
              <LongitudeDegrees>-4.2862774617969989776611328125</LongitudeDegrees>
            </Position>
            <AltitudeMeters>904.20001220703125</AltitudeMeters>
            <DistanceMeters>22659.453996683</DistanceMeters>
          </Trackpoint>
          <Trackpoint>
            <Time>2020-09-13T09:26:01.000Z</Time>
            <Position>
              <LatitudeDegrees>41.13177389837801456451416015625</LatitudeDegrees>
              <LongitudeDegrees>-4.28612063638865947723388671875</LongitudeDegrees>
            </Position>
            <AltitudeMeters>904.20001220703125</AltitudeMeters>
            <DistanceMeters>22682.309452533</DistanceMeters>
          </Trackpoint>
          <Trackpoint>
            <Time>2020-09-13T09:26:02.000Z</Time>
            <Position>
              <LatitudeDegrees>41.13180507905781269073486328125</LatitudeDegrees>
              <LongitudeDegrees>-4.28613387979567050933837890625</LongitudeDegrees>
            </Position>
            <AltitudeMeters>904.20001220703125</AltitudeMeters>
            <DistanceMeters>22685.955309432</DistanceMeters>
          </Trackpoint>
          <Trackpoint>
            <Time>2020-09-13T09:26:05.000Z</Time>
            <Position>
              <LatitudeDegrees>41.13188378512859344482421875</LatitudeDegrees>
              <LongitudeDegrees>-4.2862389050424098968505859375</LongitudeDegrees>
            </Position>
            <AltitudeMeters>903.5999755859375</AltitudeMeters>
            <DistanceMeters>22698.375122869</DistanceMeters>
          </Trackpoint>
          <Trackpoint>
            <Time>2020-09-13T09:26:11.000Z</Time>
            <Position>
              <LatitudeDegrees>41.13202703185379505157470703125</LatitudeDegrees>
              <LongitudeDegrees>-4.2865537293255329132080078125</LongitudeDegrees>
            </Position>
            <AltitudeMeters>903.20001220703125</AltitudeMeters>
            <DistanceMeters>22729.209497982</DistanceMeters>
          </Trackpoint>
          <Trackpoint>
            <Time>2020-09-13T09:26:12.000Z</Time>
            <Position>
              <LatitudeDegrees>41.13205100409686565399169921875</LatitudeDegrees>
              <LongitudeDegrees>-4.28660812787711620330810546875</LongitudeDegrees>
            </Position>
            <AltitudeMeters>903.4000244140625</AltitudeMeters>
            <DistanceMeters>22734.493530189</DistanceMeters>
          </Trackpoint>
          <Trackpoint>
            <Time>2020-09-13T09:26:16.000Z</Time>
            <Position>
              <LatitudeDegrees>41.13213666714727878570556640625</LatitudeDegrees>
              <LongitudeDegrees>-4.2868152447044849395751953125</LongitudeDegrees>
            </Position>
            <AltitudeMeters>903.5999755859375</AltitudeMeters>
            <DistanceMeters>22754.302440856</DistanceMeters>
          </Trackpoint>
          <Trackpoint>
            <Time>2020-09-13T09:26:18.000Z</Time>
            <Position>
              <LatitudeDegrees>41.13218377344310283660888671875</LatitudeDegrees>
              <LongitudeDegrees>-4.2869141511619091033935546875</LongitudeDegrees>
            </Position>
            <AltitudeMeters>903.79998779296875</AltitudeMeters>
            <DistanceMeters>22764.112769838</DistanceMeters>
          </Trackpoint>
          <Trackpoint>
            <Time>2020-09-13T09:26:21.000Z</Time>
            <Position>
              <LatitudeDegrees>41.13225032575428485870361328125</LatitudeDegrees>
              <LongitudeDegrees>-4.2870620079338550567626953125</LongitudeDegrees>
            </Position>
            <AltitudeMeters>904</AltitudeMeters>
            <DistanceMeters>22778.552453529</DistanceMeters>
          </Trackpoint>
          <Trackpoint>
            <Time>2020-09-13T09:26:29.000Z</Time>
            <Position>
              <LatitudeDegrees>41.13244260661303997039794921875</LatitudeDegrees>
              <LongitudeDegrees>-4.28744179196655750274658203125</LongitudeDegrees>
            </Position>
            <AltitudeMeters>905</AltitudeMeters>
            <DistanceMeters>22816.914774606</DistanceMeters>
          </Trackpoint>
          <Trackpoint>
            <Time>2020-09-13T09:26:30.000Z</Time>
            <Position>
              <LatitudeDegrees>41.13246984779834747314453125</LatitudeDegrees>
              <LongitudeDegrees>-4.2874931730329990386962890625</LongitudeDegrees>
            </Position>
            <AltitudeMeters>905.20001220703125</AltitudeMeters>
            <DistanceMeters>22822.182546897</DistanceMeters>
          </Trackpoint>
          <Trackpoint>
            <Time>2020-09-13T09:26:31.000Z</Time>
            <Position>
              <LatitudeDegrees>41.13249977119266986846923828125</LatitudeDegrees>
              <LongitudeDegrees>-4.28754262626171112060546875</LongitudeDegrees>
            </Position>
            <AltitudeMeters>905.20001220703125</AltitudeMeters>
            <DistanceMeters>22827.500648007</DistanceMeters>
          </Trackpoint>
          <Trackpoint>
            <Time>2020-09-13T09:26:32.000Z</Time>
            <Position>
              <LatitudeDegrees>41.13252826966345310211181640625</LatitudeDegrees>
              <LongitudeDegrees>-4.2875920794904232025146484375</LongitudeDegrees>
            </Position>
            <AltitudeMeters>905.4000244140625</AltitudeMeters>
            <DistanceMeters>22832.720201689</DistanceMeters>
          </Trackpoint>
          <Trackpoint>
            <Time>2020-09-13T09:26:35.000Z</Time>
            <Position>
              <LatitudeDegrees>41.13261468708515167236328125</LatitudeDegrees>
              <LongitudeDegrees>-4.287732727825641632080078125</LongitudeDegrees>
            </Position>
            <AltitudeMeters>905.4000244140625</AltitudeMeters>
            <DistanceMeters>22847.936349691</DistanceMeters>
          </Trackpoint>
          <Trackpoint>
            <Time>2020-09-13T09:26:38.000Z</Time>
            <Position>
              <LatitudeDegrees>41.13270244561135768890380859375</LatitudeDegrees>
              <LongitudeDegrees>-4.28787119686603546142578125</LongitudeDegrees>
            </Position>
            <AltitudeMeters>905.5999755859375</AltitudeMeters>
            <DistanceMeters>22863.107328183</DistanceMeters>
          </Trackpoint>
          <Trackpoint>
            <Time>2020-09-13T09:26:39.000Z</Time>
            <Position>
              <LatitudeDegrees>41.13273094408214092254638671875</LatitudeDegrees>
              <LongitudeDegrees>-4.2879159562289714813232421875</LongitudeDegrees>
            </Position>
            <AltitudeMeters>905.79998779296875</AltitudeMeters>
            <DistanceMeters>22868.021229323</DistanceMeters>
          </Trackpoint>
          <Trackpoint>
            <Time>2020-09-13T09:26:40.000Z</Time>
            <Position>
              <LatitudeDegrees>41.1327593587338924407958984375</LatitudeDegrees>
              <LongitudeDegrees>-4.28796105086803436279296875</LongitudeDegrees>
            </Position>
            <AltitudeMeters>906</AltitudeMeters>
            <DistanceMeters>22872.950725819</DistanceMeters>
          </Trackpoint>
          <Trackpoint>
            <Time>2020-09-13T09:26:41.000Z</Time>
            <Position>
              <LatitudeDegrees>41.1327865161001682281494140625</LatitudeDegrees>
              <LongitudeDegrees>-4.28800622932612895965576171875</LongitudeDegrees>
            </Position>
            <AltitudeMeters>906.20001220703125</AltitudeMeters>
            <DistanceMeters>22877.796156528</DistanceMeters>
          </Trackpoint>
          <Trackpoint>
            <Time>2020-09-13T09:26:43.000Z</Time>
            <Position>
              <LatitudeDegrees>41.132840998470783233642578125</LatitudeDegrees>
              <LongitudeDegrees>-4.2880923114717006683349609375</LongitudeDegrees>
            </Position>
            <AltitudeMeters>906.4000244140625</AltitudeMeters>
            <DistanceMeters>22887.222021058</DistanceMeters>
          </Trackpoint>
          <Trackpoint>
            <Time>2020-09-13T09:26:44.000Z</Time>
            <Position>
              <LatitudeDegrees>41.132868826389312744140625</LatitudeDegrees>
              <LongitudeDegrees>-4.288137741386890411376953125</LongitudeDegrees>
            </Position>
            <AltitudeMeters>906.4000244140625</AltitudeMeters>
            <DistanceMeters>22892.131325899</DistanceMeters>
          </Trackpoint>
          <Trackpoint>
            <Time>2020-09-13T09:26:52.000Z</Time>
            <Position>
              <LatitudeDegrees>41.13309605978429317474365234375</LatitudeDegrees>
              <LongitudeDegrees>-4.28849556483328342437744140625</LongitudeDegrees>
            </Position>
            <AltitudeMeters>906.79998779296875</AltitudeMeters>
            <DistanceMeters>22931.367233717</DistanceMeters>
          </Trackpoint>
          <Trackpoint>
            <Time>2020-09-13T09:26:54.000Z</Time>
            <Position>
              <LatitudeDegrees>41.13314903341233730316162109375</LatitudeDegrees>
              <LongitudeDegrees>-4.28858407773077487945556640625</LongitudeDegrees>
            </Position>
            <AltitudeMeters>906.79998779296875</AltitudeMeters>
            <DistanceMeters>22940.84421321</DistanceMeters>
          </Trackpoint>
          <Trackpoint>
            <Time>2020-09-13T09:26:56.000Z</Time>
            <Position>
              <LatitudeDegrees>41.13320837728679180145263671875</LatitudeDegrees>
              <LongitudeDegrees>-4.2886699922382831573486328125</LongitudeDegrees>
            </Position>
            <AltitudeMeters>907</AltitudeMeters>
            <DistanceMeters>22950.616730208</DistanceMeters>
          </Trackpoint>
          <Trackpoint>
            <Time>2020-09-13T09:26:57.000Z</Time>
            <Position>
              <LatitudeDegrees>41.13323821686208248138427734375</LatitudeDegrees>
              <LongitudeDegrees>-4.288712404668331146240234375</LongitudeDegrees>
            </Position>
            <AltitudeMeters>907</AltitudeMeters>
            <DistanceMeters>22955.482617633</DistanceMeters>
          </Trackpoint>
          <Trackpoint>
            <Time>2020-09-13T09:26:58.000Z</Time>
            <Position>
              <LatitudeDegrees>41.13326654769480228424072265625</LatitudeDegrees>
              <LongitudeDegrees>-4.28875473327934741973876953125</LongitudeDegrees>
            </Position>
            <AltitudeMeters>907</AltitudeMeters>
            <DistanceMeters>22960.230150761</DistanceMeters>
          </Trackpoint>
          <Trackpoint>
            <Time>2020-09-13T09:27:00.000Z</Time>
            <Position>
              <LatitudeDegrees>41.13332538865506649017333984375</LatitudeDegrees>
              <LongitudeDegrees>-4.28883922286331653594970703125</LongitudeDegrees>
            </Position>
            <AltitudeMeters>907</AltitudeMeters>
            <DistanceMeters>22969.876181431</DistanceMeters>
          </Trackpoint>
          <Trackpoint>
            <Time>2020-09-13T09:27:01.000Z</Time>
            <Position>
              <LatitudeDegrees>41.13335204310715198516845703125</LatitudeDegrees>
              <LongitudeDegrees>-4.28888314403593540191650390625</LongitudeDegrees>
            </Position>
            <AltitudeMeters>907</AltitudeMeters>
            <DistanceMeters>22974.604655738</DistanceMeters>
          </Trackpoint>
          <Trackpoint>
            <Time>2020-09-13T09:27:03.000Z</Time>
            <Position>
              <LatitudeDegrees>41.13341289572417736053466796875</LatitudeDegrees>
              <LongitudeDegrees>-4.2889714054763317108154296875</LongitudeDegrees>
            </Position>
            <AltitudeMeters>907</AltitudeMeters>
            <DistanceMeters>22984.63526448</DistanceMeters>
          </Trackpoint>
          <Trackpoint>
            <Time>2020-09-13T09:27:07.000Z</Time>
            <Position>
              <LatitudeDegrees>41.13352823071181774139404296875</LatitudeDegrees>
              <LongitudeDegrees>-4.28914013318717479705810546875</LongitudeDegrees>
            </Position>
            <AltitudeMeters>907</AltitudeMeters>
            <DistanceMeters>23003.736579585</DistanceMeters>
          </Trackpoint>
          <Trackpoint>
            <Time>2020-09-13T09:27:08.000Z</Time>
            <Position>
              <LatitudeDegrees>41.133559159934520721435546875</LatitudeDegrees>
              <LongitudeDegrees>-4.2891843058168888092041015625</LongitudeDegrees>
            </Position>
            <AltitudeMeters>907</AltitudeMeters>
            <DistanceMeters>23008.792679506</DistanceMeters>
          </Trackpoint>
          <Trackpoint>
            <Time>2020-09-13T09:27:12.000Z</Time>
            <Position>
              <LatitudeDegrees>41.13368899561464786529541015625</LatitudeDegrees>
              <LongitudeDegrees>-4.28935336880385875701904296875</LongitudeDegrees>
            </Position>
            <AltitudeMeters>906.5999755859375</AltitudeMeters>
            <DistanceMeters>23029.033146598</DistanceMeters>
          </Trackpoint>
          <Trackpoint>
            <Time>2020-09-13T09:27:14.000Z</Time>
            <Position>
              <LatitudeDegrees>41.1337514407932758331298828125</LatitudeDegrees>
              <LongitudeDegrees>-4.28943567909300327301025390625</LongitudeDegrees>
            </Position>
            <AltitudeMeters>906.4000244140625</AltitudeMeters>
            <DistanceMeters>23038.82643215</DistanceMeters>
          </Trackpoint>
          <Trackpoint>
            <Time>2020-09-13T09:27:24.000Z</Time>
            <Position>
              <LatitudeDegrees>41.1341115273535251617431640625</LatitudeDegrees>
              <LongitudeDegrees>-4.28982594050467014312744140625</LongitudeDegrees>
            </Position>
            <AltitudeMeters>905.20001220703125</AltitudeMeters>
            <DistanceMeters>23090.562173168</DistanceMeters>
          </Trackpoint>
          <Trackpoint>
            <Time>2020-09-13T09:27:31.000Z</Time>
            <Position>
              <LatitudeDegrees>41.13443481735885143280029296875</LatitudeDegrees>
              <LongitudeDegrees>-4.2901133559644222259521484375</LongitudeDegrees>
            </Position>
            <AltitudeMeters>904</AltitudeMeters>
            <DistanceMeters>23133.8664214</DistanceMeters>
          </Trackpoint>
          <Trackpoint>
            <Time>2020-09-13T09:27:40.000Z</Time>
            <Position>
              <LatitudeDegrees>41.1349279247224330902099609375</LatitudeDegrees>
              <LongitudeDegrees>-4.2905002646148204803466796875</LongitudeDegrees>
            </Position>
            <AltitudeMeters>901.4000244140625</AltitudeMeters>
            <DistanceMeters>23197.617520414</DistanceMeters>
          </Trackpoint>
          <Trackpoint>
            <Time>2020-09-13T09:27:43.000Z</Time>
            <Position>
              <LatitudeDegrees>41.13509698770940303802490234375</LatitudeDegrees>
              <LongitudeDegrees>-4.2906333692371845245361328125</LongitudeDegrees>
            </Position>
            <AltitudeMeters>900.20001220703125</AltitudeMeters>
            <DistanceMeters>23219.493900173</DistanceMeters>
          </Trackpoint>
          <Trackpoint>
            <Time>2020-09-13T09:27:45.000Z</Time>
            <Position>
              <LatitudeDegrees>41.13521483726799488067626953125</LatitudeDegrees>
              <LongitudeDegrees>-4.29072800092399120330810546875</LongitudeDegrees>
            </Position>
            <AltitudeMeters>899.4000244140625</AltitudeMeters>
            <DistanceMeters>23234.822978724</DistanceMeters>
          </Trackpoint>
          <Trackpoint>
            <Time>2020-09-13T09:27:50.000Z</Time>
            <Position>
              <LatitudeDegrees>41.13552764989435672760009765625</LatitudeDegrees>
              <LongitudeDegrees>-4.29097761400043964385986328125</LongitudeDegrees>
            </Position>
            <AltitudeMeters>898.5999755859375</AltitudeMeters>
            <DistanceMeters>23275.443759225</DistanceMeters>
          </Trackpoint>
          <Trackpoint>
            <Time>2020-09-13T09:27:58.000Z</Time>
            <Position>
              <LatitudeDegrees>41.13602704368531703948974609375</LatitudeDegrees>
              <LongitudeDegrees>-4.2913693003356456756591796875</LongitudeDegrees>
            </Position>
            <AltitudeMeters>896.79998779296875</AltitudeMeters>
            <DistanceMeters>23340.000687596</DistanceMeters>
          </Trackpoint>
          <Trackpoint>
            <Time>2020-09-13T09:28:02.000Z</Time>
            <Position>
              <LatitudeDegrees>41.13628017716109752655029296875</LatitudeDegrees>
              <LongitudeDegrees>-4.291572310030460357666015625</LongitudeDegrees>
            </Position>
            <AltitudeMeters>895.5999755859375</AltitudeMeters>
            <DistanceMeters>23372.915615083</DistanceMeters>
          </Trackpoint>
          <Trackpoint>
            <Time>2020-09-13T09:28:09.000Z</Time>
            <Position>
              <LatitudeDegrees>41.13669910468161106109619140625</LatitudeDegrees>
              <LongitudeDegrees>-4.2919040657579898834228515625</LongitudeDegrees>
            </Position>
            <AltitudeMeters>894</AltitudeMeters>
            <DistanceMeters>23427.206648248</DistanceMeters>
          </Trackpoint>
          <Trackpoint>
            <Time>2020-09-13T09:28:15.000Z</Time>
            <Position>
              <LatitudeDegrees>41.1370505578815937042236328125</LatitudeDegrees>
              <LongitudeDegrees>-4.2921810038387775421142578125</LongitudeDegrees>
            </Position>
            <AltitudeMeters>893.79998779296875</AltitudeMeters>
            <DistanceMeters>23472.693982045</DistanceMeters>
          </Trackpoint>
          <Trackpoint>
            <Time>2020-09-13T09:28:22.000Z</Time>
            <Position>
              <LatitudeDegrees>41.13741584122180938720703125</LatitudeDegrees>
              <LongitudeDegrees>-4.29246045649051666259765625</LongitudeDegrees>
            </Position>
            <AltitudeMeters>892.79998779296875</AltitudeMeters>
            <DistanceMeters>23519.616399273</DistanceMeters>
          </Trackpoint>
          <Trackpoint>
            <Time>2020-09-13T09:28:32.000Z</Time>
            <Position>
              <LatitudeDegrees>41.137892939150333404541015625</LatitudeDegrees>
              <LongitudeDegrees>-4.292841665446758270263671875</LongitudeDegrees>
            </Position>
            <AltitudeMeters>890.4000244140625</AltitudeMeters>
            <DistanceMeters>23581.591595564</DistanceMeters>
          </Trackpoint>
          <Trackpoint>
            <Time>2020-09-13T09:28:36.000Z</Time>
            <Position>
              <LatitudeDegrees>41.13807256333529949188232421875</LatitudeDegrees>
              <LongitudeDegrees>-4.292982481420040130615234375</LongitudeDegrees>
            </Position>
            <AltitudeMeters>890</AltitudeMeters>
            <DistanceMeters>23604.808860331</DistanceMeters>
          </Trackpoint>
          <Trackpoint>
            <Time>2020-09-13T09:28:41.000Z</Time>
            <Position>
              <LatitudeDegrees>41.13832351751625537872314453125</LatitudeDegrees>
              <LongitudeDegrees>-4.2931851558387279510498046875</LongitudeDegrees>
            </Position>
            <AltitudeMeters>889.79998779296875</AltitudeMeters>
            <DistanceMeters>23637.501641003</DistanceMeters>
          </Trackpoint>
          <Trackpoint>
            <Time>2020-09-13T09:28:43.000Z</Time>
            <Position>
              <LatitudeDegrees>41.13843197934329509735107421875</LatitudeDegrees>
              <LongitudeDegrees>-4.29327190853655338287353515625</LongitudeDegrees>
            </Position>
            <AltitudeMeters>889.5999755859375</AltitudeMeters>
            <DistanceMeters>23651.594778744</DistanceMeters>
          </Trackpoint>
          <Trackpoint>
            <Time>2020-09-13T09:28:45.000Z</Time>
            <Position>
              <LatitudeDegrees>41.13854278810322284698486328125</LatitudeDegrees>
              <LongitudeDegrees>-4.29335857741534709930419921875</LongitudeDegrees>
            </Position>
            <AltitudeMeters>889</AltitudeMeters>
            <DistanceMeters>23665.908842965</DistanceMeters>
          </Trackpoint>
          <Trackpoint>
            <Time>2020-09-13T09:28:49.000Z</Time>
            <Position>
              <LatitudeDegrees>41.13877781666815280914306640625</LatitudeDegrees>
              <LongitudeDegrees>-4.29354675114154815673828125</LongitudeDegrees>
            </Position>
            <AltitudeMeters>887.79998779296875</AltitudeMeters>
            <DistanceMeters>23696.455608574</DistanceMeters>
          </Trackpoint>
          <Trackpoint>
            <Time>2020-09-13T09:28:50.000Z</Time>
            <Position>
              <LatitudeDegrees>41.13884068094193935394287109375</LatitudeDegrees>
              <LongitudeDegrees>-4.29359729401767253875732421875</LongitudeDegrees>
            </Position>
            <AltitudeMeters>887.4000244140625</AltitudeMeters>
            <DistanceMeters>23704.635637085</DistanceMeters>
          </Trackpoint>
          <Trackpoint>
            <Time>2020-09-13T09:28:53.000Z</Time>
            <Position>
              <LatitudeDegrees>41.13902944140136241912841796875</LatitudeDegrees>
              <LongitudeDegrees>-4.29374766536056995391845703125</LongitudeDegrees>
            </Position>
            <AltitudeMeters>886.5999755859375</AltitudeMeters>
            <DistanceMeters>23729.136133644</DistanceMeters>
          </Trackpoint>
          <Trackpoint>
            <Time>2020-09-13T09:28:58.000Z</Time>
            <Position>
              <LatitudeDegrees>41.1393369734287261962890625</LatitudeDegrees>
              <LongitudeDegrees>-4.29399694316089153289794921875</LongitudeDegrees>
            </Position>
            <AltitudeMeters>885.20001220703125</AltitudeMeters>
            <DistanceMeters>23769.238758176</DistanceMeters>
          </Trackpoint>
          <Trackpoint>
            <Time>2020-09-13T09:28:59.000Z</Time>
            <Position>
              <LatitudeDegrees>41.1393959820270538330078125</LatitudeDegrees>
              <LongitudeDegrees>-4.294043965637683868408203125</LongitudeDegrees>
            </Position>
            <AltitudeMeters>885</AltitudeMeters>
            <DistanceMeters>23776.898288622</DistanceMeters>
          </Trackpoint>
          <Trackpoint>
            <Time>2020-09-13T09:29:02.000Z</Time>
            <Position>
              <LatitudeDegrees>41.13956856541335582733154296875</LatitudeDegrees>
              <LongitudeDegrees>-4.2941802553832530975341796875</LongitudeDegrees>
            </Position>
            <AltitudeMeters>885</AltitudeMeters>
            <DistanceMeters>23799.247957715</DistanceMeters>
          </Trackpoint>
          <Trackpoint>
            <Time>2020-09-13T09:29:06.000Z</Time>
            <Position>
              <LatitudeDegrees>41.13978934474289417266845703125</LatitudeDegrees>
              <LongitudeDegrees>-4.294350408017635345458984375</LongitudeDegrees>
            </Position>
            <AltitudeMeters>885</AltitudeMeters>
            <DistanceMeters>23827.660309675</DistanceMeters>
          </Trackpoint>
          <Trackpoint>
            <Time>2020-09-13T09:29:10.000Z</Time>
            <Position>
              <LatitudeDegrees>41.13998598419129848480224609375</LatitudeDegrees>
              <LongitudeDegrees>-4.294504635035991668701171875</LongitudeDegrees>
            </Position>
            <AltitudeMeters>885.79998779296875</AltitudeMeters>
            <DistanceMeters>23853.079200872</DistanceMeters>
          </Trackpoint>
          <Trackpoint>
            <Time>2020-09-13T09:29:11.000Z</Time>
            <Position>
              <LatitudeDegrees>41.14002965390682220458984375</LatitudeDegrees>
              <LongitudeDegrees>-4.2945396713912487030029296875</LongitudeDegrees>
            </Position>
            <AltitudeMeters>886.20001220703125</AltitudeMeters>
            <DistanceMeters>23858.757792509</DistanceMeters>
          </Trackpoint>
          <Trackpoint>
            <Time>2020-09-13T09:29:12.000Z</Time>
            <Position>
              <LatitudeDegrees>41.14007256925106048583984375</LatitudeDegrees>
              <LongitudeDegrees>-4.294574372470378875732421875</LongitudeDegrees>
            </Position>
            <AltitudeMeters>886.4000244140625</AltitudeMeters>
            <DistanceMeters>23864.350661612</DistanceMeters>
          </Trackpoint>
          <Trackpoint>
            <Time>2020-09-13T09:29:20.000Z</Time>
            <Position>
              <LatitudeDegrees>41.14036786369979381561279296875</LatitudeDegrees>
              <LongitudeDegrees>-4.29481434635818004608154296875</LongitudeDegrees>
            </Position>
            <AltitudeMeters>887.79998779296875</AltitudeMeters>
            <DistanceMeters>23902.884550854</DistanceMeters>
          </Trackpoint>
          <Trackpoint>
            <Time>2020-09-13T09:29:32.000Z</Time>
            <Position>
              <LatitudeDegrees>41.140764243900775909423828125</LatitudeDegrees>
              <LongitudeDegrees>-4.29517057724297046661376953125</LongitudeDegrees>
            </Position>
            <AltitudeMeters>889.20001220703125</AltitudeMeters>
            <DistanceMeters>23956.157513463</DistanceMeters>
          </Trackpoint>
          <Trackpoint>
            <Time>2020-09-13T09:29:37.000Z</Time>
            <Position>
              <LatitudeDegrees>41.14092526026070117950439453125</LatitudeDegrees>
              <LongitudeDegrees>-4.2953359521925449371337890625</LongitudeDegrees>
            </Position>
            <AltitudeMeters>889.79998779296875</AltitudeMeters>
            <DistanceMeters>23978.814361337</DistanceMeters>
          </Trackpoint>
          <Trackpoint>
            <Time>2020-09-13T09:29:40.000Z</Time>
            <Position>
              <LatitudeDegrees>41.14101947285234928131103515625</LatitudeDegrees>
              <LongitudeDegrees>-4.29544097743928432464599609375</LongitudeDegrees>
            </Position>
            <AltitudeMeters>890.20001220703125</AltitudeMeters>
            <DistanceMeters>23992.506124809</DistanceMeters>
          </Trackpoint>
          <Trackpoint>
            <Time>2020-09-13T09:29:43.000Z</Time>
            <Position>
              <LatitudeDegrees>41.1411127634346485137939453125</LatitudeDegrees>
              <LongitudeDegrees>-4.2955511994659900665283203125</LongitudeDegrees>
            </Position>
            <AltitudeMeters>890.5999755859375</AltitudeMeters>
            <DistanceMeters>24006.404736081</DistanceMeters>
          </Trackpoint>
          <Trackpoint>
            <Time>2020-09-13T09:29:46.000Z</Time>
            <Position>
              <LatitudeDegrees>41.14120638929307460784912109375</LatitudeDegrees>
              <LongitudeDegrees>-4.295667372643947601318359375</LongitudeDegrees>
            </Position>
            <AltitudeMeters>890.79998779296875</AltitudeMeters>
            <DistanceMeters>24020.666976507</DistanceMeters>
          </Trackpoint>
          <Trackpoint>
            <Time>2020-09-13T09:29:47.000Z</Time>
            <Position>
              <LatitudeDegrees>41.14123857580125331878662109375</LatitudeDegrees>
              <LongitudeDegrees>-4.2957094497978687286376953125</LongitudeDegrees>
            </Position>
            <AltitudeMeters>890.79998779296875</AltitudeMeters>
            <DistanceMeters>24025.693521433</DistanceMeters>
          </Trackpoint>
          <Trackpoint>
            <Time>2020-09-13T09:29:49.000Z</Time>
            <Position>
              <LatitudeDegrees>41.1413028649985790252685546875</LatitudeDegrees>
              <LongitudeDegrees>-4.29578782059252262115478515625</LongitudeDegrees>
            </Position>
            <AltitudeMeters>890.79998779296875</AltitudeMeters>
            <DistanceMeters>24035.406720633</DistanceMeters>
          </Trackpoint>
          <Trackpoint>
            <Time>2020-09-13T09:29:50.000Z</Time>
            <Position>
              <LatitudeDegrees>41.14133228547871112823486328125</LatitudeDegrees>
              <LongitudeDegrees>-4.295825958251953125</LongitudeDegrees>
            </Position>
            <AltitudeMeters>890.79998779296875</AltitudeMeters>
            <DistanceMeters>24039.981839997</DistanceMeters>
          </Trackpoint>
          <Trackpoint>
            <Time>2020-09-13T09:29:53.000Z</Time>
            <Position>
              <LatitudeDegrees>41.14142230711877346038818359375</LatitudeDegrees>
              <LongitudeDegrees>-4.29593802429735660552978515625</LongitudeDegrees>
            </Position>
            <AltitudeMeters>891</AltitudeMeters>
            <DistanceMeters>24053.716405768</DistanceMeters>
          </Trackpoint>
          <Trackpoint>
            <Time>2020-09-13T09:29:57.000Z</Time>
            <Position>
              <LatitudeDegrees>41.141542084515094757080078125</LatitudeDegrees>
              <LongitudeDegrees>-4.2960846237838268280029296875</LongitudeDegrees>
            </Position>
            <AltitudeMeters>891.20001220703125</AltitudeMeters>
            <DistanceMeters>24071.847343495</DistanceMeters>
          </Trackpoint>
          <Trackpoint>
            <Time>2020-09-13T09:29:59.000Z</Time>
            <Position>
              <LatitudeDegrees>41.14160033874213695526123046875</LatitudeDegrees>
              <LongitudeDegrees>-4.2961572110652923583984375</LongitudeDegrees>
            </Position>
            <AltitudeMeters>891.4000244140625</AltitudeMeters>
            <DistanceMeters>24080.738310213</DistanceMeters>
          </Trackpoint>
          <Trackpoint>
            <Time>2020-09-13T09:30:00.000Z</Time>
            <Position>
              <LatitudeDegrees>41.1416277475655078887939453125</LatitudeDegrees>
              <LongitudeDegrees>-4.2961920797824859619140625</LongitudeDegrees>
            </Position>
            <AltitudeMeters>891.4000244140625</AltitudeMeters>
            <DistanceMeters>24084.962458773</DistanceMeters>
          </Trackpoint>
          <Trackpoint>
            <Time>2020-09-13T09:30:01.000Z</Time>
            <Position>
              <LatitudeDegrees>41.14165582694113254547119140625</LatitudeDegrees>
              <LongitudeDegrees>-4.2962261103093624114990234375</LongitudeDegrees>
            </Position>
            <AltitudeMeters>891.20001220703125</AltitudeMeters>
            <DistanceMeters>24089.194082762</DistanceMeters>
          </Trackpoint>
          <Trackpoint>
            <Time>2020-09-13T09:30:09.000Z</Time>
            <Position>
              <LatitudeDegrees>41.14189320243895053863525390625</LatitudeDegrees>
              <LongitudeDegrees>-4.29651972837746143341064453125</LongitudeDegrees>
            </Position>
            <AltitudeMeters>891.20001220703125</AltitudeMeters>
            <DistanceMeters>24125.301483345</DistanceMeters>
          </Trackpoint>
          <Trackpoint>
            <Time>2020-09-13T09:30:19.000Z</Time>
            <Position>
              <LatitudeDegrees>41.14217751659452915191650390625</LatitudeDegrees>
              <LongitudeDegrees>-4.296885766088962554931640625</LongitudeDegrees>
            </Position>
            <AltitudeMeters>891.79998779296875</AltitudeMeters>
            <DistanceMeters>24169.377799163</DistanceMeters>
          </Trackpoint>
          <Trackpoint>
            <Time>2020-09-13T09:30:21.000Z</Time>
            <Position>
              <LatitudeDegrees>41.14223250187933444976806640625</LatitudeDegrees>
              <LongitudeDegrees>-4.2969570122659206390380859375</LongitudeDegrees>
            </Position>
            <AltitudeMeters>891.79998779296875</AltitudeMeters>
            <DistanceMeters>24177.928091491</DistanceMeters>
          </Trackpoint>
          <Trackpoint>
            <Time>2020-09-13T09:30:35.000Z</Time>
            <Position>
              <LatitudeDegrees>41.1426251940429210662841796875</LatitudeDegrees>
              <LongitudeDegrees>-4.2974607646465301513671875</LongitudeDegrees>
            </Position>
            <AltitudeMeters>894.20001220703125</AltitudeMeters>
            <DistanceMeters>24238.699737056</DistanceMeters>
          </Trackpoint>
          <Trackpoint>
            <Time>2020-09-13T09:30:37.000Z</Time>
            <Position>
              <LatitudeDegrees>41.1426805146038532257080078125</LatitudeDegrees>
              <LongitudeDegrees>-4.29753343574702739715576171875</LongitudeDegrees>
            </Position>
            <AltitudeMeters>894.4000244140625</AltitudeMeters>
            <DistanceMeters>24247.360211347</DistanceMeters>
          </Trackpoint>
          <Trackpoint>
            <Time>2020-09-13T09:30:41.000Z</Time>
            <Position>
              <LatitudeDegrees>41.14279643632471561431884765625</LatitudeDegrees>
              <LongitudeDegrees>-4.297674000263214111328125</LongitudeDegrees>
            </Position>
            <AltitudeMeters>895.20001220703125</AltitudeMeters>
            <DistanceMeters>24264.832210782</DistanceMeters>
          </Trackpoint>
          <Trackpoint>
            <Time>2020-09-13T09:30:49.000Z</Time>
            <Position>
              <LatitudeDegrees>41.14302299916744232177734375</LatitudeDegrees>
              <LongitudeDegrees>-4.29796057753264904022216796875</LongitudeDegrees>
            </Position>
            <AltitudeMeters>896.5999755859375</AltitudeMeters>
            <DistanceMeters>24299.6583024</DistanceMeters>
          </Trackpoint>
          <Trackpoint>
            <Time>2020-09-13T09:30:52.000Z</Time>
            <Position>
              <LatitudeDegrees>41.14310556091368198394775390625</LatitudeDegrees>
              <LongitudeDegrees>-4.29806082509458065032958984375</LongitudeDegrees>
            </Position>
            <AltitudeMeters>896.5999755859375</AltitudeMeters>
            <DistanceMeters>24312.110065831</DistanceMeters>
          </Trackpoint>
          <Trackpoint>
            <Time>2020-09-13T09:30:56.000Z</Time>
            <Position>
              <LatitudeDegrees>41.14321720786392688751220703125</LatitudeDegrees>
              <LongitudeDegrees>-4.29820440709590911865234375</LongitudeDegrees>
            </Position>
            <AltitudeMeters>897</AltitudeMeters>
            <DistanceMeters>24329.408582334</DistanceMeters>
          </Trackpoint>
          <Trackpoint>
            <Time>2020-09-13T09:31:02.000Z</Time>
            <Position>
              <LatitudeDegrees>41.14340311847627162933349609375</LatitudeDegrees>
              <LongitudeDegrees>-4.298433400690555572509765625</LongitudeDegrees>
            </Position>
            <AltitudeMeters>897.5999755859375</AltitudeMeters>
            <DistanceMeters>24357.631996431</DistanceMeters>
          </Trackpoint>
          <Trackpoint>
            <Time>2020-09-13T09:31:04.000Z</Time>
            <Position>
              <LatitudeDegrees>41.1434650607407093048095703125</LatitudeDegrees>
              <LongitudeDegrees>-4.298509843647480010986328125</LongitudeDegrees>
            </Position>
            <AltitudeMeters>898</AltitudeMeters>
            <DistanceMeters>24367.043959559</DistanceMeters>
          </Trackpoint>
          <Trackpoint>
            <Time>2020-09-13T09:31:05.000Z</Time>
            <Position>
              <LatitudeDegrees>41.143494732677936553955078125</LatitudeDegrees>
              <LongitudeDegrees>-4.29854697547852993011474609375</LongitudeDegrees>
            </Position>
            <AltitudeMeters>898.20001220703125</AltitudeMeters>
            <DistanceMeters>24371.583412658</DistanceMeters>
          </Trackpoint>
          <Trackpoint>
            <Time>2020-09-13T09:31:10.000Z</Time>
            <Position>
              <LatitudeDegrees>41.1436451040208339691162109375</LatitudeDegrees>
              <LongitudeDegrees>-4.29873003624379634857177734375</LongitudeDegrees>
            </Position>
            <AltitudeMeters>899</AltitudeMeters>
            <DistanceMeters>24394.289031442</DistanceMeters>
          </Trackpoint>
          <Trackpoint>
            <Time>2020-09-13T09:31:12.000Z</Time>
            <Position>
              <LatitudeDegrees>41.14370428025722503662109375</LatitudeDegrees>
              <LongitudeDegrees>-4.29880413226783275604248046875</LongitudeDegrees>
            </Position>
            <AltitudeMeters>899.20001220703125</AltitudeMeters>
            <DistanceMeters>24403.341541797</DistanceMeters>
          </Trackpoint>
          <Trackpoint>
            <Time>2020-09-13T09:31:16.000Z</Time>
            <Position>
              <LatitudeDegrees>41.14381265826523303985595703125</LatitudeDegrees>
              <LongitudeDegrees>-4.29894260130822658538818359375</LongitudeDegrees>
            </Position>
            <AltitudeMeters>899.79998779296875</AltitudeMeters>
            <DistanceMeters>24420.081354586</DistanceMeters>
          </Trackpoint>
          <Trackpoint>
            <Time>2020-09-13T09:31:23.000Z</Time>
            <Position>
              <LatitudeDegrees>41.14398163743317127227783203125</LatitudeDegrees>
              <LongitudeDegrees>-4.2991584353148937225341796875</LongitudeDegrees>
            </Position>
            <AltitudeMeters>900.5999755859375</AltitudeMeters>
            <DistanceMeters>24446.17721987</DistanceMeters>
          </Trackpoint>
          <Trackpoint>
            <Time>2020-09-13T09:31:24.000Z</Time>
            <Position>
              <LatitudeDegrees>41.14400594495236873626708984375</LatitudeDegrees>
              <LongitudeDegrees>-4.29918718524277210235595703125</LongitudeDegrees>
            </Position>
            <AltitudeMeters>900.79998779296875</AltitudeMeters>
            <DistanceMeters>24449.800716959</DistanceMeters>
          </Trackpoint>
          <Trackpoint>
            <Time>2020-09-13T09:31:26.000Z</Time>
            <Position>
              <LatitudeDegrees>41.14405422471463680267333984375</LatitudeDegrees>
              <LongitudeDegrees>-4.29924250580370426177978515625</LongitudeDegrees>
            </Position>
            <AltitudeMeters>901</AltitudeMeters>
            <DistanceMeters>24456.898519188</DistanceMeters>
          </Trackpoint>
          <Trackpoint>
            <Time>2020-09-13T09:31:36.000Z</Time>
            <Position>
              <LatitudeDegrees>41.14429562352597713470458984375</LatitudeDegrees>
              <LongitudeDegrees>-4.29953084327280521392822265625</LongitudeDegrees>
            </Position>
            <AltitudeMeters>901.5999755859375</AltitudeMeters>
            <DistanceMeters>24493.036667669</DistanceMeters>
          </Trackpoint>
          <Trackpoint>
            <Time>2020-09-13T09:31:38.000Z</Time>
            <Position>
              <LatitudeDegrees>41.1443441547453403472900390625</LatitudeDegrees>
              <LongitudeDegrees>-4.2995815537869930267333984375</LongitudeDegrees>
            </Position>
            <AltitudeMeters>901.79998779296875</AltitudeMeters>
            <DistanceMeters>24499.910193689</DistanceMeters>
          </Trackpoint>
          <Trackpoint>
            <Time>2020-09-13T09:31:46.000Z</Time>
            <Position>
              <LatitudeDegrees>41.14452897571027278900146484375</LatitudeDegrees>
              <LongitudeDegrees>-4.29976620711386203765869140625</LongitudeDegrees>
            </Position>
            <AltitudeMeters>902.5999755859375</AltitudeMeters>
            <DistanceMeters>24525.653139326</DistanceMeters>
          </Trackpoint>
          <Trackpoint>
            <Time>2020-09-13T09:31:57.000Z</Time>
            <Position>
              <LatitudeDegrees>41.14479669369757175445556640625</LatitudeDegrees>
              <LongitudeDegrees>-4.29999419488012790679931640625</LongitudeDegrees>
            </Position>
            <AltitudeMeters>904.20001220703125</AltitudeMeters>
            <DistanceMeters>24561.051578948</DistanceMeters>
          </Trackpoint>
          <Trackpoint>
            <Time>2020-09-13T09:31:59.000Z</Time>
            <Position>
              <LatitudeDegrees>41.1448527686297893524169921875</LatitudeDegrees>
              <LongitudeDegrees>-4.30004213936626911163330078125</LongitudeDegrees>
            </Position>
            <AltitudeMeters>904.5999755859375</AltitudeMeters>
            <DistanceMeters>24568.474619192</DistanceMeters>
          </Trackpoint>
          <Trackpoint>
            <Time>2020-09-13T09:32:03.000Z</Time>
            <Position>
              <LatitudeDegrees>41.14497405476868152618408203125</LatitudeDegrees>
              <LongitudeDegrees>-4.30013425648212432861328125</LongitudeDegrees>
            </Position>
            <AltitudeMeters>905.4000244140625</AltitudeMeters>
            <DistanceMeters>24584.025937699</DistanceMeters>
          </Trackpoint>
          <Trackpoint>
            <Time>2020-09-13T09:32:08.000Z</Time>
            <Position>
              <LatitudeDegrees>41.14513414911925792694091796875</LatitudeDegrees>
              <LongitudeDegrees>-4.300255961716175079345703125</LongitudeDegrees>
            </Position>
            <AltitudeMeters>906.20001220703125</AltitudeMeters>
            <DistanceMeters>24604.558086121</DistanceMeters>
          </Trackpoint>
          <Trackpoint>
            <Time>2020-09-13T09:32:09.000Z</Time>
            <Position>
              <LatitudeDegrees>41.145165078341960906982421875</LatitudeDegrees>
              <LongitudeDegrees>-4.30027909576892852783203125</LongitudeDegrees>
            </Position>
            <AltitudeMeters>906.4000244140625</AltitudeMeters>
            <DistanceMeters>24608.508272457</DistanceMeters>
          </Trackpoint>
          <Trackpoint>
            <Time>2020-09-13T09:32:10.000Z</Time>
            <Position>
              <LatitudeDegrees>41.14519583992660045623779296875</LatitudeDegrees>
              <LongitudeDegrees>-4.30029979906976222991943359375</LongitudeDegrees>
            </Position>
            <AltitudeMeters>906.5999755859375</AltitudeMeters>
            <DistanceMeters>24612.347163542</DistanceMeters>
          </Trackpoint>
          <Trackpoint>
            <Time>2020-09-13T09:32:12.000Z</Time>
            <Position>
              <LatitudeDegrees>41.145257614552974700927734375</LatitudeDegrees>
              <LongitudeDegrees>-4.30034707300364971160888671875</LongitudeDegrees>
            </Position>
            <AltitudeMeters>906.79998779296875</AltitudeMeters>
            <DistanceMeters>24620.283458848</DistanceMeters>
          </Trackpoint>
          <Trackpoint>
            <Time>2020-09-13T09:32:13.000Z</Time>
            <Position>
              <LatitudeDegrees>41.145287789404392242431640625</LatitudeDegrees>
              <LongitudeDegrees>-4.30037037469446659088134765625</LongitudeDegrees>
            </Position>
            <AltitudeMeters>907</AltitudeMeters>
            <DistanceMeters>24624.169110379</DistanceMeters>
          </Trackpoint>
          <Trackpoint>
            <Time>2020-09-13T09:32:14.000Z</Time>
            <Position>
              <LatitudeDegrees>41.14531754516065120697021484375</LatitudeDegrees>
              <LongitudeDegrees>-4.3003932572901248931884765625</LongitudeDegrees>
            </Position>
            <AltitudeMeters>907.20001220703125</AltitudeMeters>
            <DistanceMeters>24627.996222082</DistanceMeters>
          </Trackpoint>
          <Trackpoint>
            <Time>2020-09-13T09:32:19.000Z</Time>
            <Position>
              <LatitudeDegrees>41.14546741358935832977294921875</LatitudeDegrees>
              <LongitudeDegrees>-4.30051052011549472808837890625</LongitudeDegrees>
            </Position>
            <AltitudeMeters>907.79998779296875</AltitudeMeters>
            <DistanceMeters>24647.35696776</DistanceMeters>
          </Trackpoint>
          <Trackpoint>
            <Time>2020-09-13T09:32:32.000Z</Time>
            <Position>
              <LatitudeDegrees>41.145843677222728729248046875</LatitudeDegrees>
              <LongitudeDegrees>-4.300800450146198272705078125</LongitudeDegrees>
            </Position>
            <AltitudeMeters>908.4000244140625</AltitudeMeters>
            <DistanceMeters>24695.775479985</DistanceMeters>
          </Trackpoint>
          <Trackpoint>
            <Time>2020-09-13T09:32:43.000Z</Time>
            <Position>
              <LatitudeDegrees>41.14618934690952301025390625</LatitudeDegrees>
              <LongitudeDegrees>-4.3010530807077884674072265625</LongitudeDegrees>
            </Position>
            <AltitudeMeters>909.79998779296875</AltitudeMeters>
            <DistanceMeters>24739.690983925</DistanceMeters>
          </Trackpoint>
          <Trackpoint>
            <Time>2020-09-13T09:32:46.000Z</Time>
            <Position>
              <LatitudeDegrees>41.1462763510644435882568359375</LatitudeDegrees>
              <LongitudeDegrees>-4.30112072266638278961181640625</LongitudeDegrees>
            </Position>
            <AltitudeMeters>910.20001220703125</AltitudeMeters>
            <DistanceMeters>24750.912186442</DistanceMeters>
          </Trackpoint>
          <Trackpoint>
            <Time>2020-09-13T09:32:55.000Z</Time>
            <Position>
              <LatitudeDegrees>41.1465046741068363189697265625</LatitudeDegrees>
              <LongitudeDegrees>-4.301289282739162445068359375</LongitudeDegrees>
            </Position>
            <AltitudeMeters>911.4000244140625</AltitudeMeters>
            <DistanceMeters>24779.987876575</DistanceMeters>
          </Trackpoint>
          <Trackpoint>
            <Time>2020-09-13T09:32:56.000Z</Time>
            <Position>
              <LatitudeDegrees>41.146530322730541229248046875</LatitudeDegrees>
              <LongitudeDegrees>-4.3013072200119495391845703125</LongitudeDegrees>
            </Position>
            <AltitudeMeters>911.5999755859375</AltitudeMeters>
            <DistanceMeters>24783.213190213</DistanceMeters>
          </Trackpoint>
          <Trackpoint>
            <Time>2020-09-13T09:33:00.000Z</Time>
            <Position>
              <LatitudeDegrees>41.1466230265796184539794921875</LatitudeDegrees>
              <LongitudeDegrees>-4.30136983282864093780517578125</LongitudeDegrees>
            </Position>
            <AltitudeMeters>912</AltitudeMeters>
            <DistanceMeters>24794.78891068</DistanceMeters>
          </Trackpoint>
          <Trackpoint>
            <Time>2020-09-13T09:33:09.000Z</Time>
            <Position>
              <LatitudeDegrees>41.14683148451149463653564453125</LatitudeDegrees>
              <LongitudeDegrees>-4.3015429191291332244873046875</LongitudeDegrees>
            </Position>
            <AltitudeMeters>912.79998779296875</AltitudeMeters>
            <DistanceMeters>24822.152644686</DistanceMeters>
          </Trackpoint>
          <Trackpoint>
            <Time>2020-09-13T09:33:16.000Z</Time>
            <Position>
              <LatitudeDegrees>41.14696023054420948028564453125</LatitudeDegrees>
              <LongitudeDegrees>-4.30164861492812633514404296875</LongitudeDegrees>
            </Position>
            <AltitudeMeters>913.4000244140625</AltitudeMeters>
            <DistanceMeters>24838.999999457</DistanceMeters>
          </Trackpoint>
          <Trackpoint>
            <Time>2020-09-13T09:33:20.000Z</Time>
            <Position>
              <LatitudeDegrees>41.1470374278724193572998046875</LatitudeDegrees>
              <LongitudeDegrees>-4.3017206154763698577880859375</LongitudeDegrees>
            </Position>
            <AltitudeMeters>913.79998779296875</AltitudeMeters>
            <DistanceMeters>24849.4999139</DistanceMeters>
          </Trackpoint>
          <Trackpoint>
            <Time>2020-09-13T09:33:30.000Z</Time>
            <Position>
              <LatitudeDegrees>41.14726365543901920318603515625</LatitudeDegrees>
              <LongitudeDegrees>-4.30196394212543964385986328125</LongitudeDegrees>
            </Position>
            <AltitudeMeters>915</AltitudeMeters>
            <DistanceMeters>24881.902490775</DistanceMeters>
          </Trackpoint>
          <Trackpoint>
            <Time>2020-09-13T09:33:31.000Z</Time>
            <Position>
              <LatitudeDegrees>41.1472878791391849517822265625</LatitudeDegrees>
              <LongitudeDegrees>-4.30199277587234973907470703125</LongitudeDegrees>
            </Position>
            <AltitudeMeters>915</AltitudeMeters>
            <DistanceMeters>24885.523494917</DistanceMeters>
          </Trackpoint>
          <Trackpoint>
            <Time>2020-09-13T09:33:37.000Z</Time>
            <Position>
              <LatitudeDegrees>41.14744487218558788299560546875</LatitudeDegrees>
              <LongitudeDegrees>-4.3021906726062297821044921875</LongitudeDegrees>
            </Position>
            <AltitudeMeters>914.79998779296875</AltitudeMeters>
            <DistanceMeters>24909.615344027</DistanceMeters>
          </Trackpoint>
          <Trackpoint>
            <Time>2020-09-13T09:33:43.000Z</Time>
            <Position>
              <LatitudeDegrees>41.1476147733628749847412109375</LatitudeDegrees>
              <LongitudeDegrees>-4.302437938749790191650390625</LongitudeDegrees>
            </Position>
            <AltitudeMeters>914.79998779296875</AltitudeMeters>
            <DistanceMeters>24937.670281614</DistanceMeters>
          </Trackpoint>
          <Trackpoint>
            <Time>2020-09-13T09:33:49.000Z</Time>
            <Position>
              <LatitudeDegrees>41.147793643176555633544921875</LatitudeDegrees>
              <LongitudeDegrees>-4.30269752629101276397705078125</LongitudeDegrees>
            </Position>
            <AltitudeMeters>913.5999755859375</AltitudeMeters>
            <DistanceMeters>24967.160885073</DistanceMeters>
          </Trackpoint>
          <Trackpoint>
            <Time>2020-09-13T09:33:52.000Z</Time>
            <Position>
              <LatitudeDegrees>41.1478863470256328582763671875</LatitudeDegrees>
              <LongitudeDegrees>-4.30283800698816776275634765625</LongitudeDegrees>
            </Position>
            <AltitudeMeters>913.20001220703125</AltitudeMeters>
            <DistanceMeters>24982.816374041</DistanceMeters>
          </Trackpoint>
          <Trackpoint>
            <Time>2020-09-13T09:33:53.000Z</Time>
            <Position>
              <LatitudeDegrees>41.14791794680058956146240234375</LatitudeDegrees>
              <LongitudeDegrees>-4.30288779549300670623779296875</LongitudeDegrees>
            </Position>
            <AltitudeMeters>913</AltitudeMeters>
            <DistanceMeters>24988.273588726</DistanceMeters>
          </Trackpoint>
          <Trackpoint>
            <Time>2020-09-13T09:33:57.000Z</Time>
            <Position>
              <LatitudeDegrees>41.14804602228105068206787109375</LatitudeDegrees>
              <LongitudeDegrees>-4.3030811659991741180419921875</LongitudeDegrees>
            </Position>
            <AltitudeMeters>912.5999755859375</AltitudeMeters>
            <DistanceMeters>25009.857626203</DistanceMeters>
          </Trackpoint>
          <Trackpoint>
            <Time>2020-09-13T09:34:00.000Z</Time>
            <Position>
              <LatitudeDegrees>41.14814526401460170745849609375</LatitudeDegrees>
              <LongitudeDegrees>-4.3032300285995006561279296875</LongitudeDegrees>
            </Position>
            <AltitudeMeters>912.4000244140625</AltitudeMeters>
            <DistanceMeters>25026.52120477</DistanceMeters>
          </Trackpoint>
          <Trackpoint>
            <Time>2020-09-13T09:34:03.000Z</Time>
            <Position>
              <LatitudeDegrees>41.148246265947818756103515625</LatitudeDegrees>
              <LongitudeDegrees>-4.3033835850656032562255859375</LongitudeDegrees>
            </Position>
            <AltitudeMeters>912.4000244140625</AltitudeMeters>
            <DistanceMeters>25043.60937559</DistanceMeters>
          </Trackpoint>
          <Trackpoint>
            <Time>2020-09-13T09:34:05.000Z</Time>
            <Position>
              <LatitudeDegrees>41.14830921404063701629638671875</LatitudeDegrees>
              <LongitudeDegrees>-4.30347897112369537353515625</LongitudeDegrees>
            </Position>
            <AltitudeMeters>912.4000244140625</AltitudeMeters>
            <DistanceMeters>25054.240482624</DistanceMeters>
          </Trackpoint>
          <Trackpoint>
            <Time>2020-09-13T09:34:08.000Z</Time>
            <Position>
              <LatitudeDegrees>41.14840107969939708709716796875</LatitudeDegrees>
              <LongitudeDegrees>-4.30362305603921413421630859375</LongitudeDegrees>
            </Position>
            <AltitudeMeters>912.20001220703125</AltitudeMeters>
            <DistanceMeters>25070.063785995</DistanceMeters>
          </Trackpoint>
          <Trackpoint>
            <Time>2020-09-13T09:34:11.000Z</Time>
            <Position>
              <LatitudeDegrees>41.1484921909868717193603515625</LatitudeDegrees>
              <LongitudeDegrees>-4.30377066135406494140625</LongitudeDegrees>
            </Position>
            <AltitudeMeters>912.4000244140625</AltitudeMeters>
            <DistanceMeters>25086.059918218</DistanceMeters>
          </Trackpoint>
          <Trackpoint>
            <Time>2020-09-13T09:34:13.000Z</Time>
            <Position>
              <LatitudeDegrees>41.14855103194713592529296875</LatitudeDegrees>
              <LongitudeDegrees>-4.30387350730597972869873046875</LongitudeDegrees>
            </Position>
            <AltitudeMeters>912.5999755859375</AltitudeMeters>
            <DistanceMeters>25096.885041867</DistanceMeters>
          </Trackpoint>
          <Trackpoint>
            <Time>2020-09-13T09:34:15.000Z</Time>
            <Position>
              <LatitudeDegrees>41.1486105434596538543701171875</LatitudeDegrees>
              <LongitudeDegrees>-4.3039827235043048858642578125</LongitudeDegrees>
            </Position>
            <AltitudeMeters>912.5999755859375</AltitudeMeters>
            <DistanceMeters>25108.184033891</DistanceMeters>
          </Trackpoint>
          <Trackpoint>
            <Time>2020-09-13T09:34:17.000Z</Time>
            <Position>
              <LatitudeDegrees>41.148668713867664337158203125</LatitudeDegrees>
              <LongitudeDegrees>-4.30409587919712066650390625</LongitudeDegrees>
            </Position>
            <AltitudeMeters>913</AltitudeMeters>
            <DistanceMeters>25119.666941896</DistanceMeters>
          </Trackpoint>
          <Trackpoint>
            <Time>2020-09-13T09:34:18.000Z</Time>
            <Position>
              <LatitudeDegrees>41.1486977152526378631591796875</LatitudeDegrees>
              <LongitudeDegrees>-4.304155223071575164794921875</LongitudeDegrees>
            </Position>
            <AltitudeMeters>913.20001220703125</AltitudeMeters>
            <DistanceMeters>25125.596791613</DistanceMeters>
          </Trackpoint>
          <Trackpoint>
            <Time>2020-09-13T09:34:20.000Z</Time>
            <Position>
              <LatitudeDegrees>41.14874507300555706024169921875</LatitudeDegrees>
              <LongitudeDegrees>-4.304263852536678314208984375</LongitudeDegrees>
            </Position>
            <AltitudeMeters>913.5999755859375</AltitudeMeters>
            <DistanceMeters>25136.116896978</DistanceMeters>
          </Trackpoint>
          <Trackpoint>
            <Time>2020-09-13T09:34:22.000Z</Time>
            <Position>
              <LatitudeDegrees>41.14879452623426914215087890625</LatitudeDegrees>
              <LongitudeDegrees>-4.30440005846321582794189453125</LongitudeDegrees>
            </Position>
            <AltitudeMeters>914</AltitudeMeters>
            <DistanceMeters>25148.790411476</DistanceMeters>
          </Trackpoint>
          <Trackpoint>
            <Time>2020-09-13T09:34:24.000Z</Time>
            <Position>
              <LatitudeDegrees>41.1488368548452854156494140625</LatitudeDegrees>
              <LongitudeDegrees>-4.3045138008892536163330078125</LongitudeDegrees>
            </Position>
            <AltitudeMeters>914</AltitudeMeters>
            <DistanceMeters>25159.424066408</DistanceMeters>
          </Trackpoint>
          <Trackpoint>
            <Time>2020-09-13T09:34:26.000Z</Time>
            <Position>
              <LatitudeDegrees>41.1488888226449489593505859375</LatitudeDegrees>
              <LongitudeDegrees>-4.30465109646320343017578125</LongitudeDegrees>
            </Position>
            <AltitudeMeters>913.5999755859375</AltitudeMeters>
            <DistanceMeters>25172.302903473</DistanceMeters>
          </Trackpoint>
          <Trackpoint>
            <Time>2020-09-13T09:34:28.000Z</Time>
            <Position>
              <LatitudeDegrees>41.1489384435117244720458984375</LatitudeDegrees>
              <LongitudeDegrees>-4.30480389855802059173583984375</LongitudeDegrees>
            </Position>
            <AltitudeMeters>913.20001220703125</AltitudeMeters>
            <DistanceMeters>25186.249834199</DistanceMeters>
          </Trackpoint>
          <Trackpoint>
            <Time>2020-09-13T09:34:34.000Z</Time>
            <Position>
              <LatitudeDegrees>41.149067021906375885009765625</LatitudeDegrees>
              <LongitudeDegrees>-4.3052232451736927032470703125</LongitudeDegrees>
            </Position>
            <AltitudeMeters>912.20001220703125</AltitudeMeters>
            <DistanceMeters>25224.197512527</DistanceMeters>
          </Trackpoint>
          <Trackpoint>
            <Time>2020-09-13T09:34:35.000Z</Time>
            <Position>
              <LatitudeDegrees>41.149095185101032257080078125</LatitudeDegrees>
              <LongitudeDegrees>-4.3053187988698482513427734375</LongitudeDegrees>
            </Position>
            <AltitudeMeters>912</AltitudeMeters>
            <DistanceMeters>25232.797298924</DistanceMeters>
          </Trackpoint>
          <Trackpoint>
            <Time>2020-09-13T09:34:38.000Z</Time>
            <Position>
              <LatitudeDegrees>41.14916718564927577972412109375</LatitudeDegrees>
              <LongitudeDegrees>-4.30558291263878345489501953125</LongitudeDegrees>
            </Position>
            <AltitudeMeters>910.5999755859375</AltitudeMeters>
            <DistanceMeters>25256.338812928</DistanceMeters>
          </Trackpoint>
          <Trackpoint>
            <Time>2020-09-13T09:34:40.000Z</Time>
            <Position>
              <LatitudeDegrees>41.14920406602323055267333984375</LatitudeDegrees>
              <LongitudeDegrees>-4.3057945556938648223876953125</LongitudeDegrees>
            </Position>
            <AltitudeMeters>909.5999755859375</AltitudeMeters>
            <DistanceMeters>25274.545792531</DistanceMeters>
          </Trackpoint>
          <Trackpoint>
            <Time>2020-09-13T09:34:42.000Z</Time>
            <Position>
              <LatitudeDegrees>41.1492274515330791473388671875</LatitudeDegrees>
              <LongitudeDegrees>-4.306018687784671783447265625</LongitudeDegrees>
            </Position>
            <AltitudeMeters>909</AltitudeMeters>
            <DistanceMeters>25293.509991816</DistanceMeters>
          </Trackpoint>
          <Trackpoint>
            <Time>2020-09-13T09:34:45.000Z</Time>
            <Position>
              <LatitudeDegrees>41.14923122338950634002685546875</LatitudeDegrees>
              <LongitudeDegrees>-4.30635019205510616302490234375</LongitudeDegrees>
            </Position>
            <AltitudeMeters>908</AltitudeMeters>
            <DistanceMeters>25321.296654556</DistanceMeters>
          </Trackpoint>
          <Trackpoint>
            <Time>2020-09-13T09:34:49.000Z</Time>
            <Position>
              <LatitudeDegrees>41.14920926280319690704345703125</LatitudeDegrees>
              <LongitudeDegrees>-4.306762330234050750732421875</LongitudeDegrees>
            </Position>
            <AltitudeMeters>906.5999755859375</AltitudeMeters>
            <DistanceMeters>25355.92447272</DistanceMeters>
          </Trackpoint>
          <Trackpoint>
            <Time>2020-09-13T09:34:52.000Z</Time>
            <Position>
              <LatitudeDegrees>41.14918009378015995025634765625</LatitudeDegrees>
              <LongitudeDegrees>-4.30705024860799312591552734375</LongitudeDegrees>
            </Position>
            <AltitudeMeters>906.4000244140625</AltitudeMeters>
            <DistanceMeters>25380.272460698</DistanceMeters>
          </Trackpoint>
          <Trackpoint>
            <Time>2020-09-13T09:34:54.000Z</Time>
            <Position>
              <LatitudeDegrees>41.14916098304092884063720703125</LatitudeDegrees>
              <LongitudeDegrees>-4.307238757610321044921875</LongitudeDegrees>
            </Position>
            <AltitudeMeters>906.4000244140625</AltitudeMeters>
            <DistanceMeters>25396.214307248</DistanceMeters>
          </Trackpoint>
          <Trackpoint>
            <Time>2020-09-13T09:35:00.000Z</Time>
            <Position>
              <LatitudeDegrees>41.149130724370479583740234375</LatitudeDegrees>
              <LongitudeDegrees>-4.3078541569411754608154296875</LongitudeDegrees>
            </Position>
            <AltitudeMeters>905.5999755859375</AltitudeMeters>
            <DistanceMeters>25447.900978602</DistanceMeters>
          </Trackpoint>
          <Trackpoint>
            <Time>2020-09-13T09:35:07.000Z</Time>
            <Position>
              <LatitudeDegrees>41.14919316954910755157470703125</LatitudeDegrees>
              <LongitudeDegrees>-4.308520853519439697265625</LongitudeDegrees>
            </Position>
            <AltitudeMeters>905.4000244140625</AltitudeMeters>
            <DistanceMeters>25504.207574568</DistanceMeters>
          </Trackpoint>
          <Trackpoint>
            <Time>2020-09-13T09:35:12.000Z</Time>
            <Position>
              <LatitudeDegrees>41.1492598056793212890625</LatitudeDegrees>
              <LongitudeDegrees>-4.30893248878419399261474609375</LongitudeDegrees>
            </Position>
            <AltitudeMeters>903.5999755859375</AltitudeMeters>
            <DistanceMeters>25539.495127916</DistanceMeters>
          </Trackpoint>
          <Trackpoint>
            <Time>2020-09-13T09:35:16.000Z</Time>
            <Position>
              <LatitudeDegrees>41.14931185729801654815673828125</LatitudeDegrees>
              <LongitudeDegrees>-4.30928058922290802001953125</LongitudeDegrees>
            </Position>
            <AltitudeMeters>902.20001220703125</AltitudeMeters>
            <DistanceMeters>25569.239096707</DistanceMeters>
          </Trackpoint>
          <Trackpoint>
            <Time>2020-09-13T09:35:25.000Z</Time>
            <Position>
              <LatitudeDegrees>41.149360723793506622314453125</LatitudeDegrees>
              <LongitudeDegrees>-4.3100498802959918975830078125</LongitudeDegrees>
            </Position>
            <AltitudeMeters>901.4000244140625</AltitudeMeters>
            <DistanceMeters>25633.942450878</DistanceMeters>
          </Trackpoint>
          <Trackpoint>
            <Time>2020-09-13T09:35:26.000Z</Time>
            <Position>
              <LatitudeDegrees>41.149358041584491729736328125</LatitudeDegrees>
              <LongitudeDegrees>-4.31013545952737331390380859375</LongitudeDegrees>
            </Position>
            <AltitudeMeters>901.20001220703125</AltitudeMeters>
            <DistanceMeters>25641.120585468</DistanceMeters>
          </Trackpoint>
          <Trackpoint>
            <Time>2020-09-13T09:35:27.000Z</Time>
            <Position>
              <LatitudeDegrees>41.149356700479984283447265625</LatitudeDegrees>
              <LongitudeDegrees>-4.31022070348262786865234375</LongitudeDegrees>
            </Position>
            <AltitudeMeters>901</AltitudeMeters>
            <DistanceMeters>25648.266569116</DistanceMeters>
          </Trackpoint>
          <Trackpoint>
            <Time>2020-09-13T09:35:28.000Z</Time>
            <Position>
              <LatitudeDegrees>41.1493548564612865447998046875</LatitudeDegrees>
              <LongitudeDegrees>-4.31030611507594585418701171875</LongitudeDegrees>
            </Position>
            <AltitudeMeters>901</AltitudeMeters>
            <DistanceMeters>25655.428331064</DistanceMeters>
          </Trackpoint>
          <Trackpoint>
            <Time>2020-09-13T09:35:30.000Z</Time>
            <Position>
              <LatitudeDegrees>41.14934085868299007415771484375</LatitudeDegrees>
              <LongitudeDegrees>-4.31048355996608734130859375</LongitudeDegrees>
            </Position>
            <AltitudeMeters>900.5999755859375</AltitudeMeters>
            <DistanceMeters>25670.381683628</DistanceMeters>
          </Trackpoint>
          <Trackpoint>
            <Time>2020-09-13T09:35:32.000Z</Time>
            <Position>
              <LatitudeDegrees>41.14931604824960231781005859375</LatitudeDegrees>
              <LongitudeDegrees>-4.310683719813823699951171875</LongitudeDegrees>
            </Position>
            <AltitudeMeters>900</AltitudeMeters>
            <DistanceMeters>25687.383234939</DistanceMeters>
          </Trackpoint>
          <Trackpoint>
            <Time>2020-09-13T09:35:33.000Z</Time>
            <Position>
              <LatitudeDegrees>41.149306409060955047607421875</LatitudeDegrees>
              <LongitudeDegrees>-4.3107579834759235382080078125</LongitudeDegrees>
            </Position>
            <AltitudeMeters>900</AltitudeMeters>
            <DistanceMeters>25693.698759276</DistanceMeters>
          </Trackpoint>
          <Trackpoint>
            <Time>2020-09-13T09:35:36.000Z</Time>
            <Position>
              <LatitudeDegrees>41.1492639966309070587158203125</LatitudeDegrees>
              <LongitudeDegrees>-4.31102930568158626556396484375</LongitudeDegrees>
            </Position>
            <AltitudeMeters>898.79998779296875</AltitudeMeters>
            <DistanceMeters>25716.923023871</DistanceMeters>
          </Trackpoint>
          <Trackpoint>
            <Time>2020-09-13T09:35:39.000Z</Time>
            <Position>
              <LatitudeDegrees>41.1492224223911762237548828125</LatitudeDegrees>
              <LongitudeDegrees>-4.3112964369356632232666015625</LongitudeDegrees>
            </Position>
            <AltitudeMeters>897.79998779296875</AltitudeMeters>
            <DistanceMeters>25739.784405379</DistanceMeters>
          </Trackpoint>
          <Trackpoint>
            <Time>2020-09-13T09:35:43.000Z</Time>
            <Position>
              <LatitudeDegrees>41.14916852675378322601318359375</LatitudeDegrees>
              <LongitudeDegrees>-4.31164319626986980438232421875</LongitudeDegrees>
            </Position>
            <AltitudeMeters>896.5999755859375</AltitudeMeters>
            <DistanceMeters>25769.458921963</DistanceMeters>
          </Trackpoint>
          <Trackpoint>
            <Time>2020-09-13T09:35:48.000Z</Time>
            <Position>
              <LatitudeDegrees>41.14909443072974681854248046875</LatitudeDegrees>
              <LongitudeDegrees>-4.312095232307910919189453125</LongitudeDegrees>
            </Position>
            <AltitudeMeters>896</AltitudeMeters>
            <DistanceMeters>25808.231335302</DistanceMeters>
          </Trackpoint>
          <Trackpoint>
            <Time>2020-09-13T09:35:50.000Z</Time>
            <Position>
              <LatitudeDegrees>41.14906710572540760040283203125</LatitudeDegrees>
              <LongitudeDegrees>-4.31226991117000579833984375</LongitudeDegrees>
            </Position>
            <AltitudeMeters>895.79998779296875</AltitudeMeters>
            <DistanceMeters>25823.183782014</DistanceMeters>
          </Trackpoint>
          <Trackpoint>
            <Time>2020-09-13T09:35:52.000Z</Time>
            <Position>
              <LatitudeDegrees>41.1490396969020366668701171875</LatitudeDegrees>
              <LongitudeDegrees>-4.312443248927593231201171875</LongitudeDegrees>
            </Position>
            <AltitudeMeters>895.5999755859375</AltitudeMeters>
            <DistanceMeters>25838.028341808</DistanceMeters>
          </Trackpoint>
          <Trackpoint>
            <Time>2020-09-13T09:35:54.000Z</Time>
            <Position>
              <LatitudeDegrees>41.14901429973542690277099609375</LatitudeDegrees>
              <LongitudeDegrees>-4.31261549703776836395263671875</LongitudeDegrees>
            </Position>
            <AltitudeMeters>895.4000244140625</AltitudeMeters>
            <DistanceMeters>25852.73907877</DistanceMeters>
          </Trackpoint>
          <Trackpoint>
            <Time>2020-09-13T09:35:55.000Z</Time>
            <Position>
              <LatitudeDegrees>41.14900222979485988616943359375</LatitudeDegrees>
              <LongitudeDegrees>-4.31270233355462551116943359375</LongitudeDegrees>
            </Position>
            <AltitudeMeters>895.20001220703125</AltitudeMeters>
            <DistanceMeters>25860.140189748</DistanceMeters>
          </Trackpoint>
          <Trackpoint>
            <Time>2020-09-13T09:35:56.000Z</Time>
            <Position>
              <LatitudeDegrees>41.14898831583559513092041015625</LatitudeDegrees>
              <LongitudeDegrees>-4.31278933770954608917236328125</LongitudeDegrees>
            </Position>
            <AltitudeMeters>895</AltitudeMeters>
            <DistanceMeters>25867.594186016</DistanceMeters>
          </Trackpoint>
          <Trackpoint>
            <Time>2020-09-13T09:35:57.000Z</Time>
            <Position>
              <LatitudeDegrees>41.1489743180572986602783203125</LatitudeDegrees>
              <LongitudeDegrees>-4.3128752522170543670654296875</LongitudeDegrees>
            </Position>
            <AltitudeMeters>894.79998779296875</AltitudeMeters>
            <DistanceMeters>25874.962280721</DistanceMeters>
          </Trackpoint>
          <Trackpoint>
            <Time>2020-09-13T09:35:58.000Z</Time>
            <Position>
              <LatitudeDegrees>41.1489619128406047821044921875</LatitudeDegrees>
              <LongitudeDegrees>-4.31296116672456264495849609375</LongitudeDegrees>
            </Position>
            <AltitudeMeters>894.79998779296875</AltitudeMeters>
            <DistanceMeters>25882.294132129</DistanceMeters>
          </Trackpoint>
          <Trackpoint>
            <Time>2020-09-13T09:35:59.000Z</Time>
            <Position>
              <LatitudeDegrees>41.14895042963325977325439453125</LatitudeDegrees>
              <LongitudeDegrees>-4.31304582394659519195556640625</LongitudeDegrees>
            </Position>
            <AltitudeMeters>894.5999755859375</AltitudeMeters>
            <DistanceMeters>25889.503648064</DistanceMeters>
          </Trackpoint>
          <Trackpoint>
            <Time>2020-09-13T09:36:00.000Z</Time>
            <Position>
              <LatitudeDegrees>41.1489391140639781951904296875</LatitudeDegrees>
              <LongitudeDegrees>-4.3131303973495960235595703125</LongitudeDegrees>
            </Position>
            <AltitudeMeters>894.5999755859375</AltitudeMeters>
            <DistanceMeters>25896.70313685</DistanceMeters>
          </Trackpoint>
          <Trackpoint>
            <Time>2020-09-13T09:36:01.000Z</Time>
            <Position>
              <LatitudeDegrees>41.14892654120922088623046875</LatitudeDegrees>
              <LongitudeDegrees>-4.313214719295501708984375</LongitudeDegrees>
            </Position>
            <AltitudeMeters>894.4000244140625</AltitudeMeters>
            <DistanceMeters>25903.907640955</DistanceMeters>
          </Trackpoint>
          <Trackpoint>
            <Time>2020-09-13T09:36:06.000Z</Time>
            <Position>
              <LatitudeDegrees>41.14885822869837284088134765625</LatitudeDegrees>
              <LongitudeDegrees>-4.313643872737884521484375</LongitudeDegrees>
            </Position>
            <AltitudeMeters>893.5999755859375</AltitudeMeters>
            <DistanceMeters>25940.670085935</DistanceMeters>
          </Trackpoint>
          <Trackpoint>
            <Time>2020-09-13T09:36:14.000Z</Time>
            <Position>
              <LatitudeDegrees>41.14874591119587421417236328125</LatitudeDegrees>
              <LongitudeDegrees>-4.31436949409544467926025390625</LongitudeDegrees>
            </Position>
            <AltitudeMeters>891.5999755859375</AltitudeMeters>
            <DistanceMeters>26002.756500811</DistanceMeters>
          </Trackpoint>
          <Trackpoint>
            <Time>2020-09-13T09:36:16.000Z</Time>
            <Position>
              <LatitudeDegrees>41.148717664182186126708984375</LatitudeDegrees>
              <LongitudeDegrees>-4.31455138139426708221435546875</LongitudeDegrees>
            </Position>
            <AltitudeMeters>891</AltitudeMeters>
            <DistanceMeters>26018.321748994</DistanceMeters>
          </Trackpoint>
          <Trackpoint>
            <Time>2020-09-13T09:36:23.000Z</Time>
            <Position>
              <LatitudeDegrees>41.1486789397895336151123046875</LatitudeDegrees>
              <LongitudeDegrees>-4.3151997216045856475830078125</LongitudeDegrees>
            </Position>
            <AltitudeMeters>890.20001220703125</AltitudeMeters>
            <DistanceMeters>26072.830400992</DistanceMeters>
          </Trackpoint>
          <Trackpoint>
            <Time>2020-09-13T09:36:29.000Z</Time>
            <Position>
              <LatitudeDegrees>41.148751191794872283935546875</LatitudeDegrees>
              <LongitudeDegrees>-4.315722920000553131103515625</LongitudeDegrees>
            </Position>
            <AltitudeMeters>889</AltitudeMeters>
            <DistanceMeters>26117.411401932</DistanceMeters>
          </Trackpoint>
          <Trackpoint>
            <Time>2020-09-13T09:36:36.000Z</Time>
            <Position>
              <LatitudeDegrees>41.148905418813228607177734375</LatitudeDegrees>
              <LongitudeDegrees>-4.316298253834247589111328125</LongitudeDegrees>
            </Position>
            <AltitudeMeters>887.79998779296875</AltitudeMeters>
            <DistanceMeters>26168.594910971</DistanceMeters>
          </Trackpoint>
          <Trackpoint>
            <Time>2020-09-13T09:36:39.000Z</Time>
            <Position>
              <LatitudeDegrees>41.1489768326282501220703125</LatitudeDegrees>
              <LongitudeDegrees>-4.3165435083210468292236328125</LongitudeDegrees>
            </Position>
            <AltitudeMeters>887.4000244140625</AltitudeMeters>
            <DistanceMeters>26190.63332497</DistanceMeters>
          </Trackpoint>
          <Trackpoint>
            <Time>2020-09-13T09:36:47.000Z</Time>
            <Position>
              <LatitudeDegrees>41.1491754837334156036376953125</LatitudeDegrees>
              <LongitudeDegrees>-4.3172445707023143768310546875</LongitudeDegrees>
            </Position>
            <AltitudeMeters>885.79998779296875</AltitudeMeters>
            <DistanceMeters>26253.412046157</DistanceMeters>
          </Trackpoint>
          <Trackpoint>
            <Time>2020-09-13T09:36:49.000Z</Time>
            <Position>
              <LatitudeDegrees>41.14922686479985713958740234375</LatitudeDegrees>
              <LongitudeDegrees>-4.31743307970464229583740234375</LongitudeDegrees>
            </Position>
            <AltitudeMeters>885.5999755859375</AltitudeMeters>
            <DistanceMeters>26270.213779693</DistanceMeters>
          </Trackpoint>
          <Trackpoint>
            <Time>2020-09-13T09:36:52.000Z</Time>
            <Position>
              <LatitudeDegrees>41.14930070936679840087890625</LatitudeDegrees>
              <LongitudeDegrees>-4.3177168071269989013671875</LongitudeDegrees>
            </Position>
            <AltitudeMeters>884.5999755859375</AltitudeMeters>
            <DistanceMeters>26295.373437058</DistanceMeters>
          </Trackpoint>
          <Trackpoint>
            <Time>2020-09-13T09:36:56.000Z</Time>
            <Position>
              <LatitudeDegrees>41.149381510913372039794921875</LatitudeDegrees>
              <LongitudeDegrees>-4.3181245028972625732421875</LongitudeDegrees>
            </Position>
            <AltitudeMeters>882</AltitudeMeters>
            <DistanceMeters>26330.706127845</DistanceMeters>
          </Trackpoint>
          <Trackpoint>
            <Time>2020-09-13T09:37:03.000Z</Time>
            <Position>
              <LatitudeDegrees>41.14944152534008026123046875</LatitudeDegrees>
              <LongitudeDegrees>-4.318857751786708831787109375</LongitudeDegrees>
            </Position>
            <AltitudeMeters>880.4000244140625</AltitudeMeters>
            <DistanceMeters>26392.521717692</DistanceMeters>
          </Trackpoint>
          <Trackpoint>
            <Time>2020-09-13T09:37:09.000Z</Time>
            <Position>
              <LatitudeDegrees>41.1494504101574420928955078125</LatitudeDegrees>
              <LongitudeDegrees>-4.31942126713693141937255859375</LongitudeDegrees>
            </Position>
            <AltitudeMeters>879.4000244140625</AltitudeMeters>
            <DistanceMeters>26439.76031844</DistanceMeters>
          </Trackpoint>
          <Trackpoint>
            <Time>2020-09-13T09:37:10.000Z</Time>
            <Position>
              <LatitudeDegrees>41.1494510807096958160400390625</LatitudeDegrees>
              <LongitudeDegrees>-4.31951380334794521331787109375</LongitudeDegrees>
            </Position>
            <AltitudeMeters>879.20001220703125</AltitudeMeters>
            <DistanceMeters>26447.516501088</DistanceMeters>
          </Trackpoint>
          <Trackpoint>
            <Time>2020-09-13T09:37:14.000Z</Time>
            <Position>
              <LatitudeDegrees>41.14940372295677661895751953125</LatitudeDegrees>
              <LongitudeDegrees>-4.31993977166712284088134765625</LongitudeDegrees>
            </Position>
            <AltitudeMeters>878</AltitudeMeters>
            <DistanceMeters>26483.603888976</DistanceMeters>
          </Trackpoint>
          <Trackpoint>
            <Time>2020-09-13T09:37:20.000Z</Time>
            <Position>
              <LatitudeDegrees>41.14924346096813678741455078125</LatitudeDegrees>
              <LongitudeDegrees>-4.320634044706821441650390625</LongitudeDegrees>
            </Position>
            <AltitudeMeters>874.20001220703125</AltitudeMeters>
            <DistanceMeters>26544.463733171</DistanceMeters>
          </Trackpoint>
          <Trackpoint>
            <Time>2020-09-13T09:37:21.000Z</Time>
            <Position>
              <LatitudeDegrees>41.14921848289668560028076171875</LatitudeDegrees>
              <LongitudeDegrees>-4.3207565881311893463134765625</LongitudeDegrees>
            </Position>
            <AltitudeMeters>873.4000244140625</AltitudeMeters>
            <DistanceMeters>26555.104179518</DistanceMeters>
          </Trackpoint>
          <Trackpoint>
            <Time>2020-09-13T09:37:25.000Z</Time>
            <Position>
              <LatitudeDegrees>41.1491630785167217254638671875</LatitudeDegrees>
              <LongitudeDegrees>-4.321234859526157379150390625</LongitudeDegrees>
            </Position>
            <AltitudeMeters>869.79998779296875</AltitudeMeters>
            <DistanceMeters>26595.659884588</DistanceMeters>
          </Trackpoint>
          <Trackpoint>
            <Time>2020-09-13T09:37:26.000Z</Time>
            <Position>
              <LatitudeDegrees>41.14916970022022724151611328125</LatitudeDegrees>
              <LongitudeDegrees>-4.321346841752529144287109375</LongitudeDegrees>
            </Position>
            <AltitudeMeters>869</AltitudeMeters>
            <DistanceMeters>26605.073766371</DistanceMeters>
          </Trackpoint>
          <Trackpoint>
            <Time>2020-09-13T09:37:31.000Z</Time>
            <Position>
              <LatitudeDegrees>41.14924371242523193359375</LatitudeDegrees>
              <LongitudeDegrees>-4.3218851275742053985595703125</LongitudeDegrees>
            </Position>
            <AltitudeMeters>865.4000244140625</AltitudeMeters>
            <DistanceMeters>26650.933583902</DistanceMeters>
          </Trackpoint>
          <Trackpoint>
            <Time>2020-09-13T09:37:38.000Z</Time>
            <Position>
              <LatitudeDegrees>41.14936214871704578399658203125</LatitudeDegrees>
              <LongitudeDegrees>-4.3226629681885242462158203125</LongitudeDegrees>
            </Position>
            <AltitudeMeters>866</AltitudeMeters>
            <DistanceMeters>26717.443866777</DistanceMeters>
          </Trackpoint>
          <Trackpoint>
            <Time>2020-09-13T09:37:40.000Z</Time>
            <Position>
              <LatitudeDegrees>41.14940606988966464996337890625</LatitudeDegrees>
              <LongitudeDegrees>-4.322915263473987579345703125</LongitudeDegrees>
            </Position>
            <AltitudeMeters>866.4000244140625</AltitudeMeters>
            <DistanceMeters>26739.146603639</DistanceMeters>
          </Trackpoint>
          <Trackpoint>
            <Time>2020-09-13T09:37:45.000Z</Time>
            <Position>
              <LatitudeDegrees>41.1495882086455821990966796875</LatitudeDegrees>
              <LongitudeDegrees>-4.32353661395609378814697265625</LongitudeDegrees>
            </Position>
            <AltitudeMeters>865.5999755859375</AltitudeMeters>
            <DistanceMeters>26795.028694921</DistanceMeters>
          </Trackpoint>
          <Trackpoint>
            <Time>2020-09-13T09:37:50.000Z</Time>
            <Position>
              <LatitudeDegrees>41.14974729716777801513671875</LatitudeDegrees>
              <LongitudeDegrees>-4.32421538047492504119873046875</LongitudeDegrees>
            </Position>
            <AltitudeMeters>860.4000244140625</AltitudeMeters>
            <DistanceMeters>26854.607944076</DistanceMeters>
          </Trackpoint>
          <Trackpoint>
            <Time>2020-09-13T09:37:54.000Z</Time>
            <Position>
              <LatitudeDegrees>41.14975794218480587005615234375</LatitudeDegrees>
              <LongitudeDegrees>-4.3247705139219760894775390625</LongitudeDegrees>
            </Position>
            <AltitudeMeters>856.79998779296875</AltitudeMeters>
            <DistanceMeters>26901.14853256</DistanceMeters>
          </Trackpoint>
          <Trackpoint>
            <Time>2020-09-13T09:37:55.000Z</Time>
            <Position>
              <LatitudeDegrees>41.14975802600383758544921875</LatitudeDegrees>
              <LongitudeDegrees>-4.3249063007533550262451171875</LongitudeDegrees>
            </Position>
            <AltitudeMeters>856.20001220703125</AltitudeMeters>
            <DistanceMeters>26912.528750325</DistanceMeters>
          </Trackpoint>
          <Trackpoint>
            <Time>2020-09-13T09:37:58.000Z</Time>
            <Position>
              <LatitudeDegrees>41.14974536933004856109619140625</LatitudeDegrees>
              <LongitudeDegrees>-4.32529203593730926513671875</LongitudeDegrees>
            </Position>
            <AltitudeMeters>854.4000244140625</AltitudeMeters>
            <DistanceMeters>26944.887544247</DistanceMeters>
          </Trackpoint>
          <Trackpoint>
            <Time>2020-09-13T09:38:00.000Z</Time>
            <Position>
              <LatitudeDegrees>41.14971301518380641937255859375</LatitudeDegrees>
              <LongitudeDegrees>-4.32552807033061981201171875</LongitudeDegrees>
            </Position>
            <AltitudeMeters>853.5999755859375</AltitudeMeters>
            <DistanceMeters>26964.994622169</DistanceMeters>
          </Trackpoint>
          <Trackpoint>
            <Time>2020-09-13T09:38:03.000Z</Time>
            <Position>
              <LatitudeDegrees>41.14964780397713184356689453125</LatitudeDegrees>
              <LongitudeDegrees>-4.32588346302509307861328125</LongitudeDegrees>
            </Position>
            <AltitudeMeters>852.4000244140625</AltitudeMeters>
            <DistanceMeters>26995.651601086</DistanceMeters>
          </Trackpoint>
          <Trackpoint>
            <Time>2020-09-13T09:38:05.000Z</Time>
            <Position>
              <LatitudeDegrees>41.14959650672972202301025390625</LatitudeDegrees>
              <LongitudeDegrees>-4.32612796314060688018798828125</LongitudeDegrees>
            </Position>
            <AltitudeMeters>851.79998779296875</AltitudeMeters>
            <DistanceMeters>27016.923581027</DistanceMeters>
          </Trackpoint>
          <Trackpoint>
            <Time>2020-09-13T09:38:07.000Z</Time>
            <Position>
              <LatitudeDegrees>41.14954420365393161773681640625</LatitudeDegrees>
              <LongitudeDegrees>-4.32637372054159641265869140625</LongitudeDegrees>
            </Position>
            <AltitudeMeters>850.79998779296875</AltitudeMeters>
            <DistanceMeters>27038.327175074</DistanceMeters>
          </Trackpoint>
          <Trackpoint>
            <Time>2020-09-13T09:38:09.000Z</Time>
            <Position>
              <LatitudeDegrees>41.14948821254074573516845703125</LatitudeDegrees>
              <LongitudeDegrees>-4.3266121856868267059326171875</LongitudeDegrees>
            </Position>
            <AltitudeMeters>852.20001220703125</AltitudeMeters>
            <DistanceMeters>27059.261756514</DistanceMeters>
          </Trackpoint>
          <Trackpoint>
            <Time>2020-09-13T09:38:12.000Z</Time>
            <Position>
              <LatitudeDegrees>41.14940623752772808074951171875</LatitudeDegrees>
              <LongitudeDegrees>-4.32695232331752777099609375</LongitudeDegrees>
            </Position>
            <AltitudeMeters>854</AltitudeMeters>
            <DistanceMeters>27089.193059761</DistanceMeters>
          </Trackpoint>
          <Trackpoint>
            <Time>2020-09-13T09:38:14.000Z</Time>
            <Position>
              <LatitudeDegrees>41.14935745485126972198486328125</LatitudeDegrees>
              <LongitudeDegrees>-4.32716555893421173095703125</LongitudeDegrees>
            </Position>
            <AltitudeMeters>853</AltitudeMeters>
            <DistanceMeters>27107.871067507</DistanceMeters>
          </Trackpoint>
          <Trackpoint>
            <Time>2020-09-13T09:38:15.000Z</Time>
            <Position>
              <LatitudeDegrees>41.14933214150369167327880859375</LatitudeDegrees>
              <LongitudeDegrees>-4.32727008126676082611083984375</LongitudeDegrees>
            </Position>
            <AltitudeMeters>852.4000244140625</AltitudeMeters>
            <DistanceMeters>27117.072970941</DistanceMeters>
          </Trackpoint>
          <Trackpoint>
            <Time>2020-09-13T09:38:20.000Z</Time>
            <Position>
              <LatitudeDegrees>41.14919166080653667449951171875</LatitudeDegrees>
              <LongitudeDegrees>-4.327786155045032501220703125</LongitudeDegrees>
            </Position>
            <AltitudeMeters>853.79998779296875</AltitudeMeters>
            <DistanceMeters>27163.064526322</DistanceMeters>
          </Trackpoint>
          <Trackpoint>
            <Time>2020-09-13T09:38:22.000Z</Time>
            <Position>
              <LatitudeDegrees>41.14911907352507114410400390625</LatitudeDegrees>
              <LongitudeDegrees>-4.32798924855887889862060546875</LongitudeDegrees>
            </Position>
            <AltitudeMeters>854</AltitudeMeters>
            <DistanceMeters>27181.905953955</DistanceMeters>
          </Trackpoint>
          <Trackpoint>
            <Time>2020-09-13T09:38:29.000Z</Time>
            <Position>
              <LatitudeDegrees>41.1488137207925319671630859375</LatitudeDegrees>
              <LongitudeDegrees>-4.32868368923664093017578125</LongitudeDegrees>
            </Position>
            <AltitudeMeters>852.5999755859375</AltitudeMeters>
            <DistanceMeters>27249.303814413</DistanceMeters>
          </Trackpoint>
          <Trackpoint>
            <Time>2020-09-13T09:38:30.000Z</Time>
            <Position>
              <LatitudeDegrees>41.148778013885021209716796875</LatitudeDegrees>
              <LongitudeDegrees>-4.328787960112094879150390625</LongitudeDegrees>
            </Position>
            <AltitudeMeters>851</AltitudeMeters>
            <DistanceMeters>27258.904334725</DistanceMeters>
          </Trackpoint>
          <Trackpoint>
            <Time>2020-09-13T09:38:32.000Z</Time>
            <Position>
              <LatitudeDegrees>41.148739121854305267333984375</LatitudeDegrees>
              <LongitudeDegrees>-4.3290208093822002410888671875</LongitudeDegrees>
            </Position>
            <AltitudeMeters>849.5999755859375</AltitudeMeters>
            <DistanceMeters>27278.893854045</DistanceMeters>
          </Trackpoint>
          <Trackpoint>
            <Time>2020-09-13T09:38:34.000Z</Time>
            <Position>
              <LatitudeDegrees>41.14875018596649169921875</LatitudeDegrees>
              <LongitudeDegrees>-4.32926313020288944244384765625</LongitudeDegrees>
            </Position>
            <AltitudeMeters>849.5999755859375</AltitudeMeters>
            <DistanceMeters>27299.24022533</DistanceMeters>
          </Trackpoint>
          <Trackpoint>
            <Time>2020-09-13T09:38:36.000Z</Time>
            <Position>
              <LatitudeDegrees>41.1487858928740024566650390625</LatitudeDegrees>
              <LongitudeDegrees>-4.3295049481093883514404296875</LongitudeDegrees>
            </Position>
            <AltitudeMeters>850</AltitudeMeters>
            <DistanceMeters>27319.89296512</DistanceMeters>
          </Trackpoint>
          <Trackpoint>
            <Time>2020-09-13T09:38:41.000Z</Time>
            <Position>
              <LatitudeDegrees>41.148951351642608642578125</LatitudeDegrees>
              <LongitudeDegrees>-4.3300926871597766876220703125</LongitudeDegrees>
            </Position>
            <AltitudeMeters>846.5999755859375</AltitudeMeters>
            <DistanceMeters>27372.48173105</DistanceMeters>
          </Trackpoint>
          <Trackpoint>
            <Time>2020-09-13T09:38:44.000Z</Time>
            <Position>
              <LatitudeDegrees>41.1490970291197299957275390625</LatitudeDegrees>
              <LongitudeDegrees>-4.33041983284056186676025390625</LongitudeDegrees>
            </Position>
            <AltitudeMeters>846</AltitudeMeters>
            <DistanceMeters>27404.335672245</DistanceMeters>
          </Trackpoint>
          <Trackpoint>
            <Time>2020-09-13T09:38:47.000Z</Time>
            <Position>
              <LatitudeDegrees>41.14924480207264423370361328125</LatitudeDegrees>
              <LongitudeDegrees>-4.33074672706425189971923828125</LongitudeDegrees>
            </Position>
            <AltitudeMeters>846.20001220703125</AltitudeMeters>
            <DistanceMeters>27436.2906569</DistanceMeters>
          </Trackpoint>
          <Trackpoint>
            <Time>2020-09-13T09:38:49.000Z</Time>
            <Position>
              <LatitudeDegrees>41.14934404380619525909423828125</LatitudeDegrees>
              <LongitudeDegrees>-4.33097756467759609222412109375</LongitudeDegrees>
            </Position>
            <AltitudeMeters>844.4000244140625</AltitudeMeters>
            <DistanceMeters>27458.568291455</DistanceMeters>
          </Trackpoint>
          <Trackpoint>
            <Time>2020-09-13T09:38:54.000Z</Time>
            <Position>
              <LatitudeDegrees>41.14960245788097381591796875</LatitudeDegrees>
              <LongitudeDegrees>-4.33162380941212177276611328125</LongitudeDegrees>
            </Position>
            <AltitudeMeters>838.79998779296875</AltitudeMeters>
            <DistanceMeters>27519.893146746</DistanceMeters>
          </Trackpoint>
          <Trackpoint>
            <Time>2020-09-13T09:38:57.000Z</Time>
            <Position>
              <LatitudeDegrees>41.14972651004791259765625</LatitudeDegrees>
              <LongitudeDegrees>-4.33206939138472080230712890625</LongitudeDegrees>
            </Position>
            <AltitudeMeters>833.20001220703125</AltitudeMeters>
            <DistanceMeters>27559.707865879</DistanceMeters>
          </Trackpoint>
          <Trackpoint>
            <Time>2020-09-13T09:38:59.000Z</Time>
            <Position>
              <LatitudeDegrees>41.14979096688330173492431640625</LatitudeDegrees>
              <LongitudeDegrees>-4.33238823898136615753173828125</LongitudeDegrees>
            </Position>
            <AltitudeMeters>828.20001220703125</AltitudeMeters>
            <DistanceMeters>27587.376473013</DistanceMeters>
          </Trackpoint>
          <Trackpoint>
            <Time>2020-09-13T09:39:02.000Z</Time>
            <Position>
              <LatitudeDegrees>41.1498510651290416717529296875</LatitudeDegrees>
              <LongitudeDegrees>-4.33288092724978923797607421875</LongitudeDegrees>
            </Position>
            <AltitudeMeters>821</AltitudeMeters>
            <DistanceMeters>27629.206688679</DistanceMeters>
          </Trackpoint>
          <Trackpoint>
            <Time>2020-09-13T09:39:04.000Z</Time>
            <Position>
              <LatitudeDegrees>41.14986506290733814239501953125</LatitudeDegrees>
              <LongitudeDegrees>-4.33321435935795307159423828125</LongitudeDegrees>
            </Position>
            <AltitudeMeters>816.79998779296875</AltitudeMeters>
            <DistanceMeters>27657.194919623</DistanceMeters>
          </Trackpoint>
          <Trackpoint>
            <Time>2020-09-13T09:39:06.000Z</Time>
            <Position>
              <LatitudeDegrees>41.1498587764799594879150390625</LatitudeDegrees>
              <LongitudeDegrees>-4.33354829438030719757080078125</LongitudeDegrees>
            </Position>
            <AltitudeMeters>812.4000244140625</AltitudeMeters>
            <DistanceMeters>27685.190570265</DistanceMeters>
          </Trackpoint>
          <Trackpoint>
            <Time>2020-09-13T09:39:08.000Z</Time>
            <Position>
              <LatitudeDegrees>41.1498346365988254547119140625</LatitudeDegrees>
              <LongitudeDegrees>-4.333868063986301422119140625</LongitudeDegrees>
            </Position>
            <AltitudeMeters>809.79998779296875</AltitudeMeters>
            <DistanceMeters>27712.124567762</DistanceMeters>
          </Trackpoint>
          <Trackpoint>
            <Time>2020-09-13T09:39:09.000Z</Time>
            <Position>
              <LatitudeDegrees>41.1498177051544189453125</LatitudeDegrees>
              <LongitudeDegrees>-4.33402019552886486053466796875</LongitudeDegrees>
            </Position>
            <AltitudeMeters>808.79998779296875</AltitudeMeters>
            <DistanceMeters>27725.013217275</DistanceMeters>
          </Trackpoint>
          <Trackpoint>
            <Time>2020-09-13T09:39:11.000Z</Time>
            <Position>
              <LatitudeDegrees>41.149780489504337310791015625</LatitudeDegrees>
              <LongitudeDegrees>-4.334305934607982635498046875</LongitudeDegrees>
            </Position>
            <AltitudeMeters>806.79998779296875</AltitudeMeters>
            <DistanceMeters>27749.316473644</DistanceMeters>
          </Trackpoint>
          <Trackpoint>
            <Time>2020-09-13T09:39:14.000Z</Time>
            <Position>
              <LatitudeDegrees>41.14971376955509185791015625</LatitudeDegrees>
              <LongitudeDegrees>-4.334708265960216522216796875</LongitudeDegrees>
            </Position>
            <AltitudeMeters>804</AltitudeMeters>
            <DistanceMeters>27783.843878152</DistanceMeters>
          </Trackpoint>
          <Trackpoint>
            <Time>2020-09-13T09:39:15.000Z</Time>
            <Position>
              <LatitudeDegrees>41.14969071932137012481689453125</LatitudeDegrees>
              <LongitudeDegrees>-4.33483659289777278900146484375</LongitudeDegrees>
            </Position>
            <AltitudeMeters>803</AltitudeMeters>
            <DistanceMeters>27794.900513033</DistanceMeters>
          </Trackpoint>
          <Trackpoint>
            <Time>2020-09-13T09:39:20.000Z</Time>
            <Position>
              <LatitudeDegrees>41.1496257595717906951904296875</LatitudeDegrees>
              <LongitudeDegrees>-4.33543858118355274200439453125</LongitudeDegrees>
            </Position>
            <AltitudeMeters>800.20001220703125</AltitudeMeters>
            <DistanceMeters>27845.868328475</DistanceMeters>
          </Trackpoint>
          <Trackpoint>
            <Time>2020-09-13T09:39:24.000Z</Time>
            <Position>
              <LatitudeDegrees>41.1496331356465816497802734375</LatitudeDegrees>
              <LongitudeDegrees>-4.33584786951541900634765625</LongitudeDegrees>
            </Position>
            <AltitudeMeters>801.20001220703125</AltitudeMeters>
            <DistanceMeters>27880.180473652</DistanceMeters>
          </Trackpoint>
          <Trackpoint>
            <Time>2020-09-13T09:39:26.000Z</Time>
            <Position>
              <LatitudeDegrees>41.14966825582087039947509765625</LatitudeDegrees>
              <LongitudeDegrees>-4.336009137332439422607421875</LongitudeDegrees>
            </Position>
            <AltitudeMeters>801.4000244140625</AltitudeMeters>
            <DistanceMeters>27894.250204843</DistanceMeters>
          </Trackpoint>
          <Trackpoint>
            <Time>2020-09-13T09:39:27.000Z</Time>
            <Position>
              <LatitudeDegrees>41.1496864445507526397705078125</LatitudeDegrees>
              <LongitudeDegrees>-4.33608465828001499176025390625</LongitudeDegrees>
            </Position>
            <AltitudeMeters>801.4000244140625</AltitudeMeters>
            <DistanceMeters>27900.89528376</DistanceMeters>
          </Trackpoint>
          <Trackpoint>
            <Time>2020-09-13T09:39:28.000Z</Time>
            <Position>
              <LatitudeDegrees>41.1497092433273792266845703125</LatitudeDegrees>
              <LongitudeDegrees>-4.336153306066989898681640625</LongitudeDegrees>
            </Position>
            <AltitudeMeters>801.5999755859375</AltitudeMeters>
            <DistanceMeters>27907.183582795</DistanceMeters>
          </Trackpoint>
          <Trackpoint>
            <Time>2020-09-13T09:39:31.000Z</Time>
            <Position>
              <LatitudeDegrees>41.1497826687991619110107421875</LatitudeDegrees>
              <LongitudeDegrees>-4.33634147979319095611572265625</LongitudeDegrees>
            </Position>
            <AltitudeMeters>803</AltitudeMeters>
            <DistanceMeters>27924.94570009</DistanceMeters>
          </Trackpoint>
          <Trackpoint>
            <Time>2020-09-13T09:39:34.000Z</Time>
            <Position>
              <LatitudeDegrees>41.14987310953438282012939453125</LatitudeDegrees>
              <LongitudeDegrees>-4.33651230297982692718505859375</LongitudeDegrees>
            </Position>
            <AltitudeMeters>804.4000244140625</AltitudeMeters>
            <DistanceMeters>27942.446618146</DistanceMeters>
          </Trackpoint>
          <Trackpoint>
            <Time>2020-09-13T09:39:35.000Z</Time>
            <Position>
              <LatitudeDegrees>41.14990596659481525421142578125</LatitudeDegrees>
              <LongitudeDegrees>-4.3365638516843318939208984375</LongitudeDegrees>
            </Position>
            <AltitudeMeters>804.79998779296875</AltitudeMeters>
            <DistanceMeters>27948.106892983</DistanceMeters>
          </Trackpoint>
          <Trackpoint>
            <Time>2020-09-13T09:39:36.000Z</Time>
            <Position>
              <LatitudeDegrees>41.1499397456645965576171875</LatitudeDegrees>
              <LongitudeDegrees>-4.33661456219851970672607421875</LongitudeDegrees>
            </Position>
            <AltitudeMeters>805.20001220703125</AltitudeMeters>
            <DistanceMeters>27953.780712025</DistanceMeters>
          </Trackpoint>
          <Trackpoint>
            <Time>2020-09-13T09:39:40.000Z</Time>
            <Position>
              <LatitudeDegrees>41.150093972682952880859375</LatitudeDegrees>
              <LongitudeDegrees>-4.3368089385330677032470703125</LongitudeDegrees>
            </Position>
            <AltitudeMeters>804.79998779296875</AltitudeMeters>
            <DistanceMeters>27977.445607565</DistanceMeters>
          </Trackpoint>
          <Trackpoint>
            <Time>2020-09-13T09:39:41.000Z</Time>
            <Position>
              <LatitudeDegrees>41.15013563074171543121337890625</LatitudeDegrees>
              <LongitudeDegrees>-4.33685914613306522369384765625</LongitudeDegrees>
            </Position>
            <AltitudeMeters>804</AltitudeMeters>
            <DistanceMeters>27983.707284011</DistanceMeters>
          </Trackpoint>
          <Trackpoint>
            <Time>2020-09-13T09:39:44.000Z</Time>
            <Position>
              <LatitudeDegrees>41.15027845837175846099853515625</LatitudeDegrees>
              <LongitudeDegrees>-4.33699476532638072967529296875</LongitudeDegrees>
            </Position>
            <AltitudeMeters>802.20001220703125</AltitudeMeters>
            <DistanceMeters>28003.249545727</DistanceMeters>
          </Trackpoint>
          <Trackpoint>
            <Time>2020-09-13T09:39:47.000Z</Time>
            <Position>
              <LatitudeDegrees>41.1504337750375270843505859375</LatitudeDegrees>
              <LongitudeDegrees>-4.337128289043903350830078125</LongitudeDegrees>
            </Position>
            <AltitudeMeters>803</AltitudeMeters>
            <DistanceMeters>28023.842516614</DistanceMeters>
          </Trackpoint>
          <Trackpoint>
            <Time>2020-09-13T09:39:48.000Z</Time>
            <Position>
              <LatitudeDegrees>41.15048431791365146636962890625</LatitudeDegrees>
              <LongitudeDegrees>-4.337175898253917694091796875</LongitudeDegrees>
            </Position>
            <AltitudeMeters>803.20001220703125</AltitudeMeters>
            <DistanceMeters>28030.738994891</DistanceMeters>
          </Trackpoint>
          <Trackpoint>
            <Time>2020-09-13T09:39:54.000Z</Time>
            <Position>
              <LatitudeDegrees>41.15074818022549152374267578125</LatitudeDegrees>
              <LongitudeDegrees>-4.33747052215039730072021484375</LongitudeDegrees>
            </Position>
            <AltitudeMeters>805.79998779296875</AltitudeMeters>
            <DistanceMeters>28069.108141648</DistanceMeters>
          </Trackpoint>
          <Trackpoint>
            <Time>2020-09-13T09:39:55.000Z</Time>
            <Position>
              <LatitudeDegrees>41.15077969618141651153564453125</LatitudeDegrees>
              <LongitudeDegrees>-4.33752483688294887542724609375</LongitudeDegrees>
            </Position>
            <AltitudeMeters>806.79998779296875</AltitudeMeters>
            <DistanceMeters>28074.85549057</DistanceMeters>
          </Trackpoint>
          <Trackpoint>
            <Time>2020-09-13T09:39:58.000Z</Time>
            <Position>
              <LatitudeDegrees>41.15085094235837459564208984375</LatitudeDegrees>
              <LongitudeDegrees>-4.3376823328435420989990234375</LongitudeDegrees>
            </Position>
            <AltitudeMeters>808.4000244140625</AltitudeMeters>
            <DistanceMeters>28090.253923843</DistanceMeters>
          </Trackpoint>
          <Trackpoint>
            <Time>2020-09-13T09:40:00.000Z</Time>
            <Position>
              <LatitudeDegrees>41.15087910555303096771240234375</LatitudeDegrees>
              <LongitudeDegrees>-4.33777713216841220855712890625</LongitudeDegrees>
            </Position>
            <AltitudeMeters>808.79998779296875</AltitudeMeters>
            <DistanceMeters>28098.794705863</DistanceMeters>
          </Trackpoint>
          <Trackpoint>
            <Time>2020-09-13T09:40:03.000Z</Time>
            <Position>
              <LatitudeDegrees>41.15091414190828800201416015625</LatitudeDegrees>
              <LongitudeDegrees>-4.33789598755538463592529296875</LongitudeDegrees>
            </Position>
            <AltitudeMeters>809.5999755859375</AltitudeMeters>
            <DistanceMeters>28109.491861031</DistanceMeters>
          </Trackpoint>
          <Trackpoint>
            <Time>2020-09-13T09:40:06.000Z</Time>
            <Position>
              <LatitudeDegrees>41.15092881023883819580078125</LatitudeDegrees>
              <LongitudeDegrees>-4.33799564838409423828125</LongitudeDegrees>
            </Position>
            <AltitudeMeters>810.5999755859375</AltitudeMeters>
            <DistanceMeters>28118.00192643</DistanceMeters>
          </Trackpoint>
          <Trackpoint>
            <Time>2020-09-13T09:40:09.000Z</Time>
            <Position>
              <LatitudeDegrees>41.15094624459743499755859375</LatitudeDegrees>
              <LongitudeDegrees>-4.33810151182115077972412109375</LongitudeDegrees>
            </Position>
            <AltitudeMeters>811.5999755859375</AltitudeMeters>
            <DistanceMeters>28127.083318843</DistanceMeters>
          </Trackpoint>
          <Trackpoint>
            <Time>2020-09-13T09:40:14.000Z</Time>
            <Position>
              <LatitudeDegrees>41.1509759165346622467041015625</LatitudeDegrees>
              <LongitudeDegrees>-4.33825188316404819488525390625</LongitudeDegrees>
            </Position>
            <AltitudeMeters>813</AltitudeMeters>
            <DistanceMeters>28140.111339293</DistanceMeters>
          </Trackpoint>
          <Trackpoint>
            <Time>2020-09-13T09:40:20.000Z</Time>
            <Position>
              <LatitudeDegrees>41.1510013975203037261962890625</LatitudeDegrees>
              <LongitudeDegrees>-4.33842253871262073516845703125</LongitudeDegrees>
            </Position>
            <AltitudeMeters>814.4000244140625</AltitudeMeters>
            <DistanceMeters>28154.692289872</DistanceMeters>
          </Trackpoint>
          <Trackpoint>
            <Time>2020-09-13T09:40:23.000Z</Time>
            <Position>
              <LatitudeDegrees>41.15102268755435943603515625</LatitudeDegrees>
              <LongitudeDegrees>-4.33849328197538852691650390625</LongitudeDegrees>
            </Position>
            <AltitudeMeters>814.5999755859375</AltitudeMeters>
            <DistanceMeters>28161.078198204</DistanceMeters>
          </Trackpoint>
          <Trackpoint>
            <Time>2020-09-13T09:40:28.000Z</Time>
            <Position>
              <LatitudeDegrees>41.15104406140744686126708984375</LatitudeDegrees>
              <LongitudeDegrees>-4.33861046098172664642333984375</LongitudeDegrees>
            </Position>
            <AltitudeMeters>815.4000244140625</AltitudeMeters>
            <DistanceMeters>28171.182357955</DistanceMeters>
          </Trackpoint>
          <Trackpoint>
            <Time>2020-09-13T09:40:29.000Z</Time>
            <Position>
              <LatitudeDegrees>41.15104816854000091552734375</LatitudeDegrees>
              <LongitudeDegrees>-4.3386351875960826873779296875</LongitudeDegrees>
            </Position>
            <AltitudeMeters>815.5999755859375</AltitudeMeters>
            <DistanceMeters>28173.307219885</DistanceMeters>
          </Trackpoint>
          <Trackpoint>
            <Time>2020-09-13T09:40:32.000Z</Time>
            <Position>
              <LatitudeDegrees>41.15105428732931613922119140625</LatitudeDegrees>
              <LongitudeDegrees>-4.338710792362689971923828125</LongitudeDegrees>
            </Position>
            <AltitudeMeters>815.4000244140625</AltitudeMeters>
            <DistanceMeters>28179.680388943</DistanceMeters>
          </Trackpoint>
          <Trackpoint>
            <Time>2020-09-13T09:40:38.000Z</Time>
            <Position>
              <LatitudeDegrees>41.1510582268238067626953125</LatitudeDegrees>
              <LongitudeDegrees>-4.3388655222952365875244140625</LongitudeDegrees>
            </Position>
            <AltitudeMeters>815.20001220703125</AltitudeMeters>
            <DistanceMeters>28192.655624788</DistanceMeters>
          </Trackpoint>
          <Trackpoint>
            <Time>2020-09-13T09:40:39.000Z</Time>
            <Position>
              <LatitudeDegrees>41.1510555446147918701171875</LatitudeDegrees>
              <LongitudeDegrees>-4.3388913385570049285888671875</LongitudeDegrees>
            </Position>
            <AltitudeMeters>815.20001220703125</AltitudeMeters>
            <DistanceMeters>28194.839172443</DistanceMeters>
          </Trackpoint>
          <Trackpoint>
            <Time>2020-09-13T09:40:42.000Z</Time>
            <Position>
              <LatitudeDegrees>41.151048503816127777099609375</LatitudeDegrees>
              <LongitudeDegrees>-4.3389721401035785675048828125</LongitudeDegrees>
            </Position>
            <AltitudeMeters>815.20001220703125</AltitudeMeters>
            <DistanceMeters>28201.65597326</DistanceMeters>
          </Trackpoint>
          <Trackpoint>
            <Time>2020-09-13T09:40:46.000Z</Time>
            <Position>
              <LatitudeDegrees>41.15104146301746368408203125</LatitudeDegrees>
              <LongitudeDegrees>-4.33907733298838138580322265625</LongitudeDegrees>
            </Position>
            <AltitudeMeters>815.79998779296875</AltitudeMeters>
            <DistanceMeters>28210.506731033</DistanceMeters>
          </Trackpoint>
          <Trackpoint>
            <Time>2020-09-13T09:40:47.000Z</Time>
            <Position>
              <LatitudeDegrees>41.151038445532321929931640625</LatitudeDegrees>
              <LongitudeDegrees>-4.339104406535625457763671875</LongitudeDegrees>
            </Position>
            <AltitudeMeters>816.20001220703125</AltitudeMeters>
            <DistanceMeters>28212.799219744</DistanceMeters>
          </Trackpoint>
          <Trackpoint>
            <Time>2020-09-13T09:40:50.000Z</Time>
            <Position>
              <LatitudeDegrees>41.15102528594434261322021484375</LatitudeDegrees>
              <LongitudeDegrees>-4.3391843698918819427490234375</LongitudeDegrees>
            </Position>
            <AltitudeMeters>817.5999755859375</AltitudeMeters>
            <DistanceMeters>28219.659595712</DistanceMeters>
          </Trackpoint>
          <Trackpoint>
            <Time>2020-09-13T09:41:03.000Z</Time>
            <Position>
              <LatitudeDegrees>41.1509643495082855224609375</LatitudeDegrees>
              <LongitudeDegrees>-4.3395126052200794219970703125</LongitudeDegrees>
            </Position>
            <AltitudeMeters>822</AltitudeMeters>
            <DistanceMeters>28247.992061991</DistanceMeters>
          </Trackpoint>
          <Trackpoint>
            <Time>2020-09-13T09:41:11.000Z</Time>
            <Position>
              <LatitudeDegrees>41.150903664529323577880859375</LatitudeDegrees>
              <LongitudeDegrees>-4.3396678380668163299560546875</LongitudeDegrees>
            </Position>
            <AltitudeMeters>822.4000244140625</AltitudeMeters>
            <DistanceMeters>28262.650221457</DistanceMeters>
          </Trackpoint>
          <Trackpoint>
            <Time>2020-09-13T09:41:18.000Z</Time>
            <Position>
              <LatitudeDegrees>41.150832585990428924560546875</LatitudeDegrees>
              <LongitudeDegrees>-4.33979297988116741180419921875</LongitudeDegrees>
            </Position>
            <AltitudeMeters>822.79998779296875</AltitudeMeters>
            <DistanceMeters>28275.786955865</DistanceMeters>
          </Trackpoint>
          <Trackpoint>
            <Time>2020-09-13T09:41:19.000Z</Time>
            <Position>
              <LatitudeDegrees>41.15082018077373504638671875</LatitudeDegrees>
              <LongitudeDegrees>-4.33981276117265224456787109375</LongitudeDegrees>
            </Position>
            <AltitudeMeters>822.79998779296875</AltitudeMeters>
            <DistanceMeters>28277.943455197</DistanceMeters>
          </Trackpoint>
          <Trackpoint>
            <Time>2020-09-13T09:41:22.000Z</Time>
            <Position>
              <LatitudeDegrees>41.1507833003997802734375</LatitudeDegrees>
              <LongitudeDegrees>-4.3398683331906795501708984375</LongitudeDegrees>
            </Position>
            <AltitudeMeters>823</AltitudeMeters>
            <DistanceMeters>28284.151543974</DistanceMeters>
          </Trackpoint>
          <Trackpoint>
            <Time>2020-09-13T09:41:30.000Z</Time>
            <Position>
              <LatitudeDegrees>41.1506671272218227386474609375</LatitudeDegrees>
              <LongitudeDegrees>-4.3399729393422603607177734375</LongitudeDegrees>
            </Position>
            <AltitudeMeters>823.20001220703125</AltitudeMeters>
            <DistanceMeters>28299.774120782</DistanceMeters>
          </Trackpoint>
          <Trackpoint>
            <Time>2020-09-13T09:41:35.000Z</Time>
            <Position>
              <LatitudeDegrees>41.15063913166522979736328125</LatitudeDegrees>
              <LongitudeDegrees>-4.34000168927013874053955078125</LongitudeDegrees>
            </Position>
            <AltitudeMeters>823.20001220703125</AltitudeMeters>
            <DistanceMeters>28303.712860597</DistanceMeters>
          </Trackpoint>
          <Trackpoint>
            <Time>2020-09-13T09:41:41.000Z</Time>
            <Position>
              <LatitudeDegrees>41.15057132206857204437255859375</LatitudeDegrees>
              <LongitudeDegrees>-4.3400403298437595367431640625</LongitudeDegrees>
            </Position>
            <AltitudeMeters>824</AltitudeMeters>
            <DistanceMeters>28311.925390108</DistanceMeters>
          </Trackpoint>
          <Trackpoint>
            <Time>2020-09-13T09:41:42.000Z</Time>
            <Position>
              <LatitudeDegrees>41.15055908448994159698486328125</LatitudeDegrees>
              <LongitudeDegrees>-4.3400477059185504913330078125</LongitudeDegrees>
            </Position>
            <AltitudeMeters>824.20001220703125</AltitudeMeters>
            <DistanceMeters>28313.421872302</DistanceMeters>
          </Trackpoint>
          <Trackpoint>
            <Time>2020-09-13T09:41:44.000Z</Time>
            <Position>
              <LatitudeDegrees>41.1505373753607273101806640625</LatitudeDegrees>
              <LongitudeDegrees>-4.34006237424910068511962890625</LongitudeDegrees>
            </Position>
            <AltitudeMeters>824.5999755859375</AltitudeMeters>
            <DistanceMeters>28316.133049579</DistanceMeters>
          </Trackpoint>
          <Trackpoint>
            <Time>2020-09-13T09:41:48.000Z</Time>
            <Position>
              <LatitudeDegrees>41.15049052052199840545654296875</LatitudeDegrees>
              <LongitudeDegrees>-4.34009271673858165740966796875</LongitudeDegrees>
            </Position>
            <AltitudeMeters>825.4000244140625</AltitudeMeters>
            <DistanceMeters>28321.935128946</DistanceMeters>
          </Trackpoint>
          <Trackpoint>
            <Time>2020-09-13T09:41:53.000Z</Time>
            <Position>
              <LatitudeDegrees>41.1504225432872772216796875</LatitudeDegrees>
              <LongitudeDegrees>-4.34013864956796169281005859375</LongitudeDegrees>
            </Position>
            <AltitudeMeters>826.79998779296875</AltitudeMeters>
            <DistanceMeters>28330.424477572</DistanceMeters>
          </Trackpoint>
          <Trackpoint>
            <Time>2020-09-13T09:41:54.000Z</Time>
            <Position>
              <LatitudeDegrees>41.1504089646041393280029296875</LatitudeDegrees>
              <LongitudeDegrees>-4.34014619328081607818603515625</LongitudeDegrees>
            </Position>
            <AltitudeMeters>827</AltitudeMeters>
            <DistanceMeters>28332.064893002</DistanceMeters>
          </Trackpoint>
          <Trackpoint>
            <Time>2020-09-13T09:41:55.000Z</Time>
            <Position>
              <LatitudeDegrees>41.15039479918777942657470703125</LatitudeDegrees>
              <LongitudeDegrees>-4.340152479708194732666015625</LongitudeDegrees>
            </Position>
            <AltitudeMeters>827.20001220703125</AltitudeMeters>
            <DistanceMeters>28333.727181602</DistanceMeters>
          </Trackpoint>
          <Trackpoint>
            <Time>2020-09-13T09:41:56.000Z</Time>
            <Position>
              <LatitudeDegrees>41.15038298070430755615234375</LatitudeDegrees>
              <LongitudeDegrees>-4.340157844126224517822265625</LongitudeDegrees>
            </Position>
            <AltitudeMeters>827.4000244140625</AltitudeMeters>
            <DistanceMeters>28335.11405084</DistanceMeters>
          </Trackpoint>
          <Trackpoint>
            <Time>2020-09-13T09:41:57.000Z</Time>
            <Position>
              <LatitudeDegrees>41.15037200041115283966064453125</LatitudeDegrees>
              <LongitudeDegrees>-4.3401637114584445953369140625</LongitudeDegrees>
            </Position>
            <AltitudeMeters>827.5999755859375</AltitudeMeters>
            <DistanceMeters>28336.430779619</DistanceMeters>
          </Trackpoint>
          <Trackpoint>
            <Time>2020-09-13T09:41:59.000Z</Time>
            <Position>
              <LatitudeDegrees>41.150351464748382568359375</LatitudeDegrees>
              <LongitudeDegrees>-4.3401767872273921966552734375</LongitudeDegrees>
            </Position>
            <AltitudeMeters>828</AltitudeMeters>
            <DistanceMeters>28338.966408619</DistanceMeters>
          </Trackpoint>
          <Trackpoint>
            <Time>2020-09-13T09:42:01.000Z</Time>
            <Position>
              <LatitudeDegrees>41.1503335274755954742431640625</LatitudeDegrees>
              <LongitudeDegrees>-4.34018776752054691314697265625</LongitudeDegrees>
            </Position>
            <AltitudeMeters>828.4000244140625</AltitudeMeters>
            <DistanceMeters>28341.164382891</DistanceMeters>
          </Trackpoint>
          <Trackpoint>
            <Time>2020-09-13T09:42:03.000Z</Time>
            <Position>
              <LatitudeDegrees>41.15031466819345951080322265625</LatitudeDegrees>
              <LongitudeDegrees>-4.34020117856562137603759765625</LongitudeDegrees>
            </Position>
            <AltitudeMeters>828.5999755859375</AltitudeMeters>
            <DistanceMeters>28343.545745527</DistanceMeters>
          </Trackpoint>
          <Trackpoint>
            <Time>2020-09-13T09:42:06.000Z</Time>
            <Position>
              <LatitudeDegrees>41.1502825655043125152587890625</LatitudeDegrees>
              <LongitudeDegrees>-4.34022682718932628631591796875</LongitudeDegrees>
            </Position>
            <AltitudeMeters>829.20001220703125</AltitudeMeters>
            <DistanceMeters>28347.715025699</DistanceMeters>
          </Trackpoint>
          <Trackpoint>
            <Time>2020-09-13T09:42:09.000Z</Time>
            <Position>
              <LatitudeDegrees>41.1502493731677532196044921875</LatitudeDegrees>
              <LongitudeDegrees>-4.34025163762271404266357421875</LongitudeDegrees>
            </Position>
            <AltitudeMeters>830</AltitudeMeters>
            <DistanceMeters>28351.954111936</DistanceMeters>
          </Trackpoint>
          <Trackpoint>
            <Time>2020-09-13T09:42:14.000Z</Time>
            <Position>
              <LatitudeDegrees>41.15018474869430065155029296875</LatitudeDegrees>
              <LongitudeDegrees>-4.3402941338717937469482421875</LongitudeDegrees>
            </Position>
            <AltitudeMeters>831</AltitudeMeters>
            <DistanceMeters>28359.98035423</DistanceMeters>
          </Trackpoint>
          <Trackpoint>
            <Time>2020-09-13T09:42:18.000Z</Time>
            <Position>
              <LatitudeDegrees>41.1501320265233516693115234375</LatitudeDegrees>
              <LongitudeDegrees>-4.3403259851038455963134765625</LongitudeDegrees>
            </Position>
            <AltitudeMeters>832</AltitudeMeters>
            <DistanceMeters>28366.426780511</DistanceMeters>
          </Trackpoint>
          <Trackpoint>
            <Time>2020-09-13T09:42:23.000Z</Time>
            <Position>
              <LatitudeDegrees>41.1500679887831211090087890625</LatitudeDegrees>
              <LongitudeDegrees>-4.34037141501903533935546875</LongitudeDegrees>
            </Position>
            <AltitudeMeters>833.20001220703125</AltitudeMeters>
            <DistanceMeters>28374.506845652</DistanceMeters>
          </Trackpoint>
          <Trackpoint>
            <Time>2020-09-13T09:42:30.000Z</Time>
            <Position>
              <LatitudeDegrees>41.149980314075946807861328125</LatitudeDegrees>
              <LongitudeDegrees>-4.34043553657829761505126953125</LongitudeDegrees>
            </Position>
            <AltitudeMeters>834.79998779296875</AltitudeMeters>
            <DistanceMeters>28385.647284182</DistanceMeters>
          </Trackpoint>
          <Trackpoint>
            <Time>2020-09-13T09:42:34.000Z</Time>
            <Position>
              <LatitudeDegrees>41.14992440678179264068603515625</LatitudeDegrees>
              <LongitudeDegrees>-4.34047057293355464935302734375</LongitudeDegrees>
            </Position>
            <AltitudeMeters>835.5999755859375</AltitudeMeters>
            <DistanceMeters>28392.527375804</DistanceMeters>
          </Trackpoint>
          <Trackpoint>
            <Time>2020-09-13T09:42:36.000Z</Time>
            <Position>
              <LatitudeDegrees>41.14989817142486572265625</LatitudeDegrees>
              <LongitudeDegrees>-4.34048884548246860504150390625</LongitudeDegrees>
            </Position>
            <AltitudeMeters>836.20001220703125</AltitudeMeters>
            <DistanceMeters>28395.824679556</DistanceMeters>
          </Trackpoint>
          <Trackpoint>
            <Time>2020-09-13T09:42:38.000Z</Time>
            <Position>
              <LatitudeDegrees>41.14987378008663654327392578125</LatitudeDegrees>
              <LongitudeDegrees>-4.34050778858363628387451171875</LongitudeDegrees>
            </Position>
            <AltitudeMeters>836.5999755859375</AltitudeMeters>
            <DistanceMeters>28398.970623577</DistanceMeters>
          </Trackpoint>
          <Trackpoint>
            <Time>2020-09-13T09:42:40.000Z</Time>
            <Position>
              <LatitudeDegrees>41.1498510651290416717529296875</LatitudeDegrees>
              <LongitudeDegrees>-4.34052723459899425506591796875</LongitudeDegrees>
            </Position>
            <AltitudeMeters>837</AltitudeMeters>
            <DistanceMeters>28401.978635645</DistanceMeters>
          </Trackpoint>
          <Trackpoint>
            <Time>2020-09-13T09:42:42.000Z</Time>
            <Position>
              <LatitudeDegrees>41.14982239902019500732421875</LatitudeDegrees>
              <LongitudeDegrees>-4.34054818935692310333251953125</LongitudeDegrees>
            </Position>
            <AltitudeMeters>837.4000244140625</AltitudeMeters>
            <DistanceMeters>28405.619535564</DistanceMeters>
          </Trackpoint>
          <Trackpoint>
            <Time>2020-09-13T09:42:43.000Z</Time>
            <Position>
              <LatitudeDegrees>41.1498128436505794525146484375</LatitudeDegrees>
              <LongitudeDegrees>-4.34055556543171405792236328125</LongitudeDegrees>
            </Position>
            <AltitudeMeters>837.5999755859375</AltitudeMeters>
            <DistanceMeters>28406.851222554</DistanceMeters>
          </Trackpoint>
          <Trackpoint>
            <Time>2020-09-13T09:42:44.000Z</Time>
            <Position>
              <LatitudeDegrees>41.14980152808129787445068359375</LatitudeDegrees>
              <LongitudeDegrees>-4.34056495316326618194580078125</LongitudeDegrees>
            </Position>
            <AltitudeMeters>837.79998779296875</AltitudeMeters>
            <DistanceMeters>28408.335587284</DistanceMeters>
          </Trackpoint>
          <Trackpoint>
            <Time>2020-09-13T09:42:46.000Z</Time>
            <Position>
              <LatitudeDegrees>41.1497789807617664337158203125</LatitudeDegrees>
              <LongitudeDegrees>-4.34058607555925846099853515625</LongitudeDegrees>
            </Position>
            <AltitudeMeters>838.20001220703125</AltitudeMeters>
            <DistanceMeters>28411.407464542</DistanceMeters>
          </Trackpoint>
          <Trackpoint>
            <Time>2020-09-13T09:42:48.000Z</Time>
            <Position>
              <LatitudeDegrees>41.14975442178547382354736328125</LatitudeDegrees>
              <LongitudeDegrees>-4.34060744941234588623046875</LongitudeDegrees>
            </Position>
            <AltitudeMeters>838.5999755859375</AltitudeMeters>
            <DistanceMeters>28414.677267366</DistanceMeters>
          </Trackpoint>
          <Trackpoint>
            <Time>2020-09-13T09:42:55.000Z</Time>
            <Position>
              <LatitudeDegrees>41.14966624416410923004150390625</LatitudeDegrees>
              <LongitudeDegrees>-4.34067693538963794708251953125</LongitudeDegrees>
            </Position>
            <AltitudeMeters>839.4000244140625</AltitudeMeters>
            <DistanceMeters>28426.089180548</DistanceMeters>
          </Trackpoint>
          <Trackpoint>
            <Time>2020-09-13T09:43:07.000Z</Time>
            <Position>
              <LatitudeDegrees>41.149505563080310821533203125</LatitudeDegrees>
              <LongitudeDegrees>-4.34079545550048351287841796875</LongitudeDegrees>
            </Position>
            <AltitudeMeters>841.20001220703125</AltitudeMeters>
            <DistanceMeters>28446.546646737</DistanceMeters>
          </Trackpoint>
          <Trackpoint>
            <Time>2020-09-13T09:43:20.000Z</Time>
            <Position>
              <LatitudeDegrees>41.14935494028031826019287109375</LatitudeDegrees>
              <LongitudeDegrees>-4.34091481380164623260498046875</LongitudeDegrees>
            </Position>
            <AltitudeMeters>842.79998779296875</AltitudeMeters>
            <DistanceMeters>28466.069028927</DistanceMeters>
          </Trackpoint>
          <Trackpoint>
            <Time>2020-09-13T09:43:34.000Z</Time>
            <Position>
              <LatitudeDegrees>41.14919719286262989044189453125</LatitudeDegrees>
              <LongitudeDegrees>-4.3410568870604038238525390625</LongitudeDegrees>
            </Position>
            <AltitudeMeters>844.4000244140625</AltitudeMeters>
            <DistanceMeters>28487.283410368</DistanceMeters>
          </Trackpoint>
          <Trackpoint>
            <Time>2020-09-13T09:43:47.000Z</Time>
            <Position>
              <LatitudeDegrees>41.1490604840219020843505859375</LatitudeDegrees>
              <LongitudeDegrees>-4.341196529567241668701171875</LongitudeDegrees>
            </Position>
            <AltitudeMeters>845.5999755859375</AltitudeMeters>
            <DistanceMeters>28506.479982708</DistanceMeters>
          </Trackpoint>
          <Trackpoint>
            <Time>2020-09-13T09:44:00.000Z</Time>
            <Position>
              <LatitudeDegrees>41.1489189974963665008544921875</LatitudeDegrees>
              <LongitudeDegrees>-4.34131965972483158111572265625</LongitudeDegrees>
            </Position>
            <AltitudeMeters>846.4000244140625</AltitudeMeters>
            <DistanceMeters>28525.307746273</DistanceMeters>
          </Trackpoint>
          <Trackpoint>
            <Time>2020-09-13T09:44:12.000Z</Time>
            <Position>
              <LatitudeDegrees>41.14877759478986263275146484375</LatitudeDegrees>
              <LongitudeDegrees>-4.34142158366739749908447265625</LongitudeDegrees>
            </Position>
            <AltitudeMeters>847</AltitudeMeters>
            <DistanceMeters>28543.215176984</DistanceMeters>
          </Trackpoint>
          <Trackpoint>
            <Time>2020-09-13T09:44:15.000Z</Time>
            <Position>
              <LatitudeDegrees>41.14873501472175121307373046875</LatitudeDegrees>
              <LongitudeDegrees>-4.34144505299627780914306640625</LongitudeDegrees>
            </Position>
            <AltitudeMeters>847.20001220703125</AltitudeMeters>
            <DistanceMeters>28548.34661956</DistanceMeters>
          </Trackpoint>
          <Trackpoint>
            <Time>2020-09-13T09:44:29.000Z</Time>
            <Position>
              <LatitudeDegrees>41.1485609225928783416748046875</LatitudeDegrees>
              <LongitudeDegrees>-4.34156768023967742919921875</LongitudeDegrees>
            </Position>
            <AltitudeMeters>848.20001220703125</AltitudeMeters>
            <DistanceMeters>28570.280300342</DistanceMeters>
          </Trackpoint>
          <Trackpoint>
            <Time>2020-09-13T09:44:38.000Z</Time>
            <Position>
              <LatitudeDegrees>41.14845740608870983123779296875</LatitudeDegrees>
              <LongitudeDegrees>-4.34164940379559993743896484375</LongitudeDegrees>
            </Position>
            <AltitudeMeters>848.5999755859375</AltitudeMeters>
            <DistanceMeters>28583.684120728</DistanceMeters>
          </Trackpoint>
          <Trackpoint>
            <Time>2020-09-13T09:44:55.000Z</Time>
            <Position>
              <LatitudeDegrees>41.148261018097400665283203125</LatitudeDegrees>
              <LongitudeDegrees>-4.34179659001529216766357421875</LongitudeDegrees>
            </Position>
            <AltitudeMeters>849.79998779296875</AltitudeMeters>
            <DistanceMeters>28608.783228739</DistanceMeters>
          </Trackpoint>
          <Trackpoint>
            <Time>2020-09-13T09:45:07.000Z</Time>
            <Position>
              <LatitudeDegrees>41.148107461631298065185546875</LatitudeDegrees>
              <LongitudeDegrees>-4.3418937362730503082275390625</LongitudeDegrees>
            </Position>
            <AltitudeMeters>850.79998779296875</AltitudeMeters>
            <DistanceMeters>28627.714305674</DistanceMeters>
          </Trackpoint>
          <Trackpoint>
            <Time>2020-09-13T09:45:21.000Z</Time>
            <Position>
              <LatitudeDegrees>41.1479520611464977264404296875</LatitudeDegrees>
              <LongitudeDegrees>-4.34201586060225963592529296875</LongitudeDegrees>
            </Position>
            <AltitudeMeters>851.4000244140625</AltitudeMeters>
            <DistanceMeters>28647.8123996</DistanceMeters>
          </Trackpoint>
          <Trackpoint>
            <Time>2020-09-13T09:45:34.000Z</Time>
            <Position>
              <LatitudeDegrees>41.14780847914516925811767578125</LatitudeDegrees>
              <LongitudeDegrees>-4.34211594052612781524658203125</LongitudeDegrees>
            </Position>
            <AltitudeMeters>852.4000244140625</AltitudeMeters>
            <DistanceMeters>28665.860972332</DistanceMeters>
          </Trackpoint>
          <Trackpoint>
            <Time>2020-09-13T09:45:45.000Z</Time>
            <Position>
              <LatitudeDegrees>41.14768224768340587615966796875</LatitudeDegrees>
              <LongitudeDegrees>-4.34220059774816036224365234375</LongitudeDegrees>
            </Position>
            <AltitudeMeters>853.20001220703125</AltitudeMeters>
            <DistanceMeters>28681.600448726</DistanceMeters>
          </Trackpoint>
          <Trackpoint>
            <Time>2020-09-13T09:45:58.000Z</Time>
            <Position>
              <LatitudeDegrees>41.1475306190550327301025390625</LatitudeDegrees>
              <LongitudeDegrees>-4.3423161841928958892822265625</LongitudeDegrees>
            </Position>
            <AltitudeMeters>854.4000244140625</AltitudeMeters>
            <DistanceMeters>28701.059822447</DistanceMeters>
          </Trackpoint>
          <Trackpoint>
            <Time>2020-09-13T09:46:11.000Z</Time>
            <Position>
              <LatitudeDegrees>41.14739097654819488525390625</LatitudeDegrees>
              <LongitudeDegrees>-4.3424248136579990386962890625</LongitudeDegrees>
            </Position>
            <AltitudeMeters>855.20001220703125</AltitudeMeters>
            <DistanceMeters>28719.072586718</DistanceMeters>
          </Trackpoint>
          <Trackpoint>
            <Time>2020-09-13T09:46:20.000Z</Time>
            <Position>
              <LatitudeDegrees>41.14729768596589565277099609375</LatitudeDegrees>
              <LongitudeDegrees>-4.34250251390039920806884765625</LongitudeDegrees>
            </Position>
            <AltitudeMeters>855.79998779296875</AltitudeMeters>
            <DistanceMeters>28731.329191131</DistanceMeters>
          </Trackpoint>
          <Trackpoint>
            <Time>2020-09-13T09:46:25.000Z</Time>
            <Position>
              <LatitudeDegrees>41.147242449223995208740234375</LatitudeDegrees>
              <LongitudeDegrees>-4.34254324994981288909912109375</LongitudeDegrees>
            </Position>
            <AltitudeMeters>856.4000244140625</AltitudeMeters>
            <DistanceMeters>28738.362452022</DistanceMeters>
          </Trackpoint>
          <Trackpoint>
            <Time>2020-09-13T09:46:38.000Z</Time>
            <Position>
              <LatitudeDegrees>41.147094257175922393798828125</LatitudeDegrees>
              <LongitudeDegrees>-4.34266344644129276275634765625</LongitudeDegrees>
            </Position>
            <AltitudeMeters>858.20001220703125</AltitudeMeters>
            <DistanceMeters>28757.690054106</DistanceMeters>
          </Trackpoint>
          <Trackpoint>
            <Time>2020-09-13T09:46:52.000Z</Time>
            <Position>
              <LatitudeDegrees>41.146929971873760223388671875</LatitudeDegrees>
              <LongitudeDegrees>-4.342789091169834136962890625</LongitudeDegrees>
            </Position>
            <AltitudeMeters>860</AltitudeMeters>
            <DistanceMeters>28778.79112065</DistanceMeters>
          </Trackpoint>
          <Trackpoint>
            <Time>2020-09-13T09:47:07.000Z</Time>
            <Position>
              <LatitudeDegrees>41.1467720568180084228515625</LatitudeDegrees>
              <LongitudeDegrees>-4.342926554381847381591796875</LongitudeDegrees>
            </Position>
            <AltitudeMeters>862</AltitudeMeters>
            <DistanceMeters>28799.807068617</DistanceMeters>
          </Trackpoint>
          <Trackpoint>
            <Time>2020-09-13T09:47:18.000Z</Time>
            <Position>
              <LatitudeDegrees>41.14665010012686252593994140625</LatitudeDegrees>
              <LongitudeDegrees>-4.343025796115398406982421875</LongitudeDegrees>
            </Position>
            <AltitudeMeters>863.4000244140625</AltitudeMeters>
            <DistanceMeters>28815.726525122</DistanceMeters>
          </Trackpoint>
          <Trackpoint>
            <Time>2020-09-13T09:47:33.000Z</Time>
            <Position>
              <LatitudeDegrees>41.14647223614156246185302734375</LatitudeDegrees>
              <LongitudeDegrees>-4.343164600431919097900390625</LongitudeDegrees>
            </Position>
            <AltitudeMeters>865.5999755859375</AltitudeMeters>
            <DistanceMeters>28838.688408829</DistanceMeters>
          </Trackpoint>
          <Trackpoint>
            <Time>2020-09-13T09:47:41.000Z</Time>
            <Position>
              <LatitudeDegrees>41.1463844776153564453125</LatitudeDegrees>
              <LongitudeDegrees>-4.34323106892406940460205078125</LongitudeDegrees>
            </Position>
            <AltitudeMeters>866.20001220703125</AltitudeMeters>
            <DistanceMeters>28849.933325923</DistanceMeters>
          </Trackpoint>
          <Trackpoint>
            <Time>2020-09-13T09:47:53.000Z</Time>
            <Position>
              <LatitudeDegrees>41.14625330083072185516357421875</LatitudeDegrees>
              <LongitudeDegrees>-4.343342967331409454345703125</LongitudeDegrees>
            </Position>
            <AltitudeMeters>866.20001220703125</AltitudeMeters>
            <DistanceMeters>28867.286567386</DistanceMeters>
          </Trackpoint>
          <Trackpoint>
            <Time>2020-09-13T09:48:06.000Z</Time>
            <Position>
              <LatitudeDegrees>41.146101169288158416748046875</LatitudeDegrees>
              <LongitudeDegrees>-4.3434470705687999725341796875</LongitudeDegrees>
            </Position>
            <AltitudeMeters>866.20001220703125</AltitudeMeters>
            <DistanceMeters>28886.334861314</DistanceMeters>
          </Trackpoint>
          <Trackpoint>
            <Time>2020-09-13T09:48:19.000Z</Time>
            <Position>
              <LatitudeDegrees>41.1459655500948429107666015625</LatitudeDegrees>
              <LongitudeDegrees>-4.3435479886829853057861328125</LongitudeDegrees>
            </Position>
            <AltitudeMeters>866.4000244140625</AltitudeMeters>
            <DistanceMeters>28903.63807531</DistanceMeters>
          </Trackpoint>
          <Trackpoint>
            <Time>2020-09-13T09:48:20.000Z</Time>
            <Position>
              <LatitudeDegrees>41.1459571681916713714599609375</LatitudeDegrees>
              <LongitudeDegrees>-4.34355628676712512969970703125</LongitudeDegrees>
            </Position>
            <AltitudeMeters>866.4000244140625</AltitudeMeters>
            <DistanceMeters>28904.794125185</DistanceMeters>
          </Trackpoint>
          <Trackpoint>
            <Time>2020-09-13T09:48:21.000Z</Time>
            <Position>
              <LatitudeDegrees>41.14594501443207263946533203125</LatitudeDegrees>
              <LongitudeDegrees>-4.34356215409934520721435546875</LongitudeDegrees>
            </Position>
            <AltitudeMeters>866.4000244140625</AltitudeMeters>
            <DistanceMeters>28906.232140312</DistanceMeters>
          </Trackpoint>
          <Trackpoint>
            <Time>2020-09-13T09:48:23.000Z</Time>
            <Position>
              <LatitudeDegrees>41.14593344740569591522216796875</LatitudeDegrees>
              <LongitudeDegrees>-4.3435684405267238616943359375</LongitudeDegrees>
            </Position>
            <AltitudeMeters>866.4000244140625</AltitudeMeters>
            <DistanceMeters>28907.622261299</DistanceMeters>
          </Trackpoint>
          <Trackpoint>
            <Time>2020-09-13T09:48:28.000Z</Time>
            <Position>
              <LatitudeDegrees>41.14593378268182277679443359375</LatitudeDegrees>
              <LongitudeDegrees>-4.34357405640184879302978515625</LongitudeDegrees>
            </Position>
            <AltitudeMeters>866.4000244140625</AltitudeMeters>
            <DistanceMeters>28908.097394871</DistanceMeters>
          </Trackpoint>
          <Trackpoint>
            <Time>2020-09-13T09:48:29.000Z</Time>
            <Position>
              <LatitudeDegrees>41.1459333635866641998291015625</LatitudeDegrees>
              <LongitudeDegrees>-4.3435748107731342315673828125</LongitudeDegrees>
            </Position>
            <AltitudeMeters>866.4000244140625</AltitudeMeters>
            <DistanceMeters>28908.231782939</DistanceMeters>
          </Trackpoint>
          <Trackpoint>
            <Time>2020-09-13T09:48:30.000Z</Time>
            <Position>
              <LatitudeDegrees>41.14593319594860076904296875</LatitudeDegrees>
              <LongitudeDegrees>-4.343574307858943939208984375</LongitudeDegrees>
            </Position>
            <AltitudeMeters>866.4000244140625</AltitudeMeters>
            <DistanceMeters>28908.231782939</DistanceMeters>
          </Trackpoint>
          <Trackpoint>
            <Time>2020-09-13T09:48:31.000Z</Time>
            <Position>
              <LatitudeDegrees>41.145932860672473907470703125</LatitudeDegrees>
              <LongitudeDegrees>-4.343572966754436492919921875</LongitudeDegrees>
            </Position>
            <AltitudeMeters>866.4000244140625</AltitudeMeters>
            <DistanceMeters>28908.326809654</DistanceMeters>
          </Trackpoint>
          <Trackpoint>
            <Time>2020-09-13T09:48:33.000Z</Time>
            <Position>
              <LatitudeDegrees>41.1459340341389179229736328125</LatitudeDegrees>
              <LongitudeDegrees>-4.34357824735343456268310546875</LongitudeDegrees>
            </Position>
            <AltitudeMeters>866.4000244140625</AltitudeMeters>
            <DistanceMeters>28908.792343578</DistanceMeters>
          </Trackpoint>
          <Trackpoint>
            <Time>2020-09-13T09:48:35.000Z</Time>
            <Position>
              <LatitudeDegrees>41.1459326930344104766845703125</LatitudeDegrees>
              <LongitudeDegrees>-4.3435764871537685394287109375</LongitudeDegrees>
            </Position>
            <AltitudeMeters>866.4000244140625</AltitudeMeters>
            <DistanceMeters>28908.982397007</DistanceMeters>
          </Trackpoint>
          <Trackpoint>
            <Time>2020-09-13T09:48:37.000Z</Time>
            <Position>
              <LatitudeDegrees>41.1459326930344104766845703125</LatitudeDegrees>
              <LongitudeDegrees>-4.3435764871537685394287109375</LongitudeDegrees>
            </Position>
            <AltitudeMeters>866.4000244140625</AltitudeMeters>
            <DistanceMeters>28908.982397007</DistanceMeters>
          </Trackpoint>
          <Trackpoint>
            <Time>2020-09-13T09:48:40.000Z</Time>
            <Position>
              <LatitudeDegrees>41.1459326930344104766845703125</LatitudeDegrees>
              <LongitudeDegrees>-4.3435764871537685394287109375</LongitudeDegrees>
            </Position>
            <AltitudeMeters>866.4000244140625</AltitudeMeters>
            <DistanceMeters>28908.982397007</DistanceMeters>
          </Trackpoint>
          <Trackpoint>
            <Time>2020-09-13T09:48:54.000Z</Time>
            <Position>
              <LatitudeDegrees>41.1459326930344104766845703125</LatitudeDegrees>
              <LongitudeDegrees>-4.34357740916311740875244140625</LongitudeDegrees>
            </Position>
            <AltitudeMeters>866.4000244140625</AltitudeMeters>
            <DistanceMeters>28909.077423721</DistanceMeters>
          </Trackpoint>
          <Trackpoint>
            <Time>2020-09-13T09:48:55.000Z</Time>
            <Position>
              <LatitudeDegrees>41.1459325253963470458984375</LatitudeDegrees>
              <LongitudeDegrees>-4.34357774443924427032470703125</LongitudeDegrees>
            </Position>
            <AltitudeMeters>866.4000244140625</AltitudeMeters>
            <DistanceMeters>28909.077423721</DistanceMeters>
          </Trackpoint>
          <Trackpoint>
            <Time>2020-09-13T09:48:56.000Z</Time>
            <Position>
              <LatitudeDegrees>41.145930849015712738037109375</LatitudeDegrees>
              <LongitudeDegrees>-4.3435781635344028472900390625</LongitudeDegrees>
            </Position>
            <AltitudeMeters>866.4000244140625</AltitudeMeters>
            <DistanceMeters>28909.26747715</DistanceMeters>
          </Trackpoint>
          <Trackpoint>
            <Time>2020-09-13T09:49:02.000Z</Time>
            <Position>
              <LatitudeDegrees>41.14592690952122211456298828125</LatitudeDegrees>
              <LongitudeDegrees>-4.343580342829227447509765625</LongitudeDegrees>
            </Position>
            <AltitudeMeters>866.4000244140625</AltitudeMeters>
            <DistanceMeters>28909.733011074</DistanceMeters>
          </Trackpoint>
          <Trackpoint>
            <Time>2020-09-13T09:49:06.000Z</Time>
            <Position>
              <LatitudeDegrees>41.14592690952122211456298828125</LatitudeDegrees>
              <LongitudeDegrees>-4.343580342829227447509765625</LongitudeDegrees>
            </Position>
            <AltitudeMeters>866.4000244140625</AltitudeMeters>
            <DistanceMeters>28909.733011074</DistanceMeters>
          </Trackpoint>
          <Trackpoint>
            <Time>2020-09-13T09:49:21.000Z</Time>
            <Position>
              <LatitudeDegrees>41.14592690952122211456298828125</LatitudeDegrees>
              <LongitudeDegrees>-4.3435828574001789093017578125</LongitudeDegrees>
            </Position>
            <AltitudeMeters>866.4000244140625</AltitudeMeters>
            <DistanceMeters>28909.923064503</DistanceMeters>
          </Trackpoint>
          <Trackpoint>
            <Time>2020-09-13T09:49:23.000Z</Time>
            <Position>
              <LatitudeDegrees>41.14592690952122211456298828125</LatitudeDegrees>
              <LongitudeDegrees>-4.3435831926763057708740234375</LongitudeDegrees>
            </Position>
            <AltitudeMeters>866.4000244140625</AltitudeMeters>
            <DistanceMeters>28909.923064503</DistanceMeters>
          </Trackpoint>
          <Trackpoint>
            <Time>2020-09-13T09:49:24.000Z</Time>
            <Position>
              <LatitudeDegrees>41.14592690952122211456298828125</LatitudeDegrees>
              <LongitudeDegrees>-4.3435831926763057708740234375</LongitudeDegrees>
            </Position>
            <AltitudeMeters>866.4000244140625</AltitudeMeters>
            <DistanceMeters>28909.923064503</DistanceMeters>
          </Trackpoint>
          <Trackpoint>
            <Time>2020-09-13T09:49:25.000Z</Time>
            <Position>
              <LatitudeDegrees>41.14592690952122211456298828125</LatitudeDegrees>
              <LongitudeDegrees>-4.3435831926763057708740234375</LongitudeDegrees>
            </Position>
            <AltitudeMeters>866.4000244140625</AltitudeMeters>
            <DistanceMeters>28909.923064503</DistanceMeters>
          </Trackpoint>
          <Trackpoint>
            <Time>2020-09-13T09:49:26.000Z</Time>
            <Position>
              <LatitudeDegrees>41.14592690952122211456298828125</LatitudeDegrees>
              <LongitudeDegrees>-4.3435831926763057708740234375</LongitudeDegrees>
            </Position>
            <AltitudeMeters>866.4000244140625</AltitudeMeters>
            <DistanceMeters>28909.923064503</DistanceMeters>
          </Trackpoint>
          <Trackpoint>
            <Time>2020-09-13T09:49:29.000Z</Time>
            <Position>
              <LatitudeDegrees>41.14592590369284152984619140625</LatitudeDegrees>
              <LongitudeDegrees>-4.3435841985046863555908203125</LongitudeDegrees>
            </Position>
            <AltitudeMeters>866.4000244140625</AltitudeMeters>
            <DistanceMeters>28910.018091217</DistanceMeters>
          </Trackpoint>
          <Trackpoint>
            <Time>2020-09-13T09:49:34.000Z</Time>
            <Position>
              <LatitudeDegrees>41.14592556841671466827392578125</LatitudeDegrees>
              <LongitudeDegrees>-4.3435852043330669403076171875</LongitudeDegrees>
            </Position>
            <AltitudeMeters>866.4000244140625</AltitudeMeters>
            <DistanceMeters>28910.113117932</DistanceMeters>
          </Trackpoint>
          <Trackpoint>
            <Time>2020-09-13T09:49:37.000Z</Time>
            <Position>
              <LatitudeDegrees>41.1459246464073657989501953125</LatitudeDegrees>
              <LongitudeDegrees>-4.3435852043330669403076171875</LongitudeDegrees>
            </Position>
            <AltitudeMeters>866.4000244140625</AltitudeMeters>
            <DistanceMeters>28910.208144646</DistanceMeters>
          </Trackpoint>
          <Trackpoint>
            <Time>2020-09-13T09:49:41.000Z</Time>
            <Position>
              <LatitudeDegrees>41.14592405967414379119873046875</LatitudeDegrees>
              <LongitudeDegrees>-4.3435852043330669403076171875</LongitudeDegrees>
            </Position>
            <AltitudeMeters>866.4000244140625</AltitudeMeters>
            <DistanceMeters>28910.208144646</DistanceMeters>
          </Trackpoint>
          <Trackpoint>
            <Time>2020-09-13T09:50:04.000Z</Time>
            <Position>
              <LatitudeDegrees>41.14593143574893474578857421875</LatitudeDegrees>
              <LongitudeDegrees>-4.34358042664825916290283203125</LongitudeDegrees>
            </Position>
            <AltitudeMeters>866.4000244140625</AltitudeMeters>
            <DistanceMeters>28911.119608871</DistanceMeters>
          </Trackpoint>
          <Trackpoint>
            <Time>2020-09-13T09:50:14.000Z</Time>
            <Position>
              <LatitudeDegrees>41.145860441029071807861328125</LatitudeDegrees>
              <LongitudeDegrees>-4.34360674582421779632568359375</LongitudeDegrees>
            </Position>
            <AltitudeMeters>866.4000244140625</AltitudeMeters>
            <DistanceMeters>28919.322786893</DistanceMeters>
          </Trackpoint>
          <Trackpoint>
            <Time>2020-09-13T09:50:20.000Z</Time>
            <Position>
              <LatitudeDegrees>41.1456973291933536529541015625</LatitudeDegrees>
              <LongitudeDegrees>-4.3436696939170360565185546875</LongitudeDegrees>
            </Position>
            <AltitudeMeters>866.79998779296875</AltitudeMeters>
            <DistanceMeters>28938.228566057</DistanceMeters>
          </Trackpoint>
          <Trackpoint>
            <Time>2020-09-13T09:50:22.000Z</Time>
            <Position>
              <LatitudeDegrees>41.14564427174627780914306640625</LatitudeDegrees>
              <LongitudeDegrees>-4.34368737973272800445556640625</LongitudeDegrees>
            </Position>
            <AltitudeMeters>867</AltitudeMeters>
            <DistanceMeters>28944.316953676</DistanceMeters>
          </Trackpoint>
          <Trackpoint>
            <Time>2020-09-13T09:50:29.000Z</Time>
            <Position>
              <LatitudeDegrees>41.1454255878925323486328125</LatitudeDegrees>
              <LongitudeDegrees>-4.343723170459270477294921875</LongitudeDegrees>
            </Position>
            <AltitudeMeters>867</AltitudeMeters>
            <DistanceMeters>28968.841027183</DistanceMeters>
          </Trackpoint>
          <Trackpoint>
            <Time>2020-09-13T09:50:31.000Z</Time>
            <Position>
              <LatitudeDegrees>41.14536481909453868865966796875</LatitudeDegrees>
              <LongitudeDegrees>-4.34373180381953716278076171875</LongitudeDegrees>
            </Position>
            <AltitudeMeters>866.79998779296875</AltitudeMeters>
            <DistanceMeters>28975.642577126</DistanceMeters>
          </Trackpoint>
          <Trackpoint>
            <Time>2020-09-13T09:50:35.000Z</Time>
            <Position>
              <LatitudeDegrees>41.14522869698703289031982421875</LatitudeDegrees>
              <LongitudeDegrees>-4.34373532421886920928955078125</LongitudeDegrees>
            </Position>
            <AltitudeMeters>866.79998779296875</AltitudeMeters>
            <DistanceMeters>28990.796284394</DistanceMeters>
          </Trackpoint>
          <Trackpoint>
            <Time>2020-09-13T09:50:38.000Z</Time>
            <Position>
              <LatitudeDegrees>41.1451243422925472259521484375</LatitudeDegrees>
              <LongitudeDegrees>-4.34373490512371063232421875</LongitudeDegrees>
            </Position>
            <AltitudeMeters>866.79998779296875</AltitudeMeters>
            <DistanceMeters>29002.410943752</DistanceMeters>
          </Trackpoint>
          <Trackpoint>
            <Time>2020-09-13T09:50:41.000Z</Time>
            <Position>
              <LatitudeDegrees>41.1450286209583282470703125</LatitudeDegrees>
              <LongitudeDegrees>-4.3437263555824756622314453125</LongitudeDegrees>
            </Position>
            <AltitudeMeters>866.79998779296875</AltitudeMeters>
            <DistanceMeters>29013.0890885</DistanceMeters>
          </Trackpoint>
          <Trackpoint>
            <Time>2020-09-13T09:50:43.000Z</Time>
            <Position>
              <LatitudeDegrees>41.14496097899973392486572265625</LatitudeDegrees>
              <LongitudeDegrees>-4.343716464936733245849609375</LongitudeDegrees>
            </Position>
            <AltitudeMeters>867</AltitudeMeters>
            <DistanceMeters>29020.662663981</DistanceMeters>
          </Trackpoint>
          <Trackpoint>
            <Time>2020-09-13T09:50:45.000Z</Time>
            <Position>
              <LatitudeDegrees>41.144892163574695587158203125</LatitudeDegrees>
              <LongitudeDegrees>-4.34370783157646656036376953125</LongitudeDegrees>
            </Position>
            <AltitudeMeters>867</AltitudeMeters>
            <DistanceMeters>29028.355720657</DistanceMeters>
          </Trackpoint>
          <Trackpoint>
            <Time>2020-09-13T09:50:49.000Z</Time>
            <Position>
              <LatitudeDegrees>41.144765429198741912841796875</LatitudeDegrees>
              <LongitudeDegrees>-4.3436918221414089202880859375</LongitudeDegrees>
            </Position>
            <AltitudeMeters>867</AltitudeMeters>
            <DistanceMeters>29042.525538924</DistanceMeters>
          </Trackpoint>
          <Trackpoint>
            <Time>2020-09-13T09:50:58.000Z</Time>
            <Position>
              <LatitudeDegrees>41.1444734036922454833984375</LatitudeDegrees>
              <LongitudeDegrees>-4.34364915825426578521728515625</LongitudeDegrees>
            </Position>
            <AltitudeMeters>868</AltitudeMeters>
            <DistanceMeters>29075.224671812</DistanceMeters>
          </Trackpoint>
          <Trackpoint>
            <Time>2020-09-13T09:50:59.000Z</Time>
            <Position>
              <LatitudeDegrees>41.144439540803432464599609375</LatitudeDegrees>
              <LongitudeDegrees>-4.3436430394649505615234375</LongitudeDegrees>
            </Position>
            <AltitudeMeters>868.20001220703125</AltitudeMeters>
            <DistanceMeters>29079.029302219</DistanceMeters>
          </Trackpoint>
          <Trackpoint>
            <Time>2020-09-13T09:51:12.000Z</Time>
            <Position>
              <LatitudeDegrees>41.1440174281597137451171875</LatitudeDegrees>
              <LongitudeDegrees>-4.343573637306690216064453125</LongitudeDegrees>
            </Position>
            <AltitudeMeters>869.79998779296875</AltitudeMeters>
            <DistanceMeters>29126.370062484</DistanceMeters>
          </Trackpoint>
          <Trackpoint>
            <Time>2020-09-13T09:51:24.000Z</Time>
            <Position>
              <LatitudeDegrees>41.14364133216440677642822265625</LatitudeDegrees>
              <LongitudeDegrees>-4.34351856820285320281982421875</LongitudeDegrees>
            </Position>
            <AltitudeMeters>872.20001220703125</AltitudeMeters>
            <DistanceMeters>29168.483946824</DistanceMeters>
          </Trackpoint>
          <Trackpoint>
            <Time>2020-09-13T09:51:32.000Z</Time>
            <Position>
              <LatitudeDegrees>41.14341116510331630706787109375</LatitudeDegrees>
              <LongitudeDegrees>-4.34348168782889842987060546875</LongitudeDegrees>
            </Position>
            <AltitudeMeters>873.79998779296875</AltitudeMeters>
            <DistanceMeters>29194.287855766</DistanceMeters>
          </Trackpoint>
          <Trackpoint>
            <Time>2020-09-13T09:51:35.000Z</Time>
            <Position>
              <LatitudeDegrees>41.14332885481417179107666015625</LatitudeDegrees>
              <LongitudeDegrees>-4.3434641696512699127197265625</LongitudeDegrees>
            </Position>
            <AltitudeMeters>874.4000244140625</AltitudeMeters>
            <DistanceMeters>29203.566473595</DistanceMeters>
          </Trackpoint>
          <Trackpoint>
            <Time>2020-09-13T09:51:45.000Z</Time>
            <Position>
              <LatitudeDegrees>41.14306591451168060302734375</LatitudeDegrees>
              <LongitudeDegrees>-4.343442209064960479736328125</LongitudeDegrees>
            </Position>
            <AltitudeMeters>875.20001220703125</AltitudeMeters>
            <DistanceMeters>29232.890184125</DistanceMeters>
          </Trackpoint>
          <Trackpoint>
            <Time>2020-09-13T09:51:55.000Z</Time>
            <Position>
              <LatitudeDegrees>41.142806746065616607666015625</LatitudeDegrees>
              <LongitudeDegrees>-4.343448914587497711181640625</LongitudeDegrees>
            </Position>
            <AltitudeMeters>874.79998779296875</AltitudeMeters>
            <DistanceMeters>29261.741709332</DistanceMeters>
          </Trackpoint>
          <Trackpoint>
            <Time>2020-09-13T09:51:59.000Z</Time>
            <Position>
              <LatitudeDegrees>41.14270507358014583587646484375</LatitudeDegrees>
              <LongitudeDegrees>-4.343456290662288665771484375</LongitudeDegrees>
            </Position>
            <AltitudeMeters>874.79998779296875</AltitudeMeters>
            <DistanceMeters>29273.075014558</DistanceMeters>
          </Trackpoint>
          <Trackpoint>
            <Time>2020-09-13T09:52:08.000Z</Time>
            <Position>
              <LatitudeDegrees>41.1424726434051990509033203125</LatitudeDegrees>
              <LongitudeDegrees>-4.34349593706429004669189453125</LongitudeDegrees>
            </Position>
            <AltitudeMeters>874.4000244140625</AltitudeMeters>
            <DistanceMeters>29299.157380995</DistanceMeters>
          </Trackpoint>
          <Trackpoint>
            <Time>2020-09-13T09:52:13.000Z</Time>
            <Position>
              <LatitudeDegrees>41.14235512912273406982421875</LatitudeDegrees>
              <LongitudeDegrees>-4.343527369201183319091796875</LongitudeDegrees>
            </Position>
            <AltitudeMeters>874.20001220703125</AltitudeMeters>
            <DistanceMeters>29312.499415958</DistanceMeters>
          </Trackpoint>
          <Trackpoint>
            <Time>2020-09-13T09:52:23.000Z</Time>
            <Position>
              <LatitudeDegrees>41.1421303264796733856201171875</LatitudeDegrees>
              <LongitudeDegrees>-4.34360154904425144195556640625</LongitudeDegrees>
            </Position>
            <AltitudeMeters>874</AltitudeMeters>
            <DistanceMeters>29338.281268627</DistanceMeters>
          </Trackpoint>
          <Trackpoint>
            <Time>2020-09-13T09:52:35.000Z</Time>
            <Position>
              <LatitudeDegrees>41.1418071202933788299560546875</LatitudeDegrees>
              <LongitudeDegrees>-4.343740604817867279052734375</LongitudeDegrees>
            </Position>
            <AltitudeMeters>874.4000244140625</AltitudeMeters>
            <DistanceMeters>29376.095812061</DistanceMeters>
          </Trackpoint>
          <Trackpoint>
            <Time>2020-09-13T09:52:46.000Z</Time>
            <Position>
              <LatitudeDegrees>41.14149757660925388336181640625</LatitudeDegrees>
              <LongitudeDegrees>-4.3438631482422351837158203125</LongitudeDegrees>
            </Position>
            <AltitudeMeters>875</AltitudeMeters>
            <DistanceMeters>29412.047320537</DistanceMeters>
          </Trackpoint>
          <Trackpoint>
            <Time>2020-09-13T09:52:55.000Z</Time>
            <Position>
              <LatitudeDegrees>41.1412733606994152069091796875</LatitudeDegrees>
              <LongitudeDegrees>-4.34395140968263149261474609375</LongitudeDegrees>
            </Position>
            <AltitudeMeters>876.20001220703125</AltitudeMeters>
            <DistanceMeters>29438.076662358</DistanceMeters>
          </Trackpoint>
          <Trackpoint>
            <Time>2020-09-13T09:53:07.000Z</Time>
            <Position>
              <LatitudeDegrees>41.140985190868377685546875</LatitudeDegrees>
              <LongitudeDegrees>-4.34402994811534881591796875</LongitudeDegrees>
            </Position>
            <AltitudeMeters>878.20001220703125</AltitudeMeters>
            <DistanceMeters>29470.819123102</DistanceMeters>
          </Trackpoint>
          <Trackpoint>
            <Time>2020-09-13T09:53:20.000Z</Time>
            <Position>
              <LatitudeDegrees>41.14067480899393558502197265625</LatitudeDegrees>
              <LongitudeDegrees>-4.3440666608512401580810546875</LongitudeDegrees>
            </Position>
            <AltitudeMeters>881</AltitudeMeters>
            <DistanceMeters>29505.501921188</DistanceMeters>
          </Trackpoint>
          <Trackpoint>
            <Time>2020-09-13T09:53:31.000Z</Time>
            <Position>
              <LatitudeDegrees>41.14037691615521907806396484375</LatitudeDegrees>
              <LongitudeDegrees>-4.34406540356576442718505859375</LongitudeDegrees>
            </Position>
            <AltitudeMeters>882.4000244140625</AltitudeMeters>
            <DistanceMeters>29538.658211186</DistanceMeters>
          </Trackpoint>
          <Trackpoint>
            <Time>2020-09-13T09:53:40.000Z</Time>
            <Position>
              <LatitudeDegrees>41.14015110768377780914306640625</LatitudeDegrees>
              <LongitudeDegrees>-4.34406322427093982696533203125</LongitudeDegrees>
            </Position>
            <AltitudeMeters>883.20001220703125</AltitudeMeters>
            <DistanceMeters>29563.792013678</DistanceMeters>
          </Trackpoint>
          <Trackpoint>
            <Time>2020-09-13T09:53:42.000Z</Time>
            <Position>
              <LatitudeDegrees>41.1401040852069854736328125</LatitudeDegrees>
              <LongitudeDegrees>-4.34406020678579807281494140625</LongitudeDegrees>
            </Position>
            <AltitudeMeters>883.5999755859375</AltitudeMeters>
            <DistanceMeters>29569.031425133</DistanceMeters>
          </Trackpoint>
          <Trackpoint>
            <Time>2020-09-13T09:53:51.000Z</Time>
            <Position>
              <LatitudeDegrees>41.13989193923771381378173828125</LatitudeDegrees>
              <LongitudeDegrees>-4.34404310770332813262939453125</LongitudeDegrees>
            </Position>
            <AltitudeMeters>884.79998779296875</AltitudeMeters>
            <DistanceMeters>29592.687160954</DistanceMeters>
          </Trackpoint>
          <Trackpoint>
            <Time>2020-09-13T09:54:02.000Z</Time>
            <Position>
              <LatitudeDegrees>41.139614246785640716552734375</LatitudeDegrees>
              <LongitudeDegrees>-4.34401980601251125335693359375</LongitudeDegrees>
            </Position>
            <AltitudeMeters>886</AltitudeMeters>
            <DistanceMeters>29623.656540658</DistanceMeters>
          </Trackpoint>
          <Trackpoint>
            <Time>2020-09-13T09:54:10.000Z</Time>
            <Position>
              <LatitudeDegrees>41.1393904499709606170654296875</LatitudeDegrees>
              <LongitudeDegrees>-4.3440113402903079986572265625</LongitudeDegrees>
            </Position>
            <AltitudeMeters>886.4000244140625</AltitudeMeters>
            <DistanceMeters>29648.575654542</DistanceMeters>
          </Trackpoint>
          <Trackpoint>
            <Time>2020-09-13T09:54:14.000Z</Time>
            <Position>
              <LatitudeDegrees>41.1392687447369098663330078125</LatitudeDegrees>
              <LongitudeDegrees>-4.34400958009064197540283203125</LongitudeDegrees>
            </Position>
            <AltitudeMeters>886.20001220703125</AltitudeMeters>
            <DistanceMeters>29662.122211798</DistanceMeters>
          </Trackpoint>
          <Trackpoint>
            <Time>2020-09-13T09:54:22.000Z</Time>
            <Position>
              <LatitudeDegrees>41.13899457268416881561279296875</LatitudeDegrees>
              <LongitudeDegrees>-4.34402986429631710052490234375</LongitudeDegrees>
            </Position>
            <AltitudeMeters>885.5999755859375</AltitudeMeters>
            <DistanceMeters>29692.685379626</DistanceMeters>
          </Trackpoint>
          <Trackpoint>
            <Time>2020-09-13T09:54:25.000Z</Time>
            <Position>
              <LatitudeDegrees>41.1388858594000339508056640625</LatitudeDegrees>
              <LongitudeDegrees>-4.3440478853881359100341796875</LongitudeDegrees>
            </Position>
            <AltitudeMeters>885.4000244140625</AltitudeMeters>
            <DistanceMeters>29704.87919932</DistanceMeters>
          </Trackpoint>
          <Trackpoint>
            <Time>2020-09-13T09:54:35.000Z</Time>
            <Position>
              <LatitudeDegrees>41.13849635235965251922607421875</LatitudeDegrees>
              <LongitudeDegrees>-4.3441635556519031524658203125</LongitudeDegrees>
            </Position>
            <AltitudeMeters>885.79998779296875</AltitudeMeters>
            <DistanceMeters>29749.303044903</DistanceMeters>
          </Trackpoint>
          <Trackpoint>
            <Time>2020-09-13T09:54:47.000Z</Time>
            <Position>
              <LatitudeDegrees>41.13802210427820682525634765625</LatitudeDegrees>
              <LongitudeDegrees>-4.3444155156612396240234375</LongitudeDegrees>
            </Position>
            <AltitudeMeters>887.4000244140625</AltitudeMeters>
            <DistanceMeters>29806.156345625</DistanceMeters>
          </Trackpoint>
          <Trackpoint>
            <Time>2020-09-13T09:54:58.000Z</Time>
            <Position>
              <LatitudeDegrees>41.137651540338993072509765625</LatitudeDegrees>
              <LongitudeDegrees>-4.344718940556049346923828125</LongitudeDegrees>
            </Position>
            <AltitudeMeters>889.4000244140625</AltitudeMeters>
            <DistanceMeters>29854.612702661</DistanceMeters>
          </Trackpoint>
          <Trackpoint>
            <Time>2020-09-13T09:55:09.000Z</Time>
            <Position>
              <LatitudeDegrees>41.13734266720712184906005859375</LatitudeDegrees>
              <LongitudeDegrees>-4.3450671248137950897216796875</LongitudeDegrees>
            </Position>
            <AltitudeMeters>890.79998779296875</AltitudeMeters>
            <DistanceMeters>29899.709461928</DistanceMeters>
          </Trackpoint>
          <Trackpoint>
            <Time>2020-09-13T09:55:19.000Z</Time>
            <Position>
              <LatitudeDegrees>41.13707788288593292236328125</LatitudeDegrees>
              <LongitudeDegrees>-4.34538446366786956787109375</LongitudeDegrees>
            </Position>
            <AltitudeMeters>891.5999755859375</AltitudeMeters>
            <DistanceMeters>29939.410276692</DistanceMeters>
          </Trackpoint>
          <Trackpoint>
            <Time>2020-09-13T09:55:32.000Z</Time>
            <Position>
              <LatitudeDegrees>41.136738248169422149658203125</LatitudeDegrees>
              <LongitudeDegrees>-4.34576307423412799835205078125</LongitudeDegrees>
            </Position>
            <AltitudeMeters>893.79998779296875</AltitudeMeters>
            <DistanceMeters>29988.768582821</DistanceMeters>
          </Trackpoint>
          <Trackpoint>
            <Time>2020-09-13T09:55:42.000Z</Time>
            <Position>
              <LatitudeDegrees>41.136422418057918548583984375</LatitudeDegrees>
              <LongitudeDegrees>-4.34603355824947357177734375</LongitudeDegrees>
            </Position>
            <AltitudeMeters>895.4000244140625</AltitudeMeters>
            <DistanceMeters>30030.599122297</DistanceMeters>
          </Trackpoint>
          <Trackpoint>
            <Time>2020-09-13T09:55:52.000Z</Time>
            <Position>
              <LatitudeDegrees>41.13605872727930545806884765625</LatitudeDegrees>
              <LongitudeDegrees>-4.34627688489854335784912109375</LongitudeDegrees>
            </Position>
            <AltitudeMeters>893.20001220703125</AltitudeMeters>
            <DistanceMeters>30075.927163877</DistanceMeters>
          </Trackpoint>
          <Trackpoint>
            <Time>2020-09-13T09:56:01.000Z</Time>
            <Position>
              <LatitudeDegrees>41.1356873251497745513916015625</LatitudeDegrees>
              <LongitudeDegrees>-4.34651593677699565887451171875</LongitudeDegrees>
            </Position>
            <AltitudeMeters>890.5999755859375</AltitudeMeters>
            <DistanceMeters>30121.866069452</DistanceMeters>
          </Trackpoint>
          <Trackpoint>
            <Time>2020-09-13T09:56:06.000Z</Time>
            <Position>
              <LatitudeDegrees>41.1354761011898517608642578125</LatitudeDegrees>
              <LongitudeDegrees>-4.3466543219983577728271484375</LongitudeDegrees>
            </Position>
            <AltitudeMeters>890.20001220703125</AltitudeMeters>
            <DistanceMeters>30148.082078266</DistanceMeters>
          </Trackpoint>
          <Trackpoint>
            <Time>2020-09-13T09:56:10.000Z</Time>
            <Position>
              <LatitudeDegrees>41.13529949449002742767333984375</LatitudeDegrees>
              <LongitudeDegrees>-4.3467673100531101226806640625</LongitudeDegrees>
            </Position>
            <AltitudeMeters>890.4000244140625</AltitudeMeters>
            <DistanceMeters>30169.901834233</DistanceMeters>
          </Trackpoint>
          <Trackpoint>
            <Time>2020-09-13T09:56:12.000Z</Time>
            <Position>
              <LatitudeDegrees>41.13520930521190166473388671875</LatitudeDegrees>
              <LongitudeDegrees>-4.34682204388082027435302734375</LongitudeDegrees>
            </Position>
            <AltitudeMeters>890.4000244140625</AltitudeMeters>
            <DistanceMeters>30180.938850642</DistanceMeters>
          </Trackpoint>
          <Trackpoint>
            <Time>2020-09-13T09:56:17.000Z</Time>
            <Position>
              <LatitudeDegrees>41.13498316146433353424072265625</LatitudeDegrees>
              <LongitudeDegrees>-4.346963949501514434814453125</LongitudeDegrees>
            </Position>
            <AltitudeMeters>890.79998779296875</AltitudeMeters>
            <DistanceMeters>30208.77875889</DistanceMeters>
          </Trackpoint>
          <Trackpoint>
            <Time>2020-09-13T09:56:22.000Z</Time>
            <Position>
              <LatitudeDegrees>41.134748049080371856689453125</LatitudeDegrees>
              <LongitudeDegrees>-4.34711717069149017333984375</LongitudeDegrees>
            </Position>
            <AltitudeMeters>890.5999755859375</AltitudeMeters>
            <DistanceMeters>30237.929510402</DistanceMeters>
          </Trackpoint>
          <Trackpoint>
            <Time>2020-09-13T09:56:26.000Z</Time>
            <Position>
              <LatitudeDegrees>41.13454562611877918243408203125</LatitudeDegrees>
              <LongitudeDegrees>-4.3472641892731189727783203125</LongitudeDegrees>
            </Position>
            <AltitudeMeters>889.79998779296875</AltitudeMeters>
            <DistanceMeters>30263.610117344</DistanceMeters>
          </Trackpoint>
          <Trackpoint>
            <Time>2020-09-13T09:56:33.000Z</Time>
            <Position>
              <LatitudeDegrees>41.13420330919325351715087890625</LatitudeDegrees>
              <LongitudeDegrees>-4.3475706316530704498291015625</LongitudeDegrees>
            </Position>
            <AltitudeMeters>888.20001220703125</AltitudeMeters>
            <DistanceMeters>30309.561994515</DistanceMeters>
          </Trackpoint>
          <Trackpoint>
            <Time>2020-09-13T09:56:35.000Z</Time>
            <Position>
              <LatitudeDegrees>41.13411261700093746185302734375</LatitudeDegrees>
              <LongitudeDegrees>-4.34766693972051143646240234375</LongitudeDegrees>
            </Position>
            <AltitudeMeters>887.79998779296875</AltitudeMeters>
            <DistanceMeters>30322.487723677</DistanceMeters>
          </Trackpoint>
          <Trackpoint>
            <Time>2020-09-13T09:56:45.000Z</Time>
            <Position>
              <LatitudeDegrees>41.13367415964603424072265625</LatitudeDegrees>
              <LongitudeDegrees>-4.3481781519949436187744140625</LongitudeDegrees>
            </Position>
            <AltitudeMeters>886.5999755859375</AltitudeMeters>
            <DistanceMeters>30387.434503106</DistanceMeters>
          </Trackpoint>
          <Trackpoint>
            <Time>2020-09-13T09:56:46.000Z</Time>
            <Position>
              <LatitudeDegrees>41.1336330883204936981201171875</LatitudeDegrees>
              <LongitudeDegrees>-4.34823037125170230865478515625</LongitudeDegrees>
            </Position>
            <AltitudeMeters>886.4000244140625</AltitudeMeters>
            <DistanceMeters>30393.763596177</DistanceMeters>
          </Trackpoint>
          <Trackpoint>
            <Time>2020-09-13T09:56:51.000Z</Time>
            <Position>
              <LatitudeDegrees>41.13344625569880008697509765625</LatitudeDegrees>
              <LongitudeDegrees>-4.3484862707555294036865234375</LongitudeDegrees>
            </Position>
            <AltitudeMeters>886.20001220703125</AltitudeMeters>
            <DistanceMeters>30423.640394139</DistanceMeters>
          </Trackpoint>
          <Trackpoint>
            <Time>2020-09-13T09:56:52.000Z</Time>
            <Position>
              <LatitudeDegrees>41.1334121413528919219970703125</LatitudeDegrees>
              <LongitudeDegrees>-4.34853597544133663177490234375</LongitudeDegrees>
            </Position>
            <AltitudeMeters>886.20001220703125</AltitudeMeters>
            <DistanceMeters>30429.278289942</DistanceMeters>
          </Trackpoint>
          <Trackpoint>
            <Time>2020-09-13T09:56:56.000Z</Time>
            <Position>
              <LatitudeDegrees>41.133278198540210723876953125</LatitudeDegrees>
              <LongitudeDegrees>-4.34872574172914028167724609375</LongitudeDegrees>
            </Position>
            <AltitudeMeters>885.79998779296875</AltitudeMeters>
            <DistanceMeters>30451.080243154</DistanceMeters>
          </Trackpoint>
          <Trackpoint>
            <Time>2020-09-13T09:56:59.000Z</Time>
            <Position>
              <LatitudeDegrees>41.13317183218896389007568359375</LatitudeDegrees>
              <LongitudeDegrees>-4.34886923991143703460693359375</LongitudeDegrees>
            </Position>
            <AltitudeMeters>885.79998779296875</AltitudeMeters>
            <DistanceMeters>30467.957854402</DistanceMeters>
          </Trackpoint>
          <Trackpoint>
            <Time>2020-09-13T09:57:01.000Z</Time>
            <Position>
              <LatitudeDegrees>41.13310284912586212158203125</LatitudeDegrees>
              <LongitudeDegrees>-4.348960183560848236083984375</LongitudeDegrees>
            </Position>
            <AltitudeMeters>885.5999755859375</AltitudeMeters>
            <DistanceMeters>30478.777971827</DistanceMeters>
          </Trackpoint>
          <Trackpoint>
            <Time>2020-09-13T09:57:02.000Z</Time>
            <Position>
              <LatitudeDegrees>41.1330711655318737030029296875</LatitudeDegrees>
              <LongitudeDegrees>-4.34900402091443538665771484375</LongitudeDegrees>
            </Position>
            <AltitudeMeters>885.5999755859375</AltitudeMeters>
            <DistanceMeters>30483.871439175</DistanceMeters>
          </Trackpoint>
          <Trackpoint>
            <Time>2020-09-13T09:57:04.000Z</Time>
            <Position>
              <LatitudeDegrees>41.133013665676116943359375</LatitudeDegrees>
              <LongitudeDegrees>-4.34907878749072551727294921875</LongitudeDegrees>
            </Position>
            <AltitudeMeters>885.5999755859375</AltitudeMeters>
            <DistanceMeters>30492.829187736</DistanceMeters>
          </Trackpoint>
          <Trackpoint>
            <Time>2020-09-13T09:58:12.000Z</Time>
            <Position>
              <LatitudeDegrees>41.1328723467886447906494140625</LatitudeDegrees>
              <LongitudeDegrees>-4.3493113853037357330322265625</LongitudeDegrees>
            </Position>
            <AltitudeMeters>885.4000244140625</AltitudeMeters>
            <DistanceMeters>30517.88130088</DistanceMeters>
          </Trackpoint>
          <Trackpoint>
            <Time>2020-09-13T09:58:14.000Z</Time>
            <Position>
              <LatitudeDegrees>41.1328485421836376190185546875</LatitudeDegrees>
              <LongitudeDegrees>-4.3493159115314483642578125</LongitudeDegrees>
            </Position>
            <AltitudeMeters>885.4000244140625</AltitudeMeters>
            <DistanceMeters>30520.557277453</DistanceMeters>
          </Trackpoint>
          <Trackpoint>
            <Time>2020-09-13T09:58:16.000Z</Time>
            <Position>
              <LatitudeDegrees>41.1328156851232051849365234375</LatitudeDegrees>
              <LongitudeDegrees>-4.3493293225765228271484375</LongitudeDegrees>
            </Position>
            <AltitudeMeters>885.5999755859375</AltitudeMeters>
            <DistanceMeters>30524.382028928</DistanceMeters>
          </Trackpoint>
          <Trackpoint>
            <Time>2020-09-13T09:58:17.000Z</Time>
            <Position>
              <LatitudeDegrees>41.13279850222170352935791015625</LatitudeDegrees>
              <LongitudeDegrees>-4.34933946467936038970947265625</LongitudeDegrees>
            </Position>
            <AltitudeMeters>885.5999755859375</AltitudeMeters>
            <DistanceMeters>30526.476931587</DistanceMeters>
          </Trackpoint>
          <Trackpoint>
            <Time>2020-09-13T09:58:23.000Z</Time>
            <Position>
              <LatitudeDegrees>41.13262549974024295806884765625</LatitudeDegrees>
              <LongitudeDegrees>-4.34945530258119106292724609375</LongitudeDegrees>
            </Position>
            <AltitudeMeters>885.5999755859375</AltitudeMeters>
            <DistanceMeters>30548.042762365</DistanceMeters>
          </Trackpoint>
          <Trackpoint>
            <Time>2020-09-13T09:58:27.000Z</Time>
            <Position>
              <LatitudeDegrees>41.1324686743319034576416015625</LatitudeDegrees>
              <LongitudeDegrees>-4.34956560842692852020263671875</LongitudeDegrees>
            </Position>
            <AltitudeMeters>886</AltitudeMeters>
            <DistanceMeters>30567.795751331</DistanceMeters>
          </Trackpoint>
          <Trackpoint>
            <Time>2020-09-13T09:58:29.000Z</Time>
            <Position>
              <LatitudeDegrees>41.1323737911880016326904296875</LatitudeDegrees>
              <LongitudeDegrees>-4.3496131338179111480712890625</LongitudeDegrees>
            </Position>
            <AltitudeMeters>886.20001220703125</AltitudeMeters>
            <DistanceMeters>30579.083149106</DistanceMeters>
          </Trackpoint>
          <Trackpoint>
            <Time>2020-09-13T09:58:30.000Z</Time>
            <Position>
              <LatitudeDegrees>41.13232366740703582763671875</LatitudeDegrees>
              <LongitudeDegrees>-4.349636770784854888916015625</LongitudeDegrees>
            </Position>
            <AltitudeMeters>886.4000244140625</AltitudeMeters>
            <DistanceMeters>30585.003092238</DistanceMeters>
          </Trackpoint>
          <Trackpoint>
            <Time>2020-09-13T09:58:31.000Z</Time>
            <Position>
              <LatitudeDegrees>41.13227681256830692291259765625</LatitudeDegrees>
              <LongitudeDegrees>-4.34965814463794231414794921875</LongitudeDegrees>
            </Position>
            <AltitudeMeters>886.4000244140625</AltitudeMeters>
            <DistanceMeters>30590.517917481</DistanceMeters>
          </Trackpoint>
          <Trackpoint>
            <Time>2020-09-13T09:58:32.000Z</Time>
            <Position>
              <LatitudeDegrees>41.1322323046624660491943359375</LatitudeDegrees>
              <LongitudeDegrees>-4.34967909939587116241455078125</LongitudeDegrees>
            </Position>
            <AltitudeMeters>886.5999755859375</AltitudeMeters>
            <DistanceMeters>30595.774535588</DistanceMeters>
          </Trackpoint>
          <Trackpoint>
            <Time>2020-09-13T09:58:33.000Z</Time>
            <Position>
              <LatitudeDegrees>41.1321893893182277679443359375</LatitudeDegrees>
              <LongitudeDegrees>-4.34970005415380001068115234375</LongitudeDegrees>
            </Position>
            <AltitudeMeters>886.79998779296875</AltitudeMeters>
            <DistanceMeters>30600.86356882</DistanceMeters>
          </Trackpoint>
          <Trackpoint>
            <Time>2020-09-13T09:58:35.000Z</Time>
            <Position>
              <LatitudeDegrees>41.132102720439434051513671875</LatitudeDegrees>
              <LongitudeDegrees>-4.34972955845296382904052734375</LongitudeDegrees>
            </Position>
            <AltitudeMeters>887.20001220703125</AltitudeMeters>
            <DistanceMeters>30610.821896968</DistanceMeters>
          </Trackpoint>
          <Trackpoint>
            <Time>2020-09-13T09:58:37.000Z</Time>
            <Position>
              <LatitudeDegrees>41.13201932050287723541259765625</LatitudeDegrees>
              <LongitudeDegrees>-4.34975839219987392425537109375</LongitudeDegrees>
            </Position>
            <AltitudeMeters>887.5999755859375</AltitudeMeters>
            <DistanceMeters>30620.413948307</DistanceMeters>
          </Trackpoint>
          <Trackpoint>
            <Time>2020-09-13T09:58:38.000Z</Time>
            <Position>
              <LatitudeDegrees>41.13197808153927326202392578125</LatitudeDegrees>
              <LongitudeDegrees>-4.34977465309202671051025390625</LongitudeDegrees>
            </Position>
            <AltitudeMeters>887.79998779296875</AltitudeMeters>
            <DistanceMeters>30625.202201025</DistanceMeters>
          </Trackpoint>
          <Trackpoint>
            <Time>2020-09-13T09:58:41.000Z</Time>
            <Position>
              <LatitudeDegrees>41.13186609931290149688720703125</LatitudeDegrees>
              <LongitudeDegrees>-4.3498119525611400604248046875</LongitudeDegrees>
            </Position>
            <AltitudeMeters>888.20001220703125</AltitudeMeters>
            <DistanceMeters>30638.052258529</DistanceMeters>
          </Trackpoint>
          <Trackpoint>
            <Time>2020-09-13T09:58:45.000Z</Time>
            <Position>
              <LatitudeDegrees>41.1317302286624908447265625</LatitudeDegrees>
              <LongitudeDegrees>-4.3498743139207363128662109375</LongitudeDegrees>
            </Position>
            <AltitudeMeters>888.79998779296875</AltitudeMeters>
            <DistanceMeters>30654.053188421</DistanceMeters>
          </Trackpoint>
          <Trackpoint>
            <Time>2020-09-13T09:58:53.000Z</Time>
            <Position>
              <LatitudeDegrees>41.13146041519939899444580078125</LatitudeDegrees>
              <LongitudeDegrees>-4.3499567918479442596435546875</LongitudeDegrees>
            </Position>
            <AltitudeMeters>889.5999755859375</AltitudeMeters>
            <DistanceMeters>30684.869694052</DistanceMeters>
          </Trackpoint>
          <Trackpoint>
            <Time>2020-09-13T09:59:00.000Z</Time>
            <Position>
              <LatitudeDegrees>41.13122672773897647857666015625</LatitudeDegrees>
              <LongitudeDegrees>-4.3500181473791599273681640625</LongitudeDegrees>
            </Position>
            <AltitudeMeters>890.20001220703125</AltitudeMeters>
            <DistanceMeters>30711.383339426</DistanceMeters>
          </Trackpoint>
          <Trackpoint>
            <Time>2020-09-13T09:59:02.000Z</Time>
            <Position>
              <LatitudeDegrees>41.1311564035713672637939453125</LatitudeDegrees>
              <LongitudeDegrees>-4.350036084651947021484375</LongitudeDegrees>
            </Position>
            <AltitudeMeters>890.4000244140625</AltitudeMeters>
            <DistanceMeters>30719.353129744</DistanceMeters>
          </Trackpoint>
          <Trackpoint>
            <Time>2020-09-13T09:59:04.000Z</Time>
            <Position>
              <LatitudeDegrees>41.1310829780995845794677734375</LatitudeDegrees>
              <LongitudeDegrees>-4.35005494393408298492431640625</LongitudeDegrees>
            </Position>
            <AltitudeMeters>890.5999755859375</AltitudeMeters>
            <DistanceMeters>30727.677057696</DistanceMeters>
          </Trackpoint>
          <Trackpoint>
            <Time>2020-09-13T09:59:06.000Z</Time>
            <Position>
              <LatitudeDegrees>41.131017096340656280517578125</LatitudeDegrees>
              <LongitudeDegrees>-4.35006667859852313995361328125</LongitudeDegrees>
            </Position>
            <AltitudeMeters>890.5999755859375</AltitudeMeters>
            <DistanceMeters>30735.075728077</DistanceMeters>
          </Trackpoint>
          <Trackpoint>
            <Time>2020-09-13T09:59:07.000Z</Time>
            <Position>
              <LatitudeDegrees>41.1309840716421604156494140625</LatitudeDegrees>
              <LongitudeDegrees>-4.35007036663591861724853515625</LongitudeDegrees>
            </Position>
            <AltitudeMeters>890.5999755859375</AltitudeMeters>
            <DistanceMeters>30738.765898165</DistanceMeters>
          </Trackpoint>
          <Trackpoint>
            <Time>2020-09-13T09:59:09.000Z</Time>
            <Position>
              <LatitudeDegrees>41.1309139989316463470458984375</LatitudeDegrees>
              <LongitudeDegrees>-4.35007455758750438690185546875</LongitudeDegrees>
            </Position>
            <AltitudeMeters>890.79998779296875</AltitudeMeters>
            <DistanceMeters>30746.573139419</DistanceMeters>
          </Trackpoint>
          <Trackpoint>
            <Time>2020-09-13T09:59:11.000Z</Time>
            <Position>
              <LatitudeDegrees>41.13084308803081512451171875</LatitudeDegrees>
              <LongitudeDegrees>-4.350088723003864288330078125</LongitudeDegrees>
            </Position>
            <AltitudeMeters>891</AltitudeMeters>
            <DistanceMeters>30754.55481777</DistanceMeters>
          </Trackpoint>
          <Trackpoint>
            <Time>2020-09-13T09:59:12.000Z</Time>
            <Position>
              <LatitudeDegrees>41.130807213485240936279296875</LatitudeDegrees>
              <LongitudeDegrees>-4.35009517706930637359619140625</LongitudeDegrees>
            </Position>
            <AltitudeMeters>891</AltitudeMeters>
            <DistanceMeters>30758.584219394</DistanceMeters>
          </Trackpoint>
          <Trackpoint>
            <Time>2020-09-13T09:59:13.000Z</Time>
            <Position>
              <LatitudeDegrees>41.13077175803482532501220703125</LatitudeDegrees>
              <LongitudeDegrees>-4.35010246932506561279296875</LongitudeDegrees>
            </Position>
            <AltitudeMeters>891.20001220703125</AltitudeMeters>
            <DistanceMeters>30762.577603298</DistanceMeters>
          </Trackpoint>
          <Trackpoint>
            <Time>2020-09-13T09:59:16.000Z</Time>
            <Position>
              <LatitudeDegrees>41.13066514022648334503173828125</LatitudeDegrees>
              <LongitudeDegrees>-4.35012065805494785308837890625</LongitudeDegrees>
            </Position>
            <AltitudeMeters>891.4000244140625</AltitudeMeters>
            <DistanceMeters>30774.542670449</DistanceMeters>
          </Trackpoint>
          <Trackpoint>
            <Time>2020-09-13T09:59:22.000Z</Time>
            <Position>
              <LatitudeDegrees>41.130458526313304901123046875</LatitudeDegrees>
              <LongitudeDegrees>-4.35016776435077190399169921875</LongitudeDegrees>
            </Position>
            <AltitudeMeters>892.4000244140625</AltitudeMeters>
            <DistanceMeters>30797.875937879</DistanceMeters>
          </Trackpoint>
          <Trackpoint>
            <Time>2020-09-13T09:59:25.000Z</Time>
            <Position>
              <LatitudeDegrees>41.1303547583520412445068359375</LatitudeDegrees>
              <LongitudeDegrees>-4.35018335469067096710205078125</LongitudeDegrees>
            </Position>
            <AltitudeMeters>893</AltitudeMeters>
            <DistanceMeters>30809.49875783</DistanceMeters>
          </Trackpoint>
          <Trackpoint>
            <Time>2020-09-13T09:59:33.000Z</Time>
            <Position>
              <LatitudeDegrees>41.1300721205770969390869140625</LatitudeDegrees>
              <LongitudeDegrees>-4.3502038903534412384033203125</LongitudeDegrees>
            </Position>
            <AltitudeMeters>894.4000244140625</AltitudeMeters>
            <DistanceMeters>30841.003947444</DistanceMeters>
          </Trackpoint>
          <Trackpoint>
            <Time>2020-09-13T09:59:41.000Z</Time>
            <Position>
              <LatitudeDegrees>41.12979434430599212646484375</LatitudeDegrees>
              <LongitudeDegrees>-4.350202046334743499755859375</LongitudeDegrees>
            </Position>
            <AltitudeMeters>895.5999755859375</AltitudeMeters>
            <DistanceMeters>30871.921528238</DistanceMeters>
          </Trackpoint>
          <Trackpoint>
            <Time>2020-09-13T09:59:47.000Z</Time>
            <Position>
              <LatitudeDegrees>41.129597537219524383544921875</LatitudeDegrees>
              <LongitudeDegrees>-4.35019777156412601470947265625</LongitudeDegrees>
            </Position>
            <AltitudeMeters>896</AltitudeMeters>
            <DistanceMeters>30893.829462716</DistanceMeters>
          </Trackpoint>
          <Trackpoint>
            <Time>2020-09-13T09:59:52.000Z</Time>
            <Position>
              <LatitudeDegrees>41.1294277198612689971923828125</LatitudeDegrees>
              <LongitudeDegrees>-4.3502085842192173004150390625</LongitudeDegrees>
            </Position>
            <AltitudeMeters>896.4000244140625</AltitudeMeters>
            <DistanceMeters>30912.752190353</DistanceMeters>
          </Trackpoint>
          <Trackpoint>
            <Time>2020-09-13T10:00:05.000Z</Time>
            <Position>
              <LatitudeDegrees>41.1290133185684680938720703125</LatitudeDegrees>
              <LongitudeDegrees>-4.35019257478415966033935546875</LongitudeDegrees>
            </Position>
            <AltitudeMeters>897.4000244140625</AltitudeMeters>
            <DistanceMeters>30958.895464237</DistanceMeters>
          </Trackpoint>
          <Trackpoint>
            <Time>2020-09-13T10:00:16.000Z</Time>
            <Position>
              <LatitudeDegrees>41.12864929251372814178466796875</LatitudeDegrees>
              <LongitudeDegrees>-4.35013356618583202362060546875</LongitudeDegrees>
            </Position>
            <AltitudeMeters>899</AltitudeMeters>
            <DistanceMeters>30999.713171475</DistanceMeters>
          </Trackpoint>
          <Trackpoint>
            <Time>2020-09-13T10:00:22.000Z</Time>
            <Position>
              <LatitudeDegrees>41.128485761582851409912109375</LatitudeDegrees>
              <LongitudeDegrees>-4.35010791756212711334228515625</LongitudeDegrees>
            </Position>
            <AltitudeMeters>899.5999755859375</AltitudeMeters>
            <DistanceMeters>31018.041260402</DistanceMeters>
          </Trackpoint>
          <Trackpoint>
            <Time>2020-09-13T10:00:26.000Z</Time>
            <Position>
              <LatitudeDegrees>41.1283766292035579681396484375</LatitudeDegrees>
              <LongitudeDegrees>-4.35008008964359760284423828125</LongitudeDegrees>
            </Position>
            <AltitudeMeters>900.20001220703125</AltitudeMeters>
            <DistanceMeters>31030.410074214</DistanceMeters>
          </Trackpoint>
          <Trackpoint>
            <Time>2020-09-13T10:00:33.000Z</Time>
            <Position>
              <LatitudeDegrees>41.12818946130573749542236328125</LatitudeDegrees>
              <LongitudeDegrees>-4.34999459423124790191650390625</LongitudeDegrees>
            </Position>
            <AltitudeMeters>901.5999755859375</AltitudeMeters>
            <DistanceMeters>31052.440701729</DistanceMeters>
          </Trackpoint>
          <Trackpoint>
            <Time>2020-09-13T10:00:34.000Z</Time>
            <Position>
              <LatitudeDegrees>41.128163225948810577392578125</LatitudeDegrees>
              <LongitudeDegrees>-4.3499998748302459716796875</LongitudeDegrees>
            </Position>
            <AltitudeMeters>901.79998779296875</AltitudeMeters>
            <DistanceMeters>31055.394183377</DistanceMeters>
          </Trackpoint>
          <Trackpoint>
            <Time>2020-09-13T10:00:35.000Z</Time>
            <Position>
              <LatitudeDegrees>41.12814000807702541351318359375</LatitudeDegrees>
              <LongitudeDegrees>-4.350014962255954742431640625</LongitudeDegrees>
            </Position>
            <AltitudeMeters>902</AltitudeMeters>
            <DistanceMeters>31058.271783089</DistanceMeters>
          </Trackpoint>
          <Trackpoint>
            <Time>2020-09-13T10:00:37.000Z</Time>
            <Position>
              <LatitudeDegrees>41.1281017027795314788818359375</LatitudeDegrees>
              <LongitudeDegrees>-4.35006416402757167816162109375</LongitudeDegrees>
            </Position>
            <AltitudeMeters>902.4000244140625</AltitudeMeters>
            <DistanceMeters>31064.203155428</DistanceMeters>
          </Trackpoint>
          <Trackpoint>
            <Time>2020-09-13T10:00:38.000Z</Time>
            <Position>
              <LatitudeDegrees>41.12808519043028354644775390625</LatitudeDegrees>
              <LongitudeDegrees>-4.35009450651705265045166015625</LongitudeDegrees>
            </Position>
            <AltitudeMeters>902.4000244140625</AltitudeMeters>
            <DistanceMeters>31067.341915279</DistanceMeters>
          </Trackpoint>
          <Trackpoint>
            <Time>2020-09-13T10:00:48.000Z</Time>
            <Position>
              <LatitudeDegrees>41.12790816463530063629150390625</LatitudeDegrees>
              <LongitudeDegrees>-4.35040648095309734344482421875</LongitudeDegrees>
            </Position>
            <AltitudeMeters>902.5999755859375</AltitudeMeters>
            <DistanceMeters>31100.08809899</DistanceMeters>
          </Trackpoint>
          <Trackpoint>
            <Time>2020-09-13T10:00:52.000Z</Time>
            <Position>
              <LatitudeDegrees>41.12784462980926036834716796875</LatitudeDegrees>
              <LongitudeDegrees>-4.35054193250834941864013671875</LongitudeDegrees>
            </Position>
            <AltitudeMeters>903</AltitudeMeters>
            <DistanceMeters>31113.465957004</DistanceMeters>
          </Trackpoint>
          <Trackpoint>
            <Time>2020-09-13T10:00:54.000Z</Time>
            <Position>
              <LatitudeDegrees>41.12781931646168231964111328125</LatitudeDegrees>
              <LongitudeDegrees>-4.3506203033030033111572265625</LongitudeDegrees>
            </Position>
            <AltitudeMeters>903</AltitudeMeters>
            <DistanceMeters>31120.615099097</DistanceMeters>
          </Trackpoint>
          <Trackpoint>
            <Time>2020-09-13T10:00:57.000Z</Time>
            <Position>
              <LatitudeDegrees>41.127777993679046630859375</LatitudeDegrees>
              <LongitudeDegrees>-4.35072482563555240631103515625</LongitudeDegrees>
            </Position>
            <AltitudeMeters>903</AltitudeMeters>
            <DistanceMeters>31130.512029894</DistanceMeters>
          </Trackpoint>
          <Trackpoint>
            <Time>2020-09-13T10:01:00.000Z</Time>
            <Position>
              <LatitudeDegrees>41.12773532979190349578857421875</LatitudeDegrees>
              <LongitudeDegrees>-4.3508526496589183807373046875</LongitudeDegrees>
            </Position>
            <AltitudeMeters>903.20001220703125</AltitudeMeters>
            <DistanceMeters>31142.233874594</DistanceMeters>
          </Trackpoint>
          <Trackpoint>
            <Time>2020-09-13T10:01:03.000Z</Time>
            <Position>
              <LatitudeDegrees>41.1276879720389842987060546875</LatitudeDegrees>
              <LongitudeDegrees>-4.35097879730165004730224609375</LongitudeDegrees>
            </Position>
            <AltitudeMeters>903.20001220703125</AltitudeMeters>
            <DistanceMeters>31154.050094039</DistanceMeters>
          </Trackpoint>
          <Trackpoint>
            <Time>2020-09-13T10:01:09.000Z</Time>
            <Position>
              <LatitudeDegrees>41.12759887240827083587646484375</LatitudeDegrees>
              <LongitudeDegrees>-4.3512291647493839263916015625</LongitudeDegrees>
            </Position>
            <AltitudeMeters>903.4000244140625</AltitudeMeters>
            <DistanceMeters>31177.265219548</DistanceMeters>
          </Trackpoint>
          <Trackpoint>
            <Time>2020-09-13T10:01:10.000Z</Time>
            <Position>
              <LatitudeDegrees>41.12758730538189411163330078125</LatitudeDegrees>
              <LongitudeDegrees>-4.35127182863652706146240234375</LongitudeDegrees>
            </Position>
            <AltitudeMeters>903.4000244140625</AltitudeMeters>
            <DistanceMeters>31181.067475771</DistanceMeters>
          </Trackpoint>
          <Trackpoint>
            <Time>2020-09-13T10:01:12.000Z</Time>
            <Position>
              <LatitudeDegrees>41.12756316550076007843017578125</LatitudeDegrees>
              <LongitudeDegrees>-4.3513535521924495697021484375</LongitudeDegrees>
            </Position>
            <AltitudeMeters>903.4000244140625</AltitudeMeters>
            <DistanceMeters>31188.426986523</DistanceMeters>
          </Trackpoint>
          <Trackpoint>
            <Time>2020-09-13T10:01:17.000Z</Time>
            <Position>
              <LatitudeDegrees>41.127509437501430511474609375</LatitudeDegrees>
              <LongitudeDegrees>-4.35157835483551025390625</LongitudeDegrees>
            </Position>
            <AltitudeMeters>903.4000244140625</AltitudeMeters>
            <DistanceMeters>31208.199851508</DistanceMeters>
          </Trackpoint>
          <Trackpoint>
            <Time>2020-09-13T10:01:19.000Z</Time>
            <Position>
              <LatitudeDegrees>41.12748538143932819366455078125</LatitudeDegrees>
              <LongitudeDegrees>-4.3516693823039531707763671875</LongitudeDegrees>
            </Position>
            <AltitudeMeters>903.4000244140625</AltitudeMeters>
            <DistanceMeters>31216.287177623</DistanceMeters>
          </Trackpoint>
          <Trackpoint>
            <Time>2020-09-13T10:01:21.000Z</Time>
            <Position>
              <LatitudeDegrees>41.1274593137204647064208984375</LatitudeDegrees>
              <LongitudeDegrees>-4.3517565540969371795654296875</LongitudeDegrees>
            </Position>
            <AltitudeMeters>903.4000244140625</AltitudeMeters>
            <DistanceMeters>31224.150315254</DistanceMeters>
          </Trackpoint>
          <Trackpoint>
            <Time>2020-09-13T10:01:24.000Z</Time>
            <Position>
              <LatitudeDegrees>41.127417571842670440673828125</LatitudeDegrees>
              <LongitudeDegrees>-4.35188706032931804656982421875</LongitudeDegrees>
            </Position>
            <AltitudeMeters>903.5999755859375</AltitudeMeters>
            <DistanceMeters>31236.037393793</DistanceMeters>
          </Trackpoint>
          <Trackpoint>
            <Time>2020-09-13T10:01:28.000Z</Time>
            <Position>
              <LatitudeDegrees>41.12736887298524379730224609375</LatitudeDegrees>
              <LongitudeDegrees>-4.3520596437156200408935546875</LongitudeDegrees>
            </Position>
            <AltitudeMeters>904</AltitudeMeters>
            <DistanceMeters>31251.488515469</DistanceMeters>
          </Trackpoint>
          <Trackpoint>
            <Time>2020-09-13T10:01:32.000Z</Time>
            <Position>
              <LatitudeDegrees>41.12733501009643077850341796875</LatitudeDegrees>
              <LongitudeDegrees>-4.35223281383514404296875</LongitudeDegrees>
            </Position>
            <AltitudeMeters>904.20001220703125</AltitudeMeters>
            <DistanceMeters>31266.488294956</DistanceMeters>
          </Trackpoint>
          <Trackpoint>
            <Time>2020-09-13T10:01:33.000Z</Time>
            <Position>
              <LatitudeDegrees>41.12733216024935245513916015625</LatitudeDegrees>
              <LongitudeDegrees>-4.35227933339774608612060546875</LongitudeDegrees>
            </Position>
            <AltitudeMeters>904.20001220703125</AltitudeMeters>
            <DistanceMeters>31270.404041348</DistanceMeters>
          </Trackpoint>
          <Trackpoint>
            <Time>2020-09-13T10:01:36.000Z</Time>
            <Position>
              <LatitudeDegrees>41.127321682870388031005859375</LatitudeDegrees>
              <LongitudeDegrees>-4.35241847299039363861083984375</LongitudeDegrees>
            </Position>
            <AltitudeMeters>904.4000244140625</AltitudeMeters>
            <DistanceMeters>31282.127426673</DistanceMeters>
          </Trackpoint>
          <Trackpoint>
            <Time>2020-09-13T10:01:39.000Z</Time>
            <Position>
              <LatitudeDegrees>41.127297878265380859375</LatitudeDegrees>
              <LongitudeDegrees>-4.35256448574364185333251953125</LongitudeDegrees>
            </Position>
            <AltitudeMeters>904.5999755859375</AltitudeMeters>
            <DistanceMeters>31294.652221601</DistanceMeters>
          </Trackpoint>
          <Trackpoint>
            <Time>2020-09-13T10:01:41.000Z</Time>
            <Position>
              <LatitudeDegrees>41.1272759176790714263916015625</LatitudeDegrees>
              <LongitudeDegrees>-4.352658949792385101318359375</LongitudeDegrees>
            </Position>
            <AltitudeMeters>904.79998779296875</AltitudeMeters>
            <DistanceMeters>31302.940817476</DistanceMeters>
          </Trackpoint>
          <Trackpoint>
            <Time>2020-09-13T10:01:43.000Z</Time>
            <Position>
              <LatitudeDegrees>41.12724700011312961578369140625</LatitudeDegrees>
              <LongitudeDegrees>-4.35275592841207981109619140625</LongitudeDegrees>
            </Position>
            <AltitudeMeters>905</AltitudeMeters>
            <DistanceMeters>31311.685340752</DistanceMeters>
          </Trackpoint>
          <Trackpoint>
            <Time>2020-09-13T10:01:47.000Z</Time>
            <Position>
              <LatitudeDegrees>41.12719302065670490264892578125</LatitudeDegrees>
              <LongitudeDegrees>-4.35291602276265621185302734375</LongitudeDegrees>
            </Position>
            <AltitudeMeters>905</AltitudeMeters>
            <DistanceMeters>31326.390552094</DistanceMeters>
          </Trackpoint>
          <Trackpoint>
            <Time>2020-09-13T10:01:48.000Z</Time>
            <Position>
              <LatitudeDegrees>41.12717927433550357818603515625</LatitudeDegrees>
              <LongitudeDegrees>-4.35295902192592620849609375</LongitudeDegrees>
            </Position>
            <AltitudeMeters>905.20001220703125</AltitudeMeters>
            <DistanceMeters>31330.306298485</DistanceMeters>
          </Trackpoint>
          <Trackpoint>
            <Time>2020-09-13T10:01:51.000Z</Time>
            <Position>
              <LatitudeDegrees>41.12713317386806011199951171875</LatitudeDegrees>
              <LongitudeDegrees>-4.35309455730020999908447265625</LongitudeDegrees>
            </Position>
            <AltitudeMeters>905.20001220703125</AltitudeMeters>
            <DistanceMeters>31342.774368343</DistanceMeters>
          </Trackpoint>
          <Trackpoint>
            <Time>2020-09-13T10:01:52.000Z</Time>
            <Position>
              <LatitudeDegrees>41.12711674533784389495849609375</LatitudeDegrees>
              <LongitudeDegrees>-4.35314007103443145751953125</LongitudeDegrees>
            </Position>
            <AltitudeMeters>905.20001220703125</AltitudeMeters>
            <DistanceMeters>31347.005992333</DistanceMeters>
          </Trackpoint>
          <Trackpoint>
            <Time>2020-09-13T10:02:00.000Z</Time>
            <Position>
              <LatitudeDegrees>41.127011887729167938232421875</LatitudeDegrees>
              <LongitudeDegrees>-4.353517591953277587890625</LongitudeDegrees>
            </Position>
            <AltitudeMeters>905.4000244140625</AltitudeMeters>
            <DistanceMeters>31380.74007441</DistanceMeters>
          </Trackpoint>
          <Trackpoint>
            <Time>2020-09-13T10:02:02.000Z</Time>
            <Position>
              <LatitudeDegrees>41.1269880831241607666015625</LatitudeDegrees>
              <LongitudeDegrees>-4.3536133132874965667724609375</LongitudeDegrees>
            </Position>
            <AltitudeMeters>905.4000244140625</AltitudeMeters>
            <DistanceMeters>31389.191043266</DistanceMeters>
          </Trackpoint>
          <Trackpoint>
            <Time>2020-09-13T10:02:04.000Z</Time>
            <Position>
              <LatitudeDegrees>41.1269607581198215484619140625</LatitudeDegrees>
              <LongitudeDegrees>-4.35371347703039646148681640625</LongitudeDegrees>
            </Position>
            <AltitudeMeters>905.4000244140625</AltitudeMeters>
            <DistanceMeters>31398.122543437</DistanceMeters>
          </Trackpoint>
          <Trackpoint>
            <Time>2020-09-13T10:02:05.000Z</Time>
            <Position>
              <LatitudeDegrees>41.1269483529031276702880859375</LatitudeDegrees>
              <LongitudeDegrees>-4.35376234352588653564453125</LongitudeDegrees>
            </Position>
            <AltitudeMeters>905.4000244140625</AltitudeMeters>
            <DistanceMeters>31402.44599787</DistanceMeters>
          </Trackpoint>
          <Trackpoint>
            <Time>2020-09-13T10:02:06.000Z</Time>
            <Position>
              <LatitudeDegrees>41.126938126981258392333984375</LatitudeDegrees>
              <LongitudeDegrees>-4.353800900280475616455078125</LongitudeDegrees>
            </Position>
            <AltitudeMeters>905.4000244140625</AltitudeMeters>
            <DistanceMeters>31405.872234782</DistanceMeters>
          </Trackpoint>
          <Trackpoint>
            <Time>2020-09-13T10:02:07.000Z</Time>
            <Position>
              <LatitudeDegrees>41.1269263923168182373046875</LatitudeDegrees>
              <LongitudeDegrees>-4.35384951531887054443359375</LongitudeDegrees>
            </Position>
            <AltitudeMeters>905.4000244140625</AltitudeMeters>
            <DistanceMeters>31410.151603314</DistanceMeters>
          </Trackpoint>
          <Trackpoint>
            <Time>2020-09-13T10:02:10.000Z</Time>
            <Position>
              <LatitudeDegrees>41.1268930323421955108642578125</LatitudeDegrees>
              <LongitudeDegrees>-4.354008100926876068115234375</LongitudeDegrees>
            </Position>
            <AltitudeMeters>905.4000244140625</AltitudeMeters>
            <DistanceMeters>31423.95568507</DistanceMeters>
          </Trackpoint>
          <Trackpoint>
            <Time>2020-09-13T10:02:16.000Z</Time>
            <Position>
              <LatitudeDegrees>41.126824803650379180908203125</LatitudeDegrees>
              <LongitudeDegrees>-4.3543257750570774078369140625</LongitudeDegrees>
            </Position>
            <AltitudeMeters>905.5999755859375</AltitudeMeters>
            <DistanceMeters>31451.650552159</DistanceMeters>
          </Trackpoint>
          <Trackpoint>
            <Time>2020-09-13T10:02:20.000Z</Time>
            <Position>
              <LatitudeDegrees>41.12677442841231822967529296875</LatitudeDegrees>
              <LongitudeDegrees>-4.35456021688878536224365234375</LongitudeDegrees>
            </Position>
            <AltitudeMeters>905.4000244140625</AltitudeMeters>
            <DistanceMeters>31472.090133531</DistanceMeters>
          </Trackpoint>
          <Trackpoint>
            <Time>2020-09-13T10:02:31.000Z</Time>
            <Position>
              <LatitudeDegrees>41.12661081366240978240966796875</LatitudeDegrees>
              <LongitudeDegrees>-4.35522146522998809814453125</LongitudeDegrees>
            </Position>
            <AltitudeMeters>905.20001220703125</AltitudeMeters>
            <DistanceMeters>31530.442881241</DistanceMeters>
          </Trackpoint>
          <Trackpoint>
            <Time>2020-09-13T10:02:34.000Z</Time>
            <Position>
              <LatitudeDegrees>41.12654493190348148345947265625</LatitudeDegrees>
              <LongitudeDegrees>-4.35542707331478595733642578125</LongitudeDegrees>
            </Position>
            <AltitudeMeters>904.20001220703125</AltitudeMeters>
            <DistanceMeters>31549.175922392</DistanceMeters>
          </Trackpoint>
          <Trackpoint>
            <Time>2020-09-13T10:02:39.000Z</Time>
            <Position>
              <LatitudeDegrees>41.1264159344136714935302734375</LatitudeDegrees>
              <LongitudeDegrees>-4.35574717819690704345703125</LongitudeDegrees>
            </Position>
            <AltitudeMeters>902</AltitudeMeters>
            <DistanceMeters>31579.612668973</DistanceMeters>
          </Trackpoint>
          <Trackpoint>
            <Time>2020-09-13T10:02:48.000Z</Time>
            <Position>
              <LatitudeDegrees>41.126166991889476776123046875</LatitudeDegrees>
              <LongitudeDegrees>-4.35631656087934970855712890625</LongitudeDegrees>
            </Position>
            <AltitudeMeters>899</AltitudeMeters>
            <DistanceMeters>31634.807977109</DistanceMeters>
          </Trackpoint>
          <Trackpoint>
            <Time>2020-09-13T10:02:49.000Z</Time>
            <Position>
              <LatitudeDegrees>41.1261450313031673431396484375</LatitudeDegrees>
              <LongitudeDegrees>-4.35638596303761005401611328125</LongitudeDegrees>
            </Position>
            <AltitudeMeters>898.5999755859375</AltitudeMeters>
            <DistanceMeters>31641.118495085</DistanceMeters>
          </Trackpoint>
          <Trackpoint>
            <Time>2020-09-13T10:02:59.000Z</Time>
            <Position>
              <LatitudeDegrees>41.12591360695660114288330078125</LatitudeDegrees>
              <LongitudeDegrees>-4.3571420945227146148681640625</LongitudeDegrees>
            </Position>
            <AltitudeMeters>895.79998779296875</AltitudeMeters>
            <DistanceMeters>31709.545581883</DistanceMeters>
          </Trackpoint>
          <Trackpoint>
            <Time>2020-09-13T10:03:00.000Z</Time>
            <Position>
              <LatitudeDegrees>41.12588879652321338653564453125</LatitudeDegrees>
              <LongitudeDegrees>-4.357225410640239715576171875</LongitudeDegrees>
            </Position>
            <AltitudeMeters>895.4000244140625</AltitudeMeters>
            <DistanceMeters>31717.056901183</DistanceMeters>
          </Trackpoint>
          <Trackpoint>
            <Time>2020-09-13T10:03:08.000Z</Time>
            <Position>
              <LatitudeDegrees>41.12567204050719738006591796875</LatitudeDegrees>
              <LongitudeDegrees>-4.3579480983316898345947265625</LongitudeDegrees>
            </Position>
            <AltitudeMeters>893.20001220703125</AltitudeMeters>
            <DistanceMeters>31782.273549023</DistanceMeters>
          </Trackpoint>
          <Trackpoint>
            <Time>2020-09-13T10:03:09.000Z</Time>
            <Position>
              <LatitudeDegrees>41.12564186565577983856201171875</LatitudeDegrees>
              <LongitudeDegrees>-4.35804507695138454437255859375</LongitudeDegrees>
            </Position>
            <AltitudeMeters>893</AltitudeMeters>
            <DistanceMeters>31791.070580063</DistanceMeters>
          </Trackpoint>
          <Trackpoint>
            <Time>2020-09-13T10:03:15.000Z</Time>
            <Position>
              <LatitudeDegrees>41.12546416930854320526123046875</LatitudeDegrees>
              <LongitudeDegrees>-4.3586642481386661529541015625</LongitudeDegrees>
            </Position>
            <AltitudeMeters>892.20001220703125</AltitudeMeters>
            <DistanceMeters>31846.622290248</DistanceMeters>
          </Trackpoint>
          <Trackpoint>
            <Time>2020-09-13T10:03:16.000Z</Time>
            <Position>
              <LatitudeDegrees>41.12543231807649135589599609375</LatitudeDegrees>
              <LongitudeDegrees>-4.35876709409058094024658203125</LongitudeDegrees>
            </Position>
            <AltitudeMeters>892</AltitudeMeters>
            <DistanceMeters>31855.945568419</DistanceMeters>
          </Trackpoint>
          <Trackpoint>
            <Time>2020-09-13T10:03:17.000Z</Time>
            <Position>
              <LatitudeDegrees>41.125401221215724945068359375</LatitudeDegrees>
              <LongitudeDegrees>-4.35887320898473262786865234375</LongitudeDegrees>
            </Position>
            <AltitudeMeters>891.5999755859375</AltitudeMeters>
            <DistanceMeters>31865.491852066</DistanceMeters>
          </Trackpoint>
          <Trackpoint>
            <Time>2020-09-13T10:03:24.000Z</Time>
            <Position>
              <LatitudeDegrees>41.125180609524250030517578125</LatitudeDegrees>
              <LongitudeDegrees>-4.3595289252698421478271484375</LongitudeDegrees>
            </Position>
            <AltitudeMeters>888.79998779296875</AltitudeMeters>
            <DistanceMeters>31925.701906123</DistanceMeters>
          </Trackpoint>
          <Trackpoint>
            <Time>2020-09-13T10:03:25.000Z</Time>
            <Position>
              <LatitudeDegrees>41.125149093568325042724609375</LatitudeDegrees>
              <LongitudeDegrees>-4.35961048118770122528076171875</LongitudeDegrees>
            </Position>
            <AltitudeMeters>888.20001220703125</AltitudeMeters>
            <DistanceMeters>31933.386741836</DistanceMeters>
          </Trackpoint>
          <Trackpoint>
            <Time>2020-09-13T10:03:33.000Z</Time>
            <Position>
              <LatitudeDegrees>41.12486989237368106842041015625</LatitudeDegrees>
              <LongitudeDegrees>-4.3601951189339160919189453125</LongitudeDegrees>
            </Position>
            <AltitudeMeters>884.79998779296875</AltitudeMeters>
            <DistanceMeters>31991.424030492</DistanceMeters>
          </Trackpoint>
          <Trackpoint>
            <Time>2020-09-13T10:03:40.000Z</Time>
            <Position>
              <LatitudeDegrees>41.12463570199906826019287109375</LatitudeDegrees>
              <LongitudeDegrees>-4.36054958961904048919677734375</LongitudeDegrees>
            </Position>
            <AltitudeMeters>884.4000244140625</AltitudeMeters>
            <DistanceMeters>32030.954458375</DistanceMeters>
          </Trackpoint>
          <Trackpoint>
            <Time>2020-09-13T10:03:47.000Z</Time>
            <Position>
              <LatitudeDegrees>41.12438726238906383514404296875</LatitudeDegrees>
              <LongitudeDegrees>-4.36090732924640178680419921875</LongitudeDegrees>
            </Position>
            <AltitudeMeters>885.20001220703125</AltitudeMeters>
            <DistanceMeters>32071.749483299</DistanceMeters>
          </Trackpoint>
          <Trackpoint>
            <Time>2020-09-13T10:03:49.000Z</Time>
            <Position>
              <LatitudeDegrees>41.12430931068956851959228515625</LatitudeDegrees>
              <LongitudeDegrees>-4.3610162101686000823974609375</LongitudeDegrees>
            </Position>
            <AltitudeMeters>885.4000244140625</AltitudeMeters>
            <DistanceMeters>32084.344018734</DistanceMeters>
          </Trackpoint>
          <Trackpoint>
            <Time>2020-09-13T10:03:53.000Z</Time>
            <Position>
              <LatitudeDegrees>41.1241561733186244964599609375</LatitudeDegrees>
              <LongitudeDegrees>-4.36124503612518310546875</LongitudeDegrees>
            </Position>
            <AltitudeMeters>885.5999755859375</AltitudeMeters>
            <DistanceMeters>32110.00721408</DistanceMeters>
          </Trackpoint>
          <Trackpoint>
            <Time>2020-09-13T10:03:54.000Z</Time>
            <Position>
              <LatitudeDegrees>41.1241202987730503082275390625</LatitudeDegrees>
              <LongitudeDegrees>-4.36130077578127384185791015625</LongitudeDegrees>
            </Position>
            <AltitudeMeters>885.5999755859375</AltitudeMeters>
            <DistanceMeters>32116.153907487</DistanceMeters>
          </Trackpoint>
          <Trackpoint>
            <Time>2020-09-13T10:03:55.000Z</Time>
            <Position>
              <LatitudeDegrees>41.124083586037158966064453125</LatitudeDegrees>
              <LongitudeDegrees>-4.36135609634220600128173828125</LongitudeDegrees>
            </Position>
            <AltitudeMeters>885.5999755859375</AltitudeMeters>
            <DistanceMeters>32122.335758626</DistanceMeters>
          </Trackpoint>
          <Trackpoint>
            <Time>2020-09-13T10:03:59.000Z</Time>
            <Position>
              <LatitudeDegrees>41.1239405907690525054931640625</LatitudeDegrees>
              <LongitudeDegrees>-4.361565224826335906982421875</LongitudeDegrees>
            </Position>
            <AltitudeMeters>885.4000244140625</AltitudeMeters>
            <DistanceMeters>32146.01591249</DistanceMeters>
          </Trackpoint>
          <Trackpoint>
            <Time>2020-09-13T10:04:09.000Z</Time>
            <Position>
              <LatitudeDegrees>41.1235924065113067626953125</LatitudeDegrees>
              <LongitudeDegrees>-4.36208750121295452117919921875</LongitudeDegrees>
            </Position>
            <AltitudeMeters>885.79998779296875</AltitudeMeters>
            <DistanceMeters>32204.490939179</DistanceMeters>
          </Trackpoint>
          <Trackpoint>
            <Time>2020-09-13T10:04:10.000Z</Time>
            <Position>
              <LatitudeDegrees>41.12354747951030731201171875</LatitudeDegrees>
              <LongitudeDegrees>-4.3621521256864070892333984375</LongitudeDegrees>
            </Position>
            <AltitudeMeters>886</AltitudeMeters>
            <DistanceMeters>32211.863934513</DistanceMeters>
          </Trackpoint>
          <Trackpoint>
            <Time>2020-09-13T10:04:11.000Z</Time>
            <Position>
              <LatitudeDegrees>41.123510263860225677490234375</LatitudeDegrees>
              <LongitudeDegrees>-4.36220535077154636383056640625</LongitudeDegrees>
            </Position>
            <AltitudeMeters>886</AltitudeMeters>
            <DistanceMeters>32217.951580505</DistanceMeters>
          </Trackpoint>
          <Trackpoint>
            <Time>2020-09-13T10:04:16.000Z</Time>
            <Position>
              <LatitudeDegrees>41.1233233474195003509521484375</LatitudeDegrees>
              <LongitudeDegrees>-4.36246938072144985198974609375</LongitudeDegrees>
            </Position>
            <AltitudeMeters>886.4000244140625</AltitudeMeters>
            <DistanceMeters>32248.330270117</DistanceMeters>
          </Trackpoint>
          <Trackpoint>
            <Time>2020-09-13T10:04:18.000Z</Time>
            <Position>
              <LatitudeDegrees>41.12325687892735004425048828125</LatitudeDegrees>
              <LongitudeDegrees>-4.36255655251443386077880859375</LongitudeDegrees>
            </Position>
            <AltitudeMeters>886.5999755859375</AltitudeMeters>
            <DistanceMeters>32258.729510257</DistanceMeters>
          </Trackpoint>
          <Trackpoint>
            <Time>2020-09-13T10:04:20.000Z</Time>
            <Position>
              <LatitudeDegrees>41.123166270554065704345703125</LatitudeDegrees>
              <LongitudeDegrees>-4.362652190029621124267578125</LongitudeDegrees>
            </Position>
            <AltitudeMeters>886.79998779296875</AltitudeMeters>
            <DistanceMeters>32271.613254479</DistanceMeters>
          </Trackpoint>
          <Trackpoint>
            <Time>2020-09-13T10:04:22.000Z</Time>
            <Position>
              <LatitudeDegrees>41.12308270297944545745849609375</LatitudeDegrees>
              <LongitudeDegrees>-4.36273030936717987060546875</LongitudeDegrees>
            </Position>
            <AltitudeMeters>887</AltitudeMeters>
            <DistanceMeters>32282.989504107</DistanceMeters>
          </Trackpoint>
          <Trackpoint>
            <Time>2020-09-13T10:04:25.000Z</Time>
            <Position>
              <LatitudeDegrees>41.12296351231634616851806640625</LatitudeDegrees>
              <LongitudeDegrees>-4.36283600516617298126220703125</LongitudeDegrees>
            </Position>
            <AltitudeMeters>886.5999755859375</AltitudeMeters>
            <DistanceMeters>32298.943524438</DistanceMeters>
          </Trackpoint>
          <Trackpoint>
            <Time>2020-09-13T10:04:28.000Z</Time>
            <Position>
              <LatitudeDegrees>41.12284339964389801025390625</LatitudeDegrees>
              <LongitudeDegrees>-4.36292351223528385162353515625</LongitudeDegrees>
            </Position>
            <AltitudeMeters>886.5999755859375</AltitudeMeters>
            <DistanceMeters>32314.193165702</DistanceMeters>
          </Trackpoint>
          <Trackpoint>
            <Time>2020-09-13T10:04:30.000Z</Time>
            <Position>
              <LatitudeDegrees>41.12276553176343441009521484375</LatitudeDegrees>
              <LongitudeDegrees>-4.36297900043427944183349609375</LongitudeDegrees>
            </Position>
            <AltitudeMeters>886.4000244140625</AltitudeMeters>
            <DistanceMeters>32324.02969299</DistanceMeters>
          </Trackpoint>
          <Trackpoint>
            <Time>2020-09-13T10:04:32.000Z</Time>
            <Position>
              <LatitudeDegrees>41.12268489785492420196533203125</LatitudeDegrees>
              <LongitudeDegrees>-4.3630285374820232391357421875</LongitudeDegrees>
            </Position>
            <AltitudeMeters>886.20001220703125</AltitudeMeters>
            <DistanceMeters>32333.918408671</DistanceMeters>
          </Trackpoint>
          <Trackpoint>
            <Time>2020-09-13T10:04:34.000Z</Time>
            <Position>
              <LatitudeDegrees>41.12260543741285800933837890625</LatitudeDegrees>
              <LongitudeDegrees>-4.36307807452976703643798828125</LongitudeDegrees>
            </Position>
            <AltitudeMeters>886.20001220703125</AltitudeMeters>
            <DistanceMeters>32343.689077438</DistanceMeters>
          </Trackpoint>
          <Trackpoint>
            <Time>2020-09-13T10:04:35.000Z</Time>
            <Position>
              <LatitudeDegrees>41.12256352789700031280517578125</LatitudeDegrees>
              <LongitudeDegrees>-4.36310271732509136199951171875</LongitudeDegrees>
            </Position>
            <AltitudeMeters>886</AltitudeMeters>
            <DistanceMeters>32348.791401457</DistanceMeters>
          </Trackpoint>
          <Trackpoint>
            <Time>2020-09-13T10:04:37.000Z</Time>
            <Position>
              <LatitudeDegrees>41.12247417680919170379638671875</LatitudeDegrees>
              <LongitudeDegrees>-4.3631492368876934051513671875</LongitudeDegrees>
            </Position>
            <AltitudeMeters>885.79998779296875</AltitudeMeters>
            <DistanceMeters>32359.473773666</DistanceMeters>
          </Trackpoint>
          <Trackpoint>
            <Time>2020-09-13T10:04:38.000Z</Time>
            <Position>
              <LatitudeDegrees>41.12242992036044597625732421875</LatitudeDegrees>
              <LongitudeDegrees>-4.36317312531173229217529296875</LongitudeDegrees>
            </Position>
            <AltitudeMeters>885.79998779296875</AltitudeMeters>
            <DistanceMeters>32364.791025715</DistanceMeters>
          </Trackpoint>
          <Trackpoint>
            <Time>2020-09-13T10:04:39.000Z</Time>
            <Position>
              <LatitudeDegrees>41.12238398753106594085693359375</LatitudeDegrees>
              <LongitudeDegrees>-4.363193325698375701904296875</LongitudeDegrees>
            </Position>
            <AltitudeMeters>885.79998779296875</AltitudeMeters>
            <DistanceMeters>32370.176618118</DistanceMeters>
          </Trackpoint>
          <Trackpoint>
            <Time>2020-09-13T10:04:40.000Z</Time>
            <Position>
              <LatitudeDegrees>41.1223403178155422210693359375</LatitudeDegrees>
              <LongitudeDegrees>-4.36321352608501911163330078125</LongitudeDegrees>
            </Position>
            <AltitudeMeters>885.5999755859375</AltitudeMeters>
            <DistanceMeters>32375.323874114</DistanceMeters>
          </Trackpoint>
          <Trackpoint>
            <Time>2020-09-13T10:04:42.000Z</Time>
            <Position>
              <LatitudeDegrees>41.122255660593509674072265625</LatitudeDegrees>
              <LongitudeDegrees>-4.36325493268668651580810546875</LongitudeDegrees>
            </Position>
            <AltitudeMeters>885.5999755859375</AltitudeMeters>
            <DistanceMeters>32385.36528007</DistanceMeters>
          </Trackpoint>
          <Trackpoint>
            <Time>2020-09-13T10:04:44.000Z</Time>
            <Position>
              <LatitudeDegrees>41.1221723444759845733642578125</LatitudeDegrees>
              <LongitudeDegrees>-4.36330002732574939727783203125</LongitudeDegrees>
            </Position>
            <AltitudeMeters>885.79998779296875</AltitudeMeters>
            <DistanceMeters>32395.379671164</DistanceMeters>
          </Trackpoint>
          <Trackpoint>
            <Time>2020-09-13T10:04:45.000Z</Time>
            <Position>
              <LatitudeDegrees>41.12213102169334888458251953125</LatitudeDegrees>
              <LongitudeDegrees>-4.3633229099214076995849609375</LongitudeDegrees>
            </Position>
            <AltitudeMeters>885.79998779296875</AltitudeMeters>
            <DistanceMeters>32400.362914106</DistanceMeters>
          </Trackpoint>
          <Trackpoint>
            <Time>2020-09-13T10:04:47.000Z</Time>
            <Position>
              <LatitudeDegrees>41.122051142156124114990234375</LatitudeDegrees>
              <LongitudeDegrees>-4.36336331069469451904296875</LongitudeDegrees>
            </Position>
            <AltitudeMeters>886</AltitudeMeters>
            <DistanceMeters>32409.877456468</DistanceMeters>
          </Trackpoint>
          <Trackpoint>
            <Time>2020-09-13T10:04:49.000Z</Time>
            <Position>
              <LatitudeDegrees>41.12197545357048511505126953125</LatitudeDegrees>
              <LongitudeDegrees>-4.36340178363025188446044921875</LongitudeDegrees>
            </Position>
            <AltitudeMeters>886</AltitudeMeters>
            <DistanceMeters>32418.898490162</DistanceMeters>
          </Trackpoint>
          <Trackpoint>
            <Time>2020-09-13T10:04:50.000Z</Time>
            <Position>
              <LatitudeDegrees>41.12193572334945201873779296875</LatitudeDegrees>
              <LongitudeDegrees>-4.3634184636175632476806640625</LongitudeDegrees>
            </Position>
            <AltitudeMeters>886.20001220703125</AltitudeMeters>
            <DistanceMeters>32423.536339027</DistanceMeters>
          </Trackpoint>
          <Trackpoint>
            <Time>2020-09-13T10:04:52.000Z</Time>
            <Position>
              <LatitudeDegrees>41.12185575999319553375244140625</LatitudeDegrees>
              <LongitudeDegrees>-4.36345106922090053558349609375</LongitudeDegrees>
            </Position>
            <AltitudeMeters>886.20001220703125</AltitudeMeters>
            <DistanceMeters>32432.847017512</DistanceMeters>
          </Trackpoint>
          <Trackpoint>
            <Time>2020-09-13T10:04:54.000Z</Time>
            <Position>
              <LatitudeDegrees>41.12178183160722255706787109375</LatitudeDegrees>
              <LongitudeDegrees>-4.36348241753876209259033203125</LongitudeDegrees>
            </Position>
            <AltitudeMeters>886.4000244140625</AltitudeMeters>
            <DistanceMeters>32441.485567838</DistanceMeters>
          </Trackpoint>
          <Trackpoint>
            <Time>2020-09-13T10:04:55.000Z</Time>
            <Position>
              <LatitudeDegrees>41.12174830399453639984130859375</LatitudeDegrees>
              <LongitudeDegrees>-4.36350253410637378692626953125</LongitudeDegrees>
            </Position>
            <AltitudeMeters>886.4000244140625</AltitudeMeters>
            <DistanceMeters>32445.58054671</DistanceMeters>
          </Trackpoint>
          <Trackpoint>
            <Time>2020-09-13T10:04:58.000Z</Time>
            <Position>
              <LatitudeDegrees>41.12163883633911609649658203125</LatitudeDegrees>
              <LongitudeDegrees>-4.3635696731507778167724609375</LongitudeDegrees>
            </Position>
            <AltitudeMeters>886.5999755859375</AltitudeMeters>
            <DistanceMeters>32459.001871715</DistanceMeters>
          </Trackpoint>
          <Trackpoint>
            <Time>2020-09-13T10:04:59.000Z</Time>
            <Position>
              <LatitudeDegrees>41.12159776501357555389404296875</LatitudeDegrees>
              <LongitudeDegrees>-4.3635877780616283416748046875</LongitudeDegrees>
            </Position>
            <AltitudeMeters>886.79998779296875</AltitudeMeters>
            <DistanceMeters>32463.817392072</DistanceMeters>
          </Trackpoint>
          <Trackpoint>
            <Time>2020-09-13T10:05:04.000Z</Time>
            <Position>
              <LatitudeDegrees>41.1213941685855388641357421875</LatitudeDegrees>
              <LongitudeDegrees>-4.3636427633464336395263671875</LongitudeDegrees>
            </Position>
            <AltitudeMeters>887.20001220703125</AltitudeMeters>
            <DistanceMeters>32486.942294818</DistanceMeters>
          </Trackpoint>
          <Trackpoint>
            <Time>2020-09-13T10:05:07.000Z</Time>
            <Position>
              <LatitudeDegrees>41.121274642646312713623046875</LatitudeDegrees>
              <LongitudeDegrees>-4.363686852157115936279296875</LongitudeDegrees>
            </Position>
            <AltitudeMeters>887.4000244140625</AltitudeMeters>
            <DistanceMeters>32500.749646986</DistanceMeters>
          </Trackpoint>
          <Trackpoint>
            <Time>2020-09-13T10:05:10.000Z</Time>
            <Position>
              <LatitudeDegrees>41.12117104232311248779296875</LatitudeDegrees>
              <LongitudeDegrees>-4.36377502977848052978515625</LongitudeDegrees>
            </Position>
            <AltitudeMeters>887.4000244140625</AltitudeMeters>
            <DistanceMeters>32514.447344907</DistanceMeters>
          </Trackpoint>
          <Trackpoint>
            <Time>2020-09-13T10:05:18.000Z</Time>
            <Position>
              <LatitudeDegrees>41.12093274481594562530517578125</LatitudeDegrees>
              <LongitudeDegrees>-4.36396085657179355621337890625</LongitudeDegrees>
            </Position>
            <AltitudeMeters>887.79998779296875</AltitudeMeters>
            <DistanceMeters>32545.208271752</DistanceMeters>
          </Trackpoint>
          <Trackpoint>
            <Time>2020-09-13T10:05:22.000Z</Time>
            <Position>
              <LatitudeDegrees>41.12089418806135654449462890625</LatitudeDegrees>
              <LongitudeDegrees>-4.3640873394906520843505859375</LongitudeDegrees>
            </Position>
            <AltitudeMeters>887.79998779296875</AltitudeMeters>
            <DistanceMeters>32556.648635731</DistanceMeters>
          </Trackpoint>
          <Trackpoint>
            <Time>2020-09-13T10:05:23.000Z</Time>
            <Position>
              <LatitudeDegrees>41.12089334987103939056396484375</LatitudeDegrees>
              <LongitudeDegrees>-4.3641136586666107177734375</LongitudeDegrees>
            </Position>
            <AltitudeMeters>887.79998779296875</AltitudeMeters>
            <DistanceMeters>32558.856857024</DistanceMeters>
          </Trackpoint>
          <Trackpoint>
            <Time>2020-09-13T10:05:24.000Z</Time>
            <Position>
              <LatitudeDegrees>41.1208925954997539520263671875</LatitudeDegrees>
              <LongitudeDegrees>-4.36412815935909748077392578125</LongitudeDegrees>
            </Position>
            <AltitudeMeters>887.79998779296875</AltitudeMeters>
            <DistanceMeters>32560.07379274</DistanceMeters>
          </Trackpoint>
          <Trackpoint>
            <Time>2020-09-13T10:06:19.000Z</Time>
            <Position>
              <LatitudeDegrees>41.12091095186769962310791015625</LatitudeDegrees>
              <LongitudeDegrees>-4.36413000337779521942138671875</LongitudeDegrees>
            </Position>
            <AltitudeMeters>887.5999755859375</AltitudeMeters>
            <DistanceMeters>32562.125137573</DistanceMeters>
          </Trackpoint>
          <Trackpoint>
            <Time>2020-09-13T10:06:20.000Z</Time>
            <Position>
              <LatitudeDegrees>41.12091111950576305389404296875</LatitudeDegrees>
              <LongitudeDegrees>-4.36413000337779521942138671875</LongitudeDegrees>
            </Position>
            <AltitudeMeters>887.5999755859375</AltitudeMeters>
            <DistanceMeters>32562.125137573</DistanceMeters>
          </Trackpoint>
          <Trackpoint>
            <Time>2020-09-13T10:06:21.000Z</Time>
            <Position>
              <LatitudeDegrees>41.12091145478188991546630859375</LatitudeDegrees>
              <LongitudeDegrees>-4.36413000337779521942138671875</LongitudeDegrees>
            </Position>
            <AltitudeMeters>887.5999755859375</AltitudeMeters>
            <DistanceMeters>32562.125137573</DistanceMeters>
          </Trackpoint>
          <Trackpoint>
            <Time>2020-09-13T10:06:23.000Z</Time>
            <Position>
              <LatitudeDegrees>41.120911873877048492431640625</LatitudeDegrees>
              <LongitudeDegrees>-4.36413000337779521942138671875</LongitudeDegrees>
            </Position>
            <AltitudeMeters>887.5999755859375</AltitudeMeters>
            <DistanceMeters>32562.220164288</DistanceMeters>
          </Trackpoint>
          <Trackpoint>
            <Time>2020-09-13T10:06:24.000Z</Time>
            <Position>
              <LatitudeDegrees>41.12091447226703166961669921875</LatitudeDegrees>
              <LongitudeDegrees>-4.36413369141519069671630859375</LongitudeDegrees>
            </Position>
            <AltitudeMeters>887.5999755859375</AltitudeMeters>
            <DistanceMeters>32562.645136674</DistanceMeters>
          </Trackpoint>
          <Trackpoint>
            <Time>2020-09-13T10:06:27.000Z</Time>
            <Position>
              <LatitudeDegrees>41.120916903018951416015625</LatitudeDegrees>
              <LongitudeDegrees>-4.36421046964824199676513671875</LongitudeDegrees>
            </Position>
            <AltitudeMeters>887.5999755859375</AltitudeMeters>
            <DistanceMeters>32569.088760769</DistanceMeters>
          </Trackpoint>
          <Trackpoint>
            <Time>2020-09-13T10:06:31.000Z</Time>
            <Position>
              <LatitudeDegrees>41.120861582458019256591796875</LatitudeDegrees>
              <LongitudeDegrees>-4.364317841827869415283203125</LongitudeDegrees>
            </Position>
            <AltitudeMeters>887.79998779296875</AltitudeMeters>
            <DistanceMeters>32579.996155378</DistanceMeters>
          </Trackpoint>
          <Trackpoint>
            <Time>2020-09-13T10:06:32.000Z</Time>
            <Position>
              <LatitudeDegrees>41.12086049281060695648193359375</LatitudeDegrees>
              <LongitudeDegrees>-4.36435245908796787261962890625</LongitudeDegrees>
            </Position>
            <AltitudeMeters>887.79998779296875</AltitudeMeters>
            <DistanceMeters>32582.898750996</DistanceMeters>
          </Trackpoint>
          <Trackpoint>
            <Time>2020-09-13T10:06:35.000Z</Time>
            <Position>
              <LatitudeDegrees>41.1209053359925746917724609375</LatitudeDegrees>
              <LongitudeDegrees>-4.36447718180716037750244140625</LongitudeDegrees>
            </Position>
            <AltitudeMeters>888</AltitudeMeters>
            <DistanceMeters>32594.486556514</DistanceMeters>
          </Trackpoint>
          <Trackpoint>
            <Time>2020-09-13T10:06:37.000Z</Time>
            <Position>
              <LatitudeDegrees>41.12095068208873271942138671875</LatitudeDegrees>
              <LongitudeDegrees>-4.36457474716007709503173828125</LongitudeDegrees>
            </Position>
            <AltitudeMeters>887.5999755859375</AltitudeMeters>
            <DistanceMeters>32604.098826911</DistanceMeters>
          </Trackpoint>
          <Trackpoint>
            <Time>2020-09-13T10:06:39.000Z</Time>
            <Position>
              <LatitudeDegrees>41.12098236568272113800048828125</LatitudeDegrees>
              <LongitudeDegrees>-4.36467281542718410491943359375</LongitudeDegrees>
            </Position>
            <AltitudeMeters>887</AltitudeMeters>
            <DistanceMeters>32613.045479782</DistanceMeters>
          </Trackpoint>
          <Trackpoint>
            <Time>2020-09-13T10:06:40.000Z</Time>
            <Position>
              <LatitudeDegrees>41.12099292688071727752685546875</LatitudeDegrees>
              <LongitudeDegrees>-4.3647424690425395965576171875</LongitudeDegrees>
            </Position>
            <AltitudeMeters>886.79998779296875</AltitudeMeters>
            <DistanceMeters>32619.002677145</DistanceMeters>
          </Trackpoint>
          <Trackpoint>
            <Time>2020-09-13T10:06:43.000Z</Time>
            <Position>
              <LatitudeDegrees>41.1210039071738719940185546875</LatitudeDegrees>
              <LongitudeDegrees>-4.36491823755204677581787109375</LongitudeDegrees>
            </Position>
            <AltitudeMeters>885.79998779296875</AltitudeMeters>
            <DistanceMeters>32633.790250684</DistanceMeters>
          </Trackpoint>
          <Trackpoint>
            <Time>2020-09-13T10:06:45.000Z</Time>
            <Position>
              <LatitudeDegrees>41.12100499682128429412841796875</LatitudeDegrees>
              <LongitudeDegrees>-4.36503030359745025634765625</LongitudeDegrees>
            </Position>
            <AltitudeMeters>885.4000244140625</AltitudeMeters>
            <DistanceMeters>32643.186850466</DistanceMeters>
          </Trackpoint>
          <Trackpoint>
            <Time>2020-09-13T10:06:47.000Z</Time>
            <Position>
              <LatitudeDegrees>41.12100583501160144805908203125</LatitudeDegrees>
              <LongitudeDegrees>-4.3651414476335048675537109375</LongitudeDegrees>
            </Position>
            <AltitudeMeters>884.79998779296875</AltitudeMeters>
            <DistanceMeters>32652.506253625</DistanceMeters>
          </Trackpoint>
          <Trackpoint>
            <Time>2020-09-13T10:06:49.000Z</Time>
            <Position>
              <LatitudeDegrees>41.12100315280258655548095703125</LatitudeDegrees>
              <LongitudeDegrees>-4.36524060554802417755126953125</LongitudeDegrees>
            </Position>
            <AltitudeMeters>884.4000244140625</AltitudeMeters>
            <DistanceMeters>32660.825298394</DistanceMeters>
          </Trackpoint>
          <Trackpoint>
            <Time>2020-09-13T10:06:51.000Z</Time>
            <Position>
              <LatitudeDegrees>41.12097951583564281463623046875</LatitudeDegrees>
              <LongitudeDegrees>-4.3653338961303234100341796875</LongitudeDegrees>
            </Position>
            <AltitudeMeters>884</AltitudeMeters>
            <DistanceMeters>32669.077863846</DistanceMeters>
          </Trackpoint>
          <Trackpoint>
            <Time>2020-09-13T10:06:53.000Z</Time>
            <Position>
              <LatitudeDegrees>41.12094934098422527313232421875</LatitudeDegrees>
              <LongitudeDegrees>-4.365415871143341064453125</LongitudeDegrees>
            </Position>
            <AltitudeMeters>883.5999755859375</AltitudeMeters>
            <DistanceMeters>32676.727957011</DistanceMeters>
          </Trackpoint>
          <Trackpoint>
            <Time>2020-09-13T10:06:56.000Z</Time>
            <Position>
              <LatitudeDegrees>41.12094598822295665740966796875</LatitudeDegrees>
              <LongitudeDegrees>-4.3655115924775600433349609375</LongitudeDegrees>
            </Position>
            <AltitudeMeters>883.20001220703125</AltitudeMeters>
            <DistanceMeters>32684.762070927</DistanceMeters>
          </Trackpoint>
          <Trackpoint>
            <Time>2020-09-13T10:06:57.000Z</Time>
            <Position>
              <LatitudeDegrees>41.12096744589507579803466796875</LatitudeDegrees>
              <LongitudeDegrees>-4.365532882511615753173828125</LongitudeDegrees>
            </Position>
            <AltitudeMeters>883.20001220703125</AltitudeMeters>
            <DistanceMeters>32687.744456767</DistanceMeters>
          </Trackpoint>
          <Trackpoint>
            <Time>2020-09-13T10:07:00.000Z</Time>
            <Position>
              <LatitudeDegrees>41.121075153350830078125</LatitudeDegrees>
              <LongitudeDegrees>-4.36552525497972965240478515625</LongitudeDegrees>
            </Position>
            <AltitudeMeters>883.20001220703125</AltitudeMeters>
            <DistanceMeters>32699.749456561</DistanceMeters>
          </Trackpoint>
          <Trackpoint>
            <Time>2020-09-13T10:07:01.000Z</Time>
            <Position>
              <LatitudeDegrees>41.121116392314434051513671875</LatitudeDegrees>
              <LongitudeDegrees>-4.36551620252430438995361328125</LongitudeDegrees>
            </Position>
            <AltitudeMeters>883.20001220703125</AltitudeMeters>
            <DistanceMeters>32704.400914737</DistanceMeters>
          </Trackpoint>
          <Trackpoint>
            <Time>2020-09-13T10:07:06.000Z</Time>
            <Position>
              <LatitudeDegrees>41.12130456604063510894775390625</LatitudeDegrees>
              <LongitudeDegrees>-4.3654975108802318572998046875</LongitudeDegrees>
            </Position>
            <AltitudeMeters>883.20001220703125</AltitudeMeters>
            <DistanceMeters>32725.403538482</DistanceMeters>
          </Trackpoint>
          <Trackpoint>
            <Time>2020-09-13T10:07:07.000Z</Time>
            <Position>
              <LatitudeDegrees>41.1213479004800319671630859375</LatitudeDegrees>
              <LongitudeDegrees>-4.36552206985652446746826171875</LongitudeDegrees>
            </Position>
            <AltitudeMeters>883</AltitudeMeters>
            <DistanceMeters>32730.64811786</DistanceMeters>
          </Trackpoint>
          <Trackpoint>
            <Time>2020-09-13T10:07:08.000Z</Time>
            <Position>
              <LatitudeDegrees>41.1213844455778598785400390625</LatitudeDegrees>
              <LongitudeDegrees>-4.3655521608889102935791015625</LongitudeDegrees>
            </Position>
            <AltitudeMeters>883</AltitudeMeters>
            <DistanceMeters>32735.435427545</DistanceMeters>
          </Trackpoint>
          <Trackpoint>
            <Time>2020-09-13T10:07:10.000Z</Time>
            <Position>
              <LatitudeDegrees>41.12144320271909236907958984375</LatitudeDegrees>
              <LongitudeDegrees>-4.365627765655517578125</LongitudeDegrees>
            </Position>
            <AltitudeMeters>882.4000244140625</AltitudeMeters>
            <DistanceMeters>32744.543132097</DistanceMeters>
          </Trackpoint>
          <Trackpoint>
            <Time>2020-09-13T10:07:17.000Z</Time>
            <Position>
              <LatitudeDegrees>41.1216442845761775970458984375</LatitudeDegrees>
              <LongitudeDegrees>-4.3659632094204425811767578125</LongitudeDegrees>
            </Position>
            <AltitudeMeters>880.5999755859375</AltitudeMeters>
            <DistanceMeters>32780.486727728</DistanceMeters>
          </Trackpoint>
          <Trackpoint>
            <Time>2020-09-13T10:07:18.000Z</Time>
            <Position>
              <LatitudeDegrees>41.121678985655307769775390625</LatitudeDegrees>
              <LongitudeDegrees>-4.36599799431860446929931640625</LongitudeDegrees>
            </Position>
            <AltitudeMeters>880.4000244140625</AltitudeMeters>
            <DistanceMeters>32785.326564326</DistanceMeters>
          </Trackpoint>
          <Trackpoint>
            <Time>2020-09-13T10:07:19.000Z</Time>
            <Position>
              <LatitudeDegrees>41.121717207133769989013671875</LatitudeDegrees>
              <LongitudeDegrees>-4.36602883972227573394775390625</LongitudeDegrees>
            </Position>
            <AltitudeMeters>880.20001220703125</AltitudeMeters>
            <DistanceMeters>32790.305274987</DistanceMeters>
          </Trackpoint>
          <Trackpoint>
            <Time>2020-09-13T10:07:20.000Z</Time>
            <Position>
              <LatitudeDegrees>41.12174998037517070770263671875</LatitudeDegrees>
              <LongitudeDegrees>-4.36605130322277545928955078125</LongitudeDegrees>
            </Position>
            <AltitudeMeters>880</AltitudeMeters>
            <DistanceMeters>32794.410165076</DistanceMeters>
          </Trackpoint>
          <Trackpoint>
            <Time>2020-09-13T10:07:21.000Z</Time>
            <Position>
              <LatitudeDegrees>41.12180010415613651275634765625</LatitudeDegrees>
              <LongitudeDegrees>-4.36608449555933475494384765625</LongitudeDegrees>
            </Position>
            <AltitudeMeters>879.79998779296875</AltitudeMeters>
            <DistanceMeters>32800.644381066</DistanceMeters>
          </Trackpoint>
          <Trackpoint>
            <Time>2020-09-13T10:07:22.000Z</Time>
            <Position>
              <LatitudeDegrees>41.12184025347232818603515625</LatitudeDegrees>
              <LongitudeDegrees>-4.36610746197402477264404296875</LongitudeDegrees>
            </Position>
            <AltitudeMeters>879.5999755859375</AltitudeMeters>
            <DistanceMeters>32805.511196299</DistanceMeters>
          </Trackpoint>
          <Trackpoint>
            <Time>2020-09-13T10:07:23.000Z</Time>
            <Position>
              <LatitudeDegrees>41.12188073806464672088623046875</LatitudeDegrees>
              <LongitudeDegrees>-4.36612891964614391326904296875</LongitudeDegrees>
            </Position>
            <AltitudeMeters>879.5999755859375</AltitudeMeters>
            <DistanceMeters>32810.364075791</DistanceMeters>
          </Trackpoint>
          <Trackpoint>
            <Time>2020-09-13T10:07:25.000Z</Time>
            <Position>
              <LatitudeDegrees>41.12195215187966823577880859375</LatitudeDegrees>
              <LongitudeDegrees>-4.3661663867533206939697265625</LongitudeDegrees>
            </Position>
            <AltitudeMeters>879.4000244140625</AltitudeMeters>
            <DistanceMeters>32818.911199192</DistanceMeters>
          </Trackpoint>
          <Trackpoint>
            <Time>2020-09-13T10:07:30.000Z</Time>
            <Position>
              <LatitudeDegrees>41.12210235558450222015380859375</LatitudeDegrees>
              <LongitudeDegrees>-4.366234280169010162353515625</LongitudeDegrees>
            </Position>
            <AltitudeMeters>879.20001220703125</AltitudeMeters>
            <DistanceMeters>32836.571857175</DistanceMeters>
          </Trackpoint>
          <Trackpoint>
            <Time>2020-09-13T10:07:36.000Z</Time>
            <Position>
              <LatitudeDegrees>41.12220964394509792327880859375</LatitudeDegrees>
              <LongitudeDegrees>-4.3662964738905429840087890625</LongitudeDegrees>
            </Position>
            <AltitudeMeters>878.79998779296875</AltitudeMeters>
            <DistanceMeters>32849.601956841</DistanceMeters>
          </Trackpoint>
          <Trackpoint>
            <Time>2020-09-13T10:07:42.000Z</Time>
            <Position>
              <LatitudeDegrees>41.1223255656659603118896484375</LatitudeDegrees>
              <LongitudeDegrees>-4.3664627708494663238525390625</LongitudeDegrees>
            </Position>
            <AltitudeMeters>878</AltitudeMeters>
            <DistanceMeters>32868.598745385</DistanceMeters>
          </Trackpoint>
          <Trackpoint>
            <Time>2020-09-13T10:07:45.000Z</Time>
            <Position>
              <LatitudeDegrees>41.122387759387493133544921875</LatitudeDegrees>
              <LongitudeDegrees>-4.366573579609394073486328125</LongitudeDegrees>
            </Position>
            <AltitudeMeters>877.5999755859375</AltitudeMeters>
            <DistanceMeters>32880.18499225</DistanceMeters>
          </Trackpoint>
          <Trackpoint>
            <Time>2020-09-13T10:07:48.000Z</Time>
            <Position>
              <LatitudeDegrees>41.12244383431971073150634765625</LatitudeDegrees>
              <LongitudeDegrees>-4.36671263538300991058349609375</LongitudeDegrees>
            </Position>
            <AltitudeMeters>877</AltitudeMeters>
            <DistanceMeters>32893.409761457</DistanceMeters>
          </Trackpoint>
          <Trackpoint>
            <Time>2020-09-13T10:07:51.000Z</Time>
            <Position>
              <LatitudeDegrees>41.12248507328331470489501953125</LatitudeDegrees>
              <LongitudeDegrees>-4.366868622601032257080078125</LongitudeDegrees>
            </Position>
            <AltitudeMeters>876.4000244140625</AltitudeMeters>
            <DistanceMeters>32907.270312541</DistanceMeters>
          </Trackpoint>
          <Trackpoint>
            <Time>2020-09-13T10:08:00.000Z</Time>
            <Position>
              <LatitudeDegrees>41.122617088258266448974609375</LatitudeDegrees>
              <LongitudeDegrees>-4.36736307106912136077880859375</LongitudeDegrees>
            </Position>
            <AltitudeMeters>875.20001220703125</AltitudeMeters>
            <DistanceMeters>32951.254030631</DistanceMeters>
          </Trackpoint>
          <Trackpoint>
            <Time>2020-09-13T10:08:06.000Z</Time>
            <Position>
              <LatitudeDegrees>41.122733764350414276123046875</LatitudeDegrees>
              <LongitudeDegrees>-4.3677606247365474700927734375</LongitudeDegrees>
            </Position>
            <AltitudeMeters>875.4000244140625</AltitudeMeters>
            <DistanceMeters>32987.026887426</DistanceMeters>
          </Trackpoint>
          <Trackpoint>
            <Time>2020-09-13T10:08:15.000Z</Time>
            <Position>
              <LatitudeDegrees>41.1229138076305389404296875</LatitudeDegrees>
              <LongitudeDegrees>-4.36841030605137348175048828125</LongitudeDegrees>
            </Position>
            <AltitudeMeters>873.5999755859375</AltitudeMeters>
            <DistanceMeters>33045.067832354</DistanceMeters>
          </Trackpoint>
          <Trackpoint>
            <Time>2020-09-13T10:08:19.000Z</Time>
            <Position>
              <LatitudeDegrees>41.12298496998846530914306640625</LatitudeDegrees>
              <LongitudeDegrees>-4.36868824996054172515869140625</LongitudeDegrees>
            </Position>
            <AltitudeMeters>873.5999755859375</AltitudeMeters>
            <DistanceMeters>33069.681035487</DistanceMeters>
          </Trackpoint>
          <Trackpoint>
            <Time>2020-09-13T10:08:23.000Z</Time>
            <Position>
              <LatitudeDegrees>41.1230648495256900787353515625</LatitudeDegrees>
              <LongitudeDegrees>-4.3689858913421630859375</LongitudeDegrees>
            </Position>
            <AltitudeMeters>872.5999755859375</AltitudeMeters>
            <DistanceMeters>33096.172874631</DistanceMeters>
          </Trackpoint>
          <Trackpoint>
            <Time>2020-09-13T10:08:26.000Z</Time>
            <Position>
              <LatitudeDegrees>41.12312377430498600006103515625</LatitudeDegrees>
              <LongitudeDegrees>-4.36920440755784511566162109375</LongitudeDegrees>
            </Position>
            <AltitudeMeters>871.4000244140625</AltitudeMeters>
            <DistanceMeters>33115.632480374</DistanceMeters>
          </Trackpoint>
          <Trackpoint>
            <Time>2020-09-13T10:08:29.000Z</Time>
            <Position>
              <LatitudeDegrees>41.1231808550655841827392578125</LatitudeDegrees>
              <LongitudeDegrees>-4.36942602507770061492919921875</LongitudeDegrees>
            </Position>
            <AltitudeMeters>870.20001220703125</AltitudeMeters>
            <DistanceMeters>33135.269929662</DistanceMeters>
          </Trackpoint>
          <Trackpoint>
            <Time>2020-09-13T10:08:33.000Z</Time>
            <Position>
              <LatitudeDegrees>41.12326123751699924468994140625</LatitudeDegrees>
              <LongitudeDegrees>-4.3697167932987213134765625</LongitudeDegrees>
            </Position>
            <AltitudeMeters>870.79998779296875</AltitudeMeters>
            <DistanceMeters>33161.238837398</DistanceMeters>
          </Trackpoint>
          <Trackpoint>
            <Time>2020-09-13T10:08:41.000Z</Time>
            <Position>
              <LatitudeDegrees>41.12342719919979572296142578125</LatitudeDegrees>
              <LongitudeDegrees>-4.370344765484333038330078125</LongitudeDegrees>
            </Position>
            <AltitudeMeters>871.5999755859375</AltitudeMeters>
            <DistanceMeters>33217.036352272</DistanceMeters>
          </Trackpoint>
          <Trackpoint>
            <Time>2020-09-13T10:08:46.000Z</Time>
            <Position>
              <LatitudeDegrees>41.12352862022817134857177734375</LatitudeDegrees>
              <LongitudeDegrees>-4.37073997221887111663818359375</LongitudeDegrees>
            </Position>
            <AltitudeMeters>870.4000244140625</AltitudeMeters>
            <DistanceMeters>33252.04180004</DistanceMeters>
          </Trackpoint>
          <Trackpoint>
            <Time>2020-09-13T10:08:50.000Z</Time>
            <Position>
              <LatitudeDegrees>41.12361579202115535736083984375</LatitudeDegrees>
              <LongitudeDegrees>-4.371054209768772125244140625</LongitudeDegrees>
            </Position>
            <AltitudeMeters>869</AltitudeMeters>
            <DistanceMeters>33280.118133903</DistanceMeters>
          </Trackpoint>
          <Trackpoint>
            <Time>2020-09-13T10:08:52.000Z</Time>
            <Position>
              <LatitudeDegrees>41.1236569471657276153564453125</LatitudeDegrees>
              <LongitudeDegrees>-4.371214807033538818359375</LongitudeDegrees>
            </Position>
            <AltitudeMeters>869</AltitudeMeters>
            <DistanceMeters>33294.341065123</DistanceMeters>
          </Trackpoint>
          <Trackpoint>
            <Time>2020-09-13T10:08:54.000Z</Time>
            <Position>
              <LatitudeDegrees>41.1237005330622196197509765625</LatitudeDegrees>
              <LongitudeDegrees>-4.37136945314705371856689453125</LongitudeDegrees>
            </Position>
            <AltitudeMeters>869.4000244140625</AltitudeMeters>
            <DistanceMeters>33308.18466698</DistanceMeters>
          </Trackpoint>
          <Trackpoint>
            <Time>2020-09-13T10:09:01.000Z</Time>
            <Position>
              <LatitudeDegrees>41.1238450370728969573974609375</LatitudeDegrees>
              <LongitudeDegrees>-4.37191360630095005035400390625</LongitudeDegrees>
            </Position>
            <AltitudeMeters>870.20001220703125</AltitudeMeters>
            <DistanceMeters>33356.55989174</DistanceMeters>
          </Trackpoint>
          <Trackpoint>
            <Time>2020-09-13T10:09:08.000Z</Time>
            <Position>
              <LatitudeDegrees>41.1239912174642086029052734375</LatitudeDegrees>
              <LongitudeDegrees>-4.3724521435797214508056640625</LongitudeDegrees>
            </Position>
            <AltitudeMeters>869.4000244140625</AltitudeMeters>
            <DistanceMeters>33404.554121391</DistanceMeters>
          </Trackpoint>
          <Trackpoint>
            <Time>2020-09-13T10:09:14.000Z</Time>
            <Position>
              <LatitudeDegrees>41.1241290159523487091064453125</LatitudeDegrees>
              <LongitudeDegrees>-4.37292630784213542938232421875</LongitudeDegrees>
            </Position>
            <AltitudeMeters>869.79998779296875</AltitudeMeters>
            <DistanceMeters>33447.165100384</DistanceMeters>
          </Trackpoint>
          <Trackpoint>
            <Time>2020-09-13T10:09:18.000Z</Time>
            <Position>
              <LatitudeDegrees>41.12422130070626735687255859375</LatitudeDegrees>
              <LongitudeDegrees>-4.37323249876499176025390625</LongitudeDegrees>
            </Position>
            <AltitudeMeters>871.4000244140625</AltitudeMeters>
            <DistanceMeters>33474.815425015</DistanceMeters>
          </Trackpoint>
          <Trackpoint>
            <Time>2020-09-13T10:09:20.000Z</Time>
            <Position>
              <LatitudeDegrees>41.12426773644983768463134765625</LatitudeDegrees>
              <LongitudeDegrees>-4.3733847141265869140625</LongitudeDegrees>
            </Position>
            <AltitudeMeters>871.79998779296875</AltitudeMeters>
            <DistanceMeters>33488.584792648</DistanceMeters>
          </Trackpoint>
          <Trackpoint>
            <Time>2020-09-13T10:09:24.000Z</Time>
            <Position>
              <LatitudeDegrees>41.1243647150695323944091796875</LatitudeDegrees>
              <LongitudeDegrees>-4.37369073741137981414794921875</LongitudeDegrees>
            </Position>
            <AltitudeMeters>871.5999755859375</AltitudeMeters>
            <DistanceMeters>33516.420321729</DistanceMeters>
          </Trackpoint>
          <Trackpoint>
            <Time>2020-09-13T10:09:30.000Z</Time>
            <Position>
              <LatitudeDegrees>41.12450771033763885498046875</LatitudeDegrees>
              <LongitudeDegrees>-4.374168254435062408447265625</LongitudeDegrees>
            </Position>
            <AltitudeMeters>871.79998779296875</AltitudeMeters>
            <DistanceMeters>33559.503803407</DistanceMeters>
          </Trackpoint>
          <Trackpoint>
            <Time>2020-09-13T10:09:34.000Z</Time>
            <Position>
              <LatitudeDegrees>41.12460292875766754150390625</LatitudeDegrees>
              <LongitudeDegrees>-4.37447830103337764739990234375</LongitudeDegrees>
            </Position>
            <AltitudeMeters>871.20001220703125</AltitudeMeters>
            <DistanceMeters>33587.576116658</DistanceMeters>
          </Trackpoint>
          <Trackpoint>
            <Time>2020-09-13T10:09:38.000Z</Time>
            <Position>
              <LatitudeDegrees>41.12468297593295574188232421875</LatitudeDegrees>
              <LongitudeDegrees>-4.3747910298407077789306640625</LongitudeDegrees>
            </Position>
            <AltitudeMeters>870.4000244140625</AltitudeMeters>
            <DistanceMeters>33615.268049088</DistanceMeters>
          </Trackpoint>
          <Trackpoint>
            <Time>2020-09-13T10:09:40.000Z</Time>
            <Position>
              <LatitudeDegrees>41.12471968866884708404541015625</LatitudeDegrees>
              <LongitudeDegrees>-4.37494634650647640228271484375</LongitudeDegrees>
            </Position>
            <AltitudeMeters>870.20001220703125</AltitudeMeters>
            <DistanceMeters>33628.916545231</DistanceMeters>
          </Trackpoint>
          <Trackpoint>
            <Time>2020-09-13T10:09:49.000Z</Time>
            <Position>
              <LatitudeDegrees>41.124815158545970916748046875</LatitudeDegrees>
              <LongitudeDegrees>-4.37559242360293865203857421875</LongitudeDegrees>
            </Position>
            <AltitudeMeters>869.4000244140625</AltitudeMeters>
            <DistanceMeters>33684.117006598</DistanceMeters>
          </Trackpoint>
          <Trackpoint>
            <Time>2020-09-13T10:09:59.000Z</Time>
            <Position>
              <LatitudeDegrees>41.12486134283244609832763671875</LatitudeDegrees>
              <LongitudeDegrees>-4.37630773521959781646728515625</LongitudeDegrees>
            </Position>
            <AltitudeMeters>868.4000244140625</AltitudeMeters>
            <DistanceMeters>33744.309660899</DistanceMeters>
          </Trackpoint>
          <Trackpoint>
            <Time>2020-09-13T10:10:08.000Z</Time>
            <Position>
              <LatitudeDegrees>41.12492471002042293548583984375</LatitudeDegrees>
              <LongitudeDegrees>-4.37701567076146602630615234375</LongitudeDegrees>
            </Position>
            <AltitudeMeters>867.4000244140625</AltitudeMeters>
            <DistanceMeters>33804.0813887</DistanceMeters>
          </Trackpoint>
          <Trackpoint>
            <Time>2020-09-13T10:10:17.000Z</Time>
            <Position>
              <LatitudeDegrees>41.1250694654881954193115234375</LatitudeDegrees>
              <LongitudeDegrees>-4.3777723051607608795166015625</LongitudeDegrees>
            </Position>
            <AltitudeMeters>866.5999755859375</AltitudeMeters>
            <DistanceMeters>33869.53251707</DistanceMeters>
          </Trackpoint>
          <Trackpoint>
            <Time>2020-09-13T10:10:20.000Z</Time>
            <Position>
              <LatitudeDegrees>41.12512520514428615570068359375</LatitudeDegrees>
              <LongitudeDegrees>-4.37803809531033039093017578125</LongitudeDegrees>
            </Position>
            <AltitudeMeters>866</AltitudeMeters>
            <DistanceMeters>33892.664057218</DistanceMeters>
          </Trackpoint>
          <Trackpoint>
            <Time>2020-09-13T10:10:25.000Z</Time>
            <Position>
              <LatitudeDegrees>41.125217489898204803466796875</LatitudeDegrees>
              <LongitudeDegrees>-4.3784519098699092864990234375</LongitudeDegrees>
            </Position>
            <AltitudeMeters>866.20001220703125</AltitudeMeters>
            <DistanceMeters>33928.847155525</DistanceMeters>
          </Trackpoint>
          <Trackpoint>
            <Time>2020-09-13T10:10:30.000Z</Time>
            <Position>
              <LatitudeDegrees>41.1253427155315876007080078125</LatitudeDegrees>
              <LongitudeDegrees>-4.3788763694465160369873046875</LongitudeDegrees>
            </Position>
            <AltitudeMeters>866</AltitudeMeters>
            <DistanceMeters>33967.066328274</DistanceMeters>
          </Trackpoint>
          <Trackpoint>
            <Time>2020-09-13T10:10:37.000Z</Time>
            <Position>
              <LatitudeDegrees>41.12560347653925418853759765625</LatitudeDegrees>
              <LongitudeDegrees>-4.37946268357336521148681640625</LongitudeDegrees>
            </Position>
            <AltitudeMeters>864</AltitudeMeters>
            <DistanceMeters>34024.151842434</DistanceMeters>
          </Trackpoint>
          <Trackpoint>
            <Time>2020-09-13T10:10:41.000Z</Time>
            <Position>
              <LatitudeDegrees>41.125784777104854583740234375</LatitudeDegrees>
              <LongitudeDegrees>-4.37979494221508502960205078125</LongitudeDegrees>
            </Position>
            <AltitudeMeters>862.5999755859375</AltitudeMeters>
            <DistanceMeters>34058.549412934</DistanceMeters>
          </Trackpoint>
          <Trackpoint>
            <Time>2020-09-13T10:10:43.000Z</Time>
            <Position>
              <LatitudeDegrees>41.1258758045732975006103515625</LatitudeDegrees>
              <LongitudeDegrees>-4.3799616582691669464111328125</LongitudeDegrees>
            </Position>
            <AltitudeMeters>861.79998779296875</AltitudeMeters>
            <DistanceMeters>34075.812395956</DistanceMeters>
          </Trackpoint>
          <Trackpoint>
            <Time>2020-09-13T10:10:50.000Z</Time>
            <Position>
              <LatitudeDegrees>41.12621434964239597320556640625</LatitudeDegrees>
              <LongitudeDegrees>-4.3805502355098724365234375</LongitudeDegrees>
            </Position>
            <AltitudeMeters>858.4000244140625</AltitudeMeters>
            <DistanceMeters>34137.900192531</DistanceMeters>
          </Trackpoint>
          <Trackpoint>
            <Time>2020-09-13T10:10:54.000Z</Time>
            <Position>
              <LatitudeDegrees>41.1264060437679290771484375</LatitudeDegrees>
              <LongitudeDegrees>-4.38088458962738513946533203125</LongitudeDegrees>
            </Position>
            <AltitudeMeters>857.20001220703125</AltitudeMeters>
            <DistanceMeters>34173.128327109</DistanceMeters>
          </Trackpoint>
          <Trackpoint>
            <Time>2020-09-13T10:11:01.000Z</Time>
            <Position>
              <LatitudeDegrees>41.12671541981399059295654296875</LatitudeDegrees>
              <LongitudeDegrees>-4.38154139555990695953369140625</LongitudeDegrees>
            </Position>
            <AltitudeMeters>855.79998779296875</AltitudeMeters>
            <DistanceMeters>34238.074341824</DistanceMeters>
          </Trackpoint>
          <Trackpoint>
            <Time>2020-09-13T10:11:02.000Z</Time>
            <Position>
              <LatitudeDegrees>41.12675665877759456634521484375</LatitudeDegrees>
              <LongitudeDegrees>-4.38164122402667999267578125</LongitudeDegrees>
            </Position>
            <AltitudeMeters>855.5999755859375</AltitudeMeters>
            <DistanceMeters>34247.619679498</DistanceMeters>
          </Trackpoint>
          <Trackpoint>
            <Time>2020-09-13T10:11:06.000Z</Time>
            <Position>
              <LatitudeDegrees>41.126905940473079681396484375</LatitudeDegrees>
              <LongitudeDegrees>-4.3820442259311676025390625</LongitudeDegrees>
            </Position>
            <AltitudeMeters>854.4000244140625</AltitudeMeters>
            <DistanceMeters>34285.271369515</DistanceMeters>
          </Trackpoint>
          <Trackpoint>
            <Time>2020-09-13T10:11:10.000Z</Time>
            <Position>
              <LatitudeDegrees>41.127063520252704620361328125</LatitudeDegrees>
              <LongitudeDegrees>-4.3824423663318157196044921875</LongitudeDegrees>
            </Position>
            <AltitudeMeters>852.79998779296875</AltitudeMeters>
            <DistanceMeters>34322.978180521</DistanceMeters>
          </Trackpoint>
          <Trackpoint>
            <Time>2020-09-13T10:11:17.000Z</Time>
            <Position>
              <LatitudeDegrees>41.12734087742865085601806640625</LatitudeDegrees>
              <LongitudeDegrees>-4.3831752799451351165771484375</LongitudeDegrees>
            </Position>
            <AltitudeMeters>853.4000244140625</AltitudeMeters>
            <DistanceMeters>34391.743256324</DistanceMeters>
          </Trackpoint>
          <Trackpoint>
            <Time>2020-09-13T10:11:22.000Z</Time>
            <Position>
              <LatitudeDegrees>41.12753852270543575286865234375</LatitudeDegrees>
              <LongitudeDegrees>-4.38369688577950000762939453125</LongitudeDegrees>
            </Position>
            <AltitudeMeters>854.20001220703125</AltitudeMeters>
            <DistanceMeters>34440.695205476</DistanceMeters>
          </Trackpoint>
          <Trackpoint>
            <Time>2020-09-13T10:11:29.000Z</Time>
            <Position>
              <LatitudeDegrees>41.12785234116017818450927734375</LatitudeDegrees>
              <LongitudeDegrees>-4.3843831121921539306640625</LongitudeDegrees>
            </Position>
            <AltitudeMeters>850</AltitudeMeters>
            <DistanceMeters>34507.999750106</DistanceMeters>
          </Trackpoint>
          <Trackpoint>
            <Time>2020-09-13T10:11:32.000Z</Time>
            <Position>
              <LatitudeDegrees>41.12799935974180698394775390625</LatitudeDegrees>
              <LongitudeDegrees>-4.38467480242252349853515625</LongitudeDegrees>
            </Position>
            <AltitudeMeters>848</AltitudeMeters>
            <DistanceMeters>34537.423986193</DistanceMeters>
          </Trackpoint>
          <Trackpoint>
            <Time>2020-09-13T10:11:38.000Z</Time>
            <Position>
              <LatitudeDegrees>41.12829373218119144439697265625</LatitudeDegrees>
              <LongitudeDegrees>-4.385230354964733123779296875</LongitudeDegrees>
            </Position>
            <AltitudeMeters>846.5999755859375</AltitudeMeters>
            <DistanceMeters>34594.369651629</DistanceMeters>
          </Trackpoint>
          <Trackpoint>
            <Time>2020-09-13T10:11:44.000Z</Time>
            <Position>
              <LatitudeDegrees>41.1285751126706600189208984375</LatitudeDegrees>
              <LongitudeDegrees>-4.3857736699283123016357421875</LongitudeDegrees>
            </Position>
            <AltitudeMeters>848.4000244140625</AltitudeMeters>
            <DistanceMeters>34649.647190442</DistanceMeters>
          </Trackpoint>
          <Trackpoint>
            <Time>2020-09-13T10:11:51.000Z</Time>
            <Position>
              <LatitudeDegrees>41.1288885958492755889892578125</LatitudeDegrees>
              <LongitudeDegrees>-4.3863788433372974395751953125</LongitudeDegrees>
            </Position>
            <AltitudeMeters>847.5999755859375</AltitudeMeters>
            <DistanceMeters>34711.222301622</DistanceMeters>
          </Trackpoint>
          <Trackpoint>
            <Time>2020-09-13T10:11:54.000Z</Time>
            <Position>
              <LatitudeDegrees>41.1290156655013561248779296875</LatitudeDegrees>
              <LongitudeDegrees>-4.3866299651563167572021484375</LongitudeDegrees>
            </Position>
            <AltitudeMeters>846.5999755859375</AltitudeMeters>
            <DistanceMeters>34736.584823096</DistanceMeters>
          </Trackpoint>
          <Trackpoint>
            <Time>2020-09-13T10:11:55.000Z</Time>
            <Position>
              <LatitudeDegrees>41.1290545575320720672607421875</LatitudeDegrees>
              <LongitudeDegrees>-4.38671462237834930419921875</LongitudeDegrees>
            </Position>
            <AltitudeMeters>846.20001220703125</AltitudeMeters>
            <DistanceMeters>34744.897352491</DistanceMeters>
          </Trackpoint>
          <Trackpoint>
            <Time>2020-09-13T10:11:56.000Z</Time>
            <Position>
              <LatitudeDegrees>41.12909219227731227874755859375</LatitudeDegrees>
              <LongitudeDegrees>-4.386798441410064697265625</LongitudeDegrees>
            </Position>
            <AltitudeMeters>845.79998779296875</AltitudeMeters>
            <DistanceMeters>34753.077932943</DistanceMeters>
          </Trackpoint>
          <Trackpoint>
            <Time>2020-09-13T10:12:02.000Z</Time>
            <Position>
              <LatitudeDegrees>41.12929587252438068389892578125</LatitudeDegrees>
              <LongitudeDegrees>-4.3873249925673007965087890625</LongitudeDegrees>
            </Position>
            <AltitudeMeters>843.4000244140625</AltitudeMeters>
            <DistanceMeters>34802.702626465</DistanceMeters>
          </Trackpoint>
          <Trackpoint>
            <Time>2020-09-13T10:12:03.000Z</Time>
            <Position>
              <LatitudeDegrees>41.1293254606425762176513671875</LatitudeDegrees>
              <LongitudeDegrees>-4.38741023652255535125732421875</LongitudeDegrees>
            </Position>
            <AltitudeMeters>843.20001220703125</AltitudeMeters>
            <DistanceMeters>34810.571504033</DistanceMeters>
          </Trackpoint>
          <Trackpoint>
            <Time>2020-09-13T10:12:11.000Z</Time>
            <Position>
              <LatitudeDegrees>41.12953073345124721527099609375</LatitudeDegrees>
              <LongitudeDegrees>-4.3880765140056610107421875</LongitudeDegrees>
            </Position>
            <AltitudeMeters>842.5999755859375</AltitudeMeters>
            <DistanceMeters>34870.921174057</DistanceMeters>
          </Trackpoint>
          <Trackpoint>
            <Time>2020-09-13T10:12:12.000Z</Time>
            <Position>
              <LatitudeDegrees>41.12955294549465179443359375</LatitudeDegrees>
              <LongitudeDegrees>-4.3881541304290294647216796875</LongitudeDegrees>
            </Position>
            <AltitudeMeters>842.79998779296875</AltitudeMeters>
            <DistanceMeters>34877.882164662</DistanceMeters>
          </Trackpoint>
          <Trackpoint>
            <Time>2020-09-13T10:12:21.000Z</Time>
            <Position>
              <LatitudeDegrees>41.1297455616295337677001953125</LatitudeDegrees>
              <LongitudeDegrees>-4.38886650837957859039306640625</LongitudeDegrees>
            </Position>
            <AltitudeMeters>844.4000244140625</AltitudeMeters>
            <DistanceMeters>34941.335892962</DistanceMeters>
          </Trackpoint>
          <Trackpoint>
            <Time>2020-09-13T10:12:22.000Z</Time>
            <Position>
              <LatitudeDegrees>41.12976492382586002349853515625</LatitudeDegrees>
              <LongitudeDegrees>-4.3889457173645496368408203125</LongitudeDegrees>
            </Position>
            <AltitudeMeters>844.5999755859375</AltitudeMeters>
            <DistanceMeters>34948.317608557</DistanceMeters>
          </Trackpoint>
          <Trackpoint>
            <Time>2020-09-13T10:12:23.000Z</Time>
            <Position>
              <LatitudeDegrees>41.12978537566959857940673828125</LatitudeDegrees>
              <LongitudeDegrees>-4.38902509398758411407470703125</LongitudeDegrees>
            </Position>
            <AltitudeMeters>844.79998779296875</AltitudeMeters>
            <DistanceMeters>34955.350869448</DistanceMeters>
          </Trackpoint>
          <Trackpoint>
            <Time>2020-09-13T10:12:24.000Z</Time>
            <Position>
              <LatitudeDegrees>41.12980482168495655059814453125</LatitudeDegrees>
              <LongitudeDegrees>-4.3891038000583648681640625</LongitudeDegrees>
            </Position>
            <AltitudeMeters>845</AltitudeMeters>
            <DistanceMeters>34962.294975453</DistanceMeters>
          </Trackpoint>
          <Trackpoint>
            <Time>2020-09-13T10:12:26.000Z</Time>
            <Position>
              <LatitudeDegrees>41.12984153442084789276123046875</LatitudeDegrees>
              <LongitudeDegrees>-4.38926816917955875396728515625</LongitudeDegrees>
            </Position>
            <AltitudeMeters>845.4000244140625</AltitudeMeters>
            <DistanceMeters>34976.668217568</DistanceMeters>
          </Trackpoint>
          <Trackpoint>
            <Time>2020-09-13T10:12:29.000Z</Time>
            <Position>
              <LatitudeDegrees>41.12988931126892566680908203125</LatitudeDegrees>
              <LongitudeDegrees>-4.389515854418277740478515625</LongitudeDegrees>
            </Position>
            <AltitudeMeters>845.4000244140625</AltitudeMeters>
            <DistanceMeters>34998.103009133</DistanceMeters>
          </Trackpoint>
          <Trackpoint>
            <Time>2020-09-13T10:12:30.000Z</Time>
            <Position>
              <LatitudeDegrees>41.12990221939980983734130859375</LatitudeDegrees>
              <LongitudeDegrees>-4.389599002897739410400390625</LongitudeDegrees>
            </Position>
            <AltitudeMeters>845</AltitudeMeters>
            <DistanceMeters>35005.220503696</DistanceMeters>
          </Trackpoint>
          <Trackpoint>
            <Time>2020-09-13T10:12:32.000Z</Time>
            <Position>
              <LatitudeDegrees>41.12992216832935810089111328125</LatitudeDegrees>
              <LongitudeDegrees>-4.38976655714213848114013671875</LongitudeDegrees>
            </Position>
            <AltitudeMeters>844</AltitudeMeters>
            <DistanceMeters>35019.441847589</DistanceMeters>
          </Trackpoint>
          <Trackpoint>
            <Time>2020-09-13T10:12:39.000Z</Time>
            <Position>
              <LatitudeDegrees>41.12994966097176074981689453125</LatitudeDegrees>
              <LongitudeDegrees>-4.390347003936767578125</LongitudeDegrees>
            </Position>
            <AltitudeMeters>841.4000244140625</AltitudeMeters>
            <DistanceMeters>35068.199627842</DistanceMeters>
          </Trackpoint>
          <Trackpoint>
            <Time>2020-09-13T10:12:40.000Z</Time>
            <Position>
              <LatitudeDegrees>41.12995083443820476531982421875</LatitudeDegrees>
              <LongitudeDegrees>-4.3904306553304195404052734375</LongitudeDegrees>
            </Position>
            <AltitudeMeters>841</AltitudeMeters>
            <DistanceMeters>35075.213603638</DistanceMeters>
          </Trackpoint>
          <Trackpoint>
            <Time>2020-09-13T10:12:49.000Z</Time>
            <Position>
              <LatitudeDegrees>41.12993918359279632568359375</LatitudeDegrees>
              <LongitudeDegrees>-4.391174800693988800048828125</LongitudeDegrees>
            </Position>
            <AltitudeMeters>838.79998779296875</AltitudeMeters>
            <DistanceMeters>35137.612373027</DistanceMeters>
          </Trackpoint>
          <Trackpoint>
            <Time>2020-09-13T10:12:50.000Z</Time>
            <Position>
              <LatitudeDegrees>41.12993826158344745635986328125</LatitudeDegrees>
              <LongitudeDegrees>-4.39125920645892620086669921875</LongitudeDegrees>
            </Position>
            <AltitudeMeters>838.79998779296875</AltitudeMeters>
            <DistanceMeters>35144.689152235</DistanceMeters>
          </Trackpoint>
          <Trackpoint>
            <Time>2020-09-13T10:12:58.000Z</Time>
            <Position>
              <LatitudeDegrees>41.1299302987754344940185546875</LatitudeDegrees>
              <LongitudeDegrees>-4.39192883670330047607421875</LongitudeDegrees>
            </Position>
            <AltitudeMeters>838.5999755859375</AltitudeMeters>
            <DistanceMeters>35200.834422077</DistanceMeters>
          </Trackpoint>
          <Trackpoint>
            <Time>2020-09-13T10:13:02.000Z</Time>
            <Position>
              <LatitudeDegrees>41.12992200069129467010498046875</LatitudeDegrees>
              <LongitudeDegrees>-4.39225916750729084014892578125</LongitudeDegrees>
            </Position>
            <AltitudeMeters>838</AltitudeMeters>
            <DistanceMeters>35228.543143079</DistanceMeters>
          </Trackpoint>
          <Trackpoint>
            <Time>2020-09-13T10:13:04.000Z</Time>
            <Position>
              <LatitudeDegrees>41.12991504371166229248046875</LatitudeDegrees>
              <LongitudeDegrees>-4.39242110587656497955322265625</LongitudeDegrees>
            </Position>
            <AltitudeMeters>837.79998779296875</AltitudeMeters>
            <DistanceMeters>35242.141595396</DistanceMeters>
          </Trackpoint>
          <Trackpoint>
            <Time>2020-09-13T10:13:05.000Z</Time>
            <Position>
              <LatitudeDegrees>41.12991236150264739990234375</LatitudeDegrees>
              <LongitudeDegrees>-4.3924999795854091644287109375</LongitudeDegrees>
            </Position>
            <AltitudeMeters>837.79998779296875</AltitudeMeters>
            <DistanceMeters>35248.760122486</DistanceMeters>
          </Trackpoint>
          <Trackpoint>
            <Time>2020-09-13T10:13:06.000Z</Time>
            <Position>
              <LatitudeDegrees>41.1299090087413787841796875</LatitudeDegrees>
              <LongitudeDegrees>-4.3925797753036022186279296875</LongitudeDegrees>
            </Position>
            <AltitudeMeters>837.5999755859375</AltitudeMeters>
            <DistanceMeters>35255.460011291</DistanceMeters>
          </Trackpoint>
          <Trackpoint>
            <Time>2020-09-13T10:13:09.000Z</Time>
            <Position>
              <LatitudeDegrees>41.129891239106655120849609375</LatitudeDegrees>
              <LongitudeDegrees>-4.3928186595439910888671875</LongitudeDegrees>
            </Position>
            <AltitudeMeters>837.20001220703125</AltitudeMeters>
            <DistanceMeters>35275.584147753</DistanceMeters>
          </Trackpoint>
          <Trackpoint>
            <Time>2020-09-13T10:13:13.000Z</Time>
            <Position>
              <LatitudeDegrees>41.1298588849604129791259765625</LatitudeDegrees>
              <LongitudeDegrees>-4.39311479218304157257080078125</LongitudeDegrees>
            </Position>
            <AltitudeMeters>837.5999755859375</AltitudeMeters>
            <DistanceMeters>35300.670300457</DistanceMeters>
          </Trackpoint>
          <Trackpoint>
            <Time>2020-09-13T10:13:21.000Z</Time>
            <Position>
              <LatitudeDegrees>41.12976006232202053070068359375</LatitudeDegrees>
              <LongitudeDegrees>-4.39365341328084468841552734375</LongitudeDegrees>
            </Position>
            <AltitudeMeters>838</AltitudeMeters>
            <DistanceMeters>35347.145844835</DistanceMeters>
          </Trackpoint>
          <Trackpoint>
            <Time>2020-09-13T10:13:32.000Z</Time>
            <Position>
              <LatitudeDegrees>41.12958689220249652862548828125</LatitudeDegrees>
              <LongitudeDegrees>-4.3943426571786403656005859375</LongitudeDegrees>
            </Position>
            <AltitudeMeters>837.4000244140625</AltitudeMeters>
            <DistanceMeters>35408.058561734</DistanceMeters>
          </Trackpoint>
          <Trackpoint>
            <Time>2020-09-13T10:13:39.000Z</Time>
            <Position>
              <LatitudeDegrees>41.12947775982320308685302734375</LatitudeDegrees>
              <LongitudeDegrees>-4.3947734870016574859619140625</LongitudeDegrees>
            </Position>
            <AltitudeMeters>837.20001220703125</AltitudeMeters>
            <DistanceMeters>35446.165103597</DistanceMeters>
          </Trackpoint>
          <Trackpoint>
            <Time>2020-09-13T10:13:41.000Z</Time>
            <Position>
              <LatitudeDegrees>41.12945211119949817657470703125</LatitudeDegrees>
              <LongitudeDegrees>-4.3948972038924694061279296875</LongitudeDegrees>
            </Position>
            <AltitudeMeters>836.79998779296875</AltitudeMeters>
            <DistanceMeters>35456.922866362</DistanceMeters>
          </Trackpoint>
          <Trackpoint>
            <Time>2020-09-13T10:13:45.000Z</Time>
            <Position>
              <LatitudeDegrees>41.12939612008631229400634765625</LatitudeDegrees>
              <LongitudeDegrees>-4.3951530195772647857666015625</LongitudeDegrees>
            </Position>
            <AltitudeMeters>835.5999755859375</AltitudeMeters>
            <DistanceMeters>35479.256368158</DistanceMeters>
          </Trackpoint>
          <Trackpoint>
            <Time>2020-09-13T10:13:46.000Z</Time>
            <Position>
              <LatitudeDegrees>41.12938354723155498504638671875</LatitudeDegrees>
              <LongitudeDegrees>-4.395218230783939361572265625</LongitudeDegrees>
            </Position>
            <AltitudeMeters>835.4000244140625</AltitudeMeters>
            <DistanceMeters>35484.89906694</DistanceMeters>
          </Trackpoint>
          <Trackpoint>
            <Time>2020-09-13T10:13:48.000Z</Time>
            <Position>
              <LatitudeDegrees>41.12936376594007015228271484375</LatitudeDegrees>
              <LongitudeDegrees>-4.3953426182270050048828125</LongitudeDegrees>
            </Position>
            <AltitudeMeters>835</AltitudeMeters>
            <DistanceMeters>35495.557320158</DistanceMeters>
          </Trackpoint>
          <Trackpoint>
            <Time>2020-09-13T10:13:50.000Z</Time>
            <Position>
              <LatitudeDegrees>41.12935245037078857421875</LatitudeDegrees>
              <LongitudeDegrees>-4.39547060988843441009521484375</LongitudeDegrees>
            </Position>
            <AltitudeMeters>834.79998779296875</AltitudeMeters>
            <DistanceMeters>35506.361987125</DistanceMeters>
          </Trackpoint>
          <Trackpoint>
            <Time>2020-09-13T10:13:51.000Z</Time>
            <Position>
              <LatitudeDegrees>41.12934733740985393524169921875</LatitudeDegrees>
              <LongitudeDegrees>-4.39553515054285526275634765625</LongitudeDegrees>
            </Position>
            <AltitudeMeters>834.79998779296875</AltitudeMeters>
            <DistanceMeters>35511.802629604</DistanceMeters>
          </Trackpoint>
          <Trackpoint>
            <Time>2020-09-13T10:13:59.000Z</Time>
            <Position>
              <LatitudeDegrees>41.12934063188731670379638671875</LatitudeDegrees>
              <LongitudeDegrees>-4.3960834108293056488037109375</LongitudeDegrees>
            </Position>
            <AltitudeMeters>834.20001220703125</AltitudeMeters>
            <DistanceMeters>35557.772484069</DistanceMeters>
          </Trackpoint>
          <Trackpoint>
            <Time>2020-09-13T10:14:00.000Z</Time>
            <Position>
              <LatitudeDegrees>41.1293479241430759429931640625</LatitudeDegrees>
              <LongitudeDegrees>-4.39615172334015369415283203125</LongitudeDegrees>
            </Position>
            <AltitudeMeters>834</AltitudeMeters>
            <DistanceMeters>35563.555857059</DistanceMeters>
          </Trackpoint>
          <Trackpoint>
            <Time>2020-09-13T10:14:02.000Z</Time>
            <Position>
              <LatitudeDegrees>41.12935923971235752105712890625</LatitudeDegrees>
              <LongitudeDegrees>-4.39629706554114818572998046875</LongitudeDegrees>
            </Position>
            <AltitudeMeters>833.79998779296875</AltitudeMeters>
            <DistanceMeters>35575.80582891</DistanceMeters>
          </Trackpoint>
          <Trackpoint>
            <Time>2020-09-13T10:14:11.000Z</Time>
            <Position>
              <LatitudeDegrees>41.12941657193005084991455078125</LatitudeDegrees>
              <LongitudeDegrees>-4.39700516872107982635498046875</LongitudeDegrees>
            </Position>
            <AltitudeMeters>831.5999755859375</AltitudeMeters>
            <DistanceMeters>35635.512104946</DistanceMeters>
          </Trackpoint>
          <Trackpoint>
            <Time>2020-09-13T10:14:14.000Z</Time>
            <Position>
              <LatitudeDegrees>41.12943937070667743682861328125</LatitudeDegrees>
              <LongitudeDegrees>-4.39724841155111789703369140625</LongitudeDegrees>
            </Position>
            <AltitudeMeters>831</AltitudeMeters>
            <DistanceMeters>35656.062057622</DistanceMeters>
          </Trackpoint>
          <Trackpoint>
            <Time>2020-09-13T10:14:18.000Z</Time>
            <Position>
              <LatitudeDegrees>41.129465438425540924072265625</LatitudeDegrees>
              <LongitudeDegrees>-4.3975686840713024139404296875</LongitudeDegrees>
            </Position>
            <AltitudeMeters>831.79998779296875</AltitudeMeters>
            <DistanceMeters>35683.068542849</DistanceMeters>
          </Trackpoint>
          <Trackpoint>
            <Time>2020-09-13T10:14:24.000Z</Time>
            <Position>
              <LatitudeDegrees>41.1295038275420665740966796875</LatitudeDegrees>
              <LongitudeDegrees>-4.39804603345692157745361328125</LongitudeDegrees>
            </Position>
            <AltitudeMeters>833.20001220703125</AltitudeMeters>
            <DistanceMeters>35723.314796489</DistanceMeters>
          </Trackpoint>
          <Trackpoint>
            <Time>2020-09-13T10:14:27.000Z</Time>
            <Position>
              <LatitudeDegrees>41.1295236088335514068603515625</LatitudeDegrees>
              <LongitudeDegrees>-4.3982881866395473480224609375</LongitudeDegrees>
            </Position>
            <AltitudeMeters>833</AltitudeMeters>
            <DistanceMeters>35743.735150796</DistanceMeters>
          </Trackpoint>
          <Trackpoint>
            <Time>2020-09-13T10:14:30.000Z</Time>
            <Position>
              <LatitudeDegrees>41.12954364158213138580322265625</LatitudeDegrees>
              <LongitudeDegrees>-4.39851458184421062469482421875</LongitudeDegrees>
            </Position>
            <AltitudeMeters>832.79998779296875</AltitudeMeters>
            <DistanceMeters>35762.84568223</DistanceMeters>
          </Trackpoint>
          <Trackpoint>
            <Time>2020-09-13T10:14:32.000Z</Time>
            <Position>
              <LatitudeDegrees>41.12955428659915924072265625</LatitudeDegrees>
              <LongitudeDegrees>-4.3986653722822666168212890625</LongitudeDegrees>
            </Position>
            <AltitudeMeters>832.4000244140625</AltitudeMeters>
            <DistanceMeters>35775.542332366</DistanceMeters>
          </Trackpoint>
          <Trackpoint>
            <Time>2020-09-13T10:14:34.000Z</Time>
            <Position>
              <LatitudeDegrees>41.12956845201551914215087890625</LatitudeDegrees>
              <LongitudeDegrees>-4.3988102115690708160400390625</LongitudeDegrees>
            </Position>
            <AltitudeMeters>832</AltitudeMeters>
            <DistanceMeters>35787.787143074</DistanceMeters>
          </Trackpoint>
          <Trackpoint>
            <Time>2020-09-13T10:14:35.000Z</Time>
            <Position>
              <LatitudeDegrees>41.1295745708048343658447265625</LatitudeDegrees>
              <LongitudeDegrees>-4.3988816253840923309326171875</LongitudeDegrees>
            </Position>
            <AltitudeMeters>831.5999755859375</AltitudeMeters>
            <DistanceMeters>35793.812166502</DistanceMeters>
          </Trackpoint>
          <Trackpoint>
            <Time>2020-09-13T10:14:37.000Z</Time>
            <Position>
              <LatitudeDegrees>41.12958437763154506683349609375</LatitudeDegrees>
              <LongitudeDegrees>-4.399026967585086822509765625</LongitudeDegrees>
            </Position>
            <AltitudeMeters>831</AltitudeMeters>
            <DistanceMeters>35806.045910286</DistanceMeters>
          </Trackpoint>
          <Trackpoint>
            <Time>2020-09-13T10:14:38.000Z</Time>
            <Position>
              <LatitudeDegrees>41.12959007732570171356201171875</LatitudeDegrees>
              <LongitudeDegrees>-4.3990995548665523529052734375</LongitudeDegrees>
            </Position>
            <AltitudeMeters>830.79998779296875</AltitudeMeters>
            <DistanceMeters>35812.164627222</DistanceMeters>
          </Trackpoint>
          <Trackpoint>
            <Time>2020-09-13T10:14:39.000Z</Time>
            <Position>
              <LatitudeDegrees>41.1295950226485729217529296875</LatitudeDegrees>
              <LongitudeDegrees>-4.3991736508905887603759765625</LongitudeDegrees>
            </Position>
            <AltitudeMeters>830.5999755859375</AltitudeMeters>
            <DistanceMeters>35818.400291514</DistanceMeters>
          </Trackpoint>
          <Trackpoint>
            <Time>2020-09-13T10:14:40.000Z</Time>
            <Position>
              <LatitudeDegrees>41.12960332073271274566650390625</LatitudeDegrees>
              <LongitudeDegrees>-4.39924246631562709808349609375</LongitudeDegrees>
            </Position>
            <AltitudeMeters>830.20001220703125</AltitudeMeters>
            <DistanceMeters>35824.242695896</DistanceMeters>
          </Trackpoint>
          <Trackpoint>
            <Time>2020-09-13T10:14:41.000Z</Time>
            <Position>
              <LatitudeDegrees>41.12960717640817165374755859375</LatitudeDegrees>
              <LongitudeDegrees>-4.39931304194033145904541015625</LongitudeDegrees>
            </Position>
            <AltitudeMeters>830</AltitudeMeters>
            <DistanceMeters>35830.174068235</DistanceMeters>
          </Trackpoint>
          <Trackpoint>
            <Time>2020-09-13T10:14:42.000Z</Time>
            <Position>
              <LatitudeDegrees>41.129610948264598846435546875</LatitudeDegrees>
              <LongitudeDegrees>-4.399383366107940673828125</LongitudeDegrees>
            </Position>
            <AltitudeMeters>829.79998779296875</AltitudeMeters>
            <DistanceMeters>35836.084088175</DistanceMeters>
          </Trackpoint>
          <Trackpoint>
            <Time>2020-09-13T10:14:43.000Z</Time>
            <Position>
              <LatitudeDegrees>41.129617653787136077880859375</LatitudeDegrees>
              <LongitudeDegrees>-4.39945243299007415771484375</LongitudeDegrees>
            </Position>
            <AltitudeMeters>829.4000244140625</AltitudeMeters>
            <DistanceMeters>35841.921853886</DistanceMeters>
          </Trackpoint>
          <Trackpoint>
            <Time>2020-09-13T10:14:44.000Z</Time>
            <Position>
              <LatitudeDegrees>41.12962326966226100921630859375</LatitudeDegrees>
              <LongitudeDegrees>-4.39952124841511249542236328125</LongitudeDegrees>
            </Position>
            <AltitudeMeters>829.4000244140625</AltitudeMeters>
            <DistanceMeters>35847.724711377</DistanceMeters>
          </Trackpoint>
          <Trackpoint>
            <Time>2020-09-13T10:14:45.000Z</Time>
            <Position>
              <LatitudeDegrees>41.12963064573705196380615234375</LatitudeDegrees>
              <LongitudeDegrees>-4.39958964474499225616455078125</LongitudeDegrees>
            </Position>
            <AltitudeMeters>829.4000244140625</AltitudeMeters>
            <DistanceMeters>35853.516665623</DistanceMeters>
          </Trackpoint>
          <Trackpoint>
            <Time>2020-09-13T10:14:46.000Z</Time>
            <Position>
              <LatitudeDegrees>41.1296372674405574798583984375</LatitudeDegrees>
              <LongitudeDegrees>-4.3996577896177768707275390625</LongitudeDegrees>
            </Position>
            <AltitudeMeters>829.4000244140625</AltitudeMeters>
            <DistanceMeters>35859.277354031</DistanceMeters>
          </Trackpoint>
          <Trackpoint>
            <Time>2020-09-13T10:14:47.000Z</Time>
            <Position>
              <LatitudeDegrees>41.12964405678212642669677734375</LatitudeDegrees>
              <LongitudeDegrees>-4.399727024137973785400390625</LongitudeDegrees>
            </Position>
            <AltitudeMeters>829.4000244140625</AltitudeMeters>
            <DistanceMeters>35865.13056768</DistanceMeters>
          </Trackpoint>
          <Trackpoint>
            <Time>2020-09-13T10:14:48.000Z</Time>
            <Position>
              <LatitudeDegrees>41.12965076230466365814208984375</LatitudeDegrees>
              <LongitudeDegrees>-4.3997986055910587310791015625</LongitudeDegrees>
            </Position>
            <AltitudeMeters>829.5999755859375</AltitudeMeters>
            <DistanceMeters>35871.178030751</DistanceMeters>
          </Trackpoint>
          <Trackpoint>
            <Time>2020-09-13T10:14:50.000Z</Time>
            <Position>
              <LatitudeDegrees>41.1296595633029937744140625</LatitudeDegrees>
              <LongitudeDegrees>-4.39993933774530887603759765625</LongitudeDegrees>
            </Position>
            <AltitudeMeters>829.5999755859375</AltitudeMeters>
            <DistanceMeters>35883.017154307</DistanceMeters>
          </Trackpoint>
          <Trackpoint>
            <Time>2020-09-13T10:14:58.000Z</Time>
            <Position>
              <LatitudeDegrees>41.129709519445896148681640625</LatitudeDegrees>
              <LongitudeDegrees>-4.400493800640106201171875</LongitudeDegrees>
            </Position>
            <AltitudeMeters>829.20001220703125</AltitudeMeters>
            <DistanceMeters>35929.832062972</DistanceMeters>
          </Trackpoint>
          <Trackpoint>
            <Time>2020-09-13T10:15:00.000Z</Time>
            <Position>
              <LatitudeDegrees>41.12971781753003597259521484375</LatitudeDegrees>
              <LongitudeDegrees>-4.400635622441768646240234375</LongitudeDegrees>
            </Position>
            <AltitudeMeters>828.5999755859375</AltitudeMeters>
            <DistanceMeters>35941.757820976</DistanceMeters>
          </Trackpoint>
          <Trackpoint>
            <Time>2020-09-13T10:15:10.000Z</Time>
            <Position>
              <LatitudeDegrees>41.1297821067273616790771484375</LatitudeDegrees>
              <LongitudeDegrees>-4.40135671757161617279052734375</LongitudeDegrees>
            </Position>
            <AltitudeMeters>826.79998779296875</AltitudeMeters>
            <DistanceMeters>36002.632945874</DistanceMeters>
          </Trackpoint>
          <Trackpoint>
            <Time>2020-09-13T10:15:11.000Z</Time>
            <Position>
              <LatitudeDegrees>41.1297861300408840179443359375</LatitudeDegrees>
              <LongitudeDegrees>-4.401414804160594940185546875</LongitudeDegrees>
            </Position>
            <AltitudeMeters>827</AltitudeMeters>
            <DistanceMeters>36007.522899086</DistanceMeters>
          </Trackpoint>
          <Trackpoint>
            <Time>2020-09-13T10:15:17.000Z</Time>
            <Position>
              <LatitudeDegrees>41.1298223398625850677490234375</LatitudeDegrees>
              <LongitudeDegrees>-4.40184094011783599853515625</LongitudeDegrees>
            </Position>
            <AltitudeMeters>828.5999755859375</AltitudeMeters>
            <DistanceMeters>36043.474658736</DistanceMeters>
          </Trackpoint>
          <Trackpoint>
            <Time>2020-09-13T10:15:18.000Z</Time>
            <Position>
              <LatitudeDegrees>41.12982921302318572998046875</LatitudeDegrees>
              <LongitudeDegrees>-4.40191159956157207489013671875</LongitudeDegrees>
            </Position>
            <AltitudeMeters>828.79998779296875</AltitudeMeters>
            <DistanceMeters>36049.44775107</DistanceMeters>
          </Trackpoint>
          <Trackpoint>
            <Time>2020-09-13T10:15:22.000Z</Time>
            <Position>
              <LatitudeDegrees>41.12985335290431976318359375</LatitudeDegrees>
              <LongitudeDegrees>-4.4021891243755817413330078125</LongitudeDegrees>
            </Position>
            <AltitudeMeters>828.20001220703125</AltitudeMeters>
            <DistanceMeters>36072.868510955</DistanceMeters>
          </Trackpoint>
          <Trackpoint>
            <Time>2020-09-13T10:15:27.000Z</Time>
            <Position>
              <LatitudeDegrees>41.12988688051700592041015625</LatitudeDegrees>
              <LongitudeDegrees>-4.40254594199359416961669921875</LongitudeDegrees>
            </Position>
            <AltitudeMeters>827.20001220703125</AltitudeMeters>
            <DistanceMeters>36103.014004366</DistanceMeters>
          </Trackpoint>
          <Trackpoint>
            <Time>2020-09-13T10:15:29.000Z</Time>
            <Position>
              <LatitudeDegrees>41.1298997886478900909423828125</LatitudeDegrees>
              <LongitudeDegrees>-4.40268072299659252166748046875</LongitudeDegrees>
            </Position>
            <AltitudeMeters>826.79998779296875</AltitudeMeters>
            <DistanceMeters>36114.404532815</DistanceMeters>
          </Trackpoint>
          <Trackpoint>
            <Time>2020-09-13T10:15:32.000Z</Time>
            <Position>
              <LatitudeDegrees>41.12992443144321441650390625</LatitudeDegrees>
              <LongitudeDegrees>-4.402880966663360595703125</LongitudeDegrees>
            </Position>
            <AltitudeMeters>827.20001220703125</AltitudeMeters>
            <DistanceMeters>36131.414580123</DistanceMeters>
          </Trackpoint>
          <Trackpoint>
            <Time>2020-09-13T10:15:34.000Z</Time>
            <Position>
              <LatitudeDegrees>41.12994345836341381072998046875</LatitudeDegrees>
              <LongitudeDegrees>-4.40301449038088321685791015625</LongitudeDegrees>
            </Position>
            <AltitudeMeters>827.4000244140625</AltitudeMeters>
            <DistanceMeters>36142.807486636</DistanceMeters>
          </Trackpoint>
          <Trackpoint>
            <Time>2020-09-13T10:15:37.000Z</Time>
            <Position>
              <LatitudeDegrees>41.1299839429557323455810546875</LatitudeDegrees>
              <LongitudeDegrees>-4.40322169102728366851806640625</LongitudeDegrees>
            </Position>
            <AltitudeMeters>828</AltitudeMeters>
            <DistanceMeters>36160.752948909</DistanceMeters>
          </Trackpoint>
          <Trackpoint>
            <Time>2020-09-13T10:15:39.000Z</Time>
            <Position>
              <LatitudeDegrees>41.130022667348384857177734375</LatitudeDegrees>
              <LongitudeDegrees>-4.40336116589605808258056640625</LongitudeDegrees>
            </Position>
            <AltitudeMeters>828.4000244140625</AltitudeMeters>
            <DistanceMeters>36173.214861069</DistanceMeters>
          </Trackpoint>
          <Trackpoint>
            <Time>2020-09-13T10:15:41.000Z</Time>
            <Position>
              <LatitudeDegrees>41.13006030209362506866455078125</LatitudeDegrees>
              <LongitudeDegrees>-4.40349393524229526519775390625</LongitudeDegrees>
            </Position>
            <AltitudeMeters>828.20001220703125</AltitudeMeters>
            <DistanceMeters>36185.107635655</DistanceMeters>
          </Trackpoint>
          <Trackpoint>
            <Time>2020-09-13T10:15:48.000Z</Time>
            <Position>
              <LatitudeDegrees>41.13022710196673870086669921875</LatitudeDegrees>
              <LongitudeDegrees>-4.40394219942390918731689453125</LongitudeDegrees>
            </Position>
            <AltitudeMeters>826.5999755859375</AltitudeMeters>
            <DistanceMeters>36227.023358162</DistanceMeters>
          </Trackpoint>
          <Trackpoint>
            <Time>2020-09-13T10:15:50.000Z</Time>
            <Position>
              <LatitudeDegrees>41.13028921186923980712890625</LatitudeDegrees>
              <LongitudeDegrees>-4.4040690176188945770263671875</LongitudeDegrees>
            </Position>
            <AltitudeMeters>826.5999755859375</AltitudeMeters>
            <DistanceMeters>36239.705419963</DistanceMeters>
          </Trackpoint>
          <Trackpoint>
            <Time>2020-09-13T10:15:58.000Z</Time>
            <Position>
              <LatitudeDegrees>41.13057880662381649017333984375</LatitudeDegrees>
              <LongitudeDegrees>-4.404588527977466583251953125</LongitudeDegrees>
            </Position>
            <AltitudeMeters>828</AltitudeMeters>
            <DistanceMeters>36293.888232577</DistanceMeters>
          </Trackpoint>
          <Trackpoint>
            <Time>2020-09-13T10:16:00.000Z</Time>
            <Position>
              <LatitudeDegrees>41.13064468838274478912353515625</LatitudeDegrees>
              <LongitudeDegrees>-4.40470688045024871826171875</LongitudeDegrees>
            </Position>
            <AltitudeMeters>827.79998779296875</AltitudeMeters>
            <DistanceMeters>36306.225979479</DistanceMeters>
          </Trackpoint>
          <Trackpoint>
            <Time>2020-09-13T10:16:02.000Z</Time>
            <Position>
              <LatitudeDegrees>41.13071694038808345794677734375</LatitudeDegrees>
              <LongitudeDegrees>-4.40483906306326389312744140625</LongitudeDegrees>
            </Position>
            <AltitudeMeters>827.5999755859375</AltitudeMeters>
            <DistanceMeters>36319.918072711</DistanceMeters>
          </Trackpoint>
          <Trackpoint>
            <Time>2020-09-13T10:16:04.000Z</Time>
            <Position>
              <LatitudeDegrees>41.13078952766954898834228515625</LatitudeDegrees>
              <LongitudeDegrees>-4.4049752689898014068603515625</LongitudeDegrees>
            </Position>
            <AltitudeMeters>827.4000244140625</AltitudeMeters>
            <DistanceMeters>36333.906056711</DistanceMeters>
          </Trackpoint>
          <Trackpoint>
            <Time>2020-09-13T10:16:06.000Z</Time>
            <Position>
              <LatitudeDegrees>41.1308673955500125885009765625</LatitudeDegrees>
              <LongitudeDegrees>-4.40511331893503665924072265625</LongitudeDegrees>
            </Position>
            <AltitudeMeters>827.20001220703125</AltitudeMeters>
            <DistanceMeters>36348.365113728</DistanceMeters>
          </Trackpoint>
          <Trackpoint>
            <Time>2020-09-13T10:16:08.000Z</Time>
            <Position>
              <LatitudeDegrees>41.1309451796114444732666015625</LatitudeDegrees>
              <LongitudeDegrees>-4.40524675883352756500244140625</LongitudeDegrees>
            </Position>
            <AltitudeMeters>827.79998779296875</AltitudeMeters>
            <DistanceMeters>36362.511013982</DistanceMeters>
          </Trackpoint>
          <Trackpoint>
            <Time>2020-09-13T10:16:09.000Z</Time>
            <Position>
              <LatitudeDegrees>41.13098323345184326171875</LatitudeDegrees>
              <LongitudeDegrees>-4.405311048030853271484375</LongitudeDegrees>
            </Position>
            <AltitudeMeters>828</AltitudeMeters>
            <DistanceMeters>36369.365464196</DistanceMeters>
          </Trackpoint>
          <Trackpoint>
            <Time>2020-09-13T10:16:11.000Z</Time>
            <Position>
              <LatitudeDegrees>41.1310608498752117156982421875</LatitudeDegrees>
              <LongitudeDegrees>-4.405451528728008270263671875</LongitudeDegrees>
            </Position>
            <AltitudeMeters>827.79998779296875</AltitudeMeters>
            <DistanceMeters>36383.971166025</DistanceMeters>
          </Trackpoint>
          <Trackpoint>
            <Time>2020-09-13T10:16:12.000Z</Time>
            <Position>
              <LatitudeDegrees>41.13108859397470951080322265625</LatitudeDegrees>
              <LongitudeDegrees>-4.405501820147037506103515625</LongitudeDegrees>
            </Position>
            <AltitudeMeters>827.79998779296875</AltitudeMeters>
            <DistanceMeters>36389.197635315</DistanceMeters>
          </Trackpoint>
          <Trackpoint>
            <Time>2020-09-13T10:16:14.000Z</Time>
            <Position>
              <LatitudeDegrees>41.1311577446758747100830078125</LatitudeDegrees>
              <LongitudeDegrees>-4.4056220166385173797607421875</LongitudeDegrees>
            </Position>
            <AltitudeMeters>827.5999755859375</AltitudeMeters>
            <DistanceMeters>36401.877204749</DistanceMeters>
          </Trackpoint>
          <Trackpoint>
            <Time>2020-09-13T10:16:16.000Z</Time>
            <Position>
              <LatitudeDegrees>41.1312298290431499481201171875</LatitudeDegrees>
              <LongitudeDegrees>-4.40575419925153255462646484375</LongitudeDegrees>
            </Position>
            <AltitudeMeters>827</AltitudeMeters>
            <DistanceMeters>36415.558411732</DistanceMeters>
          </Trackpoint>
          <Trackpoint>
            <Time>2020-09-13T10:16:18.000Z</Time>
            <Position>
              <LatitudeDegrees>41.13128875382244586944580078125</LatitudeDegrees>
              <LongitudeDegrees>-4.4058654271066188812255859375</LongitudeDegrees>
            </Position>
            <AltitudeMeters>826.4000244140625</AltitudeMeters>
            <DistanceMeters>36426.959241541</DistanceMeters>
          </Trackpoint>
          <Trackpoint>
            <Time>2020-09-13T10:16:21.000Z</Time>
            <Position>
              <LatitudeDegrees>41.1313934437930583953857421875</LatitudeDegrees>
              <LongitudeDegrees>-4.4060488231480121612548828125</LongitudeDegrees>
            </Position>
            <AltitudeMeters>825.4000244140625</AltitudeMeters>
            <DistanceMeters>36446.250600759</DistanceMeters>
          </Trackpoint>
          <Trackpoint>
            <Time>2020-09-13T10:16:24.000Z</Time>
            <Position>
              <LatitudeDegrees>41.13149444572627544403076171875</LatitudeDegrees>
              <LongitudeDegrees>-4.40623104572296142578125</LongitudeDegrees>
            </Position>
            <AltitudeMeters>825</AltitudeMeters>
            <DistanceMeters>36465.217418768</DistanceMeters>
          </Trackpoint>
          <Trackpoint>
            <Time>2020-09-13T10:16:29.000Z</Time>
            <Position>
              <LatitudeDegrees>41.13166560418903827667236328125</LatitudeDegrees>
              <LongitudeDegrees>-4.406550563871860504150390625</LongitudeDegrees>
            </Position>
            <AltitudeMeters>824.79998779296875</AltitudeMeters>
            <DistanceMeters>36498.087048006</DistanceMeters>
          </Trackpoint>
          <Trackpoint>
            <Time>2020-09-13T10:16:30.000Z</Time>
            <Position>
              <LatitudeDegrees>41.13170005381107330322265625</LatitudeDegrees>
              <LongitudeDegrees>-4.40661284141242504119873046875</LongitudeDegrees>
            </Position>
            <AltitudeMeters>824.5999755859375</AltitudeMeters>
            <DistanceMeters>36504.5656123</DistanceMeters>
          </Trackpoint>
          <Trackpoint>
            <Time>2020-09-13T10:16:33.000Z</Time>
            <Position>
              <LatitudeDegrees>41.13180105574429035186767578125</LatitudeDegrees>
              <LongitudeDegrees>-4.40679858438670635223388671875</LongitudeDegrees>
            </Position>
            <AltitudeMeters>824.20001220703125</AltitudeMeters>
            <DistanceMeters>36523.770885076</DistanceMeters>
          </Trackpoint>
          <Trackpoint>
            <Time>2020-09-13T10:16:36.000Z</Time>
            <Position>
              <LatitudeDegrees>41.131900884211063385009765625</LatitudeDegrees>
              <LongitudeDegrees>-4.40698114223778247833251953125</LongitudeDegrees>
            </Position>
            <AltitudeMeters>823.4000244140625</AltitudeMeters>
            <DistanceMeters>36542.683349959</DistanceMeters>
          </Trackpoint>
          <Trackpoint>
            <Time>2020-09-13T10:16:38.000Z</Time>
            <Position>
              <LatitudeDegrees>41.13197590224444866180419921875</LatitudeDegrees>
              <LongitudeDegrees>-4.40710972063243389129638671875</LongitudeDegrees>
            </Position>
            <AltitudeMeters>822.4000244140625</AltitudeMeters>
            <DistanceMeters>36556.317945067</DistanceMeters>
          </Trackpoint>
          <Trackpoint>
            <Time>2020-09-13T10:16:41.000Z</Time>
            <Position>
              <LatitudeDegrees>41.132071875035762786865234375</LatitudeDegrees>
              <LongitudeDegrees>-4.4072792865335941314697265625</LongitudeDegrees>
            </Position>
            <AltitudeMeters>821.4000244140625</AltitudeMeters>
            <DistanceMeters>36574.099116753</DistanceMeters>
          </Trackpoint>
          <Trackpoint>
            <Time>2020-09-13T10:16:42.000Z</Time>
            <Position>
              <LatitudeDegrees>41.13210397772490978240966796875</LatitudeDegrees>
              <LongitudeDegrees>-4.40734391100704669952392578125</LongitudeDegrees>
            </Position>
            <AltitudeMeters>820.79998779296875</AltitudeMeters>
            <DistanceMeters>36580.588822181</DistanceMeters>
          </Trackpoint>
          <Trackpoint>
            <Time>2020-09-13T10:16:45.000Z</Time>
            <Position>
              <LatitudeDegrees>41.132210679352283477783203125</LatitudeDegrees>
              <LongitudeDegrees>-4.4075347669422626495361328125</LongitudeDegrees>
            </Position>
            <AltitudeMeters>819.5999755859375</AltitudeMeters>
            <DistanceMeters>36600.514544278</DistanceMeters>
          </Trackpoint>
          <Trackpoint>
            <Time>2020-09-13T10:16:46.000Z</Time>
            <Position>
              <LatitudeDegrees>41.13225133158266544342041015625</LatitudeDegrees>
              <LongitudeDegrees>-4.4076128862798213958740234375</LongitudeDegrees>
            </Position>
            <AltitudeMeters>819</AltitudeMeters>
            <DistanceMeters>36608.474697945</DistanceMeters>
          </Trackpoint>
          <Trackpoint>
            <Time>2020-09-13T10:16:53.000Z</Time>
            <Position>
              <LatitudeDegrees>41.132495664060115814208984375</LatitudeDegrees>
              <LongitudeDegrees>-4.40805201418697834014892578125</LongitudeDegrees>
            </Position>
            <AltitudeMeters>819.5999755859375</AltitudeMeters>
            <DistanceMeters>36654.243059867</DistanceMeters>
          </Trackpoint>
          <Trackpoint>
            <Time>2020-09-13T10:17:03.000Z</Time>
            <Position>
              <LatitudeDegrees>41.13282146863639354705810546875</LatitudeDegrees>
              <LongitudeDegrees>-4.4086763821542263031005859375</LongitudeDegrees>
            </Position>
            <AltitudeMeters>820.79998779296875</AltitudeMeters>
            <DistanceMeters>36717.919113251</DistanceMeters>
          </Trackpoint>
          <Trackpoint>
            <Time>2020-09-13T10:17:05.000Z</Time>
            <Position>
              <LatitudeDegrees>41.1328904516994953155517578125</LatitudeDegrees>
              <LongitudeDegrees>-4.40882130526006221771240234375</LongitudeDegrees>
            </Position>
            <AltitudeMeters>820.79998779296875</AltitudeMeters>
            <DistanceMeters>36732.291098798</DistanceMeters>
          </Trackpoint>
          <Trackpoint>
            <Time>2020-09-13T10:17:15.000Z</Time>
            <Position>
              <LatitudeDegrees>41.13318239338696002960205078125</LatitudeDegrees>
              <LongitudeDegrees>-4.40944978035986423492431640625</LongitudeDegrees>
            </Position>
            <AltitudeMeters>818.4000244140625</AltitudeMeters>
            <DistanceMeters>36794.191065813</DistanceMeters>
          </Trackpoint>
          <Trackpoint>
            <Time>2020-09-13T10:17:16.000Z</Time>
            <Position>
              <LatitudeDegrees>41.1332126520574092864990234375</LatitudeDegrees>
              <LongitudeDegrees>-4.40950979478657245635986328125</LongitudeDegrees>
            </Position>
            <AltitudeMeters>818.5999755859375</AltitudeMeters>
            <DistanceMeters>36800.245990285</DistanceMeters>
          </Trackpoint>
          <Trackpoint>
            <Time>2020-09-13T10:17:26.000Z</Time>
            <Position>
              <LatitudeDegrees>41.133517920970916748046875</LatitudeDegrees>
              <LongitudeDegrees>-4.41012653522193431854248046875</LongitudeDegrees>
            </Position>
            <AltitudeMeters>820.79998779296875</AltitudeMeters>
            <DistanceMeters>36862.112687316</DistanceMeters>
          </Trackpoint>
          <Trackpoint>
            <Time>2020-09-13T10:17:31.000Z</Time>
            <Position>
              <LatitudeDegrees>41.13367608748376369476318359375</LatitudeDegrees>
              <LongitudeDegrees>-4.4104459695518016815185546875</LongitudeDegrees>
            </Position>
            <AltitudeMeters>820.79998779296875</AltitudeMeters>
            <DistanceMeters>36894.15924039</DistanceMeters>
          </Trackpoint>
          <Trackpoint>
            <Time>2020-09-13T10:17:41.000Z</Time>
            <Position>
              <LatitudeDegrees>41.13398529589176177978515625</LatitudeDegrees>
              <LongitudeDegrees>-4.4110803119838237762451171875</LongitudeDegrees>
            </Position>
            <AltitudeMeters>819.20001220703125</AltitudeMeters>
            <DistanceMeters>36957.501228402</DistanceMeters>
          </Trackpoint>
          <Trackpoint>
            <Time>2020-09-13T10:17:49.000Z</Time>
            <Position>
              <LatitudeDegrees>41.1342221684753894805908203125</LatitudeDegrees>
              <LongitudeDegrees>-4.4115600921213626861572265625</LongitudeDegrees>
            </Position>
            <AltitudeMeters>820.5999755859375</AltitudeMeters>
            <DistanceMeters>37005.591881737</DistanceMeters>
          </Trackpoint>
          <Trackpoint>
            <Time>2020-09-13T10:17:53.000Z</Time>
            <Position>
              <LatitudeDegrees>41.13434873521327972412109375</LatitudeDegrees>
              <LongitudeDegrees>-4.411803670227527618408203125</LongitudeDegrees>
            </Position>
            <AltitudeMeters>821</AltitudeMeters>
            <DistanceMeters>37030.398768876</DistanceMeters>
          </Trackpoint>
          <Trackpoint>
            <Time>2020-09-13T10:17:54.000Z</Time>
            <Position>
              <LatitudeDegrees>41.1343775689601898193359375</LatitudeDegrees>
              <LongitudeDegrees>-4.41186376847326755523681640625</LongitudeDegrees>
            </Position>
            <AltitudeMeters>821</AltitudeMeters>
            <DistanceMeters>37036.372617058</DistanceMeters>
          </Trackpoint>
          <Trackpoint>
            <Time>2020-09-13T10:17:57.000Z</Time>
            <Position>
              <LatitudeDegrees>41.1344753019511699676513671875</LatitudeDegrees>
              <LongitudeDegrees>-4.41204381175339221954345703125</LongitudeDegrees>
            </Position>
            <AltitudeMeters>821</AltitudeMeters>
            <DistanceMeters>37054.976993696</DistanceMeters>
          </Trackpoint>
          <Trackpoint>
            <Time>2020-09-13T10:17:58.000Z</Time>
            <Position>
              <LatitudeDegrees>41.13450958393514156341552734375</LatitudeDegrees>
              <LongitudeDegrees>-4.4121059216558933258056640625</LongitudeDegrees>
            </Position>
            <AltitudeMeters>821.20001220703125</AltitudeMeters>
            <DistanceMeters>37061.432518678</DistanceMeters>
          </Trackpoint>
          <Trackpoint>
            <Time>2020-09-13T10:18:02.000Z</Time>
            <Position>
              <LatitudeDegrees>41.13464377820491790771484375</LatitudeDegrees>
              <LongitudeDegrees>-4.4123503379523754119873046875</LongitudeDegrees>
            </Position>
            <AltitudeMeters>821.20001220703125</AltitudeMeters>
            <DistanceMeters>37086.787740277</DistanceMeters>
          </Trackpoint>
          <Trackpoint>
            <Time>2020-09-13T10:18:05.000Z</Time>
            <Position>
              <LatitudeDegrees>41.13474897108972072601318359375</LatitudeDegrees>
              <LongitudeDegrees>-4.4125414453446865081787109375</LongitudeDegrees>
            </Position>
            <AltitudeMeters>821</AltitudeMeters>
            <DistanceMeters>37106.630355859</DistanceMeters>
          </Trackpoint>
          <Trackpoint>
            <Time>2020-09-13T10:18:07.000Z</Time>
            <Position>
              <LatitudeDegrees>41.1348189599812030792236328125</LatitudeDegrees>
              <LongitudeDegrees>-4.41265870817005634307861328125</LongitudeDegrees>
            </Position>
            <AltitudeMeters>821</AltitudeMeters>
            <DistanceMeters>37119.17280226</DistanceMeters>
          </Trackpoint>
          <Trackpoint>
            <Time>2020-09-13T10:18:17.000Z</Time>
            <Position>
              <LatitudeDegrees>41.1351656354963779449462890625</LatitudeDegrees>
              <LongitudeDegrees>-4.41321543417870998382568359375</LongitudeDegrees>
            </Position>
            <AltitudeMeters>820</AltitudeMeters>
            <DistanceMeters>37179.727639325</DistanceMeters>
          </Trackpoint>
          <Trackpoint>
            <Time>2020-09-13T10:18:19.000Z</Time>
            <Position>
              <LatitudeDegrees>41.13522715866565704345703125</LatitudeDegrees>
              <LongitudeDegrees>-4.41331316716969013214111328125</LongitudeDegrees>
            </Position>
            <AltitudeMeters>820.20001220703125</AltitudeMeters>
            <DistanceMeters>37190.404515508</DistanceMeters>
          </Trackpoint>
          <Trackpoint>
            <Time>2020-09-13T10:18:24.000Z</Time>
            <Position>
              <LatitudeDegrees>41.1354087106883525848388671875</LatitudeDegrees>
              <LongitudeDegrees>-4.41358876414597034454345703125</LongitudeDegrees>
            </Position>
            <AltitudeMeters>821.4000244140625</AltitudeMeters>
            <DistanceMeters>37221.09740874</DistanceMeters>
          </Trackpoint>
          <Trackpoint>
            <Time>2020-09-13T10:18:31.000Z</Time>
            <Position>
              <LatitudeDegrees>41.13566972315311431884765625</LatitudeDegrees>
              <LongitudeDegrees>-4.413977600634098052978515625</LongitudeDegrees>
            </Position>
            <AltitudeMeters>821.5999755859375</AltitudeMeters>
            <DistanceMeters>37264.759883231</DistanceMeters>
          </Trackpoint>
          <Trackpoint>
            <Time>2020-09-13T10:18:32.000Z</Time>
            <Position>
              <LatitudeDegrees>41.13570802845060825347900390625</LatitudeDegrees>
              <LongitudeDegrees>-4.41403233446180820465087890625</LongitudeDegrees>
            </Position>
            <AltitudeMeters>821.5999755859375</AltitudeMeters>
            <DistanceMeters>37271.02300163</DistanceMeters>
          </Trackpoint>
          <Trackpoint>
            <Time>2020-09-13T10:18:42.000Z</Time>
            <Position>
              <LatitudeDegrees>41.13609108142554759979248046875</LatitudeDegrees>
              <LongitudeDegrees>-4.41459794528782367706298828125</LongitudeDegrees>
            </Position>
            <AltitudeMeters>820.5999755859375</AltitudeMeters>
            <DistanceMeters>37334.78628102</DistanceMeters>
          </Trackpoint>
          <Trackpoint>
            <Time>2020-09-13T10:18:47.000Z</Time>
            <Position>
              <LatitudeDegrees>41.13627984188497066497802734375</LatitudeDegrees>
              <LongitudeDegrees>-4.414878822863101959228515625</LongitudeDegrees>
            </Position>
            <AltitudeMeters>820.20001220703125</AltitudeMeters>
            <DistanceMeters>37366.342018844</DistanceMeters>
          </Trackpoint>
          <Trackpoint>
            <Time>2020-09-13T10:18:57.000Z</Time>
            <Position>
              <LatitudeDegrees>41.1366867832839488983154296875</LatitudeDegrees>
              <LongitudeDegrees>-4.4153953157365322113037109375</LongitudeDegrees>
            </Position>
            <AltitudeMeters>820.4000244140625</AltitudeMeters>
            <DistanceMeters>37428.999870193</DistanceMeters>
          </Trackpoint>
          <Trackpoint>
            <Time>2020-09-13T10:19:05.000Z</Time>
            <Position>
              <LatitudeDegrees>41.13708936609327793121337890625</LatitudeDegrees>
              <LongitudeDegrees>-4.415706284344196319580078125</LongitudeDegrees>
            </Position>
            <AltitudeMeters>819</AltitudeMeters>
            <DistanceMeters>37480.838924382</DistanceMeters>
          </Trackpoint>
          <Trackpoint>
            <Time>2020-09-13T10:19:15.000Z</Time>
            <Position>
              <LatitudeDegrees>41.13761273212730884552001953125</LatitudeDegrees>
              <LongitudeDegrees>-4.41601482219994068145751953125</LongitudeDegrees>
            </Position>
            <AltitudeMeters>819.5999755859375</AltitudeMeters>
            <DistanceMeters>37544.57415709</DistanceMeters>
          </Trackpoint>
          <Trackpoint>
            <Time>2020-09-13T10:19:16.000Z</Time>
            <Position>
              <LatitudeDegrees>41.13766436465084552764892578125</LatitudeDegrees>
              <LongitudeDegrees>-4.41604734398424625396728515625</LongitudeDegrees>
            </Position>
            <AltitudeMeters>820</AltitudeMeters>
            <DistanceMeters>37550.934561359</DistanceMeters>
          </Trackpoint>
          <Trackpoint>
            <Time>2020-09-13T10:19:19.000Z</Time>
            <Position>
              <LatitudeDegrees>41.1378243751823902130126953125</LatitudeDegrees>
              <LongitudeDegrees>-4.4161366112530231475830078125</LongitudeDegrees>
            </Position>
            <AltitudeMeters>821.20001220703125</AltitudeMeters>
            <DistanceMeters>37570.252115786</DistanceMeters>
          </Trackpoint>
          <Trackpoint>
            <Time>2020-09-13T10:19:27.000Z</Time>
            <Position>
              <LatitudeDegrees>41.13823886029422283172607421875</LatitudeDegrees>
              <LongitudeDegrees>-4.4164033234119415283203125</LongitudeDegrees>
            </Position>
            <AltitudeMeters>825</AltitudeMeters>
            <DistanceMeters>37621.516980538</DistanceMeters>
          </Trackpoint>
          <Trackpoint>
            <Time>2020-09-13T10:19:32.000Z</Time>
            <Position>
              <LatitudeDegrees>41.1384687758982181549072265625</LatitudeDegrees>
              <LongitudeDegrees>-4.41659049130976200103759765625</LongitudeDegrees>
            </Position>
            <AltitudeMeters>827</AltitudeMeters>
            <DistanceMeters>37651.533692007</DistanceMeters>
          </Trackpoint>
          <Trackpoint>
            <Time>2020-09-13T10:19:33.000Z</Time>
            <Position>
              <LatitudeDegrees>41.1385120265185832977294921875</LatitudeDegrees>
              <LongitudeDegrees>-4.41663340665400028228759765625</LongitudeDegrees>
            </Position>
            <AltitudeMeters>827</AltitudeMeters>
            <DistanceMeters>37657.542957827</DistanceMeters>
          </Trackpoint>
          <Trackpoint>
            <Time>2020-09-13T10:19:34.000Z</Time>
            <Position>
              <LatitudeDegrees>41.138554103672504425048828125</LatitudeDegrees>
              <LongitudeDegrees>-4.41667892038822174072265625</LongitudeDegrees>
            </Position>
            <AltitudeMeters>827</AltitudeMeters>
            <DistanceMeters>37663.584445143</DistanceMeters>
          </Trackpoint>
          <Trackpoint>
            <Time>2020-09-13T10:19:35.000Z</Time>
            <Position>
              <LatitudeDegrees>41.1385958455502986907958984375</LatitudeDegrees>
              <LongitudeDegrees>-4.41672543995082378387451171875</LongitudeDegrees>
            </Position>
            <AltitudeMeters>826.79998779296875</AltitudeMeters>
            <DistanceMeters>37669.649800156</DistanceMeters>
          </Trackpoint>
          <Trackpoint>
            <Time>2020-09-13T10:19:37.000Z</Time>
            <Position>
              <LatitudeDegrees>41.13868360407650470733642578125</LatitudeDegrees>
              <LongitudeDegrees>-4.4168252684175968170166015625</LongitudeDegrees>
            </Position>
            <AltitudeMeters>826.5999755859375</AltitudeMeters>
            <DistanceMeters>37682.511798463</DistanceMeters>
          </Trackpoint>
          <Trackpoint>
            <Time>2020-09-13T10:19:42.000Z</Time>
            <Position>
              <LatitudeDegrees>41.13886331208050251007080078125</LatitudeDegrees>
              <LongitudeDegrees>-4.4170604646205902099609375</LongitudeDegrees>
            </Position>
            <AltitudeMeters>826</AltitudeMeters>
            <DistanceMeters>37710.596654119</DistanceMeters>
          </Trackpoint>
          <Trackpoint>
            <Time>2020-09-13T10:19:45.000Z</Time>
            <Position>
              <LatitudeDegrees>41.13897194154560565948486328125</LatitudeDegrees>
              <LongitudeDegrees>-4.41722198389470577239990234375</LongitudeDegrees>
            </Position>
            <AltitudeMeters>826</AltitudeMeters>
            <DistanceMeters>37728.748995275</DistanceMeters>
          </Trackpoint>
          <Trackpoint>
            <Time>2020-09-13T10:19:55.000Z</Time>
            <Position>
              <LatitudeDegrees>41.13931543193757534027099609375</LatitudeDegrees>
              <LongitudeDegrees>-4.41779865883290767669677734375</LongitudeDegrees>
            </Position>
            <AltitudeMeters>826</AltitudeMeters>
            <DistanceMeters>37790.378929674</DistanceMeters>
          </Trackpoint>
          <Trackpoint>
            <Time>2020-09-13T10:19:58.000Z</Time>
            <Position>
              <LatitudeDegrees>41.13941350020468235015869140625</LatitudeDegrees>
              <LongitudeDegrees>-4.41796495579183101654052734375</LongitudeDegrees>
            </Position>
            <AltitudeMeters>826</AltitudeMeters>
            <DistanceMeters>37808.083505736</DistanceMeters>
          </Trackpoint>
          <Trackpoint>
            <Time>2020-09-13T10:20:00.000Z</Time>
            <Position>
              <LatitudeDegrees>41.1394764482975006103515625</LatitudeDegrees>
              <LongitudeDegrees>-4.418082050979137420654296875</LongitudeDegrees>
            </Position>
            <AltitudeMeters>826</AltitudeMeters>
            <DistanceMeters>37820.142541811</DistanceMeters>
          </Trackpoint>
          <Trackpoint>
            <Time>2020-09-13T10:20:07.000Z</Time>
            <Position>
              <LatitudeDegrees>41.1396999098360538482666015625</LatitudeDegrees>
              <LongitudeDegrees>-4.4184674508869647979736328125</LongitudeDegrees>
            </Position>
            <AltitudeMeters>824.5999755859375</AltitudeMeters>
            <DistanceMeters>37860.913099958</DistanceMeters>
          </Trackpoint>
          <Trackpoint>
            <Time>2020-09-13T10:20:17.000Z</Time>
            <Position>
              <LatitudeDegrees>41.1400207690894603729248046875</LatitudeDegrees>
              <LongitudeDegrees>-4.4190055690705776214599609375</LongitudeDegrees>
            </Position>
            <AltitudeMeters>824.4000244140625</AltitudeMeters>
            <DistanceMeters>37918.445164064</DistanceMeters>
          </Trackpoint>
          <Trackpoint>
            <Time>2020-09-13T10:20:21.000Z</Time>
            <Position>
              <LatitudeDegrees>41.1401498503983020782470703125</LatitudeDegrees>
              <LongitudeDegrees>-4.41922324709594249725341796875</LongitudeDegrees>
            </Position>
            <AltitudeMeters>825</AltitudeMeters>
            <DistanceMeters>37941.668845421</DistanceMeters>
          </Trackpoint>
          <Trackpoint>
            <Time>2020-09-13T10:20:23.000Z</Time>
            <Position>
              <LatitudeDegrees>41.14021112211048603057861328125</LatitudeDegrees>
              <LongitudeDegrees>-4.4193294458091259002685546875</LongitudeDegrees>
            </Position>
            <AltitudeMeters>825.4000244140625</AltitudeMeters>
            <DistanceMeters>37952.882400365</DistanceMeters>
          </Trackpoint>
          <Trackpoint>
            <Time>2020-09-13T10:20:29.000Z</Time>
            <Position>
              <LatitudeDegrees>41.14039753563702106475830078125</LatitudeDegrees>
              <LongitudeDegrees>-4.4196563400328159332275390625</LongitudeDegrees>
            </Position>
            <AltitudeMeters>826.79998779296875</AltitudeMeters>
            <DistanceMeters>37987.252263765</DistanceMeters>
          </Trackpoint>
          <Trackpoint>
            <Time>2020-09-13T10:20:35.000Z</Time>
            <Position>
              <LatitudeDegrees>41.140591241419315338134765625</LatitudeDegrees>
              <LongitudeDegrees>-4.41999471746385097503662109375</LongitudeDegrees>
            </Position>
            <AltitudeMeters>825.20001220703125</AltitudeMeters>
            <DistanceMeters>38022.879551976</DistanceMeters>
          </Trackpoint>
          <Trackpoint>
            <Time>2020-09-13T10:20:41.000Z</Time>
            <Position>
              <LatitudeDegrees>41.14078394137322902679443359375</LatitudeDegrees>
              <LongitudeDegrees>-4.42033083178102970123291015625</LongitudeDegrees>
            </Position>
            <AltitudeMeters>824.20001220703125</AltitudeMeters>
            <DistanceMeters>38058.287939029</DistanceMeters>
          </Trackpoint>
          <Trackpoint>
            <Time>2020-09-13T10:20:42.000Z</Time>
            <Position>
              <LatitudeDegrees>41.14081688225269317626953125</LatitudeDegrees>
              <LongitudeDegrees>-4.42038766108453273773193359375</LongitudeDegrees>
            </Position>
            <AltitudeMeters>824.20001220703125</AltitudeMeters>
            <DistanceMeters>38064.299458465</DistanceMeters>
          </Trackpoint>
          <Trackpoint>
            <Time>2020-09-13T10:20:45.000Z</Time>
            <Position>
              <LatitudeDegrees>41.14091285504400730133056640625</LatitudeDegrees>
              <LongitudeDegrees>-4.42054926417768001556396484375</LongitudeDegrees>
            </Position>
            <AltitudeMeters>824.4000244140625</AltitudeMeters>
            <DistanceMeters>38081.550406244</DistanceMeters>
          </Trackpoint>
          <Trackpoint>
            <Time>2020-09-13T10:20:46.000Z</Time>
            <Position>
              <LatitudeDegrees>41.1409457959234714508056640625</LatitudeDegrees>
              <LongitudeDegrees>-4.4206038303673267364501953125</LongitudeDegrees>
            </Position>
            <AltitudeMeters>824.4000244140625</AltitudeMeters>
            <DistanceMeters>38087.412098906</DistanceMeters>
          </Trackpoint>
          <Trackpoint>
            <Time>2020-09-13T10:20:56.000Z</Time>
            <Position>
              <LatitudeDegrees>41.14130395464599132537841796875</LatitudeDegrees>
              <LongitudeDegrees>-4.42119584418833255767822265625</LongitudeDegrees>
            </Position>
            <AltitudeMeters>824.79998779296875</AltitudeMeters>
            <DistanceMeters>38151.063968623</DistanceMeters>
          </Trackpoint>
          <Trackpoint>
            <Time>2020-09-13T10:21:06.000Z</Time>
            <Position>
              <LatitudeDegrees>41.14164434373378753662109375</LatitudeDegrees>
              <LongitudeDegrees>-4.421768076717853546142578125</LongitudeDegrees>
            </Position>
            <AltitudeMeters>823.20001220703125</AltitudeMeters>
            <DistanceMeters>38212.186315491</DistanceMeters>
          </Trackpoint>
          <Trackpoint>
            <Time>2020-09-13T10:21:14.000Z</Time>
            <Position>
              <LatitudeDegrees>41.14192522130906581878662109375</LatitudeDegrees>
              <LongitudeDegrees>-4.42224509082734584808349609375</LongitudeDegrees>
            </Position>
            <AltitudeMeters>823.20001220703125</AltitudeMeters>
            <DistanceMeters>38262.940367416</DistanceMeters>
          </Trackpoint>
          <Trackpoint>
            <Time>2020-09-13T10:21:19.000Z</Time>
            <Position>
              <LatitudeDegrees>41.14208766259253025054931640625</LatitudeDegrees>
              <LongitudeDegrees>-4.4225098751485347747802734375</LongitudeDegrees>
            </Position>
            <AltitudeMeters>824.4000244140625</AltitudeMeters>
            <DistanceMeters>38291.566603235</DistanceMeters>
          </Trackpoint>
          <Trackpoint>
            <Time>2020-09-13T10:21:22.000Z</Time>
            <Position>
              <LatitudeDegrees>41.1421900056302547454833984375</LatitudeDegrees>
              <LongitudeDegrees>-4.42266351543366909027099609375</LongitudeDegrees>
            </Position>
            <AltitudeMeters>825.20001220703125</AltitudeMeters>
            <DistanceMeters>38308.759874665</DistanceMeters>
          </Trackpoint>
          <Trackpoint>
            <Time>2020-09-13T10:21:32.000Z</Time>
            <Position>
              <LatitudeDegrees>41.14253927953541278839111328125</LatitudeDegrees>
              <LongitudeDegrees>-4.423252008855342864990234375</LongitudeDegrees>
            </Position>
            <AltitudeMeters>823.20001220703125</AltitudeMeters>
            <DistanceMeters>38371.564337892</DistanceMeters>
          </Trackpoint>
          <Trackpoint>
            <Time>2020-09-13T10:21:33.000Z</Time>
            <Position>
              <LatitudeDegrees>41.14256626926362514495849609375</LatitudeDegrees>
              <LongitudeDegrees>-4.42329601384699344635009765625</LongitudeDegrees>
            </Position>
            <AltitudeMeters>822.79998779296875</AltitudeMeters>
            <DistanceMeters>38376.321371797</DistanceMeters>
          </Trackpoint>
          <Trackpoint>
            <Time>2020-09-13T10:21:38.000Z</Time>
            <Position>
              <LatitudeDegrees>41.14273524843156337738037109375</LatitudeDegrees>
              <LongitudeDegrees>-4.42356792278587818145751953125</LongitudeDegrees>
            </Position>
            <AltitudeMeters>823.79998779296875</AltitudeMeters>
            <DistanceMeters>38405.870554724</DistanceMeters>
          </Trackpoint>
          <Trackpoint>
            <Time>2020-09-13T10:21:41.000Z</Time>
            <Position>
              <LatitudeDegrees>41.14284404553472995758056640625</LatitudeDegrees>
              <LongitudeDegrees>-4.42374385893344879150390625</LongitudeDegrees>
            </Position>
            <AltitudeMeters>824.4000244140625</AltitudeMeters>
            <DistanceMeters>38424.951767532</DistanceMeters>
          </Trackpoint>
          <Trackpoint>
            <Time>2020-09-13T10:21:44.000Z</Time>
            <Position>
              <LatitudeDegrees>41.14294127561151981353759765625</LatitudeDegrees>
              <LongitudeDegrees>-4.42390990443527698516845703125</LongitudeDegrees>
            </Position>
            <AltitudeMeters>824.5999755859375</AltitudeMeters>
            <DistanceMeters>38442.581464101</DistanceMeters>
          </Trackpoint>
          <Trackpoint>
            <Time>2020-09-13T10:21:55.000Z</Time>
            <Position>
              <LatitudeDegrees>41.14331309683620929718017578125</LatitudeDegrees>
              <LongitudeDegrees>-4.424501918256282806396484375</LongitudeDegrees>
            </Position>
            <AltitudeMeters>823.20001220703125</AltitudeMeters>
            <DistanceMeters>38507.195367505</DistanceMeters>
          </Trackpoint>
          <Trackpoint>
            <Time>2020-09-13T10:21:57.000Z</Time>
            <Position>
              <LatitudeDegrees>41.14338451065123081207275390625</LatitudeDegrees>
              <LongitudeDegrees>-4.42462286911904811859130859375</LongitudeDegrees>
            </Position>
            <AltitudeMeters>823.4000244140625</AltitudeMeters>
            <DistanceMeters>38520.077709873</DistanceMeters>
          </Trackpoint>
          <Trackpoint>
            <Time>2020-09-13T10:22:02.000Z</Time>
            <Position>
              <LatitudeDegrees>41.14356019534170627593994140625</LatitudeDegrees>
              <LongitudeDegrees>-4.4249020703136920928955078125</LongitudeDegrees>
            </Position>
            <AltitudeMeters>823.5999755859375</AltitudeMeters>
            <DistanceMeters>38550.5737354</DistanceMeters>
          </Trackpoint>
          <Trackpoint>
            <Time>2020-09-13T10:22:11.000Z</Time>
            <Position>
              <LatitudeDegrees>41.14386093802750110626220703125</LatitudeDegrees>
              <LongitudeDegrees>-4.42539274692535400390625</LongitudeDegrees>
            </Position>
            <AltitudeMeters>823</AltitudeMeters>
            <DistanceMeters>38603.601026148</DistanceMeters>
          </Trackpoint>
          <Trackpoint>
            <Time>2020-09-13T10:22:12.000Z</Time>
            <Position>
              <LatitudeDegrees>41.1438955552875995635986328125</LatitudeDegrees>
              <LongitudeDegrees>-4.42544706165790557861328125</LongitudeDegrees>
            </Position>
            <AltitudeMeters>823</AltitudeMeters>
            <DistanceMeters>38609.565040829</DistanceMeters>
          </Trackpoint>
          <Trackpoint>
            <Time>2020-09-13T10:22:17.000Z</Time>
            <Position>
              <LatitudeDegrees>41.1440670490264892578125</LatitudeDegrees>
              <LongitudeDegrees>-4.4257293641567230224609375</LongitudeDegrees>
            </Position>
            <AltitudeMeters>822.5999755859375</AltitudeMeters>
            <DistanceMeters>38639.965867526</DistanceMeters>
          </Trackpoint>
          <Trackpoint>
            <Time>2020-09-13T10:22:18.000Z</Time>
            <Position>
              <LatitudeDegrees>41.14409387111663818359375</LatitudeDegrees>
              <LongitudeDegrees>-4.4257727824151515960693359375</LongitudeDegrees>
            </Position>
            <AltitudeMeters>822.4000244140625</AltitudeMeters>
            <DistanceMeters>38644.672328778</DistanceMeters>
          </Trackpoint>
          <Trackpoint>
            <Time>2020-09-13T10:22:24.000Z</Time>
            <Position>
              <LatitudeDegrees>41.14430375397205352783203125</LatitudeDegrees>
              <LongitudeDegrees>-4.42611082457005977630615234375</LongitudeDegrees>
            </Position>
            <AltitudeMeters>822</AltitudeMeters>
            <DistanceMeters>38681.394098965</DistanceMeters>
          </Trackpoint>
          <Trackpoint>
            <Time>2020-09-13T10:22:25.000Z</Time>
            <Position>
              <LatitudeDegrees>41.14434457384049892425537109375</LatitudeDegrees>
              <LongitudeDegrees>-4.426177628338336944580078125</LongitudeDegrees>
            </Position>
            <AltitudeMeters>822</AltitudeMeters>
            <DistanceMeters>38688.604867312</DistanceMeters>
          </Trackpoint>
          <Trackpoint>
            <Time>2020-09-13T10:22:26.000Z</Time>
            <Position>
              <LatitudeDegrees>41.14437885582447052001953125</LatitudeDegrees>
              <LongitudeDegrees>-4.42623320035636425018310546875</LongitudeDegrees>
            </Position>
            <AltitudeMeters>822</AltitudeMeters>
            <DistanceMeters>38694.626142669</DistanceMeters>
          </Trackpoint>
          <Trackpoint>
            <Time>2020-09-13T10:22:32.000Z</Time>
            <Position>
              <LatitudeDegrees>41.144579015672206878662109375</LatitudeDegrees>
              <LongitudeDegrees>-4.42656495608389377593994140625</LongitudeDegrees>
            </Position>
            <AltitudeMeters>821.4000244140625</AltitudeMeters>
            <DistanceMeters>38730.256472265</DistanceMeters>
          </Trackpoint>
          <Trackpoint>
            <Time>2020-09-13T10:22:34.000Z</Time>
            <Position>
              <LatitudeDegrees>41.1446492560207843780517578125</LatitudeDegrees>
              <LongitudeDegrees>-4.426681213080883026123046875</LongitudeDegrees>
            </Position>
            <AltitudeMeters>821</AltitudeMeters>
            <DistanceMeters>38742.749503973</DistanceMeters>
          </Trackpoint>
          <Trackpoint>
            <Time>2020-09-13T10:22:37.000Z</Time>
            <Position>
              <LatitudeDegrees>41.144762746989727020263671875</LatitudeDegrees>
              <LongitudeDegrees>-4.4268667884171009063720703125</LongitudeDegrees>
            </Position>
            <AltitudeMeters>820.4000244140625</AltitudeMeters>
            <DistanceMeters>38762.786850575</DistanceMeters>
          </Trackpoint>
          <Trackpoint>
            <Time>2020-09-13T10:22:39.000Z</Time>
            <Position>
              <LatitudeDegrees>41.14483273588120937347412109375</LatitudeDegrees>
              <LongitudeDegrees>-4.42698053084313869476318359375</LongitudeDegrees>
            </Position>
            <AltitudeMeters>820.20001220703125</AltitudeMeters>
            <DistanceMeters>38775.09822065</DistanceMeters>
          </Trackpoint>
          <Trackpoint>
            <Time>2020-09-13T10:22:40.000Z</Time>
            <Position>
              <LatitudeDegrees>41.14486006088554859161376953125</LatitudeDegrees>
              <LongitudeDegrees>-4.427026547491550445556640625</LongitudeDegrees>
            </Position>
            <AltitudeMeters>820.20001220703125</AltitudeMeters>
            <DistanceMeters>38780.010283786</DistanceMeters>
          </Trackpoint>
          <Trackpoint>
            <Time>2020-09-13T10:22:48.000Z</Time>
            <Position>
              <LatitudeDegrees>41.14516315050423145294189453125</LatitudeDegrees>
              <LongitudeDegrees>-4.4275182299315929412841796875</LongitudeDegrees>
            </Position>
            <AltitudeMeters>819.5999755859375</AltitudeMeters>
            <DistanceMeters>38833.2675648</DistanceMeters>
          </Trackpoint>
          <Trackpoint>
            <Time>2020-09-13T10:22:50.000Z</Time>
            <Position>
              <LatitudeDegrees>41.1452266015112400054931640625</LatitudeDegrees>
              <LongitudeDegrees>-4.427618645131587982177734375</LongitudeDegrees>
            </Position>
            <AltitudeMeters>819.5999755859375</AltitudeMeters>
            <DistanceMeters>38844.254559926</DistanceMeters>
          </Trackpoint>
          <Trackpoint>
            <Time>2020-09-13T10:22:54.000Z</Time>
            <Position>
              <LatitudeDegrees>41.1453613825142383575439453125</LatitudeDegrees>
              <LongitudeDegrees>-4.42784872837364673614501953125</LongitudeDegrees>
            </Position>
            <AltitudeMeters>819.79998779296875</AltitudeMeters>
            <DistanceMeters>38868.686961229</DistanceMeters>
          </Trackpoint>
          <Trackpoint>
            <Time>2020-09-13T10:22:57.000Z</Time>
            <Position>
              <LatitudeDegrees>41.14546456374228000640869140625</LatitudeDegrees>
              <LongitudeDegrees>-4.42804838530719280242919921875</LongitudeDegrees>
            </Position>
            <AltitudeMeters>819.79998779296875</AltitudeMeters>
            <DistanceMeters>38888.982896712</DistanceMeters>
          </Trackpoint>
          <Trackpoint>
            <Time>2020-09-13T10:23:02.000Z</Time>
            <Position>
              <LatitudeDegrees>41.14560655318200588226318359375</LatitudeDegrees>
              <LongitudeDegrees>-4.428358264267444610595703125</LongitudeDegrees>
            </Position>
            <AltitudeMeters>820.4000244140625</AltitudeMeters>
            <DistanceMeters>38919.385505561</DistanceMeters>
          </Trackpoint>
          <Trackpoint>
            <Time>2020-09-13T10:23:07.000Z</Time>
            <Position>
              <LatitudeDegrees>41.1457281745970249176025390625</LatitudeDegrees>
              <LongitudeDegrees>-4.4286759383976459503173828125</LongitudeDegrees>
            </Position>
            <AltitudeMeters>820.4000244140625</AltitudeMeters>
            <DistanceMeters>38949.254746473</DistanceMeters>
          </Trackpoint>
          <Trackpoint>
            <Time>2020-09-13T10:23:17.000Z</Time>
            <Position>
              <LatitudeDegrees>41.145930849015712738037109375</LatitudeDegrees>
              <LongitudeDegrees>-4.4293394498527050018310546875</LongitudeDegrees>
            </Position>
            <AltitudeMeters>817.5999755859375</AltitudeMeters>
            <DistanceMeters>39009.267558678</DistanceMeters>
          </Trackpoint>
          <Trackpoint>
            <Time>2020-09-13T10:23:18.000Z</Time>
            <Position>
              <LatitudeDegrees>41.14594995975494384765625</LatitudeDegrees>
              <LongitudeDegrees>-4.42942075431346893310546875</LongitudeDegrees>
            </Position>
            <AltitudeMeters>817.20001220703125</AltitudeMeters>
            <DistanceMeters>39016.406588826</DistanceMeters>
          </Trackpoint>
          <Trackpoint>
            <Time>2020-09-13T10:23:28.000Z</Time>
            <Position>
              <LatitudeDegrees>41.146071664988994598388671875</LatitudeDegrees>
              <LongitudeDegrees>-4.4301256723701953887939453125</LongitudeDegrees>
            </Position>
            <AltitudeMeters>817.4000244140625</AltitudeMeters>
            <DistanceMeters>39077.021790334</DistanceMeters>
          </Trackpoint>
          <Trackpoint>
            <Time>2020-09-13T10:23:38.000Z</Time>
            <Position>
              <LatitudeDegrees>41.146125979721546173095703125</LatitudeDegrees>
              <LongitudeDegrees>-4.43082195706665515899658203125</LongitudeDegrees>
            </Position>
            <AltitudeMeters>817.79998779296875</AltitudeMeters>
            <DistanceMeters>39135.692610513</DistanceMeters>
          </Trackpoint>
          <Trackpoint>
            <Time>2020-09-13T10:23:47.000Z</Time>
            <Position>
              <LatitudeDegrees>41.1461107246577739715576171875</LatitudeDegrees>
              <LongitudeDegrees>-4.431436099112033843994140625</LongitudeDegrees>
            </Position>
            <AltitudeMeters>814.5999755859375</AltitudeMeters>
            <DistanceMeters>39187.194459744</DistanceMeters>
          </Trackpoint>
          <Trackpoint>
            <Time>2020-09-13T10:23:49.000Z</Time>
            <Position>
              <LatitudeDegrees>41.14610041491687297821044921875</LatitudeDegrees>
              <LongitudeDegrees>-4.4315700419247150421142578125</LongitudeDegrees>
            </Position>
            <AltitudeMeters>814</AltitudeMeters>
            <DistanceMeters>39198.479057123</DistanceMeters>
          </Trackpoint>
          <Trackpoint>
            <Time>2020-09-13T10:23:59.000Z</Time>
            <Position>
              <LatitudeDegrees>41.14601961337029933929443359375</LatitudeDegrees>
              <LongitudeDegrees>-4.432186447083950042724609375</LongitudeDegrees>
            </Position>
            <AltitudeMeters>813.79998779296875</AltitudeMeters>
            <DistanceMeters>39250.919513072</DistanceMeters>
          </Trackpoint>
          <Trackpoint>
            <Time>2020-09-13T10:24:02.000Z</Time>
            <Position>
              <LatitudeDegrees>41.14598675630986690521240234375</LatitudeDegrees>
              <LongitudeDegrees>-4.4323740340769290924072265625</LongitudeDegrees>
            </Position>
            <AltitudeMeters>814</AltitudeMeters>
            <DistanceMeters>39267.06147255</DistanceMeters>
          </Trackpoint>
          <Trackpoint>
            <Time>2020-09-13T10:24:07.000Z</Time>
            <Position>
              <LatitudeDegrees>41.1459253169596195220947265625</LatitudeDegrees>
              <LongitudeDegrees>-4.432668574154376983642578125</LongitudeDegrees>
            </Position>
            <AltitudeMeters>814.4000244140625</AltitudeMeters>
            <DistanceMeters>39292.677826604</DistanceMeters>
          </Trackpoint>
          <Trackpoint>
            <Time>2020-09-13T10:24:09.000Z</Time>
            <Position>
              <LatitudeDegrees>41.1458991654217243194580078125</LatitudeDegrees>
              <LongitudeDegrees>-4.4327860884368419647216796875</LongitudeDegrees>
            </Position>
            <AltitudeMeters>814.5999755859375</AltitudeMeters>
            <DistanceMeters>39302.948627596</DistanceMeters>
          </Trackpoint>
          <Trackpoint>
            <Time>2020-09-13T10:24:12.000Z</Time>
            <Position>
              <LatitudeDegrees>41.14585314877331256866455078125</LatitudeDegrees>
              <LongitudeDegrees>-4.43296722136437892913818359375</LongitudeDegrees>
            </Position>
            <AltitudeMeters>814.5999755859375</AltitudeMeters>
            <DistanceMeters>39318.971270116</DistanceMeters>
          </Trackpoint>
          <Trackpoint>
            <Time>2020-09-13T10:24:16.000Z</Time>
            <Position>
              <LatitudeDegrees>41.14579061977565288543701171875</LatitudeDegrees>
              <LongitudeDegrees>-4.43322010338306427001953125</LongitudeDegrees>
            </Position>
            <AltitudeMeters>814.4000244140625</AltitudeMeters>
            <DistanceMeters>39341.280094225</DistanceMeters>
          </Trackpoint>
          <Trackpoint>
            <Time>2020-09-13T10:24:21.000Z</Time>
            <Position>
              <LatitudeDegrees>41.14571099169552326202392578125</LatitudeDegrees>
              <LongitudeDegrees>-4.43354196846485137939453125</LongitudeDegrees>
            </Position>
            <AltitudeMeters>814.20001220703125</AltitudeMeters>
            <DistanceMeters>39369.675755616</DistanceMeters>
          </Trackpoint>
          <Trackpoint>
            <Time>2020-09-13T10:24:26.000Z</Time>
            <Position>
              <LatitudeDegrees>41.14563119597733020782470703125</LatitudeDegrees>
              <LongitudeDegrees>-4.4338690303266048431396484375</LongitudeDegrees>
            </Position>
            <AltitudeMeters>814.4000244140625</AltitudeMeters>
            <DistanceMeters>39398.491265141</DistanceMeters>
          </Trackpoint>
          <Trackpoint>
            <Time>2020-09-13T10:24:31.000Z</Time>
            <Position>
              <LatitudeDegrees>41.1455618776381015777587890625</LatitudeDegrees>
              <LongitudeDegrees>-4.4341783225536346435546875</LongitudeDegrees>
            </Position>
            <AltitudeMeters>814.5999755859375</AltitudeMeters>
            <DistanceMeters>39425.538345443</DistanceMeters>
          </Trackpoint>
          <Trackpoint>
            <Time>2020-09-13T10:24:39.000Z</Time>
            <Position>
              <LatitudeDegrees>41.14545132033526897430419921875</LatitudeDegrees>
              <LongitudeDegrees>-4.43467830307781696319580078125</LongitudeDegrees>
            </Position>
            <AltitudeMeters>815</AltitudeMeters>
            <DistanceMeters>39469.213537235</DistanceMeters>
          </Trackpoint>
          <Trackpoint>
            <Time>2020-09-13T10:24:40.000Z</Time>
            <Position>
              <LatitudeDegrees>41.14543874748051166534423828125</LatitudeDegrees>
              <LongitudeDegrees>-4.43474091589450836181640625</LongitudeDegrees>
            </Position>
            <AltitudeMeters>814.79998779296875</AltitudeMeters>
            <DistanceMeters>39474.645874653</DistanceMeters>
          </Trackpoint>
          <Trackpoint>
            <Time>2020-09-13T10:24:41.000Z</Time>
            <Position>
              <LatitudeDegrees>41.14542500115931034088134765625</LatitudeDegrees>
              <LongitudeDegrees>-4.43480336107313632965087890625</LongitudeDegrees>
            </Position>
            <AltitudeMeters>814.79998779296875</AltitudeMeters>
            <DistanceMeters>39480.098122965</DistanceMeters>
          </Trackpoint>
          <Trackpoint>
            <Time>2020-09-13T10:24:52.000Z</Time>
            <Position>
              <LatitudeDegrees>41.1452691815793514251708984375</LatitudeDegrees>
              <LongitudeDegrees>-4.43554264493286609649658203125</LongitudeDegrees>
            </Position>
            <AltitudeMeters>814.5999755859375</AltitudeMeters>
            <DistanceMeters>39544.442647277</DistanceMeters>
          </Trackpoint>
          <Trackpoint>
            <Time>2020-09-13T10:24:55.000Z</Time>
            <Position>
              <LatitudeDegrees>41.14522584713995456695556640625</LatitudeDegrees>
              <LongitudeDegrees>-4.4357609935104846954345703125</LongitudeDegrees>
            </Position>
            <AltitudeMeters>814.79998779296875</AltitudeMeters>
            <DistanceMeters>39563.368476512</DistanceMeters>
          </Trackpoint>
          <Trackpoint>
            <Time>2020-09-13T10:24:59.000Z</Time>
            <Position>
              <LatitudeDegrees>41.14518745802342891693115234375</LatitudeDegrees>
              <LongitudeDegrees>-4.43602980114519596099853515625</LongitudeDegrees>
            </Position>
            <AltitudeMeters>814.5999755859375</AltitudeMeters>
            <DistanceMeters>39586.300255809</DistanceMeters>
          </Trackpoint>
          <Trackpoint>
            <Time>2020-09-13T10:25:00.000Z</Time>
            <Position>
              <LatitudeDegrees>41.145180501043796539306640625</LatitudeDegrees>
              <LongitudeDegrees>-4.43610188551247119903564453125</LongitudeDegrees>
            </Position>
            <AltitudeMeters>814.5999755859375</AltitudeMeters>
            <DistanceMeters>39592.391609033</DistanceMeters>
          </Trackpoint>
          <Trackpoint>
            <Time>2020-09-13T10:25:02.000Z</Time>
            <Position>
              <LatitudeDegrees>41.14516801200807094573974609375</LatitudeDegrees>
              <LongitudeDegrees>-4.43625410087406635284423828125</LongitudeDegrees>
            </Position>
            <AltitudeMeters>814.4000244140625</AltitudeMeters>
            <DistanceMeters>39605.224790018</DistanceMeters>
          </Trackpoint>
          <Trackpoint>
            <Time>2020-09-13T10:25:05.000Z</Time>
            <Position>
              <LatitudeDegrees>41.14516340196132659912109375</LatitudeDegrees>
              <LongitudeDegrees>-4.436475969851016998291015625</LongitudeDegrees>
            </Position>
            <AltitudeMeters>813.79998779296875</AltitudeMeters>
            <DistanceMeters>39623.827710478</DistanceMeters>
          </Trackpoint>
          <Trackpoint>
            <Time>2020-09-13T10:25:13.000Z</Time>
            <Position>
              <LatitudeDegrees>41.14521034061908721923828125</LatitudeDegrees>
              <LongitudeDegrees>-4.4370581768453121185302734375</LongitudeDegrees>
            </Position>
            <AltitudeMeters>813.4000244140625</AltitudeMeters>
            <DistanceMeters>39672.904385684</DistanceMeters>
          </Trackpoint>
          <Trackpoint>
            <Time>2020-09-13T10:25:21.000Z</Time>
            <Position>
              <LatitudeDegrees>41.14532173611223697662353515625</LatitudeDegrees>
              <LongitudeDegrees>-4.43761230446398258209228515625</LongitudeDegrees>
            </Position>
            <AltitudeMeters>813.4000244140625</AltitudeMeters>
            <DistanceMeters>39720.975224996</DistanceMeters>
          </Trackpoint>
          <Trackpoint>
            <Time>2020-09-13T10:25:23.000Z</Time>
            <Position>
              <LatitudeDegrees>41.145347468554973602294921875</LatitudeDegrees>
              <LongitudeDegrees>-4.43773786537349224090576171875</LongitudeDegrees>
            </Position>
            <AltitudeMeters>813.5999755859375</AltitudeMeters>
            <DistanceMeters>39731.881791687</DistanceMeters>
          </Trackpoint>
          <Trackpoint>
            <Time>2020-09-13T10:25:26.000Z</Time>
            <Position>
              <LatitudeDegrees>41.145394407212734222412109375</LatitudeDegrees>
              <LongitudeDegrees>-4.43794422782957553863525390625</LongitudeDegrees>
            </Position>
            <AltitudeMeters>813.4000244140625</AltitudeMeters>
            <DistanceMeters>39749.950116282</DistanceMeters>
          </Trackpoint>
          <Trackpoint>
            <Time>2020-09-13T10:25:28.000Z</Time>
            <Position>
              <LatitudeDegrees>41.1454282701015472412109375</LatitudeDegrees>
              <LongitudeDegrees>-4.43808252923190593719482421875</LongitudeDegrees>
            </Position>
            <AltitudeMeters>813.20001220703125</AltitudeMeters>
            <DistanceMeters>39762.139491894</DistanceMeters>
          </Trackpoint>
          <Trackpoint>
            <Time>2020-09-13T10:25:30.000Z</Time>
            <Position>
              <LatitudeDegrees>41.14546054042875766754150390625</LatitudeDegrees>
              <LongitudeDegrees>-4.43821865133941173553466796875</LongitudeDegrees>
            </Position>
            <AltitudeMeters>813.20001220703125</AltitudeMeters>
            <DistanceMeters>39774.100784934</DistanceMeters>
          </Trackpoint>
          <Trackpoint>
            <Time>2020-09-13T10:25:31.000Z</Time>
            <Position>
              <LatitudeDegrees>41.14547763951122760772705078125</LatitudeDegrees>
              <LongitudeDegrees>-4.438303895294666290283203125</LongitudeDegrees>
            </Position>
            <AltitudeMeters>813.20001220703125</AltitudeMeters>
            <DistanceMeters>39781.494571703</DistanceMeters>
          </Trackpoint>
          <Trackpoint>
            <Time>2020-09-13T10:25:34.000Z</Time>
            <Position>
              <LatitudeDegrees>41.1455146037042140960693359375</LatitudeDegrees>
              <LongitudeDegrees>-4.43850195966660976409912109375</LongitudeDegrees>
            </Position>
            <AltitudeMeters>813</AltitudeMeters>
            <DistanceMeters>39798.597532448</DistanceMeters>
          </Trackpoint>
          <Trackpoint>
            <Time>2020-09-13T10:25:38.000Z</Time>
            <Position>
              <LatitudeDegrees>41.145564727485179901123046875</LatitudeDegrees>
              <LongitudeDegrees>-4.438786692917346954345703125</LongitudeDegrees>
            </Position>
            <AltitudeMeters>813.4000244140625</AltitudeMeters>
            <DistanceMeters>39823.105951918</DistanceMeters>
          </Trackpoint>
          <Trackpoint>
            <Time>2020-09-13T10:25:43.000Z</Time>
            <Position>
              <LatitudeDegrees>41.1456079781055450439453125</LatitudeDegrees>
              <LongitudeDegrees>-4.43913571536540985107421875</LongitudeDegrees>
            </Position>
            <AltitudeMeters>814.79998779296875</AltitudeMeters>
            <DistanceMeters>39852.752611604</DistanceMeters>
          </Trackpoint>
          <Trackpoint>
            <Time>2020-09-13T10:25:44.000Z</Time>
            <Position>
              <LatitudeDegrees>41.14561342634260654449462890625</LatitudeDegrees>
              <LongitudeDegrees>-4.4392036087810993194580078125</LongitudeDegrees>
            </Position>
            <AltitudeMeters>815</AltitudeMeters>
            <DistanceMeters>39858.475555537</DistanceMeters>
          </Trackpoint>
          <Trackpoint>
            <Time>2020-09-13T10:25:48.000Z</Time>
            <Position>
              <LatitudeDegrees>41.1456322856247425079345703125</LatitudeDegrees>
              <LongitudeDegrees>-4.43947610445320606231689453125</LongitudeDegrees>
            </Position>
            <AltitudeMeters>816</AltitudeMeters>
            <DistanceMeters>39881.411075439</DistanceMeters>
          </Trackpoint>
          <Trackpoint>
            <Time>2020-09-13T10:25:50.000Z</Time>
            <Position>
              <LatitudeDegrees>41.14563815295696258544921875</LatitudeDegrees>
              <LongitudeDegrees>-4.439608789980411529541015625</LongitudeDegrees>
            </Position>
            <AltitudeMeters>816</AltitudeMeters>
            <DistanceMeters>39892.551513969</DistanceMeters>
          </Trackpoint>
          <Trackpoint>
            <Time>2020-09-13T10:25:57.000Z</Time>
            <Position>
              <LatitudeDegrees>41.145635806024074554443359375</LatitudeDegrees>
              <LongitudeDegrees>-4.44008161313831806182861328125</LongitudeDegrees>
            </Position>
            <AltitudeMeters>816</AltitudeMeters>
            <DistanceMeters>39932.18186945</DistanceMeters>
          </Trackpoint>
          <Trackpoint>
            <Time>2020-09-13T10:25:58.000Z</Time>
            <Position>
              <LatitudeDegrees>41.145632453262805938720703125</LatitudeDegrees>
              <LongitudeDegrees>-4.44014816544950008392333984375</LongitudeDegrees>
            </Position>
            <AltitudeMeters>816</AltitudeMeters>
            <DistanceMeters>39937.773123751</DistanceMeters>
          </Trackpoint>
          <Trackpoint>
            <Time>2020-09-13T10:25:59.000Z</Time>
            <Position>
              <LatitudeDegrees>41.14562884904444217681884765625</LatitudeDegrees>
              <LongitudeDegrees>-4.44021404720842838287353515625</LongitudeDegrees>
            </Position>
            <AltitudeMeters>816</AltitudeMeters>
            <DistanceMeters>39943.30919451</DistanceMeters>
          </Trackpoint>
          <Trackpoint>
            <Time>2020-09-13T10:26:10.000Z</Time>
            <Position>
              <LatitudeDegrees>41.14555458538234233856201171875</LatitudeDegrees>
              <LongitudeDegrees>-4.44095349870622158050537109375</LongitudeDegrees>
            </Position>
            <AltitudeMeters>819</AltitudeMeters>
            <DistanceMeters>40005.835039531</DistanceMeters>
          </Trackpoint>
          <Trackpoint>
            <Time>2020-09-13T10:26:21.000Z</Time>
            <Position>
              <LatitudeDegrees>41.14542952738702297210693359375</LatitudeDegrees>
              <LongitudeDegrees>-4.4417040981352329254150390625</LongitudeDegrees>
            </Position>
            <AltitudeMeters>819.79998779296875</AltitudeMeters>
            <DistanceMeters>40070.268057197</DistanceMeters>
          </Trackpoint>
          <Trackpoint>
            <Time>2020-09-13T10:26:23.000Z</Time>
            <Position>
              <LatitudeDegrees>41.14540924318134784698486328125</LatitudeDegrees>
              <LongitudeDegrees>-4.44181297905743122100830078125</LongitudeDegrees>
            </Position>
            <AltitudeMeters>819.79998779296875</AltitudeMeters>
            <DistanceMeters>40079.669460721</DistanceMeters>
          </Trackpoint>
          <Trackpoint>
            <Time>2020-09-13T10:26:34.000Z</Time>
            <Position>
              <LatitudeDegrees>41.14527865312993526458740234375</LatitudeDegrees>
              <LongitudeDegrees>-4.442520327866077423095703125</LongitudeDegrees>
            </Position>
            <AltitudeMeters>818.4000244140625</AltitudeMeters>
            <DistanceMeters>40140.711681223</DistanceMeters>
          </Trackpoint>
          <Trackpoint>
            <Time>2020-09-13T10:26:35.000Z</Time>
            <Position>
              <LatitudeDegrees>41.14526943303644657135009765625</LatitudeDegrees>
              <LongitudeDegrees>-4.4425697810947895050048828125</LongitudeDegrees>
            </Position>
            <AltitudeMeters>818.20001220703125</AltitudeMeters>
            <DistanceMeters>40144.982600844</DistanceMeters>
          </Trackpoint>
          <Trackpoint>
            <Time>2020-09-13T10:26:42.000Z</Time>
            <Position>
              <LatitudeDegrees>41.14517815411090850830078125</LatitudeDegrees>
              <LongitudeDegrees>-4.4430036284029483795166015625</LongitudeDegrees>
            </Position>
            <AltitudeMeters>818.20001220703125</AltitudeMeters>
            <DistanceMeters>40182.73823443</DistanceMeters>
          </Trackpoint>
          <Trackpoint>
            <Time>2020-09-13T10:26:47.000Z</Time>
            <Position>
              <LatitudeDegrees>41.145106740295886993408203125</LatitudeDegrees>
              <LongitudeDegrees>-4.44332071579992771148681640625</LongitudeDegrees>
            </Position>
            <AltitudeMeters>819.20001220703125</AltitudeMeters>
            <DistanceMeters>40210.477897984</DistanceMeters>
          </Trackpoint>
          <Trackpoint>
            <Time>2020-09-13T10:26:52.000Z</Time>
            <Position>
              <LatitudeDegrees>41.145041026175022125244140625</LatitudeDegrees>
              <LongitudeDegrees>-4.44360637106001377105712890625</LongitudeDegrees>
            </Position>
            <AltitudeMeters>820.20001220703125</AltitudeMeters>
            <DistanceMeters>40235.512342766</DistanceMeters>
          </Trackpoint>
          <Trackpoint>
            <Time>2020-09-13T10:26:58.000Z</Time>
            <Position>
              <LatitudeDegrees>41.14496952854096889495849609375</LatitudeDegrees>
              <LongitudeDegrees>-4.44398607127368450164794921875</LongitudeDegrees>
            </Position>
            <AltitudeMeters>819</AltitudeMeters>
            <DistanceMeters>40268.316797798</DistanceMeters>
          </Trackpoint>
          <Trackpoint>
            <Time>2020-09-13T10:27:01.000Z</Time>
            <Position>
              <LatitudeDegrees>41.1449442990124225616455078125</LatitudeDegrees>
              <LongitudeDegrees>-4.44417784921824932098388671875</LongitudeDegrees>
            </Position>
            <AltitudeMeters>818.4000244140625</AltitudeMeters>
            <DistanceMeters>40284.634298649</DistanceMeters>
          </Trackpoint>
          <Trackpoint>
            <Time>2020-09-13T10:27:08.000Z</Time>
            <Position>
              <LatitudeDegrees>41.14491102285683155059814453125</LatitudeDegrees>
              <LongitudeDegrees>-4.44463768042623996734619140625</LongitudeDegrees>
            </Position>
            <AltitudeMeters>817</AltitudeMeters>
            <DistanceMeters>40323.352991434</DistanceMeters>
          </Trackpoint>
          <Trackpoint>
            <Time>2020-09-13T10:27:11.000Z</Time>
            <Position>
              <LatitudeDegrees>41.1449111066758632659912109375</LatitudeDegrees>
              <LongitudeDegrees>-4.44482342340052127838134765625</LongitudeDegrees>
            </Position>
            <AltitudeMeters>816.5999755859375</AltitudeMeters>
            <DistanceMeters>40338.921140063</DistanceMeters>
          </Trackpoint>
          <Trackpoint>
            <Time>2020-09-13T10:27:17.000Z</Time>
            <Position>
              <LatitudeDegrees>41.1449389345943927764892578125</LatitudeDegrees>
              <LongitudeDegrees>-4.44522709585726261138916015625</LongitudeDegrees>
            </Position>
            <AltitudeMeters>815.4000244140625</AltitudeMeters>
            <DistanceMeters>40372.896612569</DistanceMeters>
          </Trackpoint>
          <Trackpoint>
            <Time>2020-09-13T10:27:18.000Z</Time>
            <Position>
              <LatitudeDegrees>41.14495125599205493927001953125</LatitudeDegrees>
              <LongitudeDegrees>-4.4453049637377262115478515625</LongitudeDegrees>
            </Position>
            <AltitudeMeters>815</AltitudeMeters>
            <DistanceMeters>40379.566107045</DistanceMeters>
          </Trackpoint>
          <Trackpoint>
            <Time>2020-09-13T10:27:20.000Z</Time>
            <Position>
              <LatitudeDegrees>41.144967265427112579345703125</LatitudeDegrees>
              <LongitudeDegrees>-4.445420801639556884765625</LongitudeDegrees>
            </Position>
            <AltitudeMeters>815.20001220703125</AltitudeMeters>
            <DistanceMeters>40389.436999853</DistanceMeters>
          </Trackpoint>
          <Trackpoint>
            <Time>2020-09-13T10:27:22.000Z</Time>
            <Position>
              <LatitudeDegrees>41.144986711442470550537109375</LatitudeDegrees>
              <LongitudeDegrees>-4.445554912090301513671875</LongitudeDegrees>
            </Position>
            <AltitudeMeters>815.5999755859375</AltitudeMeters>
            <DistanceMeters>40400.884465483</DistanceMeters>
          </Trackpoint>
          <Trackpoint>
            <Time>2020-09-13T10:27:23.000Z</Time>
            <Position>
              <LatitudeDegrees>41.144999451935291290283203125</LatitudeDegrees>
              <LongitudeDegrees>-4.44561995565891265869140625</LongitudeDegrees>
            </Position>
            <AltitudeMeters>815.79998779296875</AltitudeMeters>
            <DistanceMeters>40406.517554212</DistanceMeters>
          </Trackpoint>
          <Trackpoint>
            <Time>2020-09-13T10:27:25.000Z</Time>
            <Position>
              <LatitudeDegrees>41.14502795040607452392578125</LatitudeDegrees>
              <LongitudeDegrees>-4.44575079716742038726806640625</LongitudeDegrees>
            </Position>
            <AltitudeMeters>816</AltitudeMeters>
            <DistanceMeters>40417.933423133</DistanceMeters>
          </Trackpoint>
          <Trackpoint>
            <Time>2020-09-13T10:27:27.000Z</Time>
            <Position>
              <LatitudeDegrees>41.14505477249622344970703125</LatitudeDegrees>
              <LongitudeDegrees>-4.4458806328475475311279296875</LongitudeDegrees>
            </Position>
            <AltitudeMeters>816.4000244140625</AltitudeMeters>
            <DistanceMeters>40429.218020513</DistanceMeters>
          </Trackpoint>
          <Trackpoint>
            <Time>2020-09-13T10:27:28.000Z</Time>
            <Position>
              <LatitudeDegrees>41.14506818354129791259765625</LatitudeDegrees>
              <LongitudeDegrees>-4.44594475440680980682373046875</LongitudeDegrees>
            </Position>
            <AltitudeMeters>816</AltitudeMeters>
            <DistanceMeters>40434.796339563</DistanceMeters>
          </Trackpoint>
          <Trackpoint>
            <Time>2020-09-13T10:27:29.000Z</Time>
            <Position>
              <LatitudeDegrees>41.1450824327766895294189453125</LatitudeDegrees>
              <LongitudeDegrees>-4.4460095465183258056640625</LongitudeDegrees>
            </Position>
            <AltitudeMeters>815.79998779296875</AltitudeMeters>
            <DistanceMeters>40440.455018832</DistanceMeters>
          </Trackpoint>
          <Trackpoint>
            <Time>2020-09-13T10:27:30.000Z</Time>
            <Position>
              <LatitudeDegrees>41.14509760402143001556396484375</LatitudeDegrees>
              <LongitudeDegrees>-4.4460727460682392120361328125</LongitudeDegrees>
            </Position>
            <AltitudeMeters>815.5999755859375</AltitudeMeters>
            <DistanceMeters>40446.015502781</DistanceMeters>
          </Trackpoint>
          <Trackpoint>
            <Time>2020-09-13T10:27:34.000Z</Time>
            <Position>
              <LatitudeDegrees>41.1451571993529796600341796875</LatitudeDegrees>
              <LongitudeDegrees>-4.44633132778108119964599609375</LongitudeDegrees>
            </Position>
            <AltitudeMeters>815.20001220703125</AltitudeMeters>
            <DistanceMeters>40468.680918041</DistanceMeters>
          </Trackpoint>
          <Trackpoint>
            <Time>2020-09-13T10:27:38.000Z</Time>
            <Position>
              <LatitudeDegrees>41.14522484131157398223876953125</LatitudeDegrees>
              <LongitudeDegrees>-4.4465889036655426025390625</LongitudeDegrees>
            </Position>
            <AltitudeMeters>814.79998779296875</AltitudeMeters>
            <DistanceMeters>40491.544669381</DistanceMeters>
          </Trackpoint>
          <Trackpoint>
            <Time>2020-09-13T10:27:40.000Z</Time>
            <Position>
              <LatitudeDegrees>41.1452571116387844085693359375</LatitudeDegrees>
              <LongitudeDegrees>-4.446715302765369415283203125</LongitudeDegrees>
            </Position>
            <AltitudeMeters>814.4000244140625</AltitudeMeters>
            <DistanceMeters>40502.731214842</DistanceMeters>
          </Trackpoint>
          <Trackpoint>
            <Time>2020-09-13T10:27:41.000Z</Time>
            <Position>
              <LatitudeDegrees>41.14527379162609577178955078125</LatitudeDegrees>
              <LongitudeDegrees>-4.44677758030593395233154296875</LongitudeDegrees>
            </Position>
            <AltitudeMeters>814.20001220703125</AltitudeMeters>
            <DistanceMeters>40508.271361937</DistanceMeters>
          </Trackpoint>
          <Trackpoint>
            <Time>2020-09-13T10:27:44.000Z</Time>
            <Position>
              <LatitudeDegrees>41.14531955681741237640380859375</LatitudeDegrees>
              <LongitudeDegrees>-4.44698528386652469635009765625</LongitudeDegrees>
            </Position>
            <AltitudeMeters>813.79998779296875</AltitudeMeters>
            <DistanceMeters>40526.410017765</DistanceMeters>
          </Trackpoint>
          <Trackpoint>
            <Time>2020-09-13T10:27:46.000Z</Time>
            <Position>
              <LatitudeDegrees>41.145346798002719879150390625</LatitudeDegrees>
              <LongitudeDegrees>-4.44712224416434764862060546875</LongitudeDegrees>
            </Position>
            <AltitudeMeters>813.5999755859375</AltitudeMeters>
            <DistanceMeters>40538.283414643</DistanceMeters>
          </Trackpoint>
          <Trackpoint>
            <Time>2020-09-13T10:27:50.000Z</Time>
            <Position>
              <LatitudeDegrees>41.1454116739332675933837890625</LatitudeDegrees>
              <LongitudeDegrees>-4.44739230908453464508056640625</LongitudeDegrees>
            </Position>
            <AltitudeMeters>814</AltitudeMeters>
            <DistanceMeters>40562.042753835</DistanceMeters>
          </Trackpoint>
          <Trackpoint>
            <Time>2020-09-13T10:27:52.000Z</Time>
            <Position>
              <LatitudeDegrees>41.1454348079860210418701171875</LatitudeDegrees>
              <LongitudeDegrees>-4.44751954637467861175537109375</LongitudeDegrees>
            </Position>
            <AltitudeMeters>814.4000244140625</AltitudeMeters>
            <DistanceMeters>40573.013298892</DistanceMeters>
          </Trackpoint>
          <Trackpoint>
            <Time>2020-09-13T10:27:57.000Z</Time>
            <Position>
              <LatitudeDegrees>41.145509071648120880126953125</LatitudeDegrees>
              <LongitudeDegrees>-4.44785155355930328369140625</LongitudeDegrees>
            </Position>
            <AltitudeMeters>815.20001220703125</AltitudeMeters>
            <DistanceMeters>40602.042210406</DistanceMeters>
          </Trackpoint>
          <Trackpoint>
            <Time>2020-09-13T10:27:59.000Z</Time>
            <Position>
              <LatitudeDegrees>41.1455410905182361602783203125</LatitudeDegrees>
              <LongitudeDegrees>-4.44798432290554046630859375</LongitudeDegrees>
            </Position>
            <AltitudeMeters>815.20001220703125</AltitudeMeters>
            <DistanceMeters>40613.72663276</DistanceMeters>
          </Trackpoint>
          <Trackpoint>
            <Time>2020-09-13T10:28:00.000Z</Time>
            <Position>
              <LatitudeDegrees>41.1455581896007061004638671875</LatitudeDegrees>
              <LongitudeDegrees>-4.44805213250219821929931640625</LongitudeDegrees>
            </Position>
            <AltitudeMeters>815.4000244140625</AltitudeMeters>
            <DistanceMeters>40619.720099544</DistanceMeters>
          </Trackpoint>
          <Trackpoint>
            <Time>2020-09-13T10:28:07.000Z</Time>
            <Position>
              <LatitudeDegrees>41.14567570388317108154296875</LatitudeDegrees>
              <LongitudeDegrees>-4.44852202199399471282958984375</LongitudeDegrees>
            </Position>
            <AltitudeMeters>816</AltitudeMeters>
            <DistanceMeters>40661.219039277</DistanceMeters>
          </Trackpoint>
          <Trackpoint>
            <Time>2020-09-13T10:28:12.000Z</Time>
            <Position>
              <LatitudeDegrees>41.145747117698192596435546875</LatitudeDegrees>
              <LongitudeDegrees>-4.448837935924530029296875</LongitudeDegrees>
            </Position>
            <AltitudeMeters>816.20001220703125</AltitudeMeters>
            <DistanceMeters>40688.864628075</DistanceMeters>
          </Trackpoint>
          <Trackpoint>
            <Time>2020-09-13T10:28:22.000Z</Time>
            <Position>
              <LatitudeDegrees>41.14589656703174114227294921875</LatitudeDegrees>
              <LongitudeDegrees>-4.4495146907866001129150390625</LongitudeDegrees>
            </Position>
            <AltitudeMeters>816</AltitudeMeters>
            <DistanceMeters>40747.975369223</DistanceMeters>
          </Trackpoint>
          <Trackpoint>
            <Time>2020-09-13T10:28:33.000Z</Time>
            <Position>
              <LatitudeDegrees>41.14607526920735836029052734375</LatitudeDegrees>
              <LongitudeDegrees>-4.45025171153247356414794921875</LongitudeDegrees>
            </Position>
            <AltitudeMeters>813.4000244140625</AltitudeMeters>
            <DistanceMeters>40812.871449478</DistanceMeters>
          </Trackpoint>
          <Trackpoint>
            <Time>2020-09-13T10:28:34.000Z</Time>
            <Position>
              <LatitudeDegrees>41.1460896022617816925048828125</LatitudeDegrees>
              <LongitudeDegrees>-4.45032161660492420196533203125</LongitudeDegrees>
            </Position>
            <AltitudeMeters>813.20001220703125</AltitudeMeters>
            <DistanceMeters>40818.944243909</DistanceMeters>
          </Trackpoint>
          <Trackpoint>
            <Time>2020-09-13T10:28:45.000Z</Time>
            <Position>
              <LatitudeDegrees>41.14625715650618076324462890625</LatitudeDegrees>
              <LongitudeDegrees>-4.451057799160480499267578125</LongitudeDegrees>
            </Position>
            <AltitudeMeters>812</AltitudeMeters>
            <DistanceMeters>40883.403463684</DistanceMeters>
          </Trackpoint>
          <Trackpoint>
            <Time>2020-09-13T10:28:49.000Z</Time>
            <Position>
              <LatitudeDegrees>41.14631465636193752288818359375</LatitudeDegrees>
              <LongitudeDegrees>-4.45134286768734455108642578125</LongitudeDegrees>
            </Position>
            <AltitudeMeters>812.20001220703125</AltitudeMeters>
            <DistanceMeters>40908.138535937</DistanceMeters>
          </Trackpoint>
          <Trackpoint>
            <Time>2020-09-13T10:29:00.000Z</Time>
            <Position>
              <LatitudeDegrees>41.14645631052553653717041015625</LatitudeDegrees>
              <LongitudeDegrees>-4.4520939700305461883544921875</LongitudeDegrees>
            </Position>
            <AltitudeMeters>815.4000244140625</AltitudeMeters>
            <DistanceMeters>40973.035590212</DistanceMeters>
          </Trackpoint>
          <Trackpoint>
            <Time>2020-09-13T10:29:03.000Z</Time>
            <Position>
              <LatitudeDegrees>41.14650106988847255706787109375</LatitudeDegrees>
              <LongitudeDegrees>-4.452305696904659271240234375</LongitudeDegrees>
            </Position>
            <AltitudeMeters>814.4000244140625</AltitudeMeters>
            <DistanceMeters>40991.467343682</DistanceMeters>
          </Trackpoint>
          <Trackpoint>
            <Time>2020-09-13T10:29:10.000Z</Time>
            <Position>
              <LatitudeDegrees>41.14659461192786693572998046875</LatitudeDegrees>
              <LongitudeDegrees>-4.45277667604386806488037109375</LongitudeDegrees>
            </Position>
            <AltitudeMeters>812.20001220703125</AltitudeMeters>
            <DistanceMeters>41032.291687263</DistanceMeters>
          </Trackpoint>
          <Trackpoint>
            <Time>2020-09-13T10:29:17.000Z</Time>
            <Position>
              <LatitudeDegrees>41.14667759276926517486572265625</LatitudeDegrees>
              <LongitudeDegrees>-4.45325192995369434356689453125</LongitudeDegrees>
            </Position>
            <AltitudeMeters>812.5999755859375</AltitudeMeters>
            <DistanceMeters>41073.181230839</DistanceMeters>
          </Trackpoint>
          <Trackpoint>
            <Time>2020-09-13T10:29:28.000Z</Time>
            <Position>
              <LatitudeDegrees>41.1468064226210117340087890625</LatitudeDegrees>
              <LongitudeDegrees>-4.454009234905242919921875</LongitudeDegrees>
            </Position>
            <AltitudeMeters>810.4000244140625</AltitudeMeters>
            <DistanceMeters>41138.253093621</DistanceMeters>
          </Trackpoint>
          <Trackpoint>
            <Time>2020-09-13T10:29:31.000Z</Time>
            <Position>
              <LatitudeDegrees>41.1468449793756008148193359375</LatitudeDegrees>
              <LongitudeDegrees>-4.45421366952359676361083984375</LongitudeDegrees>
            </Position>
            <AltitudeMeters>809.79998779296875</AltitudeMeters>
            <DistanceMeters>41155.916819198</DistanceMeters>
          </Trackpoint>
          <Trackpoint>
            <Time>2020-09-13T10:29:41.000Z</Time>
            <Position>
              <LatitudeDegrees>41.14699057303369045257568359375</LatitudeDegrees>
              <LongitudeDegrees>-4.4549091160297393798828125</LongitudeDegrees>
            </Position>
            <AltitudeMeters>809.5999755859375</AltitudeMeters>
            <DistanceMeters>41216.415112514</DistanceMeters>
          </Trackpoint>
          <Trackpoint>
            <Time>2020-09-13T10:29:45.000Z</Time>
            <Position>
              <LatitudeDegrees>41.1470598913729190826416015625</LatitudeDegrees>
              <LongitudeDegrees>-4.45519133470952510833740234375</LongitudeDegrees>
            </Position>
            <AltitudeMeters>809</AltitudeMeters>
            <DistanceMeters>41241.295240534</DistanceMeters>
          </Trackpoint>
          <Trackpoint>
            <Time>2020-09-13T10:29:56.000Z</Time>
            <Position>
              <LatitudeDegrees>41.1472642421722412109375</LatitudeDegrees>
              <LongitudeDegrees>-4.45592575706541538238525390625</LongitudeDegrees>
            </Position>
            <AltitudeMeters>807.20001220703125</AltitudeMeters>
            <DistanceMeters>41306.917018202</DistanceMeters>
          </Trackpoint>
          <Trackpoint>
            <Time>2020-09-13T10:29:58.000Z</Time>
            <Position>
              <LatitudeDegrees>41.14730321802198886871337890625</LatitudeDegrees>
              <LongitudeDegrees>-4.45606087334454059600830078125</LongitudeDegrees>
            </Position>
            <AltitudeMeters>807</AltitudeMeters>
            <DistanceMeters>41319.044005666</DistanceMeters>
          </Trackpoint>
          <Trackpoint>
            <Time>2020-09-13T10:30:00.000Z</Time>
            <Position>
              <LatitudeDegrees>41.147341690957546234130859375</LatitudeDegrees>
              <LongitudeDegrees>-4.45619548670947551727294921875</LongitudeDegrees>
            </Position>
            <AltitudeMeters>807</AltitudeMeters>
            <DistanceMeters>41331.112024265</DistanceMeters>
          </Trackpoint>
          <Trackpoint>
            <Time>2020-09-13T10:30:02.000Z</Time>
            <Position>
              <LatitudeDegrees>41.1473773978650569915771484375</LatitudeDegrees>
              <LongitudeDegrees>-4.4563281722366809844970703125</LongitudeDegrees>
            </Position>
            <AltitudeMeters>806.79998779296875</AltitudeMeters>
            <DistanceMeters>41342.921363814</DistanceMeters>
          </Trackpoint>
          <Trackpoint>
            <Time>2020-09-13T10:30:08.000Z</Time>
            <Position>
              <LatitudeDegrees>41.1474962532520294189453125</LatitudeDegrees>
              <LongitudeDegrees>-4.45674282498657703399658203125</LongitudeDegrees>
            </Position>
            <AltitudeMeters>806.20001220703125</AltitudeMeters>
            <DistanceMeters>41380.107176108</DistanceMeters>
          </Trackpoint>
          <Trackpoint>
            <Time>2020-09-13T10:30:12.000Z</Time>
            <Position>
              <LatitudeDegrees>41.14757428877055644989013671875</LatitudeDegrees>
              <LongitudeDegrees>-4.45701775141060352325439453125</LongitudeDegrees>
            </Position>
            <AltitudeMeters>806.5999755859375</AltitudeMeters>
            <DistanceMeters>41404.732116582</DistanceMeters>
          </Trackpoint>
          <Trackpoint>
            <Time>2020-09-13T10:30:15.000Z</Time>
            <Position>
              <LatitudeDegrees>41.1476291902363300323486328125</LatitudeDegrees>
              <LongitudeDegrees>-4.4572304002940654754638671875</LongitudeDegrees>
            </Position>
            <AltitudeMeters>808.20001220703125</AltitudeMeters>
            <DistanceMeters>41423.57330458</DistanceMeters>
          </Trackpoint>
          <Trackpoint>
            <Time>2020-09-13T10:30:17.000Z</Time>
            <Position>
              <LatitudeDegrees>41.14766095764935016632080078125</LatitudeDegrees>
              <LongitudeDegrees>-4.457373060286045074462890625</LongitudeDegrees>
            </Position>
            <AltitudeMeters>809.20001220703125</AltitudeMeters>
            <DistanceMeters>41436.042098673</DistanceMeters>
          </Trackpoint>
          <Trackpoint>
            <Time>2020-09-13T10:30:18.000Z</Time>
            <Position>
              <LatitudeDegrees>41.147676967084407806396484375</LatitudeDegrees>
              <LongitudeDegrees>-4.457443468272686004638671875</LongitudeDegrees>
            </Position>
            <AltitudeMeters>809.5999755859375</AltitudeMeters>
            <DistanceMeters>41442.205663518</DistanceMeters>
          </Trackpoint>
          <Trackpoint>
            <Time>2020-09-13T10:30:22.000Z</Time>
            <Position>
              <LatitudeDegrees>41.1477200500667095184326171875</LatitudeDegrees>
              <LongitudeDegrees>-4.4577108509838581085205078125</LongitudeDegrees>
            </Position>
            <AltitudeMeters>810.20001220703125</AltitudeMeters>
            <DistanceMeters>41465.122868323</DistanceMeters>
          </Trackpoint>
          <Trackpoint>
            <Time>2020-09-13T10:30:32.000Z</Time>
            <Position>
              <LatitudeDegrees>41.14778098650276660919189453125</LatitudeDegrees>
              <LongitudeDegrees>-4.4584179483354091644287109375</LongitudeDegrees>
            </Position>
            <AltitudeMeters>812.79998779296875</AltitudeMeters>
            <DistanceMeters>41524.773007312</DistanceMeters>
          </Trackpoint>
          <Trackpoint>
            <Time>2020-09-13T10:30:41.000Z</Time>
            <Position>
              <LatitudeDegrees>41.147808730602264404296875</LatitudeDegrees>
              <LongitudeDegrees>-4.45904969237744808197021484375</LongitudeDegrees>
            </Position>
            <AltitudeMeters>815.20001220703125</AltitudeMeters>
            <DistanceMeters>41577.810855058</DistanceMeters>
          </Trackpoint>
          <Trackpoint>
            <Time>2020-09-13T10:30:44.000Z</Time>
            <Position>
              <LatitudeDegrees>41.14782658405601978302001953125</LatitudeDegrees>
              <LongitudeDegrees>-4.4592725671827793121337890625</LongitudeDegrees>
            </Position>
            <AltitudeMeters>815.4000244140625</AltitudeMeters>
            <DistanceMeters>41596.595644042</DistanceMeters>
          </Trackpoint>
          <Trackpoint>
            <Time>2020-09-13T10:30:45.000Z</Time>
            <Position>
              <LatitudeDegrees>41.14783278666436672210693359375</LatitudeDegrees>
              <LongitudeDegrees>-4.45934481918811798095703125</LongitudeDegrees>
            </Position>
            <AltitudeMeters>815.4000244140625</AltitudeMeters>
            <DistanceMeters>41602.689961429</DistanceMeters>
          </Trackpoint>
          <Trackpoint>
            <Time>2020-09-13T10:30:46.000Z</Time>
            <Position>
              <LatitudeDegrees>41.1478422582149505615234375</LatitudeDegrees>
              <LongitudeDegrees>-4.459416233003139495849609375</LongitudeDegrees>
            </Position>
            <AltitudeMeters>815.5999755859375</AltitudeMeters>
            <DistanceMeters>41608.767215139</DistanceMeters>
          </Trackpoint>
          <Trackpoint>
            <Time>2020-09-13T10:30:47.000Z</Time>
            <Position>
              <LatitudeDegrees>41.14784720353782176971435546875</LatitudeDegrees>
              <LongitudeDegrees>-4.45948697626590728759765625</LongitudeDegrees>
            </Position>
            <AltitudeMeters>815.5999755859375</AltitudeMeters>
            <DistanceMeters>41614.721380078</DistanceMeters>
          </Trackpoint>
          <Trackpoint>
            <Time>2020-09-13T10:30:48.000Z</Time>
            <Position>
              <LatitudeDegrees>41.1478521488606929779052734375</LatitudeDegrees>
              <LongitudeDegrees>-4.45955797098577022552490234375</LongitudeDegrees>
            </Position>
            <AltitudeMeters>815.5999755859375</AltitudeMeters>
            <DistanceMeters>41620.696739671</DistanceMeters>
          </Trackpoint>
          <Trackpoint>
            <Time>2020-09-13T10:30:49.000Z</Time>
            <Position>
              <LatitudeDegrees>41.14785843528807163238525390625</LatitudeDegrees>
              <LongitudeDegrees>-4.45962636731564998626708984375</LongitudeDegrees>
            </Position>
            <AltitudeMeters>815.4000244140625</AltitudeMeters>
            <DistanceMeters>41626.471518654</DistanceMeters>
          </Trackpoint>
          <Trackpoint>
            <Time>2020-09-13T10:30:53.000Z</Time>
            <Position>
              <LatitudeDegrees>41.1478900350630283355712890625</LatitudeDegrees>
              <LongitudeDegrees>-4.459910094738006591796875</LongitudeDegrees>
            </Position>
            <AltitudeMeters>814.4000244140625</AltitudeMeters>
            <DistanceMeters>41650.510084581</DistanceMeters>
          </Trackpoint>
          <Trackpoint>
            <Time>2020-09-13T10:30:57.000Z</Time>
            <Position>
              <LatitudeDegrees>41.14793680608272552490234375</LatitudeDegrees>
              <LongitudeDegrees>-4.46018435060977935791015625</LongitudeDegrees>
            </Position>
            <AltitudeMeters>813.5999755859375</AltitudeMeters>
            <DistanceMeters>41674.078050809</DistanceMeters>
          </Trackpoint>
          <Trackpoint>
            <Time>2020-09-13T10:30:59.000Z</Time>
            <Position>
              <LatitudeDegrees>41.14795750938355922698974609375</LatitudeDegrees>
              <LongitudeDegrees>-4.4603271782398223876953125</LongitudeDegrees>
            </Position>
            <AltitudeMeters>813</AltitudeMeters>
            <DistanceMeters>41686.268167214</DistanceMeters>
          </Trackpoint>
          <Trackpoint>
            <Time>2020-09-13T10:31:00.000Z</Time>
            <Position>
              <LatitudeDegrees>41.14797159098088741302490234375</LatitudeDegrees>
              <LongitudeDegrees>-4.46039750240743160247802734375</LongitudeDegrees>
            </Position>
            <AltitudeMeters>813.20001220703125</AltitudeMeters>
            <DistanceMeters>41692.366928143</DistanceMeters>
          </Trackpoint>
          <Trackpoint>
            <Time>2020-09-13T10:31:01.000Z</Time>
            <Position>
              <LatitudeDegrees>41.14798667840659618377685546875</LatitudeDegrees>
              <LongitudeDegrees>-4.46046690456569194793701171875</LongitudeDegrees>
            </Position>
            <AltitudeMeters>813.4000244140625</AltitudeMeters>
            <DistanceMeters>41698.421852615</DistanceMeters>
          </Trackpoint>
          <Trackpoint>
            <Time>2020-09-13T10:31:02.000Z</Time>
            <Position>
              <LatitudeDegrees>41.1480043642222881317138671875</LatitudeDegrees>
              <LongitudeDegrees>-4.460535384714603424072265625</LongitudeDegrees>
            </Position>
            <AltitudeMeters>813.5999755859375</AltitudeMeters>
            <DistanceMeters>41704.488696242</DistanceMeters>
          </Trackpoint>
          <Trackpoint>
            <Time>2020-09-13T10:31:03.000Z</Time>
            <Position>
              <LatitudeDegrees>41.14802070893347263336181640625</LatitudeDegrees>
              <LongitudeDegrees>-4.460603110492229461669921875</LongitudeDegrees>
            </Position>
            <AltitudeMeters>813.79998779296875</AltitudeMeters>
            <DistanceMeters>41710.448924486</DistanceMeters>
          </Trackpoint>
          <Trackpoint>
            <Time>2020-09-13T10:31:04.000Z</Time>
            <Position>
              <LatitudeDegrees>41.14803738892078399658203125</LatitudeDegrees>
              <LongitudeDegrees>-4.46066957898437976837158203125</LongitudeDegrees>
            </Position>
            <AltitudeMeters>814.20001220703125</AltitudeMeters>
            <DistanceMeters>41716.320622015</DistanceMeters>
          </Trackpoint>
          <Trackpoint>
            <Time>2020-09-13T10:31:05.000Z</Time>
            <Position>
              <LatitudeDegrees>41.14805758930742740631103515625</LatitudeDegrees>
              <LongitudeDegrees>-4.460741579532623291015625</LongitudeDegrees>
            </Position>
            <AltitudeMeters>814.4000244140625</AltitudeMeters>
            <DistanceMeters>41722.760040547</DistanceMeters>
          </Trackpoint>
          <Trackpoint>
            <Time>2020-09-13T10:31:06.000Z</Time>
            <Position>
              <LatitudeDegrees>41.14807602949440479278564453125</LatitudeDegrees>
              <LongitudeDegrees>-4.4608124904334545135498046875</LongitudeDegrees>
            </Position>
            <AltitudeMeters>814.79998779296875</AltitudeMeters>
            <DistanceMeters>41729.046903405</DistanceMeters>
          </Trackpoint>
          <Trackpoint>
            <Time>2020-09-13T10:31:07.000Z</Time>
            <Position>
              <LatitudeDegrees>41.14809514023363590240478515625</LatitudeDegrees>
              <LongitudeDegrees>-4.46088314987719058990478515625</LongitudeDegrees>
            </Position>
            <AltitudeMeters>815</AltitudeMeters>
            <DistanceMeters>41735.340226476</DistanceMeters>
          </Trackpoint>
          <Trackpoint>
            <Time>2020-09-13T10:31:08.000Z</Time>
            <Position>
              <LatitudeDegrees>41.1481146700680255889892578125</LatitudeDegrees>
              <LongitudeDegrees>-4.460949786007404327392578125</LongitudeDegrees>
            </Position>
            <AltitudeMeters>815.20001220703125</AltitudeMeters>
            <DistanceMeters>41741.332939886</DistanceMeters>
          </Trackpoint>
          <Trackpoint>
            <Time>2020-09-13T10:31:10.000Z</Time>
            <Position>
              <LatitudeDegrees>41.14814979024231433868408203125</LatitudeDegrees>
              <LongitudeDegrees>-4.46107727475464344024658203125</LongitudeDegrees>
            </Position>
            <AltitudeMeters>815.5999755859375</AltitudeMeters>
            <DistanceMeters>41752.710776935</DistanceMeters>
          </Trackpoint>
          <Trackpoint>
            <Time>2020-09-13T10:31:13.000Z</Time>
            <Position>
              <LatitudeDegrees>41.14820142276585102081298828125</LatitudeDegrees>
              <LongitudeDegrees>-4.46126569993793964385986328125</LongitudeDegrees>
            </Position>
            <AltitudeMeters>815.4000244140625</AltitudeMeters>
            <DistanceMeters>41769.516272193</DistanceMeters>
          </Trackpoint>
          <Trackpoint>
            <Time>2020-09-13T10:31:14.000Z</Time>
            <Position>
              <LatitudeDegrees>41.148220784962177276611328125</LatitudeDegrees>
              <LongitudeDegrees>-4.46132554672658443450927734375</LongitudeDegrees>
            </Position>
            <AltitudeMeters>815.4000244140625</AltitudeMeters>
            <DistanceMeters>41774.976795283</DistanceMeters>
          </Trackpoint>
          <Trackpoint>
            <Time>2020-09-13T10:31:15.000Z</Time>
            <Position>
              <LatitudeDegrees>41.1482403986155986785888671875</LatitudeDegrees>
              <LongitudeDegrees>-4.461385644972324371337890625</LongitudeDegrees>
            </Position>
            <AltitudeMeters>815.20001220703125</AltitudeMeters>
            <DistanceMeters>41780.467004311</DistanceMeters>
          </Trackpoint>
          <Trackpoint>
            <Time>2020-09-13T10:31:21.000Z</Time>
            <Position>
              <LatitudeDegrees>41.148369647562503814697265625</LatitudeDegrees>
              <LongitudeDegrees>-4.461775906383991241455078125</LongitudeDegrees>
            </Position>
            <AltitudeMeters>814.4000244140625</AltitudeMeters>
            <DistanceMeters>41816.199323417</DistanceMeters>
          </Trackpoint>
          <Trackpoint>
            <Time>2020-09-13T10:31:27.000Z</Time>
            <Position>
              <LatitudeDegrees>41.148505099117755889892578125</LatitudeDegrees>
              <LongitudeDegrees>-4.46215066127479076385498046875</LongitudeDegrees>
            </Position>
            <AltitudeMeters>813</AltitudeMeters>
            <DistanceMeters>41851.03876594</DistanceMeters>
          </Trackpoint>
          <Trackpoint>
            <Time>2020-09-13T10:31:29.000Z</Time>
            <Position>
              <LatitudeDegrees>41.14855111576616764068603515625</LatitudeDegrees>
              <LongitudeDegrees>-4.46228091605007648468017578125</LongitudeDegrees>
            </Position>
            <AltitudeMeters>812.4000244140625</AltitudeMeters>
            <DistanceMeters>41863.097427598</DistanceMeters>
          </Trackpoint>
          <Trackpoint>
            <Time>2020-09-13T10:31:31.000Z</Time>
            <Position>
              <LatitudeDegrees>41.1485981382429599761962890625</LatitudeDegrees>
              <LongitudeDegrees>-4.4624094106256961822509765625</LongitudeDegrees>
            </Position>
            <AltitudeMeters>812</AltitudeMeters>
            <DistanceMeters>41875.071547765</DistanceMeters>
          </Trackpoint>
          <Trackpoint>
            <Time>2020-09-13T10:31:32.000Z</Time>
            <Position>
              <LatitudeDegrees>41.14861900918185710906982421875</LatitudeDegrees>
              <LongitudeDegrees>-4.4624731130897998809814453125</LongitudeDegrees>
            </Position>
            <AltitudeMeters>812.20001220703125</AltitudeMeters>
            <DistanceMeters>41880.893824551</DistanceMeters>
          </Trackpoint>
          <Trackpoint>
            <Time>2020-09-13T10:31:39.000Z</Time>
            <Position>
              <LatitudeDegrees>41.1487919278442859649658203125</LatitudeDegrees>
              <LongitudeDegrees>-4.462930597364902496337890625</LongitudeDegrees>
            </Position>
            <AltitudeMeters>813.20001220703125</AltitudeMeters>
            <DistanceMeters>41923.79530787</DistanceMeters>
          </Trackpoint>
          <Trackpoint>
            <Time>2020-09-13T10:31:40.000Z</Time>
            <Position>
              <LatitudeDegrees>41.14881581626832485198974609375</LatitudeDegrees>
              <LongitudeDegrees>-4.4629932940006256103515625</LongitudeDegrees>
            </Position>
            <AltitudeMeters>813.20001220703125</AltitudeMeters>
            <DistanceMeters>41929.685431273</DistanceMeters>
          </Trackpoint>
          <Trackpoint>
            <Time>2020-09-13T10:31:45.000Z</Time>
            <Position>
              <LatitudeDegrees>41.1489243619143962860107421875</LatitudeDegrees>
              <LongitudeDegrees>-4.463294036686420440673828125</LongitudeDegrees>
            </Position>
            <AltitudeMeters>813.5999755859375</AltitudeMeters>
            <DistanceMeters>41957.636695714</DistanceMeters>
          </Trackpoint>
          <Trackpoint>
            <Time>2020-09-13T10:31:46.000Z</Time>
            <Position>
              <LatitudeDegrees>41.14894741214811801910400390625</LatitudeDegrees>
              <LongitudeDegrees>-4.46335396729409694671630859375</LongitudeDegrees>
            </Position>
            <AltitudeMeters>813.5999755859375</AltitudeMeters>
            <DistanceMeters>41963.276993518</DistanceMeters>
          </Trackpoint>
          <Trackpoint>
            <Time>2020-09-13T10:31:51.000Z</Time>
            <Position>
              <LatitudeDegrees>41.1490594781935214996337890625</LatitudeDegrees>
              <LongitudeDegrees>-4.46368002332746982574462890625</LongitudeDegrees>
            </Position>
            <AltitudeMeters>813.20001220703125</AltitudeMeters>
            <DistanceMeters>41993.315958525</DistanceMeters>
          </Trackpoint>
          <Trackpoint>
            <Time>2020-09-13T10:31:59.000Z</Time>
            <Position>
              <LatitudeDegrees>41.14926240406930446624755859375</LatitudeDegrees>
              <LongitudeDegrees>-4.46420892141759395599365234375</LongitudeDegrees>
            </Position>
            <AltitudeMeters>810.79998779296875</AltitudeMeters>
            <DistanceMeters>42043.065506586</DistanceMeters>
          </Trackpoint>
          <Trackpoint>
            <Time>2020-09-13T10:32:02.000Z</Time>
            <Position>
              <LatitudeDegrees>41.1493266932666301727294921875</LatitudeDegrees>
              <LongitudeDegrees>-4.4643826782703399658203125</LongitudeDegrees>
            </Position>
            <AltitudeMeters>809.5999755859375</AltitudeMeters>
            <DistanceMeters>42059.291161541</DistanceMeters>
          </Trackpoint>
          <Trackpoint>
            <Time>2020-09-13T10:32:03.000Z</Time>
            <Position>
              <LatitudeDegrees>41.14935033023357391357421875</LatitudeDegrees>
              <LongitudeDegrees>-4.46444143541157245635986328125</LongitudeDegrees>
            </Position>
            <AltitudeMeters>809.20001220703125</AltitudeMeters>
            <DistanceMeters>42064.874334822</DistanceMeters>
          </Trackpoint>
          <Trackpoint>
            <Time>2020-09-13T10:32:04.000Z</Time>
            <Position>
              <LatitudeDegrees>41.14937178790569305419921875</LatitudeDegrees>
              <LongitudeDegrees>-4.4645028747618198394775390625</LongitudeDegrees>
            </Position>
            <AltitudeMeters>809</AltitudeMeters>
            <DistanceMeters>42070.55133604</DistanceMeters>
          </Trackpoint>
          <Trackpoint>
            <Time>2020-09-13T10:32:05.000Z</Time>
            <Position>
              <LatitudeDegrees>41.14939416758716106414794921875</LatitudeDegrees>
              <LongitudeDegrees>-4.464565403759479522705078125</LongitudeDegrees>
            </Position>
            <AltitudeMeters>808.79998779296875</AltitudeMeters>
            <DistanceMeters>42076.353415407</DistanceMeters>
          </Trackpoint>
          <Trackpoint>
            <Time>2020-09-13T10:32:06.000Z</Time>
            <Position>
              <LatitudeDegrees>41.14941579289734363555908203125</LatitudeDegrees>
              <LongitudeDegrees>-4.4646289385855197906494140625</LongitudeDegrees>
            </Position>
            <AltitudeMeters>808.79998779296875</AltitudeMeters>
            <DistanceMeters>42082.196592542</DistanceMeters>
          </Trackpoint>
          <Trackpoint>
            <Time>2020-09-13T10:32:08.000Z</Time>
            <Position>
              <LatitudeDegrees>41.14946239627897739410400390625</LatitudeDegrees>
              <LongitudeDegrees>-4.46475525386631488800048828125</LongitudeDegrees>
            </Position>
            <AltitudeMeters>808.5999755859375</AltitudeMeters>
            <DistanceMeters>42093.986034286</DistanceMeters>
          </Trackpoint>
          <Trackpoint>
            <Time>2020-09-13T10:32:09.000Z</Time>
            <Position>
              <LatitudeDegrees>41.14949089474976062774658203125</LatitudeDegrees>
              <LongitudeDegrees>-4.464832283556461334228515625</LongitudeDegrees>
            </Position>
            <AltitudeMeters>808.79998779296875</AltitudeMeters>
            <DistanceMeters>42101.179249007</DistanceMeters>
          </Trackpoint>
          <Trackpoint>
            <Time>2020-09-13T10:32:10.000Z</Time>
            <Position>
              <LatitudeDegrees>41.14950983785092830657958984375</LatitudeDegrees>
              <LongitudeDegrees>-4.4648830778896808624267578125</LongitudeDegrees>
            </Position>
            <AltitudeMeters>809.20001220703125</AltitudeMeters>
            <DistanceMeters>42105.928683811</DistanceMeters>
          </Trackpoint>
          <Trackpoint>
            <Time>2020-09-13T10:32:11.000Z</Time>
            <Position>
              <LatitudeDegrees>41.1495352350175380706787109375</LatitudeDegrees>
              <LongitudeDegrees>-4.46494787000119686126708984375</LongitudeDegrees>
            </Position>
            <AltitudeMeters>809.5999755859375</AltitudeMeters>
            <DistanceMeters>42112.050351659</DistanceMeters>
          </Trackpoint>
          <Trackpoint>
            <Time>2020-09-13T10:32:12.000Z</Time>
            <Position>
              <LatitudeDegrees>41.14956247620284557342529296875</LatitudeDegrees>
              <LongitudeDegrees>-4.46501433849334716796875</LongitudeDegrees>
            </Position>
            <AltitudeMeters>810</AltitudeMeters>
            <DistanceMeters>42118.392272542</DistanceMeters>
          </Trackpoint>
          <Trackpoint>
            <Time>2020-09-13T10:32:13.000Z</Time>
            <Position>
              <LatitudeDegrees>41.149592734873294830322265625</LatitudeDegrees>
              <LongitudeDegrees>-4.4650932960212230682373046875</LongitudeDegrees>
            </Position>
            <AltitudeMeters>810.5999755859375</AltitudeMeters>
            <DistanceMeters>42125.817745373</DistanceMeters>
          </Trackpoint>
          <Trackpoint>
            <Time>2020-09-13T10:32:14.000Z</Time>
            <Position>
              <LatitudeDegrees>41.14961276762187480926513671875</LatitudeDegrees>
              <LongitudeDegrees>-4.46514886803925037384033203125</LongitudeDegrees>
            </Position>
            <AltitudeMeters>811</AltitudeMeters>
            <DistanceMeters>42130.981640777</DistanceMeters>
          </Trackpoint>
          <Trackpoint>
            <Time>2020-09-13T10:32:15.000Z</Time>
            <Position>
              <LatitudeDegrees>41.14964093081653118133544921875</LatitudeDegrees>
              <LongitudeDegrees>-4.46521340869367122650146484375</LongitudeDegrees>
            </Position>
            <AltitudeMeters>811.4000244140625</AltitudeMeters>
            <DistanceMeters>42137.233214246</DistanceMeters>
          </Trackpoint>
          <Trackpoint>
            <Time>2020-09-13T10:32:16.000Z</Time>
            <Position>
              <LatitudeDegrees>41.14966792054474353790283203125</LatitudeDegrees>
              <LongitudeDegrees>-4.4652785360813140869140625</LongitudeDegrees>
            </Position>
            <AltitudeMeters>811.79998779296875</AltitudeMeters>
            <DistanceMeters>42143.463808009</DistanceMeters>
          </Trackpoint>
          <Trackpoint>
            <Time>2020-09-13T10:32:18.000Z</Time>
            <Position>
              <LatitudeDegrees>41.14972718060016632080078125</LatitudeDegrees>
              <LongitudeDegrees>-4.46540233679115772247314453125</LongitudeDegrees>
            </Position>
            <AltitudeMeters>811.79998779296875</AltitudeMeters>
            <DistanceMeters>42155.75866383</DistanceMeters>
          </Trackpoint>
          <Trackpoint>
            <Time>2020-09-13T10:32:20.000Z</Time>
            <Position>
              <LatitudeDegrees>41.149788200855255126953125</LatitudeDegrees>
              <LongitudeDegrees>-4.46552236564457416534423828125</LongitudeDegrees>
            </Position>
            <AltitudeMeters>811.79998779296875</AltitudeMeters>
            <DistanceMeters>42167.896071589</DistanceMeters>
          </Trackpoint>
          <Trackpoint>
            <Time>2020-09-13T10:32:22.000Z</Time>
            <Position>
              <LatitudeDegrees>41.14985349588096141815185546875</LatitudeDegrees>
              <LongitudeDegrees>-4.465643651783466339111328125</LongitudeDegrees>
            </Position>
            <AltitudeMeters>811.79998779296875</AltitudeMeters>
            <DistanceMeters>42180.391994199</DistanceMeters>
          </Trackpoint>
          <Trackpoint>
            <Time>2020-09-13T10:32:24.000Z</Time>
            <Position>
              <LatitudeDegrees>41.1499182879924774169921875</LatitudeDegrees>
              <LongitudeDegrees>-4.46576359681785106658935546875</LongitudeDegrees>
            </Position>
            <AltitudeMeters>811.5999755859375</AltitudeMeters>
            <DistanceMeters>42192.763727939</DistanceMeters>
          </Trackpoint>
          <Trackpoint>
            <Time>2020-09-13T10:32:26.000Z</Time>
            <Position>
              <LatitudeDegrees>41.149987019598484039306640625</LatitudeDegrees>
              <LongitudeDegrees>-4.4658768363296985626220703125</LongitudeDegrees>
            </Position>
            <AltitudeMeters>811.5999755859375</AltitudeMeters>
            <DistanceMeters>42204.953844344</DistanceMeters>
          </Trackpoint>
          <Trackpoint>
            <Time>2020-09-13T10:32:29.000Z</Time>
            <Position>
              <LatitudeDegrees>41.1500944755971431732177734375</LatitudeDegrees>
              <LongitudeDegrees>-4.466043971478939056396484375</LongitudeDegrees>
            </Position>
            <AltitudeMeters>811.5999755859375</AltitudeMeters>
            <DistanceMeters>42223.372365235</DistanceMeters>
          </Trackpoint>
          <Trackpoint>
            <Time>2020-09-13T10:32:31.000Z</Time>
            <Position>
              <LatitudeDegrees>41.150166057050228118896484375</LatitudeDegrees>
              <LongitudeDegrees>-4.46615167893469333648681640625</LongitudeDegrees>
            </Position>
            <AltitudeMeters>811.4000244140625</AltitudeMeters>
            <DistanceMeters>42235.411916186</DistanceMeters>
          </Trackpoint>
          <Trackpoint>
            <Time>2020-09-13T10:32:32.000Z</Time>
            <Position>
              <LatitudeDegrees>41.15020218305289745330810546875</LatitudeDegrees>
              <LongitudeDegrees>-4.4662087596952915191650390625</LongitudeDegrees>
            </Position>
            <AltitudeMeters>811.4000244140625</AltitudeMeters>
            <DistanceMeters>42241.66060009</DistanceMeters>
          </Trackpoint>
          <Trackpoint>
            <Time>2020-09-13T10:32:34.000Z</Time>
            <Position>
              <LatitudeDegrees>41.15027745254337787628173828125</LatitudeDegrees>
              <LongitudeDegrees>-4.46631646715104579925537109375</LongitudeDegrees>
            </Position>
            <AltitudeMeters>811.20001220703125</AltitudeMeters>
            <DistanceMeters>42253.976003614</DistanceMeters>
          </Trackpoint>
          <Trackpoint>
            <Time>2020-09-13T10:32:36.000Z</Time>
            <Position>
              <LatitudeDegrees>41.15035456605255603790283203125</LatitudeDegrees>
              <LongitudeDegrees>-4.4664238393306732177734375</LongitudeDegrees>
            </Position>
            <AltitudeMeters>811</AltitudeMeters>
            <DistanceMeters>42266.411439236</DistanceMeters>
          </Trackpoint>
          <Trackpoint>
            <Time>2020-09-13T10:32:38.000Z</Time>
            <Position>
              <LatitudeDegrees>41.150434948503971099853515625</LatitudeDegrees>
              <LongitudeDegrees>-4.46652919985353946685791015625</LongitudeDegrees>
            </Position>
            <AltitudeMeters>811.20001220703125</AltitudeMeters>
            <DistanceMeters>42278.982291942</DistanceMeters>
          </Trackpoint>
          <Trackpoint>
            <Time>2020-09-13T10:32:42.000Z</Time>
            <Position>
              <LatitudeDegrees>41.150601245462894439697265625</LatitudeDegrees>
              <LongitudeDegrees>-4.466748051345348358154296875</LongitudeDegrees>
            </Position>
            <AltitudeMeters>811.20001220703125</AltitudeMeters>
            <DistanceMeters>42305.040238872</DistanceMeters>
          </Trackpoint>
          <Trackpoint>
            <Time>2020-09-13T10:32:53.000Z</Time>
            <Position>
              <LatitudeDegrees>41.1510153114795684814453125</LatitudeDegrees>
              <LongitudeDegrees>-4.467312991619110107421875</LongitudeDegrees>
            </Position>
            <AltitudeMeters>810.5999755859375</AltitudeMeters>
            <DistanceMeters>42371.113400576</DistanceMeters>
          </Trackpoint>
          <Trackpoint>
            <Time>2020-09-13T10:32:54.000Z</Time>
            <Position>
              <LatitudeDegrees>41.15105529315769672393798828125</LatitudeDegrees>
              <LongitudeDegrees>-4.46736789308488368988037109375</LongitudeDegrees>
            </Position>
            <AltitudeMeters>810.5999755859375</AltitudeMeters>
            <DistanceMeters>42377.514844702</DistanceMeters>
          </Trackpoint>
          <Trackpoint>
            <Time>2020-09-13T10:33:04.000Z</Time>
            <Position>
              <LatitudeDegrees>41.15143130533397197723388671875</LatitudeDegrees>
              <LongitudeDegrees>-4.46794104762375354766845703125</LongitudeDegrees>
            </Position>
            <AltitudeMeters>810.79998779296875</AltitudeMeters>
            <DistanceMeters>42441.223861019</DistanceMeters>
          </Trackpoint>
          <Trackpoint>
            <Time>2020-09-13T10:33:05.000Z</Time>
            <Position>
              <LatitudeDegrees>41.15146483294665813446044921875</LatitudeDegrees>
              <LongitudeDegrees>-4.46799871511757373809814453125</LongitudeDegrees>
            </Position>
            <AltitudeMeters>810.5999755859375</AltitudeMeters>
            <DistanceMeters>42447.330760045</DistanceMeters>
          </Trackpoint>
          <Trackpoint>
            <Time>2020-09-13T10:33:10.000Z</Time>
            <Position>
              <LatitudeDegrees>41.151635907590389251708984375</LatitudeDegrees>
              <LongitudeDegrees>-4.4682965241372585296630859375</LongitudeDegrees>
            </Position>
            <AltitudeMeters>810.20001220703125</AltitudeMeters>
            <DistanceMeters>42478.723248998</DistanceMeters>
          </Trackpoint>
          <Trackpoint>
            <Time>2020-09-13T10:33:16.000Z</Time>
            <Position>
              <LatitudeDegrees>41.15183799527585506439208984375</LatitudeDegrees>
              <LongitudeDegrees>-4.46866340003907680511474609375</LongitudeDegrees>
            </Position>
            <AltitudeMeters>809.4000244140625</AltitudeMeters>
            <DistanceMeters>42516.818888719</DistanceMeters>
          </Trackpoint>
          <Trackpoint>
            <Time>2020-09-13T10:33:26.000Z</Time>
            <Position>
              <LatitudeDegrees>41.15217863582074642181396484375</LatitudeDegrees>
              <LongitudeDegrees>-4.4692607782781124114990234375</LongitudeDegrees>
            </Position>
            <AltitudeMeters>807.20001220703125</AltitudeMeters>
            <DistanceMeters>42579.61939785</DistanceMeters>
          </Trackpoint>
          <Trackpoint>
            <Time>2020-09-13T10:33:27.000Z</Time>
            <Position>
              <LatitudeDegrees>41.15221233107149600982666015625</LatitudeDegrees>
              <LongitudeDegrees>-4.4693206250667572021484375</LongitudeDegrees>
            </Position>
            <AltitudeMeters>807</AltitudeMeters>
            <DistanceMeters>42585.882516248</DistanceMeters>
          </Trackpoint>
          <Trackpoint>
            <Time>2020-09-13T10:33:33.000Z</Time>
            <Position>
              <LatitudeDegrees>41.152411065995693206787109375</LatitudeDegrees>
              <LongitudeDegrees>-4.46967895142734050750732421875</LongitudeDegrees>
            </Position>
            <AltitudeMeters>805.5999755859375</AltitudeMeters>
            <DistanceMeters>42623.179866104</DistanceMeters>
          </Trackpoint>
          <Trackpoint>
            <Time>2020-09-13T10:33:34.000Z</Time>
            <Position>
              <LatitudeDegrees>41.15244065411388874053955078125</LatitudeDegrees>
              <LongitudeDegrees>-4.469740726053714752197265625</LongitudeDegrees>
            </Position>
            <AltitudeMeters>805.5999755859375</AltitudeMeters>
            <DistanceMeters>42629.316267229</DistanceMeters>
          </Trackpoint>
          <Trackpoint>
            <Time>2020-09-13T10:33:39.000Z</Time>
            <Position>
              <LatitudeDegrees>41.15260829217731952667236328125</LatitudeDegrees>
              <LongitudeDegrees>-4.47004389949142932891845703125</LongitudeDegrees>
            </Position>
            <AltitudeMeters>805</AltitudeMeters>
            <DistanceMeters>42660.839222391</DistanceMeters>
          </Trackpoint>
          <Trackpoint>
            <Time>2020-09-13T10:33:41.000Z</Time>
            <Position>
              <LatitudeDegrees>41.1526737548410892486572265625</LatitudeDegrees>
              <LongitudeDegrees>-4.47016225196421146392822265625</LongitudeDegrees>
            </Position>
            <AltitudeMeters>804.79998779296875</AltitudeMeters>
            <DistanceMeters>42673.146557694</DistanceMeters>
          </Trackpoint>
          <Trackpoint>
            <Time>2020-09-13T10:33:43.000Z</Time>
            <Position>
              <LatitudeDegrees>41.152740307152271270751953125</LatitudeDegrees>
              <LongitudeDegrees>-4.47028152644634246826171875</LongitudeDegrees>
            </Position>
            <AltitudeMeters>804.4000244140625</AltitudeMeters>
            <DistanceMeters>42685.588164118</DistanceMeters>
          </Trackpoint>
          <Trackpoint>
            <Time>2020-09-13T10:33:47.000Z</Time>
            <Position>
              <LatitudeDegrees>41.15286796353757381439208984375</LatitudeDegrees>
              <LongitudeDegrees>-4.47051261551678180694580078125</LongitudeDegrees>
            </Position>
            <AltitudeMeters>803.79998779296875</AltitudeMeters>
            <DistanceMeters>42709.607752251</DistanceMeters>
          </Trackpoint>
          <Trackpoint>
            <Time>2020-09-13T10:33:57.000Z</Time>
            <Position>
              <LatitudeDegrees>41.15319569595158100128173828125</LatitudeDegrees>
              <LongitudeDegrees>-4.47108442895114421844482421875</LongitudeDegrees>
            </Position>
            <AltitudeMeters>805.79998779296875</AltitudeMeters>
            <DistanceMeters>42769.832502184</DistanceMeters>
          </Trackpoint>
          <Trackpoint>
            <Time>2020-09-13T10:33:58.000Z</Time>
            <Position>
              <LatitudeDegrees>41.15322637371718883514404296875</LatitudeDegrees>
              <LongitudeDegrees>-4.47114075534045696258544921875</LongitudeDegrees>
            </Position>
            <AltitudeMeters>805.5999755859375</AltitudeMeters>
            <DistanceMeters>42775.658655062</DistanceMeters>
          </Trackpoint>
          <Trackpoint>
            <Time>2020-09-13T10:33:59.000Z</Time>
            <Position>
              <LatitudeDegrees>41.15325688384473323822021484375</LatitudeDegrees>
              <LongitudeDegrees>-4.47119976393878459930419921875</LongitudeDegrees>
            </Position>
            <AltitudeMeters>805.5999755859375</AltitudeMeters>
            <DistanceMeters>42781.658145432</DistanceMeters>
          </Trackpoint>
          <Trackpoint>
            <Time>2020-09-13T10:34:04.000Z</Time>
            <Position>
              <LatitudeDegrees>41.1534083448350429534912109375</LatitudeDegrees>
              <LongitudeDegrees>-4.47149849496781826019287109375</LongitudeDegrees>
            </Position>
            <AltitudeMeters>804.79998779296875</AltitudeMeters>
            <DistanceMeters>42811.8400122</DistanceMeters>
          </Trackpoint>
          <Trackpoint>
            <Time>2020-09-13T10:34:05.000Z</Time>
            <Position>
              <LatitudeDegrees>41.153439693152904510498046875</LatitudeDegrees>
              <LongitudeDegrees>-4.47155892848968505859375</LongitudeDegrees>
            </Position>
            <AltitudeMeters>804.79998779296875</AltitudeMeters>
            <DistanceMeters>42817.989643095</DistanceMeters>
          </Trackpoint>
          <Trackpoint>
            <Time>2020-09-13T10:34:09.000Z</Time>
            <Position>
              <LatitudeDegrees>41.15355326794087886810302734375</LatitudeDegrees>
              <LongitudeDegrees>-4.471806026995182037353515625</LongitudeDegrees>
            </Position>
            <AltitudeMeters>804.79998779296875</AltitudeMeters>
            <DistanceMeters>42842.251063147</DistanceMeters>
          </Trackpoint>
          <Trackpoint>
            <Time>2020-09-13T10:34:13.000Z</Time>
            <Position>
              <LatitudeDegrees>41.1536514200270175933837890625</LatitudeDegrees>
              <LongitudeDegrees>-4.47206393815577030181884765625</LongitudeDegrees>
            </Position>
            <AltitudeMeters>805</AltitudeMeters>
            <DistanceMeters>42866.469269629</DistanceMeters>
          </Trackpoint>
          <Trackpoint>
            <Time>2020-09-13T10:34:17.000Z</Time>
            <Position>
              <LatitudeDegrees>41.1537399329245090484619140625</LatitudeDegrees>
              <LongitudeDegrees>-4.47232327423989772796630859375</LongitudeDegrees>
            </Position>
            <AltitudeMeters>805</AltitudeMeters>
            <DistanceMeters>42890.331383958</DistanceMeters>
          </Trackpoint>
          <Trackpoint>
            <Time>2020-09-13T10:34:18.000Z</Time>
            <Position>
              <LatitudeDegrees>41.15376164205372333526611328125</LatitudeDegrees>
              <LongitudeDegrees>-4.47238915599882602691650390625</LongitudeDegrees>
            </Position>
            <AltitudeMeters>805</AltitudeMeters>
            <DistanceMeters>42896.357905961</DistanceMeters>
          </Trackpoint>
          <Trackpoint>
            <Time>2020-09-13T10:34:20.000Z</Time>
            <Position>
              <LatitudeDegrees>41.15380145609378814697265625</LatitudeDegrees>
              <LongitudeDegrees>-4.47252360172569751739501953125</LongitudeDegrees>
            </Position>
            <AltitudeMeters>805</AltitudeMeters>
            <DistanceMeters>42908.465144743</DistanceMeters>
          </Trackpoint>
          <Trackpoint>
            <Time>2020-09-13T10:34:24.000Z</Time>
            <Position>
              <LatitudeDegrees>41.153880916535854339599609375</LatitudeDegrees>
              <LongitudeDegrees>-4.47278939187526702880859375</LongitudeDegrees>
            </Position>
            <AltitudeMeters>805</AltitudeMeters>
            <DistanceMeters>42932.43091225</DistanceMeters>
          </Trackpoint>
          <Trackpoint>
            <Time>2020-09-13T10:34:25.000Z</Time>
            <Position>
              <LatitudeDegrees>41.15390011109411716461181640625</LatitudeDegrees>
              <LongitudeDegrees>-4.4728562794625759124755859375</LongitudeDegrees>
            </Position>
            <AltitudeMeters>805</AltitudeMeters>
            <DistanceMeters>42938.43040262</DistanceMeters>
          </Trackpoint>
          <Trackpoint>
            <Time>2020-09-13T10:34:29.000Z</Time>
            <Position>
              <LatitudeDegrees>41.15397286601364612579345703125</LatitudeDegrees>
              <LongitudeDegrees>-4.47310765273869037628173828125</LongitudeDegrees>
            </Position>
            <AltitudeMeters>804.5999755859375</AltitudeMeters>
            <DistanceMeters>42960.999197269</DistanceMeters>
          </Trackpoint>
          <Trackpoint>
            <Time>2020-09-13T10:34:32.000Z</Time>
            <Position>
              <LatitudeDegrees>41.15402718074619770050048828125</LatitudeDegrees>
              <LongitudeDegrees>-4.47330194525420665740966796875</LongitudeDegrees>
            </Position>
            <AltitudeMeters>804.4000244140625</AltitudeMeters>
            <DistanceMeters>42978.367782812</DistanceMeters>
          </Trackpoint>
          <Trackpoint>
            <Time>2020-09-13T10:34:33.000Z</Time>
            <Position>
              <LatitudeDegrees>41.15404377691447734832763671875</LatitudeDegrees>
              <LongitudeDegrees>-4.47336782701313495635986328125</LongitudeDegrees>
            </Position>
            <AltitudeMeters>804.20001220703125</AltitudeMeters>
            <DistanceMeters>42984.18928407</DistanceMeters>
          </Trackpoint>
          <Trackpoint>
            <Time>2020-09-13T10:34:34.000Z</Time>
            <Position>
              <LatitudeDegrees>41.15406095981597900390625</LatitudeDegrees>
              <LongitudeDegrees>-4.47343253530561923980712890625</LongitudeDegrees>
            </Position>
            <AltitudeMeters>804.20001220703125</AltitudeMeters>
            <DistanceMeters>42989.93820395</DistanceMeters>
          </Trackpoint>
          <Trackpoint>
            <Time>2020-09-13T10:34:36.000Z</Time>
            <Position>
              <LatitudeDegrees>41.1540976725518703460693359375</LatitudeDegrees>
              <LongitudeDegrees>-4.47356061078608036041259765625</LongitudeDegrees>
            </Position>
            <AltitudeMeters>804.20001220703125</AltitudeMeters>
            <DistanceMeters>43001.422684632</DistanceMeters>
          </Trackpoint>
          <Trackpoint>
            <Time>2020-09-13T10:34:39.000Z</Time>
            <Position>
              <LatitudeDegrees>41.1541503109037876129150390625</LatitudeDegrees>
              <LongitudeDegrees>-4.47375423274934291839599609375</LongitudeDegrees>
            </Position>
            <AltitudeMeters>804.79998779296875</AltitudeMeters>
            <DistanceMeters>43018.674155857</DistanceMeters>
          </Trackpoint>
          <Trackpoint>
            <Time>2020-09-13T10:34:40.000Z</Time>
            <Position>
              <LatitudeDegrees>41.15416799671947956085205078125</LatitudeDegrees>
              <LongitudeDegrees>-4.47381977923214435577392578125</LongitudeDegrees>
            </Position>
            <AltitudeMeters>804.79998779296875</AltitudeMeters>
            <DistanceMeters>43024.508827073</DistanceMeters>
          </Trackpoint>
          <Trackpoint>
            <Time>2020-09-13T10:34:47.000Z</Time>
            <Position>
              <LatitudeDegrees>41.15428148768842220306396484375</LatitudeDegrees>
              <LongitudeDegrees>-4.4742734916508197784423828125</LongitudeDegrees>
            </Position>
            <AltitudeMeters>804.79998779296875</AltitudeMeters>
            <DistanceMeters>43064.574956779</DistanceMeters>
          </Trackpoint>
          <Trackpoint>
            <Time>2020-09-13T10:34:54.000Z</Time>
            <Position>
              <LatitudeDegrees>41.154377795755863189697265625</LatitudeDegrees>
              <LongitudeDegrees>-4.47474312968552112579345703125</LongitudeDegrees>
            </Position>
            <AltitudeMeters>804</AltitudeMeters>
            <DistanceMeters>43105.365886478</DistanceMeters>
          </Trackpoint>
          <Trackpoint>
            <Time>2020-09-13T10:34:58.000Z</Time>
            <Position>
              <LatitudeDegrees>41.1544235609471797943115234375</LatitudeDegrees>
              <LongitudeDegrees>-4.47501294314861297607421875</LongitudeDegrees>
            </Position>
            <AltitudeMeters>803.79998779296875</AltitudeMeters>
            <DistanceMeters>43128.543835218</DistanceMeters>
          </Trackpoint>
          <Trackpoint>
            <Time>2020-09-13T10:34:59.000Z</Time>
            <Position>
              <LatitudeDegrees>41.1544352956116199493408203125</LatitudeDegrees>
              <LongitudeDegrees>-4.47508326731622219085693359375</LongitudeDegrees>
            </Position>
            <AltitudeMeters>803.79998779296875</AltitudeMeters>
            <DistanceMeters>43134.580088895</DistanceMeters>
          </Trackpoint>
          <Trackpoint>
            <Time>2020-09-13T10:35:06.000Z</Time>
            <Position>
              <LatitudeDegrees>41.15450209937989711761474609375</LatitudeDegrees>
              <LongitudeDegrees>-4.4755592755973339080810546875</LongitudeDegrees>
            </Position>
            <AltitudeMeters>802.79998779296875</AltitudeMeters>
            <DistanceMeters>43175.158387519</DistanceMeters>
          </Trackpoint>
          <Trackpoint>
            <Time>2020-09-13T10:35:07.000Z</Time>
            <Position>
              <LatitudeDegrees>41.1545102298259735107421875</LatitudeDegrees>
              <LongitudeDegrees>-4.47562792338430881500244140625</LongitudeDegrees>
            </Position>
            <AltitudeMeters>802.79998779296875</AltitudeMeters>
            <DistanceMeters>43180.982215052</DistanceMeters>
          </Trackpoint>
          <Trackpoint>
            <Time>2020-09-13T10:35:14.000Z</Time>
            <Position>
              <LatitudeDegrees>41.15457057952880859375</LatitudeDegrees>
              <LongitudeDegrees>-4.47609747759997844696044921875</LongitudeDegrees>
            </Position>
            <AltitudeMeters>803.4000244140625</AltitudeMeters>
            <DistanceMeters>43220.901579403</DistanceMeters>
          </Trackpoint>
          <Trackpoint>
            <Time>2020-09-13T10:35:25.000Z</Time>
            <Position>
              <LatitudeDegrees>41.154671497642993927001953125</LatitudeDegrees>
              <LongitudeDegrees>-4.476843215525150299072265625</LongitudeDegrees>
            </Position>
            <AltitudeMeters>804.5999755859375</AltitudeMeters>
            <DistanceMeters>43284.39819956</DistanceMeters>
          </Trackpoint>
          <Trackpoint>
            <Time>2020-09-13T10:35:27.000Z</Time>
            <Position>
              <LatitudeDegrees>41.15469069220125675201416015625</LatitudeDegrees>
              <LongitudeDegrees>-4.476980678737163543701171875</LongitudeDegrees>
            </Position>
            <AltitudeMeters>804.79998779296875</AltitudeMeters>
            <DistanceMeters>43296.114265112</DistanceMeters>
          </Trackpoint>
          <Trackpoint>
            <Time>2020-09-13T10:35:28.000Z</Time>
            <Position>
              <LatitudeDegrees>41.1547006666660308837890625</LatitudeDegrees>
              <LongitudeDegrees>-4.47704681195318698883056640625</LongitudeDegrees>
            </Position>
            <AltitudeMeters>805</AltitudeMeters>
            <DistanceMeters>43301.766557608</DistanceMeters>
          </Trackpoint>
          <Trackpoint>
            <Time>2020-09-13T10:35:30.000Z</Time>
            <Position>
              <LatitudeDegrees>41.15472170524299144744873046875</LatitudeDegrees>
              <LongitudeDegrees>-4.4771759770810604095458984375</LongitudeDegrees>
            </Position>
            <AltitudeMeters>805</AltitudeMeters>
            <DistanceMeters>43312.841145558</DistanceMeters>
          </Trackpoint>
          <Trackpoint>
            <Time>2020-09-13T10:35:31.000Z</Time>
            <Position>
              <LatitudeDegrees>41.1547323502600193023681640625</LatitudeDegrees>
              <LongitudeDegrees>-4.47724211029708385467529296875</LongitudeDegrees>
            </Position>
            <AltitudeMeters>805</AltitudeMeters>
            <DistanceMeters>43318.507798171</DistanceMeters>
          </Trackpoint>
          <Trackpoint>
            <Time>2020-09-13T10:35:32.000Z</Time>
            <Position>
              <LatitudeDegrees>41.15474249236285686492919921875</LatitudeDegrees>
              <LongitudeDegrees>-4.47730614803731441497802734375</LongitudeDegrees>
            </Position>
            <AltitudeMeters>805</AltitudeMeters>
            <DistanceMeters>43323.991424212</DistanceMeters>
          </Trackpoint>
          <Trackpoint>
            <Time>2020-09-13T10:35:33.000Z</Time>
            <Position>
              <LatitudeDegrees>41.15475221537053585052490234375</LatitudeDegrees>
              <LongitudeDegrees>-4.47737135924398899078369140625</LongitudeDegrees>
            </Position>
            <AltitudeMeters>805</AltitudeMeters>
            <DistanceMeters>43329.561643477</DistanceMeters>
          </Trackpoint>
          <Trackpoint>
            <Time>2020-09-13T10:35:34.000Z</Time>
            <Position>
              <LatitudeDegrees>41.15476177074015140533447265625</LatitudeDegrees>
              <LongitudeDegrees>-4.477437324821949005126953125</LongitudeDegrees>
            </Position>
            <AltitudeMeters>805</AltitudeMeters>
            <DistanceMeters>43335.191525209</DistanceMeters>
          </Trackpoint>
          <Trackpoint>
            <Time>2020-09-13T10:35:35.000Z</Time>
            <Position>
              <LatitudeDegrees>41.154770068824291229248046875</LatitudeDegrees>
              <LongitudeDegrees>-4.4775032065808773040771484375</LongitudeDegrees>
            </Position>
            <AltitudeMeters>805</AltitudeMeters>
            <DistanceMeters>43340.789235925</DistanceMeters>
          </Trackpoint>
          <Trackpoint>
            <Time>2020-09-13T10:35:36.000Z</Time>
            <Position>
              <LatitudeDegrees>41.15477970801293849945068359375</LatitudeDegrees>
              <LongitudeDegrees>-4.47756908833980560302734375</LongitudeDegrees>
            </Position>
            <AltitudeMeters>805</AltitudeMeters>
            <DistanceMeters>43346.413501013</DistanceMeters>
          </Trackpoint>
          <Trackpoint>
            <Time>2020-09-13T10:35:42.000Z</Time>
            <Position>
              <LatitudeDegrees>41.1548322625458240509033203125</LatitudeDegrees>
              <LongitudeDegrees>-4.477980472147464752197265625</LongitudeDegrees>
            </Position>
            <AltitudeMeters>805.20001220703125</AltitudeMeters>
            <DistanceMeters>43381.381395162</DistanceMeters>
          </Trackpoint>
          <Trackpoint>
            <Time>2020-09-13T10:35:50.000Z</Time>
            <Position>
              <LatitudeDegrees>41.154888756573200225830078125</LatitudeDegrees>
              <LongitudeDegrees>-4.47852035053074359893798828125</LongitudeDegrees>
            </Position>
            <AltitudeMeters>805.4000244140625</AltitudeMeters>
            <DistanceMeters>43427.059601051</DistanceMeters>
          </Trackpoint>
          <Trackpoint>
            <Time>2020-09-13T10:35:51.000Z</Time>
            <Position>
              <LatitudeDegrees>41.1548946239054203033447265625</LatitudeDegrees>
              <LongitudeDegrees>-4.47858757339417934417724609375</LongitudeDegrees>
            </Position>
            <AltitudeMeters>805.4000244140625</AltitudeMeters>
            <DistanceMeters>43432.73103229</DistanceMeters>
          </Trackpoint>
          <Trackpoint>
            <Time>2020-09-13T10:35:56.000Z</Time>
            <Position>
              <LatitudeDegrees>41.1549157463014125823974609375</LatitudeDegrees>
              <LongitudeDegrees>-4.4789281301200389862060546875</LongitudeDegrees>
            </Position>
            <AltitudeMeters>804.5999755859375</AltitudeMeters>
            <DistanceMeters>43461.367360651</DistanceMeters>
          </Trackpoint>
          <Trackpoint>
            <Time>2020-09-13T10:35:59.000Z</Time>
            <Position>
              <LatitudeDegrees>41.1549190990626811981201171875</LatitudeDegrees>
              <LongitudeDegrees>-4.479131139814853668212890625</LongitudeDegrees>
            </Position>
            <AltitudeMeters>804</AltitudeMeters>
            <DistanceMeters>43478.384307833</DistanceMeters>
          </Trackpoint>
          <Trackpoint>
            <Time>2020-09-13T10:36:01.000Z</Time>
            <Position>
              <LatitudeDegrees>41.1549244634807109832763671875</LatitudeDegrees>
              <LongitudeDegrees>-4.4792627356946468353271484375</LongitudeDegrees>
            </Position>
            <AltitudeMeters>803.79998779296875</AltitudeMeters>
            <DistanceMeters>43489.428685254</DistanceMeters>
          </Trackpoint>
          <Trackpoint>
            <Time>2020-09-13T10:36:06.000Z</Time>
            <Position>
              <LatitudeDegrees>41.15493527613580226898193359375</LatitudeDegrees>
              <LongitudeDegrees>-4.4795919768512248992919921875</LongitudeDegrees>
            </Position>
            <AltitudeMeters>803.20001220703125</AltitudeMeters>
            <DistanceMeters>43517.04616897</DistanceMeters>
          </Trackpoint>
          <Trackpoint>
            <Time>2020-09-13T10:36:10.000Z</Time>
            <Position>
              <LatitudeDegrees>41.154948435723781585693359375</LatitudeDegrees>
              <LongitudeDegrees>-4.47984955273568630218505859375</LongitudeDegrees>
            </Position>
            <AltitudeMeters>803</AltitudeMeters>
            <DistanceMeters>43538.68118717</DistanceMeters>
          </Trackpoint>
          <Trackpoint>
            <Time>2020-09-13T10:36:21.000Z</Time>
            <Position>
              <LatitudeDegrees>41.15496176294982433319091796875</LatitudeDegrees>
              <LongitudeDegrees>-4.48060325346887111663818359375</LongitudeDegrees>
            </Position>
            <AltitudeMeters>802.79998779296875</AltitudeMeters>
            <DistanceMeters>43601.860875769</DistanceMeters>
          </Trackpoint>
          <Trackpoint>
            <Time>2020-09-13T10:36:22.000Z</Time>
            <Position>
              <LatitudeDegrees>41.15496419370174407958984375</LatitudeDegrees>
              <LongitudeDegrees>-4.4806705601513385772705078125</LongitudeDegrees>
            </Position>
            <AltitudeMeters>802.79998779296875</AltitudeMeters>
            <DistanceMeters>43607.508373445</DistanceMeters>
          </Trackpoint>
          <Trackpoint>
            <Time>2020-09-13T10:36:32.000Z</Time>
            <Position>
              <LatitudeDegrees>41.15498523227870464324951171875</LatitudeDegrees>
              <LongitudeDegrees>-4.4813179783523082733154296875</LongitudeDegrees>
            </Position>
            <AltitudeMeters>802.5999755859375</AltitudeMeters>
            <DistanceMeters>43661.814373996</DistanceMeters>
          </Trackpoint>
          <Trackpoint>
            <Time>2020-09-13T10:36:40.000Z</Time>
            <Position>
              <LatitudeDegrees>41.1549975536763668060302734375</LatitudeDegrees>
              <LongitudeDegrees>-4.4818500615656375885009765625</LongitudeDegrees>
            </Position>
            <AltitudeMeters>803.79998779296875</AltitudeMeters>
            <DistanceMeters>43706.425545329</DistanceMeters>
          </Trackpoint>
          <Trackpoint>
            <Time>2020-09-13T10:36:41.000Z</Time>
            <Position>
              <LatitudeDegrees>41.15499814040958881378173828125</LatitudeDegrees>
              <LongitudeDegrees>-4.48191560804843902587890625</LongitudeDegrees>
            </Position>
            <AltitudeMeters>803.79998779296875</AltitudeMeters>
            <DistanceMeters>43711.918220942</DistanceMeters>
          </Trackpoint>
          <Trackpoint>
            <Time>2020-09-13T10:36:44.000Z</Time>
            <Position>
              <LatitudeDegrees>41.15500316955149173736572265625</LatitudeDegrees>
              <LongitudeDegrees>-4.48209841735661029815673828125</LongitudeDegrees>
            </Position>
            <AltitudeMeters>804</AltitudeMeters>
            <DistanceMeters>43727.248477611</DistanceMeters>
          </Trackpoint>
          <Trackpoint>
            <Time>2020-09-13T10:36:46.000Z</Time>
            <Position>
              <LatitudeDegrees>41.155009455978870391845703125</LatitudeDegrees>
              <LongitudeDegrees>-4.482215009629726409912109375</LongitudeDegrees>
            </Position>
            <AltitudeMeters>804.20001220703125</AltitudeMeters>
            <DistanceMeters>43737.044528978</DistanceMeters>
          </Trackpoint>
          <Trackpoint>
            <Time>2020-09-13T10:36:48.000Z</Time>
            <Position>
              <LatitudeDegrees>41.15501373074948787689208984375</LatitudeDegrees>
              <LongitudeDegrees>-4.48232908733189105987548828125</LongitudeDegrees>
            </Position>
            <AltitudeMeters>804.20001220703125</AltitudeMeters>
            <DistanceMeters>43746.616318549</DistanceMeters>
          </Trackpoint>
          <Trackpoint>
            <Time>2020-09-13T10:36:49.000Z</Time>
            <Position>
              <LatitudeDegrees>41.15501540713012218475341796875</LatitudeDegrees>
              <LongitudeDegrees>-4.48238574899733066558837890625</LongitudeDegrees>
            </Position>
            <AltitudeMeters>804.4000244140625</AltitudeMeters>
            <DistanceMeters>43751.369554422</DistanceMeters>
          </Trackpoint>
          <Trackpoint>
            <Time>2020-09-13T10:36:53.000Z</Time>
            <Position>
              <LatitudeDegrees>41.155023872852325439453125</LatitudeDegrees>
              <LongitudeDegrees>-4.482622034847736358642578125</LongitudeDegrees>
            </Position>
            <AltitudeMeters>804.4000244140625</AltitudeMeters>
            <DistanceMeters>43771.193502738</DistanceMeters>
          </Trackpoint>
          <Trackpoint>
            <Time>2020-09-13T10:36:55.000Z</Time>
            <Position>
              <LatitudeDegrees>41.1550290696322917938232421875</LatitudeDegrees>
              <LongitudeDegrees>-4.48273158632218837738037109375</LongitudeDegrees>
            </Position>
            <AltitudeMeters>804.20001220703125</AltitudeMeters>
            <DistanceMeters>43780.39246172</DistanceMeters>
          </Trackpoint>
          <Trackpoint>
            <Time>2020-09-13T10:37:06.000Z</Time>
            <Position>
              <LatitudeDegrees>41.15504574961960315704345703125</LatitudeDegrees>
              <LongitudeDegrees>-4.483417980372905731201171875</LongitudeDegrees>
            </Position>
            <AltitudeMeters>805.4000244140625</AltitudeMeters>
            <DistanceMeters>43837.944299045</DistanceMeters>
          </Trackpoint>
          <Trackpoint>
            <Time>2020-09-13T10:37:14.000Z</Time>
            <Position>
              <LatitudeDegrees>41.1550951190292835235595703125</LatitudeDegrees>
              <LongitudeDegrees>-4.48392986319959163665771484375</LongitudeDegrees>
            </Position>
            <AltitudeMeters>804.5999755859375</AltitudeMeters>
            <DistanceMeters>43881.191999719</DistanceMeters>
          </Trackpoint>
          <Trackpoint>
            <Time>2020-09-13T10:37:15.000Z</Time>
            <Position>
              <LatitudeDegrees>41.15511163137853145599365234375</LatitudeDegrees>
              <LongitudeDegrees>-4.48399842716753482818603515625</LongitudeDegrees>
            </Position>
            <AltitudeMeters>804.4000244140625</AltitudeMeters>
            <DistanceMeters>43887.224512302</DistanceMeters>
          </Trackpoint>
          <Trackpoint>
            <Time>2020-09-13T10:37:17.000Z</Time>
            <Position>
              <LatitudeDegrees>41.15514482371509075164794921875</LatitudeDegrees>
              <LongitudeDegrees>-4.484134130179882049560546875</LongitudeDegrees>
            </Position>
            <AltitudeMeters>804.20001220703125</AltitudeMeters>
            <DistanceMeters>43899.182030039</DistanceMeters>
          </Trackpoint>
          <Trackpoint>
            <Time>2020-09-13T10:37:18.000Z</Time>
            <Position>
              <LatitudeDegrees>41.15516225807368755340576171875</LatitudeDegrees>
              <LongitudeDegrees>-4.4841988384723663330078125</LongitudeDegrees>
            </Position>
            <AltitudeMeters>804.20001220703125</AltitudeMeters>
            <DistanceMeters>43904.941934626</DistanceMeters>
          </Trackpoint>
          <Trackpoint>
            <Time>2020-09-13T10:37:19.000Z</Time>
            <Position>
              <LatitudeDegrees>41.15518589504063129425048828125</LatitudeDegrees>
              <LongitudeDegrees>-4.48426212184131145477294921875</LongitudeDegrees>
            </Position>
            <AltitudeMeters>804.4000244140625</AltitudeMeters>
            <DistanceMeters>43910.862640391</DistanceMeters>
          </Trackpoint>
          <Trackpoint>
            <Time>2020-09-13T10:37:21.000Z</Time>
            <Position>
              <LatitudeDegrees>41.15525211207568645477294921875</LatitudeDegrees>
              <LongitudeDegrees>-4.48437594808638095855712890625</LongitudeDegrees>
            </Position>
            <AltitudeMeters>804.79998779296875</AltitudeMeters>
            <DistanceMeters>43922.917182694</DistanceMeters>
          </Trackpoint>
          <Trackpoint>
            <Time>2020-09-13T10:37:23.000Z</Time>
            <Position>
              <LatitudeDegrees>41.15533609874546527862548828125</LatitudeDegrees>
              <LongitudeDegrees>-4.48446881957352161407470703125</LongitudeDegrees>
            </Position>
            <AltitudeMeters>805</AltitudeMeters>
            <DistanceMeters>43935.081344507</DistanceMeters>
          </Trackpoint>
          <Trackpoint>
            <Time>2020-09-13T10:37:26.000Z</Time>
            <Position>
              <LatitudeDegrees>41.15546752698719501495361328125</LatitudeDegrees>
              <LongitudeDegrees>-4.48458516038954257965087890625</LongitudeDegrees>
            </Position>
            <AltitudeMeters>805.20001220703125</AltitudeMeters>
            <DistanceMeters>43952.661029834</DistanceMeters>
          </Trackpoint>
          <Trackpoint>
            <Time>2020-09-13T10:37:32.000Z</Time>
            <Position>
              <LatitudeDegrees>41.15570473484694957733154296875</LatitudeDegrees>
              <LongitudeDegrees>-4.4847599230706691741943359375</LongitudeDegrees>
            </Position>
            <AltitudeMeters>805.4000244140625</AltitudeMeters>
            <DistanceMeters>43982.852618672</DistanceMeters>
          </Trackpoint>
          <Trackpoint>
            <Time>2020-09-13T10:37:34.000Z</Time>
            <Position>
              <LatitudeDegrees>41.155779920518398284912109375</LatitudeDegrees>
              <LongitudeDegrees>-4.4848182611167430877685546875</LongitudeDegrees>
            </Position>
            <AltitudeMeters>805.4000244140625</AltitudeMeters>
            <DistanceMeters>43992.544411859</DistanceMeters>
          </Trackpoint>
          <Trackpoint>
            <Time>2020-09-13T10:37:36.000Z</Time>
            <Position>
              <LatitudeDegrees>41.15585326217114925384521484375</LatitudeDegrees>
              <LongitudeDegrees>-4.48487685061991214752197265625</LongitudeDegrees>
            </Position>
            <AltitudeMeters>805.4000244140625</AltitudeMeters>
            <DistanceMeters>44002.069862405</DistanceMeters>
          </Trackpoint>
          <Trackpoint>
            <Time>2020-09-13T10:37:39.000Z</Time>
            <Position>
              <LatitudeDegrees>41.155974380671977996826171875</LatitudeDegrees>
              <LongitudeDegrees>-4.48497408069670200347900390625</LongitudeDegrees>
            </Position>
            <AltitudeMeters>805.5999755859375</AltitudeMeters>
            <DistanceMeters>44017.821668982</DistanceMeters>
          </Trackpoint>
          <Trackpoint>
            <Time>2020-09-13T10:37:43.000Z</Time>
            <Position>
              <LatitudeDegrees>41.15611377172172069549560546875</LatitudeDegrees>
              <LongitudeDegrees>-4.4850951991975307464599609375</LongitudeDegrees>
            </Position>
            <AltitudeMeters>805.79998779296875</AltitudeMeters>
            <DistanceMeters>44036.361378521</DistanceMeters>
          </Trackpoint>
          <Trackpoint>
            <Time>2020-09-13T10:37:50.000Z</Time>
            <Position>
              <LatitudeDegrees>41.1563969962298870086669921875</LatitudeDegrees>
              <LongitudeDegrees>-4.4853225164115428924560546875</LongitudeDegrees>
            </Position>
            <AltitudeMeters>806</AltitudeMeters>
            <DistanceMeters>44073.193639847</DistanceMeters>
          </Trackpoint>
          <Trackpoint>
            <Time>2020-09-13T10:37:54.000Z</Time>
            <Position>
              <LatitudeDegrees>41.15656505338847637176513671875</LatitudeDegrees>
              <LongitudeDegrees>-4.48544598184525966644287109375</LongitudeDegrees>
            </Position>
            <AltitudeMeters>805.79998779296875</AltitudeMeters>
            <DistanceMeters>44094.569793108</DistanceMeters>
          </Trackpoint>
          <Trackpoint>
            <Time>2020-09-13T10:37:55.000Z</Time>
            <Position>
              <LatitudeDegrees>41.15660763345658779144287109375</LatitudeDegrees>
              <LongitudeDegrees>-4.48548353277146816253662109375</LongitudeDegrees>
            </Position>
            <AltitudeMeters>805.5999755859375</AltitudeMeters>
            <DistanceMeters>44100.258711632</DistanceMeters>
          </Trackpoint>
          <Trackpoint>
            <Time>2020-09-13T10:37:57.000Z</Time>
            <Position>
              <LatitudeDegrees>41.1566823162138462066650390625</LatitudeDegrees>
              <LongitudeDegrees>-4.48555477894842624664306640625</LongitudeDegrees>
            </Position>
            <AltitudeMeters>805.4000244140625</AltitudeMeters>
            <DistanceMeters>44110.493401991</DistanceMeters>
          </Trackpoint>
          <Trackpoint>
            <Time>2020-09-13T10:38:02.000Z</Time>
            <Position>
              <LatitudeDegrees>41.156880967319011688232421875</LatitudeDegrees>
              <LongitudeDegrees>-4.485707245767116546630859375</LongitudeDegrees>
            </Position>
            <AltitudeMeters>805</AltitudeMeters>
            <DistanceMeters>44136.029610408</DistanceMeters>
          </Trackpoint>
          <Trackpoint>
            <Time>2020-09-13T10:38:03.000Z</Time>
            <Position>
              <LatitudeDegrees>41.15692044608294963836669921875</LatitudeDegrees>
              <LongitudeDegrees>-4.48574052192270755767822265625</LongitudeDegrees>
            </Position>
            <AltitudeMeters>805</AltitudeMeters>
            <DistanceMeters>44141.232702679</DistanceMeters>
          </Trackpoint>
          <Trackpoint>
            <Time>2020-09-13T10:38:04.000Z</Time>
            <Position>
              <LatitudeDegrees>41.1569585837423801422119140625</LatitudeDegrees>
              <LongitudeDegrees>-4.485775642096996307373046875</LongitudeDegrees>
            </Position>
            <AltitudeMeters>804.79998779296875</AltitudeMeters>
            <DistanceMeters>44146.397472356</DistanceMeters>
          </Trackpoint>
          <Trackpoint>
            <Time>2020-09-13T10:38:05.000Z</Time>
            <Position>
              <LatitudeDegrees>41.1569981463253498077392578125</LatitudeDegrees>
              <LongitudeDegrees>-4.485809504985809326171875</LongitudeDegrees>
            </Position>
            <AltitudeMeters>804.79998779296875</AltitudeMeters>
            <DistanceMeters>44151.636021994</DistanceMeters>
          </Trackpoint>
          <Trackpoint>
            <Time>2020-09-13T10:38:06.000Z</Time>
            <Position>
              <LatitudeDegrees>41.15703628398478031158447265625</LatitudeDegrees>
              <LongitudeDegrees>-4.48584294877946376800537109375</LongitudeDegrees>
            </Position>
            <AltitudeMeters>804.5999755859375</AltitudeMeters>
            <DistanceMeters>44156.723280498</DistanceMeters>
          </Trackpoint>
          <Trackpoint>
            <Time>2020-09-13T10:38:11.000Z</Time>
            <Position>
              <LatitudeDegrees>41.15722663700580596923828125</LatitudeDegrees>
              <LongitudeDegrees>-4.48600756935775279998779296875</LongitudeDegrees>
            </Position>
            <AltitudeMeters>804.20001220703125</AltitudeMeters>
            <DistanceMeters>44182.005387432</DistanceMeters>
          </Trackpoint>
          <Trackpoint>
            <Time>2020-09-13T10:38:12.000Z</Time>
            <Position>
              <LatitudeDegrees>41.15726343356072902679443359375</LatitudeDegrees>
              <LongitudeDegrees>-4.4860441982746124267578125</LongitudeDegrees>
            </Position>
            <AltitudeMeters>804.20001220703125</AltitudeMeters>
            <DistanceMeters>44187.124496909</DistanceMeters>
          </Trackpoint>
          <Trackpoint>
            <Time>2020-09-13T10:38:18.000Z</Time>
            <Position>
              <LatitudeDegrees>41.15750164724886417388916015625</LatitudeDegrees>
              <LongitudeDegrees>-4.4862411729991436004638671875</LongitudeDegrees>
            </Position>
            <AltitudeMeters>804.79998779296875</AltitudeMeters>
            <DistanceMeters>44218.356497927</DistanceMeters>
          </Trackpoint>
          <Trackpoint>
            <Time>2020-09-13T10:38:21.000Z</Time>
            <Position>
              <LatitudeDegrees>41.15763072855770587921142578125</LatitudeDegrees>
              <LongitudeDegrees>-4.4863377325236797332763671875</LongitudeDegrees>
            </Position>
            <AltitudeMeters>805.20001220703125</AltitudeMeters>
            <DistanceMeters>44234.845207445</DistanceMeters>
          </Trackpoint>
          <Trackpoint>
            <Time>2020-09-13T10:38:24.000Z</Time>
            <Position>
              <LatitudeDegrees>41.1577474884688854217529296875</LatitudeDegrees>
              <LongitudeDegrees>-4.48642909526824951171875</LongitudeDegrees>
            </Position>
            <AltitudeMeters>805.5999755859375</AltitudeMeters>
            <DistanceMeters>44249.928135405</DistanceMeters>
          </Trackpoint>
          <Trackpoint>
            <Time>2020-09-13T10:38:27.000Z</Time>
            <Position>
              <LatitudeDegrees>41.15785519592463970184326171875</LatitudeDegrees>
              <LongitudeDegrees>-4.4865228049457073211669921875</LongitudeDegrees>
            </Position>
            <AltitudeMeters>806</AltitudeMeters>
            <DistanceMeters>44264.259222546</DistanceMeters>
          </Trackpoint>
          <Trackpoint>
            <Time>2020-09-13T10:38:30.000Z</Time>
            <Position>
              <LatitudeDegrees>41.1579248495399951934814453125</LatitudeDegrees>
              <LongitudeDegrees>-4.48658374138176441192626953125</LongitudeDegrees>
            </Position>
            <AltitudeMeters>806.4000244140625</AltitudeMeters>
            <DistanceMeters>44273.542705168</DistanceMeters>
          </Trackpoint>
          <Trackpoint>
            <Time>2020-09-13T10:38:31.000Z</Time>
            <Position>
              <LatitudeDegrees>41.1579365842044353485107421875</LatitudeDegrees>
              <LongitudeDegrees>-4.486609809100627899169921875</LongitudeDegrees>
            </Position>
            <AltitudeMeters>806.4000244140625</AltitudeMeters>
            <DistanceMeters>44276.085446746</DistanceMeters>
          </Trackpoint>
          <Trackpoint>
            <Time>2020-09-13T10:38:32.000Z</Time>
            <Position>
              <LatitudeDegrees>41.157941110432147979736328125</LatitudeDegrees>
              <LongitudeDegrees>-4.4866408221423625946044921875</LongitudeDegrees>
            </Position>
            <AltitudeMeters>806.4000244140625</AltitudeMeters>
            <DistanceMeters>44278.730878515</DistanceMeters>
          </Trackpoint>
          <Trackpoint>
            <Time>2020-09-13T10:38:35.000Z</Time>
            <Position>
              <LatitudeDegrees>41.15789559669792652130126953125</LatitudeDegrees>
              <LongitudeDegrees>-4.48674760758876800537109375</LongitudeDegrees>
            </Position>
            <AltitudeMeters>806.20001220703125</AltitudeMeters>
            <DistanceMeters>44289.013980924</DistanceMeters>
          </Trackpoint>
          <Trackpoint>
            <Time>2020-09-13T10:38:37.000Z</Time>
            <Position>
              <LatitudeDegrees>41.1578388512134552001953125</LatitudeDegrees>
              <LongitudeDegrees>-4.48681508190929889678955078125</LongitudeDegrees>
            </Position>
            <AltitudeMeters>806</AltitudeMeters>
            <DistanceMeters>44297.491088234</DistanceMeters>
          </Trackpoint>
          <Trackpoint>
            <Time>2020-09-13T10:38:39.000Z</Time>
            <Position>
              <LatitudeDegrees>41.1577682755887508392333984375</LatitudeDegrees>
              <LongitudeDegrees>-4.48686503805220127105712890625</LongitudeDegrees>
            </Position>
            <AltitudeMeters>805.79998779296875</AltitudeMeters>
            <DistanceMeters>44306.392712849</DistanceMeters>
          </Trackpoint>
          <Trackpoint>
            <Time>2020-09-13T10:38:46.000Z</Time>
            <Position>
              <LatitudeDegrees>41.1575277149677276611328125</LatitudeDegrees>
              <LongitudeDegrees>-4.4869797863066196441650390625</LongitudeDegrees>
            </Position>
            <AltitudeMeters>805</AltitudeMeters>
            <DistanceMeters>44334.842225705</DistanceMeters>
          </Trackpoint>
          <Trackpoint>
            <Time>2020-09-13T10:38:47.000Z</Time>
            <Position>
              <LatitudeDegrees>41.1574928462505340576171875</LatitudeDegrees>
              <LongitudeDegrees>-4.48699445463716983795166015625</LongitudeDegrees>
            </Position>
            <AltitudeMeters>804.79998779296875</AltitudeMeters>
            <DistanceMeters>44338.912875564</DistanceMeters>
          </Trackpoint>
          <Trackpoint>
            <Time>2020-09-13T10:38:53.000Z</Time>
            <Position>
              <LatitudeDegrees>41.15725354291498661041259765625</LatitudeDegrees>
              <LongitudeDegrees>-4.4871108792722225189208984375</LongitudeDegrees>
            </Position>
            <AltitudeMeters>804.20001220703125</AltitudeMeters>
            <DistanceMeters>44367.278469184</DistanceMeters>
          </Trackpoint>
          <Trackpoint>
            <Time>2020-09-13T10:38:55.000Z</Time>
            <Position>
              <LatitudeDegrees>41.1571768485009670257568359375</LatitudeDegrees>
              <LongitudeDegrees>-4.4871546328067779541015625</LongitudeDegrees>
            </Position>
            <AltitudeMeters>804.5999755859375</AltitudeMeters>
            <DistanceMeters>44376.569730175</DistanceMeters>
          </Trackpoint>
          <Trackpoint>
            <Time>2020-09-13T10:39:06.000Z</Time>
            <Position>
              <LatitudeDegrees>41.15672213025391101837158203125</LatitudeDegrees>
              <LongitudeDegrees>-4.487373568117618560791015625</LongitudeDegrees>
            </Position>
            <AltitudeMeters>806.20001220703125</AltitudeMeters>
            <DistanceMeters>44430.40351709</DistanceMeters>
          </Trackpoint>
          <Trackpoint>
            <Time>2020-09-13T10:39:10.000Z</Time>
            <Position>
              <LatitudeDegrees>41.15655499510467052459716796875</LatitudeDegrees>
              <LongitudeDegrees>-4.4874478317797183990478515625</LongitudeDegrees>
            </Position>
            <AltitudeMeters>806.79998779296875</AltitudeMeters>
            <DistanceMeters>44450.019111837</DistanceMeters>
          </Trackpoint>
          <Trackpoint>
            <Time>2020-09-13T10:39:13.000Z</Time>
            <Position>
              <LatitudeDegrees>41.156413592398166656494140625</LatitudeDegrees>
              <LongitudeDegrees>-4.48750256560742855072021484375</LongitudeDegrees>
            </Position>
            <AltitudeMeters>807.20001220703125</AltitudeMeters>
            <DistanceMeters>44466.411977508</DistanceMeters>
          </Trackpoint>
          <Trackpoint>
            <Time>2020-09-13T10:39:15.000Z</Time>
            <Position>
              <LatitudeDegrees>41.1563155241310596466064453125</LatitudeDegrees>
              <LongitudeDegrees>-4.487545229494571685791015625</LongitudeDegrees>
            </Position>
            <AltitudeMeters>807.4000244140625</AltitudeMeters>
            <DistanceMeters>44477.898030653</DistanceMeters>
          </Trackpoint>
          <Trackpoint>
            <Time>2020-09-13T10:39:17.000Z</Time>
            <Position>
              <LatitudeDegrees>41.15620949305593967437744140625</LatitudeDegrees>
              <LongitudeDegrees>-4.48759728111326694488525390625</LongitudeDegrees>
            </Position>
            <AltitudeMeters>807.79998779296875</AltitudeMeters>
            <DistanceMeters>44490.480012617</DistanceMeters>
          </Trackpoint>
          <Trackpoint>
            <Time>2020-09-13T10:39:19.000Z</Time>
            <Position>
              <LatitudeDegrees>41.15613087080419063568115234375</LatitudeDegrees>
              <LongitudeDegrees>-4.48763399384915828704833984375</LongitudeDegrees>
            </Position>
            <AltitudeMeters>808</AltitudeMeters>
            <DistanceMeters>44499.756197093</DistanceMeters>
          </Trackpoint>
          <Trackpoint>
            <Time>2020-09-13T10:39:20.000Z</Time>
            <Position>
              <LatitudeDegrees>41.15608896128833293914794921875</LatitudeDegrees>
              <LongitudeDegrees>-4.48765193112194538116455078125</LongitudeDegrees>
            </Position>
            <AltitudeMeters>808</AltitudeMeters>
            <DistanceMeters>44504.657217735</DistanceMeters>
          </Trackpoint>
          <Trackpoint>
            <Time>2020-09-13T10:39:22.000Z</Time>
            <Position>
              <LatitudeDegrees>41.15600715391337871551513671875</LatitudeDegrees>
              <LongitudeDegrees>-4.48769685812294483184814453125</LongitudeDegrees>
            </Position>
            <AltitudeMeters>808.20001220703125</AltitudeMeters>
            <DistanceMeters>44514.510713659</DistanceMeters>
          </Trackpoint>
          <Trackpoint>
            <Time>2020-09-13T10:39:24.000Z</Time>
            <Position>
              <LatitudeDegrees>41.1559232510626316070556640625</LatitudeDegrees>
              <LongitudeDegrees>-4.48774798773229122161865234375</LongitudeDegrees>
            </Position>
            <AltitudeMeters>808.4000244140625</AltitudeMeters>
            <DistanceMeters>44524.785909705</DistanceMeters>
          </Trackpoint>
          <Trackpoint>
            <Time>2020-09-13T10:39:26.000Z</Time>
            <Position>
              <LatitudeDegrees>41.15583582781255245208740234375</LatitudeDegrees>
              <LongitudeDegrees>-4.48779928497970104217529296875</LongitudeDegrees>
            </Position>
            <AltitudeMeters>808.5999755859375</AltitudeMeters>
            <DistanceMeters>44535.42380978</DistanceMeters>
          </Trackpoint>
          <Trackpoint>
            <Time>2020-09-13T10:39:28.000Z</Time>
            <Position>
              <LatitudeDegrees>41.15574345923960208892822265625</LatitudeDegrees>
              <LongitudeDegrees>-4.48785108514130115509033203125</LongitudeDegrees>
            </Position>
            <AltitudeMeters>808.79998779296875</AltitudeMeters>
            <DistanceMeters>44546.583684973</DistanceMeters>
          </Trackpoint>
          <Trackpoint>
            <Time>2020-09-13T10:39:30.000Z</Time>
            <Position>
              <LatitudeDegrees>41.15565276704728603363037109375</LatitudeDegrees>
              <LongitudeDegrees>-4.48789685033261775970458984375</LongitudeDegrees>
            </Position>
            <AltitudeMeters>809</AltitudeMeters>
            <DistanceMeters>44557.381663813</DistanceMeters>
          </Trackpoint>
          <Trackpoint>
            <Time>2020-09-13T10:39:32.000Z</Time>
            <Position>
              <LatitudeDegrees>41.15556324832141399383544921875</LatitudeDegrees>
              <LongitudeDegrees>-4.48793792165815830230712890625</LongitudeDegrees>
            </Position>
            <AltitudeMeters>809</AltitudeMeters>
            <DistanceMeters>44567.922778111</DistanceMeters>
          </Trackpoint>
          <Trackpoint>
            <Time>2020-09-13T10:39:34.000Z</Time>
            <Position>
              <LatitudeDegrees>41.15547624416649341583251953125</LatitudeDegrees>
              <LongitudeDegrees>-4.487973712384700775146484375</LongitudeDegrees>
            </Position>
            <AltitudeMeters>808.5999755859375</AltitudeMeters>
            <DistanceMeters>44578.059950791</DistanceMeters>
          </Trackpoint>
          <Trackpoint>
            <Time>2020-09-13T10:39:35.000Z</Time>
            <Position>
              <LatitudeDegrees>41.1554233543574810028076171875</LatitudeDegrees>
              <LongitudeDegrees>-4.48799349367618560791015625</LongitudeDegrees>
            </Position>
            <AltitudeMeters>808.4000244140625</AltitudeMeters>
            <DistanceMeters>44584.174977083</DistanceMeters>
          </Trackpoint>
          <Trackpoint>
            <Time>2020-09-13T10:39:37.000Z</Time>
            <Position>
              <LatitudeDegrees>41.15533911623060703277587890625</LatitudeDegrees>
              <LongitudeDegrees>-4.48802157305181026458740234375</LongitudeDegrees>
            </Position>
            <AltitudeMeters>808</AltitudeMeters>
            <DistanceMeters>44593.841580987</DistanceMeters>
          </Trackpoint>
          <Trackpoint>
            <Time>2020-09-13T10:39:38.000Z</Time>
            <Position>
              <LatitudeDegrees>41.155292429029941558837890625</LatitudeDegrees>
              <LongitudeDegrees>-4.48803733102977275848388671875</LongitudeDegrees>
            </Position>
            <AltitudeMeters>807.79998779296875</AltitudeMeters>
            <DistanceMeters>44599.201963739</DistanceMeters>
          </Trackpoint>
          <Trackpoint>
            <Time>2020-09-13T10:39:40.000Z</Time>
            <Position>
              <LatitudeDegrees>41.15520156919956207275390625</LatitudeDegrees>
              <LongitudeDegrees>-4.4880704395473003387451171875</LongitudeDegrees>
            </Position>
            <AltitudeMeters>807.5999755859375</AltitudeMeters>
            <DistanceMeters>44609.688539488</DistanceMeters>
          </Trackpoint>
          <Trackpoint>
            <Time>2020-09-13T10:39:42.000Z</Time>
            <Position>
              <LatitudeDegrees>41.15508732385933399200439453125</LatitudeDegrees>
              <LongitudeDegrees>-4.48811209760606288909912109375</LongitudeDegrees>
            </Position>
            <AltitudeMeters>807.20001220703125</AltitudeMeters>
            <DistanceMeters>44622.87501559</DistanceMeters>
          </Trackpoint>
          <Trackpoint>
            <Time>2020-09-13T10:39:44.000Z</Time>
            <Position>
              <LatitudeDegrees>41.15498875267803668975830078125</LatitudeDegrees>
              <LongitudeDegrees>-4.48814579285681247711181640625</LongitudeDegrees>
            </Position>
            <AltitudeMeters>806.79998779296875</AltitudeMeters>
            <DistanceMeters>44634.203937715</DistanceMeters>
          </Trackpoint>
          <Trackpoint>
            <Time>2020-09-13T10:39:46.000Z</Time>
            <Position>
              <LatitudeDegrees>41.15487794391810894012451171875</LatitudeDegrees>
              <LongitudeDegrees>-4.48818904347717761993408203125</LongitudeDegrees>
            </Position>
            <AltitudeMeters>806.4000244140625</AltitudeMeters>
            <DistanceMeters>44647.058913363</DistanceMeters>
          </Trackpoint>
          <Trackpoint>
            <Time>2020-09-13T10:39:49.000Z</Time>
            <Position>
              <LatitudeDegrees>41.154720447957515716552734375</LatitudeDegrees>
              <LongitudeDegrees>-4.48826397769153118133544921875</LongitudeDegrees>
            </Position>
            <AltitudeMeters>806</AltitudeMeters>
            <DistanceMeters>44665.679300447</DistanceMeters>
          </Trackpoint>
          <Trackpoint>
            <Time>2020-09-13T10:39:52.000Z</Time>
            <Position>
              <LatitudeDegrees>41.154573261737823486328125</LatitudeDegrees>
              <LongitudeDegrees>-4.48832876980304718017578125</LongitudeDegrees>
            </Position>
            <AltitudeMeters>805.79998779296875</AltitudeMeters>
            <DistanceMeters>44682.937575025</DistanceMeters>
          </Trackpoint>
          <Trackpoint>
            <Time>2020-09-13T10:39:57.000Z</Time>
            <Position>
              <LatitudeDegrees>41.15442330949008464813232421875</LatitudeDegrees>
              <LongitudeDegrees>-4.48843966238200664520263671875</LongitudeDegrees>
            </Position>
            <AltitudeMeters>805.5999755859375</AltitudeMeters>
            <DistanceMeters>44702.04054467</DistanceMeters>
          </Trackpoint>
          <Trackpoint>
            <Time>2020-09-13T10:40:03.000Z</Time>
            <Position>
              <LatitudeDegrees>41.1543063819408416748046875</LatitudeDegrees>
              <LongitudeDegrees>-4.4885842502117156982421875</LongitudeDegrees>
            </Position>
            <AltitudeMeters>805.4000244140625</AltitudeMeters>
            <DistanceMeters>44719.822224194</DistanceMeters>
          </Trackpoint>
          <Trackpoint>
            <Time>2020-09-13T10:40:04.000Z</Time>
            <Position>
              <LatitudeDegrees>41.1543068848550319671630859375</LatitudeDegrees>
              <LongitudeDegrees>-4.48859003372490406036376953125</LongitudeDegrees>
            </Position>
            <AltitudeMeters>805.4000244140625</AltitudeMeters>
            <DistanceMeters>44720.306767265</DistanceMeters>
          </Trackpoint>
        </Track>
      </Lap>
    </Activity>
  </Activities>
</TrainingCenterDatabase>
